<?xml version="1.0" encoding="UTF-8" standalone="no" ?>
<gpx xmlns="http://www.topografix.com/GPX/1/1" xmlns:xsi="http://www.w3.org/2001/XMLSchema-instance" xsi:schemaLocation="http://www.topografix.com/GPX/1/1 http://www.topografix.com/GPX/1/1/gpx.xsd" version="1.1" creator="VisuGPX - https://www.visugpx.com">
  <metadata>
    <name>Chamrousse-Fond de France - 2023-08-09 au 2023-08-11</name>
  </metadata>
  <trk>
    <name><![CDATA[Chamrousse-Fond de France - 2023-08-09 au 2023-08-11]]></name>
    <trkseg>
      <trkpt lat="45.10871" lon="5.87545">
        <ele>1766.08</ele>
        <time>2023-08-09T15:16:34Z</time>
      </trkpt>
      <trkpt lat="45.10848" lon="5.87553">
        <ele>1765.6</ele>
        <time>2023-08-09T15:16:58Z</time>
      </trkpt>
      <trkpt lat="45.10836" lon="5.87554">
        <ele>1764.64</ele>
        <time>2023-08-09T15:17:10Z</time>
      </trkpt>
      <trkpt lat="45.10813" lon="5.8755">
        <ele>1763.68</ele>
        <time>2023-08-09T15:17:29Z</time>
      </trkpt>
      <trkpt lat="45.10791" lon="5.8755">
        <ele>1761.27</ele>
        <time>2023-08-09T15:17:51Z</time>
      </trkpt>
      <trkpt lat="45.10768" lon="5.87548">
        <ele>1759.83</ele>
        <time>2023-08-09T15:18:11Z</time>
      </trkpt>
      <trkpt lat="45.10746" lon="5.87546">
        <ele>1758.87</ele>
        <time>2023-08-09T15:18:29Z</time>
      </trkpt>
      <trkpt lat="45.10737" lon="5.87549">
        <ele>1757.91</ele>
        <time>2023-08-09T15:18:47Z</time>
      </trkpt>
      <trkpt lat="45.10739" lon="5.87552">
        <ele>1757.43</ele>
        <time>2023-08-09T15:19:17Z</time>
      </trkpt>
      <trkpt lat="45.10744" lon="5.87557">
        <ele>1757.43</ele>
        <time>2023-08-09T15:19:44Z</time>
      </trkpt>
      <trkpt lat="45.10739" lon="5.87552">
        <ele>1757.43</ele>
        <time>2023-08-09T15:19:57Z</time>
      </trkpt>
      <trkpt lat="45.10737" lon="5.87557">
        <ele>1756.47</ele>
        <time>2023-08-09T15:20:26Z</time>
      </trkpt>
      <trkpt lat="45.10737" lon="5.87556">
        <ele>1755.99</ele>
        <time>2023-08-09T15:20:54Z</time>
      </trkpt>
      <trkpt lat="45.10723" lon="5.87552">
        <ele>1756.95</ele>
        <time>2023-08-09T15:21:10Z</time>
      </trkpt>
      <trkpt lat="45.10714" lon="5.87549">
        <ele>1755.5</ele>
        <time>2023-08-09T15:21:19Z</time>
      </trkpt>
      <trkpt lat="45.10708" lon="5.87551">
        <ele>1755.02</ele>
        <time>2023-08-09T15:21:35Z</time>
      </trkpt>
      <trkpt lat="45.10707" lon="5.87552">
        <ele>1755.02</ele>
        <time>2023-08-09T15:21:43Z</time>
      </trkpt>
      <trkpt lat="45.10705" lon="5.87551">
        <ele>1755.02</ele>
        <time>2023-08-09T15:21:45Z</time>
      </trkpt>
      <trkpt lat="45.10697" lon="5.87553">
        <ele>1755.02</ele>
        <time>2023-08-09T15:21:53Z</time>
      </trkpt>
      <trkpt lat="45.10679" lon="5.87551">
        <ele>1755.02</ele>
        <time>2023-08-09T15:22:09Z</time>
      </trkpt>
      <trkpt lat="45.10674" lon="5.87551">
        <ele>1755.02</ele>
        <time>2023-08-09T15:22:13Z</time>
      </trkpt>
      <trkpt lat="45.10661" lon="5.87557">
        <ele>1754.06</ele>
        <time>2023-08-09T15:22:27Z</time>
      </trkpt>
      <trkpt lat="45.10645" lon="5.87556">
        <ele>1753.58</ele>
        <time>2023-08-09T15:22:43Z</time>
      </trkpt>
      <trkpt lat="45.10641" lon="5.87557">
        <ele>1753.58</ele>
        <time>2023-08-09T15:22:46Z</time>
      </trkpt>
      <trkpt lat="45.1062" lon="5.87562">
        <ele>1752.14</ele>
        <time>2023-08-09T15:23:04Z</time>
      </trkpt>
      <trkpt lat="45.10604" lon="5.87566">
        <ele>1751.18</ele>
        <time>2023-08-09T15:23:20Z</time>
      </trkpt>
      <trkpt lat="45.10599" lon="5.87567">
        <ele>1750.7</ele>
        <time>2023-08-09T15:23:25Z</time>
      </trkpt>
      <trkpt lat="45.10575" lon="5.87575">
        <ele>1749.74</ele>
        <time>2023-08-09T15:23:45Z</time>
      </trkpt>
      <trkpt lat="45.10566" lon="5.87578">
        <ele>1748.78</ele>
        <time>2023-08-09T15:24:02Z</time>
      </trkpt>
      <trkpt lat="45.10568" lon="5.87579">
        <ele>1747.81</ele>
        <time>2023-08-09T15:24:27Z</time>
      </trkpt>
      <trkpt lat="45.10567" lon="5.87579">
        <ele>1748.78</ele>
        <time>2023-08-09T15:24:57Z</time>
      </trkpt>
      <trkpt lat="45.10565" lon="5.87577">
        <ele>1748.29</ele>
        <time>2023-08-09T15:25:35Z</time>
      </trkpt>
      <trkpt lat="45.10555" lon="5.87579">
        <ele>1748.29</ele>
        <time>2023-08-09T15:25:53Z</time>
      </trkpt>
      <trkpt lat="45.10539" lon="5.87584">
        <ele>1747.81</ele>
        <time>2023-08-09T15:26:14Z</time>
      </trkpt>
      <trkpt lat="45.10538" lon="5.87583">
        <ele>1747.81</ele>
        <time>2023-08-09T15:26:42Z</time>
      </trkpt>
      <trkpt lat="45.10532" lon="5.87585">
        <ele>1747.33</ele>
        <time>2023-08-09T15:27:00Z</time>
      </trkpt>
      <trkpt lat="45.10516" lon="5.87596">
        <ele>1747.33</ele>
        <time>2023-08-09T15:27:20Z</time>
      </trkpt>
      <trkpt lat="45.10507" lon="5.87606">
        <ele>1747.33</ele>
        <time>2023-08-09T15:27:32Z</time>
      </trkpt>
      <trkpt lat="45.10498" lon="5.87625">
        <ele>1747.33</ele>
        <time>2023-08-09T15:27:50Z</time>
      </trkpt>
      <trkpt lat="45.10488" lon="5.87645">
        <ele>1746.85</ele>
        <time>2023-08-09T15:28:06Z</time>
      </trkpt>
      <trkpt lat="45.10484" lon="5.87654">
        <ele>1747.33</ele>
        <time>2023-08-09T15:28:14Z</time>
      </trkpt>
      <trkpt lat="45.10472" lon="5.87673">
        <ele>1747.81</ele>
        <time>2023-08-09T15:28:30Z</time>
      </trkpt>
      <trkpt lat="45.10463" lon="5.87687">
        <ele>1747.81</ele>
        <time>2023-08-09T15:28:44Z</time>
      </trkpt>
      <trkpt lat="45.10461" lon="5.87693">
        <ele>1748.29</ele>
        <time>2023-08-09T15:28:49Z</time>
      </trkpt>
      <trkpt lat="45.1046" lon="5.87709">
        <ele>1748.78</ele>
        <time>2023-08-09T15:29:03Z</time>
      </trkpt>
      <trkpt lat="45.10457" lon="5.87731">
        <ele>1749.74</ele>
        <time>2023-08-09T15:29:20Z</time>
      </trkpt>
      <trkpt lat="45.10458" lon="5.87729">
        <ele>1750.22</ele>
        <time>2023-08-09T15:29:31Z</time>
      </trkpt>
      <trkpt lat="45.10458" lon="5.87722">
        <ele>1750.22</ele>
        <time>2023-08-09T15:29:46Z</time>
      </trkpt>
      <trkpt lat="45.1046" lon="5.87716">
        <ele>1750.22</ele>
        <time>2023-08-09T15:29:53Z</time>
      </trkpt>
      <trkpt lat="45.10459" lon="5.87713">
        <ele>1748.78</ele>
        <time>2023-08-09T15:29:55Z</time>
      </trkpt>
      <trkpt lat="45.10452" lon="5.87719">
        <ele>1747.33</ele>
        <time>2023-08-09T15:30:07Z</time>
      </trkpt>
      <trkpt lat="45.1044" lon="5.87735">
        <ele>1747.33</ele>
        <time>2023-08-09T15:30:23Z</time>
      </trkpt>
      <trkpt lat="45.10438" lon="5.87738">
        <ele>1747.33</ele>
        <time>2023-08-09T15:30:26Z</time>
      </trkpt>
      <trkpt lat="45.10427" lon="5.87761">
        <ele>1747.33</ele>
        <time>2023-08-09T15:30:44Z</time>
      </trkpt>
      <trkpt lat="45.10417" lon="5.87782">
        <ele>1747.33</ele>
        <time>2023-08-09T15:31:01Z</time>
      </trkpt>
      <trkpt lat="45.10405" lon="5.87809">
        <ele>1746.37</ele>
        <time>2023-08-09T15:31:20Z</time>
      </trkpt>
      <trkpt lat="45.1039" lon="5.87834">
        <ele>1745.89</ele>
        <time>2023-08-09T15:31:39Z</time>
      </trkpt>
      <trkpt lat="45.10376" lon="5.8786">
        <ele>1744.45</ele>
        <time>2023-08-09T15:31:59Z</time>
      </trkpt>
      <trkpt lat="45.10366" lon="5.8788">
        <ele>1743.01</ele>
        <time>2023-08-09T15:32:15Z</time>
      </trkpt>
      <trkpt lat="45.10357" lon="5.87903">
        <ele>1741.57</ele>
        <time>2023-08-09T15:32:32Z</time>
      </trkpt>
      <trkpt lat="45.10349" lon="5.87925">
        <ele>1741.08</ele>
        <time>2023-08-09T15:32:48Z</time>
      </trkpt>
      <trkpt lat="45.10343" lon="5.87953">
        <ele>1739.64</ele>
        <time>2023-08-09T15:33:08Z</time>
      </trkpt>
      <trkpt lat="45.10339" lon="5.87974">
        <ele>1739.16</ele>
        <time>2023-08-09T15:33:21Z</time>
      </trkpt>
      <trkpt lat="45.10328" lon="5.87996">
        <ele>1737.24</ele>
        <time>2023-08-09T15:33:38Z</time>
      </trkpt>
      <trkpt lat="45.10314" lon="5.88012">
        <ele>1736.28</ele>
        <time>2023-08-09T15:33:57Z</time>
      </trkpt>
      <trkpt lat="45.1032" lon="5.88042">
        <ele>1734.84</ele>
        <time>2023-08-09T15:34:18Z</time>
      </trkpt>
      <trkpt lat="45.10331" lon="5.88067">
        <ele>1734.84</ele>
        <time>2023-08-09T15:34:37Z</time>
      </trkpt>
      <trkpt lat="45.10343" lon="5.88095">
        <ele>1733.39</ele>
        <time>2023-08-09T15:34:57Z</time>
      </trkpt>
      <trkpt lat="45.1035" lon="5.88112">
        <ele>1732.91</ele>
        <time>2023-08-09T15:35:08Z</time>
      </trkpt>
      <trkpt lat="45.10352" lon="5.88127">
        <ele>1732.43</ele>
        <time>2023-08-09T15:35:15Z</time>
      </trkpt>
      <trkpt lat="45.10361" lon="5.88154">
        <ele>1730.99</ele>
        <time>2023-08-09T15:35:35Z</time>
      </trkpt>
      <trkpt lat="45.10366" lon="5.88181">
        <ele>1730.03</ele>
        <time>2023-08-09T15:35:52Z</time>
      </trkpt>
      <trkpt lat="45.10371" lon="5.88202">
        <ele>1729.55</ele>
        <time>2023-08-09T15:36:06Z</time>
      </trkpt>
      <trkpt lat="45.10369" lon="5.8823">
        <ele>1727.63</ele>
        <time>2023-08-09T15:36:27Z</time>
      </trkpt>
      <trkpt lat="45.10359" lon="5.88256">
        <ele>1725.7</ele>
        <time>2023-08-09T15:36:47Z</time>
      </trkpt>
      <trkpt lat="45.10358" lon="5.88261">
        <ele>1727.15</ele>
        <time>2023-08-09T15:36:50Z</time>
      </trkpt>
      <trkpt lat="45.10357" lon="5.88276">
        <ele>1728.11</ele>
        <time>2023-08-09T15:37:07Z</time>
      </trkpt>
      <trkpt lat="45.10368" lon="5.88297">
        <ele>1729.07</ele>
        <time>2023-08-09T15:37:25Z</time>
      </trkpt>
      <trkpt lat="45.10374" lon="5.88325">
        <ele>1728.59</ele>
        <time>2023-08-09T15:37:47Z</time>
      </trkpt>
      <trkpt lat="45.10388" lon="5.88349">
        <ele>1729.07</ele>
        <time>2023-08-09T15:38:07Z</time>
      </trkpt>
      <trkpt lat="45.10392" lon="5.88363">
        <ele>1728.59</ele>
        <time>2023-08-09T15:38:15Z</time>
      </trkpt>
      <trkpt lat="45.10404" lon="5.88385">
        <ele>1728.59</ele>
        <time>2023-08-09T15:38:30Z</time>
      </trkpt>
      <trkpt lat="45.10412" lon="5.88393">
        <ele>1728.59</ele>
        <time>2023-08-09T15:38:38Z</time>
      </trkpt>
      <trkpt lat="45.10416" lon="5.88399">
        <ele>1728.59</ele>
        <time>2023-08-09T15:38:43Z</time>
      </trkpt>
      <trkpt lat="45.10421" lon="5.88414">
        <ele>1729.55</ele>
        <time>2023-08-09T15:39:00Z</time>
      </trkpt>
      <trkpt lat="45.1042" lon="5.88417">
        <ele>1729.55</ele>
        <time>2023-08-09T15:39:04Z</time>
      </trkpt>
      <trkpt lat="45.10427" lon="5.88438">
        <ele>1729.55</ele>
        <time>2023-08-09T15:39:22Z</time>
      </trkpt>
      <trkpt lat="45.1044" lon="5.8846">
        <ele>1730.51</ele>
        <time>2023-08-09T15:39:38Z</time>
      </trkpt>
      <trkpt lat="45.1045" lon="5.88478">
        <ele>1730.51</ele>
        <time>2023-08-09T15:39:55Z</time>
      </trkpt>
      <trkpt lat="45.1046" lon="5.88505">
        <ele>1730.51</ele>
        <time>2023-08-09T15:40:16Z</time>
      </trkpt>
      <trkpt lat="45.10475" lon="5.88529">
        <ele>1730.51</ele>
        <time>2023-08-09T15:40:36Z</time>
      </trkpt>
      <trkpt lat="45.10477" lon="5.8853">
        <ele>1729.07</ele>
        <time>2023-08-09T15:40:38Z</time>
      </trkpt>
      <trkpt lat="45.1049" lon="5.88556">
        <ele>1727.63</ele>
        <time>2023-08-09T15:40:58Z</time>
      </trkpt>
      <trkpt lat="45.105" lon="5.88584">
        <ele>1727.15</ele>
        <time>2023-08-09T15:41:17Z</time>
      </trkpt>
      <trkpt lat="45.10507" lon="5.88617">
        <ele>1726.67</ele>
        <time>2023-08-09T15:41:38Z</time>
      </trkpt>
      <trkpt lat="45.10502" lon="5.88643">
        <ele>1726.18</ele>
        <time>2023-08-09T15:41:55Z</time>
      </trkpt>
      <trkpt lat="45.10504" lon="5.88668">
        <ele>1724.26</ele>
        <time>2023-08-09T15:42:15Z</time>
      </trkpt>
      <trkpt lat="45.10514" lon="5.88691">
        <ele>1723.78</ele>
        <time>2023-08-09T15:42:33Z</time>
      </trkpt>
      <trkpt lat="45.10526" lon="5.88717">
        <ele>1721.86</ele>
        <time>2023-08-09T15:42:53Z</time>
      </trkpt>
      <trkpt lat="45.10545" lon="5.88744">
        <ele>1719.46</ele>
        <time>2023-08-09T15:43:15Z</time>
      </trkpt>
      <trkpt lat="45.10555" lon="5.88776">
        <ele>1718.01</ele>
        <time>2023-08-09T15:43:33Z</time>
      </trkpt>
      <trkpt lat="45.10556" lon="5.88788">
        <ele>1717.53</ele>
        <time>2023-08-09T15:43:40Z</time>
      </trkpt>
      <trkpt lat="45.10554" lon="5.88803">
        <ele>1718.97</ele>
        <time>2023-08-09T15:43:51Z</time>
      </trkpt>
      <trkpt lat="45.10548" lon="5.88822">
        <ele>1719.94</ele>
        <time>2023-08-09T15:44:08Z</time>
      </trkpt>
      <trkpt lat="45.10541" lon="5.88845">
        <ele>1721.38</ele>
        <time>2023-08-09T15:44:28Z</time>
      </trkpt>
      <trkpt lat="45.1054" lon="5.88862">
        <ele>1720.42</ele>
        <time>2023-08-09T15:44:38Z</time>
      </trkpt>
      <trkpt lat="45.10542" lon="5.8889">
        <ele>1719.94</ele>
        <time>2023-08-09T15:44:55Z</time>
      </trkpt>
      <trkpt lat="45.10542" lon="5.88896">
        <ele>1721.86</ele>
        <time>2023-08-09T15:45:00Z</time>
      </trkpt>
      <trkpt lat="45.10544" lon="5.88918">
        <ele>1723.3</ele>
        <time>2023-08-09T15:45:18Z</time>
      </trkpt>
      <trkpt lat="45.10549" lon="5.88942">
        <ele>1725.22</ele>
        <time>2023-08-09T15:45:36Z</time>
      </trkpt>
      <trkpt lat="45.10556" lon="5.8896">
        <ele>1726.67</ele>
        <time>2023-08-09T15:45:53Z</time>
      </trkpt>
      <trkpt lat="45.10564" lon="5.88978">
        <ele>1727.63</ele>
        <time>2023-08-09T15:46:12Z</time>
      </trkpt>
      <trkpt lat="45.10571" lon="5.89">
        <ele>1728.11</ele>
        <time>2023-08-09T15:46:29Z</time>
      </trkpt>
      <trkpt lat="45.10581" lon="5.8902">
        <ele>1729.07</ele>
        <time>2023-08-09T15:46:47Z</time>
      </trkpt>
      <trkpt lat="45.1059" lon="5.89037">
        <ele>1729.55</ele>
        <time>2023-08-09T15:47:04Z</time>
      </trkpt>
      <trkpt lat="45.10592" lon="5.89043">
        <ele>1729.55</ele>
        <time>2023-08-09T15:47:08Z</time>
      </trkpt>
      <trkpt lat="45.106" lon="5.89062">
        <ele>1730.03</ele>
        <time>2023-08-09T15:47:23Z</time>
      </trkpt>
      <trkpt lat="45.10606" lon="5.89077">
        <ele>1728.59</ele>
        <time>2023-08-09T15:47:36Z</time>
      </trkpt>
      <trkpt lat="45.10609" lon="5.89101">
        <ele>1727.15</ele>
        <time>2023-08-09T15:47:53Z</time>
      </trkpt>
      <trkpt lat="45.10605" lon="5.89124">
        <ele>1729.55</ele>
        <time>2023-08-09T15:48:12Z</time>
      </trkpt>
      <trkpt lat="45.10606" lon="5.89147">
        <ele>1730.99</ele>
        <time>2023-08-09T15:48:31Z</time>
      </trkpt>
      <trkpt lat="45.106" lon="5.89163">
        <ele>1729.55</ele>
        <time>2023-08-09T15:48:45Z</time>
      </trkpt>
      <trkpt lat="45.1059" lon="5.89188">
        <ele>1729.07</ele>
        <time>2023-08-09T15:49:07Z</time>
      </trkpt>
      <trkpt lat="45.10583" lon="5.8921">
        <ele>1725.7</ele>
        <time>2023-08-09T15:49:23Z</time>
      </trkpt>
      <trkpt lat="45.10583" lon="5.89214">
        <ele>1725.7</ele>
        <time>2023-08-09T15:49:25Z</time>
      </trkpt>
      <trkpt lat="45.10585" lon="5.89237">
        <ele>1724.74</ele>
        <time>2023-08-09T15:49:40Z</time>
      </trkpt>
      <trkpt lat="45.10588" lon="5.89239">
        <ele>1724.74</ele>
        <time>2023-08-09T15:50:11Z</time>
      </trkpt>
      <trkpt lat="45.10588" lon="5.89258">
        <ele>1724.74</ele>
        <time>2023-08-09T15:50:25Z</time>
      </trkpt>
      <trkpt lat="45.10588" lon="5.89261">
        <ele>1724.74</ele>
        <time>2023-08-09T15:50:28Z</time>
      </trkpt>
      <trkpt lat="45.10587" lon="5.89264">
        <ele>1724.74</ele>
        <time>2023-08-09T15:50:30Z</time>
      </trkpt>
      <trkpt lat="45.10574" lon="5.89286">
        <ele>1724.74</ele>
        <time>2023-08-09T15:50:50Z</time>
      </trkpt>
      <trkpt lat="45.1056" lon="5.89308">
        <ele>1724.26</ele>
        <time>2023-08-09T15:51:09Z</time>
      </trkpt>
      <trkpt lat="45.10557" lon="5.89314">
        <ele>1724.26</ele>
        <time>2023-08-09T15:51:15Z</time>
      </trkpt>
      <trkpt lat="45.10551" lon="5.89321">
        <ele>1724.26</ele>
        <time>2023-08-09T15:51:20Z</time>
      </trkpt>
      <trkpt lat="45.10541" lon="5.89334">
        <ele>1723.78</ele>
        <time>2023-08-09T15:51:35Z</time>
      </trkpt>
      <trkpt lat="45.10536" lon="5.89337">
        <ele>1723.78</ele>
        <time>2023-08-09T15:51:41Z</time>
      </trkpt>
      <trkpt lat="45.10532" lon="5.89337">
        <ele>1723.78</ele>
        <time>2023-08-09T15:51:45Z</time>
      </trkpt>
      <trkpt lat="45.10518" lon="5.89336">
        <ele>1723.78</ele>
        <time>2023-08-09T15:52:02Z</time>
      </trkpt>
      <trkpt lat="45.10518" lon="5.89336">
        <ele>1725.22</ele>
        <time>2023-08-09T15:52:16Z</time>
      </trkpt>
      <trkpt lat="45.10526" lon="5.89358">
        <ele>1727.63</ele>
        <time>2023-08-09T15:52:35Z</time>
      </trkpt>
      <trkpt lat="45.10527" lon="5.89364">
        <ele>1729.55</ele>
        <time>2023-08-09T15:52:43Z</time>
      </trkpt>
      <trkpt lat="45.10532" lon="5.89379">
        <ele>1731.95</ele>
        <time>2023-08-09T15:53:01Z</time>
      </trkpt>
      <trkpt lat="45.1054" lon="5.89394">
        <ele>1732.43</ele>
        <time>2023-08-09T15:53:17Z</time>
      </trkpt>
      <trkpt lat="45.10551" lon="5.894">
        <ele>1734.84</ele>
        <time>2023-08-09T15:53:34Z</time>
      </trkpt>
      <trkpt lat="45.10554" lon="5.89415">
        <ele>1736.28</ele>
        <time>2023-08-09T15:53:53Z</time>
      </trkpt>
      <trkpt lat="45.10562" lon="5.89437">
        <ele>1735.8</ele>
        <time>2023-08-09T15:54:12Z</time>
      </trkpt>
      <trkpt lat="45.1057" lon="5.89459">
        <ele>1737.24</ele>
        <time>2023-08-09T15:54:33Z</time>
      </trkpt>
      <trkpt lat="45.10583" lon="5.89479">
        <ele>1739.16</ele>
        <time>2023-08-09T15:54:54Z</time>
      </trkpt>
      <trkpt lat="45.10585" lon="5.8948">
        <ele>1741.57</ele>
        <time>2023-08-09T15:55:15Z</time>
      </trkpt>
      <trkpt lat="45.10602" lon="5.89488">
        <ele>1744.93</ele>
        <time>2023-08-09T15:55:39Z</time>
      </trkpt>
      <trkpt lat="45.10601" lon="5.89499">
        <ele>1747.33</ele>
        <time>2023-08-09T15:55:59Z</time>
      </trkpt>
      <trkpt lat="45.10605" lon="5.89506">
        <ele>1749.74</ele>
        <time>2023-08-09T15:56:19Z</time>
      </trkpt>
      <trkpt lat="45.10605" lon="5.8951">
        <ele>1753.1</ele>
        <time>2023-08-09T15:56:40Z</time>
      </trkpt>
      <trkpt lat="45.10615" lon="5.89514">
        <ele>1755.5</ele>
        <time>2023-08-09T15:57:04Z</time>
      </trkpt>
      <trkpt lat="45.10621" lon="5.8951">
        <ele>1756.47</ele>
        <time>2023-08-09T15:57:23Z</time>
      </trkpt>
      <trkpt lat="45.10627" lon="5.89508">
        <ele>1759.83</ele>
        <time>2023-08-09T15:57:37Z</time>
      </trkpt>
      <trkpt lat="45.10634" lon="5.89515">
        <ele>1761.75</ele>
        <time>2023-08-09T15:57:58Z</time>
      </trkpt>
      <trkpt lat="45.10643" lon="5.89524">
        <ele>1764.16</ele>
        <time>2023-08-09T15:58:20Z</time>
      </trkpt>
      <trkpt lat="45.10647" lon="5.89529">
        <ele>1766.08</ele>
        <time>2023-08-09T15:58:38Z</time>
      </trkpt>
      <trkpt lat="45.10652" lon="5.89536">
        <ele>1768.48</ele>
        <time>2023-08-09T15:59:02Z</time>
      </trkpt>
      <trkpt lat="45.10656" lon="5.89549">
        <ele>1771.37</ele>
        <time>2023-08-09T15:59:24Z</time>
      </trkpt>
      <trkpt lat="45.10662" lon="5.89554">
        <ele>1774.25</ele>
        <time>2023-08-09T15:59:47Z</time>
      </trkpt>
      <trkpt lat="45.10673" lon="5.89556">
        <ele>1777.13</ele>
        <time>2023-08-09T16:00:10Z</time>
      </trkpt>
      <trkpt lat="45.10674" lon="5.8956">
        <ele>1778.58</ele>
        <time>2023-08-09T16:00:30Z</time>
      </trkpt>
      <trkpt lat="45.10678" lon="5.89564">
        <ele>1781.94</ele>
        <time>2023-08-09T16:00:47Z</time>
      </trkpt>
      <trkpt lat="45.10683" lon="5.89574">
        <ele>1783.86</ele>
        <time>2023-08-09T16:01:08Z</time>
      </trkpt>
      <trkpt lat="45.10694" lon="5.89579">
        <ele>1785.31</ele>
        <time>2023-08-09T16:01:27Z</time>
      </trkpt>
      <trkpt lat="45.10704" lon="5.89582">
        <ele>1788.19</ele>
        <time>2023-08-09T16:01:46Z</time>
      </trkpt>
      <trkpt lat="45.10706" lon="5.89592">
        <ele>1791.55</ele>
        <time>2023-08-09T16:02:07Z</time>
      </trkpt>
      <trkpt lat="45.10716" lon="5.89595">
        <ele>1793</ele>
        <time>2023-08-09T16:02:29Z</time>
      </trkpt>
      <trkpt lat="45.10724" lon="5.89605">
        <ele>1794.44</ele>
        <time>2023-08-09T16:02:52Z</time>
      </trkpt>
      <trkpt lat="45.10735" lon="5.89607">
        <ele>1796.84</ele>
        <time>2023-08-09T16:03:09Z</time>
      </trkpt>
      <trkpt lat="45.10743" lon="5.89615">
        <ele>1799.73</ele>
        <time>2023-08-09T16:03:33Z</time>
      </trkpt>
      <trkpt lat="45.10752" lon="5.89626">
        <ele>1802.13</ele>
        <time>2023-08-09T16:03:55Z</time>
      </trkpt>
      <trkpt lat="45.10761" lon="5.89636">
        <ele>1804.05</ele>
        <time>2023-08-09T16:04:14Z</time>
      </trkpt>
      <trkpt lat="45.10772" lon="5.89644">
        <ele>1806.94</ele>
        <time>2023-08-09T16:04:35Z</time>
      </trkpt>
      <trkpt lat="45.10782" lon="5.89654">
        <ele>1809.34</ele>
        <time>2023-08-09T16:05:00Z</time>
      </trkpt>
      <trkpt lat="45.10787" lon="5.89661">
        <ele>1812.22</ele>
        <time>2023-08-09T16:05:13Z</time>
      </trkpt>
      <trkpt lat="45.10794" lon="5.89667">
        <ele>1812.7</ele>
        <time>2023-08-09T16:05:33Z</time>
      </trkpt>
      <trkpt lat="45.10799" lon="5.89665">
        <ele>1816.07</ele>
        <time>2023-08-09T16:05:52Z</time>
      </trkpt>
      <trkpt lat="45.10798" lon="5.89665">
        <ele>1817.51</ele>
        <time>2023-08-09T16:05:58Z</time>
      </trkpt>
      <trkpt lat="45.10806" lon="5.89661">
        <ele>1819.91</ele>
        <time>2023-08-09T16:06:22Z</time>
      </trkpt>
      <trkpt lat="45.10815" lon="5.89673">
        <ele>1823.28</ele>
        <time>2023-08-09T16:06:43Z</time>
      </trkpt>
      <trkpt lat="45.10822" lon="5.89672">
        <ele>1823.28</ele>
        <time>2023-08-09T16:07:03Z</time>
      </trkpt>
      <trkpt lat="45.10821" lon="5.89677">
        <ele>1823.28</ele>
        <time>2023-08-09T16:07:37Z</time>
      </trkpt>
      <trkpt lat="45.10824" lon="5.89672">
        <ele>1822.8</ele>
        <time>2023-08-09T16:08:13Z</time>
      </trkpt>
      <trkpt lat="45.10827" lon="5.8967">
        <ele>1821.84</ele>
        <time>2023-08-09T16:08:38Z</time>
      </trkpt>
      <trkpt lat="45.10829" lon="5.89672">
        <ele>1826.16</ele>
        <time>2023-08-09T16:08:51Z</time>
      </trkpt>
      <trkpt lat="45.10841" lon="5.8968">
        <ele>1827.6</ele>
        <time>2023-08-09T16:09:13Z</time>
      </trkpt>
      <trkpt lat="45.10843" lon="5.89693">
        <ele>1830.49</ele>
        <time>2023-08-09T16:09:32Z</time>
      </trkpt>
      <trkpt lat="45.10844" lon="5.897">
        <ele>1831.93</ele>
        <time>2023-08-09T16:09:46Z</time>
      </trkpt>
      <trkpt lat="45.10848" lon="5.89708">
        <ele>1833.85</ele>
        <time>2023-08-09T16:10:09Z</time>
      </trkpt>
      <trkpt lat="45.10858" lon="5.89722">
        <ele>1836.74</ele>
        <time>2023-08-09T16:10:31Z</time>
      </trkpt>
      <trkpt lat="45.10849" lon="5.89729">
        <ele>1838.66</ele>
        <time>2023-08-09T16:10:52Z</time>
      </trkpt>
      <trkpt lat="45.10852" lon="5.89734">
        <ele>1842.02</ele>
        <time>2023-08-09T16:11:14Z</time>
      </trkpt>
      <trkpt lat="45.10851" lon="5.89737">
        <ele>1843.95</ele>
        <time>2023-08-09T16:11:35Z</time>
      </trkpt>
      <trkpt lat="45.10851" lon="5.89751">
        <ele>1846.35</ele>
        <time>2023-08-09T16:11:57Z</time>
      </trkpt>
      <trkpt lat="45.10852" lon="5.89766">
        <ele>1850.19</ele>
        <time>2023-08-09T16:12:17Z</time>
      </trkpt>
      <trkpt lat="45.10856" lon="5.8978">
        <ele>1851.16</ele>
        <time>2023-08-09T16:12:40Z</time>
      </trkpt>
      <trkpt lat="45.10869" lon="5.89796">
        <ele>1852.6</ele>
        <time>2023-08-09T16:13:03Z</time>
      </trkpt>
      <trkpt lat="45.10875" lon="5.89805">
        <ele>1853.56</ele>
        <time>2023-08-09T16:13:16Z</time>
      </trkpt>
      <trkpt lat="45.10878" lon="5.89813">
        <ele>1855</ele>
        <time>2023-08-09T16:13:32Z</time>
      </trkpt>
      <trkpt lat="45.10887" lon="5.89828">
        <ele>1856.44</ele>
        <time>2023-08-09T16:13:52Z</time>
      </trkpt>
      <trkpt lat="45.10896" lon="5.89836">
        <ele>1858.37</ele>
        <time>2023-08-09T16:14:13Z</time>
      </trkpt>
      <trkpt lat="45.10898" lon="5.89841">
        <ele>1858.37</ele>
        <time>2023-08-09T16:14:43Z</time>
      </trkpt>
      <trkpt lat="45.109" lon="5.89838">
        <ele>1860.29</ele>
        <time>2023-08-09T16:15:22Z</time>
      </trkpt>
      <trkpt lat="45.10897" lon="5.89836">
        <ele>1860.29</ele>
        <time>2023-08-09T16:15:48Z</time>
      </trkpt>
      <trkpt lat="45.10901" lon="5.8985">
        <ele>1863.17</ele>
        <time>2023-08-09T16:16:09Z</time>
      </trkpt>
      <trkpt lat="45.109" lon="5.89864">
        <ele>1866.06</ele>
        <time>2023-08-09T16:16:30Z</time>
      </trkpt>
      <trkpt lat="45.10904" lon="5.89883">
        <ele>1865.58</ele>
        <time>2023-08-09T16:16:53Z</time>
      </trkpt>
      <trkpt lat="45.10917" lon="5.899">
        <ele>1867.02</ele>
        <time>2023-08-09T16:17:12Z</time>
      </trkpt>
      <trkpt lat="45.10924" lon="5.89914">
        <ele>1867.02</ele>
        <time>2023-08-09T16:17:25Z</time>
      </trkpt>
      <trkpt lat="45.10925" lon="5.89918">
        <ele>1865.58</ele>
        <time>2023-08-09T16:17:30Z</time>
      </trkpt>
      <trkpt lat="45.10933" lon="5.8994">
        <ele>1866.06</ele>
        <time>2023-08-09T16:17:50Z</time>
      </trkpt>
      <trkpt lat="45.10935" lon="5.89948">
        <ele>1869.9</ele>
        <time>2023-08-09T16:18:05Z</time>
      </trkpt>
      <trkpt lat="45.10935" lon="5.89949">
        <ele>1869.9</ele>
        <time>2023-08-09T16:18:06Z</time>
      </trkpt>
      <trkpt lat="45.10937" lon="5.89957">
        <ele>1873.27</ele>
        <time>2023-08-09T16:18:26Z</time>
      </trkpt>
      <trkpt lat="45.10939" lon="5.8997">
        <ele>1872.3</ele>
        <time>2023-08-09T16:18:39Z</time>
      </trkpt>
      <trkpt lat="45.10948" lon="5.89982">
        <ele>1872.79</ele>
        <time>2023-08-09T16:18:51Z</time>
      </trkpt>
      <trkpt lat="45.10955" lon="5.89988">
        <ele>1871.82</ele>
        <time>2023-08-09T16:19:02Z</time>
      </trkpt>
      <trkpt lat="45.10967" lon="5.89988">
        <ele>1868.46</ele>
        <time>2023-08-09T16:19:19Z</time>
      </trkpt>
      <trkpt lat="45.10985" lon="5.90001">
        <ele>1867.98</ele>
        <time>2023-08-09T16:19:39Z</time>
      </trkpt>
      <trkpt lat="45.10987" lon="5.90002">
        <ele>1867.98</ele>
        <time>2023-08-09T16:19:40Z</time>
      </trkpt>
      <trkpt lat="45.11" lon="5.9002">
        <ele>1869.9</ele>
        <time>2023-08-09T16:20:02Z</time>
      </trkpt>
      <trkpt lat="45.11004" lon="5.90035">
        <ele>1872.79</ele>
        <time>2023-08-09T16:20:20Z</time>
      </trkpt>
      <trkpt lat="45.1101" lon="5.90047">
        <ele>1875.19</ele>
        <time>2023-08-09T16:20:40Z</time>
      </trkpt>
      <trkpt lat="45.11024" lon="5.90058">
        <ele>1876.63</ele>
        <time>2023-08-09T16:21:01Z</time>
      </trkpt>
      <trkpt lat="45.11038" lon="5.90065">
        <ele>1878.07</ele>
        <time>2023-08-09T16:21:23Z</time>
      </trkpt>
      <trkpt lat="45.11048" lon="5.90072">
        <ele>1879.51</ele>
        <time>2023-08-09T16:21:38Z</time>
      </trkpt>
      <trkpt lat="45.11055" lon="5.90079">
        <ele>1880.96</ele>
        <time>2023-08-09T16:21:51Z</time>
      </trkpt>
      <trkpt lat="45.11059" lon="5.90099">
        <ele>1883.36</ele>
        <time>2023-08-09T16:22:14Z</time>
      </trkpt>
      <trkpt lat="45.11059" lon="5.901">
        <ele>1883.36</ele>
        <time>2023-08-09T16:22:15Z</time>
      </trkpt>
      <trkpt lat="45.11069" lon="5.90113">
        <ele>1884.8</ele>
        <time>2023-08-09T16:22:33Z</time>
      </trkpt>
      <trkpt lat="45.11077" lon="5.90117">
        <ele>1888.17</ele>
        <time>2023-08-09T16:22:53Z</time>
      </trkpt>
      <trkpt lat="45.11078" lon="5.90119">
        <ele>1888.17</ele>
        <time>2023-08-09T16:22:58Z</time>
      </trkpt>
      <trkpt lat="45.11079" lon="5.90114">
        <ele>1889.13</ele>
        <time>2023-08-09T16:23:16Z</time>
      </trkpt>
      <trkpt lat="45.11081" lon="5.90111">
        <ele>1892.01</ele>
        <time>2023-08-09T16:23:26Z</time>
      </trkpt>
      <trkpt lat="45.11088" lon="5.90106">
        <ele>1893.45</ele>
        <time>2023-08-09T16:23:47Z</time>
      </trkpt>
      <trkpt lat="45.11089" lon="5.90103">
        <ele>1895.38</ele>
        <time>2023-08-09T16:24:06Z</time>
      </trkpt>
      <trkpt lat="45.11092" lon="5.90104">
        <ele>1896.82</ele>
        <time>2023-08-09T16:24:14Z</time>
      </trkpt>
      <trkpt lat="45.11098" lon="5.90112">
        <ele>1898.26</ele>
        <time>2023-08-09T16:24:36Z</time>
      </trkpt>
      <trkpt lat="45.11104" lon="5.90114">
        <ele>1900.66</ele>
        <time>2023-08-09T16:24:56Z</time>
      </trkpt>
      <trkpt lat="45.11107" lon="5.90128">
        <ele>1902.59</ele>
        <time>2023-08-09T16:25:16Z</time>
      </trkpt>
      <trkpt lat="45.11119" lon="5.90137">
        <ele>1904.03</ele>
        <time>2023-08-09T16:25:37Z</time>
      </trkpt>
      <trkpt lat="45.11122" lon="5.90139">
        <ele>1905.47</ele>
        <time>2023-08-09T16:25:41Z</time>
      </trkpt>
      <trkpt lat="45.11138" lon="5.90143">
        <ele>1906.91</ele>
        <time>2023-08-09T16:26:02Z</time>
      </trkpt>
      <trkpt lat="45.11147" lon="5.90144">
        <ele>1906.91</ele>
        <time>2023-08-09T16:26:23Z</time>
      </trkpt>
      <trkpt lat="45.11147" lon="5.90138">
        <ele>1906.91</ele>
        <time>2023-08-09T16:26:47Z</time>
      </trkpt>
      <trkpt lat="45.11149" lon="5.90142">
        <ele>1907.39</ele>
        <time>2023-08-09T16:27:11Z</time>
      </trkpt>
      <trkpt lat="45.11158" lon="5.90144">
        <ele>1907.39</ele>
        <time>2023-08-09T16:27:26Z</time>
      </trkpt>
      <trkpt lat="45.11159" lon="5.90144">
        <ele>1907.39</ele>
        <time>2023-08-09T16:27:27Z</time>
      </trkpt>
      <trkpt lat="45.11169" lon="5.90152">
        <ele>1907.87</ele>
        <time>2023-08-09T16:27:42Z</time>
      </trkpt>
      <trkpt lat="45.11183" lon="5.90158">
        <ele>1904.51</ele>
        <time>2023-08-09T16:27:59Z</time>
      </trkpt>
      <trkpt lat="45.11193" lon="5.90168">
        <ele>1905.95</ele>
        <time>2023-08-09T16:28:16Z</time>
      </trkpt>
      <trkpt lat="45.11203" lon="5.90179">
        <ele>1906.91</ele>
        <time>2023-08-09T16:28:32Z</time>
      </trkpt>
      <trkpt lat="45.11217" lon="5.90192">
        <ele>1905.47</ele>
        <time>2023-08-09T16:28:50Z</time>
      </trkpt>
      <trkpt lat="45.11226" lon="5.9019">
        <ele>1904.99</ele>
        <time>2023-08-09T16:29:07Z</time>
      </trkpt>
      <trkpt lat="45.11228" lon="5.90187">
        <ele>1904.99</ele>
        <time>2023-08-09T16:29:14Z</time>
      </trkpt>
      <trkpt lat="45.11243" lon="5.90176">
        <ele>1904.51</ele>
        <time>2023-08-09T16:29:32Z</time>
      </trkpt>
      <trkpt lat="45.11255" lon="5.90171">
        <ele>1904.51</ele>
        <time>2023-08-09T16:29:45Z</time>
      </trkpt>
      <trkpt lat="45.11259" lon="5.9017">
        <ele>1905.95</ele>
        <time>2023-08-09T16:29:50Z</time>
      </trkpt>
      <trkpt lat="45.11271" lon="5.90168">
        <ele>1905.47</ele>
        <time>2023-08-09T16:30:03Z</time>
      </trkpt>
      <trkpt lat="45.11275" lon="5.90169">
        <ele>1904.99</ele>
        <time>2023-08-09T16:30:07Z</time>
      </trkpt>
      <trkpt lat="45.11282" lon="5.90165">
        <ele>1905.95</ele>
        <time>2023-08-09T16:30:17Z</time>
      </trkpt>
      <trkpt lat="45.11285" lon="5.90165">
        <ele>1906.91</ele>
        <time>2023-08-09T16:30:25Z</time>
      </trkpt>
      <trkpt lat="45.11285" lon="5.90173">
        <ele>1907.39</ele>
        <time>2023-08-09T16:30:31Z</time>
      </trkpt>
      <trkpt lat="45.11283" lon="5.90185">
        <ele>1907.39</ele>
        <time>2023-08-09T16:30:40Z</time>
      </trkpt>
      <trkpt lat="45.11286" lon="5.90197">
        <ele>1907.39</ele>
        <time>2023-08-09T16:30:48Z</time>
      </trkpt>
      <trkpt lat="45.11288" lon="5.90201">
        <ele>1907.39</ele>
        <time>2023-08-09T16:30:57Z</time>
      </trkpt>
      <trkpt lat="45.11296" lon="5.90213">
        <ele>1908.83</ele>
        <time>2023-08-09T16:31:10Z</time>
      </trkpt>
      <trkpt lat="45.11301" lon="5.90224">
        <ele>1909.8</ele>
        <time>2023-08-09T16:31:21Z</time>
      </trkpt>
      <trkpt lat="45.11305" lon="5.90235">
        <ele>1909.8</ele>
        <time>2023-08-09T16:31:30Z</time>
      </trkpt>
      <trkpt lat="45.11306" lon="5.90236">
        <ele>1909.8</ele>
        <time>2023-08-09T16:31:32Z</time>
      </trkpt>
      <trkpt lat="45.11313" lon="5.90242">
        <ele>1910.76</ele>
        <time>2023-08-09T16:31:44Z</time>
      </trkpt>
      <trkpt lat="45.1132" lon="5.90252">
        <ele>1911.72</ele>
        <time>2023-08-09T16:31:58Z</time>
      </trkpt>
      <trkpt lat="45.11321" lon="5.90253">
        <ele>1911.72</ele>
        <time>2023-08-09T16:31:59Z</time>
      </trkpt>
      <trkpt lat="45.11332" lon="5.90261">
        <ele>1912.68</ele>
        <time>2023-08-09T16:32:14Z</time>
      </trkpt>
      <trkpt lat="45.11345" lon="5.90264">
        <ele>1913.64</ele>
        <time>2023-08-09T16:32:27Z</time>
      </trkpt>
      <trkpt lat="45.11353" lon="5.90265">
        <ele>1915.56</ele>
        <time>2023-08-09T16:32:41Z</time>
      </trkpt>
      <trkpt lat="45.11358" lon="5.9027">
        <ele>1917.01</ele>
        <time>2023-08-09T16:32:54Z</time>
      </trkpt>
      <trkpt lat="45.11363" lon="5.90276">
        <ele>1919.41</ele>
        <time>2023-08-09T16:33:10Z</time>
      </trkpt>
      <trkpt lat="45.11368" lon="5.90282">
        <ele>1920.85</ele>
        <time>2023-08-09T16:33:23Z</time>
      </trkpt>
      <trkpt lat="45.11377" lon="5.90286">
        <ele>1921.81</ele>
        <time>2023-08-09T16:33:38Z</time>
      </trkpt>
      <trkpt lat="45.11383" lon="5.90288">
        <ele>1923.74</ele>
        <time>2023-08-09T16:33:53Z</time>
      </trkpt>
      <trkpt lat="45.11383" lon="5.90291">
        <ele>1925.18</ele>
        <time>2023-08-09T16:34:04Z</time>
      </trkpt>
      <trkpt lat="45.11384" lon="5.90291">
        <ele>1925.18</ele>
        <time>2023-08-09T16:34:05Z</time>
      </trkpt>
      <trkpt lat="45.11388" lon="5.90295">
        <ele>1927.58</ele>
        <time>2023-08-09T16:34:18Z</time>
      </trkpt>
      <trkpt lat="45.11391" lon="5.90301">
        <ele>1928.54</ele>
        <time>2023-08-09T16:34:29Z</time>
      </trkpt>
      <trkpt lat="45.11396" lon="5.90306">
        <ele>1930.95</ele>
        <time>2023-08-09T16:34:42Z</time>
      </trkpt>
      <trkpt lat="45.11398" lon="5.90305">
        <ele>1931.91</ele>
        <time>2023-08-09T16:34:53Z</time>
      </trkpt>
      <trkpt lat="45.11402" lon="5.9031">
        <ele>1933.35</ele>
        <time>2023-08-09T16:35:06Z</time>
      </trkpt>
      <trkpt lat="45.11408" lon="5.90315">
        <ele>1934.79</ele>
        <time>2023-08-09T16:35:18Z</time>
      </trkpt>
      <trkpt lat="45.11413" lon="5.9032">
        <ele>1936.23</ele>
        <time>2023-08-09T16:35:28Z</time>
      </trkpt>
      <trkpt lat="45.11419" lon="5.90327">
        <ele>1937.19</ele>
        <time>2023-08-09T16:35:40Z</time>
      </trkpt>
      <trkpt lat="45.11427" lon="5.90341">
        <ele>1938.64</ele>
        <time>2023-08-09T16:35:55Z</time>
      </trkpt>
      <trkpt lat="45.11429" lon="5.90348">
        <ele>1938.64</ele>
        <time>2023-08-09T16:36:02Z</time>
      </trkpt>
      <trkpt lat="45.11432" lon="5.90363">
        <ele>1938.64</ele>
        <time>2023-08-09T16:36:15Z</time>
      </trkpt>
      <trkpt lat="45.11435" lon="5.90364">
        <ele>1939.12</ele>
        <time>2023-08-09T16:36:19Z</time>
      </trkpt>
      <trkpt lat="45.1144" lon="5.90369">
        <ele>1941.52</ele>
        <time>2023-08-09T16:36:27Z</time>
      </trkpt>
      <trkpt lat="45.11446" lon="5.9037">
        <ele>1942</ele>
        <time>2023-08-09T16:36:40Z</time>
      </trkpt>
      <trkpt lat="45.11454" lon="5.90376">
        <ele>1942.48</ele>
        <time>2023-08-09T16:36:51Z</time>
      </trkpt>
      <trkpt lat="45.1146" lon="5.90381">
        <ele>1942.48</ele>
        <time>2023-08-09T16:36:58Z</time>
      </trkpt>
      <trkpt lat="45.11462" lon="5.90383">
        <ele>1942.48</ele>
        <time>2023-08-09T16:37:01Z</time>
      </trkpt>
      <trkpt lat="45.1147" lon="5.90387">
        <ele>1942.96</ele>
        <time>2023-08-09T16:37:13Z</time>
      </trkpt>
      <trkpt lat="45.11474" lon="5.90392">
        <ele>1942.96</ele>
        <time>2023-08-09T16:37:21Z</time>
      </trkpt>
      <trkpt lat="45.11485" lon="5.90394">
        <ele>1942.96</ele>
        <time>2023-08-09T16:37:33Z</time>
      </trkpt>
      <trkpt lat="45.11488" lon="5.90398">
        <ele>1942.96</ele>
        <time>2023-08-09T16:37:41Z</time>
      </trkpt>
      <trkpt lat="45.11494" lon="5.90409">
        <ele>1943.44</ele>
        <time>2023-08-09T16:37:54Z</time>
      </trkpt>
      <trkpt lat="45.11499" lon="5.90422">
        <ele>1944.88</ele>
        <time>2023-08-09T16:38:07Z</time>
      </trkpt>
      <trkpt lat="45.11506" lon="5.90427">
        <ele>1946.33</ele>
        <time>2023-08-09T16:38:18Z</time>
      </trkpt>
      <trkpt lat="45.1151" lon="5.90434">
        <ele>1947.77</ele>
        <time>2023-08-09T16:38:28Z</time>
      </trkpt>
      <trkpt lat="45.11514" lon="5.90438">
        <ele>1948.73</ele>
        <time>2023-08-09T16:38:40Z</time>
      </trkpt>
      <trkpt lat="45.11516" lon="5.90441">
        <ele>1949.21</ele>
        <time>2023-08-09T16:38:45Z</time>
      </trkpt>
      <trkpt lat="45.11524" lon="5.9045">
        <ele>1951.13</ele>
        <time>2023-08-09T16:39:01Z</time>
      </trkpt>
      <trkpt lat="45.11532" lon="5.90452">
        <ele>1953.06</ele>
        <time>2023-08-09T16:39:16Z</time>
      </trkpt>
      <trkpt lat="45.11533" lon="5.90453">
        <ele>1953.06</ele>
        <time>2023-08-09T16:39:19Z</time>
      </trkpt>
      <trkpt lat="45.11544" lon="5.90458">
        <ele>1954.02</ele>
        <time>2023-08-09T16:39:33Z</time>
      </trkpt>
      <trkpt lat="45.1155" lon="5.90459">
        <ele>1954.98</ele>
        <time>2023-08-09T16:39:43Z</time>
      </trkpt>
      <trkpt lat="45.11556" lon="5.90459">
        <ele>1956.42</ele>
        <time>2023-08-09T16:39:54Z</time>
      </trkpt>
      <trkpt lat="45.11565" lon="5.90458">
        <ele>1958.34</ele>
        <time>2023-08-09T16:40:07Z</time>
      </trkpt>
      <trkpt lat="45.11571" lon="5.90459">
        <ele>1959.3</ele>
        <time>2023-08-09T16:40:17Z</time>
      </trkpt>
      <trkpt lat="45.1158" lon="5.90459">
        <ele>1960.75</ele>
        <time>2023-08-09T16:40:32Z</time>
      </trkpt>
      <trkpt lat="45.11588" lon="5.9046">
        <ele>1961.71</ele>
        <time>2023-08-09T16:40:45Z</time>
      </trkpt>
      <trkpt lat="45.11594" lon="5.90456">
        <ele>1963.15</ele>
        <time>2023-08-09T16:40:56Z</time>
      </trkpt>
      <trkpt lat="45.11598" lon="5.90457">
        <ele>1964.11</ele>
        <time>2023-08-09T16:41:08Z</time>
      </trkpt>
      <trkpt lat="45.11604" lon="5.9046">
        <ele>1966.03</ele>
        <time>2023-08-09T16:41:19Z</time>
      </trkpt>
      <trkpt lat="45.11605" lon="5.90461">
        <ele>1966.03</ele>
        <time>2023-08-09T16:41:22Z</time>
      </trkpt>
      <trkpt lat="45.11613" lon="5.90465">
        <ele>1967.48</ele>
        <time>2023-08-09T16:41:36Z</time>
      </trkpt>
      <trkpt lat="45.11615" lon="5.90465">
        <ele>1967.96</ele>
        <time>2023-08-09T16:41:41Z</time>
      </trkpt>
      <trkpt lat="45.1162" lon="5.90465">
        <ele>1969.88</ele>
        <time>2023-08-09T16:41:53Z</time>
      </trkpt>
      <trkpt lat="45.11624" lon="5.90463">
        <ele>1971.8</ele>
        <time>2023-08-09T16:42:06Z</time>
      </trkpt>
      <trkpt lat="45.1163" lon="5.90467">
        <ele>1973.24</ele>
        <time>2023-08-09T16:42:19Z</time>
      </trkpt>
      <trkpt lat="45.11633" lon="5.90471">
        <ele>1973.72</ele>
        <time>2023-08-09T16:42:27Z</time>
      </trkpt>
      <trkpt lat="45.1164" lon="5.90476">
        <ele>1975.17</ele>
        <time>2023-08-09T16:42:39Z</time>
      </trkpt>
      <trkpt lat="45.11645" lon="5.90476">
        <ele>1977.09</ele>
        <time>2023-08-09T16:42:50Z</time>
      </trkpt>
      <trkpt lat="45.11648" lon="5.90476">
        <ele>1977.09</ele>
        <time>2023-08-09T16:42:57Z</time>
      </trkpt>
      <trkpt lat="45.11652" lon="5.90481">
        <ele>1978.53</ele>
        <time>2023-08-09T16:43:10Z</time>
      </trkpt>
      <trkpt lat="45.11657" lon="5.90484">
        <ele>1979.97</ele>
        <time>2023-08-09T16:43:23Z</time>
      </trkpt>
      <trkpt lat="45.11658" lon="5.90484">
        <ele>1980.45</ele>
        <time>2023-08-09T16:43:25Z</time>
      </trkpt>
      <trkpt lat="45.11664" lon="5.90486">
        <ele>1981.41</ele>
        <time>2023-08-09T16:43:34Z</time>
      </trkpt>
      <trkpt lat="45.11669" lon="5.90485">
        <ele>1983.34</ele>
        <time>2023-08-09T16:43:45Z</time>
      </trkpt>
      <trkpt lat="45.11675" lon="5.90486">
        <ele>1984.78</ele>
        <time>2023-08-09T16:43:58Z</time>
      </trkpt>
      <trkpt lat="45.1168" lon="5.90489">
        <ele>1987.18</ele>
        <time>2023-08-09T16:44:10Z</time>
      </trkpt>
      <trkpt lat="45.11683" lon="5.90491">
        <ele>1986.7</ele>
        <time>2023-08-09T16:44:14Z</time>
      </trkpt>
      <trkpt lat="45.11691" lon="5.90495">
        <ele>1988.62</ele>
        <time>2023-08-09T16:44:28Z</time>
      </trkpt>
      <trkpt lat="45.11696" lon="5.905">
        <ele>1989.59</ele>
        <time>2023-08-09T16:44:38Z</time>
      </trkpt>
      <trkpt lat="45.11699" lon="5.90502">
        <ele>1991.51</ele>
        <time>2023-08-09T16:44:49Z</time>
      </trkpt>
      <trkpt lat="45.11705" lon="5.90508">
        <ele>1992.95</ele>
        <time>2023-08-09T16:45:02Z</time>
      </trkpt>
      <trkpt lat="45.1171" lon="5.90512">
        <ele>1993.43</ele>
        <time>2023-08-09T16:45:08Z</time>
      </trkpt>
      <trkpt lat="45.11712" lon="5.90516">
        <ele>1993.91</ele>
        <time>2023-08-09T16:45:12Z</time>
      </trkpt>
      <trkpt lat="45.11714" lon="5.90519">
        <ele>1994.87</ele>
        <time>2023-08-09T16:45:21Z</time>
      </trkpt>
      <trkpt lat="45.11717" lon="5.90525">
        <ele>1996.32</ele>
        <time>2023-08-09T16:45:34Z</time>
      </trkpt>
      <trkpt lat="45.11722" lon="5.90527">
        <ele>1997.76</ele>
        <time>2023-08-09T16:45:48Z</time>
      </trkpt>
      <trkpt lat="45.11725" lon="5.90531">
        <ele>1999.68</ele>
        <time>2023-08-09T16:45:59Z</time>
      </trkpt>
      <trkpt lat="45.11729" lon="5.90534">
        <ele>2000.64</ele>
        <time>2023-08-09T16:46:09Z</time>
      </trkpt>
      <trkpt lat="45.11734" lon="5.90538">
        <ele>2002.08</ele>
        <time>2023-08-09T16:46:20Z</time>
      </trkpt>
      <trkpt lat="45.11736" lon="5.90538">
        <ele>2003.04</ele>
        <time>2023-08-09T16:46:33Z</time>
      </trkpt>
      <trkpt lat="45.1174" lon="5.9054">
        <ele>2005.45</ele>
        <time>2023-08-09T16:46:44Z</time>
      </trkpt>
      <trkpt lat="45.11742" lon="5.90543">
        <ele>2006.89</ele>
        <time>2023-08-09T16:46:56Z</time>
      </trkpt>
      <trkpt lat="45.11745" lon="5.90546">
        <ele>2007.85</ele>
        <time>2023-08-09T16:47:04Z</time>
      </trkpt>
      <trkpt lat="45.11751" lon="5.90555">
        <ele>2009.29</ele>
        <time>2023-08-09T16:47:18Z</time>
      </trkpt>
      <trkpt lat="45.11756" lon="5.90554">
        <ele>2012.18</ele>
        <time>2023-08-09T16:47:34Z</time>
      </trkpt>
      <trkpt lat="45.11761" lon="5.90558">
        <ele>2014.1</ele>
        <time>2023-08-09T16:47:48Z</time>
      </trkpt>
      <trkpt lat="45.11763" lon="5.90563">
        <ele>2016.02</ele>
        <time>2023-08-09T16:48:02Z</time>
      </trkpt>
      <trkpt lat="45.11768" lon="5.90567">
        <ele>2018.43</ele>
        <time>2023-08-09T16:48:13Z</time>
      </trkpt>
      <trkpt lat="45.11769" lon="5.90568">
        <ele>2018.91</ele>
        <time>2023-08-09T16:48:26Z</time>
      </trkpt>
      <trkpt lat="45.11771" lon="5.90568">
        <ele>2020.35</ele>
        <time>2023-08-09T16:48:29Z</time>
      </trkpt>
      <trkpt lat="45.11775" lon="5.90576">
        <ele>2022.75</ele>
        <time>2023-08-09T16:48:41Z</time>
      </trkpt>
      <trkpt lat="45.11778" lon="5.90577">
        <ele>2023.71</ele>
        <time>2023-08-09T16:48:46Z</time>
      </trkpt>
      <trkpt lat="45.11779" lon="5.9058">
        <ele>2023.71</ele>
        <time>2023-08-09T16:48:51Z</time>
      </trkpt>
      <trkpt lat="45.11781" lon="5.90584">
        <ele>2022.27</ele>
        <time>2023-08-09T16:49:10Z</time>
      </trkpt>
      <trkpt lat="45.11782" lon="5.90583">
        <ele>2022.75</ele>
        <time>2023-08-09T16:49:14Z</time>
      </trkpt>
      <trkpt lat="45.11782" lon="5.90585">
        <ele>2023.23</ele>
        <time>2023-08-09T16:49:16Z</time>
      </trkpt>
      <trkpt lat="45.11784" lon="5.90586">
        <ele>2022.27</ele>
        <time>2023-08-09T16:49:22Z</time>
      </trkpt>
      <trkpt lat="45.11786" lon="5.90588">
        <ele>2022.27</ele>
        <time>2023-08-09T16:49:25Z</time>
      </trkpt>
      <trkpt lat="45.11791" lon="5.90598">
        <ele>2020.83</ele>
        <time>2023-08-09T16:49:37Z</time>
      </trkpt>
      <trkpt lat="45.11797" lon="5.90608">
        <ele>2019.87</ele>
        <time>2023-08-09T16:49:50Z</time>
      </trkpt>
      <trkpt lat="45.118" lon="5.90615">
        <ele>2020.35</ele>
        <time>2023-08-09T16:50:02Z</time>
      </trkpt>
      <trkpt lat="45.11808" lon="5.90624">
        <ele>2019.39</ele>
        <time>2023-08-09T16:50:13Z</time>
      </trkpt>
      <trkpt lat="45.11809" lon="5.90624">
        <ele>2019.39</ele>
        <time>2023-08-09T16:50:14Z</time>
      </trkpt>
      <trkpt lat="45.11815" lon="5.90633">
        <ele>2018.91</ele>
        <time>2023-08-09T16:50:25Z</time>
      </trkpt>
      <trkpt lat="45.11821" lon="5.90641">
        <ele>2018.43</ele>
        <time>2023-08-09T16:50:38Z</time>
      </trkpt>
      <trkpt lat="45.11822" lon="5.90641">
        <ele>2018.43</ele>
        <time>2023-08-09T16:50:39Z</time>
      </trkpt>
      <trkpt lat="45.11827" lon="5.90644">
        <ele>2018.43</ele>
        <time>2023-08-09T16:50:47Z</time>
      </trkpt>
      <trkpt lat="45.11837" lon="5.90648">
        <ele>2018.43</ele>
        <time>2023-08-09T16:50:58Z</time>
      </trkpt>
      <trkpt lat="45.1184" lon="5.9065">
        <ele>2017.94</ele>
        <time>2023-08-09T16:51:02Z</time>
      </trkpt>
      <trkpt lat="45.11852" lon="5.90657">
        <ele>2017.46</ele>
        <time>2023-08-09T16:51:15Z</time>
      </trkpt>
      <trkpt lat="45.11853" lon="5.90661">
        <ele>2016.98</ele>
        <time>2023-08-09T16:51:18Z</time>
      </trkpt>
      <trkpt lat="45.1186" lon="5.90666">
        <ele>2016.98</ele>
        <time>2023-08-09T16:51:25Z</time>
      </trkpt>
      <trkpt lat="45.11863" lon="5.90678">
        <ele>2018.43</ele>
        <time>2023-08-09T16:51:40Z</time>
      </trkpt>
      <trkpt lat="45.11864" lon="5.90678">
        <ele>2018.43</ele>
        <time>2023-08-09T16:51:41Z</time>
      </trkpt>
      <trkpt lat="45.11867" lon="5.90689">
        <ele>2019.39</ele>
        <time>2023-08-09T16:51:52Z</time>
      </trkpt>
      <trkpt lat="45.11869" lon="5.90693">
        <ele>2020.35</ele>
        <time>2023-08-09T16:51:56Z</time>
      </trkpt>
      <trkpt lat="45.11878" lon="5.90701">
        <ele>2020.35</ele>
        <time>2023-08-09T16:52:08Z</time>
      </trkpt>
      <trkpt lat="45.11886" lon="5.90706">
        <ele>2020.83</ele>
        <time>2023-08-09T16:52:20Z</time>
      </trkpt>
      <trkpt lat="45.11888" lon="5.90708">
        <ele>2019.39</ele>
        <time>2023-08-09T16:52:23Z</time>
      </trkpt>
      <trkpt lat="45.11895" lon="5.90716">
        <ele>2019.39</ele>
        <time>2023-08-09T16:52:35Z</time>
      </trkpt>
      <trkpt lat="45.11898" lon="5.90719">
        <ele>2020.83</ele>
        <time>2023-08-09T16:52:39Z</time>
      </trkpt>
      <trkpt lat="45.11906" lon="5.90724">
        <ele>2022.27</ele>
        <time>2023-08-09T16:52:51Z</time>
      </trkpt>
      <trkpt lat="45.11911" lon="5.90729">
        <ele>2023.71</ele>
        <time>2023-08-09T16:53:02Z</time>
      </trkpt>
      <trkpt lat="45.11916" lon="5.9073">
        <ele>2025.15</ele>
        <time>2023-08-09T16:53:15Z</time>
      </trkpt>
      <trkpt lat="45.11921" lon="5.90736">
        <ele>2027.08</ele>
        <time>2023-08-09T16:53:30Z</time>
      </trkpt>
      <trkpt lat="45.11922" lon="5.90738">
        <ele>2028.04</ele>
        <time>2023-08-09T16:53:36Z</time>
      </trkpt>
      <trkpt lat="45.11925" lon="5.90744">
        <ele>2029.48</ele>
        <time>2023-08-09T16:53:46Z</time>
      </trkpt>
      <trkpt lat="45.11931" lon="5.90749">
        <ele>2029.96</ele>
        <time>2023-08-09T16:54:00Z</time>
      </trkpt>
      <trkpt lat="45.11937" lon="5.90754">
        <ele>2031.88</ele>
        <time>2023-08-09T16:54:12Z</time>
      </trkpt>
      <trkpt lat="45.11945" lon="5.90761">
        <ele>2032.84</ele>
        <time>2023-08-09T16:54:28Z</time>
      </trkpt>
      <trkpt lat="45.11946" lon="5.90762">
        <ele>2032.84</ele>
        <time>2023-08-09T16:54:30Z</time>
      </trkpt>
      <trkpt lat="45.11949" lon="5.90763">
        <ele>2033.33</ele>
        <time>2023-08-09T16:54:36Z</time>
      </trkpt>
      <trkpt lat="45.11952" lon="5.90772">
        <ele>2033.33</ele>
        <time>2023-08-09T16:54:48Z</time>
      </trkpt>
      <trkpt lat="45.11956" lon="5.90775">
        <ele>2033.33</ele>
        <time>2023-08-09T16:55:01Z</time>
      </trkpt>
      <trkpt lat="45.11961" lon="5.90781">
        <ele>2034.29</ele>
        <time>2023-08-09T16:55:13Z</time>
      </trkpt>
      <trkpt lat="45.11964" lon="5.90787">
        <ele>2035.73</ele>
        <time>2023-08-09T16:55:24Z</time>
      </trkpt>
      <trkpt lat="45.11963" lon="5.90793">
        <ele>2036.69</ele>
        <time>2023-08-09T16:55:35Z</time>
      </trkpt>
      <trkpt lat="45.11963" lon="5.90796">
        <ele>2039.09</ele>
        <time>2023-08-09T16:55:51Z</time>
      </trkpt>
      <trkpt lat="45.11963" lon="5.90802">
        <ele>2040.05</ele>
        <time>2023-08-09T16:56:02Z</time>
      </trkpt>
      <trkpt lat="45.11965" lon="5.90811">
        <ele>2040.05</ele>
        <time>2023-08-09T16:56:12Z</time>
      </trkpt>
      <trkpt lat="45.1197" lon="5.90824">
        <ele>2041.5</ele>
        <time>2023-08-09T16:56:23Z</time>
      </trkpt>
      <trkpt lat="45.11975" lon="5.90834">
        <ele>2042.94</ele>
        <time>2023-08-09T16:56:36Z</time>
      </trkpt>
      <trkpt lat="45.11979" lon="5.90835">
        <ele>2043.9</ele>
        <time>2023-08-09T16:56:46Z</time>
      </trkpt>
      <trkpt lat="45.11983" lon="5.90839">
        <ele>2045.82</ele>
        <time>2023-08-09T16:56:58Z</time>
      </trkpt>
      <trkpt lat="45.11988" lon="5.90848">
        <ele>2046.78</ele>
        <time>2023-08-09T16:57:09Z</time>
      </trkpt>
      <trkpt lat="45.11992" lon="5.90851">
        <ele>2047.75</ele>
        <time>2023-08-09T16:57:18Z</time>
      </trkpt>
      <trkpt lat="45.11995" lon="5.90847">
        <ele>2049.19</ele>
        <time>2023-08-09T16:57:29Z</time>
      </trkpt>
      <trkpt lat="45.11997" lon="5.90846">
        <ele>2051.11</ele>
        <time>2023-08-09T16:57:41Z</time>
      </trkpt>
      <trkpt lat="45.11999" lon="5.90846">
        <ele>2052.07</ele>
        <time>2023-08-09T16:57:53Z</time>
      </trkpt>
      <trkpt lat="45.12003" lon="5.90845">
        <ele>2053.99</ele>
        <time>2023-08-09T16:58:07Z</time>
      </trkpt>
      <trkpt lat="45.12009" lon="5.90843">
        <ele>2054.96</ele>
        <time>2023-08-09T16:58:19Z</time>
      </trkpt>
      <trkpt lat="45.12014" lon="5.90841">
        <ele>2057.36</ele>
        <time>2023-08-09T16:58:33Z</time>
      </trkpt>
      <trkpt lat="45.12015" lon="5.90841">
        <ele>2057.36</ele>
        <time>2023-08-09T16:58:34Z</time>
      </trkpt>
      <trkpt lat="45.1202" lon="5.90836">
        <ele>2058.8</ele>
        <time>2023-08-09T16:58:47Z</time>
      </trkpt>
      <trkpt lat="45.12023" lon="5.90834">
        <ele>2059.28</ele>
        <time>2023-08-09T16:59:01Z</time>
      </trkpt>
      <trkpt lat="45.12023" lon="5.90838">
        <ele>2060.24</ele>
        <time>2023-08-09T16:59:23Z</time>
      </trkpt>
      <trkpt lat="45.12025" lon="5.90843">
        <ele>2061.68</ele>
        <time>2023-08-09T16:59:31Z</time>
      </trkpt>
      <trkpt lat="45.12027" lon="5.9085">
        <ele>2062.65</ele>
        <time>2023-08-09T16:59:37Z</time>
      </trkpt>
      <trkpt lat="45.12029" lon="5.90854">
        <ele>2062.65</ele>
        <time>2023-08-09T16:59:48Z</time>
      </trkpt>
      <trkpt lat="45.12031" lon="5.90857">
        <ele>2062.65</ele>
        <time>2023-08-09T16:59:51Z</time>
      </trkpt>
      <trkpt lat="45.1204" lon="5.9086">
        <ele>2061.2</ele>
        <time>2023-08-09T17:00:02Z</time>
      </trkpt>
      <trkpt lat="45.12044" lon="5.90861">
        <ele>2060.24</ele>
        <time>2023-08-09T17:00:08Z</time>
      </trkpt>
      <trkpt lat="45.12051" lon="5.90859">
        <ele>2059.28</ele>
        <time>2023-08-09T17:00:16Z</time>
      </trkpt>
      <trkpt lat="45.12054" lon="5.90859">
        <ele>2058.8</ele>
        <time>2023-08-09T17:00:19Z</time>
      </trkpt>
      <trkpt lat="45.12058" lon="5.9086">
        <ele>2058.32</ele>
        <time>2023-08-09T17:00:23Z</time>
      </trkpt>
      <trkpt lat="45.1206" lon="5.90861">
        <ele>2058.32</ele>
        <time>2023-08-09T17:00:25Z</time>
      </trkpt>
      <trkpt lat="45.12063" lon="5.90863">
        <ele>2057.84</ele>
        <time>2023-08-09T17:00:29Z</time>
      </trkpt>
      <trkpt lat="45.12066" lon="5.90866">
        <ele>2057.84</ele>
        <time>2023-08-09T17:00:34Z</time>
      </trkpt>
      <trkpt lat="45.12075" lon="5.90873">
        <ele>2056.88</ele>
        <time>2023-08-09T17:00:45Z</time>
      </trkpt>
      <trkpt lat="45.12077" lon="5.90873">
        <ele>2056.88</ele>
        <time>2023-08-09T17:00:48Z</time>
      </trkpt>
      <trkpt lat="45.12082" lon="5.90881">
        <ele>2057.36</ele>
        <time>2023-08-09T17:00:59Z</time>
      </trkpt>
      <trkpt lat="45.12083" lon="5.90884">
        <ele>2057.36</ele>
        <time>2023-08-09T17:01:01Z</time>
      </trkpt>
      <trkpt lat="45.12086" lon="5.90894">
        <ele>2058.32</ele>
        <time>2023-08-09T17:01:12Z</time>
      </trkpt>
      <trkpt lat="45.12087" lon="5.90897">
        <ele>2058.32</ele>
        <time>2023-08-09T17:01:15Z</time>
      </trkpt>
      <trkpt lat="45.12091" lon="5.90901">
        <ele>2059.28</ele>
        <time>2023-08-09T17:01:24Z</time>
      </trkpt>
      <trkpt lat="45.12097" lon="5.9091">
        <ele>2059.28</ele>
        <time>2023-08-09T17:01:33Z</time>
      </trkpt>
      <trkpt lat="45.12103" lon="5.90916">
        <ele>2058.32</ele>
        <time>2023-08-09T17:01:41Z</time>
      </trkpt>
      <trkpt lat="45.12104" lon="5.90919">
        <ele>2057.84</ele>
        <time>2023-08-09T17:01:45Z</time>
      </trkpt>
      <trkpt lat="45.12107" lon="5.90922">
        <ele>2057.84</ele>
        <time>2023-08-09T17:01:49Z</time>
      </trkpt>
      <trkpt lat="45.12111" lon="5.90926">
        <ele>2056.88</ele>
        <time>2023-08-09T17:01:54Z</time>
      </trkpt>
      <trkpt lat="45.12114" lon="5.90928">
        <ele>2055.44</ele>
        <time>2023-08-09T17:01:58Z</time>
      </trkpt>
      <trkpt lat="45.12118" lon="5.90939">
        <ele>2055.44</ele>
        <time>2023-08-09T17:02:09Z</time>
      </trkpt>
      <trkpt lat="45.12119" lon="5.9094">
        <ele>2056.4</ele>
        <time>2023-08-09T17:02:11Z</time>
      </trkpt>
      <trkpt lat="45.12124" lon="5.90941">
        <ele>2056.4</ele>
        <time>2023-08-09T17:02:15Z</time>
      </trkpt>
      <trkpt lat="45.12128" lon="5.90942">
        <ele>2054.96</ele>
        <time>2023-08-09T17:02:20Z</time>
      </trkpt>
      <trkpt lat="45.12135" lon="5.90943">
        <ele>2053.51</ele>
        <time>2023-08-09T17:02:31Z</time>
      </trkpt>
      <trkpt lat="45.1214" lon="5.90944">
        <ele>2053.03</ele>
        <time>2023-08-09T17:02:37Z</time>
      </trkpt>
      <trkpt lat="45.12142" lon="5.90947">
        <ele>2053.03</ele>
        <time>2023-08-09T17:02:44Z</time>
      </trkpt>
      <trkpt lat="45.12145" lon="5.90948">
        <ele>2054.47</ele>
        <time>2023-08-09T17:02:48Z</time>
      </trkpt>
      <trkpt lat="45.12152" lon="5.90954">
        <ele>2054.47</ele>
        <time>2023-08-09T17:03:00Z</time>
      </trkpt>
      <trkpt lat="45.12158" lon="5.90965">
        <ele>2052.55</ele>
        <time>2023-08-09T17:03:12Z</time>
      </trkpt>
      <trkpt lat="45.1216" lon="5.90967">
        <ele>2053.99</ele>
        <time>2023-08-09T17:03:15Z</time>
      </trkpt>
      <trkpt lat="45.12163" lon="5.9097">
        <ele>2054.96</ele>
        <time>2023-08-09T17:03:20Z</time>
      </trkpt>
      <trkpt lat="45.1217" lon="5.9097">
        <ele>2056.88</ele>
        <time>2023-08-09T17:03:33Z</time>
      </trkpt>
      <trkpt lat="45.12173" lon="5.90972">
        <ele>2057.84</ele>
        <time>2023-08-09T17:03:41Z</time>
      </trkpt>
      <trkpt lat="45.12179" lon="5.90973">
        <ele>2059.76</ele>
        <time>2023-08-09T17:03:54Z</time>
      </trkpt>
      <trkpt lat="45.12181" lon="5.90973">
        <ele>2060.24</ele>
        <time>2023-08-09T17:03:59Z</time>
      </trkpt>
      <trkpt lat="45.12185" lon="5.90972">
        <ele>2061.68</ele>
        <time>2023-08-09T17:04:11Z</time>
      </trkpt>
      <trkpt lat="45.12191" lon="5.90977">
        <ele>2063.61</ele>
        <time>2023-08-09T17:04:25Z</time>
      </trkpt>
      <trkpt lat="45.12197" lon="5.90977">
        <ele>2066.01</ele>
        <time>2023-08-09T17:04:38Z</time>
      </trkpt>
      <trkpt lat="45.12198" lon="5.90977">
        <ele>2066.49</ele>
        <time>2023-08-09T17:04:39Z</time>
      </trkpt>
      <trkpt lat="45.12206" lon="5.90978">
        <ele>2067.45</ele>
        <time>2023-08-09T17:04:51Z</time>
      </trkpt>
      <trkpt lat="45.12215" lon="5.90984">
        <ele>2067.93</ele>
        <time>2023-08-09T17:05:04Z</time>
      </trkpt>
      <trkpt lat="45.12221" lon="5.90993">
        <ele>2068.41</ele>
        <time>2023-08-09T17:05:15Z</time>
      </trkpt>
      <trkpt lat="45.12228" lon="5.90998">
        <ele>2068.41</ele>
        <time>2023-08-09T17:05:23Z</time>
      </trkpt>
      <trkpt lat="45.12234" lon="5.90999">
        <ele>2068.41</ele>
        <time>2023-08-09T17:05:30Z</time>
      </trkpt>
      <trkpt lat="45.12238" lon="5.90999">
        <ele>2066.97</ele>
        <time>2023-08-09T17:05:34Z</time>
      </trkpt>
      <trkpt lat="45.1224" lon="5.91">
        <ele>2066.49</ele>
        <time>2023-08-09T17:05:36Z</time>
      </trkpt>
      <trkpt lat="45.12253" lon="5.91002">
        <ele>2066.97</ele>
        <time>2023-08-09T17:05:50Z</time>
      </trkpt>
      <trkpt lat="45.12256" lon="5.91002">
        <ele>2066.97</ele>
        <time>2023-08-09T17:05:53Z</time>
      </trkpt>
      <trkpt lat="45.12258" lon="5.91003">
        <ele>2067.93</ele>
        <time>2023-08-09T17:05:55Z</time>
      </trkpt>
      <trkpt lat="45.12265" lon="5.91004">
        <ele>2067.93</ele>
        <time>2023-08-09T17:06:02Z</time>
      </trkpt>
      <trkpt lat="45.12276" lon="5.91014">
        <ele>2066.49</ele>
        <time>2023-08-09T17:06:16Z</time>
      </trkpt>
      <trkpt lat="45.12279" lon="5.91018">
        <ele>2066.01</ele>
        <time>2023-08-09T17:06:20Z</time>
      </trkpt>
      <trkpt lat="45.12282" lon="5.91021">
        <ele>2066.01</ele>
        <time>2023-08-09T17:06:23Z</time>
      </trkpt>
      <trkpt lat="45.12286" lon="5.91029">
        <ele>2065.53</ele>
        <time>2023-08-09T17:06:30Z</time>
      </trkpt>
      <trkpt lat="45.12298" lon="5.91038">
        <ele>2065.53</ele>
        <time>2023-08-09T17:06:45Z</time>
      </trkpt>
      <trkpt lat="45.12305" lon="5.91045">
        <ele>2066.49</ele>
        <time>2023-08-09T17:06:56Z</time>
      </trkpt>
      <trkpt lat="45.12313" lon="5.91047">
        <ele>2068.41</ele>
        <time>2023-08-09T17:07:08Z</time>
      </trkpt>
      <trkpt lat="45.12321" lon="5.91047">
        <ele>2069.38</ele>
        <time>2023-08-09T17:07:19Z</time>
      </trkpt>
      <trkpt lat="45.12327" lon="5.91046">
        <ele>2070.34</ele>
        <time>2023-08-09T17:07:29Z</time>
      </trkpt>
      <trkpt lat="45.12337" lon="5.91047">
        <ele>2071.78</ele>
        <time>2023-08-09T17:07:42Z</time>
      </trkpt>
      <trkpt lat="45.12348" lon="5.91046">
        <ele>2072.74</ele>
        <time>2023-08-09T17:07:55Z</time>
      </trkpt>
      <trkpt lat="45.1235" lon="5.91044">
        <ele>2072.74</ele>
        <time>2023-08-09T17:08:01Z</time>
      </trkpt>
      <trkpt lat="45.12357" lon="5.91041">
        <ele>2072.74</ele>
        <time>2023-08-09T17:08:10Z</time>
      </trkpt>
      <trkpt lat="45.12368" lon="5.91034">
        <ele>2072.74</ele>
        <time>2023-08-09T17:08:23Z</time>
      </trkpt>
      <trkpt lat="45.12369" lon="5.91034">
        <ele>2072.74</ele>
        <time>2023-08-09T17:08:24Z</time>
      </trkpt>
      <trkpt lat="45.12373" lon="5.91031">
        <ele>2071.78</ele>
        <time>2023-08-09T17:08:29Z</time>
      </trkpt>
      <trkpt lat="45.12382" lon="5.91022">
        <ele>2071.78</ele>
        <time>2023-08-09T17:08:42Z</time>
      </trkpt>
      <trkpt lat="45.12385" lon="5.91017">
        <ele>2071.78</ele>
        <time>2023-08-09T17:08:47Z</time>
      </trkpt>
      <trkpt lat="45.12393" lon="5.91003">
        <ele>2073.7</ele>
        <time>2023-08-09T17:09:00Z</time>
      </trkpt>
      <trkpt lat="45.12401" lon="5.90994">
        <ele>2075.62</ele>
        <time>2023-08-09T17:09:13Z</time>
      </trkpt>
      <trkpt lat="45.12408" lon="5.90984">
        <ele>2077.07</ele>
        <time>2023-08-09T17:09:26Z</time>
      </trkpt>
      <trkpt lat="45.12409" lon="5.90983">
        <ele>2077.55</ele>
        <time>2023-08-09T17:09:29Z</time>
      </trkpt>
      <trkpt lat="45.12411" lon="5.9098">
        <ele>2078.51</ele>
        <time>2023-08-09T17:09:42Z</time>
      </trkpt>
      <trkpt lat="45.12412" lon="5.90974">
        <ele>2079.95</ele>
        <time>2023-08-09T17:09:56Z</time>
      </trkpt>
      <trkpt lat="45.12413" lon="5.90968">
        <ele>2080.91</ele>
        <time>2023-08-09T17:10:11Z</time>
      </trkpt>
      <trkpt lat="45.12413" lon="5.90963">
        <ele>2083.31</ele>
        <time>2023-08-09T17:10:23Z</time>
      </trkpt>
      <trkpt lat="45.12413" lon="5.90953">
        <ele>2083.79</ele>
        <time>2023-08-09T17:10:33Z</time>
      </trkpt>
      <trkpt lat="45.12414" lon="5.90951">
        <ele>2085.24</ele>
        <time>2023-08-09T17:10:46Z</time>
      </trkpt>
      <trkpt lat="45.12416" lon="5.90944">
        <ele>2086.2</ele>
        <time>2023-08-09T17:11:00Z</time>
      </trkpt>
      <trkpt lat="45.12417" lon="5.90938">
        <ele>2086.68</ele>
        <time>2023-08-09T17:11:10Z</time>
      </trkpt>
      <trkpt lat="45.12419" lon="5.90934">
        <ele>2089.08</ele>
        <time>2023-08-09T17:11:21Z</time>
      </trkpt>
      <trkpt lat="45.1242" lon="5.90928">
        <ele>2091</ele>
        <time>2023-08-09T17:11:36Z</time>
      </trkpt>
      <trkpt lat="45.12422" lon="5.90926">
        <ele>2091.49</ele>
        <time>2023-08-09T17:12:08Z</time>
      </trkpt>
      <trkpt lat="45.12424" lon="5.90918">
        <ele>2093.89</ele>
        <time>2023-08-09T17:12:20Z</time>
      </trkpt>
      <trkpt lat="45.12428" lon="5.90914">
        <ele>2094.37</ele>
        <time>2023-08-09T17:12:32Z</time>
      </trkpt>
      <trkpt lat="45.12428" lon="5.90912">
        <ele>2096.29</ele>
        <time>2023-08-09T17:12:37Z</time>
      </trkpt>
      <trkpt lat="45.1243" lon="5.90908">
        <ele>2097.25</ele>
        <time>2023-08-09T17:12:50Z</time>
      </trkpt>
      <trkpt lat="45.12432" lon="5.90907">
        <ele>2099.66</ele>
        <time>2023-08-09T17:13:03Z</time>
      </trkpt>
      <trkpt lat="45.12435" lon="5.90907">
        <ele>2100.62</ele>
        <time>2023-08-09T17:13:15Z</time>
      </trkpt>
      <trkpt lat="45.12437" lon="5.90903">
        <ele>2101.58</ele>
        <time>2023-08-09T17:13:30Z</time>
      </trkpt>
      <trkpt lat="45.12444" lon="5.90898">
        <ele>2103.5</ele>
        <time>2023-08-09T17:13:43Z</time>
      </trkpt>
      <trkpt lat="45.1245" lon="5.90893">
        <ele>2104.94</ele>
        <time>2023-08-09T17:13:56Z</time>
      </trkpt>
      <trkpt lat="45.1245" lon="5.90894">
        <ele>2106.39</ele>
        <time>2023-08-09T17:14:07Z</time>
      </trkpt>
      <trkpt lat="45.12454" lon="5.909">
        <ele>2108.79</ele>
        <time>2023-08-09T17:14:22Z</time>
      </trkpt>
      <trkpt lat="45.12455" lon="5.90905">
        <ele>2109.75</ele>
        <time>2023-08-09T17:14:35Z</time>
      </trkpt>
      <trkpt lat="45.1245" lon="5.90908">
        <ele>2110.71</ele>
        <time>2023-08-09T17:14:48Z</time>
      </trkpt>
      <trkpt lat="45.12453" lon="5.90915">
        <ele>2112.63</ele>
        <time>2023-08-09T17:15:00Z</time>
      </trkpt>
      <trkpt lat="45.12453" lon="5.90918">
        <ele>2114.08</ele>
        <time>2023-08-09T17:15:09Z</time>
      </trkpt>
      <trkpt lat="45.12454" lon="5.9092">
        <ele>2115.52</ele>
        <time>2023-08-09T17:15:21Z</time>
      </trkpt>
      <trkpt lat="45.12459" lon="5.90926">
        <ele>2116.96</ele>
        <time>2023-08-09T17:15:30Z</time>
      </trkpt>
      <trkpt lat="45.12462" lon="5.90936">
        <ele>2117.44</ele>
        <time>2023-08-09T17:15:41Z</time>
      </trkpt>
      <trkpt lat="45.12464" lon="5.90941">
        <ele>2118.88</ele>
        <time>2023-08-09T17:15:48Z</time>
      </trkpt>
      <trkpt lat="45.12468" lon="5.90949">
        <ele>2120.32</ele>
        <time>2023-08-09T17:16:01Z</time>
      </trkpt>
      <trkpt lat="45.12475" lon="5.9095">
        <ele>2121.77</ele>
        <time>2023-08-09T17:16:13Z</time>
      </trkpt>
      <trkpt lat="45.12475" lon="5.90941">
        <ele>2122.25</ele>
        <time>2023-08-09T17:16:28Z</time>
      </trkpt>
      <trkpt lat="45.12477" lon="5.90936">
        <ele>2124.65</ele>
        <time>2023-08-09T17:16:39Z</time>
      </trkpt>
      <trkpt lat="45.1248" lon="5.90927">
        <ele>2126.09</ele>
        <time>2023-08-09T17:16:49Z</time>
      </trkpt>
      <trkpt lat="45.12482" lon="5.90918">
        <ele>2126.57</ele>
        <time>2023-08-09T17:17:01Z</time>
      </trkpt>
      <trkpt lat="45.12486" lon="5.9092">
        <ele>2128.02</ele>
        <time>2023-08-09T17:17:12Z</time>
      </trkpt>
      <trkpt lat="45.12488" lon="5.90923">
        <ele>2128.98</ele>
        <time>2023-08-09T17:17:18Z</time>
      </trkpt>
      <trkpt lat="45.12491" lon="5.90935">
        <ele>2131.38</ele>
        <time>2023-08-09T17:17:31Z</time>
      </trkpt>
      <trkpt lat="45.12494" lon="5.90942">
        <ele>2132.34</ele>
        <time>2023-08-09T17:17:39Z</time>
      </trkpt>
      <trkpt lat="45.12495" lon="5.90946">
        <ele>2132.34</ele>
        <time>2023-08-09T17:17:44Z</time>
      </trkpt>
      <trkpt lat="45.12499" lon="5.90956">
        <ele>2136.19</ele>
        <time>2023-08-09T17:17:56Z</time>
      </trkpt>
      <trkpt lat="45.125" lon="5.90957">
        <ele>2136.19</ele>
        <time>2023-08-09T17:17:57Z</time>
      </trkpt>
      <trkpt lat="45.12501" lon="5.9096">
        <ele>2133.3</ele>
        <time>2023-08-09T17:18:00Z</time>
      </trkpt>
      <trkpt lat="45.12504" lon="5.90963">
        <ele>2134.74</ele>
        <time>2023-08-09T17:18:11Z</time>
      </trkpt>
      <trkpt lat="45.12504" lon="5.90966">
        <ele>2135.23</ele>
        <time>2023-08-09T17:18:14Z</time>
      </trkpt>
      <trkpt lat="45.12505" lon="5.90967">
        <ele>2135.71</ele>
        <time>2023-08-09T17:18:16Z</time>
      </trkpt>
      <trkpt lat="45.12509" lon="5.90971">
        <ele>2136.67</ele>
        <time>2023-08-09T17:18:27Z</time>
      </trkpt>
      <trkpt lat="45.1251" lon="5.90973">
        <ele>2137.15</ele>
        <time>2023-08-09T17:18:29Z</time>
      </trkpt>
      <trkpt lat="45.12516" lon="5.90987">
        <ele>2137.15</ele>
        <time>2023-08-09T17:18:43Z</time>
      </trkpt>
      <trkpt lat="45.12518" lon="5.90997">
        <ele>2139.07</ele>
        <time>2023-08-09T17:18:54Z</time>
      </trkpt>
      <trkpt lat="45.1252" lon="5.91007">
        <ele>2140.03</ele>
        <time>2023-08-09T17:19:04Z</time>
      </trkpt>
      <trkpt lat="45.12525" lon="5.91018">
        <ele>2141.47</ele>
        <time>2023-08-09T17:19:17Z</time>
      </trkpt>
      <trkpt lat="45.12526" lon="5.91025">
        <ele>2142.44</ele>
        <time>2023-08-09T17:19:24Z</time>
      </trkpt>
      <trkpt lat="45.12527" lon="5.91031">
        <ele>2142.44</ele>
        <time>2023-08-09T17:19:29Z</time>
      </trkpt>
      <trkpt lat="45.12525" lon="5.91042">
        <ele>2143.88</ele>
        <time>2023-08-09T17:19:42Z</time>
      </trkpt>
      <trkpt lat="45.12521" lon="5.91052">
        <ele>2144.84</ele>
        <time>2023-08-09T17:19:53Z</time>
      </trkpt>
      <trkpt lat="45.1252" lon="5.91055">
        <ele>2144.84</ele>
        <time>2023-08-09T17:19:57Z</time>
      </trkpt>
      <trkpt lat="45.1252" lon="5.91065">
        <ele>2147.24</ele>
        <time>2023-08-09T17:20:09Z</time>
      </trkpt>
      <trkpt lat="45.12519" lon="5.91078">
        <ele>2149.16</ele>
        <time>2023-08-09T17:20:21Z</time>
      </trkpt>
      <trkpt lat="45.12517" lon="5.91089">
        <ele>2149.65</ele>
        <time>2023-08-09T17:20:31Z</time>
      </trkpt>
      <trkpt lat="45.12515" lon="5.911">
        <ele>2150.13</ele>
        <time>2023-08-09T17:20:41Z</time>
      </trkpt>
      <trkpt lat="45.12512" lon="5.9111">
        <ele>2151.09</ele>
        <time>2023-08-09T17:20:50Z</time>
      </trkpt>
      <trkpt lat="45.1251" lon="5.91122">
        <ele>2151.09</ele>
        <time>2023-08-09T17:21:00Z</time>
      </trkpt>
      <trkpt lat="45.1251" lon="5.91124">
        <ele>2151.09</ele>
        <time>2023-08-09T17:21:02Z</time>
      </trkpt>
      <trkpt lat="45.12511" lon="5.91142">
        <ele>2152.05</ele>
        <time>2023-08-09T17:21:15Z</time>
      </trkpt>
      <trkpt lat="45.12509" lon="5.91156">
        <ele>2153.49</ele>
        <time>2023-08-09T17:21:28Z</time>
      </trkpt>
      <trkpt lat="45.12506" lon="5.91166">
        <ele>2154.93</ele>
        <time>2023-08-09T17:21:39Z</time>
      </trkpt>
      <trkpt lat="45.12503" lon="5.91176">
        <ele>2156.37</ele>
        <time>2023-08-09T17:21:51Z</time>
      </trkpt>
      <trkpt lat="45.12503" lon="5.91178">
        <ele>2156.37</ele>
        <time>2023-08-09T17:21:53Z</time>
      </trkpt>
      <trkpt lat="45.12501" lon="5.91186">
        <ele>2158.78</ele>
        <time>2023-08-09T17:22:05Z</time>
      </trkpt>
      <trkpt lat="45.12502" lon="5.9119">
        <ele>2158.3</ele>
        <time>2023-08-09T17:22:17Z</time>
      </trkpt>
      <trkpt lat="45.12502" lon="5.91191">
        <ele>2159.74</ele>
        <time>2023-08-09T17:22:21Z</time>
      </trkpt>
      <trkpt lat="45.12502" lon="5.9119">
        <ele>2157.82</ele>
        <time>2023-08-09T17:22:24Z</time>
      </trkpt>
      <trkpt lat="45.12505" lon="5.91191">
        <ele>2157.82</ele>
        <time>2023-08-09T17:22:34Z</time>
      </trkpt>
      <trkpt lat="45.12506" lon="5.91197">
        <ele>2157.82</ele>
        <time>2023-08-09T17:22:53Z</time>
      </trkpt>
      <trkpt lat="45.12508" lon="5.91203">
        <ele>2156.86</ele>
        <time>2023-08-09T17:23:02Z</time>
      </trkpt>
      <trkpt lat="45.1251" lon="5.91205">
        <ele>2155.89</ele>
        <time>2023-08-09T17:23:06Z</time>
      </trkpt>
      <trkpt lat="45.12511" lon="5.91206">
        <ele>2155.89</ele>
        <time>2023-08-09T17:23:07Z</time>
      </trkpt>
      <trkpt lat="45.12517" lon="5.91213">
        <ele>2154.45</ele>
        <time>2023-08-09T17:23:16Z</time>
      </trkpt>
      <trkpt lat="45.12518" lon="5.91215">
        <ele>2154.45</ele>
        <time>2023-08-09T17:23:18Z</time>
      </trkpt>
      <trkpt lat="45.12528" lon="5.91226">
        <ele>2151.09</ele>
        <time>2023-08-09T17:23:32Z</time>
      </trkpt>
      <trkpt lat="45.12531" lon="5.9123">
        <ele>2150.13</ele>
        <time>2023-08-09T17:23:37Z</time>
      </trkpt>
      <trkpt lat="45.1254" lon="5.91238">
        <ele>2149.65</ele>
        <time>2023-08-09T17:23:48Z</time>
      </trkpt>
      <trkpt lat="45.12543" lon="5.91245">
        <ele>2149.16</ele>
        <time>2023-08-09T17:23:54Z</time>
      </trkpt>
      <trkpt lat="45.12548" lon="5.9125">
        <ele>2148.68</ele>
        <time>2023-08-09T17:24:00Z</time>
      </trkpt>
      <trkpt lat="45.12557" lon="5.91261">
        <ele>2146.76</ele>
        <time>2023-08-09T17:24:12Z</time>
      </trkpt>
      <trkpt lat="45.12566" lon="5.91273">
        <ele>2144.84</ele>
        <time>2023-08-09T17:24:24Z</time>
      </trkpt>
      <trkpt lat="45.12567" lon="5.91276">
        <ele>2144.36</ele>
        <time>2023-08-09T17:24:26Z</time>
      </trkpt>
      <trkpt lat="45.12576" lon="5.91287">
        <ele>2143.4</ele>
        <time>2023-08-09T17:24:39Z</time>
      </trkpt>
      <trkpt lat="45.12578" lon="5.9129">
        <ele>2142.92</ele>
        <time>2023-08-09T17:24:53Z</time>
      </trkpt>
      <trkpt lat="45.1258" lon="5.91292">
        <ele>2141.95</ele>
        <time>2023-08-09T17:24:55Z</time>
      </trkpt>
      <trkpt lat="45.12586" lon="5.91309">
        <ele>2140.03</ele>
        <time>2023-08-09T17:25:08Z</time>
      </trkpt>
      <trkpt lat="45.12592" lon="5.9132">
        <ele>2138.59</ele>
        <time>2023-08-09T17:25:18Z</time>
      </trkpt>
      <trkpt lat="45.12593" lon="5.91321">
        <ele>2138.11</ele>
        <time>2023-08-09T17:25:21Z</time>
      </trkpt>
      <trkpt lat="45.12596" lon="5.91334">
        <ele>2136.19</ele>
        <time>2023-08-09T17:25:33Z</time>
      </trkpt>
      <trkpt lat="45.12598" lon="5.91348">
        <ele>2133.3</ele>
        <time>2023-08-09T17:25:46Z</time>
      </trkpt>
      <trkpt lat="45.126" lon="5.91356">
        <ele>2132.34</ele>
        <time>2023-08-09T17:25:56Z</time>
      </trkpt>
      <trkpt lat="45.12604" lon="5.91362">
        <ele>2130.9</ele>
        <time>2023-08-09T17:26:02Z</time>
      </trkpt>
      <trkpt lat="45.12609" lon="5.91375">
        <ele>2129.94</ele>
        <time>2023-08-09T17:26:13Z</time>
      </trkpt>
      <trkpt lat="45.12613" lon="5.91388">
        <ele>2127.53</ele>
        <time>2023-08-09T17:26:24Z</time>
      </trkpt>
      <trkpt lat="45.12619" lon="5.9139">
        <ele>2127.05</ele>
        <time>2023-08-09T17:26:31Z</time>
      </trkpt>
      <trkpt lat="45.12632" lon="5.91404">
        <ele>2126.57</ele>
        <time>2023-08-09T17:26:47Z</time>
      </trkpt>
      <trkpt lat="45.12634" lon="5.91407">
        <ele>2126.57</ele>
        <time>2023-08-09T17:26:50Z</time>
      </trkpt>
      <trkpt lat="45.12634" lon="5.9141">
        <ele>2126.57</ele>
        <time>2023-08-09T17:26:52Z</time>
      </trkpt>
      <trkpt lat="45.12637" lon="5.91418">
        <ele>2126.57</ele>
        <time>2023-08-09T17:26:59Z</time>
      </trkpt>
      <trkpt lat="45.1264" lon="5.91423">
        <ele>2126.57</ele>
        <time>2023-08-09T17:27:03Z</time>
      </trkpt>
      <trkpt lat="45.12642" lon="5.91425">
        <ele>2125.13</ele>
        <time>2023-08-09T17:27:06Z</time>
      </trkpt>
      <trkpt lat="45.12646" lon="5.91431">
        <ele>2124.17</ele>
        <time>2023-08-09T17:27:12Z</time>
      </trkpt>
      <trkpt lat="45.12649" lon="5.91437">
        <ele>2123.69</ele>
        <time>2023-08-09T17:27:17Z</time>
      </trkpt>
      <trkpt lat="45.12651" lon="5.91445">
        <ele>2122.73</ele>
        <time>2023-08-09T17:27:24Z</time>
      </trkpt>
      <trkpt lat="45.12652" lon="5.9145">
        <ele>2122.73</ele>
        <time>2023-08-09T17:27:27Z</time>
      </trkpt>
      <trkpt lat="45.12654" lon="5.91453">
        <ele>2122.73</ele>
        <time>2023-08-09T17:27:30Z</time>
      </trkpt>
      <trkpt lat="45.12658" lon="5.91463">
        <ele>2122.73</ele>
        <time>2023-08-09T17:27:42Z</time>
      </trkpt>
      <trkpt lat="45.12659" lon="5.91466">
        <ele>2122.73</ele>
        <time>2023-08-09T17:27:45Z</time>
      </trkpt>
      <trkpt lat="45.12663" lon="5.91474">
        <ele>2122.25</ele>
        <time>2023-08-09T17:27:51Z</time>
      </trkpt>
      <trkpt lat="45.12665" lon="5.9148">
        <ele>2122.25</ele>
        <time>2023-08-09T17:27:56Z</time>
      </trkpt>
      <trkpt lat="45.12669" lon="5.91495">
        <ele>2122.25</ele>
        <time>2023-08-09T17:28:09Z</time>
      </trkpt>
      <trkpt lat="45.12669" lon="5.91498">
        <ele>2122.25</ele>
        <time>2023-08-09T17:28:11Z</time>
      </trkpt>
      <trkpt lat="45.1267" lon="5.91506">
        <ele>2123.69</ele>
        <time>2023-08-09T17:28:18Z</time>
      </trkpt>
      <trkpt lat="45.1267" lon="5.91517">
        <ele>2124.65</ele>
        <time>2023-08-09T17:28:26Z</time>
      </trkpt>
      <trkpt lat="45.12677" lon="5.91538">
        <ele>2125.13</ele>
        <time>2023-08-09T17:28:41Z</time>
      </trkpt>
      <trkpt lat="45.12681" lon="5.91553">
        <ele>2125.13</ele>
        <time>2023-08-09T17:28:55Z</time>
      </trkpt>
      <trkpt lat="45.12681" lon="5.91555">
        <ele>2125.61</ele>
        <time>2023-08-09T17:28:57Z</time>
      </trkpt>
      <trkpt lat="45.12682" lon="5.91565">
        <ele>2126.57</ele>
        <time>2023-08-09T17:29:10Z</time>
      </trkpt>
      <trkpt lat="45.12683" lon="5.91573">
        <ele>2128.5</ele>
        <time>2023-08-09T17:29:20Z</time>
      </trkpt>
      <trkpt lat="45.12683" lon="5.91579">
        <ele>2129.46</ele>
        <time>2023-08-09T17:29:32Z</time>
      </trkpt>
      <trkpt lat="45.12687" lon="5.91585">
        <ele>2130.9</ele>
        <time>2023-08-09T17:29:42Z</time>
      </trkpt>
      <trkpt lat="45.1269" lon="5.91599">
        <ele>2130.9</ele>
        <time>2023-08-09T17:29:56Z</time>
      </trkpt>
      <trkpt lat="45.12689" lon="5.91603">
        <ele>2129.46</ele>
        <time>2023-08-09T17:29:59Z</time>
      </trkpt>
      <trkpt lat="45.12691" lon="5.91606">
        <ele>2129.46</ele>
        <time>2023-08-09T17:30:01Z</time>
      </trkpt>
      <trkpt lat="45.12693" lon="5.91615">
        <ele>2128.02</ele>
        <time>2023-08-09T17:30:12Z</time>
      </trkpt>
      <trkpt lat="45.12701" lon="5.91625">
        <ele>2126.57</ele>
        <time>2023-08-09T17:30:24Z</time>
      </trkpt>
      <trkpt lat="45.127" lon="5.91626">
        <ele>2126.09</ele>
        <time>2023-08-09T17:30:26Z</time>
      </trkpt>
      <trkpt lat="45.127" lon="5.91631">
        <ele>2124.17</ele>
        <time>2023-08-09T17:30:36Z</time>
      </trkpt>
      <trkpt lat="45.12701" lon="5.91634">
        <ele>2123.69</ele>
        <time>2023-08-09T17:30:39Z</time>
      </trkpt>
      <trkpt lat="45.12705" lon="5.91646">
        <ele>2121.29</ele>
        <time>2023-08-09T17:30:50Z</time>
      </trkpt>
      <trkpt lat="45.12708" lon="5.91657">
        <ele>2118.88</ele>
        <time>2023-08-09T17:30:59Z</time>
      </trkpt>
      <trkpt lat="45.12714" lon="5.91663">
        <ele>2118.4</ele>
        <time>2023-08-09T17:31:05Z</time>
      </trkpt>
      <trkpt lat="45.12715" lon="5.91665">
        <ele>2118.4</ele>
        <time>2023-08-09T17:31:07Z</time>
      </trkpt>
      <trkpt lat="45.12716" lon="5.91669">
        <ele>2117.92</ele>
        <time>2023-08-09T17:31:12Z</time>
      </trkpt>
      <trkpt lat="45.12716" lon="5.91672">
        <ele>2117.44</ele>
        <time>2023-08-09T17:31:14Z</time>
      </trkpt>
      <trkpt lat="45.12719" lon="5.91678">
        <ele>2117.44</ele>
        <time>2023-08-09T17:31:24Z</time>
      </trkpt>
      <trkpt lat="45.1272" lon="5.91684">
        <ele>2116.48</ele>
        <time>2023-08-09T17:31:30Z</time>
      </trkpt>
      <trkpt lat="45.1272" lon="5.91691">
        <ele>2116.48</ele>
        <time>2023-08-09T17:31:34Z</time>
      </trkpt>
      <trkpt lat="45.12724" lon="5.91707">
        <ele>2115.52</ele>
        <time>2023-08-09T17:31:47Z</time>
      </trkpt>
      <trkpt lat="45.12727" lon="5.91718">
        <ele>2116</ele>
        <time>2023-08-09T17:31:57Z</time>
      </trkpt>
      <trkpt lat="45.12728" lon="5.91722">
        <ele>2116</ele>
        <time>2023-08-09T17:32:01Z</time>
      </trkpt>
      <trkpt lat="45.12727" lon="5.91726">
        <ele>2116</ele>
        <time>2023-08-09T17:32:04Z</time>
      </trkpt>
      <trkpt lat="45.12728" lon="5.91732">
        <ele>2115.52</ele>
        <time>2023-08-09T17:32:09Z</time>
      </trkpt>
      <trkpt lat="45.1273" lon="5.91737">
        <ele>2115.04</ele>
        <time>2023-08-09T17:32:13Z</time>
      </trkpt>
      <trkpt lat="45.12735" lon="5.91743">
        <ele>2114.08</ele>
        <time>2023-08-09T17:32:20Z</time>
      </trkpt>
      <trkpt lat="45.12739" lon="5.91753">
        <ele>2114.56</ele>
        <time>2023-08-09T17:32:30Z</time>
      </trkpt>
      <trkpt lat="45.12742" lon="5.91756">
        <ele>2114.56</ele>
        <time>2023-08-09T17:32:35Z</time>
      </trkpt>
      <trkpt lat="45.12751" lon="5.91764">
        <ele>2112.15</ele>
        <time>2023-08-09T17:32:50Z</time>
      </trkpt>
      <trkpt lat="45.12753" lon="5.91768">
        <ele>2110.71</ele>
        <time>2023-08-09T17:32:55Z</time>
      </trkpt>
      <trkpt lat="45.12755" lon="5.91774">
        <ele>2110.71</ele>
        <time>2023-08-09T17:33:00Z</time>
      </trkpt>
      <trkpt lat="45.12759" lon="5.91783">
        <ele>2110.71</ele>
        <time>2023-08-09T17:33:07Z</time>
      </trkpt>
      <trkpt lat="45.12762" lon="5.91788">
        <ele>2110.71</ele>
        <time>2023-08-09T17:33:12Z</time>
      </trkpt>
      <trkpt lat="45.12763" lon="5.9179">
        <ele>2110.71</ele>
        <time>2023-08-09T17:33:14Z</time>
      </trkpt>
      <trkpt lat="45.12765" lon="5.91793">
        <ele>2110.71</ele>
        <time>2023-08-09T17:33:17Z</time>
      </trkpt>
      <trkpt lat="45.1277" lon="5.9181">
        <ele>2110.23</ele>
        <time>2023-08-09T17:33:30Z</time>
      </trkpt>
      <trkpt lat="45.12774" lon="5.91817">
        <ele>2110.23</ele>
        <time>2023-08-09T17:33:37Z</time>
      </trkpt>
      <trkpt lat="45.12778" lon="5.9182">
        <ele>2109.27</ele>
        <time>2023-08-09T17:33:42Z</time>
      </trkpt>
      <trkpt lat="45.12782" lon="5.91825">
        <ele>2108.79</ele>
        <time>2023-08-09T17:33:53Z</time>
      </trkpt>
      <trkpt lat="45.12786" lon="5.91831">
        <ele>2105.42</ele>
        <time>2023-08-09T17:34:05Z</time>
      </trkpt>
      <trkpt lat="45.12789" lon="5.91838">
        <ele>2103.5</ele>
        <time>2023-08-09T17:34:16Z</time>
      </trkpt>
      <trkpt lat="45.12787" lon="5.91839">
        <ele>2102.06</ele>
        <time>2023-08-09T17:34:29Z</time>
      </trkpt>
      <trkpt lat="45.12787" lon="5.91843">
        <ele>2101.1</ele>
        <time>2023-08-09T17:34:34Z</time>
      </trkpt>
      <trkpt lat="45.1279" lon="5.91848">
        <ele>2100.14</ele>
        <time>2023-08-09T17:34:38Z</time>
      </trkpt>
      <trkpt lat="45.12792" lon="5.9185">
        <ele>2100.14</ele>
        <time>2023-08-09T17:34:40Z</time>
      </trkpt>
      <trkpt lat="45.12795" lon="5.91855">
        <ele>2100.14</ele>
        <time>2023-08-09T17:34:47Z</time>
      </trkpt>
      <trkpt lat="45.12799" lon="5.91861">
        <ele>2100.14</ele>
        <time>2023-08-09T17:34:54Z</time>
      </trkpt>
      <trkpt lat="45.12807" lon="5.91872">
        <ele>2101.58</ele>
        <time>2023-08-09T17:35:07Z</time>
      </trkpt>
      <trkpt lat="45.12812" lon="5.91879">
        <ele>2103.5</ele>
        <time>2023-08-09T17:35:18Z</time>
      </trkpt>
      <trkpt lat="45.12812" lon="5.9188">
        <ele>2103.5</ele>
        <time>2023-08-09T17:35:19Z</time>
      </trkpt>
      <trkpt lat="45.12817" lon="5.91891">
        <ele>2103.5</ele>
        <time>2023-08-09T17:35:31Z</time>
      </trkpt>
      <trkpt lat="45.12818" lon="5.91891">
        <ele>2103.5</ele>
        <time>2023-08-09T17:35:32Z</time>
      </trkpt>
      <trkpt lat="45.12821" lon="5.91895">
        <ele>2103.5</ele>
        <time>2023-08-09T17:35:38Z</time>
      </trkpt>
      <trkpt lat="45.1282" lon="5.91898">
        <ele>2102.54</ele>
        <time>2023-08-09T17:35:40Z</time>
      </trkpt>
      <trkpt lat="45.12826" lon="5.91909">
        <ele>2101.1</ele>
        <time>2023-08-09T17:35:50Z</time>
      </trkpt>
      <trkpt lat="45.12829" lon="5.91917">
        <ele>2101.1</ele>
        <time>2023-08-09T17:35:55Z</time>
      </trkpt>
      <trkpt lat="45.1283" lon="5.9192">
        <ele>2101.1</ele>
        <time>2023-08-09T17:35:58Z</time>
      </trkpt>
      <trkpt lat="45.12834" lon="5.91929">
        <ele>2102.54</ele>
        <time>2023-08-09T17:36:05Z</time>
      </trkpt>
      <trkpt lat="45.12836" lon="5.91932">
        <ele>2102.54</ele>
        <time>2023-08-09T17:36:09Z</time>
      </trkpt>
      <trkpt lat="45.12838" lon="5.91937">
        <ele>2101.1</ele>
        <time>2023-08-09T17:36:13Z</time>
      </trkpt>
      <trkpt lat="45.12842" lon="5.91944">
        <ele>2101.1</ele>
        <time>2023-08-09T17:36:20Z</time>
      </trkpt>
      <trkpt lat="45.12848" lon="5.91953">
        <ele>2102.06</ele>
        <time>2023-08-09T17:36:30Z</time>
      </trkpt>
      <trkpt lat="45.12852" lon="5.91957">
        <ele>2102.06</ele>
        <time>2023-08-09T17:36:35Z</time>
      </trkpt>
      <trkpt lat="45.12853" lon="5.9196">
        <ele>2100.14</ele>
        <time>2023-08-09T17:36:37Z</time>
      </trkpt>
      <trkpt lat="45.12855" lon="5.91961">
        <ele>2100.14</ele>
        <time>2023-08-09T17:36:39Z</time>
      </trkpt>
      <trkpt lat="45.12859" lon="5.91965">
        <ele>2099.66</ele>
        <time>2023-08-09T17:36:44Z</time>
      </trkpt>
      <trkpt lat="45.1286" lon="5.91967">
        <ele>2099.66</ele>
        <time>2023-08-09T17:36:46Z</time>
      </trkpt>
      <trkpt lat="45.12862" lon="5.91968">
        <ele>2099.18</ele>
        <time>2023-08-09T17:36:48Z</time>
      </trkpt>
      <trkpt lat="45.12864" lon="5.91967">
        <ele>2099.18</ele>
        <time>2023-08-09T17:36:50Z</time>
      </trkpt>
      <trkpt lat="45.12868" lon="5.91969">
        <ele>2097.73</ele>
        <time>2023-08-09T17:37:00Z</time>
      </trkpt>
      <trkpt lat="45.12871" lon="5.91968">
        <ele>2096.29</ele>
        <time>2023-08-09T17:37:15Z</time>
      </trkpt>
      <trkpt lat="45.12872" lon="5.91969">
        <ele>2095.33</ele>
        <time>2023-08-09T17:37:19Z</time>
      </trkpt>
      <trkpt lat="45.12871" lon="5.91967">
        <ele>2095.81</ele>
        <time>2023-08-09T17:37:30Z</time>
      </trkpt>
      <trkpt lat="45.12872" lon="5.91971">
        <ele>2095.81</ele>
        <time>2023-08-09T17:37:59Z</time>
      </trkpt>
      <trkpt lat="45.12873" lon="5.91966">
        <ele>2095.81</ele>
        <time>2023-08-09T17:38:27Z</time>
      </trkpt>
      <trkpt lat="45.12871" lon="5.91966">
        <ele>2095.81</ele>
        <time>2023-08-09T17:38:57Z</time>
      </trkpt>
      <trkpt lat="45.12872" lon="5.91969">
        <ele>2094.37</ele>
        <time>2023-08-09T17:39:17Z</time>
      </trkpt>
      <trkpt lat="45.12873" lon="5.91969">
        <ele>2096.29</ele>
        <time>2023-08-09T17:39:31Z</time>
      </trkpt>
      <trkpt lat="45.12872" lon="5.91968">
        <ele>2096.29</ele>
        <time>2023-08-09T17:39:41Z</time>
      </trkpt>
      <trkpt lat="45.12877" lon="5.91962">
        <ele>2092.93</ele>
        <time>2023-08-09T17:39:53Z</time>
      </trkpt>
      <trkpt lat="45.12878" lon="5.91959">
        <ele>2091.97</ele>
        <time>2023-08-09T17:39:55Z</time>
      </trkpt>
      <trkpt lat="45.12878" lon="5.91958">
        <ele>2094.37</ele>
        <time>2023-08-09T17:39:57Z</time>
      </trkpt>
      <trkpt lat="45.12879" lon="5.91957">
        <ele>2094.37</ele>
        <time>2023-08-09T17:39:58Z</time>
      </trkpt>
      <trkpt lat="45.12879" lon="5.91956">
        <ele>2092.93</ele>
        <time>2023-08-09T17:40:00Z</time>
      </trkpt>
      <trkpt lat="45.12881" lon="5.91954">
        <ele>2091.97</ele>
        <time>2023-08-09T17:40:02Z</time>
      </trkpt>
      <trkpt lat="45.12881" lon="5.91953">
        <ele>2091.97</ele>
        <time>2023-08-09T17:40:03Z</time>
      </trkpt>
      <trkpt lat="45.12878" lon="5.9195">
        <ele>2091</ele>
        <time>2023-08-09T17:40:08Z</time>
      </trkpt>
      <trkpt lat="45.12879" lon="5.91944">
        <ele>2088.6</ele>
        <time>2023-08-09T17:40:19Z</time>
      </trkpt>
      <trkpt lat="45.12879" lon="5.91943">
        <ele>2088.12</ele>
        <time>2023-08-09T17:40:24Z</time>
      </trkpt>
      <trkpt lat="45.12879" lon="5.9194">
        <ele>2087.16</ele>
        <time>2023-08-09T17:40:28Z</time>
      </trkpt>
      <trkpt lat="45.1288" lon="5.91937">
        <ele>2084.76</ele>
        <time>2023-08-09T17:40:35Z</time>
      </trkpt>
      <trkpt lat="45.12885" lon="5.91935">
        <ele>2084.28</ele>
        <time>2023-08-09T17:40:42Z</time>
      </trkpt>
      <trkpt lat="45.12892" lon="5.91941">
        <ele>2082.35</ele>
        <time>2023-08-09T17:40:53Z</time>
      </trkpt>
      <trkpt lat="45.12894" lon="5.91942">
        <ele>2080.91</ele>
        <time>2023-08-09T17:41:01Z</time>
      </trkpt>
      <trkpt lat="45.12898" lon="5.91943">
        <ele>2079.47</ele>
        <time>2023-08-09T17:41:12Z</time>
      </trkpt>
      <trkpt lat="45.129" lon="5.91945">
        <ele>2078.99</ele>
        <time>2023-08-09T17:41:23Z</time>
      </trkpt>
      <trkpt lat="45.129" lon="5.91944">
        <ele>2078.03</ele>
        <time>2023-08-09T17:41:25Z</time>
      </trkpt>
      <trkpt lat="45.12899" lon="5.91941">
        <ele>2077.07</ele>
        <time>2023-08-09T17:41:35Z</time>
      </trkpt>
      <trkpt lat="45.12901" lon="5.91941">
        <ele>2074.66</ele>
        <time>2023-08-09T17:41:46Z</time>
      </trkpt>
      <trkpt lat="45.129" lon="5.91939">
        <ele>2074.18</ele>
        <time>2023-08-09T17:41:59Z</time>
      </trkpt>
      <trkpt lat="45.12902" lon="5.91934">
        <ele>2071.78</ele>
        <time>2023-08-09T17:42:11Z</time>
      </trkpt>
      <trkpt lat="45.12902" lon="5.91933">
        <ele>2071.3</ele>
        <time>2023-08-09T17:42:24Z</time>
      </trkpt>
      <trkpt lat="45.12906" lon="5.91934">
        <ele>2069.38</ele>
        <time>2023-08-09T17:42:36Z</time>
      </trkpt>
      <trkpt lat="45.12908" lon="5.91934">
        <ele>2068.41</ele>
        <time>2023-08-09T17:42:43Z</time>
      </trkpt>
      <trkpt lat="45.12907" lon="5.91925">
        <ele>2066.01</ele>
        <time>2023-08-09T17:42:53Z</time>
      </trkpt>
      <trkpt lat="45.12908" lon="5.9192">
        <ele>2063.61</ele>
        <time>2023-08-09T17:43:03Z</time>
      </trkpt>
      <trkpt lat="45.12908" lon="5.91913">
        <ele>2062.17</ele>
        <time>2023-08-09T17:43:13Z</time>
      </trkpt>
      <trkpt lat="45.1291" lon="5.91907">
        <ele>2059.28</ele>
        <time>2023-08-09T17:43:23Z</time>
      </trkpt>
      <trkpt lat="45.12912" lon="5.91904">
        <ele>2057.36</ele>
        <time>2023-08-09T17:43:33Z</time>
      </trkpt>
      <trkpt lat="45.12913" lon="5.91901">
        <ele>2056.4</ele>
        <time>2023-08-09T17:43:46Z</time>
      </trkpt>
      <trkpt lat="45.12915" lon="5.91896">
        <ele>2055.44</ele>
        <time>2023-08-09T17:43:52Z</time>
      </trkpt>
      <trkpt lat="45.12915" lon="5.91892">
        <ele>2054.47</ele>
        <time>2023-08-09T17:43:54Z</time>
      </trkpt>
      <trkpt lat="45.12916" lon="5.91885">
        <ele>2053.03</ele>
        <time>2023-08-09T17:44:04Z</time>
      </trkpt>
      <trkpt lat="45.12914" lon="5.91882">
        <ele>2052.07</ele>
        <time>2023-08-09T17:44:06Z</time>
      </trkpt>
      <trkpt lat="45.12915" lon="5.9187">
        <ele>2049.67</ele>
        <time>2023-08-09T17:44:19Z</time>
      </trkpt>
      <trkpt lat="45.12916" lon="5.91869">
        <ele>2049.19</ele>
        <time>2023-08-09T17:44:24Z</time>
      </trkpt>
      <trkpt lat="45.12918" lon="5.91865">
        <ele>2048.23</ele>
        <time>2023-08-09T17:44:28Z</time>
      </trkpt>
      <trkpt lat="45.12921" lon="5.91856">
        <ele>2046.3</ele>
        <time>2023-08-09T17:44:38Z</time>
      </trkpt>
      <trkpt lat="45.12921" lon="5.91854">
        <ele>2046.3</ele>
        <time>2023-08-09T17:44:40Z</time>
      </trkpt>
      <trkpt lat="45.12921" lon="5.91851">
        <ele>2044.86</ele>
        <time>2023-08-09T17:44:42Z</time>
      </trkpt>
      <trkpt lat="45.1292" lon="5.91847">
        <ele>2044.38</ele>
        <time>2023-08-09T17:44:45Z</time>
      </trkpt>
      <trkpt lat="45.12921" lon="5.91841">
        <ele>2043.42</ele>
        <time>2023-08-09T17:44:52Z</time>
      </trkpt>
      <trkpt lat="45.12921" lon="5.91835">
        <ele>2042.94</ele>
        <time>2023-08-09T17:44:58Z</time>
      </trkpt>
      <trkpt lat="45.12922" lon="5.91822">
        <ele>2040.54</ele>
        <time>2023-08-09T17:45:09Z</time>
      </trkpt>
      <trkpt lat="45.12925" lon="5.91814">
        <ele>2039.57</ele>
        <time>2023-08-09T17:45:19Z</time>
      </trkpt>
      <trkpt lat="45.12927" lon="5.9181">
        <ele>2037.17</ele>
        <time>2023-08-09T17:45:29Z</time>
      </trkpt>
      <trkpt lat="45.12928" lon="5.91809">
        <ele>2037.17</ele>
        <time>2023-08-09T17:45:30Z</time>
      </trkpt>
      <trkpt lat="45.12932" lon="5.91805">
        <ele>2034.77</ele>
        <time>2023-08-09T17:45:38Z</time>
      </trkpt>
      <trkpt lat="45.12934" lon="5.918">
        <ele>2032.84</ele>
        <time>2023-08-09T17:45:48Z</time>
      </trkpt>
      <trkpt lat="45.12932" lon="5.91799">
        <ele>2032.84</ele>
        <time>2023-08-09T17:46:00Z</time>
      </trkpt>
      <trkpt lat="45.12938" lon="5.91791">
        <ele>2030.92</ele>
        <time>2023-08-09T17:46:11Z</time>
      </trkpt>
      <trkpt lat="45.12942" lon="5.91784">
        <ele>2028.52</ele>
        <time>2023-08-09T17:46:22Z</time>
      </trkpt>
      <trkpt lat="45.12942" lon="5.91783">
        <ele>2028.52</ele>
        <time>2023-08-09T17:46:25Z</time>
      </trkpt>
      <trkpt lat="45.12947" lon="5.91774">
        <ele>2026.6</ele>
        <time>2023-08-09T17:46:35Z</time>
      </trkpt>
      <trkpt lat="45.12949" lon="5.91772">
        <ele>2026.12</ele>
        <time>2023-08-09T17:46:37Z</time>
      </trkpt>
      <trkpt lat="45.12953" lon="5.91761">
        <ele>2024.67</ele>
        <time>2023-08-09T17:46:49Z</time>
      </trkpt>
      <trkpt lat="45.12953" lon="5.9176">
        <ele>2024.67</ele>
        <time>2023-08-09T17:47:16Z</time>
      </trkpt>
      <trkpt lat="45.12955" lon="5.91758">
        <ele>2024.19</ele>
        <time>2023-08-09T17:47:20Z</time>
      </trkpt>
      <trkpt lat="45.12958" lon="5.91753">
        <ele>2022.27</ele>
        <time>2023-08-09T17:47:26Z</time>
      </trkpt>
      <trkpt lat="45.12964" lon="5.91749">
        <ele>2020.35</ele>
        <time>2023-08-09T17:47:31Z</time>
      </trkpt>
      <trkpt lat="45.12966" lon="5.91743">
        <ele>2019.87</ele>
        <time>2023-08-09T17:47:37Z</time>
      </trkpt>
      <trkpt lat="45.1297" lon="5.9174">
        <ele>2018.43</ele>
        <time>2023-08-09T17:47:40Z</time>
      </trkpt>
      <trkpt lat="45.12972" lon="5.91738">
        <ele>2017.46</ele>
        <time>2023-08-09T17:47:42Z</time>
      </trkpt>
      <trkpt lat="45.12974" lon="5.91734">
        <ele>2016.98</ele>
        <time>2023-08-09T17:47:45Z</time>
      </trkpt>
      <trkpt lat="45.12979" lon="5.91727">
        <ele>2015.06</ele>
        <time>2023-08-09T17:47:53Z</time>
      </trkpt>
      <trkpt lat="45.12982" lon="5.91725">
        <ele>2013.62</ele>
        <time>2023-08-09T17:47:56Z</time>
      </trkpt>
      <trkpt lat="45.12983" lon="5.91722">
        <ele>2013.62</ele>
        <time>2023-08-09T17:47:58Z</time>
      </trkpt>
      <trkpt lat="45.12989" lon="5.91717">
        <ele>2012.66</ele>
        <time>2023-08-09T17:48:06Z</time>
      </trkpt>
      <trkpt lat="45.1299" lon="5.91714">
        <ele>2012.18</ele>
        <time>2023-08-09T17:48:08Z</time>
      </trkpt>
      <trkpt lat="45.13001" lon="5.91703">
        <ele>2009.29</ele>
        <time>2023-08-09T17:48:22Z</time>
      </trkpt>
      <trkpt lat="45.13003" lon="5.91702">
        <ele>2009.29</ele>
        <time>2023-08-09T17:48:24Z</time>
      </trkpt>
      <trkpt lat="45.13005" lon="5.91698">
        <ele>2008.33</ele>
        <time>2023-08-09T17:48:28Z</time>
      </trkpt>
      <trkpt lat="45.13011" lon="5.91686">
        <ele>2007.37</ele>
        <time>2023-08-09T17:48:37Z</time>
      </trkpt>
      <trkpt lat="45.13017" lon="5.91682">
        <ele>2006.41</ele>
        <time>2023-08-09T17:48:43Z</time>
      </trkpt>
      <trkpt lat="45.13024" lon="5.91674">
        <ele>2005.93</ele>
        <time>2023-08-09T17:48:51Z</time>
      </trkpt>
      <trkpt lat="45.13027" lon="5.91669">
        <ele>2004.97</ele>
        <time>2023-08-09T17:48:56Z</time>
      </trkpt>
      <trkpt lat="45.1303" lon="5.91667">
        <ele>2004.49</ele>
        <time>2023-08-09T17:48:59Z</time>
      </trkpt>
      <trkpt lat="45.13031" lon="5.91665">
        <ele>2004.49</ele>
        <time>2023-08-09T17:49:01Z</time>
      </trkpt>
      <trkpt lat="45.13036" lon="5.91661">
        <ele>2003.52</ele>
        <time>2023-08-09T17:49:07Z</time>
      </trkpt>
      <trkpt lat="45.13047" lon="5.91662">
        <ele>2001.12</ele>
        <time>2023-08-09T17:49:18Z</time>
      </trkpt>
      <trkpt lat="45.13051" lon="5.9166">
        <ele>2000.64</ele>
        <time>2023-08-09T17:49:22Z</time>
      </trkpt>
      <trkpt lat="45.13057" lon="5.91663">
        <ele>1999.68</ele>
        <time>2023-08-09T17:49:28Z</time>
      </trkpt>
      <trkpt lat="45.13062" lon="5.91671">
        <ele>1999.2</ele>
        <time>2023-08-09T17:49:36Z</time>
      </trkpt>
      <trkpt lat="45.13062" lon="5.91676">
        <ele>1999.2</ele>
        <time>2023-08-09T17:49:42Z</time>
      </trkpt>
      <trkpt lat="45.13067" lon="5.91682">
        <ele>1998.72</ele>
        <time>2023-08-09T17:49:51Z</time>
      </trkpt>
      <trkpt lat="45.13069" lon="5.91685">
        <ele>1998.72</ele>
        <time>2023-08-09T17:49:53Z</time>
      </trkpt>
      <trkpt lat="45.13071" lon="5.91687">
        <ele>1998.24</ele>
        <time>2023-08-09T17:49:55Z</time>
      </trkpt>
      <trkpt lat="45.13074" lon="5.91695">
        <ele>1997.76</ele>
        <time>2023-08-09T17:50:02Z</time>
      </trkpt>
      <trkpt lat="45.13076" lon="5.91696">
        <ele>1997.76</ele>
        <time>2023-08-09T17:50:04Z</time>
      </trkpt>
      <trkpt lat="45.13082" lon="5.91701">
        <ele>1996.8</ele>
        <time>2023-08-09T17:50:12Z</time>
      </trkpt>
      <trkpt lat="45.13083" lon="5.91704">
        <ele>1996.32</ele>
        <time>2023-08-09T17:50:15Z</time>
      </trkpt>
      <trkpt lat="45.13087" lon="5.9171">
        <ele>1995.35</ele>
        <time>2023-08-09T17:50:20Z</time>
      </trkpt>
      <trkpt lat="45.13094" lon="5.91716">
        <ele>1995.35</ele>
        <time>2023-08-09T17:50:31Z</time>
      </trkpt>
      <trkpt lat="45.13098" lon="5.91721">
        <ele>1995.35</ele>
        <time>2023-08-09T17:50:37Z</time>
      </trkpt>
      <trkpt lat="45.13101" lon="5.91723">
        <ele>1995.35</ele>
        <time>2023-08-09T17:50:40Z</time>
      </trkpt>
      <trkpt lat="45.13105" lon="5.91727">
        <ele>1995.35</ele>
        <time>2023-08-09T17:50:52Z</time>
      </trkpt>
      <trkpt lat="45.13106" lon="5.91727">
        <ele>1994.87</ele>
        <time>2023-08-09T17:51:07Z</time>
      </trkpt>
      <trkpt lat="45.13108" lon="5.91731">
        <ele>1994.87</ele>
        <time>2023-08-09T17:51:09Z</time>
      </trkpt>
      <trkpt lat="45.13114" lon="5.91734">
        <ele>1994.87</ele>
        <time>2023-08-09T17:51:19Z</time>
      </trkpt>
      <trkpt lat="45.13117" lon="5.91733">
        <ele>1994.87</ele>
        <time>2023-08-09T17:51:22Z</time>
      </trkpt>
      <trkpt lat="45.13119" lon="5.91732">
        <ele>1994.87</ele>
        <time>2023-08-09T17:51:25Z</time>
      </trkpt>
      <trkpt lat="45.13121" lon="5.91732">
        <ele>1994.87</ele>
        <time>2023-08-09T17:51:27Z</time>
      </trkpt>
      <trkpt lat="45.13125" lon="5.91731">
        <ele>1994.87</ele>
        <time>2023-08-09T17:51:31Z</time>
      </trkpt>
      <trkpt lat="45.13129" lon="5.91729">
        <ele>1994.87</ele>
        <time>2023-08-09T17:51:36Z</time>
      </trkpt>
      <trkpt lat="45.13136" lon="5.91722">
        <ele>1994.87</ele>
        <time>2023-08-09T17:51:47Z</time>
      </trkpt>
      <trkpt lat="45.13138" lon="5.91719">
        <ele>1994.87</ele>
        <time>2023-08-09T17:51:51Z</time>
      </trkpt>
      <trkpt lat="45.13142" lon="5.91719">
        <ele>1994.87</ele>
        <time>2023-08-09T17:51:55Z</time>
      </trkpt>
      <trkpt lat="45.13144" lon="5.91719">
        <ele>1996.32</ele>
        <time>2023-08-09T17:51:57Z</time>
      </trkpt>
      <trkpt lat="45.13147" lon="5.91719">
        <ele>1996.8</ele>
        <time>2023-08-09T17:52:00Z</time>
      </trkpt>
      <trkpt lat="45.13149" lon="5.91719">
        <ele>1996.8</ele>
        <time>2023-08-09T17:52:02Z</time>
      </trkpt>
      <trkpt lat="45.13151" lon="5.91718">
        <ele>1996.8</ele>
        <time>2023-08-09T17:52:05Z</time>
      </trkpt>
      <trkpt lat="45.13157" lon="5.91718">
        <ele>1996.32</ele>
        <time>2023-08-09T17:52:10Z</time>
      </trkpt>
      <trkpt lat="45.13161" lon="5.91719">
        <ele>1996.32</ele>
        <time>2023-08-09T17:52:16Z</time>
      </trkpt>
      <trkpt lat="45.13163" lon="5.9172">
        <ele>1996.32</ele>
        <time>2023-08-09T17:52:18Z</time>
      </trkpt>
      <trkpt lat="45.13169" lon="5.91724">
        <ele>1996.32</ele>
        <time>2023-08-09T17:52:26Z</time>
      </trkpt>
      <trkpt lat="45.13171" lon="5.91725">
        <ele>1996.32</ele>
        <time>2023-08-09T17:52:28Z</time>
      </trkpt>
      <trkpt lat="45.13177" lon="5.91731">
        <ele>1996.32</ele>
        <time>2023-08-09T17:52:35Z</time>
      </trkpt>
      <trkpt lat="45.13179" lon="5.9173">
        <ele>1996.32</ele>
        <time>2023-08-09T17:52:37Z</time>
      </trkpt>
      <trkpt lat="45.13184" lon="5.91732">
        <ele>1996.32</ele>
        <time>2023-08-09T17:52:42Z</time>
      </trkpt>
      <trkpt lat="45.13191" lon="5.91736">
        <ele>1996.32</ele>
        <time>2023-08-09T17:52:52Z</time>
      </trkpt>
      <trkpt lat="45.13194" lon="5.91734">
        <ele>1994.87</ele>
        <time>2023-08-09T17:52:55Z</time>
      </trkpt>
      <trkpt lat="45.13202" lon="5.91724">
        <ele>1994.87</ele>
        <time>2023-08-09T17:53:07Z</time>
      </trkpt>
      <trkpt lat="45.13203" lon="5.91721">
        <ele>1996.32</ele>
        <time>2023-08-09T17:53:10Z</time>
      </trkpt>
      <trkpt lat="45.13207" lon="5.91716">
        <ele>1998.24</ele>
        <time>2023-08-09T17:53:22Z</time>
      </trkpt>
      <trkpt lat="45.13215" lon="5.9172">
        <ele>1999.2</ele>
        <time>2023-08-09T17:53:34Z</time>
      </trkpt>
      <trkpt lat="45.13217" lon="5.91721">
        <ele>1999.2</ele>
        <time>2023-08-09T17:53:36Z</time>
      </trkpt>
      <trkpt lat="45.1322" lon="5.91725">
        <ele>1999.2</ele>
        <time>2023-08-09T17:53:41Z</time>
      </trkpt>
      <trkpt lat="45.13222" lon="5.91728">
        <ele>1999.2</ele>
        <time>2023-08-09T17:53:45Z</time>
      </trkpt>
      <trkpt lat="45.13224" lon="5.91729">
        <ele>1999.2</ele>
        <time>2023-08-09T17:53:48Z</time>
      </trkpt>
      <trkpt lat="45.13236" lon="5.91732">
        <ele>1999.68</ele>
        <time>2023-08-09T17:54:01Z</time>
      </trkpt>
      <trkpt lat="45.13238" lon="5.9173">
        <ele>1999.68</ele>
        <time>2023-08-09T17:54:04Z</time>
      </trkpt>
      <trkpt lat="45.13239" lon="5.91728">
        <ele>1999.68</ele>
        <time>2023-08-09T17:54:07Z</time>
      </trkpt>
      <trkpt lat="45.13249" lon="5.91725">
        <ele>1999.68</ele>
        <time>2023-08-09T17:54:18Z</time>
      </trkpt>
      <trkpt lat="45.13254" lon="5.91726">
        <ele>1999.2</ele>
        <time>2023-08-09T17:54:23Z</time>
      </trkpt>
      <trkpt lat="45.13255" lon="5.91727">
        <ele>1999.2</ele>
        <time>2023-08-09T17:54:25Z</time>
      </trkpt>
      <trkpt lat="45.13259" lon="5.91728">
        <ele>1999.2</ele>
        <time>2023-08-09T17:54:29Z</time>
      </trkpt>
      <trkpt lat="45.1326" lon="5.91728">
        <ele>1999.2</ele>
        <time>2023-08-09T17:54:31Z</time>
      </trkpt>
      <trkpt lat="45.1327" lon="5.91729">
        <ele>2000.16</ele>
        <time>2023-08-09T17:54:44Z</time>
      </trkpt>
      <trkpt lat="45.13275" lon="5.91733">
        <ele>2000.16</ele>
        <time>2023-08-09T17:54:53Z</time>
      </trkpt>
      <trkpt lat="45.13279" lon="5.91736">
        <ele>2000.64</ele>
        <time>2023-08-09T17:54:59Z</time>
      </trkpt>
      <trkpt lat="45.13281" lon="5.91739">
        <ele>2001.12</ele>
        <time>2023-08-09T17:55:02Z</time>
      </trkpt>
      <trkpt lat="45.13288" lon="5.91744">
        <ele>2002.08</ele>
        <time>2023-08-09T17:55:15Z</time>
      </trkpt>
      <trkpt lat="45.13292" lon="5.91746">
        <ele>2003.52</ele>
        <time>2023-08-09T17:55:26Z</time>
      </trkpt>
      <trkpt lat="45.13296" lon="5.91749">
        <ele>2004.97</ele>
        <time>2023-08-09T17:55:38Z</time>
      </trkpt>
      <trkpt lat="45.13301" lon="5.91752">
        <ele>2005.93</ele>
        <time>2023-08-09T17:55:48Z</time>
      </trkpt>
      <trkpt lat="45.13308" lon="5.91756">
        <ele>2006.89</ele>
        <time>2023-08-09T17:56:00Z</time>
      </trkpt>
      <trkpt lat="45.13313" lon="5.91757">
        <ele>2007.37</ele>
        <time>2023-08-09T17:56:08Z</time>
      </trkpt>
      <trkpt lat="45.13322" lon="5.91758">
        <ele>2008.81</ele>
        <time>2023-08-09T17:56:21Z</time>
      </trkpt>
      <trkpt lat="45.13324" lon="5.91761">
        <ele>2009.29</ele>
        <time>2023-08-09T17:56:28Z</time>
      </trkpt>
      <trkpt lat="45.13325" lon="5.91763">
        <ele>2009.29</ele>
        <time>2023-08-09T17:56:31Z</time>
      </trkpt>
      <trkpt lat="45.13335" lon="5.91774">
        <ele>2009.77</ele>
        <time>2023-08-09T17:56:44Z</time>
      </trkpt>
      <trkpt lat="45.1334" lon="5.91775">
        <ele>2010.73</ele>
        <time>2023-08-09T17:56:54Z</time>
      </trkpt>
      <trkpt lat="45.13341" lon="5.91776">
        <ele>2010.73</ele>
        <time>2023-08-09T17:56:57Z</time>
      </trkpt>
      <trkpt lat="45.13347" lon="5.91785">
        <ele>2008.81</ele>
        <time>2023-08-09T17:57:08Z</time>
      </trkpt>
      <trkpt lat="45.13355" lon="5.91788">
        <ele>2008.81</ele>
        <time>2023-08-09T17:57:20Z</time>
      </trkpt>
      <trkpt lat="45.13362" lon="5.91794">
        <ele>2008.81</ele>
        <time>2023-08-09T17:57:30Z</time>
      </trkpt>
      <trkpt lat="45.13371" lon="5.91795">
        <ele>2008.33</ele>
        <time>2023-08-09T17:57:40Z</time>
      </trkpt>
      <trkpt lat="45.13374" lon="5.918">
        <ele>2006.41</ele>
        <time>2023-08-09T17:57:47Z</time>
      </trkpt>
      <trkpt lat="45.13378" lon="5.91802">
        <ele>2005.45</ele>
        <time>2023-08-09T17:57:51Z</time>
      </trkpt>
      <trkpt lat="45.13381" lon="5.91804">
        <ele>2004.97</ele>
        <time>2023-08-09T17:57:55Z</time>
      </trkpt>
      <trkpt lat="45.13389" lon="5.91805">
        <ele>2004.01</ele>
        <time>2023-08-09T17:58:04Z</time>
      </trkpt>
      <trkpt lat="45.13393" lon="5.91809">
        <ele>2004.01</ele>
        <time>2023-08-09T17:58:09Z</time>
      </trkpt>
      <trkpt lat="45.13394" lon="5.91816">
        <ele>2002.56</ele>
        <time>2023-08-09T17:58:16Z</time>
      </trkpt>
      <trkpt lat="45.13395" lon="5.91819">
        <ele>2002.56</ele>
        <time>2023-08-09T17:58:18Z</time>
      </trkpt>
      <trkpt lat="45.13397" lon="5.91826">
        <ele>2002.08</ele>
        <time>2023-08-09T17:58:24Z</time>
      </trkpt>
      <trkpt lat="45.13398" lon="5.9183">
        <ele>2002.08</ele>
        <time>2023-08-09T17:58:27Z</time>
      </trkpt>
      <trkpt lat="45.13401" lon="5.91847">
        <ele>2002.56</ele>
        <time>2023-08-09T17:58:40Z</time>
      </trkpt>
      <trkpt lat="45.13404" lon="5.91852">
        <ele>2002.56</ele>
        <time>2023-08-09T17:58:44Z</time>
      </trkpt>
      <trkpt lat="45.13406" lon="5.91857">
        <ele>2002.56</ele>
        <time>2023-08-09T17:58:49Z</time>
      </trkpt>
      <trkpt lat="45.13408" lon="5.91862">
        <ele>2002.56</ele>
        <time>2023-08-09T17:58:53Z</time>
      </trkpt>
      <trkpt lat="45.13409" lon="5.91865">
        <ele>2002.56</ele>
        <time>2023-08-09T17:58:55Z</time>
      </trkpt>
      <trkpt lat="45.13413" lon="5.9187">
        <ele>2002.56</ele>
        <time>2023-08-09T17:59:01Z</time>
      </trkpt>
      <trkpt lat="45.13415" lon="5.91873">
        <ele>2003.52</ele>
        <time>2023-08-09T17:59:03Z</time>
      </trkpt>
      <trkpt lat="45.13424" lon="5.91884">
        <ele>2004.01</ele>
        <time>2023-08-09T17:59:15Z</time>
      </trkpt>
      <trkpt lat="45.1343" lon="5.91893">
        <ele>2004.97</ele>
        <time>2023-08-09T17:59:27Z</time>
      </trkpt>
      <trkpt lat="45.1343" lon="5.91893">
        <ele>2004.97</ele>
        <time>2023-08-09T17:59:28Z</time>
      </trkpt>
      <trkpt lat="45.13432" lon="5.91895">
        <ele>2004.97</ele>
        <time>2023-08-09T17:59:30Z</time>
      </trkpt>
      <trkpt lat="45.13436" lon="5.91904">
        <ele>2005.93</ele>
        <time>2023-08-09T17:59:43Z</time>
      </trkpt>
      <trkpt lat="45.13437" lon="5.91911">
        <ele>2007.37</ele>
        <time>2023-08-09T17:59:52Z</time>
      </trkpt>
      <trkpt lat="45.13444" lon="5.91918">
        <ele>2007.85</ele>
        <time>2023-08-09T18:00:02Z</time>
      </trkpt>
      <trkpt lat="45.13445" lon="5.91917">
        <ele>2007.85</ele>
        <time>2023-08-09T18:00:03Z</time>
      </trkpt>
      <trkpt lat="45.13447" lon="5.91916">
        <ele>2007.85</ele>
        <time>2023-08-09T18:00:07Z</time>
      </trkpt>
      <trkpt lat="45.1345" lon="5.91924">
        <ele>2006.89</ele>
        <time>2023-08-09T18:00:13Z</time>
      </trkpt>
      <trkpt lat="45.13453" lon="5.91928">
        <ele>2005.93</ele>
        <time>2023-08-09T18:00:18Z</time>
      </trkpt>
      <trkpt lat="45.13467" lon="5.91933">
        <ele>2005.45</ele>
        <time>2023-08-09T18:00:32Z</time>
      </trkpt>
      <trkpt lat="45.13474" lon="5.91939">
        <ele>2005.45</ele>
        <time>2023-08-09T18:00:41Z</time>
      </trkpt>
      <trkpt lat="45.13476" lon="5.91941">
        <ele>2005.45</ele>
        <time>2023-08-09T18:00:43Z</time>
      </trkpt>
      <trkpt lat="45.13485" lon="5.91948">
        <ele>2006.89</ele>
        <time>2023-08-09T18:00:54Z</time>
      </trkpt>
      <trkpt lat="45.13485" lon="5.91948">
        <ele>2006.89</ele>
        <time>2023-08-09T18:00:55Z</time>
      </trkpt>
      <trkpt lat="45.13491" lon="5.91954">
        <ele>2006.89</ele>
        <time>2023-08-09T18:01:06Z</time>
      </trkpt>
      <trkpt lat="45.13493" lon="5.91956">
        <ele>2005.45</ele>
        <time>2023-08-09T18:01:10Z</time>
      </trkpt>
      <trkpt lat="45.13498" lon="5.91959">
        <ele>2004.49</ele>
        <time>2023-08-09T18:01:19Z</time>
      </trkpt>
      <trkpt lat="45.135" lon="5.91962">
        <ele>2003.52</ele>
        <time>2023-08-09T18:01:28Z</time>
      </trkpt>
      <trkpt lat="45.13505" lon="5.91962">
        <ele>2002.56</ele>
        <time>2023-08-09T18:01:36Z</time>
      </trkpt>
      <trkpt lat="45.1351" lon="5.91962">
        <ele>2001.12</ele>
        <time>2023-08-09T18:01:45Z</time>
      </trkpt>
      <trkpt lat="45.13515" lon="5.91967">
        <ele>1999.68</ele>
        <time>2023-08-09T18:01:56Z</time>
      </trkpt>
      <trkpt lat="45.13517" lon="5.91973">
        <ele>1997.76</ele>
        <time>2023-08-09T18:02:06Z</time>
      </trkpt>
      <trkpt lat="45.13518" lon="5.91976">
        <ele>1997.28</ele>
        <time>2023-08-09T18:02:10Z</time>
      </trkpt>
      <trkpt lat="45.1352" lon="5.91979">
        <ele>1996.8</ele>
        <time>2023-08-09T18:02:13Z</time>
      </trkpt>
      <trkpt lat="45.13531" lon="5.91987">
        <ele>1996.32</ele>
        <time>2023-08-09T18:02:25Z</time>
      </trkpt>
      <trkpt lat="45.13532" lon="5.91989">
        <ele>1996.32</ele>
        <time>2023-08-09T18:02:28Z</time>
      </trkpt>
      <trkpt lat="45.13536" lon="5.9199">
        <ele>1995.35</ele>
        <time>2023-08-09T18:02:33Z</time>
      </trkpt>
      <trkpt lat="45.13537" lon="5.91991">
        <ele>1993.91</ele>
        <time>2023-08-09T18:02:36Z</time>
      </trkpt>
      <trkpt lat="45.1354" lon="5.91997">
        <ele>1991.99</ele>
        <time>2023-08-09T18:02:48Z</time>
      </trkpt>
      <trkpt lat="45.13543" lon="5.92003">
        <ele>1991.03</ele>
        <time>2023-08-09T18:02:59Z</time>
      </trkpt>
      <trkpt lat="45.13549" lon="5.92002">
        <ele>1989.1</ele>
        <time>2023-08-09T18:03:09Z</time>
      </trkpt>
      <trkpt lat="45.13551" lon="5.92">
        <ele>1988.14</ele>
        <time>2023-08-09T18:03:14Z</time>
      </trkpt>
      <trkpt lat="45.13556" lon="5.92002">
        <ele>1986.22</ele>
        <time>2023-08-09T18:03:24Z</time>
      </trkpt>
      <trkpt lat="45.13559" lon="5.92001">
        <ele>1985.26</ele>
        <time>2023-08-09T18:03:30Z</time>
      </trkpt>
      <trkpt lat="45.1356" lon="5.91999">
        <ele>1984.78</ele>
        <time>2023-08-09T18:03:32Z</time>
      </trkpt>
      <trkpt lat="45.13563" lon="5.92002">
        <ele>1983.34</ele>
        <time>2023-08-09T18:03:43Z</time>
      </trkpt>
      <trkpt lat="45.13565" lon="5.92005">
        <ele>1981.41</ele>
        <time>2023-08-09T18:03:54Z</time>
      </trkpt>
      <trkpt lat="45.1357" lon="5.92007">
        <ele>1979.49</ele>
        <time>2023-08-09T18:04:05Z</time>
      </trkpt>
      <trkpt lat="45.1357" lon="5.92009">
        <ele>1978.05</ele>
        <time>2023-08-09T18:04:14Z</time>
      </trkpt>
      <trkpt lat="45.1357" lon="5.92011">
        <ele>1977.09</ele>
        <time>2023-08-09T18:04:19Z</time>
      </trkpt>
      <trkpt lat="45.13567" lon="5.92016">
        <ele>1975.65</ele>
        <time>2023-08-09T18:04:31Z</time>
      </trkpt>
      <trkpt lat="45.13567" lon="5.92019">
        <ele>1974.2</ele>
        <time>2023-08-09T18:04:36Z</time>
      </trkpt>
      <trkpt lat="45.13566" lon="5.92022">
        <ele>1972.28</ele>
        <time>2023-08-09T18:04:46Z</time>
      </trkpt>
      <trkpt lat="45.13567" lon="5.92025">
        <ele>1970.84</ele>
        <time>2023-08-09T18:04:57Z</time>
      </trkpt>
      <trkpt lat="45.13566" lon="5.92033">
        <ele>1968.92</ele>
        <time>2023-08-09T18:05:09Z</time>
      </trkpt>
      <trkpt lat="45.13564" lon="5.9204">
        <ele>1966.51</ele>
        <time>2023-08-09T18:05:20Z</time>
      </trkpt>
      <trkpt lat="45.13564" lon="5.92045">
        <ele>1965.07</ele>
        <time>2023-08-09T18:05:29Z</time>
      </trkpt>
      <trkpt lat="45.13568" lon="5.92046">
        <ele>1963.63</ele>
        <time>2023-08-09T18:05:39Z</time>
      </trkpt>
      <trkpt lat="45.13572" lon="5.92046">
        <ele>1961.71</ele>
        <time>2023-08-09T18:05:48Z</time>
      </trkpt>
      <trkpt lat="45.13574" lon="5.92047">
        <ele>1960.75</ele>
        <time>2023-08-09T18:05:55Z</time>
      </trkpt>
      <trkpt lat="45.13575" lon="5.9205">
        <ele>1959.3</ele>
        <time>2023-08-09T18:06:03Z</time>
      </trkpt>
      <trkpt lat="45.13581" lon="5.92053">
        <ele>1957.86</ele>
        <time>2023-08-09T18:06:10Z</time>
      </trkpt>
      <trkpt lat="45.13582" lon="5.92054">
        <ele>1957.86</ele>
        <time>2023-08-09T18:06:12Z</time>
      </trkpt>
      <trkpt lat="45.13587" lon="5.92054">
        <ele>1955.46</ele>
        <time>2023-08-09T18:06:22Z</time>
      </trkpt>
      <trkpt lat="45.13588" lon="5.92054">
        <ele>1954.98</ele>
        <time>2023-08-09T18:06:33Z</time>
      </trkpt>
      <trkpt lat="45.13593" lon="5.92053">
        <ele>1953.06</ele>
        <time>2023-08-09T18:06:53Z</time>
      </trkpt>
      <trkpt lat="45.13598" lon="5.92049">
        <ele>1951.13</ele>
        <time>2023-08-09T18:07:07Z</time>
      </trkpt>
      <trkpt lat="45.136" lon="5.92054">
        <ele>1948.73</ele>
        <time>2023-08-09T18:07:17Z</time>
      </trkpt>
      <trkpt lat="45.13603" lon="5.92056">
        <ele>1947.77</ele>
        <time>2023-08-09T18:07:27Z</time>
      </trkpt>
      <trkpt lat="45.13608" lon="5.92056">
        <ele>1945.85</ele>
        <time>2023-08-09T18:07:37Z</time>
      </trkpt>
      <trkpt lat="45.13609" lon="5.92056">
        <ele>1945.36</ele>
        <time>2023-08-09T18:07:42Z</time>
      </trkpt>
      <trkpt lat="45.13612" lon="5.92055">
        <ele>1942.96</ele>
        <time>2023-08-09T18:07:52Z</time>
      </trkpt>
      <trkpt lat="45.13616" lon="5.92057">
        <ele>1941.52</ele>
        <time>2023-08-09T18:08:01Z</time>
      </trkpt>
      <trkpt lat="45.13617" lon="5.92058">
        <ele>1939.6</ele>
        <time>2023-08-09T18:08:12Z</time>
      </trkpt>
      <trkpt lat="45.13621" lon="5.92064">
        <ele>1937.67</ele>
        <time>2023-08-09T18:08:24Z</time>
      </trkpt>
      <trkpt lat="45.13625" lon="5.92067">
        <ele>1935.75</ele>
        <time>2023-08-09T18:08:36Z</time>
      </trkpt>
      <trkpt lat="45.13627" lon="5.92077">
        <ele>1933.83</ele>
        <time>2023-08-09T18:08:48Z</time>
      </trkpt>
      <trkpt lat="45.13631" lon="5.92085">
        <ele>1932.87</ele>
        <time>2023-08-09T18:08:54Z</time>
      </trkpt>
      <trkpt lat="45.13639" lon="5.92084">
        <ele>1930.95</ele>
        <time>2023-08-09T18:09:04Z</time>
      </trkpt>
      <trkpt lat="45.1364" lon="5.92084">
        <ele>1930.95</ele>
        <time>2023-08-09T18:09:06Z</time>
      </trkpt>
      <trkpt lat="45.13644" lon="5.92083">
        <ele>1930.46</ele>
        <time>2023-08-09T18:09:09Z</time>
      </trkpt>
      <trkpt lat="45.1365" lon="5.92087">
        <ele>1929.5</ele>
        <time>2023-08-09T18:09:16Z</time>
      </trkpt>
      <trkpt lat="45.13657" lon="5.92088">
        <ele>1929.02</ele>
        <time>2023-08-09T18:09:24Z</time>
      </trkpt>
      <trkpt lat="45.13662" lon="5.92089">
        <ele>1929.02</ele>
        <time>2023-08-09T18:09:29Z</time>
      </trkpt>
      <trkpt lat="45.1367" lon="5.92094">
        <ele>1928.06</ele>
        <time>2023-08-09T18:09:39Z</time>
      </trkpt>
      <trkpt lat="45.13677" lon="5.92101">
        <ele>1929.5</ele>
        <time>2023-08-09T18:09:50Z</time>
      </trkpt>
      <trkpt lat="45.13678" lon="5.92106">
        <ele>1930.95</ele>
        <time>2023-08-09T18:10:01Z</time>
      </trkpt>
      <trkpt lat="45.13681" lon="5.92111">
        <ele>1931.91</ele>
        <time>2023-08-09T18:10:12Z</time>
      </trkpt>
      <trkpt lat="45.13682" lon="5.92118">
        <ele>1931.91</ele>
        <time>2023-08-09T18:10:21Z</time>
      </trkpt>
      <trkpt lat="45.13687" lon="5.92132">
        <ele>1931.91</ele>
        <time>2023-08-09T18:10:33Z</time>
      </trkpt>
      <trkpt lat="45.13692" lon="5.92135">
        <ele>1933.35</ele>
        <time>2023-08-09T18:10:43Z</time>
      </trkpt>
      <trkpt lat="45.13695" lon="5.92143">
        <ele>1934.31</ele>
        <time>2023-08-09T18:10:51Z</time>
      </trkpt>
      <trkpt lat="45.137" lon="5.92154">
        <ele>1934.31</ele>
        <time>2023-08-09T18:11:01Z</time>
      </trkpt>
      <trkpt lat="45.13701" lon="5.92156">
        <ele>1934.31</ele>
        <time>2023-08-09T18:11:03Z</time>
      </trkpt>
      <trkpt lat="45.13704" lon="5.9216">
        <ele>1934.31</ele>
        <time>2023-08-09T18:11:07Z</time>
      </trkpt>
      <trkpt lat="45.13706" lon="5.92164">
        <ele>1934.31</ele>
        <time>2023-08-09T18:11:10Z</time>
      </trkpt>
      <trkpt lat="45.13711" lon="5.9217">
        <ele>1932.87</ele>
        <time>2023-08-09T18:11:17Z</time>
      </trkpt>
      <trkpt lat="45.13713" lon="5.92175">
        <ele>1932.87</ele>
        <time>2023-08-09T18:11:21Z</time>
      </trkpt>
      <trkpt lat="45.13717" lon="5.92179">
        <ele>1932.39</ele>
        <time>2023-08-09T18:11:27Z</time>
      </trkpt>
      <trkpt lat="45.13724" lon="5.92185">
        <ele>1931.91</ele>
        <time>2023-08-09T18:11:34Z</time>
      </trkpt>
      <trkpt lat="45.13734" lon="5.9219">
        <ele>1931.91</ele>
        <time>2023-08-09T18:11:45Z</time>
      </trkpt>
      <trkpt lat="45.13738" lon="5.92193">
        <ele>1931.91</ele>
        <time>2023-08-09T18:11:51Z</time>
      </trkpt>
      <trkpt lat="45.13741" lon="5.92193">
        <ele>1931.91</ele>
        <time>2023-08-09T18:11:55Z</time>
      </trkpt>
      <trkpt lat="45.13746" lon="5.92198">
        <ele>1931.91</ele>
        <time>2023-08-09T18:12:00Z</time>
      </trkpt>
      <trkpt lat="45.1375" lon="5.92197">
        <ele>1929.98</ele>
        <time>2023-08-09T18:12:06Z</time>
      </trkpt>
      <trkpt lat="45.13752" lon="5.92202">
        <ele>1929.5</ele>
        <time>2023-08-09T18:12:15Z</time>
      </trkpt>
      <trkpt lat="45.13758" lon="5.9221">
        <ele>1928.54</ele>
        <time>2023-08-09T18:12:24Z</time>
      </trkpt>
      <trkpt lat="45.1376" lon="5.92212">
        <ele>1927.58</ele>
        <time>2023-08-09T18:12:27Z</time>
      </trkpt>
      <trkpt lat="45.13763" lon="5.92213">
        <ele>1927.1</ele>
        <time>2023-08-09T18:12:30Z</time>
      </trkpt>
      <trkpt lat="45.13765" lon="5.92214">
        <ele>1927.1</ele>
        <time>2023-08-09T18:12:32Z</time>
      </trkpt>
      <trkpt lat="45.13768" lon="5.92216">
        <ele>1926.62</ele>
        <time>2023-08-09T18:12:37Z</time>
      </trkpt>
      <trkpt lat="45.13779" lon="5.9222">
        <ele>1924.7</ele>
        <time>2023-08-09T18:12:49Z</time>
      </trkpt>
      <trkpt lat="45.13784" lon="5.92221">
        <ele>1922.77</ele>
        <time>2023-08-09T18:12:58Z</time>
      </trkpt>
      <trkpt lat="45.13784" lon="5.9222">
        <ele>1922.77</ele>
        <time>2023-08-09T18:12:59Z</time>
      </trkpt>
      <trkpt lat="45.13787" lon="5.92225">
        <ele>1921.81</ele>
        <time>2023-08-09T18:13:05Z</time>
      </trkpt>
      <trkpt lat="45.13789" lon="5.92226">
        <ele>1921.33</ele>
        <time>2023-08-09T18:13:07Z</time>
      </trkpt>
      <trkpt lat="45.13797" lon="5.92233">
        <ele>1921.33</ele>
        <time>2023-08-09T18:13:19Z</time>
      </trkpt>
      <trkpt lat="45.138" lon="5.92238">
        <ele>1922.77</ele>
        <time>2023-08-09T18:13:27Z</time>
      </trkpt>
      <trkpt lat="45.13804" lon="5.92247">
        <ele>1924.22</ele>
        <time>2023-08-09T18:13:39Z</time>
      </trkpt>
      <trkpt lat="45.13807" lon="5.9225">
        <ele>1924.22</ele>
        <time>2023-08-09T18:13:44Z</time>
      </trkpt>
      <trkpt lat="45.13811" lon="5.92253">
        <ele>1924.22</ele>
        <time>2023-08-09T18:13:48Z</time>
      </trkpt>
      <trkpt lat="45.13814" lon="5.92255">
        <ele>1924.22</ele>
        <time>2023-08-09T18:13:51Z</time>
      </trkpt>
      <trkpt lat="45.1382" lon="5.9226">
        <ele>1924.7</ele>
        <time>2023-08-09T18:14:03Z</time>
      </trkpt>
      <trkpt lat="45.1382" lon="5.92259">
        <ele>1924.7</ele>
        <time>2023-08-09T18:14:04Z</time>
      </trkpt>
      <trkpt lat="45.13826" lon="5.9226">
        <ele>1923.25</ele>
        <time>2023-08-09T18:14:12Z</time>
      </trkpt>
      <trkpt lat="45.13831" lon="5.92261">
        <ele>1922.77</ele>
        <time>2023-08-09T18:14:18Z</time>
      </trkpt>
      <trkpt lat="45.13834" lon="5.92262">
        <ele>1921.81</ele>
        <time>2023-08-09T18:14:23Z</time>
      </trkpt>
      <trkpt lat="45.13841" lon="5.9226">
        <ele>1920.37</ele>
        <time>2023-08-09T18:14:32Z</time>
      </trkpt>
      <trkpt lat="45.13849" lon="5.9226">
        <ele>1918.93</ele>
        <time>2023-08-09T18:14:41Z</time>
      </trkpt>
      <trkpt lat="45.13854" lon="5.92257">
        <ele>1918.93</ele>
        <time>2023-08-09T18:14:47Z</time>
      </trkpt>
      <trkpt lat="45.13865" lon="5.92257">
        <ele>1920.37</ele>
        <time>2023-08-09T18:15:00Z</time>
      </trkpt>
      <trkpt lat="45.13867" lon="5.92262">
        <ele>1921.81</ele>
        <time>2023-08-09T18:15:09Z</time>
      </trkpt>
      <trkpt lat="45.13871" lon="5.92265">
        <ele>1922.29</ele>
        <time>2023-08-09T18:15:20Z</time>
      </trkpt>
      <trkpt lat="45.13878" lon="5.92263">
        <ele>1922.77</ele>
        <time>2023-08-09T18:15:30Z</time>
      </trkpt>
      <trkpt lat="45.13881" lon="5.92252">
        <ele>1923.74</ele>
        <time>2023-08-09T18:15:41Z</time>
      </trkpt>
      <trkpt lat="45.13887" lon="5.92253">
        <ele>1924.7</ele>
        <time>2023-08-09T18:15:53Z</time>
      </trkpt>
      <trkpt lat="45.13888" lon="5.92253">
        <ele>1925.66</ele>
        <time>2023-08-09T18:16:00Z</time>
      </trkpt>
      <trkpt lat="45.13893" lon="5.92256">
        <ele>1927.1</ele>
        <time>2023-08-09T18:16:11Z</time>
      </trkpt>
      <trkpt lat="45.13895" lon="5.92258">
        <ele>1927.58</ele>
        <time>2023-08-09T18:16:23Z</time>
      </trkpt>
      <trkpt lat="45.13897" lon="5.92258">
        <ele>1927.58</ele>
        <time>2023-08-09T18:16:52Z</time>
      </trkpt>
      <trkpt lat="45.13902" lon="5.92258">
        <ele>1927.58</ele>
        <time>2023-08-09T18:17:05Z</time>
      </trkpt>
      <trkpt lat="45.13907" lon="5.9226">
        <ele>1926.14</ele>
        <time>2023-08-09T18:17:14Z</time>
      </trkpt>
      <trkpt lat="45.13911" lon="5.92263">
        <ele>1925.66</ele>
        <time>2023-08-09T18:17:24Z</time>
      </trkpt>
      <trkpt lat="45.13912" lon="5.92266">
        <ele>1925.66</ele>
        <time>2023-08-09T18:17:27Z</time>
      </trkpt>
      <trkpt lat="45.13914" lon="5.92267">
        <ele>1925.18</ele>
        <time>2023-08-09T18:17:29Z</time>
      </trkpt>
      <trkpt lat="45.13921" lon="5.92266">
        <ele>1924.7</ele>
        <time>2023-08-09T18:17:37Z</time>
      </trkpt>
      <trkpt lat="45.13923" lon="5.92265">
        <ele>1923.74</ele>
        <time>2023-08-09T18:17:39Z</time>
      </trkpt>
      <trkpt lat="45.13931" lon="5.92266">
        <ele>1922.29</ele>
        <time>2023-08-09T18:17:48Z</time>
      </trkpt>
      <trkpt lat="45.13935" lon="5.92266">
        <ele>1922.29</ele>
        <time>2023-08-09T18:17:52Z</time>
      </trkpt>
      <trkpt lat="45.13942" lon="5.9227">
        <ele>1922.29</ele>
        <time>2023-08-09T18:18:03Z</time>
      </trkpt>
      <trkpt lat="45.13944" lon="5.92271">
        <ele>1922.29</ele>
        <time>2023-08-09T18:18:06Z</time>
      </trkpt>
      <trkpt lat="45.13948" lon="5.92278">
        <ele>1922.29</ele>
        <time>2023-08-09T18:18:14Z</time>
      </trkpt>
      <trkpt lat="45.1395" lon="5.92279">
        <ele>1922.29</ele>
        <time>2023-08-09T18:18:16Z</time>
      </trkpt>
      <trkpt lat="45.13951" lon="5.92282">
        <ele>1922.29</ele>
        <time>2023-08-09T18:18:19Z</time>
      </trkpt>
      <trkpt lat="45.13955" lon="5.92288">
        <ele>1923.74</ele>
        <time>2023-08-09T18:18:27Z</time>
      </trkpt>
      <trkpt lat="45.13956" lon="5.92295">
        <ele>1923.74</ele>
        <time>2023-08-09T18:18:40Z</time>
      </trkpt>
      <trkpt lat="45.13955" lon="5.92302">
        <ele>1923.74</ele>
        <time>2023-08-09T18:18:50Z</time>
      </trkpt>
      <trkpt lat="45.13955" lon="5.92304">
        <ele>1924.22</ele>
        <time>2023-08-09T18:18:54Z</time>
      </trkpt>
      <trkpt lat="45.1396" lon="5.92318">
        <ele>1924.7</ele>
        <time>2023-08-09T18:19:08Z</time>
      </trkpt>
      <trkpt lat="45.1396" lon="5.92319">
        <ele>1924.7</ele>
        <time>2023-08-09T18:19:10Z</time>
      </trkpt>
      <trkpt lat="45.13958" lon="5.92326">
        <ele>1924.7</ele>
        <time>2023-08-09T18:19:15Z</time>
      </trkpt>
      <trkpt lat="45.13965" lon="5.92337">
        <ele>1925.18</ele>
        <time>2023-08-09T18:19:29Z</time>
      </trkpt>
      <trkpt lat="45.13968" lon="5.92345">
        <ele>1926.14</ele>
        <time>2023-08-09T18:19:40Z</time>
      </trkpt>
      <trkpt lat="45.13974" lon="5.92347">
        <ele>1924.7</ele>
        <time>2023-08-09T18:19:50Z</time>
      </trkpt>
      <trkpt lat="45.13975" lon="5.92348">
        <ele>1924.7</ele>
        <time>2023-08-09T18:19:51Z</time>
      </trkpt>
      <trkpt lat="45.13976" lon="5.9235">
        <ele>1924.7</ele>
        <time>2023-08-09T18:19:53Z</time>
      </trkpt>
      <trkpt lat="45.13978" lon="5.92351">
        <ele>1924.7</ele>
        <time>2023-08-09T18:19:55Z</time>
      </trkpt>
      <trkpt lat="45.1398" lon="5.92352">
        <ele>1923.74</ele>
        <time>2023-08-09T18:19:58Z</time>
      </trkpt>
      <trkpt lat="45.13982" lon="5.92352">
        <ele>1923.74</ele>
        <time>2023-08-09T18:20:00Z</time>
      </trkpt>
      <trkpt lat="45.1399" lon="5.92353">
        <ele>1924.22</ele>
        <time>2023-08-09T18:20:13Z</time>
      </trkpt>
      <trkpt lat="45.13997" lon="5.9235">
        <ele>1922.77</ele>
        <time>2023-08-09T18:20:23Z</time>
      </trkpt>
      <trkpt lat="45.14" lon="5.92351">
        <ele>1922.29</ele>
        <time>2023-08-09T18:20:27Z</time>
      </trkpt>
      <trkpt lat="45.14002" lon="5.92352">
        <ele>1922.29</ele>
        <time>2023-08-09T18:20:29Z</time>
      </trkpt>
      <trkpt lat="45.14004" lon="5.9235">
        <ele>1921.81</ele>
        <time>2023-08-09T18:20:33Z</time>
      </trkpt>
      <trkpt lat="45.14011" lon="5.92349">
        <ele>1919.89</ele>
        <time>2023-08-09T18:20:44Z</time>
      </trkpt>
      <trkpt lat="45.14014" lon="5.92348">
        <ele>1919.41</ele>
        <time>2023-08-09T18:20:48Z</time>
      </trkpt>
      <trkpt lat="45.14016" lon="5.92347">
        <ele>1918.45</ele>
        <time>2023-08-09T18:20:50Z</time>
      </trkpt>
      <trkpt lat="45.14021" lon="5.9235">
        <ele>1918.45</ele>
        <time>2023-08-09T18:20:55Z</time>
      </trkpt>
      <trkpt lat="45.14032" lon="5.9235">
        <ele>1917.97</ele>
        <time>2023-08-09T18:21:07Z</time>
      </trkpt>
      <trkpt lat="45.14033" lon="5.9235">
        <ele>1917.97</ele>
        <time>2023-08-09T18:21:08Z</time>
      </trkpt>
      <trkpt lat="45.14036" lon="5.9235">
        <ele>1919.41</ele>
        <time>2023-08-09T18:21:12Z</time>
      </trkpt>
      <trkpt lat="45.1404" lon="5.92349">
        <ele>1920.85</ele>
        <time>2023-08-09T18:21:23Z</time>
      </trkpt>
      <trkpt lat="45.14041" lon="5.92348">
        <ele>1920.85</ele>
        <time>2023-08-09T18:21:27Z</time>
      </trkpt>
      <trkpt lat="45.14046" lon="5.92351">
        <ele>1920.85</ele>
        <time>2023-08-09T18:21:33Z</time>
      </trkpt>
      <trkpt lat="45.14054" lon="5.92354">
        <ele>1922.77</ele>
        <time>2023-08-09T18:21:46Z</time>
      </trkpt>
      <trkpt lat="45.14059" lon="5.92358">
        <ele>1923.74</ele>
        <time>2023-08-09T18:21:59Z</time>
      </trkpt>
      <trkpt lat="45.14063" lon="5.9236">
        <ele>1924.22</ele>
        <time>2023-08-09T18:22:07Z</time>
      </trkpt>
      <trkpt lat="45.14064" lon="5.92362">
        <ele>1924.22</ele>
        <time>2023-08-09T18:22:20Z</time>
      </trkpt>
      <trkpt lat="45.14063" lon="5.92358">
        <ele>1924.22</ele>
        <time>2023-08-09T18:22:29Z</time>
      </trkpt>
      <trkpt lat="45.1406" lon="5.92361">
        <ele>1926.14</ele>
        <time>2023-08-09T18:22:40Z</time>
      </trkpt>
      <trkpt lat="45.14058" lon="5.9236">
        <ele>1927.1</ele>
        <time>2023-08-09T18:22:50Z</time>
      </trkpt>
      <trkpt lat="45.14056" lon="5.92363">
        <ele>1928.06</ele>
        <time>2023-08-09T18:22:58Z</time>
      </trkpt>
      <trkpt lat="45.14055" lon="5.92367">
        <ele>1929.98</ele>
        <time>2023-08-09T18:23:09Z</time>
      </trkpt>
      <trkpt lat="45.14054" lon="5.9237">
        <ele>1930.95</ele>
        <time>2023-08-09T18:23:21Z</time>
      </trkpt>
      <trkpt lat="45.14054" lon="5.92372">
        <ele>1932.39</ele>
        <time>2023-08-09T18:23:33Z</time>
      </trkpt>
      <trkpt lat="45.14053" lon="5.92377">
        <ele>1932.39</ele>
        <time>2023-08-09T18:23:49Z</time>
      </trkpt>
      <trkpt lat="45.14056" lon="5.9237">
        <ele>1929.5</ele>
        <time>2023-08-09T18:24:01Z</time>
      </trkpt>
      <trkpt lat="45.14059" lon="5.92366">
        <ele>1926.62</ele>
        <time>2023-08-09T18:24:13Z</time>
      </trkpt>
      <trkpt lat="45.14063" lon="5.92365">
        <ele>1925.18</ele>
        <time>2023-08-09T18:24:19Z</time>
      </trkpt>
      <trkpt lat="45.1407" lon="5.9237">
        <ele>1922.77</ele>
        <time>2023-08-09T18:24:30Z</time>
      </trkpt>
      <trkpt lat="45.14072" lon="5.92371">
        <ele>1922.77</ele>
        <time>2023-08-09T18:24:33Z</time>
      </trkpt>
      <trkpt lat="45.14074" lon="5.92372">
        <ele>1922.29</ele>
        <time>2023-08-09T18:24:38Z</time>
      </trkpt>
      <trkpt lat="45.1408" lon="5.92375">
        <ele>1922.29</ele>
        <time>2023-08-09T18:24:48Z</time>
      </trkpt>
      <trkpt lat="45.14084" lon="5.92375">
        <ele>1920.37</ele>
        <time>2023-08-09T18:25:01Z</time>
      </trkpt>
      <trkpt lat="45.14085" lon="5.92374">
        <ele>1919.89</ele>
        <time>2023-08-09T18:25:05Z</time>
      </trkpt>
      <trkpt lat="45.14087" lon="5.92374">
        <ele>1919.41</ele>
        <time>2023-08-09T18:25:07Z</time>
      </trkpt>
      <trkpt lat="45.14089" lon="5.92374">
        <ele>1919.41</ele>
        <time>2023-08-09T18:25:09Z</time>
      </trkpt>
      <trkpt lat="45.1409" lon="5.92376">
        <ele>1918.93</ele>
        <time>2023-08-09T18:25:13Z</time>
      </trkpt>
      <trkpt lat="45.14096" lon="5.92379">
        <ele>1917.01</ele>
        <time>2023-08-09T18:25:23Z</time>
      </trkpt>
      <trkpt lat="45.14098" lon="5.92379">
        <ele>1917.01</ele>
        <time>2023-08-09T18:25:25Z</time>
      </trkpt>
      <trkpt lat="45.14099" lon="5.92381">
        <ele>1917.01</ele>
        <time>2023-08-09T18:25:27Z</time>
      </trkpt>
      <trkpt lat="45.14105" lon="5.92388">
        <ele>1918.45</ele>
        <time>2023-08-09T18:25:39Z</time>
      </trkpt>
      <trkpt lat="45.14108" lon="5.92392">
        <ele>1918.45</ele>
        <time>2023-08-09T18:25:45Z</time>
      </trkpt>
      <trkpt lat="45.14114" lon="5.92401">
        <ele>1918.93</ele>
        <time>2023-08-09T18:25:56Z</time>
      </trkpt>
      <trkpt lat="45.14122" lon="5.92407">
        <ele>1918.93</ele>
        <time>2023-08-09T18:26:06Z</time>
      </trkpt>
      <trkpt lat="45.14125" lon="5.92408">
        <ele>1919.41</ele>
        <time>2023-08-09T18:26:12Z</time>
      </trkpt>
      <trkpt lat="45.14132" lon="5.92415">
        <ele>1920.37</ele>
        <time>2023-08-09T18:26:24Z</time>
      </trkpt>
      <trkpt lat="45.14134" lon="5.92415">
        <ele>1920.37</ele>
        <time>2023-08-09T18:26:26Z</time>
      </trkpt>
      <trkpt lat="45.14139" lon="5.92417">
        <ele>1922.29</ele>
        <time>2023-08-09T18:26:39Z</time>
      </trkpt>
      <trkpt lat="45.14145" lon="5.92419">
        <ele>1924.22</ele>
        <time>2023-08-09T18:26:52Z</time>
      </trkpt>
      <trkpt lat="45.14149" lon="5.92421">
        <ele>1925.18</ele>
        <time>2023-08-09T18:27:03Z</time>
      </trkpt>
      <trkpt lat="45.14156" lon="5.92425">
        <ele>1927.1</ele>
        <time>2023-08-09T18:27:17Z</time>
      </trkpt>
      <trkpt lat="45.14161" lon="5.92427">
        <ele>1928.06</ele>
        <time>2023-08-09T18:27:27Z</time>
      </trkpt>
      <trkpt lat="45.14166" lon="5.92431">
        <ele>1929.5</ele>
        <time>2023-08-09T18:27:38Z</time>
      </trkpt>
      <trkpt lat="45.14169" lon="5.92436">
        <ele>1929.5</ele>
        <time>2023-08-09T18:27:45Z</time>
      </trkpt>
      <trkpt lat="45.14178" lon="5.92444">
        <ele>1929.98</ele>
        <time>2023-08-09T18:27:58Z</time>
      </trkpt>
      <trkpt lat="45.14184" lon="5.92449">
        <ele>1931.91</ele>
        <time>2023-08-09T18:28:10Z</time>
      </trkpt>
      <trkpt lat="45.14188" lon="5.92455">
        <ele>1933.35</ele>
        <time>2023-08-09T18:28:23Z</time>
      </trkpt>
      <trkpt lat="45.14192" lon="5.92459">
        <ele>1935.27</ele>
        <time>2023-08-09T18:28:36Z</time>
      </trkpt>
      <trkpt lat="45.14194" lon="5.92465">
        <ele>1936.23</ele>
        <time>2023-08-09T18:28:49Z</time>
      </trkpt>
      <trkpt lat="45.14197" lon="5.92465">
        <ele>1938.16</ele>
        <time>2023-08-09T18:28:59Z</time>
      </trkpt>
      <trkpt lat="45.14199" lon="5.92468">
        <ele>1938.16</ele>
        <time>2023-08-09T18:29:04Z</time>
      </trkpt>
      <trkpt lat="45.14207" lon="5.92472">
        <ele>1938.16</ele>
        <time>2023-08-09T18:29:13Z</time>
      </trkpt>
      <trkpt lat="45.14213" lon="5.92481">
        <ele>1938.16</ele>
        <time>2023-08-09T18:29:26Z</time>
      </trkpt>
      <trkpt lat="45.1422" lon="5.92485">
        <ele>1939.6</ele>
        <time>2023-08-09T18:29:38Z</time>
      </trkpt>
      <trkpt lat="45.14221" lon="5.92486">
        <ele>1939.6</ele>
        <time>2023-08-09T18:29:39Z</time>
      </trkpt>
      <trkpt lat="45.14225" lon="5.92489">
        <ele>1941.04</ele>
        <time>2023-08-09T18:29:51Z</time>
      </trkpt>
      <trkpt lat="45.14229" lon="5.92491">
        <ele>1942.96</ele>
        <time>2023-08-09T18:30:03Z</time>
      </trkpt>
      <trkpt lat="45.14229" lon="5.92493">
        <ele>1943.44</ele>
        <time>2023-08-09T18:30:08Z</time>
      </trkpt>
      <trkpt lat="45.1423" lon="5.92497">
        <ele>1944.88</ele>
        <time>2023-08-09T18:30:13Z</time>
      </trkpt>
      <trkpt lat="45.14235" lon="5.92498">
        <ele>1945.85</ele>
        <time>2023-08-09T18:30:25Z</time>
      </trkpt>
      <trkpt lat="45.14237" lon="5.92498">
        <ele>1945.85</ele>
        <time>2023-08-09T18:30:42Z</time>
      </trkpt>
      <trkpt lat="45.14236" lon="5.92499">
        <ele>1945.85</ele>
        <time>2023-08-09T18:30:43Z</time>
      </trkpt>
      <trkpt lat="45.14233" lon="5.925">
        <ele>1945.85</ele>
        <time>2023-08-09T18:30:46Z</time>
      </trkpt>
      <trkpt lat="45.14228" lon="5.92505">
        <ele>1947.29</ele>
        <time>2023-08-09T18:31:00Z</time>
      </trkpt>
      <trkpt lat="45.14227" lon="5.92508">
        <ele>1948.25</ele>
        <time>2023-08-09T18:31:06Z</time>
      </trkpt>
      <trkpt lat="45.14226" lon="5.92512">
        <ele>1948.25</ele>
        <time>2023-08-09T18:31:19Z</time>
      </trkpt>
      <trkpt lat="45.14227" lon="5.92513">
        <ele>1948.25</ele>
        <time>2023-08-09T18:32:01Z</time>
      </trkpt>
      <trkpt lat="45.14226" lon="5.92518">
        <ele>1912.68</ele>
        <time>2023-08-10T05:37:01Z</time>
      </trkpt>
      <trkpt lat="45.14227" lon="5.92518">
        <ele>1912.68</ele>
        <time>2023-08-10T05:37:02Z</time>
      </trkpt>
      <trkpt lat="45.14231" lon="5.92519">
        <ele>1916.53</ele>
        <time>2023-08-10T05:37:08Z</time>
      </trkpt>
      <trkpt lat="45.14232" lon="5.92519">
        <ele>1920.37</ele>
        <time>2023-08-10T05:37:11Z</time>
      </trkpt>
      <trkpt lat="45.14233" lon="5.9252">
        <ele>1921.33</ele>
        <time>2023-08-10T05:37:12Z</time>
      </trkpt>
      <trkpt lat="45.14233" lon="5.92523">
        <ele>1923.25</ele>
        <time>2023-08-10T05:37:14Z</time>
      </trkpt>
      <trkpt lat="45.14236" lon="5.92525">
        <ele>1928.06</ele>
        <time>2023-08-10T05:37:19Z</time>
      </trkpt>
      <trkpt lat="45.14238" lon="5.92528">
        <ele>1930.95</ele>
        <time>2023-08-10T05:37:23Z</time>
      </trkpt>
      <trkpt lat="45.1424" lon="5.92528">
        <ele>1934.31</ele>
        <time>2023-08-10T05:37:29Z</time>
      </trkpt>
      <trkpt lat="45.14241" lon="5.92529">
        <ele>1936.23</ele>
        <time>2023-08-10T05:37:33Z</time>
      </trkpt>
      <trkpt lat="45.14248" lon="5.9253">
        <ele>1939.6</ele>
        <time>2023-08-10T05:37:45Z</time>
      </trkpt>
      <trkpt lat="45.14254" lon="5.92531">
        <ele>1941.52</ele>
        <time>2023-08-10T05:37:58Z</time>
      </trkpt>
      <trkpt lat="45.1426" lon="5.92532">
        <ele>1941.04</ele>
        <time>2023-08-10T05:38:07Z</time>
      </trkpt>
      <trkpt lat="45.14261" lon="5.92532">
        <ele>1941.52</ele>
        <time>2023-08-10T05:38:09Z</time>
      </trkpt>
      <trkpt lat="45.14265" lon="5.92538">
        <ele>1942.48</ele>
        <time>2023-08-10T05:38:18Z</time>
      </trkpt>
      <trkpt lat="45.14267" lon="5.92539">
        <ele>1942.48</ele>
        <time>2023-08-10T05:38:20Z</time>
      </trkpt>
      <trkpt lat="45.14272" lon="5.92539">
        <ele>1942.96</ele>
        <time>2023-08-10T05:38:29Z</time>
      </trkpt>
      <trkpt lat="45.14274" lon="5.9254">
        <ele>1942.48</ele>
        <time>2023-08-10T05:38:31Z</time>
      </trkpt>
      <trkpt lat="45.14282" lon="5.92547">
        <ele>1942.48</ele>
        <time>2023-08-10T05:38:42Z</time>
      </trkpt>
      <trkpt lat="45.14282" lon="5.92546">
        <ele>1893.93</ele>
        <time>2023-08-10T05:38:43Z</time>
      </trkpt>
      <trkpt lat="45.14283" lon="5.92546">
        <ele>1942.48</ele>
        <time>2023-08-10T05:38:44Z</time>
      </trkpt>
      <trkpt lat="45.14287" lon="5.92544">
        <ele>1940.56</ele>
        <time>2023-08-10T05:38:55Z</time>
      </trkpt>
      <trkpt lat="45.14284" lon="5.92537">
        <ele>1939.12</ele>
        <time>2023-08-10T05:39:05Z</time>
      </trkpt>
      <trkpt lat="45.14285" lon="5.92528">
        <ele>1937.19</ele>
        <time>2023-08-10T05:39:15Z</time>
      </trkpt>
      <trkpt lat="45.14287" lon="5.92523">
        <ele>1935.75</ele>
        <time>2023-08-10T05:39:25Z</time>
      </trkpt>
      <trkpt lat="45.14288" lon="5.92524">
        <ele>1935.75</ele>
        <time>2023-08-10T05:39:27Z</time>
      </trkpt>
      <trkpt lat="45.14293" lon="5.92521">
        <ele>1934.31</ele>
        <time>2023-08-10T05:39:38Z</time>
      </trkpt>
      <trkpt lat="45.14296" lon="5.92519">
        <ele>1932.87</ele>
        <time>2023-08-10T05:39:46Z</time>
      </trkpt>
      <trkpt lat="45.14301" lon="5.92521">
        <ele>1930.95</ele>
        <time>2023-08-10T05:39:56Z</time>
      </trkpt>
      <trkpt lat="45.14303" lon="5.92519">
        <ele>1929.98</ele>
        <time>2023-08-10T05:40:00Z</time>
      </trkpt>
      <trkpt lat="45.14309" lon="5.92517">
        <ele>1928.06</ele>
        <time>2023-08-10T05:40:11Z</time>
      </trkpt>
      <trkpt lat="45.14312" lon="5.92517">
        <ele>1926.14</ele>
        <time>2023-08-10T05:40:21Z</time>
      </trkpt>
      <trkpt lat="45.14317" lon="5.92518">
        <ele>1925.18</ele>
        <time>2023-08-10T05:40:27Z</time>
      </trkpt>
      <trkpt lat="45.14322" lon="5.92521">
        <ele>1923.25</ele>
        <time>2023-08-10T05:40:38Z</time>
      </trkpt>
      <trkpt lat="45.14325" lon="5.92524">
        <ele>1921.81</ele>
        <time>2023-08-10T05:40:48Z</time>
      </trkpt>
      <trkpt lat="45.14326" lon="5.92526">
        <ele>1920.85</ele>
        <time>2023-08-10T05:40:51Z</time>
      </trkpt>
      <trkpt lat="45.14328" lon="5.92527">
        <ele>1920.85</ele>
        <time>2023-08-10T05:40:53Z</time>
      </trkpt>
      <trkpt lat="45.14333" lon="5.9253">
        <ele>1918.93</ele>
        <time>2023-08-10T05:41:01Z</time>
      </trkpt>
      <trkpt lat="45.14334" lon="5.92531">
        <ele>1918.45</ele>
        <time>2023-08-10T05:41:04Z</time>
      </trkpt>
      <trkpt lat="45.14337" lon="5.9253">
        <ele>1917.49</ele>
        <time>2023-08-10T05:41:15Z</time>
      </trkpt>
      <trkpt lat="45.14343" lon="5.92527">
        <ele>1915.56</ele>
        <time>2023-08-10T05:41:27Z</time>
      </trkpt>
      <trkpt lat="45.14343" lon="5.92527">
        <ele>1915.08</ele>
        <time>2023-08-10T05:41:30Z</time>
      </trkpt>
      <trkpt lat="45.14347" lon="5.92529">
        <ele>1912.68</ele>
        <time>2023-08-10T05:41:40Z</time>
      </trkpt>
      <trkpt lat="45.14348" lon="5.9254">
        <ele>1911.72</ele>
        <time>2023-08-10T05:41:52Z</time>
      </trkpt>
      <trkpt lat="45.14351" lon="5.92551">
        <ele>1911.72</ele>
        <time>2023-08-10T05:42:05Z</time>
      </trkpt>
      <trkpt lat="45.14352" lon="5.92553">
        <ele>1911.72</ele>
        <time>2023-08-10T05:42:07Z</time>
      </trkpt>
      <trkpt lat="45.14359" lon="5.9256">
        <ele>1911.24</ele>
        <time>2023-08-10T05:42:17Z</time>
      </trkpt>
      <trkpt lat="45.1436" lon="5.9256">
        <ele>1910.76</ele>
        <time>2023-08-10T05:42:30Z</time>
      </trkpt>
      <trkpt lat="45.14368" lon="5.92562">
        <ele>1909.8</ele>
        <time>2023-08-10T05:42:43Z</time>
      </trkpt>
      <trkpt lat="45.14373" lon="5.92567">
        <ele>1907.39</ele>
        <time>2023-08-10T05:42:53Z</time>
      </trkpt>
      <trkpt lat="45.14374" lon="5.92571">
        <ele>1905.95</ele>
        <time>2023-08-10T05:43:03Z</time>
      </trkpt>
      <trkpt lat="45.14377" lon="5.92575">
        <ele>1903.55</ele>
        <time>2023-08-10T05:43:14Z</time>
      </trkpt>
      <trkpt lat="45.14381" lon="5.92587">
        <ele>1901.14</ele>
        <time>2023-08-10T05:43:27Z</time>
      </trkpt>
      <trkpt lat="45.14388" lon="5.92591">
        <ele>1899.22</ele>
        <time>2023-08-10T05:43:40Z</time>
      </trkpt>
      <trkpt lat="45.14389" lon="5.92592">
        <ele>1899.22</ele>
        <time>2023-08-10T05:43:42Z</time>
      </trkpt>
      <trkpt lat="45.14391" lon="5.92598">
        <ele>1897.78</ele>
        <time>2023-08-10T05:43:53Z</time>
      </trkpt>
      <trkpt lat="45.14394" lon="5.92605">
        <ele>1894.9</ele>
        <time>2023-08-10T05:44:07Z</time>
      </trkpt>
      <trkpt lat="45.14396" lon="5.92613">
        <ele>1893.45</ele>
        <time>2023-08-10T05:44:17Z</time>
      </trkpt>
      <trkpt lat="45.14399" lon="5.92622">
        <ele>1891.05</ele>
        <time>2023-08-10T05:44:27Z</time>
      </trkpt>
      <trkpt lat="45.14399" lon="5.92623">
        <ele>1890.57</ele>
        <time>2023-08-10T05:44:30Z</time>
      </trkpt>
      <trkpt lat="45.144" lon="5.92629">
        <ele>1889.13</ele>
        <time>2023-08-10T05:44:37Z</time>
      </trkpt>
      <trkpt lat="45.14407" lon="5.92633">
        <ele>1887.69</ele>
        <time>2023-08-10T05:44:49Z</time>
      </trkpt>
      <trkpt lat="45.14412" lon="5.92639">
        <ele>1885.76</ele>
        <time>2023-08-10T05:45:01Z</time>
      </trkpt>
      <trkpt lat="45.14411" lon="5.92645">
        <ele>1883.36</ele>
        <time>2023-08-10T05:45:13Z</time>
      </trkpt>
      <trkpt lat="45.14415" lon="5.92651">
        <ele>1882.4</ele>
        <time>2023-08-10T05:45:26Z</time>
      </trkpt>
      <trkpt lat="45.14414" lon="5.92654">
        <ele>1880.96</ele>
        <time>2023-08-10T05:45:31Z</time>
      </trkpt>
      <trkpt lat="45.14419" lon="5.92659">
        <ele>1878.55</ele>
        <time>2023-08-10T05:45:41Z</time>
      </trkpt>
      <trkpt lat="45.14421" lon="5.92659">
        <ele>1878.07</ele>
        <time>2023-08-10T05:45:48Z</time>
      </trkpt>
      <trkpt lat="45.14428" lon="5.92661">
        <ele>1875.67</ele>
        <time>2023-08-10T05:46:01Z</time>
      </trkpt>
      <trkpt lat="45.14437" lon="5.92663">
        <ele>1873.75</ele>
        <time>2023-08-10T05:46:13Z</time>
      </trkpt>
      <trkpt lat="45.14438" lon="5.92664">
        <ele>1873.75</ele>
        <time>2023-08-10T05:46:14Z</time>
      </trkpt>
      <trkpt lat="45.14448" lon="5.92667">
        <ele>1871.82</ele>
        <time>2023-08-10T05:46:25Z</time>
      </trkpt>
      <trkpt lat="45.14454" lon="5.92671">
        <ele>1870.86</ele>
        <time>2023-08-10T05:46:35Z</time>
      </trkpt>
      <trkpt lat="45.14461" lon="5.92671">
        <ele>1868.94</ele>
        <time>2023-08-10T05:46:47Z</time>
      </trkpt>
      <trkpt lat="45.14466" lon="5.92672">
        <ele>1867.02</ele>
        <time>2023-08-10T05:46:58Z</time>
      </trkpt>
      <trkpt lat="45.14472" lon="5.92676">
        <ele>1865.58</ele>
        <time>2023-08-10T05:47:09Z</time>
      </trkpt>
      <trkpt lat="45.14477" lon="5.92677">
        <ele>1863.65</ele>
        <time>2023-08-10T05:47:21Z</time>
      </trkpt>
      <trkpt lat="45.14481" lon="5.92683">
        <ele>1860.77</ele>
        <time>2023-08-10T05:47:33Z</time>
      </trkpt>
      <trkpt lat="45.14483" lon="5.92686">
        <ele>1860.29</ele>
        <time>2023-08-10T05:47:38Z</time>
      </trkpt>
      <trkpt lat="45.1449" lon="5.92692">
        <ele>1859.33</ele>
        <time>2023-08-10T05:47:49Z</time>
      </trkpt>
      <trkpt lat="45.14497" lon="5.92697">
        <ele>1857.4</ele>
        <time>2023-08-10T05:48:01Z</time>
      </trkpt>
      <trkpt lat="45.145" lon="5.92707">
        <ele>1855</ele>
        <time>2023-08-10T05:48:14Z</time>
      </trkpt>
      <trkpt lat="45.14503" lon="5.92709">
        <ele>1853.08</ele>
        <time>2023-08-10T05:48:26Z</time>
      </trkpt>
      <trkpt lat="45.1451" lon="5.92712">
        <ele>1851.64</ele>
        <time>2023-08-10T05:48:39Z</time>
      </trkpt>
      <trkpt lat="45.14524" lon="5.92714">
        <ele>1849.71</ele>
        <time>2023-08-10T05:48:51Z</time>
      </trkpt>
      <trkpt lat="45.14533" lon="5.92715">
        <ele>1847.31</ele>
        <time>2023-08-10T05:49:03Z</time>
      </trkpt>
      <trkpt lat="45.14538" lon="5.92717">
        <ele>1846.83</ele>
        <time>2023-08-10T05:49:10Z</time>
      </trkpt>
      <trkpt lat="45.1454" lon="5.92718">
        <ele>1846.83</ele>
        <time>2023-08-10T05:49:13Z</time>
      </trkpt>
      <trkpt lat="45.14544" lon="5.92724">
        <ele>1846.83</ele>
        <time>2023-08-10T05:49:23Z</time>
      </trkpt>
      <trkpt lat="45.14547" lon="5.92734">
        <ele>1846.35</ele>
        <time>2023-08-10T05:49:33Z</time>
      </trkpt>
      <trkpt lat="45.14551" lon="5.92742">
        <ele>1846.35</ele>
        <time>2023-08-10T05:49:43Z</time>
      </trkpt>
      <trkpt lat="45.14554" lon="5.92747">
        <ele>1846.35</ele>
        <time>2023-08-10T05:49:54Z</time>
      </trkpt>
      <trkpt lat="45.14554" lon="5.92752">
        <ele>1846.35</ele>
        <time>2023-08-10T05:50:08Z</time>
      </trkpt>
      <trkpt lat="45.14558" lon="5.92754">
        <ele>1846.35</ele>
        <time>2023-08-10T05:50:16Z</time>
      </trkpt>
      <trkpt lat="45.14562" lon="5.92758">
        <ele>1846.35</ele>
        <time>2023-08-10T05:50:27Z</time>
      </trkpt>
      <trkpt lat="45.14565" lon="5.92765">
        <ele>1844.91</ele>
        <time>2023-08-10T05:50:38Z</time>
      </trkpt>
      <trkpt lat="45.14566" lon="5.92766">
        <ele>1844.43</ele>
        <time>2023-08-10T05:50:42Z</time>
      </trkpt>
      <trkpt lat="45.14566" lon="5.92768">
        <ele>1844.43</ele>
        <time>2023-08-10T05:50:44Z</time>
      </trkpt>
      <trkpt lat="45.14569" lon="5.92778">
        <ele>1843.95</ele>
        <time>2023-08-10T05:50:55Z</time>
      </trkpt>
      <trkpt lat="45.14574" lon="5.92783">
        <ele>1843.47</ele>
        <time>2023-08-10T05:51:07Z</time>
      </trkpt>
      <trkpt lat="45.14574" lon="5.92785">
        <ele>1843.47</ele>
        <time>2023-08-10T05:51:12Z</time>
      </trkpt>
      <trkpt lat="45.14581" lon="5.9278">
        <ele>1844.91</ele>
        <time>2023-08-10T05:51:24Z</time>
      </trkpt>
      <trkpt lat="45.14583" lon="5.92785">
        <ele>1846.35</ele>
        <time>2023-08-10T05:51:37Z</time>
      </trkpt>
      <trkpt lat="45.14584" lon="5.92787">
        <ele>1847.31</ele>
        <time>2023-08-10T05:51:40Z</time>
      </trkpt>
      <trkpt lat="45.14589" lon="5.92798">
        <ele>1849.23</ele>
        <time>2023-08-10T05:51:52Z</time>
      </trkpt>
      <trkpt lat="45.1459" lon="5.92803">
        <ele>1849.23</ele>
        <time>2023-08-10T05:51:57Z</time>
      </trkpt>
      <trkpt lat="45.14594" lon="5.92809">
        <ele>1850.19</ele>
        <time>2023-08-10T05:52:06Z</time>
      </trkpt>
      <trkpt lat="45.14596" lon="5.92814">
        <ele>1850.19</ele>
        <time>2023-08-10T05:52:10Z</time>
      </trkpt>
      <trkpt lat="45.14601" lon="5.92822">
        <ele>1851.64</ele>
        <time>2023-08-10T05:52:24Z</time>
      </trkpt>
      <trkpt lat="45.14605" lon="5.92825">
        <ele>1851.16</ele>
        <time>2023-08-10T05:52:31Z</time>
      </trkpt>
      <trkpt lat="45.1461" lon="5.92832">
        <ele>1851.16</ele>
        <time>2023-08-10T05:52:39Z</time>
      </trkpt>
      <trkpt lat="45.14615" lon="5.92839">
        <ele>1851.64</ele>
        <time>2023-08-10T05:52:52Z</time>
      </trkpt>
      <trkpt lat="45.1462" lon="5.92845">
        <ele>1853.08</ele>
        <time>2023-08-10T05:53:04Z</time>
      </trkpt>
      <trkpt lat="45.14621" lon="5.92846">
        <ele>1854.04</ele>
        <time>2023-08-10T05:53:10Z</time>
      </trkpt>
      <trkpt lat="45.14624" lon="5.92853">
        <ele>1855.48</ele>
        <time>2023-08-10T05:53:21Z</time>
      </trkpt>
      <trkpt lat="45.14627" lon="5.92853">
        <ele>1856.92</ele>
        <time>2023-08-10T05:53:33Z</time>
      </trkpt>
      <trkpt lat="45.1463" lon="5.92852">
        <ele>1858.85</ele>
        <time>2023-08-10T05:53:45Z</time>
      </trkpt>
      <trkpt lat="45.14632" lon="5.92858">
        <ele>1860.29</ele>
        <time>2023-08-10T05:53:59Z</time>
      </trkpt>
      <trkpt lat="45.14634" lon="5.9286">
        <ele>1862.21</ele>
        <time>2023-08-10T05:54:09Z</time>
      </trkpt>
      <trkpt lat="45.14638" lon="5.92862">
        <ele>1864.13</ele>
        <time>2023-08-10T05:54:22Z</time>
      </trkpt>
      <trkpt lat="45.14638" lon="5.92864">
        <ele>1865.58</ele>
        <time>2023-08-10T05:54:36Z</time>
      </trkpt>
      <trkpt lat="45.14639" lon="5.92866">
        <ele>1866.06</ele>
        <time>2023-08-10T05:54:43Z</time>
      </trkpt>
      <trkpt lat="45.1464" lon="5.92871">
        <ele>1867.02</ele>
        <time>2023-08-10T05:54:51Z</time>
      </trkpt>
      <trkpt lat="45.14642" lon="5.92876">
        <ele>1867.98</ele>
        <time>2023-08-10T05:54:55Z</time>
      </trkpt>
      <trkpt lat="45.14646" lon="5.92879">
        <ele>1869.42</ele>
        <time>2023-08-10T05:55:08Z</time>
      </trkpt>
      <trkpt lat="45.14644" lon="5.92877">
        <ele>1870.38</ele>
        <time>2023-08-10T05:55:19Z</time>
      </trkpt>
      <trkpt lat="45.14647" lon="5.92872">
        <ele>1871.82</ele>
        <time>2023-08-10T05:55:41Z</time>
      </trkpt>
      <trkpt lat="45.14652" lon="5.92878">
        <ele>1872.79</ele>
        <time>2023-08-10T05:55:54Z</time>
      </trkpt>
      <trkpt lat="45.14653" lon="5.92874">
        <ele>1874.23</ele>
        <time>2023-08-10T05:56:05Z</time>
      </trkpt>
      <trkpt lat="45.14658" lon="5.92874">
        <ele>1875.19</ele>
        <time>2023-08-10T05:56:17Z</time>
      </trkpt>
      <trkpt lat="45.14661" lon="5.92872">
        <ele>1876.15</ele>
        <time>2023-08-10T05:56:28Z</time>
      </trkpt>
      <trkpt lat="45.14663" lon="5.92872">
        <ele>1876.15</ele>
        <time>2023-08-10T05:56:31Z</time>
      </trkpt>
      <trkpt lat="45.14665" lon="5.92871">
        <ele>1878.07</ele>
        <time>2023-08-10T05:56:41Z</time>
      </trkpt>
      <trkpt lat="45.1467" lon="5.92877">
        <ele>1879.03</ele>
        <time>2023-08-10T05:56:54Z</time>
      </trkpt>
      <trkpt lat="45.14676" lon="5.92881">
        <ele>1880.48</ele>
        <time>2023-08-10T05:57:08Z</time>
      </trkpt>
      <trkpt lat="45.14681" lon="5.92883">
        <ele>1880.96</ele>
        <time>2023-08-10T05:57:17Z</time>
      </trkpt>
      <trkpt lat="45.14688" lon="5.92892">
        <ele>1881.44</ele>
        <time>2023-08-10T05:57:28Z</time>
      </trkpt>
      <trkpt lat="45.14691" lon="5.92895">
        <ele>1883.36</ele>
        <time>2023-08-10T05:57:39Z</time>
      </trkpt>
      <trkpt lat="45.14695" lon="5.92894">
        <ele>1883.36</ele>
        <time>2023-08-10T05:57:51Z</time>
      </trkpt>
      <trkpt lat="45.14696" lon="5.92897">
        <ele>1880.48</ele>
        <time>2023-08-10T06:04:42Z</time>
      </trkpt>
      <trkpt lat="45.14697" lon="5.929">
        <ele>1880.48</ele>
        <time>2023-08-10T06:06:03Z</time>
      </trkpt>
      <trkpt lat="45.14697" lon="5.92901">
        <ele>1880.48</ele>
        <time>2023-08-10T06:06:15Z</time>
      </trkpt>
      <trkpt lat="45.14696" lon="5.92904">
        <ele>1880</ele>
        <time>2023-08-10T06:06:36Z</time>
      </trkpt>
      <trkpt lat="45.14699" lon="5.92908">
        <ele>1880</ele>
        <time>2023-08-10T06:07:04Z</time>
      </trkpt>
      <trkpt lat="45.14699" lon="5.92908">
        <ele>1879.51</ele>
        <time>2023-08-10T06:07:30Z</time>
      </trkpt>
      <trkpt lat="45.147" lon="5.92911">
        <ele>1880.96</ele>
        <time>2023-08-10T06:07:45Z</time>
      </trkpt>
      <trkpt lat="45.14704" lon="5.92913">
        <ele>1881.92</ele>
        <time>2023-08-10T06:08:00Z</time>
      </trkpt>
      <trkpt lat="45.14709" lon="5.92907">
        <ele>1883.36</ele>
        <time>2023-08-10T06:08:13Z</time>
      </trkpt>
      <trkpt lat="45.14713" lon="5.92906">
        <ele>1885.28</ele>
        <time>2023-08-10T06:08:27Z</time>
      </trkpt>
      <trkpt lat="45.14718" lon="5.9291">
        <ele>1887.21</ele>
        <time>2023-08-10T06:08:39Z</time>
      </trkpt>
      <trkpt lat="45.1472" lon="5.92912">
        <ele>1888.65</ele>
        <time>2023-08-10T06:08:51Z</time>
      </trkpt>
      <trkpt lat="45.14722" lon="5.92913">
        <ele>1889.13</ele>
        <time>2023-08-10T06:08:57Z</time>
      </trkpt>
      <trkpt lat="45.14726" lon="5.92908">
        <ele>1891.05</ele>
        <time>2023-08-10T06:09:07Z</time>
      </trkpt>
      <trkpt lat="45.14729" lon="5.92903">
        <ele>1891.53</ele>
        <time>2023-08-10T06:09:14Z</time>
      </trkpt>
      <trkpt lat="45.1473" lon="5.92904">
        <ele>1893.45</ele>
        <time>2023-08-10T06:09:24Z</time>
      </trkpt>
      <trkpt lat="45.14733" lon="5.92911">
        <ele>1894.9</ele>
        <time>2023-08-10T06:09:35Z</time>
      </trkpt>
      <trkpt lat="45.14737" lon="5.92912">
        <ele>1895.38</ele>
        <time>2023-08-10T06:09:42Z</time>
      </trkpt>
      <trkpt lat="45.14744" lon="5.92922">
        <ele>1895.38</ele>
        <time>2023-08-10T06:09:56Z</time>
      </trkpt>
      <trkpt lat="45.14748" lon="5.92931">
        <ele>1895.86</ele>
        <time>2023-08-10T06:10:07Z</time>
      </trkpt>
      <trkpt lat="45.14751" lon="5.92939">
        <ele>1895.86</ele>
        <time>2023-08-10T06:10:17Z</time>
      </trkpt>
      <trkpt lat="45.14753" lon="5.9294">
        <ele>1894.42</ele>
        <time>2023-08-10T06:10:19Z</time>
      </trkpt>
      <trkpt lat="45.14756" lon="5.92948">
        <ele>1895.38</ele>
        <time>2023-08-10T06:10:29Z</time>
      </trkpt>
      <trkpt lat="45.14759" lon="5.92956">
        <ele>1896.82</ele>
        <time>2023-08-10T06:10:40Z</time>
      </trkpt>
      <trkpt lat="45.14768" lon="5.92962">
        <ele>1896.34</ele>
        <time>2023-08-10T06:10:52Z</time>
      </trkpt>
      <trkpt lat="45.14771" lon="5.92975">
        <ele>1896.34</ele>
        <time>2023-08-10T06:11:04Z</time>
      </trkpt>
      <trkpt lat="45.14772" lon="5.92979">
        <ele>1895.38</ele>
        <time>2023-08-10T06:11:09Z</time>
      </trkpt>
      <trkpt lat="45.14775" lon="5.92983">
        <ele>1894.42</ele>
        <time>2023-08-10T06:11:16Z</time>
      </trkpt>
      <trkpt lat="45.14778" lon="5.92992">
        <ele>1893.45</ele>
        <time>2023-08-10T06:11:26Z</time>
      </trkpt>
      <trkpt lat="45.14782" lon="5.93002">
        <ele>1893.45</ele>
        <time>2023-08-10T06:11:37Z</time>
      </trkpt>
      <trkpt lat="45.14782" lon="5.93002">
        <ele>1893.45</ele>
        <time>2023-08-10T06:11:38Z</time>
      </trkpt>
      <trkpt lat="45.14783" lon="5.93009">
        <ele>1894.42</ele>
        <time>2023-08-10T06:11:51Z</time>
      </trkpt>
      <trkpt lat="45.14789" lon="5.9302">
        <ele>1895.86</ele>
        <time>2023-08-10T06:12:06Z</time>
      </trkpt>
      <trkpt lat="45.1479" lon="5.93026">
        <ele>1897.3</ele>
        <time>2023-08-10T06:12:16Z</time>
      </trkpt>
      <trkpt lat="45.14792" lon="5.9303">
        <ele>1898.26</ele>
        <time>2023-08-10T06:12:22Z</time>
      </trkpt>
      <trkpt lat="45.14795" lon="5.9304">
        <ele>1899.7</ele>
        <time>2023-08-10T06:12:35Z</time>
      </trkpt>
      <trkpt lat="45.14801" lon="5.93045">
        <ele>1900.66</ele>
        <time>2023-08-10T06:12:47Z</time>
      </trkpt>
      <trkpt lat="45.14804" lon="5.93054">
        <ele>1901.63</ele>
        <time>2023-08-10T06:12:58Z</time>
      </trkpt>
      <trkpt lat="45.14808" lon="5.93064">
        <ele>1903.07</ele>
        <time>2023-08-10T06:13:09Z</time>
      </trkpt>
      <trkpt lat="45.14813" lon="5.93069">
        <ele>1903.55</ele>
        <time>2023-08-10T06:13:20Z</time>
      </trkpt>
      <trkpt lat="45.14818" lon="5.93076">
        <ele>1905.47</ele>
        <time>2023-08-10T06:13:31Z</time>
      </trkpt>
      <trkpt lat="45.14822" lon="5.93078">
        <ele>1907.39</ele>
        <time>2023-08-10T06:13:42Z</time>
      </trkpt>
      <trkpt lat="45.14827" lon="5.93085">
        <ele>1908.83</ele>
        <time>2023-08-10T06:13:54Z</time>
      </trkpt>
      <trkpt lat="45.14829" lon="5.93086">
        <ele>1908.83</ele>
        <time>2023-08-10T06:13:57Z</time>
      </trkpt>
      <trkpt lat="45.14833" lon="5.93093">
        <ele>1910.76</ele>
        <time>2023-08-10T06:14:10Z</time>
      </trkpt>
      <trkpt lat="45.14834" lon="5.93094">
        <ele>1912.2</ele>
        <time>2023-08-10T06:14:23Z</time>
      </trkpt>
      <trkpt lat="45.14834" lon="5.93099">
        <ele>1913.64</ele>
        <time>2023-08-10T06:14:32Z</time>
      </trkpt>
      <trkpt lat="45.14837" lon="5.93101">
        <ele>1915.56</ele>
        <time>2023-08-10T06:14:43Z</time>
      </trkpt>
      <trkpt lat="45.14839" lon="5.93104">
        <ele>1917.01</ele>
        <time>2023-08-10T06:14:56Z</time>
      </trkpt>
      <trkpt lat="45.14841" lon="5.93106">
        <ele>1918.45</ele>
        <time>2023-08-10T06:15:09Z</time>
      </trkpt>
      <trkpt lat="45.14843" lon="5.93107">
        <ele>1919.89</ele>
        <time>2023-08-10T06:15:18Z</time>
      </trkpt>
      <trkpt lat="45.14844" lon="5.93109">
        <ele>1920.37</ele>
        <time>2023-08-10T06:15:27Z</time>
      </trkpt>
      <trkpt lat="45.14843" lon="5.93116">
        <ele>1922.29</ele>
        <time>2023-08-10T06:15:41Z</time>
      </trkpt>
      <trkpt lat="45.14841" lon="5.93121">
        <ele>1923.74</ele>
        <time>2023-08-10T06:15:52Z</time>
      </trkpt>
      <trkpt lat="45.1484" lon="5.93129">
        <ele>1925.66</ele>
        <time>2023-08-10T06:16:04Z</time>
      </trkpt>
      <trkpt lat="45.14838" lon="5.93132">
        <ele>1926.62</ele>
        <time>2023-08-10T06:16:15Z</time>
      </trkpt>
      <trkpt lat="45.14837" lon="5.93141">
        <ele>1928.06</ele>
        <time>2023-08-10T06:16:33Z</time>
      </trkpt>
      <trkpt lat="45.14833" lon="5.93149">
        <ele>1930.46</ele>
        <time>2023-08-10T06:16:46Z</time>
      </trkpt>
      <trkpt lat="45.1483" lon="5.93155">
        <ele>1931.91</ele>
        <time>2023-08-10T06:16:57Z</time>
      </trkpt>
      <trkpt lat="45.14828" lon="5.9316">
        <ele>1933.35</ele>
        <time>2023-08-10T06:17:09Z</time>
      </trkpt>
      <trkpt lat="45.14828" lon="5.93163">
        <ele>1934.79</ele>
        <time>2023-08-10T06:17:20Z</time>
      </trkpt>
      <trkpt lat="45.14829" lon="5.93166">
        <ele>1936.23</ele>
        <time>2023-08-10T06:17:30Z</time>
      </trkpt>
      <trkpt lat="45.14831" lon="5.9317">
        <ele>1937.67</ele>
        <time>2023-08-10T06:17:40Z</time>
      </trkpt>
      <trkpt lat="45.14837" lon="5.93165">
        <ele>1937.67</ele>
        <time>2023-08-10T06:17:52Z</time>
      </trkpt>
      <trkpt lat="45.1484" lon="5.93161">
        <ele>1937.67</ele>
        <time>2023-08-10T06:18:04Z</time>
      </trkpt>
      <trkpt lat="45.14842" lon="5.9316">
        <ele>1937.67</ele>
        <time>2023-08-10T06:18:09Z</time>
      </trkpt>
      <trkpt lat="45.14846" lon="5.93157">
        <ele>1939.12</ele>
        <time>2023-08-10T06:18:19Z</time>
      </trkpt>
      <trkpt lat="45.1485" lon="5.93151">
        <ele>1940.56</ele>
        <time>2023-08-10T06:18:31Z</time>
      </trkpt>
      <trkpt lat="45.14855" lon="5.93152">
        <ele>1941.04</ele>
        <time>2023-08-10T06:18:37Z</time>
      </trkpt>
      <trkpt lat="45.14862" lon="5.93154">
        <ele>1942</ele>
        <time>2023-08-10T06:18:45Z</time>
      </trkpt>
      <trkpt lat="45.14868" lon="5.93151">
        <ele>1942.96</ele>
        <time>2023-08-10T06:18:57Z</time>
      </trkpt>
      <trkpt lat="45.14871" lon="5.93143">
        <ele>1944.4</ele>
        <time>2023-08-10T06:19:11Z</time>
      </trkpt>
      <trkpt lat="45.14873" lon="5.93137">
        <ele>1945.36</ele>
        <time>2023-08-10T06:19:22Z</time>
      </trkpt>
      <trkpt lat="45.14875" lon="5.93141">
        <ele>1946.81</ele>
        <time>2023-08-10T06:19:35Z</time>
      </trkpt>
      <trkpt lat="45.14876" lon="5.93141">
        <ele>1947.29</ele>
        <time>2023-08-10T06:19:40Z</time>
      </trkpt>
      <trkpt lat="45.14879" lon="5.93145">
        <ele>1948.73</ele>
        <time>2023-08-10T06:19:52Z</time>
      </trkpt>
      <trkpt lat="45.14882" lon="5.93152">
        <ele>1950.17</ele>
        <time>2023-08-10T06:20:04Z</time>
      </trkpt>
      <trkpt lat="45.14883" lon="5.93152">
        <ele>1950.17</ele>
        <time>2023-08-10T06:20:06Z</time>
      </trkpt>
      <trkpt lat="45.14886" lon="5.93156">
        <ele>1951.61</ele>
        <time>2023-08-10T06:20:16Z</time>
      </trkpt>
      <trkpt lat="45.14887" lon="5.93163">
        <ele>1953.06</ele>
        <time>2023-08-10T06:20:28Z</time>
      </trkpt>
      <trkpt lat="45.14888" lon="5.93165">
        <ele>1954.5</ele>
        <time>2023-08-10T06:20:38Z</time>
      </trkpt>
      <trkpt lat="45.14889" lon="5.93169">
        <ele>1954.98</ele>
        <time>2023-08-10T06:20:43Z</time>
      </trkpt>
      <trkpt lat="45.14891" lon="5.93171">
        <ele>1956.42</ele>
        <time>2023-08-10T06:20:55Z</time>
      </trkpt>
      <trkpt lat="45.14894" lon="5.93171">
        <ele>1957.86</ele>
        <time>2023-08-10T06:21:09Z</time>
      </trkpt>
      <trkpt lat="45.14895" lon="5.93167">
        <ele>1958.82</ele>
        <time>2023-08-10T06:21:22Z</time>
      </trkpt>
      <trkpt lat="45.14896" lon="5.93168">
        <ele>1958.82</ele>
        <time>2023-08-10T06:21:48Z</time>
      </trkpt>
      <trkpt lat="45.14897" lon="5.93166">
        <ele>1958.82</ele>
        <time>2023-08-10T06:22:08Z</time>
      </trkpt>
      <trkpt lat="45.14899" lon="5.93161">
        <ele>1960.75</ele>
        <time>2023-08-10T06:22:21Z</time>
      </trkpt>
      <trkpt lat="45.149" lon="5.93165">
        <ele>1962.19</ele>
        <time>2023-08-10T06:22:31Z</time>
      </trkpt>
      <trkpt lat="45.14902" lon="5.93171">
        <ele>1963.63</ele>
        <time>2023-08-10T06:22:42Z</time>
      </trkpt>
      <trkpt lat="45.14901" lon="5.9317">
        <ele>1964.59</ele>
        <time>2023-08-10T06:22:54Z</time>
      </trkpt>
      <trkpt lat="45.14902" lon="5.93171">
        <ele>1964.59</ele>
        <time>2023-08-10T06:22:55Z</time>
      </trkpt>
      <trkpt lat="45.14902" lon="5.93181">
        <ele>1966.51</ele>
        <time>2023-08-10T06:23:08Z</time>
      </trkpt>
      <trkpt lat="45.14904" lon="5.9319">
        <ele>1968.44</ele>
        <time>2023-08-10T06:23:23Z</time>
      </trkpt>
      <trkpt lat="45.14905" lon="5.93195">
        <ele>1969.4</ele>
        <time>2023-08-10T06:23:34Z</time>
      </trkpt>
      <trkpt lat="45.14909" lon="5.93196">
        <ele>1970.36</ele>
        <time>2023-08-10T06:23:47Z</time>
      </trkpt>
      <trkpt lat="45.14908" lon="5.93203">
        <ele>1972.28</ele>
        <time>2023-08-10T06:23:59Z</time>
      </trkpt>
      <trkpt lat="45.14909" lon="5.93207">
        <ele>1973.72</ele>
        <time>2023-08-10T06:24:09Z</time>
      </trkpt>
      <trkpt lat="45.14911" lon="5.93212">
        <ele>1975.17</ele>
        <time>2023-08-10T06:24:22Z</time>
      </trkpt>
      <trkpt lat="45.14911" lon="5.93219">
        <ele>1977.09</ele>
        <time>2023-08-10T06:24:36Z</time>
      </trkpt>
      <trkpt lat="45.14915" lon="5.93218">
        <ele>1978.53</ele>
        <time>2023-08-10T06:24:48Z</time>
      </trkpt>
      <trkpt lat="45.14921" lon="5.93214">
        <ele>1979.49</ele>
        <time>2023-08-10T06:25:01Z</time>
      </trkpt>
      <trkpt lat="45.14925" lon="5.93211">
        <ele>1981.41</ele>
        <time>2023-08-10T06:25:14Z</time>
      </trkpt>
      <trkpt lat="45.14925" lon="5.9322">
        <ele>1982.86</ele>
        <time>2023-08-10T06:25:27Z</time>
      </trkpt>
      <trkpt lat="45.14934" lon="5.93227">
        <ele>1983.34</ele>
        <time>2023-08-10T06:25:41Z</time>
      </trkpt>
      <trkpt lat="45.14938" lon="5.93235">
        <ele>1983.82</ele>
        <time>2023-08-10T06:25:51Z</time>
      </trkpt>
      <trkpt lat="45.14941" lon="5.93242">
        <ele>1984.78</ele>
        <time>2023-08-10T06:25:58Z</time>
      </trkpt>
      <trkpt lat="45.14945" lon="5.93249">
        <ele>1986.22</ele>
        <time>2023-08-10T06:26:11Z</time>
      </trkpt>
      <trkpt lat="45.14948" lon="5.93255">
        <ele>1987.18</ele>
        <time>2023-08-10T06:26:21Z</time>
      </trkpt>
      <trkpt lat="45.14949" lon="5.93259">
        <ele>1988.14</ele>
        <time>2023-08-10T06:26:27Z</time>
      </trkpt>
      <trkpt lat="45.14952" lon="5.93266">
        <ele>1989.1</ele>
        <time>2023-08-10T06:26:37Z</time>
      </trkpt>
      <trkpt lat="45.14953" lon="5.93268">
        <ele>1989.59</ele>
        <time>2023-08-10T06:26:39Z</time>
      </trkpt>
      <trkpt lat="45.14957" lon="5.93273">
        <ele>1990.55</ele>
        <time>2023-08-10T06:26:50Z</time>
      </trkpt>
      <trkpt lat="45.1496" lon="5.93269">
        <ele>1991.99</ele>
        <time>2023-08-10T06:27:05Z</time>
      </trkpt>
      <trkpt lat="45.1497" lon="5.93273">
        <ele>1993.43</ele>
        <time>2023-08-10T06:27:19Z</time>
      </trkpt>
      <trkpt lat="45.14978" lon="5.93275">
        <ele>1994.87</ele>
        <time>2023-08-10T06:27:33Z</time>
      </trkpt>
      <trkpt lat="45.14985" lon="5.93276">
        <ele>1996.32</ele>
        <time>2023-08-10T06:27:45Z</time>
      </trkpt>
      <trkpt lat="45.14989" lon="5.93277">
        <ele>1996.8</ele>
        <time>2023-08-10T06:27:51Z</time>
      </trkpt>
      <trkpt lat="45.14998" lon="5.93273">
        <ele>1997.76</ele>
        <time>2023-08-10T06:28:02Z</time>
      </trkpt>
      <trkpt lat="45.15002" lon="5.93262">
        <ele>1997.76</ele>
        <time>2023-08-10T06:28:13Z</time>
      </trkpt>
      <trkpt lat="45.15003" lon="5.93261">
        <ele>1997.76</ele>
        <time>2023-08-10T06:28:14Z</time>
      </trkpt>
      <trkpt lat="45.15005" lon="5.93253">
        <ele>1997.76</ele>
        <time>2023-08-10T06:28:20Z</time>
      </trkpt>
      <trkpt lat="45.15008" lon="5.93248">
        <ele>1997.76</ele>
        <time>2023-08-10T06:28:25Z</time>
      </trkpt>
      <trkpt lat="45.15012" lon="5.93234">
        <ele>1998.72</ele>
        <time>2023-08-10T06:28:36Z</time>
      </trkpt>
      <trkpt lat="45.15016" lon="5.93226">
        <ele>1999.2</ele>
        <time>2023-08-10T06:28:44Z</time>
      </trkpt>
      <trkpt lat="45.15022" lon="5.93212">
        <ele>2000.16</ele>
        <time>2023-08-10T06:28:56Z</time>
      </trkpt>
      <trkpt lat="45.15027" lon="5.93202">
        <ele>2001.6</ele>
        <time>2023-08-10T06:29:08Z</time>
      </trkpt>
      <trkpt lat="45.15031" lon="5.93196">
        <ele>2003.04</ele>
        <time>2023-08-10T06:29:20Z</time>
      </trkpt>
      <trkpt lat="45.15036" lon="5.93191">
        <ele>2004.01</ele>
        <time>2023-08-10T06:29:29Z</time>
      </trkpt>
      <trkpt lat="45.15042" lon="5.93186">
        <ele>2004.97</ele>
        <time>2023-08-10T06:29:40Z</time>
      </trkpt>
      <trkpt lat="45.15043" lon="5.93186">
        <ele>2006.41</ele>
        <time>2023-08-10T06:29:52Z</time>
      </trkpt>
      <trkpt lat="45.15042" lon="5.93194">
        <ele>2008.33</ele>
        <time>2023-08-10T06:30:04Z</time>
      </trkpt>
      <trkpt lat="45.15044" lon="5.93202">
        <ele>2009.77</ele>
        <time>2023-08-10T06:30:15Z</time>
      </trkpt>
      <trkpt lat="45.15046" lon="5.9321">
        <ele>2010.73</ele>
        <time>2023-08-10T06:30:27Z</time>
      </trkpt>
      <trkpt lat="45.15047" lon="5.93213">
        <ele>2011.22</ele>
        <time>2023-08-10T06:30:32Z</time>
      </trkpt>
      <trkpt lat="45.15051" lon="5.93223">
        <ele>2012.66</ele>
        <time>2023-08-10T06:30:44Z</time>
      </trkpt>
      <trkpt lat="45.15057" lon="5.93226">
        <ele>2014.58</ele>
        <time>2023-08-10T06:30:57Z</time>
      </trkpt>
      <trkpt lat="45.1506" lon="5.9323">
        <ele>2015.54</ele>
        <time>2023-08-10T06:31:09Z</time>
      </trkpt>
      <trkpt lat="45.15059" lon="5.93236">
        <ele>2016.02</ele>
        <time>2023-08-10T06:31:23Z</time>
      </trkpt>
      <trkpt lat="45.15059" lon="5.93246">
        <ele>2017.46</ele>
        <time>2023-08-10T06:31:35Z</time>
      </trkpt>
      <trkpt lat="45.15061" lon="5.93255">
        <ele>2017.94</ele>
        <time>2023-08-10T06:31:45Z</time>
      </trkpt>
      <trkpt lat="45.15064" lon="5.93266">
        <ele>2018.91</ele>
        <time>2023-08-10T06:31:58Z</time>
      </trkpt>
      <trkpt lat="45.15067" lon="5.93277">
        <ele>2019.87</ele>
        <time>2023-08-10T06:32:10Z</time>
      </trkpt>
      <trkpt lat="45.1507" lon="5.93286">
        <ele>2020.83</ele>
        <time>2023-08-10T06:32:22Z</time>
      </trkpt>
      <trkpt lat="45.15071" lon="5.9329">
        <ele>2021.31</ele>
        <time>2023-08-10T06:32:26Z</time>
      </trkpt>
      <trkpt lat="45.15074" lon="5.93298">
        <ele>2022.75</ele>
        <time>2023-08-10T06:32:37Z</time>
      </trkpt>
      <trkpt lat="45.15078" lon="5.93306">
        <ele>2024.19</ele>
        <time>2023-08-10T06:32:50Z</time>
      </trkpt>
      <trkpt lat="45.15079" lon="5.93312">
        <ele>2025.15</ele>
        <time>2023-08-10T06:33:01Z</time>
      </trkpt>
      <trkpt lat="45.15079" lon="5.93316">
        <ele>2026.6</ele>
        <time>2023-08-10T06:33:15Z</time>
      </trkpt>
      <trkpt lat="45.15078" lon="5.93316">
        <ele>2026.6</ele>
        <time>2023-08-10T06:33:16Z</time>
      </trkpt>
      <trkpt lat="45.15075" lon="5.93319">
        <ele>2028.52</ele>
        <time>2023-08-10T06:33:26Z</time>
      </trkpt>
      <trkpt lat="45.15074" lon="5.93325">
        <ele>2029.96</ele>
        <time>2023-08-10T06:33:39Z</time>
      </trkpt>
      <trkpt lat="45.15074" lon="5.93331">
        <ele>2031.4</ele>
        <time>2023-08-10T06:33:51Z</time>
      </trkpt>
      <trkpt lat="45.15074" lon="5.93339">
        <ele>2032.36</ele>
        <time>2023-08-10T06:34:04Z</time>
      </trkpt>
      <trkpt lat="45.15076" lon="5.93344">
        <ele>2033.81</ele>
        <time>2023-08-10T06:34:16Z</time>
      </trkpt>
      <trkpt lat="45.15079" lon="5.93349">
        <ele>2034.77</ele>
        <time>2023-08-10T06:34:23Z</time>
      </trkpt>
      <trkpt lat="45.1508" lon="5.93351">
        <ele>2035.25</ele>
        <time>2023-08-10T06:34:25Z</time>
      </trkpt>
      <trkpt lat="45.15083" lon="5.9336">
        <ele>2036.69</ele>
        <time>2023-08-10T06:34:39Z</time>
      </trkpt>
      <trkpt lat="45.15084" lon="5.93363">
        <ele>2037.17</ele>
        <time>2023-08-10T06:34:43Z</time>
      </trkpt>
      <trkpt lat="45.15086" lon="5.93368">
        <ele>2038.61</ele>
        <time>2023-08-10T06:34:51Z</time>
      </trkpt>
      <trkpt lat="45.15087" lon="5.93371">
        <ele>2039.09</ele>
        <time>2023-08-10T06:35:04Z</time>
      </trkpt>
      <trkpt lat="45.15089" lon="5.93375">
        <ele>2040.05</ele>
        <time>2023-08-10T06:35:21Z</time>
      </trkpt>
      <trkpt lat="45.15093" lon="5.9338">
        <ele>2041.98</ele>
        <time>2023-08-10T06:35:34Z</time>
      </trkpt>
      <trkpt lat="45.15094" lon="5.93385">
        <ele>2042.46</ele>
        <time>2023-08-10T06:35:40Z</time>
      </trkpt>
      <trkpt lat="45.151" lon="5.9339">
        <ele>2043.9</ele>
        <time>2023-08-10T06:35:53Z</time>
      </trkpt>
      <trkpt lat="45.15104" lon="5.93394">
        <ele>2043.9</ele>
        <time>2023-08-10T06:36:00Z</time>
      </trkpt>
      <trkpt lat="45.15109" lon="5.93393">
        <ele>2042.94</ele>
        <time>2023-08-10T06:36:10Z</time>
      </trkpt>
      <trkpt lat="45.15109" lon="5.93393">
        <ele>2042.94</ele>
        <time>2023-08-10T06:36:11Z</time>
      </trkpt>
      <trkpt lat="45.15114" lon="5.93392">
        <ele>2042.94</ele>
        <time>2023-08-10T06:36:23Z</time>
      </trkpt>
      <trkpt lat="45.15117" lon="5.9339">
        <ele>2042.46</ele>
        <time>2023-08-10T06:36:36Z</time>
      </trkpt>
      <trkpt lat="45.15118" lon="5.93389">
        <ele>2041.98</ele>
        <time>2023-08-10T06:37:14Z</time>
      </trkpt>
      <trkpt lat="45.15118" lon="5.93389">
        <ele>2041.98</ele>
        <time>2023-08-10T06:37:56Z</time>
      </trkpt>
      <trkpt lat="45.15118" lon="5.93388">
        <ele>2041.98</ele>
        <time>2023-08-10T06:38:33Z</time>
      </trkpt>
      <trkpt lat="45.15118" lon="5.93388">
        <ele>2041.98</ele>
        <time>2023-08-10T06:39:06Z</time>
      </trkpt>
      <trkpt lat="45.15119" lon="5.93389">
        <ele>2041.98</ele>
        <time>2023-08-10T06:39:23Z</time>
      </trkpt>
      <trkpt lat="45.15123" lon="5.93395">
        <ele>2041.5</ele>
        <time>2023-08-10T06:39:35Z</time>
      </trkpt>
      <trkpt lat="45.15124" lon="5.93398">
        <ele>2041.5</ele>
        <time>2023-08-10T06:39:38Z</time>
      </trkpt>
      <trkpt lat="45.15129" lon="5.93404">
        <ele>2039.57</ele>
        <time>2023-08-10T06:39:48Z</time>
      </trkpt>
      <trkpt lat="45.15132" lon="5.93406">
        <ele>2039.09</ele>
        <time>2023-08-10T06:39:51Z</time>
      </trkpt>
      <trkpt lat="45.15139" lon="5.93414">
        <ele>2038.13</ele>
        <time>2023-08-10T06:40:03Z</time>
      </trkpt>
      <trkpt lat="45.15145" lon="5.93422">
        <ele>2036.69</ele>
        <time>2023-08-10T06:40:15Z</time>
      </trkpt>
      <trkpt lat="45.15145" lon="5.93423">
        <ele>2036.69</ele>
        <time>2023-08-10T06:40:16Z</time>
      </trkpt>
      <trkpt lat="45.1515" lon="5.93431">
        <ele>2035.25</ele>
        <time>2023-08-10T06:40:28Z</time>
      </trkpt>
      <trkpt lat="45.15152" lon="5.93433">
        <ele>2034.29</ele>
        <time>2023-08-10T06:40:33Z</time>
      </trkpt>
      <trkpt lat="45.15155" lon="5.93434">
        <ele>2034.29</ele>
        <time>2023-08-10T06:40:37Z</time>
      </trkpt>
      <trkpt lat="45.15156" lon="5.93437">
        <ele>2033.33</ele>
        <time>2023-08-10T06:40:41Z</time>
      </trkpt>
      <trkpt lat="45.15161" lon="5.93438">
        <ele>2031.88</ele>
        <time>2023-08-10T06:40:49Z</time>
      </trkpt>
      <trkpt lat="45.15163" lon="5.93439">
        <ele>2031.4</ele>
        <time>2023-08-10T06:40:51Z</time>
      </trkpt>
      <trkpt lat="45.15165" lon="5.9344">
        <ele>2031.4</ele>
        <time>2023-08-10T06:40:54Z</time>
      </trkpt>
      <trkpt lat="45.15171" lon="5.9344">
        <ele>2030.92</ele>
        <time>2023-08-10T06:41:01Z</time>
      </trkpt>
      <trkpt lat="45.15175" lon="5.9344">
        <ele>2030.44</ele>
        <time>2023-08-10T06:41:05Z</time>
      </trkpt>
      <trkpt lat="45.15188" lon="5.93446">
        <ele>2029.96</ele>
        <time>2023-08-10T06:41:19Z</time>
      </trkpt>
      <trkpt lat="45.15191" lon="5.93448">
        <ele>2029.96</ele>
        <time>2023-08-10T06:41:23Z</time>
      </trkpt>
      <trkpt lat="45.15193" lon="5.93448">
        <ele>2029.48</ele>
        <time>2023-08-10T06:41:25Z</time>
      </trkpt>
      <trkpt lat="45.152" lon="5.93457">
        <ele>2029</ele>
        <time>2023-08-10T06:41:35Z</time>
      </trkpt>
      <trkpt lat="45.15209" lon="5.93462">
        <ele>2028.52</ele>
        <time>2023-08-10T06:41:47Z</time>
      </trkpt>
      <trkpt lat="45.15212" lon="5.93462">
        <ele>2028.52</ele>
        <time>2023-08-10T06:41:52Z</time>
      </trkpt>
      <trkpt lat="45.15217" lon="5.93466">
        <ele>2028.52</ele>
        <time>2023-08-10T06:41:59Z</time>
      </trkpt>
      <trkpt lat="45.15219" lon="5.93467">
        <ele>2028.04</ele>
        <time>2023-08-10T06:42:02Z</time>
      </trkpt>
      <trkpt lat="45.15222" lon="5.93471">
        <ele>2027.08</ele>
        <time>2023-08-10T06:42:08Z</time>
      </trkpt>
      <trkpt lat="45.15223" lon="5.93478">
        <ele>2027.56</ele>
        <time>2023-08-10T06:42:17Z</time>
      </trkpt>
      <trkpt lat="45.15224" lon="5.93484">
        <ele>2027.56</ele>
        <time>2023-08-10T06:42:22Z</time>
      </trkpt>
      <trkpt lat="45.15225" lon="5.93496">
        <ele>2026.6</ele>
        <time>2023-08-10T06:42:37Z</time>
      </trkpt>
      <trkpt lat="45.15226" lon="5.93506">
        <ele>2026.6</ele>
        <time>2023-08-10T06:42:51Z</time>
      </trkpt>
      <trkpt lat="45.15229" lon="5.93513">
        <ele>2026.6</ele>
        <time>2023-08-10T06:42:57Z</time>
      </trkpt>
      <trkpt lat="45.15233" lon="5.9352">
        <ele>2026.6</ele>
        <time>2023-08-10T06:43:04Z</time>
      </trkpt>
      <trkpt lat="45.15237" lon="5.9353">
        <ele>2026.6</ele>
        <time>2023-08-10T06:43:13Z</time>
      </trkpt>
      <trkpt lat="45.15243" lon="5.9354">
        <ele>2027.56</ele>
        <time>2023-08-10T06:43:25Z</time>
      </trkpt>
      <trkpt lat="45.15245" lon="5.93542">
        <ele>2027.56</ele>
        <time>2023-08-10T06:43:27Z</time>
      </trkpt>
      <trkpt lat="45.15255" lon="5.93543">
        <ele>2028.04</ele>
        <time>2023-08-10T06:43:38Z</time>
      </trkpt>
      <trkpt lat="45.15256" lon="5.93545">
        <ele>2028.04</ele>
        <time>2023-08-10T06:43:42Z</time>
      </trkpt>
      <trkpt lat="45.15259" lon="5.93554">
        <ele>2029</ele>
        <time>2023-08-10T06:43:55Z</time>
      </trkpt>
      <trkpt lat="45.1526" lon="5.93557">
        <ele>2030.44</ele>
        <time>2023-08-10T06:44:03Z</time>
      </trkpt>
      <trkpt lat="45.1526" lon="5.9357">
        <ele>2030.92</ele>
        <time>2023-08-10T06:44:13Z</time>
      </trkpt>
      <trkpt lat="45.15259" lon="5.93574">
        <ele>2031.4</ele>
        <time>2023-08-10T06:44:28Z</time>
      </trkpt>
      <trkpt lat="45.15264" lon="5.93582">
        <ele>2032.84</ele>
        <time>2023-08-10T06:44:39Z</time>
      </trkpt>
      <trkpt lat="45.1527" lon="5.93586">
        <ele>2033.81</ele>
        <time>2023-08-10T06:44:50Z</time>
      </trkpt>
      <trkpt lat="45.15275" lon="5.9359">
        <ele>2034.77</ele>
        <time>2023-08-10T06:45:00Z</time>
      </trkpt>
      <trkpt lat="45.15278" lon="5.93594">
        <ele>2035.73</ele>
        <time>2023-08-10T06:45:10Z</time>
      </trkpt>
      <trkpt lat="45.15279" lon="5.93597">
        <ele>2035.73</ele>
        <time>2023-08-10T06:45:14Z</time>
      </trkpt>
      <trkpt lat="45.15285" lon="5.93608">
        <ele>2035.73</ele>
        <time>2023-08-10T06:45:26Z</time>
      </trkpt>
      <trkpt lat="45.15286" lon="5.93616">
        <ele>2037.17</ele>
        <time>2023-08-10T06:45:38Z</time>
      </trkpt>
      <trkpt lat="45.15291" lon="5.93622">
        <ele>2038.61</ele>
        <time>2023-08-10T06:45:49Z</time>
      </trkpt>
      <trkpt lat="45.15295" lon="5.93627">
        <ele>2039.57</ele>
        <time>2023-08-10T06:46:00Z</time>
      </trkpt>
      <trkpt lat="45.15301" lon="5.93631">
        <ele>2041.02</ele>
        <time>2023-08-10T06:46:11Z</time>
      </trkpt>
      <trkpt lat="45.15309" lon="5.93633">
        <ele>2041.98</ele>
        <time>2023-08-10T06:46:22Z</time>
      </trkpt>
      <trkpt lat="45.15311" lon="5.93634">
        <ele>2041.98</ele>
        <time>2023-08-10T06:46:24Z</time>
      </trkpt>
      <trkpt lat="45.15315" lon="5.9364">
        <ele>2041.98</ele>
        <time>2023-08-10T06:46:31Z</time>
      </trkpt>
      <trkpt lat="45.15318" lon="5.93644">
        <ele>2041.98</ele>
        <time>2023-08-10T06:46:35Z</time>
      </trkpt>
      <trkpt lat="45.15329" lon="5.93651">
        <ele>2042.46</ele>
        <time>2023-08-10T06:46:47Z</time>
      </trkpt>
      <trkpt lat="45.15334" lon="5.93657">
        <ele>2042.46</ele>
        <time>2023-08-10T06:46:55Z</time>
      </trkpt>
      <trkpt lat="45.15334" lon="5.9366">
        <ele>2042.46</ele>
        <time>2023-08-10T06:46:57Z</time>
      </trkpt>
      <trkpt lat="45.15338" lon="5.93668">
        <ele>2041.5</ele>
        <time>2023-08-10T06:47:05Z</time>
      </trkpt>
      <trkpt lat="45.15345" lon="5.93682">
        <ele>2039.57</ele>
        <time>2023-08-10T06:47:18Z</time>
      </trkpt>
      <trkpt lat="45.15346" lon="5.93685">
        <ele>2039.57</ele>
        <time>2023-08-10T06:47:20Z</time>
      </trkpt>
      <trkpt lat="45.15346" lon="5.93688">
        <ele>2039.57</ele>
        <time>2023-08-10T06:47:22Z</time>
      </trkpt>
      <trkpt lat="45.15352" lon="5.93696">
        <ele>2039.09</ele>
        <time>2023-08-10T06:47:34Z</time>
      </trkpt>
      <trkpt lat="45.15356" lon="5.93702">
        <ele>2039.09</ele>
        <time>2023-08-10T06:47:40Z</time>
      </trkpt>
      <trkpt lat="45.15356" lon="5.93704">
        <ele>2038.61</ele>
        <time>2023-08-10T06:47:42Z</time>
      </trkpt>
      <trkpt lat="45.15359" lon="5.93707">
        <ele>2038.13</ele>
        <time>2023-08-10T06:47:45Z</time>
      </trkpt>
      <trkpt lat="45.1536" lon="5.9371">
        <ele>2038.13</ele>
        <time>2023-08-10T06:47:48Z</time>
      </trkpt>
      <trkpt lat="45.15362" lon="5.93715">
        <ele>2038.13</ele>
        <time>2023-08-10T06:47:52Z</time>
      </trkpt>
      <trkpt lat="45.15367" lon="5.93722">
        <ele>2039.57</ele>
        <time>2023-08-10T06:48:02Z</time>
      </trkpt>
      <trkpt lat="45.15372" lon="5.93727">
        <ele>2041.5</ele>
        <time>2023-08-10T06:48:14Z</time>
      </trkpt>
      <trkpt lat="45.15377" lon="5.9373">
        <ele>2042.94</ele>
        <time>2023-08-10T06:48:26Z</time>
      </trkpt>
      <trkpt lat="45.15377" lon="5.93738">
        <ele>2043.9</ele>
        <time>2023-08-10T06:48:33Z</time>
      </trkpt>
      <trkpt lat="45.15383" lon="5.93744">
        <ele>2045.34</ele>
        <time>2023-08-10T06:48:46Z</time>
      </trkpt>
      <trkpt lat="45.15387" lon="5.93748">
        <ele>2046.78</ele>
        <time>2023-08-10T06:49:00Z</time>
      </trkpt>
      <trkpt lat="45.15392" lon="5.93752">
        <ele>2048.23</ele>
        <time>2023-08-10T06:49:14Z</time>
      </trkpt>
      <trkpt lat="45.15394" lon="5.93758">
        <ele>2049.19</ele>
        <time>2023-08-10T06:49:25Z</time>
      </trkpt>
      <trkpt lat="45.15395" lon="5.93767">
        <ele>2047.26</ele>
        <time>2023-08-10T06:49:36Z</time>
      </trkpt>
      <trkpt lat="45.15395" lon="5.93769">
        <ele>2047.26</ele>
        <time>2023-08-10T06:49:37Z</time>
      </trkpt>
      <trkpt lat="45.15397" lon="5.93771">
        <ele>2046.78</ele>
        <time>2023-08-10T06:49:39Z</time>
      </trkpt>
      <trkpt lat="45.15401" lon="5.93781">
        <ele>2046.3</ele>
        <time>2023-08-10T06:49:48Z</time>
      </trkpt>
      <trkpt lat="45.15405" lon="5.93797">
        <ele>2045.82</ele>
        <time>2023-08-10T06:50:00Z</time>
      </trkpt>
      <trkpt lat="45.15406" lon="5.93799">
        <ele>2045.82</ele>
        <time>2023-08-10T06:50:02Z</time>
      </trkpt>
      <trkpt lat="45.15406" lon="5.93804">
        <ele>2045.82</ele>
        <time>2023-08-10T06:50:08Z</time>
      </trkpt>
      <trkpt lat="45.15411" lon="5.93816">
        <ele>2045.82</ele>
        <time>2023-08-10T06:50:21Z</time>
      </trkpt>
      <trkpt lat="45.15414" lon="5.93821">
        <ele>2045.82</ele>
        <time>2023-08-10T06:50:26Z</time>
      </trkpt>
      <trkpt lat="45.1542" lon="5.9383">
        <ele>2047.26</ele>
        <time>2023-08-10T06:50:38Z</time>
      </trkpt>
      <trkpt lat="45.15424" lon="5.93836">
        <ele>2048.23</ele>
        <time>2023-08-10T06:50:50Z</time>
      </trkpt>
      <trkpt lat="45.15425" lon="5.93842">
        <ele>2048.23</ele>
        <time>2023-08-10T06:51:01Z</time>
      </trkpt>
      <trkpt lat="45.15429" lon="5.93846">
        <ele>2049.19</ele>
        <time>2023-08-10T06:51:24Z</time>
      </trkpt>
      <trkpt lat="45.1543" lon="5.93847">
        <ele>2049.19</ele>
        <time>2023-08-10T06:51:26Z</time>
      </trkpt>
      <trkpt lat="45.15435" lon="5.93852">
        <ele>2049.67</ele>
        <time>2023-08-10T06:51:37Z</time>
      </trkpt>
      <trkpt lat="45.15438" lon="5.93853">
        <ele>2049.67</ele>
        <time>2023-08-10T06:51:41Z</time>
      </trkpt>
      <trkpt lat="45.15443" lon="5.93858">
        <ele>2051.11</ele>
        <time>2023-08-10T06:51:51Z</time>
      </trkpt>
      <trkpt lat="45.15442" lon="5.93861">
        <ele>2051.11</ele>
        <time>2023-08-10T06:52:03Z</time>
      </trkpt>
      <trkpt lat="45.15442" lon="5.93861">
        <ele>2051.11</ele>
        <time>2023-08-10T06:52:04Z</time>
      </trkpt>
      <trkpt lat="45.15444" lon="5.93866">
        <ele>2050.15</ele>
        <time>2023-08-10T06:52:11Z</time>
      </trkpt>
      <trkpt lat="45.15448" lon="5.93876">
        <ele>2049.19</ele>
        <time>2023-08-10T06:52:22Z</time>
      </trkpt>
      <trkpt lat="45.15449" lon="5.93876">
        <ele>2049.67</ele>
        <time>2023-08-10T06:52:39Z</time>
      </trkpt>
      <trkpt lat="45.15449" lon="5.93876">
        <ele>2049.19</ele>
        <time>2023-08-10T06:53:06Z</time>
      </trkpt>
      <trkpt lat="45.15448" lon="5.93876">
        <ele>2049.19</ele>
        <time>2023-08-10T06:53:30Z</time>
      </trkpt>
      <trkpt lat="45.15449" lon="5.9388">
        <ele>2049.19</ele>
        <time>2023-08-10T06:53:41Z</time>
      </trkpt>
      <trkpt lat="45.1545" lon="5.93882">
        <ele>2049.19</ele>
        <time>2023-08-10T06:53:43Z</time>
      </trkpt>
      <trkpt lat="45.15452" lon="5.93886">
        <ele>2049.19</ele>
        <time>2023-08-10T06:53:46Z</time>
      </trkpt>
      <trkpt lat="45.15454" lon="5.93887">
        <ele>2048.71</ele>
        <time>2023-08-10T06:53:48Z</time>
      </trkpt>
      <trkpt lat="45.15456" lon="5.93892">
        <ele>2048.71</ele>
        <time>2023-08-10T06:54:04Z</time>
      </trkpt>
      <trkpt lat="45.15458" lon="5.93893">
        <ele>2048.23</ele>
        <time>2023-08-10T06:54:54Z</time>
      </trkpt>
      <trkpt lat="45.15461" lon="5.93898">
        <ele>2048.23</ele>
        <time>2023-08-10T06:55:00Z</time>
      </trkpt>
      <trkpt lat="45.15464" lon="5.93901">
        <ele>2048.23</ele>
        <time>2023-08-10T06:55:04Z</time>
      </trkpt>
      <trkpt lat="45.15465" lon="5.93903">
        <ele>2048.23</ele>
        <time>2023-08-10T06:55:06Z</time>
      </trkpt>
      <trkpt lat="45.1547" lon="5.93904">
        <ele>2048.23</ele>
        <time>2023-08-10T06:55:11Z</time>
      </trkpt>
      <trkpt lat="45.15478" lon="5.93907">
        <ele>2047.26</ele>
        <time>2023-08-10T06:55:21Z</time>
      </trkpt>
      <trkpt lat="45.15484" lon="5.93917">
        <ele>2048.23</ele>
        <time>2023-08-10T06:55:33Z</time>
      </trkpt>
      <trkpt lat="45.15488" lon="5.93927">
        <ele>2049.67</ele>
        <time>2023-08-10T06:55:45Z</time>
      </trkpt>
      <trkpt lat="45.15491" lon="5.93936">
        <ele>2050.63</ele>
        <time>2023-08-10T06:55:55Z</time>
      </trkpt>
      <trkpt lat="45.15498" lon="5.93944">
        <ele>2051.59</ele>
        <time>2023-08-10T06:56:08Z</time>
      </trkpt>
      <trkpt lat="45.15502" lon="5.9395">
        <ele>2052.55</ele>
        <time>2023-08-10T06:56:16Z</time>
      </trkpt>
      <trkpt lat="45.15502" lon="5.93957">
        <ele>2052.55</ele>
        <time>2023-08-10T06:56:23Z</time>
      </trkpt>
      <trkpt lat="45.15505" lon="5.9397">
        <ele>2053.03</ele>
        <time>2023-08-10T06:56:35Z</time>
      </trkpt>
      <trkpt lat="45.15508" lon="5.93976">
        <ele>2053.03</ele>
        <time>2023-08-10T06:56:43Z</time>
      </trkpt>
      <trkpt lat="45.15511" lon="5.93988">
        <ele>2051.11</ele>
        <time>2023-08-10T06:56:53Z</time>
      </trkpt>
      <trkpt lat="45.1551" lon="5.93999">
        <ele>2051.11</ele>
        <time>2023-08-10T06:57:01Z</time>
      </trkpt>
      <trkpt lat="45.15509" lon="5.94002">
        <ele>2050.63</ele>
        <time>2023-08-10T06:57:03Z</time>
      </trkpt>
      <trkpt lat="45.15509" lon="5.94013">
        <ele>2050.63</ele>
        <time>2023-08-10T06:57:11Z</time>
      </trkpt>
      <trkpt lat="45.15511" lon="5.94026">
        <ele>2050.63</ele>
        <time>2023-08-10T06:57:21Z</time>
      </trkpt>
      <trkpt lat="45.15514" lon="5.9403">
        <ele>2050.15</ele>
        <time>2023-08-10T06:57:25Z</time>
      </trkpt>
      <trkpt lat="45.15517" lon="5.94036">
        <ele>2050.15</ele>
        <time>2023-08-10T06:57:30Z</time>
      </trkpt>
      <trkpt lat="45.15518" lon="5.94039">
        <ele>2049.67</ele>
        <time>2023-08-10T06:57:32Z</time>
      </trkpt>
      <trkpt lat="45.15519" lon="5.9404">
        <ele>2049.67</ele>
        <time>2023-08-10T06:57:34Z</time>
      </trkpt>
      <trkpt lat="45.1552" lon="5.94043">
        <ele>2050.15</ele>
        <time>2023-08-10T06:57:36Z</time>
      </trkpt>
      <trkpt lat="45.15521" lon="5.94046">
        <ele>2049.67</ele>
        <time>2023-08-10T06:57:38Z</time>
      </trkpt>
      <trkpt lat="45.15523" lon="5.9405">
        <ele>2049.67</ele>
        <time>2023-08-10T06:57:41Z</time>
      </trkpt>
      <trkpt lat="45.15531" lon="5.94064">
        <ele>2049.19</ele>
        <time>2023-08-10T06:57:53Z</time>
      </trkpt>
      <trkpt lat="45.15533" lon="5.94075">
        <ele>2049.19</ele>
        <time>2023-08-10T06:58:03Z</time>
      </trkpt>
      <trkpt lat="45.15535" lon="5.94081">
        <ele>2049.19</ele>
        <time>2023-08-10T06:58:08Z</time>
      </trkpt>
      <trkpt lat="45.15542" lon="5.9409">
        <ele>2049.19</ele>
        <time>2023-08-10T06:58:18Z</time>
      </trkpt>
      <trkpt lat="45.15553" lon="5.94095">
        <ele>2050.63</ele>
        <time>2023-08-10T06:58:30Z</time>
      </trkpt>
      <trkpt lat="45.15557" lon="5.941">
        <ele>2051.11</ele>
        <time>2023-08-10T06:58:36Z</time>
      </trkpt>
      <trkpt lat="45.15568" lon="5.9411">
        <ele>2051.59</ele>
        <time>2023-08-10T06:58:49Z</time>
      </trkpt>
      <trkpt lat="45.15576" lon="5.94112">
        <ele>2051.59</ele>
        <time>2023-08-10T06:58:58Z</time>
      </trkpt>
      <trkpt lat="45.15585" lon="5.94114">
        <ele>2053.51</ele>
        <time>2023-08-10T06:59:10Z</time>
      </trkpt>
      <trkpt lat="45.15588" lon="5.94118">
        <ele>2053.99</ele>
        <time>2023-08-10T06:59:17Z</time>
      </trkpt>
      <trkpt lat="45.15589" lon="5.94127">
        <ele>2052.55</ele>
        <time>2023-08-10T06:59:28Z</time>
      </trkpt>
      <trkpt lat="45.15591" lon="5.9413">
        <ele>2052.07</ele>
        <time>2023-08-10T06:59:31Z</time>
      </trkpt>
      <trkpt lat="45.15591" lon="5.94134">
        <ele>2052.07</ele>
        <time>2023-08-10T06:59:34Z</time>
      </trkpt>
      <trkpt lat="45.15592" lon="5.94138">
        <ele>2051.59</ele>
        <time>2023-08-10T06:59:38Z</time>
      </trkpt>
      <trkpt lat="45.15597" lon="5.9415">
        <ele>2050.15</ele>
        <time>2023-08-10T06:59:48Z</time>
      </trkpt>
      <trkpt lat="45.15597" lon="5.94154">
        <ele>2050.15</ele>
        <time>2023-08-10T06:59:51Z</time>
      </trkpt>
      <trkpt lat="45.15598" lon="5.94156">
        <ele>2050.15</ele>
        <time>2023-08-10T06:59:53Z</time>
      </trkpt>
      <trkpt lat="45.15597" lon="5.94163">
        <ele>2049.67</ele>
        <time>2023-08-10T06:59:59Z</time>
      </trkpt>
      <trkpt lat="45.15597" lon="5.9417">
        <ele>2050.15</ele>
        <time>2023-08-10T07:00:05Z</time>
      </trkpt>
      <trkpt lat="45.156" lon="5.94184">
        <ele>2050.15</ele>
        <time>2023-08-10T07:00:18Z</time>
      </trkpt>
      <trkpt lat="45.15601" lon="5.94185">
        <ele>2050.15</ele>
        <time>2023-08-10T07:00:45Z</time>
      </trkpt>
      <trkpt lat="45.15603" lon="5.94185">
        <ele>2050.15</ele>
        <time>2023-08-10T07:01:02Z</time>
      </trkpt>
      <trkpt lat="45.15605" lon="5.94187">
        <ele>2050.15</ele>
        <time>2023-08-10T07:01:04Z</time>
      </trkpt>
      <trkpt lat="45.15614" lon="5.94189">
        <ele>2050.15</ele>
        <time>2023-08-10T07:01:14Z</time>
      </trkpt>
      <trkpt lat="45.15616" lon="5.94188">
        <ele>2050.15</ele>
        <time>2023-08-10T07:01:18Z</time>
      </trkpt>
      <trkpt lat="45.15619" lon="5.94188">
        <ele>2050.15</ele>
        <time>2023-08-10T07:01:21Z</time>
      </trkpt>
      <trkpt lat="45.1562" lon="5.94187">
        <ele>2050.63</ele>
        <time>2023-08-10T07:01:24Z</time>
      </trkpt>
      <trkpt lat="45.15625" lon="5.94185">
        <ele>2050.63</ele>
        <time>2023-08-10T07:01:29Z</time>
      </trkpt>
      <trkpt lat="45.15628" lon="5.94185">
        <ele>2050.63</ele>
        <time>2023-08-10T07:01:33Z</time>
      </trkpt>
      <trkpt lat="45.15632" lon="5.94185">
        <ele>2050.63</ele>
        <time>2023-08-10T07:01:38Z</time>
      </trkpt>
      <trkpt lat="45.15635" lon="5.94184">
        <ele>2050.63</ele>
        <time>2023-08-10T07:01:40Z</time>
      </trkpt>
      <trkpt lat="45.15637" lon="5.94185">
        <ele>2050.63</ele>
        <time>2023-08-10T07:01:42Z</time>
      </trkpt>
      <trkpt lat="45.15642" lon="5.94185">
        <ele>2050.63</ele>
        <time>2023-08-10T07:01:47Z</time>
      </trkpt>
      <trkpt lat="45.15644" lon="5.94186">
        <ele>2050.63</ele>
        <time>2023-08-10T07:01:49Z</time>
      </trkpt>
      <trkpt lat="45.15649" lon="5.94191">
        <ele>2050.63</ele>
        <time>2023-08-10T07:01:55Z</time>
      </trkpt>
      <trkpt lat="45.15654" lon="5.94195">
        <ele>2050.63</ele>
        <time>2023-08-10T07:02:02Z</time>
      </trkpt>
      <trkpt lat="45.1566" lon="5.94197">
        <ele>2050.15</ele>
        <time>2023-08-10T07:02:14Z</time>
      </trkpt>
      <trkpt lat="45.15665" lon="5.94199">
        <ele>2049.67</ele>
        <time>2023-08-10T07:02:20Z</time>
      </trkpt>
      <trkpt lat="45.15666" lon="5.94203">
        <ele>2049.67</ele>
        <time>2023-08-10T07:02:23Z</time>
      </trkpt>
      <trkpt lat="45.15668" lon="5.94203">
        <ele>2049.67</ele>
        <time>2023-08-10T07:02:25Z</time>
      </trkpt>
      <trkpt lat="45.1567" lon="5.94205">
        <ele>2049.19</ele>
        <time>2023-08-10T07:02:28Z</time>
      </trkpt>
      <trkpt lat="45.15671" lon="5.94204">
        <ele>2048.71</ele>
        <time>2023-08-10T07:02:30Z</time>
      </trkpt>
      <trkpt lat="45.15681" lon="5.94206">
        <ele>2047.75</ele>
        <time>2023-08-10T07:02:39Z</time>
      </trkpt>
      <trkpt lat="45.15694" lon="5.94206">
        <ele>2048.23</ele>
        <time>2023-08-10T07:02:52Z</time>
      </trkpt>
      <trkpt lat="45.15696" lon="5.94204">
        <ele>2048.23</ele>
        <time>2023-08-10T07:02:56Z</time>
      </trkpt>
      <trkpt lat="45.15701" lon="5.94207">
        <ele>2049.67</ele>
        <time>2023-08-10T07:03:03Z</time>
      </trkpt>
      <trkpt lat="45.15709" lon="5.94206">
        <ele>2051.11</ele>
        <time>2023-08-10T07:03:15Z</time>
      </trkpt>
      <trkpt lat="45.15713" lon="5.9421">
        <ele>2052.07</ele>
        <time>2023-08-10T07:03:27Z</time>
      </trkpt>
      <trkpt lat="45.15719" lon="5.94212">
        <ele>2053.51</ele>
        <time>2023-08-10T07:03:38Z</time>
      </trkpt>
      <trkpt lat="45.15725" lon="5.94213">
        <ele>2054.47</ele>
        <time>2023-08-10T07:03:49Z</time>
      </trkpt>
      <trkpt lat="45.1573" lon="5.94213">
        <ele>2055.44</ele>
        <time>2023-08-10T07:03:57Z</time>
      </trkpt>
      <trkpt lat="45.15738" lon="5.94215">
        <ele>2056.88</ele>
        <time>2023-08-10T07:04:11Z</time>
      </trkpt>
      <trkpt lat="45.15744" lon="5.94218">
        <ele>2057.84</ele>
        <time>2023-08-10T07:04:21Z</time>
      </trkpt>
      <trkpt lat="45.15747" lon="5.94219">
        <ele>2058.8</ele>
        <time>2023-08-10T07:04:32Z</time>
      </trkpt>
      <trkpt lat="45.15751" lon="5.9422">
        <ele>2060.72</ele>
        <time>2023-08-10T07:04:44Z</time>
      </trkpt>
      <trkpt lat="45.15754" lon="5.94222">
        <ele>2062.17</ele>
        <time>2023-08-10T07:04:57Z</time>
      </trkpt>
      <trkpt lat="45.15754" lon="5.94226">
        <ele>2062.65</ele>
        <time>2023-08-10T07:05:04Z</time>
      </trkpt>
      <trkpt lat="45.15753" lon="5.94238">
        <ele>2064.09</ele>
        <time>2023-08-10T07:05:15Z</time>
      </trkpt>
      <trkpt lat="45.15758" lon="5.94245">
        <ele>2065.53</ele>
        <time>2023-08-10T07:05:28Z</time>
      </trkpt>
      <trkpt lat="45.15761" lon="5.94246">
        <ele>2066.97</ele>
        <time>2023-08-10T07:05:39Z</time>
      </trkpt>
      <trkpt lat="45.15766" lon="5.94254">
        <ele>2068.89</ele>
        <time>2023-08-10T07:05:52Z</time>
      </trkpt>
      <trkpt lat="45.15766" lon="5.94254">
        <ele>2069.38</ele>
        <time>2023-08-10T07:05:53Z</time>
      </trkpt>
      <trkpt lat="45.15768" lon="5.94257">
        <ele>2069.86</ele>
        <time>2023-08-10T07:05:56Z</time>
      </trkpt>
      <trkpt lat="45.15771" lon="5.9426">
        <ele>2071.3</ele>
        <time>2023-08-10T07:06:10Z</time>
      </trkpt>
      <trkpt lat="45.15771" lon="5.94261">
        <ele>2071.3</ele>
        <time>2023-08-10T07:06:11Z</time>
      </trkpt>
      <trkpt lat="45.15777" lon="5.9427">
        <ele>2073.22</ele>
        <time>2023-08-10T07:06:26Z</time>
      </trkpt>
      <trkpt lat="45.1578" lon="5.94272">
        <ele>2074.18</ele>
        <time>2023-08-10T07:06:33Z</time>
      </trkpt>
      <trkpt lat="45.15786" lon="5.94283">
        <ele>2075.62</ele>
        <time>2023-08-10T07:06:45Z</time>
      </trkpt>
      <trkpt lat="45.15791" lon="5.94287">
        <ele>2076.1</ele>
        <time>2023-08-10T07:06:58Z</time>
      </trkpt>
      <trkpt lat="45.15798" lon="5.94292">
        <ele>2077.55</ele>
        <time>2023-08-10T07:07:10Z</time>
      </trkpt>
      <trkpt lat="45.15804" lon="5.94292">
        <ele>2078.51</ele>
        <time>2023-08-10T07:07:22Z</time>
      </trkpt>
      <trkpt lat="45.15808" lon="5.94292">
        <ele>2078.51</ele>
        <time>2023-08-10T07:07:26Z</time>
      </trkpt>
      <trkpt lat="45.15819" lon="5.94298">
        <ele>2078.99</ele>
        <time>2023-08-10T07:07:39Z</time>
      </trkpt>
      <trkpt lat="45.15819" lon="5.94298">
        <ele>2078.99</ele>
        <time>2023-08-10T07:07:40Z</time>
      </trkpt>
      <trkpt lat="45.15822" lon="5.94298">
        <ele>2079.47</ele>
        <time>2023-08-10T07:07:42Z</time>
      </trkpt>
      <trkpt lat="45.15825" lon="5.94298">
        <ele>2079.47</ele>
        <time>2023-08-10T07:07:46Z</time>
      </trkpt>
      <trkpt lat="45.15836" lon="5.94308">
        <ele>2079.47</ele>
        <time>2023-08-10T07:07:59Z</time>
      </trkpt>
      <trkpt lat="45.15838" lon="5.94308">
        <ele>2079.47</ele>
        <time>2023-08-10T07:08:01Z</time>
      </trkpt>
      <trkpt lat="45.15843" lon="5.94313">
        <ele>2079.95</ele>
        <time>2023-08-10T07:08:08Z</time>
      </trkpt>
      <trkpt lat="45.15845" lon="5.94314">
        <ele>2079.95</ele>
        <time>2023-08-10T07:08:10Z</time>
      </trkpt>
      <trkpt lat="45.15849" lon="5.94317">
        <ele>2079.95</ele>
        <time>2023-08-10T07:08:15Z</time>
      </trkpt>
      <trkpt lat="45.15854" lon="5.94322">
        <ele>2079.95</ele>
        <time>2023-08-10T07:08:21Z</time>
      </trkpt>
      <trkpt lat="45.15858" lon="5.94325">
        <ele>2079.95</ele>
        <time>2023-08-10T07:08:26Z</time>
      </trkpt>
      <trkpt lat="45.15865" lon="5.94332">
        <ele>2079.95</ele>
        <time>2023-08-10T07:08:35Z</time>
      </trkpt>
      <trkpt lat="45.1587" lon="5.94336">
        <ele>2079.95</ele>
        <time>2023-08-10T07:08:41Z</time>
      </trkpt>
      <trkpt lat="45.15871" lon="5.94337">
        <ele>2079.95</ele>
        <time>2023-08-10T07:08:43Z</time>
      </trkpt>
      <trkpt lat="45.15872" lon="5.94338">
        <ele>2079.95</ele>
        <time>2023-08-10T07:08:45Z</time>
      </trkpt>
      <trkpt lat="45.15874" lon="5.94339">
        <ele>2079.95</ele>
        <time>2023-08-10T07:08:47Z</time>
      </trkpt>
      <trkpt lat="45.15876" lon="5.94341">
        <ele>2079.95</ele>
        <time>2023-08-10T07:08:49Z</time>
      </trkpt>
      <trkpt lat="45.15884" lon="5.94347">
        <ele>2079.95</ele>
        <time>2023-08-10T07:09:00Z</time>
      </trkpt>
      <trkpt lat="45.15888" lon="5.94351">
        <ele>2079.95</ele>
        <time>2023-08-10T07:09:05Z</time>
      </trkpt>
      <trkpt lat="45.1589" lon="5.94354">
        <ele>2079.95</ele>
        <time>2023-08-10T07:09:08Z</time>
      </trkpt>
      <trkpt lat="45.15899" lon="5.94359">
        <ele>2079.95</ele>
        <time>2023-08-10T07:09:19Z</time>
      </trkpt>
      <trkpt lat="45.159" lon="5.9436">
        <ele>2079.95</ele>
        <time>2023-08-10T07:09:20Z</time>
      </trkpt>
      <trkpt lat="45.15904" lon="5.94362">
        <ele>2079.95</ele>
        <time>2023-08-10T07:09:25Z</time>
      </trkpt>
      <trkpt lat="45.15913" lon="5.94367">
        <ele>2080.43</ele>
        <time>2023-08-10T07:09:35Z</time>
      </trkpt>
      <trkpt lat="45.15915" lon="5.94367">
        <ele>2080.43</ele>
        <time>2023-08-10T07:09:37Z</time>
      </trkpt>
      <trkpt lat="45.15919" lon="5.94371">
        <ele>2080.43</ele>
        <time>2023-08-10T07:09:44Z</time>
      </trkpt>
      <trkpt lat="45.15921" lon="5.94374">
        <ele>2080.91</ele>
        <time>2023-08-10T07:09:47Z</time>
      </trkpt>
      <trkpt lat="45.15924" lon="5.94378">
        <ele>2081.39</ele>
        <time>2023-08-10T07:09:52Z</time>
      </trkpt>
      <trkpt lat="45.15929" lon="5.94381">
        <ele>2081.87</ele>
        <time>2023-08-10T07:09:58Z</time>
      </trkpt>
      <trkpt lat="45.15931" lon="5.94382">
        <ele>2081.87</ele>
        <time>2023-08-10T07:10:00Z</time>
      </trkpt>
      <trkpt lat="45.15937" lon="5.94387">
        <ele>2081.87</ele>
        <time>2023-08-10T07:10:09Z</time>
      </trkpt>
      <trkpt lat="45.15948" lon="5.94392">
        <ele>2082.35</ele>
        <time>2023-08-10T07:10:21Z</time>
      </trkpt>
      <trkpt lat="45.15953" lon="5.94396">
        <ele>2082.83</ele>
        <time>2023-08-10T07:10:28Z</time>
      </trkpt>
      <trkpt lat="45.15955" lon="5.94398">
        <ele>2082.83</ele>
        <time>2023-08-10T07:10:31Z</time>
      </trkpt>
      <trkpt lat="45.15959" lon="5.94399">
        <ele>2082.83</ele>
        <time>2023-08-10T07:10:35Z</time>
      </trkpt>
      <trkpt lat="45.15962" lon="5.94401">
        <ele>2082.83</ele>
        <time>2023-08-10T07:10:39Z</time>
      </trkpt>
      <trkpt lat="45.15964" lon="5.94403">
        <ele>2082.83</ele>
        <time>2023-08-10T07:10:42Z</time>
      </trkpt>
      <trkpt lat="45.15972" lon="5.9441">
        <ele>2083.79</ele>
        <time>2023-08-10T07:10:52Z</time>
      </trkpt>
      <trkpt lat="45.15981" lon="5.94421">
        <ele>2084.76</ele>
        <time>2023-08-10T07:11:07Z</time>
      </trkpt>
      <trkpt lat="45.15989" lon="5.94431">
        <ele>2086.2</ele>
        <time>2023-08-10T07:11:19Z</time>
      </trkpt>
      <trkpt lat="45.1599" lon="5.94432">
        <ele>2086.2</ele>
        <time>2023-08-10T07:11:21Z</time>
      </trkpt>
      <trkpt lat="45.15998" lon="5.94441">
        <ele>2086.2</ele>
        <time>2023-08-10T07:11:32Z</time>
      </trkpt>
      <trkpt lat="45.16004" lon="5.94446">
        <ele>2086.68</ele>
        <time>2023-08-10T07:11:41Z</time>
      </trkpt>
      <trkpt lat="45.16012" lon="5.94452">
        <ele>2087.64</ele>
        <time>2023-08-10T07:11:53Z</time>
      </trkpt>
      <trkpt lat="45.16018" lon="5.94459">
        <ele>2089.08</ele>
        <time>2023-08-10T07:12:05Z</time>
      </trkpt>
      <trkpt lat="45.16024" lon="5.94467">
        <ele>2090.04</ele>
        <time>2023-08-10T07:12:16Z</time>
      </trkpt>
      <trkpt lat="45.16029" lon="5.94471">
        <ele>2091</ele>
        <time>2023-08-10T07:12:27Z</time>
      </trkpt>
      <trkpt lat="45.16033" lon="5.94473">
        <ele>2091.49</ele>
        <time>2023-08-10T07:12:33Z</time>
      </trkpt>
      <trkpt lat="45.16038" lon="5.94476">
        <ele>2091.49</ele>
        <time>2023-08-10T07:12:38Z</time>
      </trkpt>
      <trkpt lat="45.16046" lon="5.94476">
        <ele>2092.45</ele>
        <time>2023-08-10T07:12:49Z</time>
      </trkpt>
      <trkpt lat="45.1605" lon="5.94479">
        <ele>2092.45</ele>
        <time>2023-08-10T07:12:54Z</time>
      </trkpt>
      <trkpt lat="45.16058" lon="5.94481">
        <ele>2094.37</ele>
        <time>2023-08-10T07:13:05Z</time>
      </trkpt>
      <trkpt lat="45.16066" lon="5.94482">
        <ele>2094.37</ele>
        <time>2023-08-10T07:13:16Z</time>
      </trkpt>
      <trkpt lat="45.16067" lon="5.94481">
        <ele>2094.37</ele>
        <time>2023-08-10T07:13:18Z</time>
      </trkpt>
      <trkpt lat="45.1607" lon="5.9448">
        <ele>2094.85</ele>
        <time>2023-08-10T07:13:22Z</time>
      </trkpt>
      <trkpt lat="45.16076" lon="5.94477">
        <ele>2094.85</ele>
        <time>2023-08-10T07:13:30Z</time>
      </trkpt>
      <trkpt lat="45.16077" lon="5.94475">
        <ele>2094.85</ele>
        <time>2023-08-10T07:13:32Z</time>
      </trkpt>
      <trkpt lat="45.1608" lon="5.9447">
        <ele>2094.37</ele>
        <time>2023-08-10T07:13:37Z</time>
      </trkpt>
      <trkpt lat="45.16082" lon="5.94467">
        <ele>2094.37</ele>
        <time>2023-08-10T07:13:41Z</time>
      </trkpt>
      <trkpt lat="45.16087" lon="5.94465">
        <ele>2094.85</ele>
        <time>2023-08-10T07:13:46Z</time>
      </trkpt>
      <trkpt lat="45.16089" lon="5.94464">
        <ele>2094.85</ele>
        <time>2023-08-10T07:13:48Z</time>
      </trkpt>
      <trkpt lat="45.16091" lon="5.94462">
        <ele>2094.85</ele>
        <time>2023-08-10T07:13:51Z</time>
      </trkpt>
      <trkpt lat="45.16094" lon="5.94461">
        <ele>2094.85</ele>
        <time>2023-08-10T07:13:55Z</time>
      </trkpt>
      <trkpt lat="45.16099" lon="5.94459">
        <ele>2096.29</ele>
        <time>2023-08-10T07:14:06Z</time>
      </trkpt>
      <trkpt lat="45.16103" lon="5.94457">
        <ele>2098.21</ele>
        <time>2023-08-10T07:14:18Z</time>
      </trkpt>
      <trkpt lat="45.16105" lon="5.94456">
        <ele>2100.14</ele>
        <time>2023-08-10T07:14:30Z</time>
      </trkpt>
      <trkpt lat="45.16108" lon="5.94456">
        <ele>2101.1</ele>
        <time>2023-08-10T07:14:40Z</time>
      </trkpt>
      <trkpt lat="45.1611" lon="5.9445">
        <ele>2103.5</ele>
        <time>2023-08-10T07:14:51Z</time>
      </trkpt>
      <trkpt lat="45.16112" lon="5.94449">
        <ele>2104.94</ele>
        <time>2023-08-10T07:15:05Z</time>
      </trkpt>
      <trkpt lat="45.16115" lon="5.94462">
        <ele>2112.15</ele>
        <time>2023-08-10T07:30:03Z</time>
      </trkpt>
      <trkpt lat="45.16118" lon="5.94465">
        <ele>2112.15</ele>
        <time>2023-08-10T07:30:25Z</time>
      </trkpt>
      <trkpt lat="45.1612" lon="5.94472">
        <ele>2112.15</ele>
        <time>2023-08-10T07:30:42Z</time>
      </trkpt>
      <trkpt lat="45.16117" lon="5.94469">
        <ele>2112.15</ele>
        <time>2023-08-10T07:30:46Z</time>
      </trkpt>
      <trkpt lat="45.16113" lon="5.94446">
        <ele>2112.15</ele>
        <time>2023-08-10T07:31:04Z</time>
      </trkpt>
      <trkpt lat="45.1612" lon="5.9443">
        <ele>2112.15</ele>
        <time>2023-08-10T07:31:18Z</time>
      </trkpt>
      <trkpt lat="45.16124" lon="5.94434">
        <ele>2112.15</ele>
        <time>2023-08-10T07:31:35Z</time>
      </trkpt>
      <trkpt lat="45.16127" lon="5.94439">
        <ele>2114.08</ele>
        <time>2023-08-10T07:31:46Z</time>
      </trkpt>
      <trkpt lat="45.16134" lon="5.9445">
        <ele>2116.48</ele>
        <time>2023-08-10T07:32:03Z</time>
      </trkpt>
      <trkpt lat="45.16145" lon="5.94447">
        <ele>2118.4</ele>
        <time>2023-08-10T07:32:20Z</time>
      </trkpt>
      <trkpt lat="45.16146" lon="5.94449">
        <ele>2116.96</ele>
        <time>2023-08-10T07:32:23Z</time>
      </trkpt>
      <trkpt lat="45.16156" lon="5.94457">
        <ele>2116.48</ele>
        <time>2023-08-10T07:32:39Z</time>
      </trkpt>
      <trkpt lat="45.16156" lon="5.94459">
        <ele>2117.92</ele>
        <time>2023-08-10T07:32:41Z</time>
      </trkpt>
      <trkpt lat="45.16163" lon="5.94471">
        <ele>2119.84</ele>
        <time>2023-08-10T07:32:57Z</time>
      </trkpt>
      <trkpt lat="45.16168" lon="5.94481">
        <ele>2121.77</ele>
        <time>2023-08-10T07:33:13Z</time>
      </trkpt>
      <trkpt lat="45.16173" lon="5.94492">
        <ele>2123.69</ele>
        <time>2023-08-10T07:33:29Z</time>
      </trkpt>
      <trkpt lat="45.16176" lon="5.94504">
        <ele>2126.57</ele>
        <time>2023-08-10T07:33:48Z</time>
      </trkpt>
      <trkpt lat="45.16183" lon="5.94515">
        <ele>2128.02</ele>
        <time>2023-08-10T07:34:03Z</time>
      </trkpt>
      <trkpt lat="45.1619" lon="5.94525">
        <ele>2129.46</ele>
        <time>2023-08-10T07:34:17Z</time>
      </trkpt>
      <trkpt lat="45.162" lon="5.94536">
        <ele>2130.42</ele>
        <time>2023-08-10T07:34:33Z</time>
      </trkpt>
      <trkpt lat="45.16205" lon="5.94543">
        <ele>2130.42</ele>
        <time>2023-08-10T07:34:44Z</time>
      </trkpt>
      <trkpt lat="45.16211" lon="5.94546">
        <ele>2130.9</ele>
        <time>2023-08-10T07:34:51Z</time>
      </trkpt>
      <trkpt lat="45.16214" lon="5.94547">
        <ele>2130.42</ele>
        <time>2023-08-10T07:34:54Z</time>
      </trkpt>
      <trkpt lat="45.16227" lon="5.94548">
        <ele>2130.9</ele>
        <time>2023-08-10T07:35:09Z</time>
      </trkpt>
      <trkpt lat="45.16238" lon="5.94552">
        <ele>2132.82</ele>
        <time>2023-08-10T07:35:25Z</time>
      </trkpt>
      <trkpt lat="45.16246" lon="5.94556">
        <ele>2135.23</ele>
        <time>2023-08-10T07:35:41Z</time>
      </trkpt>
      <trkpt lat="45.16253" lon="5.94559">
        <ele>2138.59</ele>
        <time>2023-08-10T07:35:56Z</time>
      </trkpt>
      <trkpt lat="45.16259" lon="5.94568">
        <ele>2140.03</ele>
        <time>2023-08-10T07:36:11Z</time>
      </trkpt>
      <trkpt lat="45.16269" lon="5.94572">
        <ele>2141.47</ele>
        <time>2023-08-10T07:36:26Z</time>
      </trkpt>
      <trkpt lat="45.16279" lon="5.94578">
        <ele>2143.4</ele>
        <time>2023-08-10T07:36:46Z</time>
      </trkpt>
      <trkpt lat="45.16285" lon="5.94576">
        <ele>2145.32</ele>
        <time>2023-08-10T07:37:02Z</time>
      </trkpt>
      <trkpt lat="45.1629" lon="5.94561">
        <ele>2147.72</ele>
        <time>2023-08-10T07:37:19Z</time>
      </trkpt>
      <trkpt lat="45.16295" lon="5.94552">
        <ele>2150.61</ele>
        <time>2023-08-10T07:37:39Z</time>
      </trkpt>
      <trkpt lat="45.16297" lon="5.94561">
        <ele>2152.05</ele>
        <time>2023-08-10T07:37:54Z</time>
      </trkpt>
      <trkpt lat="45.16303" lon="5.94558">
        <ele>2154.45</ele>
        <time>2023-08-10T07:38:09Z</time>
      </trkpt>
      <trkpt lat="45.16308" lon="5.94557">
        <ele>2156.37</ele>
        <time>2023-08-10T07:38:25Z</time>
      </trkpt>
      <trkpt lat="45.16316" lon="5.9455">
        <ele>2158.78</ele>
        <time>2023-08-10T07:38:41Z</time>
      </trkpt>
      <trkpt lat="45.16325" lon="5.94548">
        <ele>2161.18</ele>
        <time>2023-08-10T07:38:59Z</time>
      </trkpt>
      <trkpt lat="45.16333" lon="5.94544">
        <ele>2163.58</ele>
        <time>2023-08-10T07:39:19Z</time>
      </trkpt>
      <trkpt lat="45.16344" lon="5.94539">
        <ele>2165.51</ele>
        <time>2023-08-10T07:39:37Z</time>
      </trkpt>
      <trkpt lat="45.16342" lon="5.94538">
        <ele>2165.51</ele>
        <time>2023-08-10T07:40:00Z</time>
      </trkpt>
      <trkpt lat="45.16335" lon="5.9454">
        <ele>2164.55</ele>
        <time>2023-08-10T07:40:09Z</time>
      </trkpt>
      <trkpt lat="45.1633" lon="5.94542">
        <ele>2163.1</ele>
        <time>2023-08-10T07:40:15Z</time>
      </trkpt>
      <trkpt lat="45.16318" lon="5.94542">
        <ele>2160.22</ele>
        <time>2023-08-10T07:40:30Z</time>
      </trkpt>
      <trkpt lat="45.1631" lon="5.94547">
        <ele>2157.82</ele>
        <time>2023-08-10T07:40:44Z</time>
      </trkpt>
      <trkpt lat="45.16304" lon="5.94552">
        <ele>2155.41</ele>
        <time>2023-08-10T07:40:57Z</time>
      </trkpt>
      <trkpt lat="45.16296" lon="5.94555">
        <ele>2153.49</ele>
        <time>2023-08-10T07:41:09Z</time>
      </trkpt>
      <trkpt lat="45.16292" lon="5.94561">
        <ele>2151.57</ele>
        <time>2023-08-10T07:41:20Z</time>
      </trkpt>
      <trkpt lat="45.1629" lon="5.94566">
        <ele>2148.68</ele>
        <time>2023-08-10T07:41:31Z</time>
      </trkpt>
      <trkpt lat="45.16287" lon="5.94571">
        <ele>2145.32</ele>
        <time>2023-08-10T07:41:43Z</time>
      </trkpt>
      <trkpt lat="45.16284" lon="5.94577">
        <ele>2144.84</ele>
        <time>2023-08-10T07:41:52Z</time>
      </trkpt>
      <trkpt lat="45.16283" lon="5.94579">
        <ele>2144.84</ele>
        <time>2023-08-10T07:41:54Z</time>
      </trkpt>
      <trkpt lat="45.16282" lon="5.94591">
        <ele>2143.88</ele>
        <time>2023-08-10T07:42:08Z</time>
      </trkpt>
      <trkpt lat="45.16279" lon="5.94591">
        <ele>2143.88</ele>
        <time>2023-08-10T07:42:25Z</time>
      </trkpt>
      <trkpt lat="45.16272" lon="5.94593">
        <ele>2143.4</ele>
        <time>2023-08-10T07:42:37Z</time>
      </trkpt>
      <trkpt lat="45.16271" lon="5.94593">
        <ele>2144.84</ele>
        <time>2023-08-10T07:42:39Z</time>
      </trkpt>
      <trkpt lat="45.16269" lon="5.94599">
        <ele>2145.8</ele>
        <time>2023-08-10T07:42:52Z</time>
      </trkpt>
      <trkpt lat="45.16271" lon="5.94602">
        <ele>2146.76</ele>
        <time>2023-08-10T07:42:56Z</time>
      </trkpt>
      <trkpt lat="45.16276" lon="5.94609">
        <ele>2147.72</ele>
        <time>2023-08-10T07:43:08Z</time>
      </trkpt>
      <trkpt lat="45.1628" lon="5.94617">
        <ele>2150.13</ele>
        <time>2023-08-10T07:43:23Z</time>
      </trkpt>
      <trkpt lat="45.16274" lon="5.94619">
        <ele>2152.05</ele>
        <time>2023-08-10T07:43:41Z</time>
      </trkpt>
      <trkpt lat="45.1627" lon="5.94629">
        <ele>2153.49</ele>
        <time>2023-08-10T07:43:59Z</time>
      </trkpt>
      <trkpt lat="45.16279" lon="5.9464">
        <ele>2154.93</ele>
        <time>2023-08-10T07:44:16Z</time>
      </trkpt>
      <trkpt lat="45.16284" lon="5.94646">
        <ele>2157.82</ele>
        <time>2023-08-10T07:44:36Z</time>
      </trkpt>
      <trkpt lat="45.16274" lon="5.94651">
        <ele>2160.22</ele>
        <time>2023-08-10T07:44:57Z</time>
      </trkpt>
      <trkpt lat="45.16263" lon="5.94657">
        <ele>2162.14</ele>
        <time>2023-08-10T07:45:15Z</time>
      </trkpt>
      <trkpt lat="45.16264" lon="5.94662">
        <ele>2164.55</ele>
        <time>2023-08-10T07:45:28Z</time>
      </trkpt>
      <trkpt lat="45.16266" lon="5.94668">
        <ele>2165.99</ele>
        <time>2023-08-10T07:45:41Z</time>
      </trkpt>
      <trkpt lat="45.1627" lon="5.94672">
        <ele>2167.43</ele>
        <time>2023-08-10T07:45:52Z</time>
      </trkpt>
      <trkpt lat="45.1627" lon="5.94673">
        <ele>2167.91</ele>
        <time>2023-08-10T07:45:54Z</time>
      </trkpt>
      <trkpt lat="45.16274" lon="5.94677">
        <ele>2168.87</ele>
        <time>2023-08-10T07:46:06Z</time>
      </trkpt>
      <trkpt lat="45.16276" lon="5.94682">
        <ele>2169.83</ele>
        <time>2023-08-10T07:46:18Z</time>
      </trkpt>
      <trkpt lat="45.16273" lon="5.94677">
        <ele>2171.76</ele>
        <time>2023-08-10T07:46:36Z</time>
      </trkpt>
      <trkpt lat="45.16257" lon="5.94678">
        <ele>2171.76</ele>
        <time>2023-08-10T07:46:56Z</time>
      </trkpt>
      <trkpt lat="45.16244" lon="5.94677">
        <ele>2171.76</ele>
        <time>2023-08-10T07:47:14Z</time>
      </trkpt>
      <trkpt lat="45.16235" lon="5.94677">
        <ele>2174.16</ele>
        <time>2023-08-10T07:47:34Z</time>
      </trkpt>
      <trkpt lat="45.16227" lon="5.9469">
        <ele>2176.56</ele>
        <time>2023-08-10T07:47:51Z</time>
      </trkpt>
      <trkpt lat="45.16219" lon="5.94698">
        <ele>2178.97</ele>
        <time>2023-08-10T07:48:10Z</time>
      </trkpt>
      <trkpt lat="45.16209" lon="5.94703">
        <ele>2180.89</ele>
        <time>2023-08-10T07:48:29Z</time>
      </trkpt>
      <trkpt lat="45.16205" lon="5.9471">
        <ele>2182.81</ele>
        <time>2023-08-10T07:48:41Z</time>
      </trkpt>
      <trkpt lat="45.16207" lon="5.94714">
        <ele>2183.29</ele>
        <time>2023-08-10T07:48:53Z</time>
      </trkpt>
      <trkpt lat="45.16206" lon="5.94718">
        <ele>2185.21</ele>
        <time>2023-08-10T07:49:09Z</time>
      </trkpt>
      <trkpt lat="45.16206" lon="5.94724">
        <ele>2186.18</ele>
        <time>2023-08-10T07:49:15Z</time>
      </trkpt>
      <trkpt lat="45.16209" lon="5.9473">
        <ele>2187.62</ele>
        <time>2023-08-10T07:49:28Z</time>
      </trkpt>
      <trkpt lat="45.16212" lon="5.94733">
        <ele>2188.58</ele>
        <time>2023-08-10T07:49:35Z</time>
      </trkpt>
      <trkpt lat="45.1622" lon="5.94738">
        <ele>2189.54</ele>
        <time>2023-08-10T07:49:49Z</time>
      </trkpt>
      <trkpt lat="45.16229" lon="5.94738">
        <ele>2190.98</ele>
        <time>2023-08-10T07:50:01Z</time>
      </trkpt>
      <trkpt lat="45.16236" lon="5.94739">
        <ele>2191.94</ele>
        <time>2023-08-10T07:50:14Z</time>
      </trkpt>
      <trkpt lat="45.16245" lon="5.94735">
        <ele>2192.42</ele>
        <time>2023-08-10T07:50:26Z</time>
      </trkpt>
      <trkpt lat="45.1625" lon="5.94734">
        <ele>2192.9</ele>
        <time>2023-08-10T07:50:35Z</time>
      </trkpt>
      <trkpt lat="45.16255" lon="5.94735">
        <ele>2194.35</ele>
        <time>2023-08-10T07:50:49Z</time>
      </trkpt>
      <trkpt lat="45.1626" lon="5.94737">
        <ele>2195.79</ele>
        <time>2023-08-10T07:51:00Z</time>
      </trkpt>
      <trkpt lat="45.16262" lon="5.94739">
        <ele>2197.71</ele>
        <time>2023-08-10T07:51:12Z</time>
      </trkpt>
      <trkpt lat="45.16262" lon="5.94743">
        <ele>2199.15</ele>
        <time>2023-08-10T07:51:23Z</time>
      </trkpt>
      <trkpt lat="45.16262" lon="5.9475">
        <ele>2200.59</ele>
        <time>2023-08-10T07:51:34Z</time>
      </trkpt>
      <trkpt lat="45.16263" lon="5.94753">
        <ele>2201.08</ele>
        <time>2023-08-10T07:51:38Z</time>
      </trkpt>
      <trkpt lat="45.16264" lon="5.94756">
        <ele>2202.52</ele>
        <time>2023-08-10T07:51:49Z</time>
      </trkpt>
      <trkpt lat="45.16265" lon="5.94754">
        <ele>2203.48</ele>
        <time>2023-08-10T07:51:58Z</time>
      </trkpt>
      <trkpt lat="45.16268" lon="5.94754">
        <ele>2205.4</ele>
        <time>2023-08-10T07:52:10Z</time>
      </trkpt>
      <trkpt lat="45.16269" lon="5.94756">
        <ele>2206.36</ele>
        <time>2023-08-10T07:52:20Z</time>
      </trkpt>
      <trkpt lat="45.16268" lon="5.9476">
        <ele>2207.32</ele>
        <time>2023-08-10T07:52:34Z</time>
      </trkpt>
      <trkpt lat="45.16266" lon="5.94767">
        <ele>2208.77</ele>
        <time>2023-08-10T07:52:47Z</time>
      </trkpt>
      <trkpt lat="45.16269" lon="5.94774">
        <ele>2211.17</ele>
        <time>2023-08-10T07:53:02Z</time>
      </trkpt>
      <trkpt lat="45.16269" lon="5.94779">
        <ele>2213.57</ele>
        <time>2023-08-10T07:53:20Z</time>
      </trkpt>
      <trkpt lat="45.16267" lon="5.94786">
        <ele>2215.5</ele>
        <time>2023-08-10T07:53:34Z</time>
      </trkpt>
      <trkpt lat="45.16268" lon="5.94794">
        <ele>2217.9</ele>
        <time>2023-08-10T07:53:51Z</time>
      </trkpt>
      <trkpt lat="45.16268" lon="5.948">
        <ele>2220.3</ele>
        <time>2023-08-10T07:54:12Z</time>
      </trkpt>
      <trkpt lat="45.16266" lon="5.9481">
        <ele>2222.71</ele>
        <time>2023-08-10T07:54:34Z</time>
      </trkpt>
      <trkpt lat="45.16269" lon="5.94813">
        <ele>2224.15</ele>
        <time>2023-08-10T07:54:55Z</time>
      </trkpt>
      <trkpt lat="45.16267" lon="5.94816">
        <ele>2225.11</ele>
        <time>2023-08-10T07:55:09Z</time>
      </trkpt>
      <trkpt lat="45.16265" lon="5.9482">
        <ele>2227.03</ele>
        <time>2023-08-10T07:55:23Z</time>
      </trkpt>
      <trkpt lat="45.16269" lon="5.94827">
        <ele>2228.47</ele>
        <time>2023-08-10T07:55:36Z</time>
      </trkpt>
      <trkpt lat="45.16268" lon="5.94831">
        <ele>2230.4</ele>
        <time>2023-08-10T07:55:49Z</time>
      </trkpt>
      <trkpt lat="45.16273" lon="5.94831">
        <ele>2231.36</ele>
        <time>2023-08-10T07:56:02Z</time>
      </trkpt>
      <trkpt lat="45.16275" lon="5.94833">
        <ele>2233.28</ele>
        <time>2023-08-10T07:56:17Z</time>
      </trkpt>
      <trkpt lat="45.16273" lon="5.94839">
        <ele>2234.72</ele>
        <time>2023-08-10T07:56:30Z</time>
      </trkpt>
      <trkpt lat="45.16277" lon="5.94842">
        <ele>2236.64</ele>
        <time>2023-08-10T07:56:43Z</time>
      </trkpt>
      <trkpt lat="45.16276" lon="5.94849">
        <ele>2238.57</ele>
        <time>2023-08-10T07:56:58Z</time>
      </trkpt>
      <trkpt lat="45.16276" lon="5.94853">
        <ele>2240.01</ele>
        <time>2023-08-10T07:57:14Z</time>
      </trkpt>
      <trkpt lat="45.16281" lon="5.94855">
        <ele>2241.93</ele>
        <time>2023-08-10T07:57:30Z</time>
      </trkpt>
      <trkpt lat="45.16286" lon="5.94856">
        <ele>2243.85</ele>
        <time>2023-08-10T07:57:43Z</time>
      </trkpt>
      <trkpt lat="45.1629" lon="5.94857">
        <ele>2245.3</ele>
        <time>2023-08-10T07:57:52Z</time>
      </trkpt>
      <trkpt lat="45.16292" lon="5.94857">
        <ele>2246.74</ele>
        <time>2023-08-10T07:58:04Z</time>
      </trkpt>
      <trkpt lat="45.16293" lon="5.9486">
        <ele>2247.7</ele>
        <time>2023-08-10T07:58:16Z</time>
      </trkpt>
      <trkpt lat="45.16297" lon="5.94862">
        <ele>2249.14</ele>
        <time>2023-08-10T07:58:28Z</time>
      </trkpt>
      <trkpt lat="45.16302" lon="5.94864">
        <ele>2250.58</ele>
        <time>2023-08-10T07:58:43Z</time>
      </trkpt>
      <trkpt lat="45.16304" lon="5.9486">
        <ele>2252.51</ele>
        <time>2023-08-10T07:58:59Z</time>
      </trkpt>
      <trkpt lat="45.16306" lon="5.94862">
        <ele>2254.43</ele>
        <time>2023-08-10T07:59:15Z</time>
      </trkpt>
      <trkpt lat="45.16307" lon="5.94865">
        <ele>2255.39</ele>
        <time>2023-08-10T07:59:27Z</time>
      </trkpt>
      <trkpt lat="45.1631" lon="5.9487">
        <ele>2257.31</ele>
        <time>2023-08-10T07:59:39Z</time>
      </trkpt>
      <trkpt lat="45.16311" lon="5.9488">
        <ele>2259.24</ele>
        <time>2023-08-10T07:59:54Z</time>
      </trkpt>
      <trkpt lat="45.16313" lon="5.94882">
        <ele>2261.16</ele>
        <time>2023-08-10T08:00:07Z</time>
      </trkpt>
      <trkpt lat="45.16319" lon="5.94886">
        <ele>2262.12</ele>
        <time>2023-08-10T08:00:21Z</time>
      </trkpt>
      <trkpt lat="45.16322" lon="5.94892">
        <ele>2264.04</ele>
        <time>2023-08-10T08:00:33Z</time>
      </trkpt>
      <trkpt lat="45.16321" lon="5.94902">
        <ele>2265.48</ele>
        <time>2023-08-10T08:00:51Z</time>
      </trkpt>
      <trkpt lat="45.16319" lon="5.94914">
        <ele>2267.41</ele>
        <time>2023-08-10T08:01:13Z</time>
      </trkpt>
      <trkpt lat="45.16322" lon="5.94924">
        <ele>2269.81</ele>
        <time>2023-08-10T08:01:31Z</time>
      </trkpt>
      <trkpt lat="45.16327" lon="5.9493">
        <ele>2271.73</ele>
        <time>2023-08-10T08:01:46Z</time>
      </trkpt>
      <trkpt lat="45.16332" lon="5.94938">
        <ele>2273.17</ele>
        <time>2023-08-10T08:02:00Z</time>
      </trkpt>
      <trkpt lat="45.16338" lon="5.94947">
        <ele>2274.14</ele>
        <time>2023-08-10T08:02:15Z</time>
      </trkpt>
      <trkpt lat="45.16344" lon="5.94959">
        <ele>2276.06</ele>
        <time>2023-08-10T08:02:32Z</time>
      </trkpt>
      <trkpt lat="45.16351" lon="5.94968">
        <ele>2277.5</ele>
        <time>2023-08-10T08:02:47Z</time>
      </trkpt>
      <trkpt lat="45.16356" lon="5.94977">
        <ele>2279.9</ele>
        <time>2023-08-10T08:03:02Z</time>
      </trkpt>
      <trkpt lat="45.16361" lon="5.94983">
        <ele>2281.35</ele>
        <time>2023-08-10T08:03:13Z</time>
      </trkpt>
      <trkpt lat="45.16365" lon="5.94992">
        <ele>2284.23</ele>
        <time>2023-08-10T08:03:32Z</time>
      </trkpt>
      <trkpt lat="45.16368" lon="5.95">
        <ele>2286.15</ele>
        <time>2023-08-10T08:03:47Z</time>
      </trkpt>
      <trkpt lat="45.1637" lon="5.95004">
        <ele>2287.59</ele>
        <time>2023-08-10T08:04:00Z</time>
      </trkpt>
      <trkpt lat="45.16371" lon="5.95008">
        <ele>2288.08</ele>
        <time>2023-08-10T08:04:15Z</time>
      </trkpt>
      <trkpt lat="45.16374" lon="5.9501">
        <ele>2290</ele>
        <time>2023-08-10T08:04:28Z</time>
      </trkpt>
      <trkpt lat="45.16377" lon="5.9501">
        <ele>2290.96</ele>
        <time>2023-08-10T08:04:35Z</time>
      </trkpt>
      <trkpt lat="45.16382" lon="5.95005">
        <ele>2292.4</ele>
        <time>2023-08-10T08:04:47Z</time>
      </trkpt>
      <trkpt lat="45.16386" lon="5.95003">
        <ele>2294.32</ele>
        <time>2023-08-10T08:04:58Z</time>
      </trkpt>
      <trkpt lat="45.16386" lon="5.95009">
        <ele>2296.25</ele>
        <time>2023-08-10T08:05:14Z</time>
      </trkpt>
      <trkpt lat="45.16386" lon="5.95012">
        <ele>2298.65</ele>
        <time>2023-08-10T08:05:30Z</time>
      </trkpt>
      <trkpt lat="45.1639" lon="5.95017">
        <ele>2299.61</ele>
        <time>2023-08-10T08:05:40Z</time>
      </trkpt>
      <trkpt lat="45.16392" lon="5.95019">
        <ele>2301.05</ele>
        <time>2023-08-10T08:05:52Z</time>
      </trkpt>
      <trkpt lat="45.16395" lon="5.95022">
        <ele>2301.53</ele>
        <time>2023-08-10T08:05:57Z</time>
      </trkpt>
      <trkpt lat="45.16399" lon="5.95024">
        <ele>2302.98</ele>
        <time>2023-08-10T08:06:10Z</time>
      </trkpt>
      <trkpt lat="45.16399" lon="5.95023">
        <ele>2303.46</ele>
        <time>2023-08-10T08:06:21Z</time>
      </trkpt>
      <trkpt lat="45.164" lon="5.95028">
        <ele>2304.9</ele>
        <time>2023-08-10T08:06:34Z</time>
      </trkpt>
      <trkpt lat="45.16395" lon="5.95033">
        <ele>2306.82</ele>
        <time>2023-08-10T08:06:47Z</time>
      </trkpt>
      <trkpt lat="45.16392" lon="5.95035">
        <ele>2308.74</ele>
        <time>2023-08-10T08:07:00Z</time>
      </trkpt>
      <trkpt lat="45.1639" lon="5.95036">
        <ele>2310.19</ele>
        <time>2023-08-10T08:07:12Z</time>
      </trkpt>
      <trkpt lat="45.1639" lon="5.95038">
        <ele>2310.67</ele>
        <time>2023-08-10T08:07:20Z</time>
      </trkpt>
      <trkpt lat="45.16387" lon="5.95041">
        <ele>2311.63</ele>
        <time>2023-08-10T08:07:31Z</time>
      </trkpt>
      <trkpt lat="45.16382" lon="5.95042">
        <ele>2313.55</ele>
        <time>2023-08-10T08:07:48Z</time>
      </trkpt>
      <trkpt lat="45.16381" lon="5.95047">
        <ele>2314.03</ele>
        <time>2023-08-10T08:08:07Z</time>
      </trkpt>
      <trkpt lat="45.16389" lon="5.95051">
        <ele>2314.99</ele>
        <time>2023-08-10T08:08:23Z</time>
      </trkpt>
      <trkpt lat="45.16397" lon="5.95057">
        <ele>2315.95</ele>
        <time>2023-08-10T08:08:39Z</time>
      </trkpt>
      <trkpt lat="45.16406" lon="5.95056">
        <ele>2318.36</ele>
        <time>2023-08-10T08:08:55Z</time>
      </trkpt>
      <trkpt lat="45.16413" lon="5.95059">
        <ele>2320.28</ele>
        <time>2023-08-10T08:09:10Z</time>
      </trkpt>
      <trkpt lat="45.16418" lon="5.95062">
        <ele>2322.2</ele>
        <time>2023-08-10T08:09:29Z</time>
      </trkpt>
      <trkpt lat="45.16415" lon="5.95067">
        <ele>2324.12</ele>
        <time>2023-08-10T08:09:44Z</time>
      </trkpt>
      <trkpt lat="45.16413" lon="5.95072">
        <ele>2325.09</ele>
        <time>2023-08-10T08:09:58Z</time>
      </trkpt>
      <trkpt lat="45.16411" lon="5.95077">
        <ele>2327.01</ele>
        <time>2023-08-10T08:10:14Z</time>
      </trkpt>
      <trkpt lat="45.1641" lon="5.95084">
        <ele>2328.93</ele>
        <time>2023-08-10T08:10:27Z</time>
      </trkpt>
      <trkpt lat="45.16408" lon="5.95091">
        <ele>2329.41</ele>
        <time>2023-08-10T08:10:39Z</time>
      </trkpt>
      <trkpt lat="45.1641" lon="5.95097">
        <ele>2330.85</ele>
        <time>2023-08-10T08:10:52Z</time>
      </trkpt>
      <trkpt lat="45.16412" lon="5.95104">
        <ele>2332.3</ele>
        <time>2023-08-10T08:11:04Z</time>
      </trkpt>
      <trkpt lat="45.16409" lon="5.95112">
        <ele>2334.7</ele>
        <time>2023-08-10T08:11:18Z</time>
      </trkpt>
      <trkpt lat="45.16407" lon="5.95114">
        <ele>2336.14</ele>
        <time>2023-08-10T08:11:29Z</time>
      </trkpt>
      <trkpt lat="45.16403" lon="5.95118">
        <ele>2337.1</ele>
        <time>2023-08-10T08:11:38Z</time>
      </trkpt>
      <trkpt lat="45.16403" lon="5.95121">
        <ele>2338.06</ele>
        <time>2023-08-10T08:11:49Z</time>
      </trkpt>
      <trkpt lat="45.16407" lon="5.95128">
        <ele>2339.51</ele>
        <time>2023-08-10T08:12:01Z</time>
      </trkpt>
      <trkpt lat="45.1641" lon="5.95132">
        <ele>2341.43</ele>
        <time>2023-08-10T08:12:14Z</time>
      </trkpt>
      <trkpt lat="45.16413" lon="5.9513">
        <ele>2341.91</ele>
        <time>2023-08-10T08:12:21Z</time>
      </trkpt>
      <trkpt lat="45.16419" lon="5.95128">
        <ele>2343.35</ele>
        <time>2023-08-10T08:12:33Z</time>
      </trkpt>
      <trkpt lat="45.16423" lon="5.95128">
        <ele>2345.27</ele>
        <time>2023-08-10T08:12:45Z</time>
      </trkpt>
      <trkpt lat="45.16424" lon="5.95129">
        <ele>2346.72</ele>
        <time>2023-08-10T08:12:56Z</time>
      </trkpt>
      <trkpt lat="45.16424" lon="5.95132">
        <ele>2348.16</ele>
        <time>2023-08-10T08:13:12Z</time>
      </trkpt>
      <trkpt lat="45.16429" lon="5.95131">
        <ele>2349.6</ele>
        <time>2023-08-10T08:13:25Z</time>
      </trkpt>
      <trkpt lat="45.16433" lon="5.95131">
        <ele>2351.52</ele>
        <time>2023-08-10T08:13:37Z</time>
      </trkpt>
      <trkpt lat="45.16435" lon="5.9513">
        <ele>2352.96</ele>
        <time>2023-08-10T08:13:48Z</time>
      </trkpt>
      <trkpt lat="45.16439" lon="5.95137">
        <ele>2354.41</ele>
        <time>2023-08-10T08:14:03Z</time>
      </trkpt>
      <trkpt lat="45.16443" lon="5.95144">
        <ele>2355.85</ele>
        <time>2023-08-10T08:14:17Z</time>
      </trkpt>
      <trkpt lat="45.16446" lon="5.95152">
        <ele>2356.81</ele>
        <time>2023-08-10T08:14:30Z</time>
      </trkpt>
      <trkpt lat="45.1645" lon="5.95157">
        <ele>2355.37</ele>
        <time>2023-08-10T08:14:36Z</time>
      </trkpt>
      <trkpt lat="45.16456" lon="5.95162">
        <ele>2354.41</ele>
        <time>2023-08-10T08:14:45Z</time>
      </trkpt>
      <trkpt lat="45.16461" lon="5.95172">
        <ele>2354.89</ele>
        <time>2023-08-10T08:14:57Z</time>
      </trkpt>
      <trkpt lat="45.16461" lon="5.95173">
        <ele>2354.89</ele>
        <time>2023-08-10T08:14:59Z</time>
      </trkpt>
      <trkpt lat="45.16461" lon="5.95184">
        <ele>2353.44</ele>
        <time>2023-08-10T08:15:12Z</time>
      </trkpt>
      <trkpt lat="45.16461" lon="5.95186">
        <ele>2353.44</ele>
        <time>2023-08-10T08:15:14Z</time>
      </trkpt>
      <trkpt lat="45.16463" lon="5.95189">
        <ele>2352.96</ele>
        <time>2023-08-10T08:15:17Z</time>
      </trkpt>
      <trkpt lat="45.16466" lon="5.95195">
        <ele>2352.48</ele>
        <time>2023-08-10T08:15:27Z</time>
      </trkpt>
      <trkpt lat="45.16468" lon="5.952">
        <ele>2351.52</ele>
        <time>2023-08-10T08:15:33Z</time>
      </trkpt>
      <trkpt lat="45.16472" lon="5.95215">
        <ele>2351.04</ele>
        <time>2023-08-10T08:15:46Z</time>
      </trkpt>
      <trkpt lat="45.16475" lon="5.95225">
        <ele>2352.48</ele>
        <time>2023-08-10T08:15:56Z</time>
      </trkpt>
      <trkpt lat="45.16476" lon="5.95227">
        <ele>2351.04</ele>
        <time>2023-08-10T08:15:58Z</time>
      </trkpt>
      <trkpt lat="45.16479" lon="5.95243">
        <ele>2348.64</ele>
        <time>2023-08-10T08:16:09Z</time>
      </trkpt>
      <trkpt lat="45.16478" lon="5.95247">
        <ele>2349.12</ele>
        <time>2023-08-10T08:16:13Z</time>
      </trkpt>
      <trkpt lat="45.16481" lon="5.95261">
        <ele>2349.12</ele>
        <time>2023-08-10T08:16:24Z</time>
      </trkpt>
      <trkpt lat="45.16486" lon="5.95277">
        <ele>2349.12</ele>
        <time>2023-08-10T08:16:36Z</time>
      </trkpt>
      <trkpt lat="45.16487" lon="5.9529">
        <ele>2349.12</ele>
        <time>2023-08-10T08:16:49Z</time>
      </trkpt>
      <trkpt lat="45.16487" lon="5.95295">
        <ele>2350.08</ele>
        <time>2023-08-10T08:16:53Z</time>
      </trkpt>
      <trkpt lat="45.16488" lon="5.953">
        <ele>2350.56</ele>
        <time>2023-08-10T08:16:57Z</time>
      </trkpt>
      <trkpt lat="45.16489" lon="5.95312">
        <ele>2351.04</ele>
        <time>2023-08-10T08:17:08Z</time>
      </trkpt>
      <trkpt lat="45.1649" lon="5.95313">
        <ele>2351.04</ele>
        <time>2023-08-10T08:17:09Z</time>
      </trkpt>
      <trkpt lat="45.16491" lon="5.9532">
        <ele>2352.96</ele>
        <time>2023-08-10T08:17:16Z</time>
      </trkpt>
      <trkpt lat="45.16491" lon="5.95335">
        <ele>2352</ele>
        <time>2023-08-10T08:17:29Z</time>
      </trkpt>
      <trkpt lat="45.16491" lon="5.95339">
        <ele>2352</ele>
        <time>2023-08-10T08:17:32Z</time>
      </trkpt>
      <trkpt lat="45.16492" lon="5.95352">
        <ele>2352</ele>
        <time>2023-08-10T08:17:42Z</time>
      </trkpt>
      <trkpt lat="45.16494" lon="5.95362">
        <ele>2352</ele>
        <time>2023-08-10T08:17:54Z</time>
      </trkpt>
      <trkpt lat="45.16495" lon="5.9537">
        <ele>2354.41</ele>
        <time>2023-08-10T08:18:09Z</time>
      </trkpt>
      <trkpt lat="45.16494" lon="5.95379">
        <ele>2355.37</ele>
        <time>2023-08-10T08:18:25Z</time>
      </trkpt>
      <trkpt lat="45.16494" lon="5.95387">
        <ele>2356.33</ele>
        <time>2023-08-10T08:18:36Z</time>
      </trkpt>
      <trkpt lat="45.16494" lon="5.95391">
        <ele>2357.29</ele>
        <time>2023-08-10T08:18:51Z</time>
      </trkpt>
      <trkpt lat="45.16491" lon="5.95391">
        <ele>2357.77</ele>
        <time>2023-08-10T08:24:53Z</time>
      </trkpt>
      <trkpt lat="45.16486" lon="5.95396">
        <ele>2357.29</ele>
        <time>2023-08-10T08:25:02Z</time>
      </trkpt>
      <trkpt lat="45.16481" lon="5.954">
        <ele>2356.81</ele>
        <time>2023-08-10T08:25:14Z</time>
      </trkpt>
      <trkpt lat="45.16479" lon="5.95405">
        <ele>2355.85</ele>
        <time>2023-08-10T08:25:20Z</time>
      </trkpt>
      <trkpt lat="45.16476" lon="5.95411">
        <ele>2355.37</ele>
        <time>2023-08-10T08:25:25Z</time>
      </trkpt>
      <trkpt lat="45.16471" lon="5.95421">
        <ele>2355.37</ele>
        <time>2023-08-10T08:25:37Z</time>
      </trkpt>
      <trkpt lat="45.16472" lon="5.95423">
        <ele>2355.37</ele>
        <time>2023-08-10T08:25:40Z</time>
      </trkpt>
      <trkpt lat="45.16476" lon="5.95432">
        <ele>2355.37</ele>
        <time>2023-08-10T08:25:50Z</time>
      </trkpt>
      <trkpt lat="45.16477" lon="5.95434">
        <ele>2355.37</ele>
        <time>2023-08-10T08:25:52Z</time>
      </trkpt>
      <trkpt lat="45.16479" lon="5.95439">
        <ele>2355.37</ele>
        <time>2023-08-10T08:25:56Z</time>
      </trkpt>
      <trkpt lat="45.16482" lon="5.95442">
        <ele>2355.37</ele>
        <time>2023-08-10T08:26:07Z</time>
      </trkpt>
      <trkpt lat="45.16481" lon="5.95445">
        <ele>2355.37</ele>
        <time>2023-08-10T08:26:10Z</time>
      </trkpt>
      <trkpt lat="45.1648" lon="5.95448">
        <ele>2355.37</ele>
        <time>2023-08-10T08:26:13Z</time>
      </trkpt>
      <trkpt lat="45.16478" lon="5.95452">
        <ele>2355.37</ele>
        <time>2023-08-10T08:26:16Z</time>
      </trkpt>
      <trkpt lat="45.16476" lon="5.95461">
        <ele>2356.81</ele>
        <time>2023-08-10T08:26:24Z</time>
      </trkpt>
      <trkpt lat="45.16471" lon="5.95471">
        <ele>2356.81</ele>
        <time>2023-08-10T08:26:34Z</time>
      </trkpt>
      <trkpt lat="45.1647" lon="5.95475">
        <ele>2356.81</ele>
        <time>2023-08-10T08:26:37Z</time>
      </trkpt>
      <trkpt lat="45.16467" lon="5.95477">
        <ele>2356.81</ele>
        <time>2023-08-10T08:26:39Z</time>
      </trkpt>
      <trkpt lat="45.16465" lon="5.95478">
        <ele>2356.81</ele>
        <time>2023-08-10T08:26:40Z</time>
      </trkpt>
      <trkpt lat="45.16465" lon="5.9548">
        <ele>2356.81</ele>
        <time>2023-08-10T08:26:41Z</time>
      </trkpt>
      <trkpt lat="45.16464" lon="5.95481">
        <ele>2356.81</ele>
        <time>2023-08-10T08:26:42Z</time>
      </trkpt>
      <trkpt lat="45.16463" lon="5.95484">
        <ele>2356.81</ele>
        <time>2023-08-10T08:26:44Z</time>
      </trkpt>
      <trkpt lat="45.1646" lon="5.95488">
        <ele>2356.81</ele>
        <time>2023-08-10T08:26:50Z</time>
      </trkpt>
      <trkpt lat="45.16459" lon="5.95489">
        <ele>2356.81</ele>
        <time>2023-08-10T08:26:51Z</time>
      </trkpt>
      <trkpt lat="45.16458" lon="5.9549">
        <ele>2356.81</ele>
        <time>2023-08-10T08:26:52Z</time>
      </trkpt>
      <trkpt lat="45.16457" lon="5.95491">
        <ele>2356.81</ele>
        <time>2023-08-10T08:26:53Z</time>
      </trkpt>
      <trkpt lat="45.16456" lon="5.95492">
        <ele>2356.81</ele>
        <time>2023-08-10T08:26:55Z</time>
      </trkpt>
      <trkpt lat="45.16455" lon="5.95494">
        <ele>2356.81</ele>
        <time>2023-08-10T08:26:56Z</time>
      </trkpt>
      <trkpt lat="45.16454" lon="5.95495">
        <ele>2356.81</ele>
        <time>2023-08-10T08:26:57Z</time>
      </trkpt>
      <trkpt lat="45.16452" lon="5.95498">
        <ele>2356.81</ele>
        <time>2023-08-10T08:27:00Z</time>
      </trkpt>
      <trkpt lat="45.1645" lon="5.95503">
        <ele>2356.81</ele>
        <time>2023-08-10T08:27:06Z</time>
      </trkpt>
      <trkpt lat="45.16448" lon="5.95512">
        <ele>2356.81</ele>
        <time>2023-08-10T08:27:16Z</time>
      </trkpt>
      <trkpt lat="45.16448" lon="5.95522">
        <ele>2358.25</ele>
        <time>2023-08-10T08:27:27Z</time>
      </trkpt>
      <trkpt lat="45.16448" lon="5.95532">
        <ele>2358.73</ele>
        <time>2023-08-10T08:27:38Z</time>
      </trkpt>
      <trkpt lat="45.16453" lon="5.95542">
        <ele>2360.65</ele>
        <time>2023-08-10T08:27:53Z</time>
      </trkpt>
      <trkpt lat="45.16456" lon="5.95547">
        <ele>2361.14</ele>
        <time>2023-08-10T08:28:03Z</time>
      </trkpt>
      <trkpt lat="45.16456" lon="5.95549">
        <ele>2361.62</ele>
        <time>2023-08-10T08:28:07Z</time>
      </trkpt>
      <trkpt lat="45.16453" lon="5.95558">
        <ele>2363.06</ele>
        <time>2023-08-10T08:28:19Z</time>
      </trkpt>
      <trkpt lat="45.16453" lon="5.95572">
        <ele>2361.62</ele>
        <time>2023-08-10T08:28:31Z</time>
      </trkpt>
      <trkpt lat="45.16453" lon="5.95577">
        <ele>2361.14</ele>
        <time>2023-08-10T08:28:35Z</time>
      </trkpt>
      <trkpt lat="45.16453" lon="5.95579">
        <ele>2361.14</ele>
        <time>2023-08-10T08:28:36Z</time>
      </trkpt>
      <trkpt lat="45.1645" lon="5.95592">
        <ele>2360.65</ele>
        <time>2023-08-10T08:28:47Z</time>
      </trkpt>
      <trkpt lat="45.16451" lon="5.9561">
        <ele>2360.65</ele>
        <time>2023-08-10T08:29:02Z</time>
      </trkpt>
      <trkpt lat="45.16451" lon="5.95615">
        <ele>2360.65</ele>
        <time>2023-08-10T08:29:07Z</time>
      </trkpt>
      <trkpt lat="45.1645" lon="5.95617">
        <ele>2360.17</ele>
        <time>2023-08-10T08:29:09Z</time>
      </trkpt>
      <trkpt lat="45.16449" lon="5.95619">
        <ele>2360.17</ele>
        <time>2023-08-10T08:29:10Z</time>
      </trkpt>
      <trkpt lat="45.16449" lon="5.9562">
        <ele>2360.17</ele>
        <time>2023-08-10T08:29:11Z</time>
      </trkpt>
      <trkpt lat="45.16449" lon="5.95633">
        <ele>2359.21</ele>
        <time>2023-08-10T08:29:19Z</time>
      </trkpt>
      <trkpt lat="45.16449" lon="5.95635">
        <ele>2359.21</ele>
        <time>2023-08-10T08:29:20Z</time>
      </trkpt>
      <trkpt lat="45.16449" lon="5.95636">
        <ele>2358.73</ele>
        <time>2023-08-10T08:29:21Z</time>
      </trkpt>
      <trkpt lat="45.16448" lon="5.95639">
        <ele>2358.73</ele>
        <time>2023-08-10T08:29:24Z</time>
      </trkpt>
      <trkpt lat="45.16448" lon="5.9564">
        <ele>2358.73</ele>
        <time>2023-08-10T08:29:25Z</time>
      </trkpt>
      <trkpt lat="45.16449" lon="5.95644">
        <ele>2359.21</ele>
        <time>2023-08-10T08:29:28Z</time>
      </trkpt>
      <trkpt lat="45.16449" lon="5.95646">
        <ele>2358.73</ele>
        <time>2023-08-10T08:29:29Z</time>
      </trkpt>
      <trkpt lat="45.1645" lon="5.9566">
        <ele>2357.77</ele>
        <time>2023-08-10T08:29:40Z</time>
      </trkpt>
      <trkpt lat="45.16449" lon="5.95662">
        <ele>2357.77</ele>
        <time>2023-08-10T08:29:42Z</time>
      </trkpt>
      <trkpt lat="45.16442" lon="5.95676">
        <ele>2357.77</ele>
        <time>2023-08-10T08:29:56Z</time>
      </trkpt>
      <trkpt lat="45.16441" lon="5.95686">
        <ele>2357.77</ele>
        <time>2023-08-10T08:30:04Z</time>
      </trkpt>
      <trkpt lat="45.1644" lon="5.95687">
        <ele>2358.25</ele>
        <time>2023-08-10T08:30:05Z</time>
      </trkpt>
      <trkpt lat="45.16438" lon="5.95692">
        <ele>2357.77</ele>
        <time>2023-08-10T08:30:09Z</time>
      </trkpt>
      <trkpt lat="45.16433" lon="5.95708">
        <ele>2358.25</ele>
        <time>2023-08-10T08:30:23Z</time>
      </trkpt>
      <trkpt lat="45.16429" lon="5.95722">
        <ele>2359.21</ele>
        <time>2023-08-10T08:30:38Z</time>
      </trkpt>
      <trkpt lat="45.16424" lon="5.95739">
        <ele>2361.14</ele>
        <time>2023-08-10T08:30:53Z</time>
      </trkpt>
      <trkpt lat="45.16418" lon="5.95744">
        <ele>2362.1</ele>
        <time>2023-08-10T08:31:09Z</time>
      </trkpt>
      <trkpt lat="45.16411" lon="5.95752">
        <ele>2362.1</ele>
        <time>2023-08-10T08:31:20Z</time>
      </trkpt>
      <trkpt lat="45.16404" lon="5.9576">
        <ele>2363.06</ele>
        <time>2023-08-10T08:31:31Z</time>
      </trkpt>
      <trkpt lat="45.16401" lon="5.95764">
        <ele>2363.54</ele>
        <time>2023-08-10T08:31:36Z</time>
      </trkpt>
      <trkpt lat="45.16397" lon="5.95768">
        <ele>2364.02</ele>
        <time>2023-08-10T08:31:42Z</time>
      </trkpt>
      <trkpt lat="45.16395" lon="5.95769">
        <ele>2364.02</ele>
        <time>2023-08-10T08:31:44Z</time>
      </trkpt>
      <trkpt lat="45.16391" lon="5.95772">
        <ele>2364.02</ele>
        <time>2023-08-10T08:31:49Z</time>
      </trkpt>
      <trkpt lat="45.1639" lon="5.95773">
        <ele>2364.02</ele>
        <time>2023-08-10T08:31:50Z</time>
      </trkpt>
      <trkpt lat="45.16385" lon="5.95774">
        <ele>2364.02</ele>
        <time>2023-08-10T08:31:53Z</time>
      </trkpt>
      <trkpt lat="45.16382" lon="5.95781">
        <ele>2364.5</ele>
        <time>2023-08-10T08:32:03Z</time>
      </trkpt>
      <trkpt lat="45.16378" lon="5.95786">
        <ele>2365.46</ele>
        <time>2023-08-10T08:32:09Z</time>
      </trkpt>
      <trkpt lat="45.16376" lon="5.95787">
        <ele>2365.46</ele>
        <time>2023-08-10T08:32:11Z</time>
      </trkpt>
      <trkpt lat="45.16371" lon="5.95793">
        <ele>2366.42</ele>
        <time>2023-08-10T08:32:20Z</time>
      </trkpt>
      <trkpt lat="45.1637" lon="5.95796">
        <ele>2366.42</ele>
        <time>2023-08-10T08:32:22Z</time>
      </trkpt>
      <trkpt lat="45.16366" lon="5.95805">
        <ele>2367.38</ele>
        <time>2023-08-10T08:32:32Z</time>
      </trkpt>
      <trkpt lat="45.16366" lon="5.95807">
        <ele>2367.38</ele>
        <time>2023-08-10T08:32:34Z</time>
      </trkpt>
      <trkpt lat="45.16364" lon="5.95809">
        <ele>2367.86</ele>
        <time>2023-08-10T08:32:38Z</time>
      </trkpt>
      <trkpt lat="45.16359" lon="5.95817">
        <ele>2368.83</ele>
        <time>2023-08-10T08:32:48Z</time>
      </trkpt>
      <trkpt lat="45.1636" lon="5.95817">
        <ele>2368.83</ele>
        <time>2023-08-10T08:32:49Z</time>
      </trkpt>
      <trkpt lat="45.1636" lon="5.95824">
        <ele>2369.31</ele>
        <time>2023-08-10T08:32:56Z</time>
      </trkpt>
      <trkpt lat="45.16361" lon="5.95826">
        <ele>2370.27</ele>
        <time>2023-08-10T08:33:00Z</time>
      </trkpt>
      <trkpt lat="45.16353" lon="5.95831">
        <ele>2370.75</ele>
        <time>2023-08-10T08:33:10Z</time>
      </trkpt>
      <trkpt lat="45.16349" lon="5.95837">
        <ele>2371.23</ele>
        <time>2023-08-10T08:33:18Z</time>
      </trkpt>
      <trkpt lat="45.16346" lon="5.95846">
        <ele>2372.19</ele>
        <time>2023-08-10T08:33:29Z</time>
      </trkpt>
      <trkpt lat="45.16349" lon="5.95848">
        <ele>2373.63</ele>
        <time>2023-08-10T08:33:37Z</time>
      </trkpt>
      <trkpt lat="45.16347" lon="5.95856">
        <ele>2374.11</ele>
        <time>2023-08-10T08:33:49Z</time>
      </trkpt>
      <trkpt lat="45.16347" lon="5.95856">
        <ele>2374.11</ele>
        <time>2023-08-10T08:33:50Z</time>
      </trkpt>
      <trkpt lat="45.16346" lon="5.95859">
        <ele>2372.67</ele>
        <time>2023-08-10T08:33:53Z</time>
      </trkpt>
      <trkpt lat="45.16336" lon="5.95864">
        <ele>2373.15</ele>
        <time>2023-08-10T08:34:06Z</time>
      </trkpt>
      <trkpt lat="45.16334" lon="5.95874">
        <ele>2374.59</ele>
        <time>2023-08-10T08:34:20Z</time>
      </trkpt>
      <trkpt lat="45.16334" lon="5.95876">
        <ele>2375.07</ele>
        <time>2023-08-10T08:34:22Z</time>
      </trkpt>
      <trkpt lat="45.16335" lon="5.95889">
        <ele>2376.04</ele>
        <time>2023-08-10T08:34:36Z</time>
      </trkpt>
      <trkpt lat="45.16335" lon="5.95898">
        <ele>2376.52</ele>
        <time>2023-08-10T08:34:46Z</time>
      </trkpt>
      <trkpt lat="45.16337" lon="5.95911">
        <ele>2377</ele>
        <time>2023-08-10T08:35:00Z</time>
      </trkpt>
      <trkpt lat="45.16338" lon="5.95913">
        <ele>2377.96</ele>
        <time>2023-08-10T08:35:03Z</time>
      </trkpt>
      <trkpt lat="45.16342" lon="5.95927">
        <ele>2378.92</ele>
        <time>2023-08-10T08:35:16Z</time>
      </trkpt>
      <trkpt lat="45.16345" lon="5.95939">
        <ele>2379.4</ele>
        <time>2023-08-10T08:35:28Z</time>
      </trkpt>
      <trkpt lat="45.16345" lon="5.95941">
        <ele>2379.4</ele>
        <time>2023-08-10T08:35:30Z</time>
      </trkpt>
      <trkpt lat="45.16347" lon="5.95952">
        <ele>2380.36</ele>
        <time>2023-08-10T08:35:42Z</time>
      </trkpt>
      <trkpt lat="45.16348" lon="5.9596">
        <ele>2380.84</ele>
        <time>2023-08-10T08:35:50Z</time>
      </trkpt>
      <trkpt lat="45.16349" lon="5.95964">
        <ele>2381.32</ele>
        <time>2023-08-10T08:35:53Z</time>
      </trkpt>
      <trkpt lat="45.16351" lon="5.95972">
        <ele>2381.8</ele>
        <time>2023-08-10T08:36:03Z</time>
      </trkpt>
      <trkpt lat="45.16352" lon="5.95986">
        <ele>2383.25</ele>
        <time>2023-08-10T08:36:17Z</time>
      </trkpt>
      <trkpt lat="45.16352" lon="5.95987">
        <ele>2383.25</ele>
        <time>2023-08-10T08:36:18Z</time>
      </trkpt>
      <trkpt lat="45.16355" lon="5.95997">
        <ele>2383.25</ele>
        <time>2023-08-10T08:36:27Z</time>
      </trkpt>
      <trkpt lat="45.16357" lon="5.96012">
        <ele>2383.73</ele>
        <time>2023-08-10T08:36:41Z</time>
      </trkpt>
      <trkpt lat="45.16361" lon="5.96024">
        <ele>2385.17</ele>
        <time>2023-08-10T08:36:54Z</time>
      </trkpt>
      <trkpt lat="45.16369" lon="5.96037">
        <ele>2385.65</ele>
        <time>2023-08-10T08:37:07Z</time>
      </trkpt>
      <trkpt lat="45.1637" lon="5.96039">
        <ele>2385.65</ele>
        <time>2023-08-10T08:37:09Z</time>
      </trkpt>
      <trkpt lat="45.1637" lon="5.96042">
        <ele>2385.65</ele>
        <time>2023-08-10T08:37:12Z</time>
      </trkpt>
      <trkpt lat="45.16375" lon="5.96053">
        <ele>2385.65</ele>
        <time>2023-08-10T08:37:22Z</time>
      </trkpt>
      <trkpt lat="45.16378" lon="5.96065">
        <ele>2387.09</ele>
        <time>2023-08-10T08:37:36Z</time>
      </trkpt>
      <trkpt lat="45.16385" lon="5.96078">
        <ele>2388.05</ele>
        <time>2023-08-10T08:37:50Z</time>
      </trkpt>
      <trkpt lat="45.1639" lon="5.96088">
        <ele>2389.01</ele>
        <time>2023-08-10T08:38:04Z</time>
      </trkpt>
      <trkpt lat="45.16393" lon="5.96097">
        <ele>2389.97</ele>
        <time>2023-08-10T08:38:14Z</time>
      </trkpt>
      <trkpt lat="45.16393" lon="5.961">
        <ele>2389.97</ele>
        <time>2023-08-10T08:38:17Z</time>
      </trkpt>
      <trkpt lat="45.16396" lon="5.96105">
        <ele>2390.94</ele>
        <time>2023-08-10T08:38:22Z</time>
      </trkpt>
      <trkpt lat="45.164" lon="5.96113">
        <ele>2391.42</ele>
        <time>2023-08-10T08:38:33Z</time>
      </trkpt>
      <trkpt lat="45.16405" lon="5.96123">
        <ele>2392.38</ele>
        <time>2023-08-10T08:38:45Z</time>
      </trkpt>
      <trkpt lat="45.16406" lon="5.96126">
        <ele>2392.38</ele>
        <time>2023-08-10T08:38:48Z</time>
      </trkpt>
      <trkpt lat="45.16409" lon="5.96138">
        <ele>2393.34</ele>
        <time>2023-08-10T08:39:00Z</time>
      </trkpt>
      <trkpt lat="45.16412" lon="5.96147">
        <ele>2393.82</ele>
        <time>2023-08-10T08:39:11Z</time>
      </trkpt>
      <trkpt lat="45.16412" lon="5.9615">
        <ele>2394.3</ele>
        <time>2023-08-10T08:39:15Z</time>
      </trkpt>
      <trkpt lat="45.16416" lon="5.9616">
        <ele>2395.26</ele>
        <time>2023-08-10T08:39:27Z</time>
      </trkpt>
      <trkpt lat="45.16419" lon="5.96163">
        <ele>2395.26</ele>
        <time>2023-08-10T08:39:40Z</time>
      </trkpt>
      <trkpt lat="45.16423" lon="5.96171">
        <ele>2395.26</ele>
        <time>2023-08-10T08:39:48Z</time>
      </trkpt>
      <trkpt lat="45.16424" lon="5.96179">
        <ele>2395.26</ele>
        <time>2023-08-10T08:39:53Z</time>
      </trkpt>
      <trkpt lat="45.16426" lon="5.96183">
        <ele>2395.26</ele>
        <time>2023-08-10T08:39:56Z</time>
      </trkpt>
      <trkpt lat="45.1643" lon="5.96198">
        <ele>2396.7</ele>
        <time>2023-08-10T08:40:11Z</time>
      </trkpt>
      <trkpt lat="45.16431" lon="5.96202">
        <ele>2396.22</ele>
        <time>2023-08-10T08:40:16Z</time>
      </trkpt>
      <trkpt lat="45.16432" lon="5.96206">
        <ele>2396.22</ele>
        <time>2023-08-10T08:40:19Z</time>
      </trkpt>
      <trkpt lat="45.16432" lon="5.96209">
        <ele>2396.22</ele>
        <time>2023-08-10T08:40:21Z</time>
      </trkpt>
      <trkpt lat="45.16434" lon="5.96219">
        <ele>2396.22</ele>
        <time>2023-08-10T08:40:31Z</time>
      </trkpt>
      <trkpt lat="45.16435" lon="5.96223">
        <ele>2396.22</ele>
        <time>2023-08-10T08:40:34Z</time>
      </trkpt>
      <trkpt lat="45.16437" lon="5.96229">
        <ele>2396.7</ele>
        <time>2023-08-10T08:40:41Z</time>
      </trkpt>
      <trkpt lat="45.1644" lon="5.96232">
        <ele>2395.74</ele>
        <time>2023-08-10T08:40:45Z</time>
      </trkpt>
      <trkpt lat="45.16449" lon="5.96239">
        <ele>2395.26</ele>
        <time>2023-08-10T08:40:58Z</time>
      </trkpt>
      <trkpt lat="45.16449" lon="5.9624">
        <ele>2394.78</ele>
        <time>2023-08-10T08:41:01Z</time>
      </trkpt>
      <trkpt lat="45.1645" lon="5.96243">
        <ele>2394.3</ele>
        <time>2023-08-10T08:41:03Z</time>
      </trkpt>
      <trkpt lat="45.16451" lon="5.96247">
        <ele>2394.78</ele>
        <time>2023-08-10T08:41:07Z</time>
      </trkpt>
      <trkpt lat="45.16451" lon="5.96252">
        <ele>2394.78</ele>
        <time>2023-08-10T08:41:11Z</time>
      </trkpt>
      <trkpt lat="45.16452" lon="5.96253">
        <ele>2394.78</ele>
        <time>2023-08-10T08:41:13Z</time>
      </trkpt>
      <trkpt lat="45.16456" lon="5.96269">
        <ele>2396.22</ele>
        <time>2023-08-10T08:41:27Z</time>
      </trkpt>
      <trkpt lat="45.16458" lon="5.96272">
        <ele>2396.22</ele>
        <time>2023-08-10T08:41:31Z</time>
      </trkpt>
      <trkpt lat="45.16463" lon="5.96276">
        <ele>2397.18</ele>
        <time>2023-08-10T08:41:42Z</time>
      </trkpt>
      <trkpt lat="45.16464" lon="5.96282">
        <ele>2397.18</ele>
        <time>2023-08-10T08:41:50Z</time>
      </trkpt>
      <trkpt lat="45.16472" lon="5.96287">
        <ele>2397.18</ele>
        <time>2023-08-10T08:42:04Z</time>
      </trkpt>
      <trkpt lat="45.16476" lon="5.96296">
        <ele>2397.67</ele>
        <time>2023-08-10T08:42:17Z</time>
      </trkpt>
      <trkpt lat="45.16484" lon="5.96304">
        <ele>2398.15</ele>
        <time>2023-08-10T08:42:30Z</time>
      </trkpt>
      <trkpt lat="45.16484" lon="5.96308">
        <ele>2398.15</ele>
        <time>2023-08-10T08:42:33Z</time>
      </trkpt>
      <trkpt lat="45.16485" lon="5.96313">
        <ele>2398.63</ele>
        <time>2023-08-10T08:42:36Z</time>
      </trkpt>
      <trkpt lat="45.16488" lon="5.96324">
        <ele>2398.63</ele>
        <time>2023-08-10T08:42:47Z</time>
      </trkpt>
      <trkpt lat="45.16489" lon="5.96333">
        <ele>2396.7</ele>
        <time>2023-08-10T08:42:57Z</time>
      </trkpt>
      <trkpt lat="45.1649" lon="5.96339">
        <ele>2395.74</ele>
        <time>2023-08-10T08:43:01Z</time>
      </trkpt>
      <trkpt lat="45.16493" lon="5.96345">
        <ele>2395.26</ele>
        <time>2023-08-10T08:43:07Z</time>
      </trkpt>
      <trkpt lat="45.16495" lon="5.96348">
        <ele>2394.78</ele>
        <time>2023-08-10T08:43:11Z</time>
      </trkpt>
      <trkpt lat="45.16495" lon="5.96357">
        <ele>2394.78</ele>
        <time>2023-08-10T08:43:17Z</time>
      </trkpt>
      <trkpt lat="45.16496" lon="5.96362">
        <ele>2394.78</ele>
        <time>2023-08-10T08:43:20Z</time>
      </trkpt>
      <trkpt lat="45.16506" lon="5.96372">
        <ele>2393.82</ele>
        <time>2023-08-10T08:43:33Z</time>
      </trkpt>
      <trkpt lat="45.16508" lon="5.96372">
        <ele>2393.82</ele>
        <time>2023-08-10T08:43:37Z</time>
      </trkpt>
      <trkpt lat="45.16514" lon="5.96378">
        <ele>2393.82</ele>
        <time>2023-08-10T08:43:48Z</time>
      </trkpt>
      <trkpt lat="45.16515" lon="5.9638">
        <ele>2393.82</ele>
        <time>2023-08-10T08:43:50Z</time>
      </trkpt>
      <trkpt lat="45.16514" lon="5.96384">
        <ele>2393.82</ele>
        <time>2023-08-10T08:43:53Z</time>
      </trkpt>
      <trkpt lat="45.16525" lon="5.96392">
        <ele>2392.86</ele>
        <time>2023-08-10T08:44:07Z</time>
      </trkpt>
      <trkpt lat="45.16534" lon="5.96399">
        <ele>2392.86</ele>
        <time>2023-08-10T08:44:22Z</time>
      </trkpt>
      <trkpt lat="45.16533" lon="5.96412">
        <ele>2394.3</ele>
        <time>2023-08-10T08:44:35Z</time>
      </trkpt>
      <trkpt lat="45.16528" lon="5.9642">
        <ele>2396.22</ele>
        <time>2023-08-10T08:44:51Z</time>
      </trkpt>
      <trkpt lat="45.16519" lon="5.96434">
        <ele>2398.15</ele>
        <time>2023-08-10T08:45:10Z</time>
      </trkpt>
      <trkpt lat="45.16517" lon="5.9645">
        <ele>2397.18</ele>
        <time>2023-08-10T08:45:25Z</time>
      </trkpt>
      <trkpt lat="45.1652" lon="5.96458">
        <ele>2398.63</ele>
        <time>2023-08-10T08:45:35Z</time>
      </trkpt>
      <trkpt lat="45.1652" lon="5.96461">
        <ele>2397.18</ele>
        <time>2023-08-10T08:45:38Z</time>
      </trkpt>
      <trkpt lat="45.16519" lon="5.96478">
        <ele>2396.22</ele>
        <time>2023-08-10T08:45:51Z</time>
      </trkpt>
      <trkpt lat="45.16517" lon="5.96494">
        <ele>2396.22</ele>
        <time>2023-08-10T08:46:05Z</time>
      </trkpt>
      <trkpt lat="45.16518" lon="5.96511">
        <ele>2397.67</ele>
        <time>2023-08-10T08:46:19Z</time>
      </trkpt>
      <trkpt lat="45.16518" lon="5.96511">
        <ele>2397.67</ele>
        <time>2023-08-10T08:46:20Z</time>
      </trkpt>
      <trkpt lat="45.16518" lon="5.96524">
        <ele>2398.63</ele>
        <time>2023-08-10T08:46:34Z</time>
      </trkpt>
      <trkpt lat="45.16522" lon="5.9654">
        <ele>2399.59</ele>
        <time>2023-08-10T08:46:52Z</time>
      </trkpt>
      <trkpt lat="45.16525" lon="5.96557">
        <ele>2401.03</ele>
        <time>2023-08-10T08:47:10Z</time>
      </trkpt>
      <trkpt lat="45.16528" lon="5.96571">
        <ele>2401.51</ele>
        <time>2023-08-10T08:47:26Z</time>
      </trkpt>
      <trkpt lat="45.16535" lon="5.96582">
        <ele>2401.51</ele>
        <time>2023-08-10T08:47:38Z</time>
      </trkpt>
      <trkpt lat="45.1654" lon="5.96596">
        <ele>2402.47</ele>
        <time>2023-08-10T08:47:56Z</time>
      </trkpt>
      <trkpt lat="45.16544" lon="5.9661">
        <ele>2404.88</ele>
        <time>2023-08-10T08:48:14Z</time>
      </trkpt>
      <trkpt lat="45.16551" lon="5.96617">
        <ele>2407.28</ele>
        <time>2023-08-10T08:48:30Z</time>
      </trkpt>
      <trkpt lat="45.16552" lon="5.96618">
        <ele>2405.84</ele>
        <time>2023-08-10T08:48:33Z</time>
      </trkpt>
      <trkpt lat="45.16563" lon="5.96631">
        <ele>2406.32</ele>
        <time>2023-08-10T08:48:51Z</time>
      </trkpt>
      <trkpt lat="45.16564" lon="5.96632">
        <ele>2407.28</ele>
        <time>2023-08-10T08:48:53Z</time>
      </trkpt>
      <trkpt lat="45.16576" lon="5.96642">
        <ele>2409.2</ele>
        <time>2023-08-10T08:49:09Z</time>
      </trkpt>
      <trkpt lat="45.1658" lon="5.96643">
        <ele>2409.68</ele>
        <time>2023-08-10T08:49:22Z</time>
      </trkpt>
      <trkpt lat="45.16581" lon="5.96642">
        <ele>2409.68</ele>
        <time>2023-08-10T08:49:31Z</time>
      </trkpt>
      <trkpt lat="45.1658" lon="5.96654">
        <ele>2410.64</ele>
        <time>2023-08-10T08:49:44Z</time>
      </trkpt>
      <trkpt lat="45.16582" lon="5.96664">
        <ele>2411.12</ele>
        <time>2023-08-10T08:49:56Z</time>
      </trkpt>
      <trkpt lat="45.16582" lon="5.96665">
        <ele>2411.12</ele>
        <time>2023-08-10T08:49:57Z</time>
      </trkpt>
      <trkpt lat="45.16586" lon="5.96675">
        <ele>2412.09</ele>
        <time>2023-08-10T08:50:10Z</time>
      </trkpt>
      <trkpt lat="45.16591" lon="5.96677">
        <ele>2414.01</ele>
        <time>2023-08-10T08:50:21Z</time>
      </trkpt>
      <trkpt lat="45.16595" lon="5.9668">
        <ele>2415.45</ele>
        <time>2023-08-10T08:50:34Z</time>
      </trkpt>
      <trkpt lat="45.16598" lon="5.9669">
        <ele>2416.41</ele>
        <time>2023-08-10T08:50:47Z</time>
      </trkpt>
      <trkpt lat="45.16601" lon="5.96699">
        <ele>2416.89</ele>
        <time>2023-08-10T08:50:55Z</time>
      </trkpt>
      <trkpt lat="45.16605" lon="5.96704">
        <ele>2417.37</ele>
        <time>2023-08-10T08:51:08Z</time>
      </trkpt>
      <trkpt lat="45.16609" lon="5.96713">
        <ele>2419.3</ele>
        <time>2023-08-10T08:51:20Z</time>
      </trkpt>
      <trkpt lat="45.1661" lon="5.96723">
        <ele>2420.26</ele>
        <time>2023-08-10T08:51:32Z</time>
      </trkpt>
      <trkpt lat="45.16609" lon="5.96723">
        <ele>2420.26</ele>
        <time>2023-08-10T08:51:33Z</time>
      </trkpt>
      <trkpt lat="45.16613" lon="5.96732">
        <ele>2421.7</ele>
        <time>2023-08-10T08:51:47Z</time>
      </trkpt>
      <trkpt lat="45.16616" lon="5.96739">
        <ele>2422.66</ele>
        <time>2023-08-10T08:51:59Z</time>
      </trkpt>
      <trkpt lat="45.1662" lon="5.96749">
        <ele>2423.14</ele>
        <time>2023-08-10T08:52:12Z</time>
      </trkpt>
      <trkpt lat="45.16623" lon="5.96751">
        <ele>2423.14</ele>
        <time>2023-08-10T08:52:16Z</time>
      </trkpt>
      <trkpt lat="45.16627" lon="5.96763">
        <ele>2423.62</ele>
        <time>2023-08-10T08:52:30Z</time>
      </trkpt>
      <trkpt lat="45.1663" lon="5.96777">
        <ele>2425.06</ele>
        <time>2023-08-10T08:52:47Z</time>
      </trkpt>
      <trkpt lat="45.16636" lon="5.96791">
        <ele>2426.99</ele>
        <time>2023-08-10T08:53:02Z</time>
      </trkpt>
      <trkpt lat="45.16636" lon="5.96795">
        <ele>2426.99</ele>
        <time>2023-08-10T08:53:07Z</time>
      </trkpt>
      <trkpt lat="45.16639" lon="5.96798">
        <ele>2426.99</ele>
        <time>2023-08-10T08:53:12Z</time>
      </trkpt>
      <trkpt lat="45.16641" lon="5.96802">
        <ele>2428.43</ele>
        <time>2023-08-10T08:53:23Z</time>
      </trkpt>
      <trkpt lat="45.16642" lon="5.96806">
        <ele>2429.39</ele>
        <time>2023-08-10T08:53:30Z</time>
      </trkpt>
      <trkpt lat="45.1664" lon="5.96817">
        <ele>2430.83</ele>
        <time>2023-08-10T08:53:43Z</time>
      </trkpt>
      <trkpt lat="45.16639" lon="5.9682">
        <ele>2430.83</ele>
        <time>2023-08-10T08:53:48Z</time>
      </trkpt>
      <trkpt lat="45.16638" lon="5.96823">
        <ele>2431.31</ele>
        <time>2023-08-10T08:53:52Z</time>
      </trkpt>
      <trkpt lat="45.16632" lon="5.96833">
        <ele>2432.27</ele>
        <time>2023-08-10T08:54:03Z</time>
      </trkpt>
      <trkpt lat="45.16632" lon="5.9684">
        <ele>2432.75</ele>
        <time>2023-08-10T08:54:15Z</time>
      </trkpt>
      <trkpt lat="45.16631" lon="5.96848">
        <ele>2433.71</ele>
        <time>2023-08-10T08:54:25Z</time>
      </trkpt>
      <trkpt lat="45.1663" lon="5.96855">
        <ele>2434.68</ele>
        <time>2023-08-10T08:54:37Z</time>
      </trkpt>
      <trkpt lat="45.16628" lon="5.96862">
        <ele>2435.16</ele>
        <time>2023-08-10T08:54:47Z</time>
      </trkpt>
      <trkpt lat="45.16626" lon="5.96866">
        <ele>2435.16</ele>
        <time>2023-08-10T08:54:51Z</time>
      </trkpt>
      <trkpt lat="45.16627" lon="5.96869">
        <ele>2435.16</ele>
        <time>2023-08-10T08:54:55Z</time>
      </trkpt>
      <trkpt lat="45.16629" lon="5.96876">
        <ele>2435.64</ele>
        <time>2023-08-10T08:55:01Z</time>
      </trkpt>
      <trkpt lat="45.16624" lon="5.96881">
        <ele>2436.12</ele>
        <time>2023-08-10T08:55:14Z</time>
      </trkpt>
      <trkpt lat="45.16623" lon="5.96886">
        <ele>2437.56</ele>
        <time>2023-08-10T08:55:20Z</time>
      </trkpt>
      <trkpt lat="45.16619" lon="5.96888">
        <ele>2439.48</ele>
        <time>2023-08-10T08:55:30Z</time>
      </trkpt>
      <trkpt lat="45.16615" lon="5.96895">
        <ele>2441.41</ele>
        <time>2023-08-10T08:55:45Z</time>
      </trkpt>
      <trkpt lat="45.16617" lon="5.96905">
        <ele>2441.89</ele>
        <time>2023-08-10T08:55:59Z</time>
      </trkpt>
      <trkpt lat="45.16617" lon="5.9691">
        <ele>2441.89</ele>
        <time>2023-08-10T08:56:07Z</time>
      </trkpt>
      <trkpt lat="45.16617" lon="5.96911">
        <ele>2441.89</ele>
        <time>2023-08-10T08:56:08Z</time>
      </trkpt>
      <trkpt lat="45.16617" lon="5.96915">
        <ele>2442.85</ele>
        <time>2023-08-10T08:56:11Z</time>
      </trkpt>
      <trkpt lat="45.16617" lon="5.96917">
        <ele>2443.33</ele>
        <time>2023-08-10T08:56:12Z</time>
      </trkpt>
      <trkpt lat="45.16616" lon="5.96923">
        <ele>2444.77</ele>
        <time>2023-08-10T08:56:24Z</time>
      </trkpt>
      <trkpt lat="45.16617" lon="5.96923">
        <ele>2444.77</ele>
        <time>2023-08-10T08:56:38Z</time>
      </trkpt>
      <trkpt lat="45.16617" lon="5.96924">
        <ele>2444.77</ele>
        <time>2023-08-10T08:56:54Z</time>
      </trkpt>
      <trkpt lat="45.16619" lon="5.96924">
        <ele>2443.33</ele>
        <time>2023-08-10T08:56:57Z</time>
      </trkpt>
      <trkpt lat="45.16618" lon="5.96927">
        <ele>2444.77</ele>
        <time>2023-08-10T08:57:11Z</time>
      </trkpt>
      <trkpt lat="45.16618" lon="5.96928">
        <ele>2443.33</ele>
        <time>2023-08-10T08:57:13Z</time>
      </trkpt>
      <trkpt lat="45.16622" lon="5.96939">
        <ele>2444.77</ele>
        <time>2023-08-10T08:57:27Z</time>
      </trkpt>
      <trkpt lat="45.16624" lon="5.96951">
        <ele>2446.69</ele>
        <time>2023-08-10T08:57:45Z</time>
      </trkpt>
      <trkpt lat="45.16625" lon="5.96957">
        <ele>2448.13</ele>
        <time>2023-08-10T08:57:55Z</time>
      </trkpt>
      <trkpt lat="45.16629" lon="5.96968">
        <ele>2450.06</ele>
        <time>2023-08-10T08:58:11Z</time>
      </trkpt>
      <trkpt lat="45.16625" lon="5.96974">
        <ele>2451.5</ele>
        <time>2023-08-10T08:58:26Z</time>
      </trkpt>
      <trkpt lat="45.16627" lon="5.96989">
        <ele>2452.46</ele>
        <time>2023-08-10T08:58:43Z</time>
      </trkpt>
      <trkpt lat="45.16627" lon="5.97001">
        <ele>2453.42</ele>
        <time>2023-08-10T08:58:58Z</time>
      </trkpt>
      <trkpt lat="45.1663" lon="5.97008">
        <ele>2455.34</ele>
        <time>2023-08-10T08:59:13Z</time>
      </trkpt>
      <trkpt lat="45.16629" lon="5.97013">
        <ele>2457.27</ele>
        <time>2023-08-10T08:59:22Z</time>
      </trkpt>
      <trkpt lat="45.16621" lon="5.97018">
        <ele>2458.23</ele>
        <time>2023-08-10T08:59:38Z</time>
      </trkpt>
      <trkpt lat="45.16626" lon="5.9703">
        <ele>2459.19</ele>
        <time>2023-08-10T08:59:52Z</time>
      </trkpt>
      <trkpt lat="45.16629" lon="5.97037">
        <ele>2461.11</ele>
        <time>2023-08-10T09:00:04Z</time>
      </trkpt>
      <trkpt lat="45.16631" lon="5.97045">
        <ele>2462.55</ele>
        <time>2023-08-10T09:00:19Z</time>
      </trkpt>
      <trkpt lat="45.16635" lon="5.97054">
        <ele>2464.48</ele>
        <time>2023-08-10T09:00:33Z</time>
      </trkpt>
      <trkpt lat="45.16635" lon="5.97054">
        <ele>2464.48</ele>
        <time>2023-08-10T09:00:34Z</time>
      </trkpt>
      <trkpt lat="45.16637" lon="5.97062">
        <ele>2464.48</ele>
        <time>2023-08-10T09:00:42Z</time>
      </trkpt>
      <trkpt lat="45.16641" lon="5.97068">
        <ele>2464.48</ele>
        <time>2023-08-10T09:00:50Z</time>
      </trkpt>
      <trkpt lat="45.16643" lon="5.97071">
        <ele>2463.04</ele>
        <time>2023-08-10T09:00:53Z</time>
      </trkpt>
      <trkpt lat="45.16646" lon="5.97078">
        <ele>2462.07</ele>
        <time>2023-08-10T09:01:01Z</time>
      </trkpt>
      <trkpt lat="45.16652" lon="5.97091">
        <ele>2462.07</ele>
        <time>2023-08-10T09:01:13Z</time>
      </trkpt>
      <trkpt lat="45.16654" lon="5.97099">
        <ele>2460.15</ele>
        <time>2023-08-10T09:01:25Z</time>
      </trkpt>
      <trkpt lat="45.16654" lon="5.971">
        <ele>2460.15</ele>
        <time>2023-08-10T09:01:26Z</time>
      </trkpt>
      <trkpt lat="45.16665" lon="5.97105">
        <ele>2463.04</ele>
        <time>2023-08-10T09:01:44Z</time>
      </trkpt>
      <trkpt lat="45.16665" lon="5.97108">
        <ele>2463.04</ele>
        <time>2023-08-10T09:01:47Z</time>
      </trkpt>
      <trkpt lat="45.16668" lon="5.97125">
        <ele>2463.04</ele>
        <time>2023-08-10T09:02:01Z</time>
      </trkpt>
      <trkpt lat="45.16667" lon="5.97136">
        <ele>2463.04</ele>
        <time>2023-08-10T09:02:12Z</time>
      </trkpt>
      <trkpt lat="45.16666" lon="5.97147">
        <ele>2463.04</ele>
        <time>2023-08-10T09:02:23Z</time>
      </trkpt>
      <trkpt lat="45.1667" lon="5.97158">
        <ele>2463.52</ele>
        <time>2023-08-10T09:02:37Z</time>
      </trkpt>
      <trkpt lat="45.16674" lon="5.97162">
        <ele>2466.88</ele>
        <time>2023-08-10T09:02:49Z</time>
      </trkpt>
      <trkpt lat="45.16677" lon="5.9717">
        <ele>2468.8</ele>
        <time>2023-08-10T09:03:02Z</time>
      </trkpt>
      <trkpt lat="45.16682" lon="5.97169">
        <ele>2470.24</ele>
        <time>2023-08-10T09:03:15Z</time>
      </trkpt>
      <trkpt lat="45.16684" lon="5.97177">
        <ele>2471.21</ele>
        <time>2023-08-10T09:03:28Z</time>
      </trkpt>
      <trkpt lat="45.16688" lon="5.97186">
        <ele>2472.65</ele>
        <time>2023-08-10T09:03:42Z</time>
      </trkpt>
      <trkpt lat="45.16687" lon="5.97191">
        <ele>2473.61</ele>
        <time>2023-08-10T09:03:48Z</time>
      </trkpt>
      <trkpt lat="45.16689" lon="5.97201">
        <ele>2474.09</ele>
        <time>2023-08-10T09:03:59Z</time>
      </trkpt>
      <trkpt lat="45.1669" lon="5.97211">
        <ele>2475.53</ele>
        <time>2023-08-10T09:04:14Z</time>
      </trkpt>
      <trkpt lat="45.16693" lon="5.97218">
        <ele>2476.97</ele>
        <time>2023-08-10T09:04:30Z</time>
      </trkpt>
      <trkpt lat="45.16698" lon="5.97227">
        <ele>2479.86</ele>
        <time>2023-08-10T09:04:51Z</time>
      </trkpt>
      <trkpt lat="45.16698" lon="5.97234">
        <ele>2480.34</ele>
        <time>2023-08-10T09:05:01Z</time>
      </trkpt>
      <trkpt lat="45.16698" lon="5.97236">
        <ele>2481.3</ele>
        <time>2023-08-10T09:05:03Z</time>
      </trkpt>
      <trkpt lat="45.16699" lon="5.97246">
        <ele>2482.74</ele>
        <time>2023-08-10T09:05:16Z</time>
      </trkpt>
      <trkpt lat="45.16702" lon="5.97251">
        <ele>2484.18</ele>
        <time>2023-08-10T09:05:28Z</time>
      </trkpt>
      <trkpt lat="45.16703" lon="5.97255">
        <ele>2485.63</ele>
        <time>2023-08-10T09:05:34Z</time>
      </trkpt>
      <trkpt lat="45.1671" lon="5.97261">
        <ele>2487.07</ele>
        <time>2023-08-10T09:05:47Z</time>
      </trkpt>
      <trkpt lat="45.16715" lon="5.97263">
        <ele>2488.51</ele>
        <time>2023-08-10T09:05:59Z</time>
      </trkpt>
      <trkpt lat="45.1672" lon="5.97267">
        <ele>2489.47</ele>
        <time>2023-08-10T09:06:13Z</time>
      </trkpt>
      <trkpt lat="45.16723" lon="5.97271">
        <ele>2490.91</ele>
        <time>2023-08-10T09:06:24Z</time>
      </trkpt>
      <trkpt lat="45.16726" lon="5.97278">
        <ele>2492.36</ele>
        <time>2023-08-10T09:06:37Z</time>
      </trkpt>
      <trkpt lat="45.16729" lon="5.97284">
        <ele>2493.32</ele>
        <time>2023-08-10T09:06:51Z</time>
      </trkpt>
      <trkpt lat="45.1673" lon="5.97289">
        <ele>2493.32</ele>
        <time>2023-08-10T09:07:01Z</time>
      </trkpt>
      <trkpt lat="45.16731" lon="5.9729">
        <ele>2493.32</ele>
        <time>2023-08-10T09:07:03Z</time>
      </trkpt>
      <trkpt lat="45.1673" lon="5.97303">
        <ele>2495.72</ele>
        <time>2023-08-10T09:07:17Z</time>
      </trkpt>
      <trkpt lat="45.16731" lon="5.97314">
        <ele>2495.24</ele>
        <time>2023-08-10T09:07:30Z</time>
      </trkpt>
      <trkpt lat="45.16732" lon="5.9732">
        <ele>2497.64</ele>
        <time>2023-08-10T09:07:41Z</time>
      </trkpt>
      <trkpt lat="45.16734" lon="5.9733">
        <ele>2498.12</ele>
        <time>2023-08-10T09:07:55Z</time>
      </trkpt>
      <trkpt lat="45.16735" lon="5.97342">
        <ele>2500.05</ele>
        <time>2023-08-10T09:08:10Z</time>
      </trkpt>
      <trkpt lat="45.16738" lon="5.97347">
        <ele>2501.49</ele>
        <time>2023-08-10T09:08:26Z</time>
      </trkpt>
      <trkpt lat="45.16741" lon="5.97354">
        <ele>2502.45</ele>
        <time>2023-08-10T09:08:40Z</time>
      </trkpt>
      <trkpt lat="45.16741" lon="5.97357">
        <ele>2502.45</ele>
        <time>2023-08-10T09:08:43Z</time>
      </trkpt>
      <trkpt lat="45.16742" lon="5.9736">
        <ele>2502.45</ele>
        <time>2023-08-10T09:08:45Z</time>
      </trkpt>
      <trkpt lat="45.16748" lon="5.97367">
        <ele>2503.41</ele>
        <time>2023-08-10T09:09:00Z</time>
      </trkpt>
      <trkpt lat="45.16752" lon="5.97367">
        <ele>2504.37</ele>
        <time>2023-08-10T09:09:12Z</time>
      </trkpt>
      <trkpt lat="45.16756" lon="5.97363">
        <ele>2506.29</ele>
        <time>2023-08-10T09:09:23Z</time>
      </trkpt>
      <trkpt lat="45.16761" lon="5.97361">
        <ele>2507.74</ele>
        <time>2023-08-10T09:09:37Z</time>
      </trkpt>
      <trkpt lat="45.16766" lon="5.9737">
        <ele>2509.18</ele>
        <time>2023-08-10T09:09:52Z</time>
      </trkpt>
      <trkpt lat="45.16771" lon="5.97376">
        <ele>2510.62</ele>
        <time>2023-08-10T09:10:08Z</time>
      </trkpt>
      <trkpt lat="45.16772" lon="5.97376">
        <ele>2510.62</ele>
        <time>2023-08-10T09:10:10Z</time>
      </trkpt>
      <trkpt lat="45.16776" lon="5.97378">
        <ele>2511.58</ele>
        <time>2023-08-10T09:10:22Z</time>
      </trkpt>
      <trkpt lat="45.16777" lon="5.97385">
        <ele>2513.98</ele>
        <time>2023-08-10T09:10:37Z</time>
      </trkpt>
      <trkpt lat="45.1678" lon="5.97395">
        <ele>2514.47</ele>
        <time>2023-08-10T09:10:55Z</time>
      </trkpt>
      <trkpt lat="45.1678" lon="5.97406">
        <ele>2514.47</ele>
        <time>2023-08-10T09:11:09Z</time>
      </trkpt>
      <trkpt lat="45.16782" lon="5.97417">
        <ele>2516.39</ele>
        <time>2023-08-10T09:11:26Z</time>
      </trkpt>
      <trkpt lat="45.16783" lon="5.97427">
        <ele>2518.31</ele>
        <time>2023-08-10T09:11:42Z</time>
      </trkpt>
      <trkpt lat="45.16784" lon="5.97437">
        <ele>2519.27</ele>
        <time>2023-08-10T09:11:55Z</time>
      </trkpt>
      <trkpt lat="45.16787" lon="5.97444">
        <ele>2520.23</ele>
        <time>2023-08-10T09:12:13Z</time>
      </trkpt>
      <trkpt lat="45.16791" lon="5.97447">
        <ele>2522.16</ele>
        <time>2023-08-10T09:12:28Z</time>
      </trkpt>
      <trkpt lat="45.16793" lon="5.97456">
        <ele>2524.08</ele>
        <time>2023-08-10T09:12:46Z</time>
      </trkpt>
      <trkpt lat="45.16796" lon="5.97459">
        <ele>2526</ele>
        <time>2023-08-10T09:13:02Z</time>
      </trkpt>
      <trkpt lat="45.16799" lon="5.97461">
        <ele>2526.48</ele>
        <time>2023-08-10T09:13:18Z</time>
      </trkpt>
      <trkpt lat="45.16802" lon="5.97467">
        <ele>2528.89</ele>
        <time>2023-08-10T09:13:37Z</time>
      </trkpt>
      <trkpt lat="45.16804" lon="5.97475">
        <ele>2530.33</ele>
        <time>2023-08-10T09:13:52Z</time>
      </trkpt>
      <trkpt lat="45.16806" lon="5.97482">
        <ele>2531.77</ele>
        <time>2023-08-10T09:14:08Z</time>
      </trkpt>
      <trkpt lat="45.16808" lon="5.97485">
        <ele>2534.17</ele>
        <time>2023-08-10T09:14:24Z</time>
      </trkpt>
      <trkpt lat="45.1681" lon="5.97495">
        <ele>2535.61</ele>
        <time>2023-08-10T09:14:44Z</time>
      </trkpt>
      <trkpt lat="45.16814" lon="5.97497">
        <ele>2536.58</ele>
        <time>2023-08-10T09:15:02Z</time>
      </trkpt>
      <trkpt lat="45.16817" lon="5.97506">
        <ele>2538.5</ele>
        <time>2023-08-10T09:15:17Z</time>
      </trkpt>
      <trkpt lat="45.16818" lon="5.97513">
        <ele>2540.9</ele>
        <time>2023-08-10T09:15:34Z</time>
      </trkpt>
      <trkpt lat="45.1682" lon="5.97522">
        <ele>2543.31</ele>
        <time>2023-08-10T09:15:52Z</time>
      </trkpt>
      <trkpt lat="45.16821" lon="5.97526">
        <ele>2545.23</ele>
        <time>2023-08-10T09:16:10Z</time>
      </trkpt>
      <trkpt lat="45.16831" lon="5.97515">
        <ele>2545.23</ele>
        <time>2023-08-10T09:16:30Z</time>
      </trkpt>
      <trkpt lat="45.16828" lon="5.97515">
        <ele>2545.71</ele>
        <time>2023-08-10T09:16:54Z</time>
      </trkpt>
      <trkpt lat="45.16831" lon="5.97512">
        <ele>2545.71</ele>
        <time>2023-08-10T09:17:07Z</time>
      </trkpt>
      <trkpt lat="45.16836" lon="5.97511">
        <ele>2546.19</ele>
        <time>2023-08-10T09:17:22Z</time>
      </trkpt>
      <trkpt lat="45.16835" lon="5.97521">
        <ele>2548.11</ele>
        <time>2023-08-10T09:17:39Z</time>
      </trkpt>
      <trkpt lat="45.16834" lon="5.97531">
        <ele>2550.03</ele>
        <time>2023-08-10T09:17:55Z</time>
      </trkpt>
      <trkpt lat="45.16835" lon="5.97537">
        <ele>2552.44</ele>
        <time>2023-08-10T09:18:14Z</time>
      </trkpt>
      <trkpt lat="45.16838" lon="5.97539">
        <ele>2554.36</ele>
        <time>2023-08-10T09:18:30Z</time>
      </trkpt>
      <trkpt lat="45.16835" lon="5.97542">
        <ele>2555.32</ele>
        <time>2023-08-10T09:18:44Z</time>
      </trkpt>
      <trkpt lat="45.16831" lon="5.97547">
        <ele>2555.8</ele>
        <time>2023-08-10T09:19:01Z</time>
      </trkpt>
      <trkpt lat="45.1683" lon="5.97552">
        <ele>2556.76</ele>
        <time>2023-08-10T09:19:17Z</time>
      </trkpt>
      <trkpt lat="45.1683" lon="5.97554">
        <ele>2558.69</ele>
        <time>2023-08-10T09:19:32Z</time>
      </trkpt>
      <trkpt lat="45.16827" lon="5.97561">
        <ele>2560.13</ele>
        <time>2023-08-10T09:19:49Z</time>
      </trkpt>
      <trkpt lat="45.16825" lon="5.9757">
        <ele>2561.09</ele>
        <time>2023-08-10T09:20:05Z</time>
      </trkpt>
      <trkpt lat="45.16824" lon="5.97577">
        <ele>2563.01</ele>
        <time>2023-08-10T09:20:19Z</time>
      </trkpt>
      <trkpt lat="45.16823" lon="5.97584">
        <ele>2564.93</ele>
        <time>2023-08-10T09:20:37Z</time>
      </trkpt>
      <trkpt lat="45.16821" lon="5.9759">
        <ele>2567.82</ele>
        <time>2023-08-10T09:20:52Z</time>
      </trkpt>
      <trkpt lat="45.1682" lon="5.97594">
        <ele>2568.78</ele>
        <time>2023-08-10T09:21:09Z</time>
      </trkpt>
      <trkpt lat="45.16819" lon="5.97597">
        <ele>2570.22</ele>
        <time>2023-08-10T09:21:26Z</time>
      </trkpt>
      <trkpt lat="45.1682" lon="5.97606">
        <ele>2570.22</ele>
        <time>2023-08-10T09:21:42Z</time>
      </trkpt>
      <trkpt lat="45.16823" lon="5.97611">
        <ele>2572.14</ele>
        <time>2023-08-10T09:21:58Z</time>
      </trkpt>
      <trkpt lat="45.16826" lon="5.97613">
        <ele>2574.55</ele>
        <time>2023-08-10T09:22:14Z</time>
      </trkpt>
      <trkpt lat="45.16827" lon="5.97618">
        <ele>2575.51</ele>
        <time>2023-08-10T09:22:28Z</time>
      </trkpt>
      <trkpt lat="45.16822" lon="5.97621">
        <ele>2577.43</ele>
        <time>2023-08-10T09:22:46Z</time>
      </trkpt>
      <trkpt lat="45.16826" lon="5.9763">
        <ele>2579.35</ele>
        <time>2023-08-10T09:23:05Z</time>
      </trkpt>
      <trkpt lat="45.1683" lon="5.97636">
        <ele>2581.76</ele>
        <time>2023-08-10T09:23:21Z</time>
      </trkpt>
      <trkpt lat="45.16829" lon="5.97638">
        <ele>2582.72</ele>
        <time>2023-08-10T09:23:42Z</time>
      </trkpt>
      <trkpt lat="45.16829" lon="5.97643">
        <ele>2583.2</ele>
        <time>2023-08-10T09:23:59Z</time>
      </trkpt>
      <trkpt lat="45.16827" lon="5.97647">
        <ele>2585.12</ele>
        <time>2023-08-10T09:24:16Z</time>
      </trkpt>
      <trkpt lat="45.16826" lon="5.97654">
        <ele>2586.56</ele>
        <time>2023-08-10T09:24:34Z</time>
      </trkpt>
      <trkpt lat="45.16828" lon="5.9766">
        <ele>2588.49</ele>
        <time>2023-08-10T09:24:51Z</time>
      </trkpt>
      <trkpt lat="45.1683" lon="5.97663">
        <ele>2590.41</ele>
        <time>2023-08-10T09:25:09Z</time>
      </trkpt>
      <trkpt lat="45.16832" lon="5.97666">
        <ele>2590.41</ele>
        <time>2023-08-10T09:25:31Z</time>
      </trkpt>
      <trkpt lat="45.16833" lon="5.97672">
        <ele>2592.81</ele>
        <time>2023-08-10T09:25:49Z</time>
      </trkpt>
      <trkpt lat="45.16837" lon="5.97675">
        <ele>2594.74</ele>
        <time>2023-08-10T09:26:06Z</time>
      </trkpt>
      <trkpt lat="45.16838" lon="5.97676">
        <ele>2596.18</ele>
        <time>2023-08-10T09:26:23Z</time>
      </trkpt>
      <trkpt lat="45.16843" lon="5.97679">
        <ele>2597.62</ele>
        <time>2023-08-10T09:26:41Z</time>
      </trkpt>
      <trkpt lat="45.16851" lon="5.97677">
        <ele>2597.62</ele>
        <time>2023-08-10T09:26:54Z</time>
      </trkpt>
      <trkpt lat="45.16853" lon="5.97678">
        <ele>2598.1</ele>
        <time>2023-08-10T09:27:05Z</time>
      </trkpt>
      <trkpt lat="45.16851" lon="5.97677">
        <ele>2599.06</ele>
        <time>2023-08-10T09:27:16Z</time>
      </trkpt>
      <trkpt lat="45.16851" lon="5.97679">
        <ele>2600.5</ele>
        <time>2023-08-10T09:27:28Z</time>
      </trkpt>
      <trkpt lat="45.16851" lon="5.97681">
        <ele>2600.98</ele>
        <time>2023-08-10T09:27:47Z</time>
      </trkpt>
      <trkpt lat="45.16852" lon="5.97678">
        <ele>2601.46</ele>
        <time>2023-08-10T09:28:07Z</time>
      </trkpt>
      <trkpt lat="45.16852" lon="5.97678">
        <ele>2602.91</ele>
        <time>2023-08-10T09:28:12Z</time>
      </trkpt>
      <trkpt lat="45.16856" lon="5.97681">
        <ele>2602.91</ele>
        <time>2023-08-10T09:28:24Z</time>
      </trkpt>
      <trkpt lat="45.1686" lon="5.9768">
        <ele>2604.35</ele>
        <time>2023-08-10T09:28:34Z</time>
      </trkpt>
      <trkpt lat="45.16857" lon="5.97682">
        <ele>2605.79</ele>
        <time>2023-08-10T09:28:45Z</time>
      </trkpt>
      <trkpt lat="45.16861" lon="5.97683">
        <ele>2607.23</ele>
        <time>2023-08-10T09:28:57Z</time>
      </trkpt>
      <trkpt lat="45.16866" lon="5.97684">
        <ele>2607.23</ele>
        <time>2023-08-10T09:29:09Z</time>
      </trkpt>
      <trkpt lat="45.1687" lon="5.97685">
        <ele>2609.16</ele>
        <time>2023-08-10T09:29:21Z</time>
      </trkpt>
      <trkpt lat="45.16873" lon="5.97682">
        <ele>2610.6</ele>
        <time>2023-08-10T09:29:31Z</time>
      </trkpt>
      <trkpt lat="45.16875" lon="5.97686">
        <ele>2612.04</ele>
        <time>2023-08-10T09:29:45Z</time>
      </trkpt>
      <trkpt lat="45.1688" lon="5.97687">
        <ele>2613</ele>
        <time>2023-08-10T09:29:57Z</time>
      </trkpt>
      <trkpt lat="45.16883" lon="5.97688">
        <ele>2614.92</ele>
        <time>2023-08-10T09:30:12Z</time>
      </trkpt>
      <trkpt lat="45.16883" lon="5.97688">
        <ele>2615.88</ele>
        <time>2023-08-10T09:30:24Z</time>
      </trkpt>
      <trkpt lat="45.16886" lon="5.97691">
        <ele>2616.85</ele>
        <time>2023-08-10T09:30:36Z</time>
      </trkpt>
      <trkpt lat="45.16887" lon="5.97692">
        <ele>2617.33</ele>
        <time>2023-08-10T09:30:38Z</time>
      </trkpt>
      <trkpt lat="45.16889" lon="5.97693">
        <ele>2618.29</ele>
        <time>2023-08-10T09:30:40Z</time>
      </trkpt>
      <trkpt lat="45.16892" lon="5.97692">
        <ele>2619.73</ele>
        <time>2023-08-10T09:30:52Z</time>
      </trkpt>
      <trkpt lat="45.16897" lon="5.97689">
        <ele>2621.65</ele>
        <time>2023-08-10T09:31:07Z</time>
      </trkpt>
      <trkpt lat="45.16899" lon="5.97689">
        <ele>2623.58</ele>
        <time>2023-08-10T09:31:21Z</time>
      </trkpt>
      <trkpt lat="45.16902" lon="5.97681">
        <ele>2623.58</ele>
        <time>2023-08-10T09:31:33Z</time>
      </trkpt>
      <trkpt lat="45.16905" lon="5.97677">
        <ele>2625.5</ele>
        <time>2023-08-10T09:31:46Z</time>
      </trkpt>
      <trkpt lat="45.16906" lon="5.97675">
        <ele>2625.98</ele>
        <time>2023-08-10T09:31:57Z</time>
      </trkpt>
      <trkpt lat="45.16907" lon="5.97676">
        <ele>2629.34</ele>
        <time>2023-08-10T09:32:06Z</time>
      </trkpt>
      <trkpt lat="45.16908" lon="5.9768">
        <ele>2627.9</ele>
        <time>2023-08-10T09:32:16Z</time>
      </trkpt>
      <trkpt lat="45.16912" lon="5.97689">
        <ele>2630.79</ele>
        <time>2023-08-10T09:32:30Z</time>
      </trkpt>
      <trkpt lat="45.16915" lon="5.9769">
        <ele>2635.11</ele>
        <time>2023-08-10T09:32:39Z</time>
      </trkpt>
      <trkpt lat="45.16915" lon="5.9769">
        <ele>2635.11</ele>
        <time>2023-08-10T09:32:40Z</time>
      </trkpt>
      <trkpt lat="45.16918" lon="5.97694">
        <ele>2634.15</ele>
        <time>2023-08-10T09:32:47Z</time>
      </trkpt>
      <trkpt lat="45.16919" lon="5.97704">
        <ele>2630.79</ele>
        <time>2023-08-10T09:32:57Z</time>
      </trkpt>
      <trkpt lat="45.16919" lon="5.97705">
        <ele>2630.79</ele>
        <time>2023-08-10T09:32:58Z</time>
      </trkpt>
      <trkpt lat="45.16921" lon="5.97708">
        <ele>2630.3</ele>
        <time>2023-08-10T09:33:01Z</time>
      </trkpt>
      <trkpt lat="45.16928" lon="5.97717">
        <ele>2629.34</ele>
        <time>2023-08-10T09:33:12Z</time>
      </trkpt>
      <trkpt lat="45.16933" lon="5.97728">
        <ele>2629.34</ele>
        <time>2023-08-10T09:33:26Z</time>
      </trkpt>
      <trkpt lat="45.16934" lon="5.97732">
        <ele>2629.34</ele>
        <time>2023-08-10T09:33:29Z</time>
      </trkpt>
      <trkpt lat="45.16936" lon="5.97734">
        <ele>2629.34</ele>
        <time>2023-08-10T09:33:31Z</time>
      </trkpt>
      <trkpt lat="45.16937" lon="5.97738">
        <ele>2629.34</ele>
        <time>2023-08-10T09:33:35Z</time>
      </trkpt>
      <trkpt lat="45.16939" lon="5.97743">
        <ele>2628.38</ele>
        <time>2023-08-10T09:33:40Z</time>
      </trkpt>
      <trkpt lat="45.1694" lon="5.97751">
        <ele>2628.38</ele>
        <time>2023-08-10T09:33:50Z</time>
      </trkpt>
      <trkpt lat="45.16941" lon="5.97757">
        <ele>2628.86</ele>
        <time>2023-08-10T09:33:54Z</time>
      </trkpt>
      <trkpt lat="45.16941" lon="5.9776">
        <ele>2629.82</ele>
        <time>2023-08-10T09:33:56Z</time>
      </trkpt>
      <trkpt lat="45.16942" lon="5.97767">
        <ele>2629.82</ele>
        <time>2023-08-10T09:34:02Z</time>
      </trkpt>
      <trkpt lat="45.16942" lon="5.97769">
        <ele>2629.82</ele>
        <time>2023-08-10T09:34:06Z</time>
      </trkpt>
      <trkpt lat="45.1694" lon="5.97774">
        <ele>2630.3</ele>
        <time>2023-08-10T09:34:23Z</time>
      </trkpt>
      <trkpt lat="45.1694" lon="5.97779">
        <ele>2633.19</ele>
        <time>2023-08-10T09:34:36Z</time>
      </trkpt>
      <trkpt lat="45.1694" lon="5.97784">
        <ele>2634.63</ele>
        <time>2023-08-10T09:34:41Z</time>
      </trkpt>
      <trkpt lat="45.1694" lon="5.97792">
        <ele>2634.15</ele>
        <time>2023-08-10T09:34:47Z</time>
      </trkpt>
      <trkpt lat="45.16939" lon="5.97794">
        <ele>2631.75</ele>
        <time>2023-08-10T09:34:56Z</time>
      </trkpt>
      <trkpt lat="45.16939" lon="5.97795">
        <ele>2631.75</ele>
        <time>2023-08-10T09:34:57Z</time>
      </trkpt>
      <trkpt lat="45.16939" lon="5.97796">
        <ele>2633.67</ele>
        <time>2023-08-10T09:35:01Z</time>
      </trkpt>
      <trkpt lat="45.16938" lon="5.97804">
        <ele>2632.23</ele>
        <time>2023-08-10T09:35:12Z</time>
      </trkpt>
      <trkpt lat="45.16937" lon="5.97805">
        <ele>2632.23</ele>
        <time>2023-08-10T09:35:13Z</time>
      </trkpt>
      <trkpt lat="45.16938" lon="5.97803">
        <ele>2632.71</ele>
        <time>2023-08-10T09:35:29Z</time>
      </trkpt>
      <trkpt lat="45.16938" lon="5.97803">
        <ele>2632.23</ele>
        <time>2023-08-10T09:35:30Z</time>
      </trkpt>
      <trkpt lat="45.16942" lon="5.97807">
        <ele>2630.79</ele>
        <time>2023-08-10T09:35:41Z</time>
      </trkpt>
      <trkpt lat="45.16944" lon="5.97811">
        <ele>2631.75</ele>
        <time>2023-08-10T09:35:47Z</time>
      </trkpt>
      <trkpt lat="45.1695" lon="5.97814">
        <ele>2631.27</ele>
        <time>2023-08-10T09:35:59Z</time>
      </trkpt>
      <trkpt lat="45.1695" lon="5.97815">
        <ele>2631.27</ele>
        <time>2023-08-10T09:36:00Z</time>
      </trkpt>
      <trkpt lat="45.16952" lon="5.97821">
        <ele>2630.3</ele>
        <time>2023-08-10T09:36:07Z</time>
      </trkpt>
      <trkpt lat="45.16955" lon="5.97823">
        <ele>2630.79</ele>
        <time>2023-08-10T09:36:14Z</time>
      </trkpt>
      <trkpt lat="45.16957" lon="5.9783">
        <ele>2626.94</ele>
        <time>2023-08-10T09:36:23Z</time>
      </trkpt>
      <trkpt lat="45.16957" lon="5.97831">
        <ele>2626.94</ele>
        <time>2023-08-10T09:36:24Z</time>
      </trkpt>
      <trkpt lat="45.16959" lon="5.97832">
        <ele>2625.5</ele>
        <time>2023-08-10T09:36:28Z</time>
      </trkpt>
      <trkpt lat="45.1696" lon="5.97832">
        <ele>2627.9</ele>
        <time>2023-08-10T09:36:30Z</time>
      </trkpt>
      <trkpt lat="45.16962" lon="5.97829">
        <ele>2626.46</ele>
        <time>2023-08-10T09:36:43Z</time>
      </trkpt>
      <trkpt lat="45.16965" lon="5.97833">
        <ele>2625.5</ele>
        <time>2023-08-10T09:36:50Z</time>
      </trkpt>
      <trkpt lat="45.16968" lon="5.97837">
        <ele>2625.02</ele>
        <time>2023-08-10T09:36:54Z</time>
      </trkpt>
      <trkpt lat="45.16971" lon="5.97845">
        <ele>2623.09</ele>
        <time>2023-08-10T09:37:06Z</time>
      </trkpt>
      <trkpt lat="45.16972" lon="5.97847">
        <ele>2623.09</ele>
        <time>2023-08-10T09:37:20Z</time>
      </trkpt>
      <trkpt lat="45.16977" lon="5.97849">
        <ele>2622.13</ele>
        <time>2023-08-10T09:37:33Z</time>
      </trkpt>
      <trkpt lat="45.16978" lon="5.9785">
        <ele>2622.13</ele>
        <time>2023-08-10T09:37:36Z</time>
      </trkpt>
      <trkpt lat="45.16979" lon="5.97853">
        <ele>2622.13</ele>
        <time>2023-08-10T09:37:48Z</time>
      </trkpt>
      <trkpt lat="45.1698" lon="5.97855">
        <ele>2621.17</ele>
        <time>2023-08-10T09:37:57Z</time>
      </trkpt>
      <trkpt lat="45.16987" lon="5.97863">
        <ele>2620.21</ele>
        <time>2023-08-10T09:38:09Z</time>
      </trkpt>
      <trkpt lat="45.16992" lon="5.97866">
        <ele>2620.21</ele>
        <time>2023-08-10T09:38:18Z</time>
      </trkpt>
      <trkpt lat="45.16995" lon="5.97868">
        <ele>2619.25</ele>
        <time>2023-08-10T09:38:22Z</time>
      </trkpt>
      <trkpt lat="45.17007" lon="5.97872">
        <ele>2616.85</ele>
        <time>2023-08-10T09:38:37Z</time>
      </trkpt>
      <trkpt lat="45.1701" lon="5.97882">
        <ele>2615.88</ele>
        <time>2023-08-10T09:38:52Z</time>
      </trkpt>
      <trkpt lat="45.17012" lon="5.97881">
        <ele>2616.37</ele>
        <time>2023-08-10T09:39:02Z</time>
      </trkpt>
      <trkpt lat="45.17013" lon="5.97884">
        <ele>2622.61</ele>
        <time>2023-08-10T09:52:53Z</time>
      </trkpt>
      <trkpt lat="45.17016" lon="5.97897">
        <ele>2621.65</ele>
        <time>2023-08-10T09:53:06Z</time>
      </trkpt>
      <trkpt lat="45.17018" lon="5.97901">
        <ele>2620.21</ele>
        <time>2023-08-10T09:53:25Z</time>
      </trkpt>
      <trkpt lat="45.17027" lon="5.97904">
        <ele>2617.81</ele>
        <time>2023-08-10T09:53:44Z</time>
      </trkpt>
      <trkpt lat="45.17033" lon="5.97904">
        <ele>2614.92</ele>
        <time>2023-08-10T09:53:59Z</time>
      </trkpt>
      <trkpt lat="45.17037" lon="5.97905">
        <ele>2612.04</ele>
        <time>2023-08-10T09:54:15Z</time>
      </trkpt>
      <trkpt lat="45.1704" lon="5.97909">
        <ele>2608.67</ele>
        <time>2023-08-10T09:54:30Z</time>
      </trkpt>
      <trkpt lat="45.17037" lon="5.97922">
        <ele>2605.79</ele>
        <time>2023-08-10T09:54:47Z</time>
      </trkpt>
      <trkpt lat="45.1704" lon="5.97927">
        <ele>2603.39</ele>
        <time>2023-08-10T09:55:07Z</time>
      </trkpt>
      <trkpt lat="45.17046" lon="5.97924">
        <ele>2600.98</ele>
        <time>2023-08-10T09:55:23Z</time>
      </trkpt>
      <trkpt lat="45.17052" lon="5.97916">
        <ele>2598.58</ele>
        <time>2023-08-10T09:55:44Z</time>
      </trkpt>
      <trkpt lat="45.17059" lon="5.97922">
        <ele>2595.22</ele>
        <time>2023-08-10T09:56:04Z</time>
      </trkpt>
      <trkpt lat="45.17059" lon="5.97928">
        <ele>2593.77</ele>
        <time>2023-08-10T09:56:20Z</time>
      </trkpt>
      <trkpt lat="45.17065" lon="5.97922">
        <ele>2590.41</ele>
        <time>2023-08-10T09:56:38Z</time>
      </trkpt>
      <trkpt lat="45.17067" lon="5.97921">
        <ele>2588.01</ele>
        <time>2023-08-10T09:56:54Z</time>
      </trkpt>
      <trkpt lat="45.17074" lon="5.97916">
        <ele>2586.56</ele>
        <time>2023-08-10T09:57:16Z</time>
      </trkpt>
      <trkpt lat="45.17077" lon="5.97917">
        <ele>2582.72</ele>
        <time>2023-08-10T09:57:29Z</time>
      </trkpt>
      <trkpt lat="45.17078" lon="5.97917">
        <ele>2582.72</ele>
        <time>2023-08-10T09:57:30Z</time>
      </trkpt>
      <trkpt lat="45.1708" lon="5.97925">
        <ele>2580.8</ele>
        <time>2023-08-10T09:57:46Z</time>
      </trkpt>
      <trkpt lat="45.1708" lon="5.97928">
        <ele>2579.84</ele>
        <time>2023-08-10T09:57:53Z</time>
      </trkpt>
      <trkpt lat="45.17082" lon="5.97938">
        <ele>2576.95</ele>
        <time>2023-08-10T09:58:04Z</time>
      </trkpt>
      <trkpt lat="45.17085" lon="5.97941">
        <ele>2573.59</ele>
        <time>2023-08-10T09:58:20Z</time>
      </trkpt>
      <trkpt lat="45.17085" lon="5.97943">
        <ele>2571.66</ele>
        <time>2023-08-10T09:58:26Z</time>
      </trkpt>
      <trkpt lat="45.17086" lon="5.97942">
        <ele>2571.66</ele>
        <time>2023-08-10T09:58:34Z</time>
      </trkpt>
      <trkpt lat="45.17091" lon="5.97944">
        <ele>2568.78</ele>
        <time>2023-08-10T09:58:49Z</time>
      </trkpt>
      <trkpt lat="45.171" lon="5.97939">
        <ele>2565.9</ele>
        <time>2023-08-10T09:59:05Z</time>
      </trkpt>
      <trkpt lat="45.17103" lon="5.97948">
        <ele>2563.97</ele>
        <time>2023-08-10T09:59:17Z</time>
      </trkpt>
      <trkpt lat="45.17108" lon="5.97946">
        <ele>2562.05</ele>
        <time>2023-08-10T09:59:24Z</time>
      </trkpt>
      <trkpt lat="45.1711" lon="5.97957">
        <ele>2559.65</ele>
        <time>2023-08-10T09:59:39Z</time>
      </trkpt>
      <trkpt lat="45.1711" lon="5.97971">
        <ele>2556.28</ele>
        <time>2023-08-10T09:59:54Z</time>
      </trkpt>
      <trkpt lat="45.17109" lon="5.97981">
        <ele>2553.4</ele>
        <time>2023-08-10T10:00:02Z</time>
      </trkpt>
      <trkpt lat="45.17112" lon="5.97993">
        <ele>2550.03</ele>
        <time>2023-08-10T10:00:16Z</time>
      </trkpt>
      <trkpt lat="45.17121" lon="5.97987">
        <ele>2546.67</ele>
        <time>2023-08-10T10:00:27Z</time>
      </trkpt>
      <trkpt lat="45.17127" lon="5.97976">
        <ele>2543.79</ele>
        <time>2023-08-10T10:00:36Z</time>
      </trkpt>
      <trkpt lat="45.17131" lon="5.97983">
        <ele>2541.38</ele>
        <time>2023-08-10T10:00:50Z</time>
      </trkpt>
      <trkpt lat="45.17136" lon="5.97991">
        <ele>2537.06</ele>
        <time>2023-08-10T10:01:04Z</time>
      </trkpt>
      <trkpt lat="45.17137" lon="5.9799">
        <ele>2537.06</ele>
        <time>2023-08-10T10:01:05Z</time>
      </trkpt>
      <trkpt lat="45.1714" lon="5.97986">
        <ele>2534.17</ele>
        <time>2023-08-10T10:01:19Z</time>
      </trkpt>
      <trkpt lat="45.17149" lon="5.97989">
        <ele>2531.29</ele>
        <time>2023-08-10T10:01:37Z</time>
      </trkpt>
      <trkpt lat="45.17151" lon="5.97987">
        <ele>2529.85</ele>
        <time>2023-08-10T10:01:40Z</time>
      </trkpt>
      <trkpt lat="45.17155" lon="5.97994">
        <ele>2526.48</ele>
        <time>2023-08-10T10:01:56Z</time>
      </trkpt>
      <trkpt lat="45.17156" lon="5.97994">
        <ele>2526.48</ele>
        <time>2023-08-10T10:01:57Z</time>
      </trkpt>
      <trkpt lat="45.17161" lon="5.9799">
        <ele>2523.12</ele>
        <time>2023-08-10T10:02:11Z</time>
      </trkpt>
      <trkpt lat="45.17172" lon="5.97994">
        <ele>2520.23</ele>
        <time>2023-08-10T10:02:27Z</time>
      </trkpt>
      <trkpt lat="45.17176" lon="5.97999">
        <ele>2517.83</ele>
        <time>2023-08-10T10:02:41Z</time>
      </trkpt>
      <trkpt lat="45.1718" lon="5.97999">
        <ele>2514.47</ele>
        <time>2023-08-10T10:02:56Z</time>
      </trkpt>
      <trkpt lat="45.17188" lon="5.97999">
        <ele>2512.06</ele>
        <time>2023-08-10T10:03:12Z</time>
      </trkpt>
      <trkpt lat="45.17203" lon="5.97999">
        <ele>2509.18</ele>
        <time>2023-08-10T10:03:31Z</time>
      </trkpt>
      <trkpt lat="45.17216" lon="5.98">
        <ele>2506.29</ele>
        <time>2023-08-10T10:03:51Z</time>
      </trkpt>
      <trkpt lat="45.17217" lon="5.98">
        <ele>2505.33</ele>
        <time>2023-08-10T10:03:53Z</time>
      </trkpt>
      <trkpt lat="45.17227" lon="5.98004">
        <ele>2502.93</ele>
        <time>2023-08-10T10:04:09Z</time>
      </trkpt>
      <trkpt lat="45.17233" lon="5.98004">
        <ele>2500.05</ele>
        <time>2023-08-10T10:04:29Z</time>
      </trkpt>
      <trkpt lat="45.17236" lon="5.98002">
        <ele>2497.16</ele>
        <time>2023-08-10T10:04:37Z</time>
      </trkpt>
      <trkpt lat="45.17243" lon="5.98004">
        <ele>2493.8</ele>
        <time>2023-08-10T10:04:54Z</time>
      </trkpt>
      <trkpt lat="45.17248" lon="5.98005">
        <ele>2490.43</ele>
        <time>2023-08-10T10:05:09Z</time>
      </trkpt>
      <trkpt lat="45.1725" lon="5.98011">
        <ele>2487.55</ele>
        <time>2023-08-10T10:05:25Z</time>
      </trkpt>
      <trkpt lat="45.17257" lon="5.98004">
        <ele>2484.66</ele>
        <time>2023-08-10T10:05:37Z</time>
      </trkpt>
      <trkpt lat="45.17261" lon="5.98">
        <ele>2481.78</ele>
        <time>2023-08-10T10:05:52Z</time>
      </trkpt>
      <trkpt lat="45.17266" lon="5.98">
        <ele>2478.42</ele>
        <time>2023-08-10T10:06:08Z</time>
      </trkpt>
      <trkpt lat="45.17271" lon="5.97991">
        <ele>2476.01</ele>
        <time>2023-08-10T10:06:28Z</time>
      </trkpt>
      <trkpt lat="45.17276" lon="5.97989">
        <ele>2472.65</ele>
        <time>2023-08-10T10:06:42Z</time>
      </trkpt>
      <trkpt lat="45.1728" lon="5.97984">
        <ele>2470.24</ele>
        <time>2023-08-10T10:06:56Z</time>
      </trkpt>
      <trkpt lat="45.17284" lon="5.97989">
        <ele>2467.84</ele>
        <time>2023-08-10T10:07:14Z</time>
      </trkpt>
      <trkpt lat="45.17287" lon="5.97992">
        <ele>2464.48</ele>
        <time>2023-08-10T10:07:29Z</time>
      </trkpt>
      <trkpt lat="45.17292" lon="5.97986">
        <ele>2461.11</ele>
        <time>2023-08-10T10:07:43Z</time>
      </trkpt>
      <trkpt lat="45.17297" lon="5.97983">
        <ele>2458.23</ele>
        <time>2023-08-10T10:08:01Z</time>
      </trkpt>
      <trkpt lat="45.17301" lon="5.97979">
        <ele>2454.86</ele>
        <time>2023-08-10T10:08:14Z</time>
      </trkpt>
      <trkpt lat="45.17304" lon="5.97988">
        <ele>2452.94</ele>
        <time>2023-08-10T10:08:30Z</time>
      </trkpt>
      <trkpt lat="45.17309" lon="5.97992">
        <ele>2449.58</ele>
        <time>2023-08-10T10:08:43Z</time>
      </trkpt>
      <trkpt lat="45.17316" lon="5.97986">
        <ele>2447.17</ele>
        <time>2023-08-10T10:09:00Z</time>
      </trkpt>
      <trkpt lat="45.17315" lon="5.97987">
        <ele>2446.69</ele>
        <time>2023-08-10T10:09:12Z</time>
      </trkpt>
      <trkpt lat="45.17317" lon="5.98011">
        <ele>2441.41</ele>
        <time>2023-08-10T10:09:43Z</time>
      </trkpt>
      <trkpt lat="45.17322" lon="5.98009">
        <ele>2439.96</ele>
        <time>2023-08-10T10:09:58Z</time>
      </trkpt>
      <trkpt lat="45.17324" lon="5.98007">
        <ele>2439.48</ele>
        <time>2023-08-10T10:10:26Z</time>
      </trkpt>
      <trkpt lat="45.17328" lon="5.98009">
        <ele>2436.6</ele>
        <time>2023-08-10T10:10:37Z</time>
      </trkpt>
      <trkpt lat="45.17332" lon="5.98018">
        <ele>2433.23</ele>
        <time>2023-08-10T10:10:52Z</time>
      </trkpt>
      <trkpt lat="45.17339" lon="5.98022">
        <ele>2430.83</ele>
        <time>2023-08-10T10:11:07Z</time>
      </trkpt>
      <trkpt lat="45.17344" lon="5.9803">
        <ele>2427.95</ele>
        <time>2023-08-10T10:11:20Z</time>
      </trkpt>
      <trkpt lat="45.17347" lon="5.98034">
        <ele>2425.54</ele>
        <time>2023-08-10T10:11:30Z</time>
      </trkpt>
      <trkpt lat="45.17348" lon="5.98035">
        <ele>2425.06</ele>
        <time>2023-08-10T10:11:32Z</time>
      </trkpt>
      <trkpt lat="45.17354" lon="5.98041">
        <ele>2423.14</ele>
        <time>2023-08-10T10:11:43Z</time>
      </trkpt>
      <trkpt lat="45.17356" lon="5.98043">
        <ele>2422.18</ele>
        <time>2023-08-10T10:11:47Z</time>
      </trkpt>
      <trkpt lat="45.17363" lon="5.98052">
        <ele>2420.26</ele>
        <time>2023-08-10T10:12:01Z</time>
      </trkpt>
      <trkpt lat="45.17365" lon="5.98055">
        <ele>2418.33</ele>
        <time>2023-08-10T10:12:14Z</time>
      </trkpt>
      <trkpt lat="45.17366" lon="5.9806">
        <ele>2415.45</ele>
        <time>2023-08-10T10:12:26Z</time>
      </trkpt>
      <trkpt lat="45.17368" lon="5.98068">
        <ele>2412.09</ele>
        <time>2023-08-10T10:12:36Z</time>
      </trkpt>
      <trkpt lat="45.17369" lon="5.98069">
        <ele>2412.09</ele>
        <time>2023-08-10T10:12:38Z</time>
      </trkpt>
      <trkpt lat="45.17373" lon="5.98072">
        <ele>2409.2</ele>
        <time>2023-08-10T10:12:50Z</time>
      </trkpt>
      <trkpt lat="45.17377" lon="5.98069">
        <ele>2407.76</ele>
        <time>2023-08-10T10:13:01Z</time>
      </trkpt>
      <trkpt lat="45.17379" lon="5.98073">
        <ele>2405.36</ele>
        <time>2023-08-10T10:13:15Z</time>
      </trkpt>
      <trkpt lat="45.17382" lon="5.98077">
        <ele>2401.99</ele>
        <time>2023-08-10T10:13:28Z</time>
      </trkpt>
      <trkpt lat="45.17386" lon="5.98075">
        <ele>2400.07</ele>
        <time>2023-08-10T10:13:40Z</time>
      </trkpt>
      <trkpt lat="45.17388" lon="5.98074">
        <ele>2399.59</ele>
        <time>2023-08-10T10:13:42Z</time>
      </trkpt>
      <trkpt lat="45.17396" lon="5.98074">
        <ele>2395.26</ele>
        <time>2023-08-10T10:13:54Z</time>
      </trkpt>
      <trkpt lat="45.17402" lon="5.98072">
        <ele>2392.86</ele>
        <time>2023-08-10T10:14:02Z</time>
      </trkpt>
      <trkpt lat="45.17408" lon="5.98068">
        <ele>2390.94</ele>
        <time>2023-08-10T10:14:13Z</time>
      </trkpt>
      <trkpt lat="45.17415" lon="5.98065">
        <ele>2387.57</ele>
        <time>2023-08-10T10:14:25Z</time>
      </trkpt>
      <trkpt lat="45.1742" lon="5.9806">
        <ele>2386.13</ele>
        <time>2023-08-10T10:14:35Z</time>
      </trkpt>
      <trkpt lat="45.17425" lon="5.98056">
        <ele>2383.73</ele>
        <time>2023-08-10T10:14:47Z</time>
      </trkpt>
      <trkpt lat="45.17427" lon="5.98055">
        <ele>2381.8</ele>
        <time>2023-08-10T10:15:03Z</time>
      </trkpt>
      <trkpt lat="45.17429" lon="5.98056">
        <ele>2380.36</ele>
        <time>2023-08-10T10:15:12Z</time>
      </trkpt>
      <trkpt lat="45.17431" lon="5.98059">
        <ele>2377.48</ele>
        <time>2023-08-10T10:15:24Z</time>
      </trkpt>
      <trkpt lat="45.17431" lon="5.98058">
        <ele>2377.48</ele>
        <time>2023-08-10T10:15:28Z</time>
      </trkpt>
      <trkpt lat="45.17437" lon="5.98053">
        <ele>2375.55</ele>
        <time>2023-08-10T10:15:40Z</time>
      </trkpt>
      <trkpt lat="45.17439" lon="5.98051">
        <ele>2374.59</ele>
        <time>2023-08-10T10:15:47Z</time>
      </trkpt>
      <trkpt lat="45.17441" lon="5.98056">
        <ele>2372.67</ele>
        <time>2023-08-10T10:15:59Z</time>
      </trkpt>
      <trkpt lat="45.17446" lon="5.98051">
        <ele>2371.71</ele>
        <time>2023-08-10T10:16:11Z</time>
      </trkpt>
      <trkpt lat="45.1745" lon="5.98046">
        <ele>2369.79</ele>
        <time>2023-08-10T10:16:21Z</time>
      </trkpt>
      <trkpt lat="45.1746" lon="5.98036">
        <ele>2366.42</ele>
        <time>2023-08-10T10:16:37Z</time>
      </trkpt>
      <trkpt lat="45.17462" lon="5.98035">
        <ele>2364.02</ele>
        <time>2023-08-10T10:16:49Z</time>
      </trkpt>
      <trkpt lat="45.17462" lon="5.98035">
        <ele>2362.58</ele>
        <time>2023-08-10T10:17:05Z</time>
      </trkpt>
      <trkpt lat="45.17468" lon="5.98032">
        <ele>2360.17</ele>
        <time>2023-08-10T10:17:17Z</time>
      </trkpt>
      <trkpt lat="45.17469" lon="5.98033">
        <ele>2359.69</ele>
        <time>2023-08-10T10:17:37Z</time>
      </trkpt>
      <trkpt lat="45.17471" lon="5.98033">
        <ele>2358.25</ele>
        <time>2023-08-10T10:17:52Z</time>
      </trkpt>
      <trkpt lat="45.17473" lon="5.98038">
        <ele>2356.33</ele>
        <time>2023-08-10T10:18:02Z</time>
      </trkpt>
      <trkpt lat="45.17478" lon="5.98036">
        <ele>2354.89</ele>
        <time>2023-08-10T10:18:14Z</time>
      </trkpt>
      <trkpt lat="45.1748" lon="5.98034">
        <ele>2353.93</ele>
        <time>2023-08-10T10:18:18Z</time>
      </trkpt>
      <trkpt lat="45.1748" lon="5.98032">
        <ele>2352</ele>
        <time>2023-08-10T10:18:29Z</time>
      </trkpt>
      <trkpt lat="45.17479" lon="5.98032">
        <ele>2351.52</ele>
        <time>2023-08-10T10:18:51Z</time>
      </trkpt>
      <trkpt lat="45.1748" lon="5.98033">
        <ele>2351.52</ele>
        <time>2023-08-10T10:19:09Z</time>
      </trkpt>
      <trkpt lat="45.17482" lon="5.98032">
        <ele>2351.04</ele>
        <time>2023-08-10T10:19:19Z</time>
      </trkpt>
      <trkpt lat="45.17481" lon="5.98034">
        <ele>2350.08</ele>
        <time>2023-08-10T10:19:49Z</time>
      </trkpt>
      <trkpt lat="45.17479" lon="5.98033">
        <ele>2350.08</ele>
        <time>2023-08-10T10:20:32Z</time>
      </trkpt>
      <trkpt lat="45.17479" lon="5.98033">
        <ele>2349.6</ele>
        <time>2023-08-10T10:21:03Z</time>
      </trkpt>
      <trkpt lat="45.17481" lon="5.98034">
        <ele>2349.6</ele>
        <time>2023-08-10T10:21:13Z</time>
      </trkpt>
      <trkpt lat="45.17491" lon="5.9804">
        <ele>2347.68</ele>
        <time>2023-08-10T10:21:29Z</time>
      </trkpt>
      <trkpt lat="45.17491" lon="5.98037">
        <ele>2347.2</ele>
        <time>2023-08-10T10:21:32Z</time>
      </trkpt>
      <trkpt lat="45.1749" lon="5.98026">
        <ele>2344.79</ele>
        <time>2023-08-10T10:21:38Z</time>
      </trkpt>
      <trkpt lat="45.17491" lon="5.98013">
        <ele>2341.43</ele>
        <time>2023-08-10T10:21:51Z</time>
      </trkpt>
      <trkpt lat="45.17494" lon="5.98014">
        <ele>2340.47</ele>
        <time>2023-08-10T10:21:54Z</time>
      </trkpt>
      <trkpt lat="45.17499" lon="5.98011">
        <ele>2337.1</ele>
        <time>2023-08-10T10:22:06Z</time>
      </trkpt>
      <trkpt lat="45.17504" lon="5.98008">
        <ele>2334.7</ele>
        <time>2023-08-10T10:22:18Z</time>
      </trkpt>
      <trkpt lat="45.1751" lon="5.98008">
        <ele>2331.81</ele>
        <time>2023-08-10T10:22:32Z</time>
      </trkpt>
      <trkpt lat="45.17515" lon="5.98005">
        <ele>2329.89</ele>
        <time>2023-08-10T10:22:45Z</time>
      </trkpt>
      <trkpt lat="45.17515" lon="5.98004">
        <ele>2328.93</ele>
        <time>2023-08-10T10:22:46Z</time>
      </trkpt>
      <trkpt lat="45.17518" lon="5.98">
        <ele>2326.53</ele>
        <time>2023-08-10T10:23:00Z</time>
      </trkpt>
      <trkpt lat="45.17522" lon="5.97996">
        <ele>2324.12</ele>
        <time>2023-08-10T10:23:14Z</time>
      </trkpt>
      <trkpt lat="45.17525" lon="5.97986">
        <ele>2321.24</ele>
        <time>2023-08-10T10:23:30Z</time>
      </trkpt>
      <trkpt lat="45.1753" lon="5.97981">
        <ele>2319.8</ele>
        <time>2023-08-10T10:23:47Z</time>
      </trkpt>
      <trkpt lat="45.17537" lon="5.9797">
        <ele>2317.88</ele>
        <time>2023-08-10T10:24:03Z</time>
      </trkpt>
      <trkpt lat="45.17544" lon="5.97962">
        <ele>2314.99</ele>
        <time>2023-08-10T10:24:18Z</time>
      </trkpt>
      <trkpt lat="45.1755" lon="5.97956">
        <ele>2313.07</ele>
        <time>2023-08-10T10:24:32Z</time>
      </trkpt>
      <trkpt lat="45.17555" lon="5.97951">
        <ele>2311.15</ele>
        <time>2023-08-10T10:24:46Z</time>
      </trkpt>
      <trkpt lat="45.17561" lon="5.97943">
        <ele>2308.74</ele>
        <time>2023-08-10T10:25:00Z</time>
      </trkpt>
      <trkpt lat="45.17567" lon="5.9794">
        <ele>2306.82</ele>
        <time>2023-08-10T10:25:13Z</time>
      </trkpt>
      <trkpt lat="45.17575" lon="5.97932">
        <ele>2304.42</ele>
        <time>2023-08-10T10:25:26Z</time>
      </trkpt>
      <trkpt lat="45.17583" lon="5.97921">
        <ele>2302.01</ele>
        <time>2023-08-10T10:25:40Z</time>
      </trkpt>
      <trkpt lat="45.17589" lon="5.9792">
        <ele>2300.09</ele>
        <time>2023-08-10T10:25:51Z</time>
      </trkpt>
      <trkpt lat="45.17601" lon="5.97919">
        <ele>2297.21</ele>
        <time>2023-08-10T10:26:06Z</time>
      </trkpt>
      <trkpt lat="45.17607" lon="5.97916">
        <ele>2296.25</ele>
        <time>2023-08-10T10:26:13Z</time>
      </trkpt>
      <trkpt lat="45.17616" lon="5.97907">
        <ele>2294.8</ele>
        <time>2023-08-10T10:26:26Z</time>
      </trkpt>
      <trkpt lat="45.17624" lon="5.97908">
        <ele>2291.44</ele>
        <time>2023-08-10T10:26:39Z</time>
      </trkpt>
      <trkpt lat="45.17636" lon="5.979">
        <ele>2290</ele>
        <time>2023-08-10T10:26:54Z</time>
      </trkpt>
      <trkpt lat="45.17644" lon="5.97891">
        <ele>2287.59</ele>
        <time>2023-08-10T10:27:08Z</time>
      </trkpt>
      <trkpt lat="45.17647" lon="5.97878">
        <ele>2284.71</ele>
        <time>2023-08-10T10:27:21Z</time>
      </trkpt>
      <trkpt lat="45.17651" lon="5.97867">
        <ele>2282.79</ele>
        <time>2023-08-10T10:27:33Z</time>
      </trkpt>
      <trkpt lat="45.17653" lon="5.97858">
        <ele>2280.87</ele>
        <time>2023-08-10T10:27:46Z</time>
      </trkpt>
      <trkpt lat="45.17654" lon="5.97856">
        <ele>2280.87</ele>
        <time>2023-08-10T10:27:49Z</time>
      </trkpt>
      <trkpt lat="45.1766" lon="5.97851">
        <ele>2277.98</ele>
        <time>2023-08-10T10:28:00Z</time>
      </trkpt>
      <trkpt lat="45.17662" lon="5.97852">
        <ele>2277.98</ele>
        <time>2023-08-10T10:28:17Z</time>
      </trkpt>
      <trkpt lat="45.17664" lon="5.97849">
        <ele>2276.54</ele>
        <time>2023-08-10T10:28:29Z</time>
      </trkpt>
      <trkpt lat="45.17667" lon="5.97853">
        <ele>2275.58</ele>
        <time>2023-08-10T10:28:42Z</time>
      </trkpt>
      <trkpt lat="45.17669" lon="5.97854">
        <ele>2275.58</ele>
        <time>2023-08-10T10:28:47Z</time>
      </trkpt>
      <trkpt lat="45.17673" lon="5.97856">
        <ele>2275.58</ele>
        <time>2023-08-10T10:28:51Z</time>
      </trkpt>
      <trkpt lat="45.17677" lon="5.97865">
        <ele>2276.54</ele>
        <time>2023-08-10T10:29:03Z</time>
      </trkpt>
      <trkpt lat="45.17683" lon="5.97861">
        <ele>2276.54</ele>
        <time>2023-08-10T10:29:14Z</time>
      </trkpt>
      <trkpt lat="45.1769" lon="5.97855">
        <ele>2275.1</ele>
        <time>2023-08-10T10:29:23Z</time>
      </trkpt>
      <trkpt lat="45.17697" lon="5.97846">
        <ele>2274.62</ele>
        <time>2023-08-10T10:29:34Z</time>
      </trkpt>
      <trkpt lat="45.17699" lon="5.97842">
        <ele>2274.62</ele>
        <time>2023-08-10T10:29:38Z</time>
      </trkpt>
      <trkpt lat="45.17706" lon="5.97832">
        <ele>2274.14</ele>
        <time>2023-08-10T10:29:50Z</time>
      </trkpt>
      <trkpt lat="45.17707" lon="5.9783">
        <ele>2273.66</ele>
        <time>2023-08-10T10:29:52Z</time>
      </trkpt>
      <trkpt lat="45.17714" lon="5.97824">
        <ele>2271.25</ele>
        <time>2023-08-10T10:30:03Z</time>
      </trkpt>
      <trkpt lat="45.17721" lon="5.9782">
        <ele>2269.81</ele>
        <time>2023-08-10T10:30:17Z</time>
      </trkpt>
      <trkpt lat="45.17731" lon="5.97818">
        <ele>2269.33</ele>
        <time>2023-08-10T10:30:30Z</time>
      </trkpt>
      <trkpt lat="45.17738" lon="5.97814">
        <ele>2269.33</ele>
        <time>2023-08-10T10:30:41Z</time>
      </trkpt>
      <trkpt lat="45.17744" lon="5.97809">
        <ele>2269.33</ele>
        <time>2023-08-10T10:30:52Z</time>
      </trkpt>
      <trkpt lat="45.1775" lon="5.97807">
        <ele>2270.77</ele>
        <time>2023-08-10T10:31:04Z</time>
      </trkpt>
      <trkpt lat="45.17761" lon="5.97812">
        <ele>2270.77</ele>
        <time>2023-08-10T10:31:18Z</time>
      </trkpt>
      <trkpt lat="45.17762" lon="5.97811">
        <ele>2270.77</ele>
        <time>2023-08-10T10:31:20Z</time>
      </trkpt>
      <trkpt lat="45.17766" lon="5.97812">
        <ele>2269.33</ele>
        <time>2023-08-10T10:31:23Z</time>
      </trkpt>
      <trkpt lat="45.17771" lon="5.97812">
        <ele>2268.37</ele>
        <time>2023-08-10T10:31:33Z</time>
      </trkpt>
      <trkpt lat="45.17782" lon="5.97813">
        <ele>2265.96</ele>
        <time>2023-08-10T10:31:46Z</time>
      </trkpt>
      <trkpt lat="45.1779" lon="5.97809">
        <ele>2263.56</ele>
        <time>2023-08-10T10:31:59Z</time>
      </trkpt>
      <trkpt lat="45.17791" lon="5.97809">
        <ele>2263.56</ele>
        <time>2023-08-10T10:32:00Z</time>
      </trkpt>
      <trkpt lat="45.17799" lon="5.97807">
        <ele>2261.64</ele>
        <time>2023-08-10T10:32:12Z</time>
      </trkpt>
      <trkpt lat="45.17804" lon="5.97804">
        <ele>2259.24</ele>
        <time>2023-08-10T10:32:22Z</time>
      </trkpt>
      <trkpt lat="45.17804" lon="5.97803">
        <ele>2259.24</ele>
        <time>2023-08-10T10:32:24Z</time>
      </trkpt>
      <trkpt lat="45.17812" lon="5.97802">
        <ele>2257.31</ele>
        <time>2023-08-10T10:32:36Z</time>
      </trkpt>
      <trkpt lat="45.1782" lon="5.97807">
        <ele>2256.35</ele>
        <time>2023-08-10T10:32:47Z</time>
      </trkpt>
      <trkpt lat="45.17821" lon="5.97807">
        <ele>2256.35</ele>
        <time>2023-08-10T10:32:49Z</time>
      </trkpt>
      <trkpt lat="45.17828" lon="5.97802">
        <ele>2253.95</ele>
        <time>2023-08-10T10:33:01Z</time>
      </trkpt>
      <trkpt lat="45.17833" lon="5.97801">
        <ele>2253.95</ele>
        <time>2023-08-10T10:33:08Z</time>
      </trkpt>
      <trkpt lat="45.17839" lon="5.97803">
        <ele>2252.51</ele>
        <time>2023-08-10T10:33:20Z</time>
      </trkpt>
      <trkpt lat="45.17841" lon="5.97797">
        <ele>2251.54</ele>
        <time>2023-08-10T10:33:43Z</time>
      </trkpt>
      <trkpt lat="45.17843" lon="5.97796">
        <ele>2251.06</ele>
        <time>2023-08-10T10:33:46Z</time>
      </trkpt>
      <trkpt lat="45.17846" lon="5.97795">
        <ele>2251.06</ele>
        <time>2023-08-10T10:33:50Z</time>
      </trkpt>
      <trkpt lat="45.17854" lon="5.9779">
        <ele>2250.58</ele>
        <time>2023-08-10T10:34:01Z</time>
      </trkpt>
      <trkpt lat="45.1786" lon="5.97788">
        <ele>2249.14</ele>
        <time>2023-08-10T10:34:11Z</time>
      </trkpt>
      <trkpt lat="45.17863" lon="5.97789">
        <ele>2250.1</ele>
        <time>2023-08-10T10:34:16Z</time>
      </trkpt>
      <trkpt lat="45.17867" lon="5.97789">
        <ele>2250.58</ele>
        <time>2023-08-10T10:34:21Z</time>
      </trkpt>
      <trkpt lat="45.1787" lon="5.97787">
        <ele>2250.58</ele>
        <time>2023-08-10T10:34:24Z</time>
      </trkpt>
      <trkpt lat="45.17878" lon="5.97785">
        <ele>2249.14</ele>
        <time>2023-08-10T10:34:36Z</time>
      </trkpt>
      <trkpt lat="45.17885" lon="5.97778">
        <ele>2247.22</ele>
        <time>2023-08-10T10:34:49Z</time>
      </trkpt>
      <trkpt lat="45.1789" lon="5.97774">
        <ele>2246.74</ele>
        <time>2023-08-10T10:35:00Z</time>
      </trkpt>
      <trkpt lat="45.17891" lon="5.97769">
        <ele>2245.78</ele>
        <time>2023-08-10T10:35:14Z</time>
      </trkpt>
      <trkpt lat="45.17897" lon="5.97767">
        <ele>2245.3</ele>
        <time>2023-08-10T10:35:24Z</time>
      </trkpt>
      <trkpt lat="45.17902" lon="5.97762">
        <ele>2244.33</ele>
        <time>2023-08-10T10:35:31Z</time>
      </trkpt>
      <trkpt lat="45.17905" lon="5.97755">
        <ele>2242.89</ele>
        <time>2023-08-10T10:35:41Z</time>
      </trkpt>
      <trkpt lat="45.17906" lon="5.97754">
        <ele>2242.89</ele>
        <time>2023-08-10T10:35:43Z</time>
      </trkpt>
      <trkpt lat="45.17909" lon="5.9775">
        <ele>2241.93</ele>
        <time>2023-08-10T10:35:50Z</time>
      </trkpt>
      <trkpt lat="45.17911" lon="5.97745">
        <ele>2241.45</ele>
        <time>2023-08-10T10:35:55Z</time>
      </trkpt>
      <trkpt lat="45.17917" lon="5.97743">
        <ele>2240.97</ele>
        <time>2023-08-10T10:36:02Z</time>
      </trkpt>
      <trkpt lat="45.17921" lon="5.97738">
        <ele>2240.49</ele>
        <time>2023-08-10T10:36:09Z</time>
      </trkpt>
      <trkpt lat="45.17924" lon="5.97723">
        <ele>2239.05</ele>
        <time>2023-08-10T10:36:20Z</time>
      </trkpt>
      <trkpt lat="45.17924" lon="5.97722">
        <ele>2238.57</ele>
        <time>2023-08-10T10:36:22Z</time>
      </trkpt>
      <trkpt lat="45.17931" lon="5.97711">
        <ele>2237.61</ele>
        <time>2023-08-10T10:36:36Z</time>
      </trkpt>
      <trkpt lat="45.17931" lon="5.9771">
        <ele>2237.61</ele>
        <time>2023-08-10T10:36:37Z</time>
      </trkpt>
      <trkpt lat="45.17939" lon="5.97701">
        <ele>2236.64</ele>
        <time>2023-08-10T10:36:50Z</time>
      </trkpt>
      <trkpt lat="45.17942" lon="5.97686">
        <ele>2234.24</ele>
        <time>2023-08-10T10:37:07Z</time>
      </trkpt>
      <trkpt lat="45.17945" lon="5.97686">
        <ele>2233.28</ele>
        <time>2023-08-10T10:37:22Z</time>
      </trkpt>
      <trkpt lat="45.17947" lon="5.97681">
        <ele>2231.84</ele>
        <time>2023-08-10T10:37:41Z</time>
      </trkpt>
      <trkpt lat="45.17954" lon="5.9768">
        <ele>2229.92</ele>
        <time>2023-08-10T10:37:56Z</time>
      </trkpt>
      <trkpt lat="45.17956" lon="5.9768">
        <ele>2229.92</ele>
        <time>2023-08-10T10:37:58Z</time>
      </trkpt>
      <trkpt lat="45.1796" lon="5.97677">
        <ele>2227.51</ele>
        <time>2023-08-10T10:38:10Z</time>
      </trkpt>
      <trkpt lat="45.17969" lon="5.97677">
        <ele>2225.59</ele>
        <time>2023-08-10T10:38:20Z</time>
      </trkpt>
      <trkpt lat="45.17974" lon="5.97672">
        <ele>2223.19</ele>
        <time>2023-08-10T10:38:33Z</time>
      </trkpt>
      <trkpt lat="45.17982" lon="5.97667">
        <ele>2221.74</ele>
        <time>2023-08-10T10:38:46Z</time>
      </trkpt>
      <trkpt lat="45.17988" lon="5.97665">
        <ele>2220.78</ele>
        <time>2023-08-10T10:38:58Z</time>
      </trkpt>
      <trkpt lat="45.17991" lon="5.97663">
        <ele>2219.82</ele>
        <time>2023-08-10T10:39:06Z</time>
      </trkpt>
      <trkpt lat="45.17994" lon="5.9766">
        <ele>2218.86</ele>
        <time>2023-08-10T10:39:10Z</time>
      </trkpt>
      <trkpt lat="45.17997" lon="5.97656">
        <ele>2217.9</ele>
        <time>2023-08-10T10:39:21Z</time>
      </trkpt>
      <trkpt lat="45.18003" lon="5.97655">
        <ele>2215.98</ele>
        <time>2023-08-10T10:39:32Z</time>
      </trkpt>
      <trkpt lat="45.18005" lon="5.97654">
        <ele>2215.5</ele>
        <time>2023-08-10T10:39:42Z</time>
      </trkpt>
      <trkpt lat="45.1801" lon="5.97648">
        <ele>2214.53</ele>
        <time>2023-08-10T10:39:52Z</time>
      </trkpt>
      <trkpt lat="45.18012" lon="5.97641">
        <ele>2212.61</ele>
        <time>2023-08-10T10:40:04Z</time>
      </trkpt>
      <trkpt lat="45.18017" lon="5.97641">
        <ele>2211.17</ele>
        <time>2023-08-10T10:40:15Z</time>
      </trkpt>
      <trkpt lat="45.18022" lon="5.97636">
        <ele>2210.21</ele>
        <time>2023-08-10T10:40:26Z</time>
      </trkpt>
      <trkpt lat="45.18024" lon="5.97632">
        <ele>2209.73</ele>
        <time>2023-08-10T10:40:36Z</time>
      </trkpt>
      <trkpt lat="45.18026" lon="5.97628">
        <ele>2208.29</ele>
        <time>2023-08-10T10:40:45Z</time>
      </trkpt>
      <trkpt lat="45.18028" lon="5.97624">
        <ele>2207.32</ele>
        <time>2023-08-10T10:40:52Z</time>
      </trkpt>
      <trkpt lat="45.18032" lon="5.9762">
        <ele>2206.84</ele>
        <time>2023-08-10T10:40:58Z</time>
      </trkpt>
      <trkpt lat="45.18032" lon="5.97614">
        <ele>2206.84</ele>
        <time>2023-08-10T10:41:02Z</time>
      </trkpt>
      <trkpt lat="45.18034" lon="5.97604">
        <ele>2206.84</ele>
        <time>2023-08-10T10:41:13Z</time>
      </trkpt>
      <trkpt lat="45.18034" lon="5.97601">
        <ele>2206.84</ele>
        <time>2023-08-10T10:41:16Z</time>
      </trkpt>
      <trkpt lat="45.18034" lon="5.97589">
        <ele>2208.29</ele>
        <time>2023-08-10T10:41:27Z</time>
      </trkpt>
      <trkpt lat="45.18034" lon="5.97587">
        <ele>2208.29</ele>
        <time>2023-08-10T10:41:29Z</time>
      </trkpt>
      <trkpt lat="45.18036" lon="5.97576">
        <ele>2209.25</ele>
        <time>2023-08-10T10:41:41Z</time>
      </trkpt>
      <trkpt lat="45.18037" lon="5.9757">
        <ele>2209.25</ele>
        <time>2023-08-10T10:41:47Z</time>
      </trkpt>
      <trkpt lat="45.18039" lon="5.9756">
        <ele>2209.25</ele>
        <time>2023-08-10T10:41:58Z</time>
      </trkpt>
      <trkpt lat="45.18042" lon="5.97554">
        <ele>2209.25</ele>
        <time>2023-08-10T10:42:05Z</time>
      </trkpt>
      <trkpt lat="45.18044" lon="5.97545">
        <ele>2209.73</ele>
        <time>2023-08-10T10:42:14Z</time>
      </trkpt>
      <trkpt lat="45.18045" lon="5.97534">
        <ele>2209.73</ele>
        <time>2023-08-10T10:42:25Z</time>
      </trkpt>
      <trkpt lat="45.18045" lon="5.97532">
        <ele>2209.73</ele>
        <time>2023-08-10T10:42:27Z</time>
      </trkpt>
      <trkpt lat="45.18046" lon="5.97528">
        <ele>2208.29</ele>
        <time>2023-08-10T10:42:30Z</time>
      </trkpt>
      <trkpt lat="45.18051" lon="5.97515">
        <ele>2208.29</ele>
        <time>2023-08-10T10:42:42Z</time>
      </trkpt>
      <trkpt lat="45.18054" lon="5.97501">
        <ele>2209.25</ele>
        <time>2023-08-10T10:42:54Z</time>
      </trkpt>
      <trkpt lat="45.18052" lon="5.97492">
        <ele>2207.81</ele>
        <time>2023-08-10T10:43:04Z</time>
      </trkpt>
      <trkpt lat="45.18053" lon="5.97491">
        <ele>2207.81</ele>
        <time>2023-08-10T10:43:05Z</time>
      </trkpt>
      <trkpt lat="45.18052" lon="5.97486">
        <ele>2207.81</ele>
        <time>2023-08-10T10:43:10Z</time>
      </trkpt>
      <trkpt lat="45.18052" lon="5.9748">
        <ele>2207.81</ele>
        <time>2023-08-10T10:43:20Z</time>
      </trkpt>
      <trkpt lat="45.18049" lon="5.97468">
        <ele>2207.81</ele>
        <time>2023-08-10T10:43:34Z</time>
      </trkpt>
      <trkpt lat="45.1804" lon="5.9745">
        <ele>2207.81</ele>
        <time>2023-08-10T10:43:49Z</time>
      </trkpt>
      <trkpt lat="45.18037" lon="5.97441">
        <ele>2207.81</ele>
        <time>2023-08-10T10:43:58Z</time>
      </trkpt>
      <trkpt lat="45.18036" lon="5.97434">
        <ele>2207.32</ele>
        <time>2023-08-10T10:44:02Z</time>
      </trkpt>
      <trkpt lat="45.18035" lon="5.9743">
        <ele>2206.84</ele>
        <time>2023-08-10T10:44:06Z</time>
      </trkpt>
      <trkpt lat="45.18036" lon="5.97417">
        <ele>2206.84</ele>
        <time>2023-08-10T10:44:17Z</time>
      </trkpt>
      <trkpt lat="45.18035" lon="5.97408">
        <ele>2208.29</ele>
        <time>2023-08-10T10:44:26Z</time>
      </trkpt>
      <trkpt lat="45.18034" lon="5.97403">
        <ele>2208.29</ele>
        <time>2023-08-10T10:44:30Z</time>
      </trkpt>
      <trkpt lat="45.18032" lon="5.97399">
        <ele>2207.81</ele>
        <time>2023-08-10T10:44:41Z</time>
      </trkpt>
      <trkpt lat="45.18031" lon="5.97388">
        <ele>2207.81</ele>
        <time>2023-08-10T10:44:50Z</time>
      </trkpt>
      <trkpt lat="45.18028" lon="5.97384">
        <ele>2207.81</ele>
        <time>2023-08-10T10:44:55Z</time>
      </trkpt>
      <trkpt lat="45.18028" lon="5.97381">
        <ele>2207.81</ele>
        <time>2023-08-10T10:44:58Z</time>
      </trkpt>
      <trkpt lat="45.18026" lon="5.97377">
        <ele>2206.36</ele>
        <time>2023-08-10T10:45:03Z</time>
      </trkpt>
      <trkpt lat="45.18025" lon="5.9737">
        <ele>2206.36</ele>
        <time>2023-08-10T10:45:09Z</time>
      </trkpt>
      <trkpt lat="45.18023" lon="5.97363">
        <ele>2206.36</ele>
        <time>2023-08-10T10:45:16Z</time>
      </trkpt>
      <trkpt lat="45.18023" lon="5.97358">
        <ele>2206.36</ele>
        <time>2023-08-10T10:45:21Z</time>
      </trkpt>
      <trkpt lat="45.18024" lon="5.97345">
        <ele>2206.36</ele>
        <time>2023-08-10T10:45:32Z</time>
      </trkpt>
      <trkpt lat="45.18024" lon="5.97344">
        <ele>2206.36</ele>
        <time>2023-08-10T10:45:33Z</time>
      </trkpt>
      <trkpt lat="45.18027" lon="5.97332">
        <ele>2206.36</ele>
        <time>2023-08-10T10:45:43Z</time>
      </trkpt>
      <trkpt lat="45.18029" lon="5.97327">
        <ele>2206.36</ele>
        <time>2023-08-10T10:45:48Z</time>
      </trkpt>
      <trkpt lat="45.1803" lon="5.97317">
        <ele>2206.36</ele>
        <time>2023-08-10T10:45:58Z</time>
      </trkpt>
      <trkpt lat="45.1803" lon="5.97316">
        <ele>2207.81</ele>
        <time>2023-08-10T10:46:00Z</time>
      </trkpt>
      <trkpt lat="45.18031" lon="5.97313">
        <ele>2208.77</ele>
        <time>2023-08-10T10:46:10Z</time>
      </trkpt>
      <trkpt lat="45.1803" lon="5.97305">
        <ele>2209.73</ele>
        <time>2023-08-10T10:46:20Z</time>
      </trkpt>
      <trkpt lat="45.18034" lon="5.97302">
        <ele>2209.73</ele>
        <time>2023-08-10T10:46:26Z</time>
      </trkpt>
      <trkpt lat="45.18034" lon="5.97297">
        <ele>2209.73</ele>
        <time>2023-08-10T10:46:31Z</time>
      </trkpt>
      <trkpt lat="45.18035" lon="5.97289">
        <ele>2209.73</ele>
        <time>2023-08-10T10:46:39Z</time>
      </trkpt>
      <trkpt lat="45.18036" lon="5.97286">
        <ele>2209.73</ele>
        <time>2023-08-10T10:46:42Z</time>
      </trkpt>
      <trkpt lat="45.18039" lon="5.97272">
        <ele>2209.73</ele>
        <time>2023-08-10T10:46:54Z</time>
      </trkpt>
      <trkpt lat="45.18038" lon="5.97262">
        <ele>2208.77</ele>
        <time>2023-08-10T10:47:05Z</time>
      </trkpt>
      <trkpt lat="45.18039" lon="5.97261">
        <ele>2208.77</ele>
        <time>2023-08-10T10:47:06Z</time>
      </trkpt>
      <trkpt lat="45.18037" lon="5.97251">
        <ele>2210.21</ele>
        <time>2023-08-10T10:47:17Z</time>
      </trkpt>
      <trkpt lat="45.18038" lon="5.97249">
        <ele>2210.21</ele>
        <time>2023-08-10T10:47:20Z</time>
      </trkpt>
      <trkpt lat="45.18038" lon="5.97244">
        <ele>2211.17</ele>
        <time>2023-08-10T10:47:25Z</time>
      </trkpt>
      <trkpt lat="45.18036" lon="5.97236">
        <ele>2212.13</ele>
        <time>2023-08-10T10:47:38Z</time>
      </trkpt>
      <trkpt lat="45.18035" lon="5.97229">
        <ele>2213.09</ele>
        <time>2023-08-10T10:47:46Z</time>
      </trkpt>
      <trkpt lat="45.18032" lon="5.97224">
        <ele>2213.57</ele>
        <time>2023-08-10T10:47:53Z</time>
      </trkpt>
      <trkpt lat="45.18027" lon="5.97215">
        <ele>2214.53</ele>
        <time>2023-08-10T10:48:05Z</time>
      </trkpt>
      <trkpt lat="45.1802" lon="5.97205">
        <ele>2215.5</ele>
        <time>2023-08-10T10:48:18Z</time>
      </trkpt>
      <trkpt lat="45.18016" lon="5.97194">
        <ele>2215.5</ele>
        <time>2023-08-10T10:48:29Z</time>
      </trkpt>
      <trkpt lat="45.18013" lon="5.97188">
        <ele>2215.5</ele>
        <time>2023-08-10T10:48:35Z</time>
      </trkpt>
      <trkpt lat="45.18013" lon="5.97184">
        <ele>2214.05</ele>
        <time>2023-08-10T10:48:38Z</time>
      </trkpt>
      <trkpt lat="45.18013" lon="5.97183">
        <ele>2214.05</ele>
        <time>2023-08-10T10:48:39Z</time>
      </trkpt>
      <trkpt lat="45.18018" lon="5.97174">
        <ele>2212.61</ele>
        <time>2023-08-10T10:48:47Z</time>
      </trkpt>
      <trkpt lat="45.18019" lon="5.97164">
        <ele>2211.17</ele>
        <time>2023-08-10T10:48:57Z</time>
      </trkpt>
      <trkpt lat="45.1802" lon="5.97154">
        <ele>2210.69</ele>
        <time>2023-08-10T10:49:06Z</time>
      </trkpt>
      <trkpt lat="45.18021" lon="5.97147">
        <ele>2210.69</ele>
        <time>2023-08-10T10:49:12Z</time>
      </trkpt>
      <trkpt lat="45.1802" lon="5.97138">
        <ele>2210.21</ele>
        <time>2023-08-10T10:49:22Z</time>
      </trkpt>
      <trkpt lat="45.18021" lon="5.97134">
        <ele>2210.21</ele>
        <time>2023-08-10T10:49:26Z</time>
      </trkpt>
      <trkpt lat="45.18021" lon="5.97125">
        <ele>2209.73</ele>
        <time>2023-08-10T10:49:36Z</time>
      </trkpt>
      <trkpt lat="45.18021" lon="5.97123">
        <ele>2209.73</ele>
        <time>2023-08-10T10:49:39Z</time>
      </trkpt>
      <trkpt lat="45.18025" lon="5.9712">
        <ele>2209.25</ele>
        <time>2023-08-10T10:49:43Z</time>
      </trkpt>
      <trkpt lat="45.18032" lon="5.97114">
        <ele>2207.81</ele>
        <time>2023-08-10T10:49:53Z</time>
      </trkpt>
      <trkpt lat="45.18038" lon="5.97105">
        <ele>2205.88</ele>
        <time>2023-08-10T10:50:06Z</time>
      </trkpt>
      <trkpt lat="45.18037" lon="5.97102">
        <ele>2205.4</ele>
        <time>2023-08-10T10:50:10Z</time>
      </trkpt>
      <trkpt lat="45.18037" lon="5.97098">
        <ele>2203.48</ele>
        <time>2023-08-10T10:50:15Z</time>
      </trkpt>
      <trkpt lat="45.18038" lon="5.97096">
        <ele>2203.48</ele>
        <time>2023-08-10T10:50:16Z</time>
      </trkpt>
      <trkpt lat="45.1804" lon="5.97094">
        <ele>2203.48</ele>
        <time>2023-08-10T10:50:18Z</time>
      </trkpt>
      <trkpt lat="45.1804" lon="5.97092">
        <ele>2203.48</ele>
        <time>2023-08-10T10:50:19Z</time>
      </trkpt>
      <trkpt lat="45.18039" lon="5.97083">
        <ele>2202.52</ele>
        <time>2023-08-10T10:50:29Z</time>
      </trkpt>
      <trkpt lat="45.18038" lon="5.97073">
        <ele>2200.59</ele>
        <time>2023-08-10T10:50:42Z</time>
      </trkpt>
      <trkpt lat="45.18035" lon="5.97064">
        <ele>2199.15</ele>
        <time>2023-08-10T10:50:53Z</time>
      </trkpt>
      <trkpt lat="45.18035" lon="5.97062">
        <ele>2199.15</ele>
        <time>2023-08-10T10:50:54Z</time>
      </trkpt>
      <trkpt lat="45.18036" lon="5.9706">
        <ele>2199.15</ele>
        <time>2023-08-10T10:50:55Z</time>
      </trkpt>
      <trkpt lat="45.18036" lon="5.97059">
        <ele>2199.15</ele>
        <time>2023-08-10T10:50:56Z</time>
      </trkpt>
      <trkpt lat="45.18037" lon="5.97046">
        <ele>2198.19</ele>
        <time>2023-08-10T10:51:08Z</time>
      </trkpt>
      <trkpt lat="45.18036" lon="5.97043">
        <ele>2197.23</ele>
        <time>2023-08-10T10:51:12Z</time>
      </trkpt>
      <trkpt lat="45.18034" lon="5.97039">
        <ele>2195.79</ele>
        <time>2023-08-10T10:51:19Z</time>
      </trkpt>
      <trkpt lat="45.1803" lon="5.97031">
        <ele>2193.87</ele>
        <time>2023-08-10T10:51:29Z</time>
      </trkpt>
      <trkpt lat="45.18029" lon="5.97023">
        <ele>2191.94</ele>
        <time>2023-08-10T10:51:39Z</time>
      </trkpt>
      <trkpt lat="45.18029" lon="5.97016">
        <ele>2190.5</ele>
        <time>2023-08-10T10:51:51Z</time>
      </trkpt>
      <trkpt lat="45.18031" lon="5.97013">
        <ele>2190.02</ele>
        <time>2023-08-10T10:52:11Z</time>
      </trkpt>
      <trkpt lat="45.18033" lon="5.97002">
        <ele>2188.1</ele>
        <time>2023-08-10T10:52:22Z</time>
      </trkpt>
      <trkpt lat="45.18033" lon="5.97001">
        <ele>2187.62</ele>
        <time>2023-08-10T10:52:23Z</time>
      </trkpt>
      <trkpt lat="45.18034" lon="5.96999">
        <ele>2187.62</ele>
        <time>2023-08-10T10:52:29Z</time>
      </trkpt>
      <trkpt lat="45.18041" lon="5.96996">
        <ele>2185.69</ele>
        <time>2023-08-10T10:52:40Z</time>
      </trkpt>
      <trkpt lat="45.18043" lon="5.96991">
        <ele>2183.77</ele>
        <time>2023-08-10T10:52:47Z</time>
      </trkpt>
      <trkpt lat="45.18044" lon="5.9699">
        <ele>2183.77</ele>
        <time>2023-08-10T10:52:48Z</time>
      </trkpt>
      <trkpt lat="45.18047" lon="5.96982">
        <ele>2181.85</ele>
        <time>2023-08-10T10:52:57Z</time>
      </trkpt>
      <trkpt lat="45.18048" lon="5.96979">
        <ele>2181.37</ele>
        <time>2023-08-10T10:53:00Z</time>
      </trkpt>
      <trkpt lat="45.18049" lon="5.96978">
        <ele>2180.89</ele>
        <time>2023-08-10T10:53:01Z</time>
      </trkpt>
      <trkpt lat="45.18053" lon="5.96973">
        <ele>2179.93</ele>
        <time>2023-08-10T10:53:07Z</time>
      </trkpt>
      <trkpt lat="45.18055" lon="5.96967">
        <ele>2179.93</ele>
        <time>2023-08-10T10:53:13Z</time>
      </trkpt>
      <trkpt lat="45.18056" lon="5.96965">
        <ele>2179.93</ele>
        <time>2023-08-10T10:53:14Z</time>
      </trkpt>
      <trkpt lat="45.18059" lon="5.96965">
        <ele>2178.97</ele>
        <time>2023-08-10T10:53:18Z</time>
      </trkpt>
      <trkpt lat="45.1806" lon="5.96965">
        <ele>2178.97</ele>
        <time>2023-08-10T10:53:19Z</time>
      </trkpt>
      <trkpt lat="45.18061" lon="5.96967">
        <ele>2178</ele>
        <time>2023-08-10T10:53:22Z</time>
      </trkpt>
      <trkpt lat="45.18061" lon="5.96968">
        <ele>2178</ele>
        <time>2023-08-10T10:53:23Z</time>
      </trkpt>
      <trkpt lat="45.18062" lon="5.96969">
        <ele>2178</ele>
        <time>2023-08-10T10:53:24Z</time>
      </trkpt>
      <trkpt lat="45.18063" lon="5.96971">
        <ele>2177.52</ele>
        <time>2023-08-10T10:53:26Z</time>
      </trkpt>
      <trkpt lat="45.18066" lon="5.96973">
        <ele>2177.52</ele>
        <time>2023-08-10T10:53:29Z</time>
      </trkpt>
      <trkpt lat="45.18072" lon="5.96976">
        <ele>2177.52</ele>
        <time>2023-08-10T10:53:36Z</time>
      </trkpt>
      <trkpt lat="45.18078" lon="5.96979">
        <ele>2175.6</ele>
        <time>2023-08-10T10:53:51Z</time>
      </trkpt>
      <trkpt lat="45.1808" lon="5.96981">
        <ele>2175.6</ele>
        <time>2023-08-10T10:54:00Z</time>
      </trkpt>
      <trkpt lat="45.18085" lon="5.96984">
        <ele>2173.68</ele>
        <time>2023-08-10T10:54:11Z</time>
      </trkpt>
      <trkpt lat="45.1809" lon="5.96985">
        <ele>2173.68</ele>
        <time>2023-08-10T10:54:19Z</time>
      </trkpt>
      <trkpt lat="45.18093" lon="5.96984">
        <ele>2173.2</ele>
        <time>2023-08-10T10:54:33Z</time>
      </trkpt>
      <trkpt lat="45.18099" lon="5.96979">
        <ele>2172.24</ele>
        <time>2023-08-10T10:54:46Z</time>
      </trkpt>
      <trkpt lat="45.18102" lon="5.96978">
        <ele>2171.27</ele>
        <time>2023-08-10T10:55:02Z</time>
      </trkpt>
      <trkpt lat="45.1811" lon="5.96976">
        <ele>2169.35</ele>
        <time>2023-08-10T10:55:14Z</time>
      </trkpt>
      <trkpt lat="45.18118" lon="5.96978">
        <ele>2167.43</ele>
        <time>2023-08-10T10:55:27Z</time>
      </trkpt>
      <trkpt lat="45.18121" lon="5.96979">
        <ele>2166.95</ele>
        <time>2023-08-10T10:55:44Z</time>
      </trkpt>
      <trkpt lat="45.18121" lon="5.96981">
        <ele>2166.95</ele>
        <time>2023-08-10T10:56:15Z</time>
      </trkpt>
      <trkpt lat="45.18121" lon="5.96986">
        <ele>2165.51</ele>
        <time>2023-08-10T10:56:29Z</time>
      </trkpt>
      <trkpt lat="45.18122" lon="5.96993">
        <ele>2164.55</ele>
        <time>2023-08-10T10:56:42Z</time>
      </trkpt>
      <trkpt lat="45.18121" lon="5.96999">
        <ele>2164.06</ele>
        <time>2023-08-10T10:56:53Z</time>
      </trkpt>
      <trkpt lat="45.18121" lon="5.97006">
        <ele>2164.06</ele>
        <time>2023-08-10T10:57:04Z</time>
      </trkpt>
      <trkpt lat="45.18125" lon="5.97016">
        <ele>2164.06</ele>
        <time>2023-08-10T10:57:16Z</time>
      </trkpt>
      <trkpt lat="45.18124" lon="5.97021">
        <ele>2164.06</ele>
        <time>2023-08-10T10:57:28Z</time>
      </trkpt>
      <trkpt lat="45.18126" lon="5.97027">
        <ele>2164.06</ele>
        <time>2023-08-10T10:57:42Z</time>
      </trkpt>
      <trkpt lat="45.18126" lon="5.97028">
        <ele>2164.06</ele>
        <time>2023-08-10T10:57:44Z</time>
      </trkpt>
      <trkpt lat="45.1813" lon="5.97036">
        <ele>2164.06</ele>
        <time>2023-08-10T10:57:56Z</time>
      </trkpt>
      <trkpt lat="45.18136" lon="5.9704">
        <ele>2164.06</ele>
        <time>2023-08-10T11:01:51Z</time>
      </trkpt>
      <trkpt lat="45.18136" lon="5.97036">
        <ele>2163.1</ele>
        <time>2023-08-10T11:02:04Z</time>
      </trkpt>
      <trkpt lat="45.18134" lon="5.97027">
        <ele>2161.66</ele>
        <time>2023-08-10T11:02:16Z</time>
      </trkpt>
      <trkpt lat="45.18136" lon="5.97026">
        <ele>2160.22</ele>
        <time>2023-08-10T11:02:26Z</time>
      </trkpt>
      <trkpt lat="45.18137" lon="5.97023">
        <ele>2159.26</ele>
        <time>2023-08-10T11:02:44Z</time>
      </trkpt>
      <trkpt lat="45.18141" lon="5.97012">
        <ele>2155.89</ele>
        <time>2023-08-10T11:02:59Z</time>
      </trkpt>
      <trkpt lat="45.18142" lon="5.9701">
        <ele>2154.93</ele>
        <time>2023-08-10T11:03:13Z</time>
      </trkpt>
      <trkpt lat="45.18145" lon="5.96998">
        <ele>2153.97</ele>
        <time>2023-08-10T11:03:24Z</time>
      </trkpt>
      <trkpt lat="45.18157" lon="5.96986">
        <ele>2153.49</ele>
        <time>2023-08-10T11:03:41Z</time>
      </trkpt>
      <trkpt lat="45.18166" lon="5.96972">
        <ele>2152.53</ele>
        <time>2023-08-10T11:03:59Z</time>
      </trkpt>
      <trkpt lat="45.18169" lon="5.96958">
        <ele>2149.65</ele>
        <time>2023-08-10T11:04:14Z</time>
      </trkpt>
      <trkpt lat="45.18169" lon="5.96951">
        <ele>2149.16</ele>
        <time>2023-08-10T11:04:20Z</time>
      </trkpt>
      <trkpt lat="45.18168" lon="5.96938">
        <ele>2147.72</ele>
        <time>2023-08-10T11:04:32Z</time>
      </trkpt>
      <trkpt lat="45.18168" lon="5.96931">
        <ele>2146.28</ele>
        <time>2023-08-10T11:04:43Z</time>
      </trkpt>
      <trkpt lat="45.18171" lon="5.96932">
        <ele>2145.32</ele>
        <time>2023-08-10T11:04:58Z</time>
      </trkpt>
      <trkpt lat="45.18172" lon="5.96923">
        <ele>2143.4</ele>
        <time>2023-08-10T11:05:12Z</time>
      </trkpt>
      <trkpt lat="45.18174" lon="5.96919">
        <ele>2140.99</ele>
        <time>2023-08-10T11:05:24Z</time>
      </trkpt>
      <trkpt lat="45.18176" lon="5.96916">
        <ele>2139.55</ele>
        <time>2023-08-10T11:05:34Z</time>
      </trkpt>
      <trkpt lat="45.18176" lon="5.9691">
        <ele>2137.15</ele>
        <time>2023-08-10T11:05:45Z</time>
      </trkpt>
      <trkpt lat="45.18177" lon="5.96913">
        <ele>2137.15</ele>
        <time>2023-08-10T11:05:56Z</time>
      </trkpt>
      <trkpt lat="45.18177" lon="5.96904">
        <ele>2134.74</ele>
        <time>2023-08-10T11:06:08Z</time>
      </trkpt>
      <trkpt lat="45.18179" lon="5.969">
        <ele>2133.3</ele>
        <time>2023-08-10T11:06:19Z</time>
      </trkpt>
      <trkpt lat="45.18179" lon="5.96894">
        <ele>2130.9</ele>
        <time>2023-08-10T11:06:30Z</time>
      </trkpt>
      <trkpt lat="45.1818" lon="5.96883">
        <ele>2128.02</ele>
        <time>2023-08-10T11:06:44Z</time>
      </trkpt>
      <trkpt lat="45.18178" lon="5.96876">
        <ele>2125.61</ele>
        <time>2023-08-10T11:06:56Z</time>
      </trkpt>
      <trkpt lat="45.18177" lon="5.96874">
        <ele>2123.69</ele>
        <time>2023-08-10T11:07:03Z</time>
      </trkpt>
      <trkpt lat="45.1818" lon="5.96866">
        <ele>2121.29</ele>
        <time>2023-08-10T11:07:18Z</time>
      </trkpt>
      <trkpt lat="45.18182" lon="5.96864">
        <ele>2120.32</ele>
        <time>2023-08-10T11:07:31Z</time>
      </trkpt>
      <trkpt lat="45.1818" lon="5.96854">
        <ele>2117.44</ele>
        <time>2023-08-10T11:07:45Z</time>
      </trkpt>
      <trkpt lat="45.18175" lon="5.96846">
        <ele>2114.08</ele>
        <time>2023-08-10T11:07:59Z</time>
      </trkpt>
      <trkpt lat="45.18175" lon="5.96844">
        <ele>2113.6</ele>
        <time>2023-08-10T11:08:02Z</time>
      </trkpt>
      <trkpt lat="45.1817" lon="5.96838">
        <ele>2111.19</ele>
        <time>2023-08-10T11:08:14Z</time>
      </trkpt>
      <trkpt lat="45.18162" lon="5.96827">
        <ele>2109.27</ele>
        <time>2023-08-10T11:08:29Z</time>
      </trkpt>
      <trkpt lat="45.18161" lon="5.96823">
        <ele>2108.79</ele>
        <time>2023-08-10T11:08:33Z</time>
      </trkpt>
      <trkpt lat="45.18159" lon="5.9682">
        <ele>2108.79</ele>
        <time>2023-08-10T11:08:36Z</time>
      </trkpt>
      <trkpt lat="45.18153" lon="5.96807">
        <ele>2106.87</ele>
        <time>2023-08-10T11:08:54Z</time>
      </trkpt>
      <trkpt lat="45.18154" lon="5.9681">
        <ele>2106.87</ele>
        <time>2023-08-10T11:09:00Z</time>
      </trkpt>
      <trkpt lat="45.18154" lon="5.96796">
        <ele>2104.46</ele>
        <time>2023-08-10T11:09:13Z</time>
      </trkpt>
      <trkpt lat="45.18152" lon="5.96786">
        <ele>2101.1</ele>
        <time>2023-08-10T11:09:26Z</time>
      </trkpt>
      <trkpt lat="45.18148" lon="5.96777">
        <ele>2099.18</ele>
        <time>2023-08-10T11:09:39Z</time>
      </trkpt>
      <trkpt lat="45.1815" lon="5.96772">
        <ele>2099.18</ele>
        <time>2023-08-10T11:09:43Z</time>
      </trkpt>
      <trkpt lat="45.1815" lon="5.96754">
        <ele>2096.29</ele>
        <time>2023-08-10T11:09:58Z</time>
      </trkpt>
      <trkpt lat="45.1815" lon="5.96748">
        <ele>2095.33</ele>
        <time>2023-08-10T11:10:03Z</time>
      </trkpt>
      <trkpt lat="45.1815" lon="5.96734">
        <ele>2093.41</ele>
        <time>2023-08-10T11:10:15Z</time>
      </trkpt>
      <trkpt lat="45.18151" lon="5.96729">
        <ele>2091.97</ele>
        <time>2023-08-10T11:10:19Z</time>
      </trkpt>
      <trkpt lat="45.18149" lon="5.96713">
        <ele>2088.12</ele>
        <time>2023-08-10T11:10:34Z</time>
      </trkpt>
      <trkpt lat="45.18147" lon="5.96707">
        <ele>2086.2</ele>
        <time>2023-08-10T11:10:45Z</time>
      </trkpt>
      <trkpt lat="45.18152" lon="5.96706">
        <ele>2082.83</ele>
        <time>2023-08-10T11:10:54Z</time>
      </trkpt>
      <trkpt lat="45.18146" lon="5.96695">
        <ele>2079.47</ele>
        <time>2023-08-10T11:11:10Z</time>
      </trkpt>
      <trkpt lat="45.18143" lon="5.96691">
        <ele>2077.55</ele>
        <time>2023-08-10T11:11:20Z</time>
      </trkpt>
      <trkpt lat="45.18141" lon="5.96682">
        <ele>2074.66</ele>
        <time>2023-08-10T11:11:29Z</time>
      </trkpt>
      <trkpt lat="45.18139" lon="5.96681">
        <ele>2074.18</ele>
        <time>2023-08-10T11:11:31Z</time>
      </trkpt>
      <trkpt lat="45.18136" lon="5.96672">
        <ele>2071.78</ele>
        <time>2023-08-10T11:11:45Z</time>
      </trkpt>
      <trkpt lat="45.18136" lon="5.96668">
        <ele>2068.89</ele>
        <time>2023-08-10T11:12:00Z</time>
      </trkpt>
      <trkpt lat="45.18139" lon="5.96663">
        <ele>2066.01</ele>
        <time>2023-08-10T11:12:14Z</time>
      </trkpt>
      <trkpt lat="45.18144" lon="5.96666">
        <ele>2063.61</ele>
        <time>2023-08-10T11:12:26Z</time>
      </trkpt>
      <trkpt lat="45.18143" lon="5.96659">
        <ele>2061.2</ele>
        <time>2023-08-10T11:12:43Z</time>
      </trkpt>
      <trkpt lat="45.18143" lon="5.96653">
        <ele>2057.84</ele>
        <time>2023-08-10T11:12:57Z</time>
      </trkpt>
      <trkpt lat="45.18145" lon="5.96654">
        <ele>2055.92</ele>
        <time>2023-08-10T11:13:08Z</time>
      </trkpt>
      <trkpt lat="45.18146" lon="5.96654">
        <ele>2054.47</ele>
        <time>2023-08-10T11:13:16Z</time>
      </trkpt>
      <trkpt lat="45.18152" lon="5.96654">
        <ele>2052.55</ele>
        <time>2023-08-10T11:13:28Z</time>
      </trkpt>
      <trkpt lat="45.18151" lon="5.9665">
        <ele>2051.59</ele>
        <time>2023-08-10T11:13:34Z</time>
      </trkpt>
      <trkpt lat="45.18156" lon="5.96644">
        <ele>2047.75</ele>
        <time>2023-08-10T11:13:48Z</time>
      </trkpt>
      <trkpt lat="45.18161" lon="5.96646">
        <ele>2045.82</ele>
        <time>2023-08-10T11:14:00Z</time>
      </trkpt>
      <trkpt lat="45.18165" lon="5.96646">
        <ele>2043.9</ele>
        <time>2023-08-10T11:14:13Z</time>
      </trkpt>
      <trkpt lat="45.18168" lon="5.96649">
        <ele>2041.02</ele>
        <time>2023-08-10T11:14:24Z</time>
      </trkpt>
      <trkpt lat="45.18171" lon="5.96656">
        <ele>2039.57</ele>
        <time>2023-08-10T11:14:35Z</time>
      </trkpt>
      <trkpt lat="45.18171" lon="5.96657">
        <ele>2039.09</ele>
        <time>2023-08-10T11:14:36Z</time>
      </trkpt>
      <trkpt lat="45.18174" lon="5.96659">
        <ele>2038.13</ele>
        <time>2023-08-10T11:14:40Z</time>
      </trkpt>
      <trkpt lat="45.18178" lon="5.96661">
        <ele>2036.69</ele>
        <time>2023-08-10T11:14:47Z</time>
      </trkpt>
      <trkpt lat="45.18185" lon="5.96667">
        <ele>2033.81</ele>
        <time>2023-08-10T11:14:58Z</time>
      </trkpt>
      <trkpt lat="45.18188" lon="5.96672">
        <ele>2032.84</ele>
        <time>2023-08-10T11:15:07Z</time>
      </trkpt>
      <trkpt lat="45.1819" lon="5.96675">
        <ele>2031.4</ele>
        <time>2023-08-10T11:15:11Z</time>
      </trkpt>
      <trkpt lat="45.18196" lon="5.96682">
        <ele>2028.52</ele>
        <time>2023-08-10T11:15:25Z</time>
      </trkpt>
      <trkpt lat="45.18199" lon="5.96682">
        <ele>2028.04</ele>
        <time>2023-08-10T11:15:29Z</time>
      </trkpt>
      <trkpt lat="45.182" lon="5.96685">
        <ele>2027.56</ele>
        <time>2023-08-10T11:15:31Z</time>
      </trkpt>
      <trkpt lat="45.18204" lon="5.96691">
        <ele>2025.64</ele>
        <time>2023-08-10T11:15:44Z</time>
      </trkpt>
      <trkpt lat="45.18204" lon="5.96692">
        <ele>2024.67</ele>
        <time>2023-08-10T11:15:47Z</time>
      </trkpt>
      <trkpt lat="45.18209" lon="5.96697">
        <ele>2023.71</ele>
        <time>2023-08-10T11:15:55Z</time>
      </trkpt>
      <trkpt lat="45.18214" lon="5.96701">
        <ele>2020.83</ele>
        <time>2023-08-10T11:16:07Z</time>
      </trkpt>
      <trkpt lat="45.1822" lon="5.96699">
        <ele>2018.91</ele>
        <time>2023-08-10T11:16:19Z</time>
      </trkpt>
      <trkpt lat="45.18219" lon="5.96698">
        <ele>2018.91</ele>
        <time>2023-08-10T11:16:24Z</time>
      </trkpt>
      <trkpt lat="45.18221" lon="5.96694">
        <ele>2016.98</ele>
        <time>2023-08-10T11:16:34Z</time>
      </trkpt>
      <trkpt lat="45.18225" lon="5.96696">
        <ele>2015.06</ele>
        <time>2023-08-10T11:16:44Z</time>
      </trkpt>
      <trkpt lat="45.18226" lon="5.96692">
        <ele>2013.62</ele>
        <time>2023-08-10T11:16:55Z</time>
      </trkpt>
      <trkpt lat="45.18228" lon="5.96692">
        <ele>2011.22</ele>
        <time>2023-08-10T11:17:06Z</time>
      </trkpt>
      <trkpt lat="45.18231" lon="5.96701">
        <ele>2008.81</ele>
        <time>2023-08-10T11:17:16Z</time>
      </trkpt>
      <trkpt lat="45.18231" lon="5.96701">
        <ele>2008.81</ele>
        <time>2023-08-10T11:17:17Z</time>
      </trkpt>
      <trkpt lat="45.18235" lon="5.96705">
        <ele>2006.89</ele>
        <time>2023-08-10T11:17:24Z</time>
      </trkpt>
      <trkpt lat="45.18238" lon="5.96711">
        <ele>2005.45</ele>
        <time>2023-08-10T11:17:32Z</time>
      </trkpt>
      <trkpt lat="45.18246" lon="5.96718">
        <ele>2002.56</ele>
        <time>2023-08-10T11:17:42Z</time>
      </trkpt>
      <trkpt lat="45.18249" lon="5.96717">
        <ele>2001.12</ele>
        <time>2023-08-10T11:17:52Z</time>
      </trkpt>
      <trkpt lat="45.18253" lon="5.96716">
        <ele>1999.2</ele>
        <time>2023-08-10T11:18:03Z</time>
      </trkpt>
      <trkpt lat="45.18254" lon="5.96713">
        <ele>1998.72</ele>
        <time>2023-08-10T11:18:12Z</time>
      </trkpt>
      <trkpt lat="45.18255" lon="5.96709">
        <ele>1997.28</ele>
        <time>2023-08-10T11:18:22Z</time>
      </trkpt>
      <trkpt lat="45.18258" lon="5.9671">
        <ele>1995.35</ele>
        <time>2023-08-10T11:18:32Z</time>
      </trkpt>
      <trkpt lat="45.18264" lon="5.96708">
        <ele>1993.91</ele>
        <time>2023-08-10T11:18:42Z</time>
      </trkpt>
      <trkpt lat="45.18262" lon="5.96701">
        <ele>1992.47</ele>
        <time>2023-08-10T11:18:50Z</time>
      </trkpt>
      <trkpt lat="45.18262" lon="5.96698">
        <ele>1990.55</ele>
        <time>2023-08-10T11:19:01Z</time>
      </trkpt>
      <trkpt lat="45.18263" lon="5.96694">
        <ele>1988.62</ele>
        <time>2023-08-10T11:19:14Z</time>
      </trkpt>
      <trkpt lat="45.18263" lon="5.96691">
        <ele>1987.66</ele>
        <time>2023-08-10T11:19:21Z</time>
      </trkpt>
      <trkpt lat="45.18261" lon="5.96686">
        <ele>1985.74</ele>
        <time>2023-08-10T11:19:33Z</time>
      </trkpt>
      <trkpt lat="45.18263" lon="5.96683">
        <ele>1983.82</ele>
        <time>2023-08-10T11:19:42Z</time>
      </trkpt>
      <trkpt lat="45.1826" lon="5.96679">
        <ele>1982.86</ele>
        <time>2023-08-10T11:19:55Z</time>
      </trkpt>
      <trkpt lat="45.18259" lon="5.96677">
        <ele>1981.41</ele>
        <time>2023-08-10T11:20:05Z</time>
      </trkpt>
      <trkpt lat="45.18257" lon="5.96671">
        <ele>1979.97</ele>
        <time>2023-08-10T11:20:16Z</time>
      </trkpt>
      <trkpt lat="45.18259" lon="5.96669">
        <ele>1979.49</ele>
        <time>2023-08-10T11:20:20Z</time>
      </trkpt>
      <trkpt lat="45.18259" lon="5.96664">
        <ele>1978.53</ele>
        <time>2023-08-10T11:20:25Z</time>
      </trkpt>
      <trkpt lat="45.18258" lon="5.96659">
        <ele>1977.09</ele>
        <time>2023-08-10T11:20:32Z</time>
      </trkpt>
      <trkpt lat="45.18254" lon="5.96656">
        <ele>1976.13</ele>
        <time>2023-08-10T11:20:38Z</time>
      </trkpt>
      <trkpt lat="45.18256" lon="5.96656">
        <ele>1974.2</ele>
        <time>2023-08-10T11:20:47Z</time>
      </trkpt>
      <trkpt lat="45.18257" lon="5.96654">
        <ele>1972.76</ele>
        <time>2023-08-10T11:20:56Z</time>
      </trkpt>
      <trkpt lat="45.18256" lon="5.96651">
        <ele>1972.28</ele>
        <time>2023-08-10T11:21:00Z</time>
      </trkpt>
      <trkpt lat="45.18256" lon="5.96645">
        <ele>1970.36</ele>
        <time>2023-08-10T11:21:08Z</time>
      </trkpt>
      <trkpt lat="45.18255" lon="5.96641">
        <ele>1969.4</ele>
        <time>2023-08-10T11:21:14Z</time>
      </trkpt>
      <trkpt lat="45.18252" lon="5.96635">
        <ele>1967.48</ele>
        <time>2023-08-10T11:21:24Z</time>
      </trkpt>
      <trkpt lat="45.18253" lon="5.96632">
        <ele>1966.51</ele>
        <time>2023-08-10T11:21:29Z</time>
      </trkpt>
      <trkpt lat="45.18256" lon="5.96629">
        <ele>1965.07</ele>
        <time>2023-08-10T11:21:37Z</time>
      </trkpt>
      <trkpt lat="45.18255" lon="5.96622">
        <ele>1963.15</ele>
        <time>2023-08-10T11:21:46Z</time>
      </trkpt>
      <trkpt lat="45.18257" lon="5.96622">
        <ele>1961.23</ele>
        <time>2023-08-10T11:21:55Z</time>
      </trkpt>
      <trkpt lat="45.18259" lon="5.96623">
        <ele>1960.27</ele>
        <time>2023-08-10T11:21:58Z</time>
      </trkpt>
      <trkpt lat="45.18261" lon="5.96625">
        <ele>1958.82</ele>
        <time>2023-08-10T11:22:06Z</time>
      </trkpt>
      <trkpt lat="45.18267" lon="5.96623">
        <ele>1956.9</ele>
        <time>2023-08-10T11:22:15Z</time>
      </trkpt>
      <trkpt lat="45.18271" lon="5.96622">
        <ele>1955.46</ele>
        <time>2023-08-10T11:22:21Z</time>
      </trkpt>
      <trkpt lat="45.18274" lon="5.96622">
        <ele>1954.98</ele>
        <time>2023-08-10T11:22:25Z</time>
      </trkpt>
      <trkpt lat="45.18275" lon="5.96622">
        <ele>1954.98</ele>
        <time>2023-08-10T11:22:26Z</time>
      </trkpt>
      <trkpt lat="45.18285" lon="5.96624">
        <ele>1953.54</ele>
        <time>2023-08-10T11:22:38Z</time>
      </trkpt>
      <trkpt lat="45.18291" lon="5.96623">
        <ele>1951.13</ele>
        <time>2023-08-10T11:22:51Z</time>
      </trkpt>
      <trkpt lat="45.18297" lon="5.96624">
        <ele>1949.69</ele>
        <time>2023-08-10T11:23:00Z</time>
      </trkpt>
      <trkpt lat="45.18301" lon="5.96624">
        <ele>1948.73</ele>
        <time>2023-08-10T11:23:03Z</time>
      </trkpt>
      <trkpt lat="45.18306" lon="5.96633">
        <ele>1947.29</ele>
        <time>2023-08-10T11:23:15Z</time>
      </trkpt>
      <trkpt lat="45.1831" lon="5.96638">
        <ele>1946.33</ele>
        <time>2023-08-10T11:23:20Z</time>
      </trkpt>
      <trkpt lat="45.18316" lon="5.96646">
        <ele>1945.85</ele>
        <time>2023-08-10T11:23:29Z</time>
      </trkpt>
      <trkpt lat="45.18317" lon="5.96647">
        <ele>1944.88</ele>
        <time>2023-08-10T11:23:30Z</time>
      </trkpt>
      <trkpt lat="45.18323" lon="5.96655">
        <ele>1943.44</ele>
        <time>2023-08-10T11:23:42Z</time>
      </trkpt>
      <trkpt lat="45.18328" lon="5.96663">
        <ele>1940.56</ele>
        <time>2023-08-10T11:23:54Z</time>
      </trkpt>
      <trkpt lat="45.18334" lon="5.96666">
        <ele>1940.08</ele>
        <time>2023-08-10T11:24:05Z</time>
      </trkpt>
      <trkpt lat="45.18336" lon="5.96667">
        <ele>1939.6</ele>
        <time>2023-08-10T11:24:08Z</time>
      </trkpt>
      <trkpt lat="45.18337" lon="5.96668">
        <ele>1939.12</ele>
        <time>2023-08-10T11:24:09Z</time>
      </trkpt>
      <trkpt lat="45.18349" lon="5.96674">
        <ele>1937.19</ele>
        <time>2023-08-10T11:24:22Z</time>
      </trkpt>
      <trkpt lat="45.18352" lon="5.96676">
        <ele>1937.19</ele>
        <time>2023-08-10T11:24:33Z</time>
      </trkpt>
      <trkpt lat="45.18358" lon="5.96676">
        <ele>1935.75</ele>
        <time>2023-08-10T11:24:43Z</time>
      </trkpt>
      <trkpt lat="45.18366" lon="5.96682">
        <ele>1934.31</ele>
        <time>2023-08-10T11:24:53Z</time>
      </trkpt>
      <trkpt lat="45.18369" lon="5.96684">
        <ele>1933.83</ele>
        <time>2023-08-10T11:24:57Z</time>
      </trkpt>
      <trkpt lat="45.18377" lon="5.96684">
        <ele>1932.39</ele>
        <time>2023-08-10T11:25:06Z</time>
      </trkpt>
      <trkpt lat="45.18383" lon="5.96683">
        <ele>1929.5</ele>
        <time>2023-08-10T11:25:18Z</time>
      </trkpt>
      <trkpt lat="45.18383" lon="5.96682">
        <ele>1929.5</ele>
        <time>2023-08-10T11:25:19Z</time>
      </trkpt>
      <trkpt lat="45.18385" lon="5.96682">
        <ele>1929.02</ele>
        <time>2023-08-10T11:25:20Z</time>
      </trkpt>
      <trkpt lat="45.18389" lon="5.96684">
        <ele>1927.58</ele>
        <time>2023-08-10T11:25:28Z</time>
      </trkpt>
      <trkpt lat="45.18393" lon="5.96684">
        <ele>1926.62</ele>
        <time>2023-08-10T11:25:33Z</time>
      </trkpt>
      <trkpt lat="45.18394" lon="5.96684">
        <ele>1926.14</ele>
        <time>2023-08-10T11:25:34Z</time>
      </trkpt>
      <trkpt lat="45.18399" lon="5.96687">
        <ele>1924.7</ele>
        <time>2023-08-10T11:25:45Z</time>
      </trkpt>
      <trkpt lat="45.18401" lon="5.96688">
        <ele>1921.81</ele>
        <time>2023-08-10T11:25:56Z</time>
      </trkpt>
      <trkpt lat="45.18404" lon="5.96692">
        <ele>1920.37</ele>
        <time>2023-08-10T11:26:04Z</time>
      </trkpt>
      <trkpt lat="45.18404" lon="5.96694">
        <ele>1920.37</ele>
        <time>2023-08-10T11:26:05Z</time>
      </trkpt>
      <trkpt lat="45.18403" lon="5.96698">
        <ele>1919.41</ele>
        <time>2023-08-10T11:26:10Z</time>
      </trkpt>
      <trkpt lat="45.18403" lon="5.96699">
        <ele>1919.41</ele>
        <time>2023-08-10T11:26:11Z</time>
      </trkpt>
      <trkpt lat="45.18404" lon="5.96705">
        <ele>1918.45</ele>
        <time>2023-08-10T11:26:17Z</time>
      </trkpt>
      <trkpt lat="45.18405" lon="5.96712">
        <ele>1918.45</ele>
        <time>2023-08-10T11:26:26Z</time>
      </trkpt>
      <trkpt lat="45.18406" lon="5.96713">
        <ele>1918.45</ele>
        <time>2023-08-10T11:26:28Z</time>
      </trkpt>
      <trkpt lat="45.18408" lon="5.96714">
        <ele>1918.45</ele>
        <time>2023-08-10T11:26:29Z</time>
      </trkpt>
      <trkpt lat="45.18409" lon="5.96714">
        <ele>1918.45</ele>
        <time>2023-08-10T11:26:30Z</time>
      </trkpt>
      <trkpt lat="45.18417" lon="5.9671">
        <ele>1917.97</ele>
        <time>2023-08-10T11:26:41Z</time>
      </trkpt>
      <trkpt lat="45.1842" lon="5.96703">
        <ele>1916.04</ele>
        <time>2023-08-10T11:26:53Z</time>
      </trkpt>
      <trkpt lat="45.1842" lon="5.96704">
        <ele>1915.08</ele>
        <time>2023-08-10T11:26:57Z</time>
      </trkpt>
      <trkpt lat="45.18423" lon="5.967">
        <ele>1913.16</ele>
        <time>2023-08-10T11:27:06Z</time>
      </trkpt>
      <trkpt lat="45.18426" lon="5.96701">
        <ele>1912.2</ele>
        <time>2023-08-10T11:27:11Z</time>
      </trkpt>
      <trkpt lat="45.18436" lon="5.96705">
        <ele>1910.28</ele>
        <time>2023-08-10T11:27:24Z</time>
      </trkpt>
      <trkpt lat="45.18441" lon="5.96704">
        <ele>1907.39</ele>
        <time>2023-08-10T11:27:36Z</time>
      </trkpt>
      <trkpt lat="45.18441" lon="5.96704">
        <ele>1907.39</ele>
        <time>2023-08-10T11:27:37Z</time>
      </trkpt>
      <trkpt lat="45.18442" lon="5.96703">
        <ele>1907.39</ele>
        <time>2023-08-10T11:27:39Z</time>
      </trkpt>
      <trkpt lat="45.18444" lon="5.96702">
        <ele>1905.47</ele>
        <time>2023-08-10T11:27:48Z</time>
      </trkpt>
      <trkpt lat="45.18446" lon="5.96703">
        <ele>1905.47</ele>
        <time>2023-08-10T11:27:49Z</time>
      </trkpt>
      <trkpt lat="45.18451" lon="5.967">
        <ele>1903.07</ele>
        <time>2023-08-10T11:27:59Z</time>
      </trkpt>
      <trkpt lat="45.18455" lon="5.96696">
        <ele>1901.63</ele>
        <time>2023-08-10T11:28:08Z</time>
      </trkpt>
      <trkpt lat="45.18458" lon="5.96694">
        <ele>1900.66</ele>
        <time>2023-08-10T11:28:13Z</time>
      </trkpt>
      <trkpt lat="45.18463" lon="5.96695">
        <ele>1899.22</ele>
        <time>2023-08-10T11:28:20Z</time>
      </trkpt>
      <trkpt lat="45.18464" lon="5.96694">
        <ele>1899.22</ele>
        <time>2023-08-10T11:28:21Z</time>
      </trkpt>
      <trkpt lat="45.18466" lon="5.96693">
        <ele>1898.74</ele>
        <time>2023-08-10T11:28:24Z</time>
      </trkpt>
      <trkpt lat="45.18473" lon="5.96691">
        <ele>1897.78</ele>
        <time>2023-08-10T11:28:33Z</time>
      </trkpt>
      <trkpt lat="45.1848" lon="5.96692">
        <ele>1897.3</ele>
        <time>2023-08-10T11:28:38Z</time>
      </trkpt>
      <trkpt lat="45.18482" lon="5.96691">
        <ele>1896.82</ele>
        <time>2023-08-10T11:28:39Z</time>
      </trkpt>
      <trkpt lat="45.18491" lon="5.96691">
        <ele>1896.34</ele>
        <time>2023-08-10T11:28:51Z</time>
      </trkpt>
      <trkpt lat="45.18498" lon="5.96689">
        <ele>1895.86</ele>
        <time>2023-08-10T11:29:02Z</time>
      </trkpt>
      <trkpt lat="45.18499" lon="5.9669">
        <ele>1895.86</ele>
        <time>2023-08-10T11:29:03Z</time>
      </trkpt>
      <trkpt lat="45.18499" lon="5.96691">
        <ele>1895.86</ele>
        <time>2023-08-10T11:29:04Z</time>
      </trkpt>
      <trkpt lat="45.185" lon="5.96692">
        <ele>1895.86</ele>
        <time>2023-08-10T11:29:05Z</time>
      </trkpt>
      <trkpt lat="45.18503" lon="5.96687">
        <ele>1894.42</ele>
        <time>2023-08-10T11:29:14Z</time>
      </trkpt>
      <trkpt lat="45.18505" lon="5.96683">
        <ele>1892.01</ele>
        <time>2023-08-10T11:29:23Z</time>
      </trkpt>
      <trkpt lat="45.18508" lon="5.96681">
        <ele>1890.09</ele>
        <time>2023-08-10T11:29:34Z</time>
      </trkpt>
      <trkpt lat="45.18515" lon="5.96685">
        <ele>1889.13</ele>
        <time>2023-08-10T11:29:42Z</time>
      </trkpt>
      <trkpt lat="45.18516" lon="5.96685">
        <ele>1888.65</ele>
        <time>2023-08-10T11:29:43Z</time>
      </trkpt>
      <trkpt lat="45.18517" lon="5.96686">
        <ele>1888.65</ele>
        <time>2023-08-10T11:29:44Z</time>
      </trkpt>
      <trkpt lat="45.18523" lon="5.96688">
        <ele>1889.13</ele>
        <time>2023-08-10T11:29:50Z</time>
      </trkpt>
      <trkpt lat="45.18526" lon="5.96686">
        <ele>1890.57</ele>
        <time>2023-08-10T11:29:57Z</time>
      </trkpt>
      <trkpt lat="45.18529" lon="5.96686">
        <ele>1891.05</ele>
        <time>2023-08-10T11:30:07Z</time>
      </trkpt>
      <trkpt lat="45.1853" lon="5.96686">
        <ele>1891.53</ele>
        <time>2023-08-10T11:30:10Z</time>
      </trkpt>
      <trkpt lat="45.18531" lon="5.96688">
        <ele>1891.53</ele>
        <time>2023-08-10T11:30:12Z</time>
      </trkpt>
      <trkpt lat="45.18535" lon="5.96687">
        <ele>1892.49</ele>
        <time>2023-08-10T11:30:18Z</time>
      </trkpt>
      <trkpt lat="45.18539" lon="5.96684">
        <ele>1892.97</ele>
        <time>2023-08-10T11:30:25Z</time>
      </trkpt>
      <trkpt lat="45.18544" lon="5.96686">
        <ele>1893.45</ele>
        <time>2023-08-10T11:30:34Z</time>
      </trkpt>
      <trkpt lat="45.18545" lon="5.96687">
        <ele>1893.45</ele>
        <time>2023-08-10T11:30:35Z</time>
      </trkpt>
      <trkpt lat="45.18549" lon="5.9669">
        <ele>1894.9</ele>
        <time>2023-08-10T11:30:46Z</time>
      </trkpt>
      <trkpt lat="45.18555" lon="5.96695">
        <ele>1896.34</ele>
        <time>2023-08-10T11:30:58Z</time>
      </trkpt>
      <trkpt lat="45.18561" lon="5.96692">
        <ele>1896.82</ele>
        <time>2023-08-10T11:31:10Z</time>
      </trkpt>
      <trkpt lat="45.18563" lon="5.96692">
        <ele>1897.3</ele>
        <time>2023-08-10T11:31:12Z</time>
      </trkpt>
      <trkpt lat="45.1857" lon="5.96696">
        <ele>1898.74</ele>
        <time>2023-08-10T11:31:24Z</time>
      </trkpt>
      <trkpt lat="45.18575" lon="5.96694">
        <ele>1900.18</ele>
        <time>2023-08-10T11:31:35Z</time>
      </trkpt>
      <trkpt lat="45.18575" lon="5.96692">
        <ele>1901.63</ele>
        <time>2023-08-10T11:31:47Z</time>
      </trkpt>
      <trkpt lat="45.18579" lon="5.96688">
        <ele>1899.7</ele>
        <time>2023-08-10T11:31:59Z</time>
      </trkpt>
      <trkpt lat="45.18581" lon="5.9668">
        <ele>1899.7</ele>
        <time>2023-08-10T11:32:10Z</time>
      </trkpt>
      <trkpt lat="45.18582" lon="5.96676">
        <ele>1899.7</ele>
        <time>2023-08-10T11:32:13Z</time>
      </trkpt>
      <trkpt lat="45.18591" lon="5.96676">
        <ele>1899.7</ele>
        <time>2023-08-10T11:32:23Z</time>
      </trkpt>
      <trkpt lat="45.18595" lon="5.96676">
        <ele>1901.14</ele>
        <time>2023-08-10T11:32:28Z</time>
      </trkpt>
      <trkpt lat="45.18599" lon="5.96672">
        <ele>1902.11</ele>
        <time>2023-08-10T11:32:41Z</time>
      </trkpt>
      <trkpt lat="45.18602" lon="5.96669">
        <ele>1900.18</ele>
        <time>2023-08-10T11:32:52Z</time>
      </trkpt>
      <trkpt lat="45.18606" lon="5.96668">
        <ele>1898.26</ele>
        <time>2023-08-10T11:33:03Z</time>
      </trkpt>
      <trkpt lat="45.18612" lon="5.96665">
        <ele>1897.78</ele>
        <time>2023-08-10T11:33:13Z</time>
      </trkpt>
      <trkpt lat="45.18616" lon="5.96666">
        <ele>1897.78</ele>
        <time>2023-08-10T11:33:17Z</time>
      </trkpt>
      <trkpt lat="45.18617" lon="5.96667">
        <ele>1897.78</ele>
        <time>2023-08-10T11:33:18Z</time>
      </trkpt>
      <trkpt lat="45.18619" lon="5.96667">
        <ele>1899.22</ele>
        <time>2023-08-10T11:33:23Z</time>
      </trkpt>
      <trkpt lat="45.18625" lon="5.9667">
        <ele>1899.7</ele>
        <time>2023-08-10T11:33:34Z</time>
      </trkpt>
      <trkpt lat="45.18626" lon="5.9667">
        <ele>1900.66</ele>
        <time>2023-08-10T11:33:35Z</time>
      </trkpt>
      <trkpt lat="45.18629" lon="5.96673">
        <ele>1901.14</ele>
        <time>2023-08-10T11:33:44Z</time>
      </trkpt>
      <trkpt lat="45.18632" lon="5.96674">
        <ele>1901.63</ele>
        <time>2023-08-10T11:33:56Z</time>
      </trkpt>
      <trkpt lat="45.1864" lon="5.9667">
        <ele>1903.55</ele>
        <time>2023-08-10T11:34:10Z</time>
      </trkpt>
      <trkpt lat="45.18647" lon="5.96667">
        <ele>1906.43</ele>
        <time>2023-08-10T11:34:30Z</time>
      </trkpt>
      <trkpt lat="45.18652" lon="5.96665">
        <ele>1908.83</ele>
        <time>2023-08-10T11:34:47Z</time>
      </trkpt>
      <trkpt lat="45.18656" lon="5.96662">
        <ele>1910.28</ele>
        <time>2023-08-10T11:35:00Z</time>
      </trkpt>
      <trkpt lat="45.18662" lon="5.9666">
        <ele>1911.72</ele>
        <time>2023-08-10T11:35:12Z</time>
      </trkpt>
      <trkpt lat="45.18667" lon="5.96665">
        <ele>1913.64</ele>
        <time>2023-08-10T11:35:25Z</time>
      </trkpt>
      <trkpt lat="45.18671" lon="5.9666">
        <ele>1915.56</ele>
        <time>2023-08-10T11:35:40Z</time>
      </trkpt>
      <trkpt lat="45.18673" lon="5.96657">
        <ele>1916.53</ele>
        <time>2023-08-10T11:35:50Z</time>
      </trkpt>
      <trkpt lat="45.1868" lon="5.96659">
        <ele>1918.45</ele>
        <time>2023-08-10T11:36:03Z</time>
      </trkpt>
      <trkpt lat="45.18687" lon="5.96658">
        <ele>1919.89</ele>
        <time>2023-08-10T11:36:14Z</time>
      </trkpt>
      <trkpt lat="45.1869" lon="5.96658">
        <ele>1921.33</ele>
        <time>2023-08-10T11:36:25Z</time>
      </trkpt>
      <trkpt lat="45.18693" lon="5.96653">
        <ele>1922.77</ele>
        <time>2023-08-10T11:36:36Z</time>
      </trkpt>
      <trkpt lat="45.18696" lon="5.9665">
        <ele>1923.25</ele>
        <time>2023-08-10T11:36:47Z</time>
      </trkpt>
      <trkpt lat="45.18703" lon="5.96649">
        <ele>1924.7</ele>
        <time>2023-08-10T11:36:58Z</time>
      </trkpt>
      <trkpt lat="45.18704" lon="5.96648">
        <ele>1924.7</ele>
        <time>2023-08-10T11:37:02Z</time>
      </trkpt>
      <trkpt lat="45.18707" lon="5.96649">
        <ele>1925.18</ele>
        <time>2023-08-10T11:37:05Z</time>
      </trkpt>
      <trkpt lat="45.18708" lon="5.96648">
        <ele>1925.18</ele>
        <time>2023-08-10T11:37:07Z</time>
      </trkpt>
      <trkpt lat="45.18708" lon="5.96647">
        <ele>1925.18</ele>
        <time>2023-08-10T11:37:08Z</time>
      </trkpt>
      <trkpt lat="45.18709" lon="5.96648">
        <ele>1925.18</ele>
        <time>2023-08-10T11:37:09Z</time>
      </trkpt>
      <trkpt lat="45.18712" lon="5.96647">
        <ele>1926.14</ele>
        <time>2023-08-10T11:37:18Z</time>
      </trkpt>
      <trkpt lat="45.18718" lon="5.96642">
        <ele>1927.1</ele>
        <time>2023-08-10T11:37:28Z</time>
      </trkpt>
      <trkpt lat="45.18722" lon="5.96635">
        <ele>1927.1</ele>
        <time>2023-08-10T11:37:38Z</time>
      </trkpt>
      <trkpt lat="45.18729" lon="5.96636">
        <ele>1928.54</ele>
        <time>2023-08-10T11:37:52Z</time>
      </trkpt>
      <trkpt lat="45.18733" lon="5.96633">
        <ele>1929.98</ele>
        <time>2023-08-10T11:38:03Z</time>
      </trkpt>
      <trkpt lat="45.1874" lon="5.96631">
        <ele>1930.46</ele>
        <time>2023-08-10T11:38:13Z</time>
      </trkpt>
      <trkpt lat="45.18747" lon="5.96628">
        <ele>1930.46</ele>
        <time>2023-08-10T11:38:24Z</time>
      </trkpt>
      <trkpt lat="45.18751" lon="5.9662">
        <ele>1930.95</ele>
        <time>2023-08-10T11:38:34Z</time>
      </trkpt>
      <trkpt lat="45.18755" lon="5.96617">
        <ele>1932.39</ele>
        <time>2023-08-10T11:38:46Z</time>
      </trkpt>
      <trkpt lat="45.18757" lon="5.96613">
        <ele>1933.35</ele>
        <time>2023-08-10T11:38:57Z</time>
      </trkpt>
      <trkpt lat="45.18759" lon="5.96613">
        <ele>1934.79</ele>
        <time>2023-08-10T11:39:08Z</time>
      </trkpt>
      <trkpt lat="45.18766" lon="5.96614">
        <ele>1935.75</ele>
        <time>2023-08-10T11:39:25Z</time>
      </trkpt>
      <trkpt lat="45.18771" lon="5.96617">
        <ele>1937.19</ele>
        <time>2023-08-10T11:39:36Z</time>
      </trkpt>
      <trkpt lat="45.18777" lon="5.96617">
        <ele>1939.12</ele>
        <time>2023-08-10T11:39:50Z</time>
      </trkpt>
      <trkpt lat="45.18782" lon="5.96618">
        <ele>1939.6</ele>
        <time>2023-08-10T11:39:57Z</time>
      </trkpt>
      <trkpt lat="45.18787" lon="5.9662">
        <ele>1940.56</ele>
        <time>2023-08-10T11:40:08Z</time>
      </trkpt>
      <trkpt lat="45.1879" lon="5.96623">
        <ele>1941.52</ele>
        <time>2023-08-10T11:40:21Z</time>
      </trkpt>
      <trkpt lat="45.18798" lon="5.96618">
        <ele>1942.96</ele>
        <time>2023-08-10T11:40:33Z</time>
      </trkpt>
      <trkpt lat="45.18808" lon="5.96618">
        <ele>1944.4</ele>
        <time>2023-08-10T11:40:48Z</time>
      </trkpt>
      <trkpt lat="45.18812" lon="5.96626">
        <ele>1944.4</ele>
        <time>2023-08-10T11:41:00Z</time>
      </trkpt>
      <trkpt lat="45.18814" lon="5.96644">
        <ele>1942.96</ele>
        <time>2023-08-10T11:41:14Z</time>
      </trkpt>
      <trkpt lat="45.18818" lon="5.96657">
        <ele>1942.48</ele>
        <time>2023-08-10T11:41:26Z</time>
      </trkpt>
      <trkpt lat="45.18822" lon="5.96666">
        <ele>1942.48</ele>
        <time>2023-08-10T11:41:32Z</time>
      </trkpt>
      <trkpt lat="45.18823" lon="5.96667">
        <ele>1942.48</ele>
        <time>2023-08-10T11:41:33Z</time>
      </trkpt>
      <trkpt lat="45.18827" lon="5.96679">
        <ele>1942.48</ele>
        <time>2023-08-10T11:41:44Z</time>
      </trkpt>
      <trkpt lat="45.1883" lon="5.96688">
        <ele>1942</ele>
        <time>2023-08-10T11:41:53Z</time>
      </trkpt>
      <trkpt lat="45.18831" lon="5.96689">
        <ele>1942</ele>
        <time>2023-08-10T11:41:54Z</time>
      </trkpt>
      <trkpt lat="45.18832" lon="5.96692">
        <ele>1942</ele>
        <time>2023-08-10T11:41:56Z</time>
      </trkpt>
      <trkpt lat="45.18833" lon="5.96698">
        <ele>1942</ele>
        <time>2023-08-10T11:42:01Z</time>
      </trkpt>
      <trkpt lat="45.18833" lon="5.967">
        <ele>1942</ele>
        <time>2023-08-10T11:42:02Z</time>
      </trkpt>
      <trkpt lat="45.18834" lon="5.96702">
        <ele>1942</ele>
        <time>2023-08-10T11:42:03Z</time>
      </trkpt>
      <trkpt lat="45.18836" lon="5.96714">
        <ele>1940.56</ele>
        <time>2023-08-10T11:42:12Z</time>
      </trkpt>
      <trkpt lat="45.18837" lon="5.9672">
        <ele>1940.08</ele>
        <time>2023-08-10T11:42:17Z</time>
      </trkpt>
      <trkpt lat="45.18839" lon="5.96729">
        <ele>1940.08</ele>
        <time>2023-08-10T11:42:23Z</time>
      </trkpt>
      <trkpt lat="45.18844" lon="5.96743">
        <ele>1939.6</ele>
        <time>2023-08-10T11:42:34Z</time>
      </trkpt>
      <trkpt lat="45.18846" lon="5.96754">
        <ele>1939.6</ele>
        <time>2023-08-10T11:42:45Z</time>
      </trkpt>
      <trkpt lat="45.18847" lon="5.96764">
        <ele>1940.56</ele>
        <time>2023-08-10T11:42:55Z</time>
      </trkpt>
      <trkpt lat="45.1885" lon="5.96774">
        <ele>1942</ele>
        <time>2023-08-10T11:43:04Z</time>
      </trkpt>
      <trkpt lat="45.18854" lon="5.96785">
        <ele>1942</ele>
        <time>2023-08-10T11:43:14Z</time>
      </trkpt>
      <trkpt lat="45.18862" lon="5.96797">
        <ele>1942.48</ele>
        <time>2023-08-10T11:43:29Z</time>
      </trkpt>
      <trkpt lat="45.18869" lon="5.96797">
        <ele>1943.92</ele>
        <time>2023-08-10T11:43:42Z</time>
      </trkpt>
      <trkpt lat="45.18871" lon="5.96797">
        <ele>1943.92</ele>
        <time>2023-08-10T11:43:43Z</time>
      </trkpt>
      <trkpt lat="45.18877" lon="5.96797">
        <ele>1944.88</ele>
        <time>2023-08-10T11:43:55Z</time>
      </trkpt>
      <trkpt lat="45.18885" lon="5.96801">
        <ele>1946.33</ele>
        <time>2023-08-10T11:44:09Z</time>
      </trkpt>
      <trkpt lat="45.18887" lon="5.96801">
        <ele>1946.81</ele>
        <time>2023-08-10T11:44:11Z</time>
      </trkpt>
      <trkpt lat="45.18894" lon="5.96802">
        <ele>1946.81</ele>
        <time>2023-08-10T11:44:18Z</time>
      </trkpt>
      <trkpt lat="45.18903" lon="5.96806">
        <ele>1946.81</ele>
        <time>2023-08-10T11:44:29Z</time>
      </trkpt>
      <trkpt lat="45.18908" lon="5.96805">
        <ele>1947.29</ele>
        <time>2023-08-10T11:44:38Z</time>
      </trkpt>
      <trkpt lat="45.18917" lon="5.96804">
        <ele>1948.73</ele>
        <time>2023-08-10T11:44:51Z</time>
      </trkpt>
      <trkpt lat="45.18929" lon="5.96807">
        <ele>1950.17</ele>
        <time>2023-08-10T11:45:05Z</time>
      </trkpt>
      <trkpt lat="45.18939" lon="5.96815">
        <ele>1950.17</ele>
        <time>2023-08-10T11:45:18Z</time>
      </trkpt>
      <trkpt lat="45.1894" lon="5.96816">
        <ele>1950.17</ele>
        <time>2023-08-10T11:45:19Z</time>
      </trkpt>
      <trkpt lat="45.18941" lon="5.96817">
        <ele>1950.17</ele>
        <time>2023-08-10T11:45:20Z</time>
      </trkpt>
      <trkpt lat="45.18944" lon="5.96819">
        <ele>1950.17</ele>
        <time>2023-08-10T11:45:23Z</time>
      </trkpt>
      <trkpt lat="45.18944" lon="5.96819">
        <ele>1950.17</ele>
        <time>2023-08-10T11:45:24Z</time>
      </trkpt>
      <trkpt lat="45.18952" lon="5.96822">
        <ele>1950.17</ele>
        <time>2023-08-10T11:45:36Z</time>
      </trkpt>
      <trkpt lat="45.18961" lon="5.96828">
        <ele>1950.17</ele>
        <time>2023-08-10T11:45:50Z</time>
      </trkpt>
      <trkpt lat="45.18965" lon="5.96831">
        <ele>1950.17</ele>
        <time>2023-08-10T11:45:55Z</time>
      </trkpt>
      <trkpt lat="45.18968" lon="5.96833">
        <ele>1950.65</ele>
        <time>2023-08-10T11:45:58Z</time>
      </trkpt>
      <trkpt lat="45.18979" lon="5.96841">
        <ele>1951.13</ele>
        <time>2023-08-10T11:46:11Z</time>
      </trkpt>
      <trkpt lat="45.18992" lon="5.96847">
        <ele>1950.65</ele>
        <time>2023-08-10T11:46:25Z</time>
      </trkpt>
      <trkpt lat="45.18995" lon="5.96849">
        <ele>1950.65</ele>
        <time>2023-08-10T11:46:28Z</time>
      </trkpt>
      <trkpt lat="45.19002" lon="5.96862">
        <ele>1948.73</ele>
        <time>2023-08-10T11:46:40Z</time>
      </trkpt>
      <trkpt lat="45.1901" lon="5.96875">
        <ele>1950.17</ele>
        <time>2023-08-10T11:46:55Z</time>
      </trkpt>
      <trkpt lat="45.19021" lon="5.96884">
        <ele>1950.17</ele>
        <time>2023-08-10T11:47:10Z</time>
      </trkpt>
      <trkpt lat="45.19028" lon="5.96888">
        <ele>1950.17</ele>
        <time>2023-08-10T11:47:19Z</time>
      </trkpt>
      <trkpt lat="45.19035" lon="5.96896">
        <ele>1950.65</ele>
        <time>2023-08-10T11:47:29Z</time>
      </trkpt>
      <trkpt lat="45.19041" lon="5.96896">
        <ele>1951.13</ele>
        <time>2023-08-10T11:47:38Z</time>
      </trkpt>
      <trkpt lat="45.19043" lon="5.96896">
        <ele>1951.13</ele>
        <time>2023-08-10T11:47:40Z</time>
      </trkpt>
      <trkpt lat="45.19047" lon="5.96895">
        <ele>1951.13</ele>
        <time>2023-08-10T11:47:45Z</time>
      </trkpt>
      <trkpt lat="45.19049" lon="5.96896">
        <ele>1951.13</ele>
        <time>2023-08-10T11:47:47Z</time>
      </trkpt>
      <trkpt lat="45.19052" lon="5.96898">
        <ele>1949.69</ele>
        <time>2023-08-10T11:47:52Z</time>
      </trkpt>
      <trkpt lat="45.19061" lon="5.96897">
        <ele>1949.21</ele>
        <time>2023-08-10T11:48:04Z</time>
      </trkpt>
      <trkpt lat="45.19063" lon="5.96897">
        <ele>1949.21</ele>
        <time>2023-08-10T11:48:06Z</time>
      </trkpt>
      <trkpt lat="45.1907" lon="5.96892">
        <ele>1949.21</ele>
        <time>2023-08-10T11:48:15Z</time>
      </trkpt>
      <trkpt lat="45.19071" lon="5.9689">
        <ele>1950.65</ele>
        <time>2023-08-10T11:48:16Z</time>
      </trkpt>
      <trkpt lat="45.19072" lon="5.96889">
        <ele>1950.65</ele>
        <time>2023-08-10T11:48:17Z</time>
      </trkpt>
      <trkpt lat="45.19075" lon="5.96889">
        <ele>1950.65</ele>
        <time>2023-08-10T11:48:21Z</time>
      </trkpt>
      <trkpt lat="45.1908" lon="5.9689">
        <ele>1950.65</ele>
        <time>2023-08-10T11:48:27Z</time>
      </trkpt>
      <trkpt lat="45.19081" lon="5.9689">
        <ele>1950.65</ele>
        <time>2023-08-10T11:48:28Z</time>
      </trkpt>
      <trkpt lat="45.19083" lon="5.9689">
        <ele>1950.65</ele>
        <time>2023-08-10T11:48:29Z</time>
      </trkpt>
      <trkpt lat="45.19084" lon="5.9689">
        <ele>1950.65</ele>
        <time>2023-08-10T11:48:30Z</time>
      </trkpt>
      <trkpt lat="45.19097" lon="5.96885">
        <ele>1950.65</ele>
        <time>2023-08-10T11:48:43Z</time>
      </trkpt>
      <trkpt lat="45.1911" lon="5.96877">
        <ele>1950.17</ele>
        <time>2023-08-10T11:48:58Z</time>
      </trkpt>
      <trkpt lat="45.1912" lon="5.96872">
        <ele>1951.61</ele>
        <time>2023-08-10T11:49:12Z</time>
      </trkpt>
      <trkpt lat="45.19125" lon="5.96869">
        <ele>1952.09</ele>
        <time>2023-08-10T11:49:20Z</time>
      </trkpt>
      <trkpt lat="45.19136" lon="5.96863">
        <ele>1951.61</ele>
        <time>2023-08-10T11:49:34Z</time>
      </trkpt>
      <trkpt lat="45.19143" lon="5.96863">
        <ele>1952.57</ele>
        <time>2023-08-10T11:49:44Z</time>
      </trkpt>
      <trkpt lat="45.19147" lon="5.96863">
        <ele>1952.57</ele>
        <time>2023-08-10T11:49:47Z</time>
      </trkpt>
      <trkpt lat="45.19155" lon="5.96856">
        <ele>1952.09</ele>
        <time>2023-08-10T11:49:57Z</time>
      </trkpt>
      <trkpt lat="45.19157" lon="5.96855">
        <ele>1951.13</ele>
        <time>2023-08-10T11:49:59Z</time>
      </trkpt>
      <trkpt lat="45.19163" lon="5.96852">
        <ele>1950.65</ele>
        <time>2023-08-10T11:50:05Z</time>
      </trkpt>
      <trkpt lat="45.19164" lon="5.96851">
        <ele>1950.65</ele>
        <time>2023-08-10T11:50:06Z</time>
      </trkpt>
      <trkpt lat="45.19168" lon="5.9685">
        <ele>1950.65</ele>
        <time>2023-08-10T11:50:10Z</time>
      </trkpt>
      <trkpt lat="45.19169" lon="5.9685">
        <ele>1950.65</ele>
        <time>2023-08-10T11:50:11Z</time>
      </trkpt>
      <trkpt lat="45.19178" lon="5.96846">
        <ele>1950.17</ele>
        <time>2023-08-10T11:50:20Z</time>
      </trkpt>
      <trkpt lat="45.19179" lon="5.96847">
        <ele>1950.17</ele>
        <time>2023-08-10T11:50:21Z</time>
      </trkpt>
      <trkpt lat="45.19186" lon="5.96846">
        <ele>1948.73</ele>
        <time>2023-08-10T11:50:29Z</time>
      </trkpt>
      <trkpt lat="45.19198" lon="5.96848">
        <ele>1946.33</ele>
        <time>2023-08-10T11:50:40Z</time>
      </trkpt>
      <trkpt lat="45.19211" lon="5.96843">
        <ele>1945.85</ele>
        <time>2023-08-10T11:50:53Z</time>
      </trkpt>
      <trkpt lat="45.19217" lon="5.96843">
        <ele>1946.81</ele>
        <time>2023-08-10T11:51:01Z</time>
      </trkpt>
      <trkpt lat="45.19223" lon="5.96841">
        <ele>1947.77</ele>
        <time>2023-08-10T11:51:14Z</time>
      </trkpt>
      <trkpt lat="45.19232" lon="5.96831">
        <ele>1948.73</ele>
        <time>2023-08-10T11:51:29Z</time>
      </trkpt>
      <trkpt lat="45.19235" lon="5.96821">
        <ele>1949.69</ele>
        <time>2023-08-10T11:51:40Z</time>
      </trkpt>
      <trkpt lat="45.19238" lon="5.96807">
        <ele>1950.65</ele>
        <time>2023-08-10T11:51:53Z</time>
      </trkpt>
      <trkpt lat="45.1924" lon="5.96801">
        <ele>1951.13</ele>
        <time>2023-08-10T11:52:01Z</time>
      </trkpt>
      <trkpt lat="45.19239" lon="5.96793">
        <ele>1951.61</ele>
        <time>2023-08-10T11:52:06Z</time>
      </trkpt>
      <trkpt lat="45.19239" lon="5.96789">
        <ele>1951.13</ele>
        <time>2023-08-10T11:52:09Z</time>
      </trkpt>
      <trkpt lat="45.1924" lon="5.96776">
        <ele>1951.61</ele>
        <time>2023-08-10T11:52:20Z</time>
      </trkpt>
      <trkpt lat="45.19242" lon="5.96761">
        <ele>1952.09</ele>
        <time>2023-08-10T11:52:30Z</time>
      </trkpt>
      <trkpt lat="45.19247" lon="5.96749">
        <ele>1953.06</ele>
        <time>2023-08-10T11:52:42Z</time>
      </trkpt>
      <trkpt lat="45.19249" lon="5.96739">
        <ele>1954.02</ele>
        <time>2023-08-10T11:52:54Z</time>
      </trkpt>
      <trkpt lat="45.19251" lon="5.96729">
        <ele>1955.46</ele>
        <time>2023-08-10T11:53:10Z</time>
      </trkpt>
      <trkpt lat="45.19247" lon="5.96729">
        <ele>1951.13</ele>
        <time>2023-08-10T12:30:53Z</time>
      </trkpt>
      <trkpt lat="45.19244" lon="5.96731">
        <ele>1950.17</ele>
        <time>2023-08-10T12:31:05Z</time>
      </trkpt>
      <trkpt lat="45.19242" lon="5.96734">
        <ele>1949.69</ele>
        <time>2023-08-10T12:31:31Z</time>
      </trkpt>
      <trkpt lat="45.19242" lon="5.96744">
        <ele>1948.73</ele>
        <time>2023-08-10T12:31:55Z</time>
      </trkpt>
      <trkpt lat="45.19238" lon="5.96757">
        <ele>1948.25</ele>
        <time>2023-08-10T12:32:06Z</time>
      </trkpt>
      <trkpt lat="45.19238" lon="5.96759">
        <ele>1947.77</ele>
        <time>2023-08-10T12:32:07Z</time>
      </trkpt>
      <trkpt lat="45.19236" lon="5.96763">
        <ele>1947.77</ele>
        <time>2023-08-10T12:32:11Z</time>
      </trkpt>
      <trkpt lat="45.19235" lon="5.96764">
        <ele>1947.77</ele>
        <time>2023-08-10T12:32:12Z</time>
      </trkpt>
      <trkpt lat="45.19234" lon="5.96766">
        <ele>1947.77</ele>
        <time>2023-08-10T12:32:13Z</time>
      </trkpt>
      <trkpt lat="45.19233" lon="5.96768">
        <ele>1947.29</ele>
        <time>2023-08-10T12:33:10Z</time>
      </trkpt>
      <trkpt lat="45.1923" lon="5.96789">
        <ele>1947.29</ele>
        <time>2023-08-10T12:33:28Z</time>
      </trkpt>
      <trkpt lat="45.1923" lon="5.96818">
        <ele>1946.33</ele>
        <time>2023-08-10T12:33:48Z</time>
      </trkpt>
      <trkpt lat="45.19229" lon="5.96833">
        <ele>1944.88</ele>
        <time>2023-08-10T12:34:00Z</time>
      </trkpt>
      <trkpt lat="45.19221" lon="5.96838">
        <ele>1943.92</ele>
        <time>2023-08-10T12:34:13Z</time>
      </trkpt>
      <trkpt lat="45.19219" lon="5.96841">
        <ele>1943.92</ele>
        <time>2023-08-10T12:34:16Z</time>
      </trkpt>
      <trkpt lat="45.19218" lon="5.96844">
        <ele>1945.36</ele>
        <time>2023-08-10T12:34:19Z</time>
      </trkpt>
      <trkpt lat="45.19209" lon="5.96853">
        <ele>1945.85</ele>
        <time>2023-08-10T12:34:32Z</time>
      </trkpt>
      <trkpt lat="45.19201" lon="5.96858">
        <ele>1946.81</ele>
        <time>2023-08-10T12:34:46Z</time>
      </trkpt>
      <trkpt lat="45.1919" lon="5.96859">
        <ele>1948.73</ele>
        <time>2023-08-10T12:35:04Z</time>
      </trkpt>
      <trkpt lat="45.19179" lon="5.96856">
        <ele>1950.17</ele>
        <time>2023-08-10T12:35:21Z</time>
      </trkpt>
      <trkpt lat="45.19172" lon="5.96866">
        <ele>1951.13</ele>
        <time>2023-08-10T12:35:35Z</time>
      </trkpt>
      <trkpt lat="45.19164" lon="5.96872">
        <ele>1952.57</ele>
        <time>2023-08-10T12:35:49Z</time>
      </trkpt>
      <trkpt lat="45.19156" lon="5.9688">
        <ele>1954.02</ele>
        <time>2023-08-10T12:36:02Z</time>
      </trkpt>
      <trkpt lat="45.19148" lon="5.96885">
        <ele>1955.94</ele>
        <time>2023-08-10T12:36:16Z</time>
      </trkpt>
      <trkpt lat="45.19137" lon="5.96888">
        <ele>1957.38</ele>
        <time>2023-08-10T12:36:31Z</time>
      </trkpt>
      <trkpt lat="45.1913" lon="5.96894">
        <ele>1959.3</ele>
        <time>2023-08-10T12:36:43Z</time>
      </trkpt>
      <trkpt lat="45.19124" lon="5.96899">
        <ele>1960.75</ele>
        <time>2023-08-10T12:36:57Z</time>
      </trkpt>
      <trkpt lat="45.19117" lon="5.96909">
        <ele>1962.19</ele>
        <time>2023-08-10T12:37:11Z</time>
      </trkpt>
      <trkpt lat="45.19112" lon="5.96917">
        <ele>1962.67</ele>
        <time>2023-08-10T12:37:25Z</time>
      </trkpt>
      <trkpt lat="45.19105" lon="5.96925">
        <ele>1964.11</ele>
        <time>2023-08-10T12:37:38Z</time>
      </trkpt>
      <trkpt lat="45.19099" lon="5.96932">
        <ele>1964.59</ele>
        <time>2023-08-10T12:37:51Z</time>
      </trkpt>
      <trkpt lat="45.19092" lon="5.96937">
        <ele>1966.99</ele>
        <time>2023-08-10T12:38:05Z</time>
      </trkpt>
      <trkpt lat="45.19092" lon="5.96939">
        <ele>1968.44</ele>
        <time>2023-08-10T12:38:19Z</time>
      </trkpt>
      <trkpt lat="45.19093" lon="5.96934">
        <ele>1968.92</ele>
        <time>2023-08-10T12:38:35Z</time>
      </trkpt>
      <trkpt lat="45.19102" lon="5.96932">
        <ele>1970.36</ele>
        <time>2023-08-10T12:38:50Z</time>
      </trkpt>
      <trkpt lat="45.19114" lon="5.96928">
        <ele>1972.28</ele>
        <time>2023-08-10T12:39:09Z</time>
      </trkpt>
      <trkpt lat="45.19125" lon="5.96923">
        <ele>1974.69</ele>
        <time>2023-08-10T12:39:27Z</time>
      </trkpt>
      <trkpt lat="45.19127" lon="5.9693">
        <ele>1975.65</ele>
        <time>2023-08-10T12:39:43Z</time>
      </trkpt>
      <trkpt lat="45.19123" lon="5.96932">
        <ele>1977.09</ele>
        <time>2023-08-10T12:40:22Z</time>
      </trkpt>
      <trkpt lat="45.19116" lon="5.96938">
        <ele>1978.53</ele>
        <time>2023-08-10T12:40:36Z</time>
      </trkpt>
      <trkpt lat="45.19107" lon="5.96946">
        <ele>1979.01</ele>
        <time>2023-08-10T12:40:50Z</time>
      </trkpt>
      <trkpt lat="45.19101" lon="5.96953">
        <ele>1980.45</ele>
        <time>2023-08-10T12:41:03Z</time>
      </trkpt>
      <trkpt lat="45.19102" lon="5.96955">
        <ele>1981.9</ele>
        <time>2023-08-10T12:41:17Z</time>
      </trkpt>
      <trkpt lat="45.19105" lon="5.96952">
        <ele>1982.38</ele>
        <time>2023-08-10T12:41:42Z</time>
      </trkpt>
      <trkpt lat="45.19113" lon="5.96949">
        <ele>1983.34</ele>
        <time>2023-08-10T12:42:08Z</time>
      </trkpt>
      <trkpt lat="45.19123" lon="5.96946">
        <ele>1984.78</ele>
        <time>2023-08-10T12:42:27Z</time>
      </trkpt>
      <trkpt lat="45.19118" lon="5.96953">
        <ele>1985.74</ele>
        <time>2023-08-10T12:42:41Z</time>
      </trkpt>
      <trkpt lat="45.19113" lon="5.96962">
        <ele>1986.7</ele>
        <time>2023-08-10T12:42:53Z</time>
      </trkpt>
      <trkpt lat="45.19108" lon="5.96973">
        <ele>1988.14</ele>
        <time>2023-08-10T12:43:07Z</time>
      </trkpt>
      <trkpt lat="45.19107" lon="5.96985">
        <ele>1989.59</ele>
        <time>2023-08-10T12:43:22Z</time>
      </trkpt>
      <trkpt lat="45.19102" lon="5.96996">
        <ele>1990.55</ele>
        <time>2023-08-10T12:43:35Z</time>
      </trkpt>
      <trkpt lat="45.19107" lon="5.96995">
        <ele>1991.99</ele>
        <time>2023-08-10T12:43:48Z</time>
      </trkpt>
      <trkpt lat="45.19112" lon="5.96985">
        <ele>1992.95</ele>
        <time>2023-08-10T12:44:01Z</time>
      </trkpt>
      <trkpt lat="45.1912" lon="5.96975">
        <ele>1993.43</ele>
        <time>2023-08-10T12:44:17Z</time>
      </trkpt>
      <trkpt lat="45.19123" lon="5.96972">
        <ele>1994.39</ele>
        <time>2023-08-10T12:44:23Z</time>
      </trkpt>
      <trkpt lat="45.19131" lon="5.9697">
        <ele>1995.83</ele>
        <time>2023-08-10T12:44:39Z</time>
      </trkpt>
      <trkpt lat="45.19141" lon="5.96975">
        <ele>1997.76</ele>
        <time>2023-08-10T12:44:57Z</time>
      </trkpt>
      <trkpt lat="45.19153" lon="5.96976">
        <ele>1999.2</ele>
        <time>2023-08-10T12:45:14Z</time>
      </trkpt>
      <trkpt lat="45.19164" lon="5.96976">
        <ele>2000.64</ele>
        <time>2023-08-10T12:45:30Z</time>
      </trkpt>
      <trkpt lat="45.19165" lon="5.96981">
        <ele>2004.01</ele>
        <time>2023-08-10T12:45:48Z</time>
      </trkpt>
      <trkpt lat="45.19165" lon="5.96989">
        <ele>2005.45</ele>
        <time>2023-08-10T12:46:05Z</time>
      </trkpt>
      <trkpt lat="45.19168" lon="5.96997">
        <ele>2007.37</ele>
        <time>2023-08-10T12:46:23Z</time>
      </trkpt>
      <trkpt lat="45.19167" lon="5.97005">
        <ele>2009.29</ele>
        <time>2023-08-10T12:46:45Z</time>
      </trkpt>
      <trkpt lat="45.19166" lon="5.97009">
        <ele>2010.73</ele>
        <time>2023-08-10T12:47:01Z</time>
      </trkpt>
      <trkpt lat="45.19169" lon="5.97022">
        <ele>2013.62</ele>
        <time>2023-08-10T12:47:20Z</time>
      </trkpt>
      <trkpt lat="45.19169" lon="5.97028">
        <ele>2015.54</ele>
        <time>2023-08-10T12:47:37Z</time>
      </trkpt>
      <trkpt lat="45.19165" lon="5.97035">
        <ele>2016.98</ele>
        <time>2023-08-10T12:47:51Z</time>
      </trkpt>
      <trkpt lat="45.19157" lon="5.97043">
        <ele>2018.91</ele>
        <time>2023-08-10T12:48:06Z</time>
      </trkpt>
      <trkpt lat="45.19151" lon="5.97056">
        <ele>2018.91</ele>
        <time>2023-08-10T12:48:21Z</time>
      </trkpt>
      <trkpt lat="45.19142" lon="5.97073">
        <ele>2019.87</ele>
        <time>2023-08-10T12:48:40Z</time>
      </trkpt>
      <trkpt lat="45.19139" lon="5.97081">
        <ele>2020.35</ele>
        <time>2023-08-10T12:48:51Z</time>
      </trkpt>
      <trkpt lat="45.19146" lon="5.97097">
        <ele>2022.27</ele>
        <time>2023-08-10T12:49:10Z</time>
      </trkpt>
      <trkpt lat="45.19148" lon="5.97107">
        <ele>2023.23</ele>
        <time>2023-08-10T12:49:25Z</time>
      </trkpt>
      <trkpt lat="45.19149" lon="5.97121">
        <ele>2025.64</ele>
        <time>2023-08-10T12:49:45Z</time>
      </trkpt>
      <trkpt lat="45.1915" lon="5.97133">
        <ele>2028.04</ele>
        <time>2023-08-10T12:50:00Z</time>
      </trkpt>
      <trkpt lat="45.19157" lon="5.97137">
        <ele>2029.96</ele>
        <time>2023-08-10T12:50:18Z</time>
      </trkpt>
      <trkpt lat="45.19157" lon="5.97146">
        <ele>2031.88</ele>
        <time>2023-08-10T12:50:32Z</time>
      </trkpt>
      <trkpt lat="45.19158" lon="5.97153">
        <ele>2033.33</ele>
        <time>2023-08-10T12:50:46Z</time>
      </trkpt>
      <trkpt lat="45.19155" lon="5.9717">
        <ele>2035.25</ele>
        <time>2023-08-10T12:51:04Z</time>
      </trkpt>
      <trkpt lat="45.19154" lon="5.97181">
        <ele>2036.69</ele>
        <time>2023-08-10T12:51:21Z</time>
      </trkpt>
      <trkpt lat="45.1915" lon="5.97189">
        <ele>2036.21</ele>
        <time>2023-08-10T12:52:02Z</time>
      </trkpt>
      <trkpt lat="45.19151" lon="5.97196">
        <ele>2036.69</ele>
        <time>2023-08-10T12:52:18Z</time>
      </trkpt>
      <trkpt lat="45.1916" lon="5.972">
        <ele>2038.13</ele>
        <time>2023-08-10T12:52:33Z</time>
      </trkpt>
      <trkpt lat="45.1916" lon="5.97204">
        <ele>2039.57</ele>
        <time>2023-08-10T12:52:48Z</time>
      </trkpt>
      <trkpt lat="45.19162" lon="5.97217">
        <ele>2041.5</ele>
        <time>2023-08-10T12:53:03Z</time>
      </trkpt>
      <trkpt lat="45.19166" lon="5.97224">
        <ele>2041.98</ele>
        <time>2023-08-10T12:53:18Z</time>
      </trkpt>
      <trkpt lat="45.19166" lon="5.97233">
        <ele>2043.9</ele>
        <time>2023-08-10T12:53:32Z</time>
      </trkpt>
      <trkpt lat="45.19172" lon="5.97243">
        <ele>2046.3</ele>
        <time>2023-08-10T12:53:49Z</time>
      </trkpt>
      <trkpt lat="45.19181" lon="5.97252">
        <ele>2048.23</ele>
        <time>2023-08-10T12:54:07Z</time>
      </trkpt>
      <trkpt lat="45.19192" lon="5.97263">
        <ele>2048.71</ele>
        <time>2023-08-10T12:54:23Z</time>
      </trkpt>
      <trkpt lat="45.19199" lon="5.97271">
        <ele>2048.71</ele>
        <time>2023-08-10T12:54:36Z</time>
      </trkpt>
      <trkpt lat="45.19204" lon="5.97278">
        <ele>2049.67</ele>
        <time>2023-08-10T12:54:49Z</time>
      </trkpt>
      <trkpt lat="45.19212" lon="5.9729">
        <ele>2050.63</ele>
        <time>2023-08-10T12:55:05Z</time>
      </trkpt>
      <trkpt lat="45.19217" lon="5.97302">
        <ele>2051.59</ele>
        <time>2023-08-10T12:55:20Z</time>
      </trkpt>
      <trkpt lat="45.19221" lon="5.97315">
        <ele>2052.07</ele>
        <time>2023-08-10T12:55:36Z</time>
      </trkpt>
      <trkpt lat="45.19222" lon="5.97326">
        <ele>2051.11</ele>
        <time>2023-08-10T12:55:46Z</time>
      </trkpt>
      <trkpt lat="45.19225" lon="5.97341">
        <ele>2051.11</ele>
        <time>2023-08-10T12:56:01Z</time>
      </trkpt>
      <trkpt lat="45.19229" lon="5.97354">
        <ele>2052.55</ele>
        <time>2023-08-10T12:56:17Z</time>
      </trkpt>
      <trkpt lat="45.19239" lon="5.97367">
        <ele>2053.51</ele>
        <time>2023-08-10T12:56:33Z</time>
      </trkpt>
      <trkpt lat="45.19245" lon="5.97377">
        <ele>2053.99</ele>
        <time>2023-08-10T12:56:48Z</time>
      </trkpt>
      <trkpt lat="45.19252" lon="5.97388">
        <ele>2055.92</ele>
        <time>2023-08-10T12:57:03Z</time>
      </trkpt>
      <trkpt lat="45.19259" lon="5.97396">
        <ele>2057.84</ele>
        <time>2023-08-10T12:57:21Z</time>
      </trkpt>
      <trkpt lat="45.1926" lon="5.97397">
        <ele>2059.28</ele>
        <time>2023-08-10T12:57:24Z</time>
      </trkpt>
      <trkpt lat="45.19274" lon="5.97399">
        <ele>2060.72</ele>
        <time>2023-08-10T12:57:38Z</time>
      </trkpt>
      <trkpt lat="45.19283" lon="5.9741">
        <ele>2062.65</ele>
        <time>2023-08-10T12:57:56Z</time>
      </trkpt>
      <trkpt lat="45.19292" lon="5.9742">
        <ele>2064.57</ele>
        <time>2023-08-10T12:58:14Z</time>
      </trkpt>
      <trkpt lat="45.193" lon="5.9742">
        <ele>2065.05</ele>
        <time>2023-08-10T12:58:29Z</time>
      </trkpt>
      <trkpt lat="45.19311" lon="5.9743">
        <ele>2065.53</ele>
        <time>2023-08-10T12:58:48Z</time>
      </trkpt>
      <trkpt lat="45.19319" lon="5.9744">
        <ele>2066.49</ele>
        <time>2023-08-10T12:59:05Z</time>
      </trkpt>
      <trkpt lat="45.1933" lon="5.97447">
        <ele>2068.41</ele>
        <time>2023-08-10T12:59:22Z</time>
      </trkpt>
      <trkpt lat="45.19334" lon="5.97458">
        <ele>2070.34</ele>
        <time>2023-08-10T12:59:39Z</time>
      </trkpt>
      <trkpt lat="45.19338" lon="5.97466">
        <ele>2072.26</ele>
        <time>2023-08-10T12:59:56Z</time>
      </trkpt>
      <trkpt lat="45.19334" lon="5.97475">
        <ele>2074.66</ele>
        <time>2023-08-10T13:00:13Z</time>
      </trkpt>
      <trkpt lat="45.19338" lon="5.97487">
        <ele>2075.14</ele>
        <time>2023-08-10T13:00:26Z</time>
      </trkpt>
      <trkpt lat="45.19338" lon="5.975">
        <ele>2077.07</ele>
        <time>2023-08-10T13:00:41Z</time>
      </trkpt>
      <trkpt lat="45.19339" lon="5.97513">
        <ele>2079.47</ele>
        <time>2023-08-10T13:01:00Z</time>
      </trkpt>
      <trkpt lat="45.19341" lon="5.97513">
        <ele>2080.43</ele>
        <time>2023-08-10T13:01:06Z</time>
      </trkpt>
      <trkpt lat="45.19349" lon="5.97517">
        <ele>2082.83</ele>
        <time>2023-08-10T13:01:25Z</time>
      </trkpt>
      <trkpt lat="45.19354" lon="5.97519">
        <ele>2085.24</ele>
        <time>2023-08-10T13:01:43Z</time>
      </trkpt>
      <trkpt lat="45.19361" lon="5.97524">
        <ele>2087.64</ele>
        <time>2023-08-10T13:01:59Z</time>
      </trkpt>
      <trkpt lat="45.19366" lon="5.97531">
        <ele>2089.08</ele>
        <time>2023-08-10T13:02:17Z</time>
      </trkpt>
      <trkpt lat="45.1937" lon="5.97532">
        <ele>2090.52</ele>
        <time>2023-08-10T13:02:31Z</time>
      </trkpt>
      <trkpt lat="45.19374" lon="5.97534">
        <ele>2091.97</ele>
        <time>2023-08-10T13:02:44Z</time>
      </trkpt>
      <trkpt lat="45.19379" lon="5.97541">
        <ele>2093.89</ele>
        <time>2023-08-10T13:03:01Z</time>
      </trkpt>
      <trkpt lat="45.19383" lon="5.97547">
        <ele>2096.77</ele>
        <time>2023-08-10T13:03:19Z</time>
      </trkpt>
      <trkpt lat="45.19389" lon="5.97552">
        <ele>2098.21</ele>
        <time>2023-08-10T13:03:37Z</time>
      </trkpt>
      <trkpt lat="45.19387" lon="5.97551">
        <ele>2098.21</ele>
        <time>2023-08-10T13:03:57Z</time>
      </trkpt>
      <trkpt lat="45.19387" lon="5.97549">
        <ele>2098.7</ele>
        <time>2023-08-10T13:04:22Z</time>
      </trkpt>
      <trkpt lat="45.19396" lon="5.97555">
        <ele>2100.62</ele>
        <time>2023-08-10T13:04:41Z</time>
      </trkpt>
      <trkpt lat="45.19404" lon="5.97562">
        <ele>2101.58</ele>
        <time>2023-08-10T13:04:57Z</time>
      </trkpt>
      <trkpt lat="45.1941" lon="5.97563">
        <ele>2103.5</ele>
        <time>2023-08-10T13:05:12Z</time>
      </trkpt>
      <trkpt lat="45.19415" lon="5.9757">
        <ele>2103.5</ele>
        <time>2023-08-10T13:05:25Z</time>
      </trkpt>
      <trkpt lat="45.19421" lon="5.97579">
        <ele>2105.42</ele>
        <time>2023-08-10T13:05:41Z</time>
      </trkpt>
      <trkpt lat="45.19428" lon="5.97585">
        <ele>2107.83</ele>
        <time>2023-08-10T13:05:58Z</time>
      </trkpt>
      <trkpt lat="45.19433" lon="5.97586">
        <ele>2110.23</ele>
        <time>2023-08-10T13:06:17Z</time>
      </trkpt>
      <trkpt lat="45.19436" lon="5.97592">
        <ele>2112.63</ele>
        <time>2023-08-10T13:06:35Z</time>
      </trkpt>
      <trkpt lat="45.19444" lon="5.97589">
        <ele>2114.56</ele>
        <time>2023-08-10T13:06:51Z</time>
      </trkpt>
      <trkpt lat="45.19451" lon="5.9759">
        <ele>2116</ele>
        <time>2023-08-10T13:07:06Z</time>
      </trkpt>
      <trkpt lat="45.19459" lon="5.97594">
        <ele>2116.48</ele>
        <time>2023-08-10T13:07:22Z</time>
      </trkpt>
      <trkpt lat="45.19463" lon="5.97606">
        <ele>2116.96</ele>
        <time>2023-08-10T13:07:39Z</time>
      </trkpt>
      <trkpt lat="45.19465" lon="5.97619">
        <ele>2119.36</ele>
        <time>2023-08-10T13:07:56Z</time>
      </trkpt>
      <trkpt lat="45.19463" lon="5.97628">
        <ele>2121.29</ele>
        <time>2023-08-10T13:08:12Z</time>
      </trkpt>
      <trkpt lat="45.1946" lon="5.97637">
        <ele>2123.21</ele>
        <time>2023-08-10T13:08:29Z</time>
      </trkpt>
      <trkpt lat="45.19461" lon="5.97643">
        <ele>2125.13</ele>
        <time>2023-08-10T13:08:39Z</time>
      </trkpt>
      <trkpt lat="45.19457" lon="5.97655">
        <ele>2127.05</ele>
        <time>2023-08-10T13:08:56Z</time>
      </trkpt>
      <trkpt lat="45.19459" lon="5.97665">
        <ele>2128.98</ele>
        <time>2023-08-10T13:09:13Z</time>
      </trkpt>
      <trkpt lat="45.19462" lon="5.97668">
        <ele>2127.05</ele>
        <time>2023-08-10T13:09:17Z</time>
      </trkpt>
      <trkpt lat="45.19474" lon="5.97677">
        <ele>2128.98</ele>
        <time>2023-08-10T13:09:33Z</time>
      </trkpt>
      <trkpt lat="45.19475" lon="5.97687">
        <ele>2128.02</ele>
        <time>2023-08-10T13:09:41Z</time>
      </trkpt>
      <trkpt lat="45.19475" lon="5.97688">
        <ele>2128.02</ele>
        <time>2023-08-10T13:09:42Z</time>
      </trkpt>
      <trkpt lat="45.19475" lon="5.97705">
        <ele>2126.09</ele>
        <time>2023-08-10T13:09:56Z</time>
      </trkpt>
      <trkpt lat="45.19474" lon="5.97718">
        <ele>2127.53</ele>
        <time>2023-08-10T13:10:07Z</time>
      </trkpt>
      <trkpt lat="45.19473" lon="5.97737">
        <ele>2128.02</ele>
        <time>2023-08-10T13:10:25Z</time>
      </trkpt>
      <trkpt lat="45.19469" lon="5.97755">
        <ele>2128.02</ele>
        <time>2023-08-10T13:10:41Z</time>
      </trkpt>
      <trkpt lat="45.19464" lon="5.97774">
        <ele>2128.98</ele>
        <time>2023-08-10T13:10:57Z</time>
      </trkpt>
      <trkpt lat="45.19464" lon="5.97801">
        <ele>2130.42</ele>
        <time>2023-08-10T13:11:18Z</time>
      </trkpt>
      <trkpt lat="45.19464" lon="5.9782">
        <ele>2130.9</ele>
        <time>2023-08-10T13:11:35Z</time>
      </trkpt>
      <trkpt lat="45.19468" lon="5.97843">
        <ele>2130.9</ele>
        <time>2023-08-10T13:11:50Z</time>
      </trkpt>
      <trkpt lat="45.19475" lon="5.97858">
        <ele>2131.86</ele>
        <time>2023-08-10T13:12:07Z</time>
      </trkpt>
      <trkpt lat="45.19482" lon="5.97867">
        <ele>2133.78</ele>
        <time>2023-08-10T13:12:25Z</time>
      </trkpt>
      <trkpt lat="45.19477" lon="5.97881">
        <ele>2136.19</ele>
        <time>2023-08-10T13:12:43Z</time>
      </trkpt>
      <trkpt lat="45.19476" lon="5.97895">
        <ele>2138.11</ele>
        <time>2023-08-10T13:13:05Z</time>
      </trkpt>
      <trkpt lat="45.19482" lon="5.97904">
        <ele>2139.07</ele>
        <time>2023-08-10T13:13:22Z</time>
      </trkpt>
      <trkpt lat="45.19479" lon="5.97917">
        <ele>2141.95</ele>
        <time>2023-08-10T13:13:39Z</time>
      </trkpt>
      <trkpt lat="45.19488" lon="5.97917">
        <ele>2142.92</ele>
        <time>2023-08-10T13:13:55Z</time>
      </trkpt>
      <trkpt lat="45.19489" lon="5.97919">
        <ele>2144.36</ele>
        <time>2023-08-10T13:14:02Z</time>
      </trkpt>
      <trkpt lat="45.19495" lon="5.97925">
        <ele>2144.84</ele>
        <time>2023-08-10T13:14:19Z</time>
      </trkpt>
      <trkpt lat="45.19502" lon="5.97935">
        <ele>2143.88</ele>
        <time>2023-08-10T13:14:33Z</time>
      </trkpt>
      <trkpt lat="45.19502" lon="5.97949">
        <ele>2142.44</ele>
        <time>2023-08-10T13:14:47Z</time>
      </trkpt>
      <trkpt lat="45.19509" lon="5.97956">
        <ele>2141.95</ele>
        <time>2023-08-10T13:15:02Z</time>
      </trkpt>
      <trkpt lat="45.19511" lon="5.97956">
        <ele>2143.88</ele>
        <time>2023-08-10T13:15:04Z</time>
      </trkpt>
      <trkpt lat="45.19517" lon="5.9796">
        <ele>2143.4</ele>
        <time>2023-08-10T13:15:22Z</time>
      </trkpt>
      <trkpt lat="45.1952" lon="5.97977">
        <ele>2143.4</ele>
        <time>2023-08-10T13:15:37Z</time>
      </trkpt>
      <trkpt lat="45.19525" lon="5.9798">
        <ele>2143.4</ele>
        <time>2023-08-10T13:15:44Z</time>
      </trkpt>
      <trkpt lat="45.19528" lon="5.97983">
        <ele>2141.95</ele>
        <time>2023-08-10T13:15:49Z</time>
      </trkpt>
      <trkpt lat="45.19533" lon="5.97985">
        <ele>2142.92</ele>
        <time>2023-08-10T13:15:57Z</time>
      </trkpt>
      <trkpt lat="45.19545" lon="5.9798">
        <ele>2144.36</ele>
        <time>2023-08-10T13:16:11Z</time>
      </trkpt>
      <trkpt lat="45.19551" lon="5.97978">
        <ele>2145.8</ele>
        <time>2023-08-10T13:16:26Z</time>
      </trkpt>
      <trkpt lat="45.19552" lon="5.97989">
        <ele>2148.68</ele>
        <time>2023-08-10T13:16:46Z</time>
      </trkpt>
      <trkpt lat="45.19564" lon="5.97991">
        <ele>2150.61</ele>
        <time>2023-08-10T13:17:04Z</time>
      </trkpt>
      <trkpt lat="45.19575" lon="5.97994">
        <ele>2152.05</ele>
        <time>2023-08-10T13:17:23Z</time>
      </trkpt>
      <trkpt lat="45.19577" lon="5.98006">
        <ele>2154.93</ele>
        <time>2023-08-10T13:17:44Z</time>
      </trkpt>
      <trkpt lat="45.19579" lon="5.98012">
        <ele>2157.34</ele>
        <time>2023-08-10T13:18:00Z</time>
      </trkpt>
      <trkpt lat="45.19584" lon="5.98019">
        <ele>2158.3</ele>
        <time>2023-08-10T13:18:19Z</time>
      </trkpt>
      <trkpt lat="45.19584" lon="5.9803">
        <ele>2160.22</ele>
        <time>2023-08-10T13:18:36Z</time>
      </trkpt>
      <trkpt lat="45.19582" lon="5.98041">
        <ele>2161.66</ele>
        <time>2023-08-10T13:18:51Z</time>
      </trkpt>
      <trkpt lat="45.19585" lon="5.98053">
        <ele>2163.58</ele>
        <time>2023-08-10T13:19:07Z</time>
      </trkpt>
      <trkpt lat="45.19599" lon="5.98053">
        <ele>2164.55</ele>
        <time>2023-08-10T13:19:22Z</time>
      </trkpt>
      <trkpt lat="45.19598" lon="5.98065">
        <ele>2166.47</ele>
        <time>2023-08-10T13:19:42Z</time>
      </trkpt>
      <trkpt lat="45.19597" lon="5.98067">
        <ele>2167.91</ele>
        <time>2023-08-10T13:19:45Z</time>
      </trkpt>
      <trkpt lat="45.19596" lon="5.98083">
        <ele>2168.87</ele>
        <time>2023-08-10T13:20:05Z</time>
      </trkpt>
      <trkpt lat="45.19593" lon="5.98104">
        <ele>2170.79</ele>
        <time>2023-08-10T13:20:26Z</time>
      </trkpt>
      <trkpt lat="45.19596" lon="5.98118">
        <ele>2172.24</ele>
        <time>2023-08-10T13:20:46Z</time>
      </trkpt>
      <trkpt lat="45.19592" lon="5.98126">
        <ele>2173.2</ele>
        <time>2023-08-10T13:21:01Z</time>
      </trkpt>
      <trkpt lat="45.19592" lon="5.98138">
        <ele>2175.12</ele>
        <time>2023-08-10T13:21:16Z</time>
      </trkpt>
      <trkpt lat="45.19591" lon="5.98147">
        <ele>2175.6</ele>
        <time>2023-08-10T13:21:36Z</time>
      </trkpt>
      <trkpt lat="45.19588" lon="5.98161">
        <ele>2178</ele>
        <time>2023-08-10T13:21:53Z</time>
      </trkpt>
      <trkpt lat="45.19581" lon="5.98176">
        <ele>2179.93</ele>
        <time>2023-08-10T13:22:14Z</time>
      </trkpt>
      <trkpt lat="45.19596" lon="5.98169">
        <ele>2179.93</ele>
        <time>2023-08-10T13:22:36Z</time>
      </trkpt>
      <trkpt lat="45.19599" lon="5.98168">
        <ele>2179.93</ele>
        <time>2023-08-10T13:22:58Z</time>
      </trkpt>
      <trkpt lat="45.19589" lon="5.98187">
        <ele>2181.85</ele>
        <time>2023-08-10T13:23:24Z</time>
      </trkpt>
      <trkpt lat="45.19581" lon="5.982">
        <ele>2184.25</ele>
        <time>2023-08-10T13:23:43Z</time>
      </trkpt>
      <trkpt lat="45.19577" lon="5.98215">
        <ele>2186.66</ele>
        <time>2023-08-10T13:24:02Z</time>
      </trkpt>
      <trkpt lat="45.19574" lon="5.9823">
        <ele>2189.06</ele>
        <time>2023-08-10T13:24:23Z</time>
      </trkpt>
      <trkpt lat="45.19572" lon="5.98247">
        <ele>2190.98</ele>
        <time>2023-08-10T13:24:46Z</time>
      </trkpt>
      <trkpt lat="45.19575" lon="5.98261">
        <ele>2193.39</ele>
        <time>2023-08-10T13:25:08Z</time>
      </trkpt>
      <trkpt lat="45.19569" lon="5.98278">
        <ele>2194.83</ele>
        <time>2023-08-10T13:25:29Z</time>
      </trkpt>
      <trkpt lat="45.19576" lon="5.98288">
        <ele>2197.23</ele>
        <time>2023-08-10T13:25:49Z</time>
      </trkpt>
      <trkpt lat="45.19573" lon="5.98302">
        <ele>2197.23</ele>
        <time>2023-08-10T13:26:08Z</time>
      </trkpt>
      <trkpt lat="45.19573" lon="5.98316">
        <ele>2199.15</ele>
        <time>2023-08-10T13:26:28Z</time>
      </trkpt>
      <trkpt lat="45.19567" lon="5.98329">
        <ele>2200.59</ele>
        <time>2023-08-10T13:26:49Z</time>
      </trkpt>
      <trkpt lat="45.19563" lon="5.98342">
        <ele>2202.04</ele>
        <time>2023-08-10T13:27:09Z</time>
      </trkpt>
      <trkpt lat="45.19554" lon="5.98348">
        <ele>2203</ele>
        <time>2023-08-10T13:27:26Z</time>
      </trkpt>
      <trkpt lat="45.19549" lon="5.9835">
        <ele>2204.44</ele>
        <time>2023-08-10T13:27:50Z</time>
      </trkpt>
      <trkpt lat="45.19549" lon="5.98347">
        <ele>2205.4</ele>
        <time>2023-08-10T13:28:24Z</time>
      </trkpt>
      <trkpt lat="45.19542" lon="5.98347">
        <ele>2207.32</ele>
        <time>2023-08-10T13:28:41Z</time>
      </trkpt>
      <trkpt lat="45.1954" lon="5.98354">
        <ele>2210.21</ele>
        <time>2023-08-10T13:28:57Z</time>
      </trkpt>
      <trkpt lat="45.1954" lon="5.98355">
        <ele>2210.69</ele>
        <time>2023-08-10T13:29:24Z</time>
      </trkpt>
      <trkpt lat="45.19537" lon="5.98363">
        <ele>2211.65</ele>
        <time>2023-08-10T13:29:43Z</time>
      </trkpt>
      <trkpt lat="45.19539" lon="5.9837">
        <ele>2214.53</ele>
        <time>2023-08-10T13:30:00Z</time>
      </trkpt>
      <trkpt lat="45.19533" lon="5.98384">
        <ele>2216.46</ele>
        <time>2023-08-10T13:30:21Z</time>
      </trkpt>
      <trkpt lat="45.19536" lon="5.98395">
        <ele>2218.86</ele>
        <time>2023-08-10T13:30:37Z</time>
      </trkpt>
      <trkpt lat="45.19537" lon="5.98409">
        <ele>2220.3</ele>
        <time>2023-08-10T13:30:56Z</time>
      </trkpt>
      <trkpt lat="45.19542" lon="5.98416">
        <ele>2222.71</ele>
        <time>2023-08-10T13:31:17Z</time>
      </trkpt>
      <trkpt lat="45.19535" lon="5.98426">
        <ele>2225.59</ele>
        <time>2023-08-10T13:31:39Z</time>
      </trkpt>
      <trkpt lat="45.19539" lon="5.98431">
        <ele>2227.99</ele>
        <time>2023-08-10T13:32:00Z</time>
      </trkpt>
      <trkpt lat="45.19545" lon="5.98436">
        <ele>2230.4</ele>
        <time>2023-08-10T13:32:16Z</time>
      </trkpt>
      <trkpt lat="45.1954" lon="5.98442">
        <ele>2232.32</ele>
        <time>2023-08-10T13:32:36Z</time>
      </trkpt>
      <trkpt lat="45.19538" lon="5.98454">
        <ele>2235.2</ele>
        <time>2023-08-10T13:32:58Z</time>
      </trkpt>
      <trkpt lat="45.19536" lon="5.98463">
        <ele>2237.61</ele>
        <time>2023-08-10T13:33:17Z</time>
      </trkpt>
      <trkpt lat="45.19539" lon="5.98465">
        <ele>2239.53</ele>
        <time>2023-08-10T13:33:42Z</time>
      </trkpt>
      <trkpt lat="45.19546" lon="5.98463">
        <ele>2242.41</ele>
        <time>2023-08-10T13:34:02Z</time>
      </trkpt>
      <trkpt lat="45.19552" lon="5.98459">
        <ele>2244.82</ele>
        <time>2023-08-10T13:34:23Z</time>
      </trkpt>
      <trkpt lat="45.19561" lon="5.98461">
        <ele>2247.7</ele>
        <time>2023-08-10T13:34:43Z</time>
      </trkpt>
      <trkpt lat="45.19562" lon="5.98461">
        <ele>2249.62</ele>
        <time>2023-08-10T13:34:51Z</time>
      </trkpt>
      <trkpt lat="45.19565" lon="5.98459">
        <ele>2250.58</ele>
        <time>2023-08-10T13:35:11Z</time>
      </trkpt>
      <trkpt lat="45.19566" lon="5.9847">
        <ele>2252.99</ele>
        <time>2023-08-10T13:35:32Z</time>
      </trkpt>
      <trkpt lat="45.19572" lon="5.98468">
        <ele>2258.27</ele>
        <time>2023-08-10T13:41:14Z</time>
      </trkpt>
      <trkpt lat="45.19574" lon="5.98468">
        <ele>2259.72</ele>
        <time>2023-08-10T13:41:20Z</time>
      </trkpt>
      <trkpt lat="45.1957" lon="5.98476">
        <ele>2261.16</ele>
        <time>2023-08-10T13:41:36Z</time>
      </trkpt>
      <trkpt lat="45.19576" lon="5.98481">
        <ele>2264.04</ele>
        <time>2023-08-10T13:41:57Z</time>
      </trkpt>
      <trkpt lat="45.19579" lon="5.98488">
        <ele>2266.93</ele>
        <time>2023-08-10T13:42:15Z</time>
      </trkpt>
      <trkpt lat="45.19576" lon="5.98496">
        <ele>2268.85</ele>
        <time>2023-08-10T13:42:31Z</time>
      </trkpt>
      <trkpt lat="45.19571" lon="5.98503">
        <ele>2271.25</ele>
        <time>2023-08-10T13:42:47Z</time>
      </trkpt>
      <trkpt lat="45.1957" lon="5.9851">
        <ele>2273.17</ele>
        <time>2023-08-10T13:43:05Z</time>
      </trkpt>
      <trkpt lat="45.19569" lon="5.98518">
        <ele>2275.58</ele>
        <time>2023-08-10T13:43:26Z</time>
      </trkpt>
      <trkpt lat="45.19571" lon="5.9852">
        <ele>2279.9</ele>
        <time>2023-08-10T13:47:00Z</time>
      </trkpt>
      <trkpt lat="45.1957" lon="5.98531">
        <ele>2282.31</ele>
        <time>2023-08-10T13:47:19Z</time>
      </trkpt>
      <trkpt lat="45.19568" lon="5.9854">
        <ele>2284.71</ele>
        <time>2023-08-10T13:47:34Z</time>
      </trkpt>
      <trkpt lat="45.19568" lon="5.9855">
        <ele>2286.15</ele>
        <time>2023-08-10T13:47:50Z</time>
      </trkpt>
      <trkpt lat="45.19564" lon="5.98565">
        <ele>2288.56</ele>
        <time>2023-08-10T13:48:09Z</time>
      </trkpt>
      <trkpt lat="45.19557" lon="5.98579">
        <ele>2290.96</ele>
        <time>2023-08-10T13:48:29Z</time>
      </trkpt>
      <trkpt lat="45.1956" lon="5.98588">
        <ele>2292.88</ele>
        <time>2023-08-10T13:48:49Z</time>
      </trkpt>
      <trkpt lat="45.19564" lon="5.98585">
        <ele>2293.84</ele>
        <time>2023-08-10T13:49:04Z</time>
      </trkpt>
      <trkpt lat="45.19566" lon="5.9859">
        <ele>2295.77</ele>
        <time>2023-08-10T13:49:18Z</time>
      </trkpt>
      <trkpt lat="45.19566" lon="5.98607">
        <ele>2298.17</ele>
        <time>2023-08-10T13:49:40Z</time>
      </trkpt>
      <trkpt lat="45.19573" lon="5.98618">
        <ele>2300.57</ele>
        <time>2023-08-10T13:50:00Z</time>
      </trkpt>
      <trkpt lat="45.19576" lon="5.98621">
        <ele>2302.49</ele>
        <time>2023-08-10T13:50:17Z</time>
      </trkpt>
      <trkpt lat="45.1958" lon="5.98639">
        <ele>2305.38</ele>
        <time>2023-08-10T13:50:37Z</time>
      </trkpt>
      <trkpt lat="45.19589" lon="5.98649">
        <ele>2308.26</ele>
        <time>2023-08-10T13:50:57Z</time>
      </trkpt>
      <trkpt lat="45.19591" lon="5.98667">
        <ele>2310.19</ele>
        <time>2023-08-10T13:51:18Z</time>
      </trkpt>
      <trkpt lat="45.19593" lon="5.98675">
        <ele>2311.63</ele>
        <time>2023-08-10T13:51:33Z</time>
      </trkpt>
      <trkpt lat="45.19598" lon="5.98692">
        <ele>2313.55</ele>
        <time>2023-08-10T13:51:54Z</time>
      </trkpt>
      <trkpt lat="45.19603" lon="5.98709">
        <ele>2314.99</ele>
        <time>2023-08-10T13:52:14Z</time>
      </trkpt>
      <trkpt lat="45.19604" lon="5.98721">
        <ele>2316.91</ele>
        <time>2023-08-10T13:52:32Z</time>
      </trkpt>
      <trkpt lat="45.19599" lon="5.98736">
        <ele>2319.32</ele>
        <time>2023-08-10T13:52:50Z</time>
      </trkpt>
      <trkpt lat="45.19599" lon="5.98743">
        <ele>2321.72</ele>
        <time>2023-08-10T13:53:08Z</time>
      </trkpt>
      <trkpt lat="45.19602" lon="5.98754">
        <ele>2323.64</ele>
        <time>2023-08-10T13:53:24Z</time>
      </trkpt>
      <trkpt lat="45.19608" lon="5.98754">
        <ele>2326.05</ele>
        <time>2023-08-10T13:53:43Z</time>
      </trkpt>
      <trkpt lat="45.19611" lon="5.9876">
        <ele>2328.45</ele>
        <time>2023-08-10T13:54:02Z</time>
      </trkpt>
      <trkpt lat="45.19618" lon="5.98761">
        <ele>2330.37</ele>
        <time>2023-08-10T13:54:20Z</time>
      </trkpt>
      <trkpt lat="45.1963" lon="5.98755">
        <ele>2333.26</ele>
        <time>2023-08-10T13:54:39Z</time>
      </trkpt>
      <trkpt lat="45.19634" lon="5.98757">
        <ele>2335.18</ele>
        <time>2023-08-10T13:54:59Z</time>
      </trkpt>
      <trkpt lat="45.19637" lon="5.98765">
        <ele>2337.58</ele>
        <time>2023-08-10T13:55:15Z</time>
      </trkpt>
      <trkpt lat="45.19631" lon="5.9878">
        <ele>2339.02</ele>
        <time>2023-08-10T13:55:34Z</time>
      </trkpt>
      <trkpt lat="45.19638" lon="5.98776">
        <ele>2341.91</ele>
        <time>2023-08-10T13:55:51Z</time>
      </trkpt>
      <trkpt lat="45.19641" lon="5.98781">
        <ele>2344.31</ele>
        <time>2023-08-10T13:56:09Z</time>
      </trkpt>
      <trkpt lat="45.19648" lon="5.98784">
        <ele>2346.72</ele>
        <time>2023-08-10T13:56:25Z</time>
      </trkpt>
      <trkpt lat="45.19648" lon="5.98789">
        <ele>2348.64</ele>
        <time>2023-08-10T13:56:44Z</time>
      </trkpt>
      <trkpt lat="45.19655" lon="5.98785">
        <ele>2352</ele>
        <time>2023-08-10T13:57:03Z</time>
      </trkpt>
      <trkpt lat="45.19662" lon="5.98784">
        <ele>2353.93</ele>
        <time>2023-08-10T13:57:21Z</time>
      </trkpt>
      <trkpt lat="45.19667" lon="5.98783">
        <ele>2356.81</ele>
        <time>2023-08-10T13:57:42Z</time>
      </trkpt>
      <trkpt lat="45.19672" lon="5.98783">
        <ele>2359.21</ele>
        <time>2023-08-10T13:58:01Z</time>
      </trkpt>
      <trkpt lat="45.19677" lon="5.98785">
        <ele>2362.58</ele>
        <time>2023-08-10T13:58:17Z</time>
      </trkpt>
      <trkpt lat="45.19682" lon="5.98786">
        <ele>2364.5</ele>
        <time>2023-08-10T13:58:36Z</time>
      </trkpt>
      <trkpt lat="45.19687" lon="5.9878">
        <ele>2367.38</ele>
        <time>2023-08-10T13:58:53Z</time>
      </trkpt>
      <trkpt lat="45.19691" lon="5.98787">
        <ele>2369.79</ele>
        <time>2023-08-10T13:59:13Z</time>
      </trkpt>
      <trkpt lat="45.1969" lon="5.98791">
        <ele>2372.19</ele>
        <time>2023-08-10T13:59:33Z</time>
      </trkpt>
      <trkpt lat="45.1969" lon="5.98795">
        <ele>2374.59</ele>
        <time>2023-08-10T13:59:49Z</time>
      </trkpt>
      <trkpt lat="45.197" lon="5.98788">
        <ele>2377.96</ele>
        <time>2023-08-10T14:00:09Z</time>
      </trkpt>
      <trkpt lat="45.19708" lon="5.98789">
        <ele>2380.36</ele>
        <time>2023-08-10T14:00:30Z</time>
      </trkpt>
      <trkpt lat="45.1971" lon="5.98796">
        <ele>2383.25</ele>
        <time>2023-08-10T14:00:51Z</time>
      </trkpt>
      <trkpt lat="45.19711" lon="5.98795">
        <ele>2385.65</ele>
        <time>2023-08-10T14:01:09Z</time>
      </trkpt>
      <trkpt lat="45.19718" lon="5.98796">
        <ele>2388.05</ele>
        <time>2023-08-10T14:01:26Z</time>
      </trkpt>
      <trkpt lat="45.1972" lon="5.988">
        <ele>2389.49</ele>
        <time>2023-08-10T14:01:43Z</time>
      </trkpt>
      <trkpt lat="45.19723" lon="5.98802">
        <ele>2390.46</ele>
        <time>2023-08-10T14:04:01Z</time>
      </trkpt>
      <trkpt lat="45.19725" lon="5.98806">
        <ele>2390.46</ele>
        <time>2023-08-10T14:04:04Z</time>
      </trkpt>
      <trkpt lat="45.19733" lon="5.9882">
        <ele>2390.46</ele>
        <time>2023-08-10T14:04:19Z</time>
      </trkpt>
      <trkpt lat="45.19736" lon="5.98838">
        <ele>2388.05</ele>
        <time>2023-08-10T14:04:37Z</time>
      </trkpt>
      <trkpt lat="45.1974" lon="5.98852">
        <ele>2385.65</ele>
        <time>2023-08-10T14:04:52Z</time>
      </trkpt>
      <trkpt lat="45.19741" lon="5.98854">
        <ele>2385.65</ele>
        <time>2023-08-10T14:04:54Z</time>
      </trkpt>
      <trkpt lat="45.19747" lon="5.9887">
        <ele>2384.69</ele>
        <time>2023-08-10T14:05:10Z</time>
      </trkpt>
      <trkpt lat="45.19743" lon="5.98883">
        <ele>2387.09</ele>
        <time>2023-08-10T14:05:26Z</time>
      </trkpt>
      <trkpt lat="45.19745" lon="5.98891">
        <ele>2388.05</ele>
        <time>2023-08-10T14:05:45Z</time>
      </trkpt>
      <trkpt lat="45.19749" lon="5.98904">
        <ele>2385.65</ele>
        <time>2023-08-10T14:06:01Z</time>
      </trkpt>
      <trkpt lat="45.19755" lon="5.9892">
        <ele>2382.76</ele>
        <time>2023-08-10T14:06:17Z</time>
      </trkpt>
      <trkpt lat="45.19756" lon="5.98924">
        <ele>2382.76</ele>
        <time>2023-08-10T14:06:20Z</time>
      </trkpt>
      <trkpt lat="45.19762" lon="5.98943">
        <ele>2382.28</ele>
        <time>2023-08-10T14:06:36Z</time>
      </trkpt>
      <trkpt lat="45.19762" lon="5.98945">
        <ele>2383.25</ele>
        <time>2023-08-10T14:06:38Z</time>
      </trkpt>
      <trkpt lat="45.19758" lon="5.98951">
        <ele>2383.73</ele>
        <time>2023-08-10T14:07:10Z</time>
      </trkpt>
      <trkpt lat="45.19756" lon="5.98948">
        <ele>2383.73</ele>
        <time>2023-08-10T14:08:00Z</time>
      </trkpt>
      <trkpt lat="45.19756" lon="5.9895">
        <ele>2382.76</ele>
        <time>2023-08-10T14:08:29Z</time>
      </trkpt>
      <trkpt lat="45.19754" lon="5.98964">
        <ele>2381.8</ele>
        <time>2023-08-10T14:08:45Z</time>
      </trkpt>
      <trkpt lat="45.19756" lon="5.98964">
        <ele>2381.32</ele>
        <time>2023-08-10T14:09:05Z</time>
      </trkpt>
      <trkpt lat="45.19753" lon="5.98978">
        <ele>2381.32</ele>
        <time>2023-08-10T14:09:26Z</time>
      </trkpt>
      <trkpt lat="45.19751" lon="5.98992">
        <ele>2379.4</ele>
        <time>2023-08-10T14:09:41Z</time>
      </trkpt>
      <trkpt lat="45.19755" lon="5.99007">
        <ele>2379.4</ele>
        <time>2023-08-10T14:09:57Z</time>
      </trkpt>
      <trkpt lat="45.1976" lon="5.99019">
        <ele>2376.52</ele>
        <time>2023-08-10T14:10:13Z</time>
      </trkpt>
      <trkpt lat="45.19766" lon="5.99029">
        <ele>2373.15</ele>
        <time>2023-08-10T14:10:28Z</time>
      </trkpt>
      <trkpt lat="45.19771" lon="5.99043">
        <ele>2373.63</ele>
        <time>2023-08-10T14:10:47Z</time>
      </trkpt>
      <trkpt lat="45.19772" lon="5.99044">
        <ele>2372.19</ele>
        <time>2023-08-10T14:10:50Z</time>
      </trkpt>
      <trkpt lat="45.19777" lon="5.99056">
        <ele>2371.23</ele>
        <time>2023-08-10T14:11:09Z</time>
      </trkpt>
      <trkpt lat="45.19777" lon="5.99068">
        <ele>2372.19</ele>
        <time>2023-08-10T14:11:26Z</time>
      </trkpt>
      <trkpt lat="45.1978" lon="5.99078">
        <ele>2373.63</ele>
        <time>2023-08-10T14:11:44Z</time>
      </trkpt>
      <trkpt lat="45.19782" lon="5.99088">
        <ele>2374.59</ele>
        <time>2023-08-10T14:11:59Z</time>
      </trkpt>
      <trkpt lat="45.19788" lon="5.99097">
        <ele>2374.59</ele>
        <time>2023-08-10T14:12:15Z</time>
      </trkpt>
      <trkpt lat="45.19787" lon="5.99106">
        <ele>2375.55</ele>
        <time>2023-08-10T14:12:32Z</time>
      </trkpt>
      <trkpt lat="45.19791" lon="5.99112">
        <ele>2374.59</ele>
        <time>2023-08-10T14:12:39Z</time>
      </trkpt>
      <trkpt lat="45.19801" lon="5.99117">
        <ele>2372.67</ele>
        <time>2023-08-10T14:12:55Z</time>
      </trkpt>
      <trkpt lat="45.19815" lon="5.99117">
        <ele>2371.23</ele>
        <time>2023-08-10T14:13:11Z</time>
      </trkpt>
      <trkpt lat="45.19826" lon="5.99122">
        <ele>2371.23</ele>
        <time>2023-08-10T14:13:27Z</time>
      </trkpt>
      <trkpt lat="45.19838" lon="5.99129">
        <ele>2372.19</ele>
        <time>2023-08-10T14:13:43Z</time>
      </trkpt>
      <trkpt lat="45.1985" lon="5.99135">
        <ele>2372.19</ele>
        <time>2023-08-10T14:13:59Z</time>
      </trkpt>
      <trkpt lat="45.19859" lon="5.99146">
        <ele>2370.75</ele>
        <time>2023-08-10T14:14:12Z</time>
      </trkpt>
      <trkpt lat="45.19862" lon="5.99162">
        <ele>2368.83</ele>
        <time>2023-08-10T14:14:28Z</time>
      </trkpt>
      <trkpt lat="45.19865" lon="5.99178">
        <ele>2367.86</ele>
        <time>2023-08-10T14:14:44Z</time>
      </trkpt>
      <trkpt lat="45.1987" lon="5.99187">
        <ele>2365.46</ele>
        <time>2023-08-10T14:14:58Z</time>
      </trkpt>
      <trkpt lat="45.19874" lon="5.99195">
        <ele>2363.54</ele>
        <time>2023-08-10T14:15:10Z</time>
      </trkpt>
      <trkpt lat="45.19876" lon="5.992">
        <ele>2361.14</ele>
        <time>2023-08-10T14:15:25Z</time>
      </trkpt>
      <trkpt lat="45.19881" lon="5.99201">
        <ele>2358.73</ele>
        <time>2023-08-10T14:15:34Z</time>
      </trkpt>
      <trkpt lat="45.19881" lon="5.99216">
        <ele>2357.29</ele>
        <time>2023-08-10T14:15:48Z</time>
      </trkpt>
      <trkpt lat="45.19874" lon="5.99225">
        <ele>2354.89</ele>
        <time>2023-08-10T14:16:04Z</time>
      </trkpt>
      <trkpt lat="45.19866" lon="5.99237">
        <ele>2352.96</ele>
        <time>2023-08-10T14:16:20Z</time>
      </trkpt>
      <trkpt lat="45.19856" lon="5.99246">
        <ele>2350.56</ele>
        <time>2023-08-10T14:16:38Z</time>
      </trkpt>
      <trkpt lat="45.19855" lon="5.99247">
        <ele>2349.12</ele>
        <time>2023-08-10T14:16:41Z</time>
      </trkpt>
      <trkpt lat="45.19851" lon="5.99256">
        <ele>2349.12</ele>
        <time>2023-08-10T14:16:57Z</time>
      </trkpt>
      <trkpt lat="45.19851" lon="5.99266">
        <ele>2349.12</ele>
        <time>2023-08-10T14:17:10Z</time>
      </trkpt>
      <trkpt lat="45.19853" lon="5.99278">
        <ele>2349.12</ele>
        <time>2023-08-10T14:17:25Z</time>
      </trkpt>
      <trkpt lat="45.19854" lon="5.99295">
        <ele>2347.68</ele>
        <time>2023-08-10T14:17:41Z</time>
      </trkpt>
      <trkpt lat="45.19849" lon="5.9931">
        <ele>2347.68</ele>
        <time>2023-08-10T14:17:59Z</time>
      </trkpt>
      <trkpt lat="45.19849" lon="5.99311">
        <ele>2346.23</ele>
        <time>2023-08-10T14:18:01Z</time>
      </trkpt>
      <trkpt lat="45.19845" lon="5.99332">
        <ele>2345.27</ele>
        <time>2023-08-10T14:18:19Z</time>
      </trkpt>
      <trkpt lat="45.19844" lon="5.99346">
        <ele>2342.39</ele>
        <time>2023-08-10T14:18:36Z</time>
      </trkpt>
      <trkpt lat="45.19839" lon="5.99353">
        <ele>2338.54</ele>
        <time>2023-08-10T14:18:52Z</time>
      </trkpt>
      <trkpt lat="45.19852" lon="5.99354">
        <ele>2336.14</ele>
        <time>2023-08-10T14:19:09Z</time>
      </trkpt>
      <trkpt lat="45.19859" lon="5.99363">
        <ele>2334.22</ele>
        <time>2023-08-10T14:19:27Z</time>
      </trkpt>
      <trkpt lat="45.19858" lon="5.99376">
        <ele>2332.78</ele>
        <time>2023-08-10T14:19:41Z</time>
      </trkpt>
      <trkpt lat="45.19861" lon="5.9938">
        <ele>2334.22</ele>
        <time>2023-08-10T14:19:53Z</time>
      </trkpt>
      <trkpt lat="45.19858" lon="5.99395">
        <ele>2334.22</ele>
        <time>2023-08-10T14:20:14Z</time>
      </trkpt>
      <trkpt lat="45.1986" lon="5.99406">
        <ele>2334.22</ele>
        <time>2023-08-10T14:20:22Z</time>
      </trkpt>
      <trkpt lat="45.19861" lon="5.9941">
        <ele>2332.78</ele>
        <time>2023-08-10T14:20:25Z</time>
      </trkpt>
      <trkpt lat="45.19864" lon="5.9943">
        <ele>2329.89</ele>
        <time>2023-08-10T14:20:43Z</time>
      </trkpt>
      <trkpt lat="45.19867" lon="5.99448">
        <ele>2327.97</ele>
        <time>2023-08-10T14:21:00Z</time>
      </trkpt>
      <trkpt lat="45.19862" lon="5.99464">
        <ele>2327.97</ele>
        <time>2023-08-10T14:21:18Z</time>
      </trkpt>
      <trkpt lat="45.19857" lon="5.99472">
        <ele>2327.01</ele>
        <time>2023-08-10T14:21:35Z</time>
      </trkpt>
      <trkpt lat="45.19856" lon="5.99472">
        <ele>2328.45</ele>
        <time>2023-08-10T14:21:38Z</time>
      </trkpt>
      <trkpt lat="45.1987" lon="5.99469">
        <ele>2329.41</ele>
        <time>2023-08-10T14:21:52Z</time>
      </trkpt>
      <trkpt lat="45.19885" lon="5.99463">
        <ele>2329.41</ele>
        <time>2023-08-10T14:22:07Z</time>
      </trkpt>
      <trkpt lat="45.19891" lon="5.99458">
        <ele>2328.93</ele>
        <time>2023-08-10T14:22:18Z</time>
      </trkpt>
      <trkpt lat="45.19898" lon="5.99458">
        <ele>2327.01</ele>
        <time>2023-08-10T14:22:36Z</time>
      </trkpt>
      <trkpt lat="45.19908" lon="5.99449">
        <ele>2327.01</ele>
        <time>2023-08-10T14:22:52Z</time>
      </trkpt>
      <trkpt lat="45.19916" lon="5.99442">
        <ele>2327.01</ele>
        <time>2023-08-10T14:23:04Z</time>
      </trkpt>
      <trkpt lat="45.19928" lon="5.99432">
        <ele>2325.09</ele>
        <time>2023-08-10T14:23:20Z</time>
      </trkpt>
      <trkpt lat="45.19935" lon="5.99423">
        <ele>2325.57</ele>
        <time>2023-08-10T14:23:37Z</time>
      </trkpt>
      <trkpt lat="45.19941" lon="5.99422">
        <ele>2325.57</ele>
        <time>2023-08-10T14:23:57Z</time>
      </trkpt>
      <trkpt lat="45.19943" lon="5.99423">
        <ele>2327.01</ele>
        <time>2023-08-10T14:24:00Z</time>
      </trkpt>
      <trkpt lat="45.19948" lon="5.99416">
        <ele>2328.45</ele>
        <time>2023-08-10T14:24:15Z</time>
      </trkpt>
      <trkpt lat="45.19957" lon="5.99415">
        <ele>2328.93</ele>
        <time>2023-08-10T14:24:30Z</time>
      </trkpt>
      <trkpt lat="45.19961" lon="5.99423">
        <ele>2330.85</ele>
        <time>2023-08-10T14:24:44Z</time>
      </trkpt>
      <trkpt lat="45.19958" lon="5.99435">
        <ele>2332.3</ele>
        <time>2023-08-10T14:25:02Z</time>
      </trkpt>
      <trkpt lat="45.19959" lon="5.99441">
        <ele>2333.26</ele>
        <time>2023-08-10T14:25:19Z</time>
      </trkpt>
      <trkpt lat="45.19959" lon="5.9945">
        <ele>2335.18</ele>
        <time>2023-08-10T14:25:38Z</time>
      </trkpt>
      <trkpt lat="45.19961" lon="5.99458">
        <ele>2338.06</ele>
        <time>2023-08-10T14:25:59Z</time>
      </trkpt>
      <trkpt lat="45.19964" lon="5.99467">
        <ele>2339.51</ele>
        <time>2023-08-10T14:26:16Z</time>
      </trkpt>
      <trkpt lat="45.19965" lon="5.99478">
        <ele>2341.91</ele>
        <time>2023-08-10T14:26:34Z</time>
      </trkpt>
      <trkpt lat="45.19962" lon="5.99488">
        <ele>2343.35</ele>
        <time>2023-08-10T14:26:51Z</time>
      </trkpt>
      <trkpt lat="45.19962" lon="5.99497">
        <ele>2345.75</ele>
        <time>2023-08-10T14:27:10Z</time>
      </trkpt>
      <trkpt lat="45.19965" lon="5.99499">
        <ele>2347.68</ele>
        <time>2023-08-10T14:27:30Z</time>
      </trkpt>
      <trkpt lat="45.19973" lon="5.99496">
        <ele>2349.12</ele>
        <time>2023-08-10T14:27:46Z</time>
      </trkpt>
      <trkpt lat="45.19976" lon="5.99497">
        <ele>2351.52</ele>
        <time>2023-08-10T14:28:03Z</time>
      </trkpt>
      <trkpt lat="45.19974" lon="5.99506">
        <ele>2352.48</ele>
        <time>2023-08-10T14:28:28Z</time>
      </trkpt>
      <trkpt lat="45.1997" lon="5.99508">
        <ele>2353.44</ele>
        <time>2023-08-10T14:28:57Z</time>
      </trkpt>
      <trkpt lat="45.19967" lon="5.9952">
        <ele>2356.81</ele>
        <time>2023-08-10T14:29:19Z</time>
      </trkpt>
      <trkpt lat="45.1997" lon="5.99528">
        <ele>2358.73</ele>
        <time>2023-08-10T14:29:34Z</time>
      </trkpt>
      <trkpt lat="45.1998" lon="5.99528">
        <ele>2360.17</ele>
        <time>2023-08-10T14:29:53Z</time>
      </trkpt>
      <trkpt lat="45.19985" lon="5.99533">
        <ele>2361.14</ele>
        <time>2023-08-10T14:30:15Z</time>
      </trkpt>
      <trkpt lat="45.19989" lon="5.99536">
        <ele>2364.5</ele>
        <time>2023-08-10T14:30:28Z</time>
      </trkpt>
      <trkpt lat="45.19992" lon="5.99545">
        <ele>2366.42</ele>
        <time>2023-08-10T14:30:45Z</time>
      </trkpt>
      <trkpt lat="45.19994" lon="5.99552">
        <ele>2367.86</ele>
        <time>2023-08-10T14:31:00Z</time>
      </trkpt>
      <trkpt lat="45.19994" lon="5.99559">
        <ele>2370.27</ele>
        <time>2023-08-10T14:31:18Z</time>
      </trkpt>
      <trkpt lat="45.19988" lon="5.99561">
        <ele>2370.27</ele>
        <time>2023-08-10T14:31:42Z</time>
      </trkpt>
      <trkpt lat="45.19993" lon="5.99566">
        <ele>2372.19</ele>
        <time>2023-08-10T14:31:57Z</time>
      </trkpt>
      <trkpt lat="45.19997" lon="5.99575">
        <ele>2374.59</ele>
        <time>2023-08-10T14:32:12Z</time>
      </trkpt>
      <trkpt lat="45.19999" lon="5.9959">
        <ele>2376.04</ele>
        <time>2023-08-10T14:32:27Z</time>
      </trkpt>
      <trkpt lat="45.20006" lon="5.99587">
        <ele>2378.92</ele>
        <time>2023-08-10T14:32:43Z</time>
      </trkpt>
      <trkpt lat="45.20013" lon="5.99588">
        <ele>2381.32</ele>
        <time>2023-08-10T14:33:02Z</time>
      </trkpt>
      <trkpt lat="45.20016" lon="5.99588">
        <ele>2383.25</ele>
        <time>2023-08-10T14:33:23Z</time>
      </trkpt>
      <trkpt lat="45.2002" lon="5.99593">
        <ele>2385.17</ele>
        <time>2023-08-10T14:33:42Z</time>
      </trkpt>
      <trkpt lat="45.20026" lon="5.99591">
        <ele>2388.05</ele>
        <time>2023-08-10T14:33:58Z</time>
      </trkpt>
      <trkpt lat="45.20028" lon="5.99592">
        <ele>2389.01</ele>
        <time>2023-08-10T14:34:16Z</time>
      </trkpt>
      <trkpt lat="45.20022" lon="5.99615">
        <ele>2389.49</ele>
        <time>2023-08-10T14:34:52Z</time>
      </trkpt>
      <trkpt lat="45.20033" lon="5.99605">
        <ele>2392.38</ele>
        <time>2023-08-10T14:35:06Z</time>
      </trkpt>
      <trkpt lat="45.20035" lon="5.996">
        <ele>2397.18</ele>
        <time>2023-08-10T14:35:46Z</time>
      </trkpt>
      <trkpt lat="45.20036" lon="5.9961">
        <ele>2398.63</ele>
        <time>2023-08-10T14:36:01Z</time>
      </trkpt>
      <trkpt lat="45.20044" lon="5.99614">
        <ele>2400.07</ele>
        <time>2023-08-10T14:36:17Z</time>
      </trkpt>
      <trkpt lat="45.20048" lon="5.99612">
        <ele>2400.55</ele>
        <time>2023-08-10T14:36:33Z</time>
      </trkpt>
      <trkpt lat="45.20052" lon="5.99632">
        <ele>2399.59</ele>
        <time>2023-08-10T14:36:49Z</time>
      </trkpt>
      <trkpt lat="45.20056" lon="5.99637">
        <ele>2401.03</ele>
        <time>2023-08-10T14:37:04Z</time>
      </trkpt>
      <trkpt lat="45.20057" lon="5.99649">
        <ele>2402.95</ele>
        <time>2023-08-10T14:37:20Z</time>
      </trkpt>
      <trkpt lat="45.20056" lon="5.99663">
        <ele>2402.95</ele>
        <time>2023-08-10T14:37:36Z</time>
      </trkpt>
      <trkpt lat="45.20056" lon="5.99669">
        <ele>2403.91</ele>
        <time>2023-08-10T14:37:48Z</time>
      </trkpt>
      <trkpt lat="45.20058" lon="5.99681">
        <ele>2405.84</ele>
        <time>2023-08-10T14:38:06Z</time>
      </trkpt>
      <trkpt lat="45.20059" lon="5.99695">
        <ele>2406.8</ele>
        <time>2023-08-10T14:38:22Z</time>
      </trkpt>
      <trkpt lat="45.20058" lon="5.9971">
        <ele>2406.8</ele>
        <time>2023-08-10T14:38:37Z</time>
      </trkpt>
      <trkpt lat="45.20058" lon="5.99712">
        <ele>2405.36</ele>
        <time>2023-08-10T14:38:39Z</time>
      </trkpt>
      <trkpt lat="45.20062" lon="5.99722">
        <ele>2404.39</ele>
        <time>2023-08-10T14:38:53Z</time>
      </trkpt>
      <trkpt lat="45.20064" lon="5.99726">
        <ele>2405.84</ele>
        <time>2023-08-10T14:39:02Z</time>
      </trkpt>
      <trkpt lat="45.20067" lon="5.99736">
        <ele>2408.72</ele>
        <time>2023-08-10T14:39:19Z</time>
      </trkpt>
      <trkpt lat="45.2007" lon="5.99745">
        <ele>2410.64</ele>
        <time>2023-08-10T14:39:38Z</time>
      </trkpt>
      <trkpt lat="45.20071" lon="5.99745">
        <ele>2412.09</ele>
        <time>2023-08-10T14:39:40Z</time>
      </trkpt>
      <trkpt lat="45.20074" lon="5.99754">
        <ele>2414.01</ele>
        <time>2023-08-10T14:39:57Z</time>
      </trkpt>
      <trkpt lat="45.20079" lon="5.99756">
        <ele>2415.93</ele>
        <time>2023-08-10T14:40:16Z</time>
      </trkpt>
      <trkpt lat="45.20078" lon="5.99767">
        <ele>2417.37</ele>
        <time>2023-08-10T14:40:36Z</time>
      </trkpt>
      <trkpt lat="45.20078" lon="5.99775">
        <ele>2417.85</ele>
        <time>2023-08-10T14:40:58Z</time>
      </trkpt>
      <trkpt lat="45.20084" lon="5.9978">
        <ele>2419.78</ele>
        <time>2023-08-10T14:41:14Z</time>
      </trkpt>
      <trkpt lat="45.20087" lon="5.99779">
        <ele>2421.7</ele>
        <time>2023-08-10T14:41:19Z</time>
      </trkpt>
      <trkpt lat="45.20098" lon="5.99776">
        <ele>2423.62</ele>
        <time>2023-08-10T14:41:41Z</time>
      </trkpt>
      <trkpt lat="45.20103" lon="5.99776">
        <ele>2426.02</ele>
        <time>2023-08-10T14:42:00Z</time>
      </trkpt>
      <trkpt lat="45.20104" lon="5.99786">
        <ele>2428.43</ele>
        <time>2023-08-10T14:42:17Z</time>
      </trkpt>
      <trkpt lat="45.20107" lon="5.9979">
        <ele>2430.83</ele>
        <time>2023-08-10T14:42:35Z</time>
      </trkpt>
      <trkpt lat="45.20111" lon="5.99801">
        <ele>2432.75</ele>
        <time>2023-08-10T14:42:53Z</time>
      </trkpt>
      <trkpt lat="45.20113" lon="5.99812">
        <ele>2434.68</ele>
        <time>2023-08-10T14:43:09Z</time>
      </trkpt>
      <trkpt lat="45.20116" lon="5.99822">
        <ele>2436.12</ele>
        <time>2023-08-10T14:43:26Z</time>
      </trkpt>
      <trkpt lat="45.20123" lon="5.99829">
        <ele>2437.08</ele>
        <time>2023-08-10T14:43:41Z</time>
      </trkpt>
      <trkpt lat="45.20127" lon="5.99838">
        <ele>2439</ele>
        <time>2023-08-10T14:44:02Z</time>
      </trkpt>
      <trkpt lat="45.20124" lon="5.99856">
        <ele>2439.96</ele>
        <time>2023-08-10T14:44:21Z</time>
      </trkpt>
      <trkpt lat="45.20121" lon="5.9987">
        <ele>2440.92</ele>
        <time>2023-08-10T14:44:37Z</time>
      </trkpt>
      <trkpt lat="45.20128" lon="5.99877">
        <ele>2443.33</ele>
        <time>2023-08-10T14:44:55Z</time>
      </trkpt>
      <trkpt lat="45.20139" lon="5.99876">
        <ele>2445.25</ele>
        <time>2023-08-10T14:45:12Z</time>
      </trkpt>
      <trkpt lat="45.20135" lon="5.99884">
        <ele>2446.69</ele>
        <time>2023-08-10T14:45:25Z</time>
      </trkpt>
      <trkpt lat="45.20134" lon="5.99893">
        <ele>2448.13</ele>
        <time>2023-08-10T14:45:38Z</time>
      </trkpt>
      <trkpt lat="45.20132" lon="5.99905">
        <ele>2449.58</ele>
        <time>2023-08-10T14:45:53Z</time>
      </trkpt>
      <trkpt lat="45.20134" lon="5.99912">
        <ele>2451.98</ele>
        <time>2023-08-10T14:46:10Z</time>
      </trkpt>
      <trkpt lat="45.20135" lon="5.99918">
        <ele>2453.42</ele>
        <time>2023-08-10T14:46:22Z</time>
      </trkpt>
      <trkpt lat="45.20137" lon="5.99926">
        <ele>2455.34</ele>
        <time>2023-08-10T14:46:35Z</time>
      </trkpt>
      <trkpt lat="45.20135" lon="5.99931">
        <ele>2456.79</ele>
        <time>2023-08-10T14:46:47Z</time>
      </trkpt>
      <trkpt lat="45.20134" lon="5.99938">
        <ele>2458.23</ele>
        <time>2023-08-10T14:46:58Z</time>
      </trkpt>
      <trkpt lat="45.20136" lon="5.99942">
        <ele>2458.71</ele>
        <time>2023-08-10T14:47:10Z</time>
      </trkpt>
      <trkpt lat="45.20142" lon="5.99948">
        <ele>2463.52</ele>
        <time>2023-08-10T14:59:56Z</time>
      </trkpt>
      <trkpt lat="45.20142" lon="5.99951">
        <ele>2461.11</ele>
        <time>2023-08-10T15:00:09Z</time>
      </trkpt>
      <trkpt lat="45.20142" lon="5.99956">
        <ele>2459.67</ele>
        <time>2023-08-10T15:00:20Z</time>
      </trkpt>
      <trkpt lat="45.20143" lon="5.99964">
        <ele>2457.75</ele>
        <time>2023-08-10T15:00:29Z</time>
      </trkpt>
      <trkpt lat="45.20143" lon="5.99972">
        <ele>2455.34</ele>
        <time>2023-08-10T15:00:41Z</time>
      </trkpt>
      <trkpt lat="45.20145" lon="5.99979">
        <ele>2453.9</ele>
        <time>2023-08-10T15:00:51Z</time>
      </trkpt>
      <trkpt lat="45.20147" lon="5.99981">
        <ele>2453.9</ele>
        <time>2023-08-10T15:00:55Z</time>
      </trkpt>
      <trkpt lat="45.20149" lon="5.99986">
        <ele>2452.94</ele>
        <time>2023-08-10T15:01:06Z</time>
      </trkpt>
      <trkpt lat="45.20151" lon="5.99988">
        <ele>2452.46</ele>
        <time>2023-08-10T15:01:11Z</time>
      </trkpt>
      <trkpt lat="45.20153" lon="5.99995">
        <ele>2451.98</ele>
        <time>2023-08-10T15:01:18Z</time>
      </trkpt>
      <trkpt lat="45.20156" lon="6">
        <ele>2451.98</ele>
        <time>2023-08-10T15:01:30Z</time>
      </trkpt>
      <trkpt lat="45.20156" lon="6">
        <ele>2451.98</ele>
        <time>2023-08-10T15:01:39Z</time>
      </trkpt>
      <trkpt lat="45.20159" lon="6.00002">
        <ele>2451.5</ele>
        <time>2023-08-10T15:01:48Z</time>
      </trkpt>
      <trkpt lat="45.20161" lon="6.00008">
        <ele>2449.58</ele>
        <time>2023-08-10T15:02:03Z</time>
      </trkpt>
      <trkpt lat="45.20163" lon="6.00014">
        <ele>2447.65</ele>
        <time>2023-08-10T15:02:15Z</time>
      </trkpt>
      <trkpt lat="45.20165" lon="6.00019">
        <ele>2445.73</ele>
        <time>2023-08-10T15:02:27Z</time>
      </trkpt>
      <trkpt lat="45.20167" lon="6.00019">
        <ele>2445.73</ele>
        <time>2023-08-10T15:02:41Z</time>
      </trkpt>
      <trkpt lat="45.20168" lon="6.00022">
        <ele>2444.77</ele>
        <time>2023-08-10T15:02:53Z</time>
      </trkpt>
      <trkpt lat="45.20171" lon="6.00028">
        <ele>2441.89</ele>
        <time>2023-08-10T15:03:07Z</time>
      </trkpt>
      <trkpt lat="45.2017" lon="6.0003">
        <ele>2440.44</ele>
        <time>2023-08-10T15:03:17Z</time>
      </trkpt>
      <trkpt lat="45.20169" lon="6.00034">
        <ele>2438.52</ele>
        <time>2023-08-10T15:03:28Z</time>
      </trkpt>
      <trkpt lat="45.20169" lon="6.00035">
        <ele>2438.52</ele>
        <time>2023-08-10T15:03:29Z</time>
      </trkpt>
      <trkpt lat="45.20172" lon="6.00044">
        <ele>2436.12</ele>
        <time>2023-08-10T15:03:41Z</time>
      </trkpt>
      <trkpt lat="45.20174" lon="6.00048">
        <ele>2433.23</ele>
        <time>2023-08-10T15:03:54Z</time>
      </trkpt>
      <trkpt lat="45.20175" lon="6.00055">
        <ele>2431.31</ele>
        <time>2023-08-10T15:04:07Z</time>
      </trkpt>
      <trkpt lat="45.20176" lon="6.00057">
        <ele>2429.39</ele>
        <time>2023-08-10T15:04:19Z</time>
      </trkpt>
      <trkpt lat="45.20177" lon="6.00064">
        <ele>2427.47</ele>
        <time>2023-08-10T15:04:31Z</time>
      </trkpt>
      <trkpt lat="45.20182" lon="6.00069">
        <ele>2426.02</ele>
        <time>2023-08-10T15:04:43Z</time>
      </trkpt>
      <trkpt lat="45.20181" lon="6.00075">
        <ele>2424.1</ele>
        <time>2023-08-10T15:04:56Z</time>
      </trkpt>
      <trkpt lat="45.20183" lon="6.00082">
        <ele>2422.18</ele>
        <time>2023-08-10T15:05:07Z</time>
      </trkpt>
      <trkpt lat="45.20183" lon="6.00082">
        <ele>2422.18</ele>
        <time>2023-08-10T15:05:08Z</time>
      </trkpt>
      <trkpt lat="45.20183" lon="6.00085">
        <ele>2421.22</ele>
        <time>2023-08-10T15:05:15Z</time>
      </trkpt>
      <trkpt lat="45.20181" lon="6.00089">
        <ele>2419.78</ele>
        <time>2023-08-10T15:05:23Z</time>
      </trkpt>
      <trkpt lat="45.20187" lon="6.00094">
        <ele>2418.81</ele>
        <time>2023-08-10T15:05:36Z</time>
      </trkpt>
      <trkpt lat="45.20191" lon="6.00097">
        <ele>2417.85</ele>
        <time>2023-08-10T15:05:50Z</time>
      </trkpt>
      <trkpt lat="45.20195" lon="6.00101">
        <ele>2415.45</ele>
        <time>2023-08-10T15:06:02Z</time>
      </trkpt>
      <trkpt lat="45.20196" lon="6.0011">
        <ele>2413.05</ele>
        <time>2023-08-10T15:06:15Z</time>
      </trkpt>
      <trkpt lat="45.20192" lon="6.00116">
        <ele>2411.6</ele>
        <time>2023-08-10T15:06:30Z</time>
      </trkpt>
      <trkpt lat="45.20193" lon="6.0012">
        <ele>2410.16</ele>
        <time>2023-08-10T15:06:42Z</time>
      </trkpt>
      <trkpt lat="45.20193" lon="6.00123">
        <ele>2408.24</ele>
        <time>2023-08-10T15:06:53Z</time>
      </trkpt>
      <trkpt lat="45.20194" lon="6.0013">
        <ele>2406.8</ele>
        <time>2023-08-10T15:07:04Z</time>
      </trkpt>
      <trkpt lat="45.20194" lon="6.00132">
        <ele>2405.36</ele>
        <time>2023-08-10T15:07:15Z</time>
      </trkpt>
      <trkpt lat="45.20196" lon="6.00135">
        <ele>2402.95</ele>
        <time>2023-08-10T15:07:28Z</time>
      </trkpt>
      <trkpt lat="45.20196" lon="6.00136">
        <ele>2402.47</ele>
        <time>2023-08-10T15:07:32Z</time>
      </trkpt>
      <trkpt lat="45.202" lon="6.00141">
        <ele>2400.07</ele>
        <time>2023-08-10T15:07:47Z</time>
      </trkpt>
      <trkpt lat="45.202" lon="6.00143">
        <ele>2399.59</ele>
        <time>2023-08-10T15:07:50Z</time>
      </trkpt>
      <trkpt lat="45.202" lon="6.0015">
        <ele>2398.15</ele>
        <time>2023-08-10T15:07:59Z</time>
      </trkpt>
      <trkpt lat="45.20202" lon="6.0015">
        <ele>2396.22</ele>
        <time>2023-08-10T15:08:11Z</time>
      </trkpt>
      <trkpt lat="45.20206" lon="6.00149">
        <ele>2394.3</ele>
        <time>2023-08-10T15:08:23Z</time>
      </trkpt>
      <trkpt lat="45.20207" lon="6.00155">
        <ele>2392.38</ele>
        <time>2023-08-10T15:08:33Z</time>
      </trkpt>
      <trkpt lat="45.20211" lon="6.00157">
        <ele>2389.97</ele>
        <time>2023-08-10T15:08:44Z</time>
      </trkpt>
      <trkpt lat="45.20214" lon="6.00157">
        <ele>2388.53</ele>
        <time>2023-08-10T15:08:54Z</time>
      </trkpt>
      <trkpt lat="45.20216" lon="6.00161">
        <ele>2385.65</ele>
        <time>2023-08-10T15:09:05Z</time>
      </trkpt>
      <trkpt lat="45.20219" lon="6.00162">
        <ele>2384.69</ele>
        <time>2023-08-10T15:09:16Z</time>
      </trkpt>
      <trkpt lat="45.20221" lon="6.00166">
        <ele>2383.25</ele>
        <time>2023-08-10T15:09:24Z</time>
      </trkpt>
      <trkpt lat="45.20218" lon="6.00174">
        <ele>2380.84</ele>
        <time>2023-08-10T15:09:36Z</time>
      </trkpt>
      <trkpt lat="45.20219" lon="6.00178">
        <ele>2379.88</ele>
        <time>2023-08-10T15:09:45Z</time>
      </trkpt>
      <trkpt lat="45.20218" lon="6.00182">
        <ele>2377.96</ele>
        <time>2023-08-10T15:09:55Z</time>
      </trkpt>
      <trkpt lat="45.20217" lon="6.00188">
        <ele>2376.52</ele>
        <time>2023-08-10T15:10:06Z</time>
      </trkpt>
      <trkpt lat="45.20217" lon="6.00191">
        <ele>2374.59</ele>
        <time>2023-08-10T15:10:16Z</time>
      </trkpt>
      <trkpt lat="45.20222" lon="6.00197">
        <ele>2372.19</ele>
        <time>2023-08-10T15:10:28Z</time>
      </trkpt>
      <trkpt lat="45.20227" lon="6.002">
        <ele>2370.27</ele>
        <time>2023-08-10T15:10:39Z</time>
      </trkpt>
      <trkpt lat="45.20231" lon="6.00199">
        <ele>2369.79</ele>
        <time>2023-08-10T15:10:49Z</time>
      </trkpt>
      <trkpt lat="45.2023" lon="6.00201">
        <ele>2369.79</ele>
        <time>2023-08-10T15:10:52Z</time>
      </trkpt>
      <trkpt lat="45.20232" lon="6.00206">
        <ele>2367.38</ele>
        <time>2023-08-10T15:11:02Z</time>
      </trkpt>
      <trkpt lat="45.20233" lon="6.00208">
        <ele>2364.98</ele>
        <time>2023-08-10T15:11:15Z</time>
      </trkpt>
      <trkpt lat="45.20237" lon="6.00215">
        <ele>2362.58</ele>
        <time>2023-08-10T15:11:26Z</time>
      </trkpt>
      <trkpt lat="45.20237" lon="6.00218">
        <ele>2361.14</ele>
        <time>2023-08-10T15:11:39Z</time>
      </trkpt>
      <trkpt lat="45.20236" lon="6.00222">
        <ele>2360.17</ele>
        <time>2023-08-10T15:11:51Z</time>
      </trkpt>
      <trkpt lat="45.20234" lon="6.00225">
        <ele>2358.25</ele>
        <time>2023-08-10T15:12:06Z</time>
      </trkpt>
      <trkpt lat="45.20235" lon="6.00233">
        <ele>2356.81</ele>
        <time>2023-08-10T15:12:19Z</time>
      </trkpt>
      <trkpt lat="45.20238" lon="6.00237">
        <ele>2354.41</ele>
        <time>2023-08-10T15:12:29Z</time>
      </trkpt>
      <trkpt lat="45.20239" lon="6.00242">
        <ele>2352.48</ele>
        <time>2023-08-10T15:12:38Z</time>
      </trkpt>
      <trkpt lat="45.20239" lon="6.00247">
        <ele>2350.56</ele>
        <time>2023-08-10T15:12:49Z</time>
      </trkpt>
      <trkpt lat="45.20239" lon="6.00252">
        <ele>2349.12</ele>
        <time>2023-08-10T15:12:58Z</time>
      </trkpt>
      <trkpt lat="45.20238" lon="6.00261">
        <ele>2347.2</ele>
        <time>2023-08-10T15:13:10Z</time>
      </trkpt>
      <trkpt lat="45.20242" lon="6.00266">
        <ele>2345.27</ele>
        <time>2023-08-10T15:13:21Z</time>
      </trkpt>
      <trkpt lat="45.20247" lon="6.00271">
        <ele>2343.83</ele>
        <time>2023-08-10T15:13:33Z</time>
      </trkpt>
      <trkpt lat="45.20251" lon="6.00275">
        <ele>2342.39</ele>
        <time>2023-08-10T15:13:44Z</time>
      </trkpt>
      <trkpt lat="45.20252" lon="6.00283">
        <ele>2342.39</ele>
        <time>2023-08-10T15:13:53Z</time>
      </trkpt>
      <trkpt lat="45.20253" lon="6.00285">
        <ele>2342.39</ele>
        <time>2023-08-10T15:13:55Z</time>
      </trkpt>
      <trkpt lat="45.2026" lon="6.00294">
        <ele>2340.47</ele>
        <time>2023-08-10T15:14:07Z</time>
      </trkpt>
      <trkpt lat="45.20261" lon="6.00296">
        <ele>2339.51</ele>
        <time>2023-08-10T15:14:13Z</time>
      </trkpt>
      <trkpt lat="45.20262" lon="6.00301">
        <ele>2338.54</ele>
        <time>2023-08-10T15:14:19Z</time>
      </trkpt>
      <trkpt lat="45.20263" lon="6.00308">
        <ele>2336.14</ele>
        <time>2023-08-10T15:14:28Z</time>
      </trkpt>
      <trkpt lat="45.20261" lon="6.00311">
        <ele>2336.14</ele>
        <time>2023-08-10T15:14:31Z</time>
      </trkpt>
      <trkpt lat="45.20257" lon="6.00323">
        <ele>2334.22</ele>
        <time>2023-08-10T15:14:45Z</time>
      </trkpt>
      <trkpt lat="45.20253" lon="6.00329">
        <ele>2331.81</ele>
        <time>2023-08-10T15:14:56Z</time>
      </trkpt>
      <trkpt lat="45.20252" lon="6.00339">
        <ele>2330.37</ele>
        <time>2023-08-10T15:15:09Z</time>
      </trkpt>
      <trkpt lat="45.20257" lon="6.00344">
        <ele>2327.97</ele>
        <time>2023-08-10T15:15:22Z</time>
      </trkpt>
      <trkpt lat="45.2026" lon="6.00347">
        <ele>2326.05</ele>
        <time>2023-08-10T15:15:34Z</time>
      </trkpt>
      <trkpt lat="45.20262" lon="6.00349">
        <ele>2324.61</ele>
        <time>2023-08-10T15:15:45Z</time>
      </trkpt>
      <trkpt lat="45.20264" lon="6.00355">
        <ele>2322.2</ele>
        <time>2023-08-10T15:15:57Z</time>
      </trkpt>
      <trkpt lat="45.20269" lon="6.00358">
        <ele>2319.8</ele>
        <time>2023-08-10T15:16:09Z</time>
      </trkpt>
      <trkpt lat="45.2027" lon="6.0036">
        <ele>2317.88</ele>
        <time>2023-08-10T15:16:23Z</time>
      </trkpt>
      <trkpt lat="45.2027" lon="6.00361">
        <ele>2317.88</ele>
        <time>2023-08-10T15:16:24Z</time>
      </trkpt>
      <trkpt lat="45.20273" lon="6.00362">
        <ele>2316.43</ele>
        <time>2023-08-10T15:16:31Z</time>
      </trkpt>
      <trkpt lat="45.20276" lon="6.00362">
        <ele>2314.51</ele>
        <time>2023-08-10T15:16:42Z</time>
      </trkpt>
      <trkpt lat="45.20277" lon="6.00366">
        <ele>2312.59</ele>
        <time>2023-08-10T15:16:53Z</time>
      </trkpt>
      <trkpt lat="45.20277" lon="6.00374">
        <ele>2309.7</ele>
        <time>2023-08-10T15:17:06Z</time>
      </trkpt>
      <trkpt lat="45.2028" lon="6.00377">
        <ele>2307.78</ele>
        <time>2023-08-10T15:17:16Z</time>
      </trkpt>
      <trkpt lat="45.20278" lon="6.00382">
        <ele>2306.82</ele>
        <time>2023-08-10T15:17:25Z</time>
      </trkpt>
      <trkpt lat="45.20278" lon="6.00386">
        <ele>2305.38</ele>
        <time>2023-08-10T15:17:34Z</time>
      </trkpt>
      <trkpt lat="45.20273" lon="6.00395">
        <ele>2305.38</ele>
        <time>2023-08-10T15:17:46Z</time>
      </trkpt>
      <trkpt lat="45.20275" lon="6.00401">
        <ele>2304.9</ele>
        <time>2023-08-10T15:17:52Z</time>
      </trkpt>
      <trkpt lat="45.20279" lon="6.00406">
        <ele>2302.98</ele>
        <time>2023-08-10T15:18:02Z</time>
      </trkpt>
      <trkpt lat="45.20282" lon="6.00409">
        <ele>2301.53</ele>
        <time>2023-08-10T15:18:18Z</time>
      </trkpt>
      <trkpt lat="45.20283" lon="6.0041">
        <ele>2301.05</ele>
        <time>2023-08-10T15:18:20Z</time>
      </trkpt>
      <trkpt lat="45.20286" lon="6.00412">
        <ele>2298.65</ele>
        <time>2023-08-10T15:18:30Z</time>
      </trkpt>
      <trkpt lat="45.20287" lon="6.00416">
        <ele>2296.73</ele>
        <time>2023-08-10T15:18:41Z</time>
      </trkpt>
      <trkpt lat="45.20288" lon="6.00425">
        <ele>2294.32</ele>
        <time>2023-08-10T15:18:52Z</time>
      </trkpt>
      <trkpt lat="45.20292" lon="6.00431">
        <ele>2292.88</ele>
        <time>2023-08-10T15:19:03Z</time>
      </trkpt>
      <trkpt lat="45.20295" lon="6.0044">
        <ele>2290.48</ele>
        <time>2023-08-10T15:19:15Z</time>
      </trkpt>
      <trkpt lat="45.20296" lon="6.00446">
        <ele>2288.08</ele>
        <time>2023-08-10T15:19:27Z</time>
      </trkpt>
      <trkpt lat="45.20297" lon="6.00453">
        <ele>2285.67</ele>
        <time>2023-08-10T15:19:39Z</time>
      </trkpt>
      <trkpt lat="45.20299" lon="6.00461">
        <ele>2284.23</ele>
        <time>2023-08-10T15:19:52Z</time>
      </trkpt>
      <trkpt lat="45.20299" lon="6.00465">
        <ele>2282.31</ele>
        <time>2023-08-10T15:20:02Z</time>
      </trkpt>
      <trkpt lat="45.20297" lon="6.00473">
        <ele>2281.35</ele>
        <time>2023-08-10T15:20:14Z</time>
      </trkpt>
      <trkpt lat="45.20296" lon="6.00482">
        <ele>2279.42</ele>
        <time>2023-08-10T15:20:25Z</time>
      </trkpt>
      <trkpt lat="45.20294" lon="6.00491">
        <ele>2277.02</ele>
        <time>2023-08-10T15:20:37Z</time>
      </trkpt>
      <trkpt lat="45.20292" lon="6.00493">
        <ele>2276.06</ele>
        <time>2023-08-10T15:20:41Z</time>
      </trkpt>
      <trkpt lat="45.2029" lon="6.00498">
        <ele>2274.14</ele>
        <time>2023-08-10T15:20:53Z</time>
      </trkpt>
      <trkpt lat="45.20287" lon="6.00503">
        <ele>2272.21</ele>
        <time>2023-08-10T15:21:04Z</time>
      </trkpt>
      <trkpt lat="45.20288" lon="6.00509">
        <ele>2269.81</ele>
        <time>2023-08-10T15:21:18Z</time>
      </trkpt>
      <trkpt lat="45.20286" lon="6.00511">
        <ele>2268.85</ele>
        <time>2023-08-10T15:21:25Z</time>
      </trkpt>
      <trkpt lat="45.20281" lon="6.00514">
        <ele>2267.89</ele>
        <time>2023-08-10T15:21:32Z</time>
      </trkpt>
      <trkpt lat="45.20281" lon="6.00517">
        <ele>2267.41</ele>
        <time>2023-08-10T15:21:34Z</time>
      </trkpt>
      <trkpt lat="45.20281" lon="6.00522">
        <ele>2265.48</ele>
        <time>2023-08-10T15:21:43Z</time>
      </trkpt>
      <trkpt lat="45.2028" lon="6.00524">
        <ele>2264.52</ele>
        <time>2023-08-10T15:21:48Z</time>
      </trkpt>
      <trkpt lat="45.20276" lon="6.00531">
        <ele>2262.12</ele>
        <time>2023-08-10T15:21:58Z</time>
      </trkpt>
      <trkpt lat="45.20277" lon="6.00539">
        <ele>2260.68</ele>
        <time>2023-08-10T15:22:08Z</time>
      </trkpt>
      <trkpt lat="45.20277" lon="6.00547">
        <ele>2258.27</ele>
        <time>2023-08-10T15:22:21Z</time>
      </trkpt>
      <trkpt lat="45.20277" lon="6.00558">
        <ele>2255.87</ele>
        <time>2023-08-10T15:22:34Z</time>
      </trkpt>
      <trkpt lat="45.20279" lon="6.00564">
        <ele>2254.91</ele>
        <time>2023-08-10T15:22:41Z</time>
      </trkpt>
      <trkpt lat="45.20283" lon="6.00568">
        <ele>2253.47</ele>
        <time>2023-08-10T15:22:47Z</time>
      </trkpt>
      <trkpt lat="45.20284" lon="6.00572">
        <ele>2253.47</ele>
        <time>2023-08-10T15:22:52Z</time>
      </trkpt>
      <trkpt lat="45.20285" lon="6.00576">
        <ele>2253.47</ele>
        <time>2023-08-10T15:22:55Z</time>
      </trkpt>
      <trkpt lat="45.20289" lon="6.00584">
        <ele>2253.47</ele>
        <time>2023-08-10T15:23:07Z</time>
      </trkpt>
      <trkpt lat="45.20285" lon="6.00592">
        <ele>2251.54</ele>
        <time>2023-08-10T15:23:20Z</time>
      </trkpt>
      <trkpt lat="45.20283" lon="6.00596">
        <ele>2250.58</ele>
        <time>2023-08-10T15:23:26Z</time>
      </trkpt>
      <trkpt lat="45.20279" lon="6.00601">
        <ele>2248.18</ele>
        <time>2023-08-10T15:23:38Z</time>
      </trkpt>
      <trkpt lat="45.20276" lon="6.00608">
        <ele>2245.78</ele>
        <time>2023-08-10T15:23:53Z</time>
      </trkpt>
      <trkpt lat="45.20269" lon="6.00613">
        <ele>2243.85</ele>
        <time>2023-08-10T15:24:07Z</time>
      </trkpt>
      <trkpt lat="45.20266" lon="6.00615">
        <ele>2243.37</ele>
        <time>2023-08-10T15:24:13Z</time>
      </trkpt>
      <trkpt lat="45.20265" lon="6.00618">
        <ele>2242.89</ele>
        <time>2023-08-10T15:24:15Z</time>
      </trkpt>
      <trkpt lat="45.20265" lon="6.00628">
        <ele>2240.97</ele>
        <time>2023-08-10T15:24:27Z</time>
      </trkpt>
      <trkpt lat="45.20264" lon="6.00638">
        <ele>2239.05</ele>
        <time>2023-08-10T15:24:39Z</time>
      </trkpt>
      <trkpt lat="45.20266" lon="6.00649">
        <ele>2238.09</ele>
        <time>2023-08-10T15:24:51Z</time>
      </trkpt>
      <trkpt lat="45.20266" lon="6.00659">
        <ele>2237.13</ele>
        <time>2023-08-10T15:25:03Z</time>
      </trkpt>
      <trkpt lat="45.20266" lon="6.00665">
        <ele>2235.2</ele>
        <time>2023-08-10T15:25:13Z</time>
      </trkpt>
      <trkpt lat="45.20266" lon="6.00669">
        <ele>2233.76</ele>
        <time>2023-08-10T15:25:25Z</time>
      </trkpt>
      <trkpt lat="45.20266" lon="6.00675">
        <ele>2232.32</ele>
        <time>2023-08-10T15:25:36Z</time>
      </trkpt>
      <trkpt lat="45.20265" lon="6.0068">
        <ele>2231.36</ele>
        <time>2023-08-10T15:25:48Z</time>
      </trkpt>
      <trkpt lat="45.20266" lon="6.00686">
        <ele>2229.92</ele>
        <time>2023-08-10T15:26:01Z</time>
      </trkpt>
      <trkpt lat="45.20266" lon="6.00694">
        <ele>2228.95</ele>
        <time>2023-08-10T15:26:12Z</time>
      </trkpt>
      <trkpt lat="45.2027" lon="6.00694">
        <ele>2228.95</ele>
        <time>2023-08-10T15:26:26Z</time>
      </trkpt>
      <trkpt lat="45.20275" lon="6.00692">
        <ele>2228.95</ele>
        <time>2023-08-10T15:26:39Z</time>
      </trkpt>
      <trkpt lat="45.20278" lon="6.00694">
        <ele>2227.99</ele>
        <time>2023-08-10T15:26:50Z</time>
      </trkpt>
      <trkpt lat="45.20279" lon="6.00695">
        <ele>2227.99</ele>
        <time>2023-08-10T15:26:55Z</time>
      </trkpt>
      <trkpt lat="45.20281" lon="6.00695">
        <ele>2226.55</ele>
        <time>2023-08-10T15:27:10Z</time>
      </trkpt>
      <trkpt lat="45.20285" lon="6.007">
        <ele>2226.55</ele>
        <time>2023-08-10T15:27:23Z</time>
      </trkpt>
      <trkpt lat="45.20284" lon="6.00707">
        <ele>2225.11</ele>
        <time>2023-08-10T15:27:32Z</time>
      </trkpt>
      <trkpt lat="45.20284" lon="6.00714">
        <ele>2222.71</ele>
        <time>2023-08-10T15:27:45Z</time>
      </trkpt>
      <trkpt lat="45.20283" lon="6.00723">
        <ele>2221.26</ele>
        <time>2023-08-10T15:27:55Z</time>
      </trkpt>
      <trkpt lat="45.20284" lon="6.00722">
        <ele>2221.26</ele>
        <time>2023-08-10T15:28:11Z</time>
      </trkpt>
      <trkpt lat="45.20287" lon="6.00731">
        <ele>2220.3</ele>
        <time>2023-08-10T15:28:24Z</time>
      </trkpt>
      <trkpt lat="45.2029" lon="6.00735">
        <ele>2219.82</ele>
        <time>2023-08-10T15:28:33Z</time>
      </trkpt>
      <trkpt lat="45.20292" lon="6.00738">
        <ele>2218.38</ele>
        <time>2023-08-10T15:28:44Z</time>
      </trkpt>
      <trkpt lat="45.20293" lon="6.00742">
        <ele>2217.42</ele>
        <time>2023-08-10T15:28:55Z</time>
      </trkpt>
      <trkpt lat="45.20295" lon="6.00745">
        <ele>2215.98</ele>
        <time>2023-08-10T15:29:07Z</time>
      </trkpt>
      <trkpt lat="45.20299" lon="6.00752">
        <ele>2214.53</ele>
        <time>2023-08-10T15:29:20Z</time>
      </trkpt>
      <trkpt lat="45.20301" lon="6.0076">
        <ele>2212.13</ele>
        <time>2023-08-10T15:29:33Z</time>
      </trkpt>
      <trkpt lat="45.20305" lon="6.00768">
        <ele>2209.73</ele>
        <time>2023-08-10T15:29:47Z</time>
      </trkpt>
      <trkpt lat="45.20306" lon="6.00773">
        <ele>2207.81</ele>
        <time>2023-08-10T15:29:57Z</time>
      </trkpt>
      <trkpt lat="45.20304" lon="6.00781">
        <ele>2206.36</ele>
        <time>2023-08-10T15:30:10Z</time>
      </trkpt>
      <trkpt lat="45.20302" lon="6.00791">
        <ele>2204.92</ele>
        <time>2023-08-10T15:30:22Z</time>
      </trkpt>
      <trkpt lat="45.20302" lon="6.00791">
        <ele>2204.44</ele>
        <time>2023-08-10T15:30:23Z</time>
      </trkpt>
      <trkpt lat="45.203" lon="6.00794">
        <ele>2203.96</ele>
        <time>2023-08-10T15:30:33Z</time>
      </trkpt>
      <trkpt lat="45.20302" lon="6.00796">
        <ele>2203</ele>
        <time>2023-08-10T15:30:42Z</time>
      </trkpt>
      <trkpt lat="45.20303" lon="6.00806">
        <ele>2201.56</ele>
        <time>2023-08-10T15:30:54Z</time>
      </trkpt>
      <trkpt lat="45.20302" lon="6.00808">
        <ele>2201.08</ele>
        <time>2023-08-10T15:30:56Z</time>
      </trkpt>
      <trkpt lat="45.20303" lon="6.00818">
        <ele>2199.15</ele>
        <time>2023-08-10T15:31:08Z</time>
      </trkpt>
      <trkpt lat="45.20302" lon="6.00825">
        <ele>2197.23</ele>
        <time>2023-08-10T15:31:18Z</time>
      </trkpt>
      <trkpt lat="45.20305" lon="6.00833">
        <ele>2196.75</ele>
        <time>2023-08-10T15:31:29Z</time>
      </trkpt>
      <trkpt lat="45.20304" lon="6.00835">
        <ele>2196.75</ele>
        <time>2023-08-10T15:31:39Z</time>
      </trkpt>
      <trkpt lat="45.20306" lon="6.00842">
        <ele>2196.75</ele>
        <time>2023-08-10T15:31:51Z</time>
      </trkpt>
      <trkpt lat="45.20312" lon="6.00847">
        <ele>2196.75</ele>
        <time>2023-08-10T15:32:03Z</time>
      </trkpt>
      <trkpt lat="45.20316" lon="6.00847">
        <ele>2196.27</ele>
        <time>2023-08-10T15:32:15Z</time>
      </trkpt>
      <trkpt lat="45.20322" lon="6.00845">
        <ele>2195.79</ele>
        <time>2023-08-10T15:32:27Z</time>
      </trkpt>
      <trkpt lat="45.20328" lon="6.00845">
        <ele>2195.31</ele>
        <time>2023-08-10T15:32:38Z</time>
      </trkpt>
      <trkpt lat="45.20332" lon="6.00841">
        <ele>2194.35</ele>
        <time>2023-08-10T15:32:51Z</time>
      </trkpt>
      <trkpt lat="45.20333" lon="6.0084">
        <ele>2194.35</ele>
        <time>2023-08-10T15:32:53Z</time>
      </trkpt>
      <trkpt lat="45.20338" lon="6.00833">
        <ele>2194.35</ele>
        <time>2023-08-10T15:33:04Z</time>
      </trkpt>
      <trkpt lat="45.20342" lon="6.00837">
        <ele>2193.87</ele>
        <time>2023-08-10T15:33:16Z</time>
      </trkpt>
      <trkpt lat="45.20343" lon="6.00843">
        <ele>2192.9</ele>
        <time>2023-08-10T15:33:27Z</time>
      </trkpt>
      <trkpt lat="45.20346" lon="6.00844">
        <ele>2190.98</ele>
        <time>2023-08-10T15:33:37Z</time>
      </trkpt>
      <trkpt lat="45.20354" lon="6.00848">
        <ele>2190.02</ele>
        <time>2023-08-10T15:33:51Z</time>
      </trkpt>
      <trkpt lat="45.20355" lon="6.00856">
        <ele>2190.02</ele>
        <time>2023-08-10T15:34:02Z</time>
      </trkpt>
      <trkpt lat="45.20359" lon="6.0086">
        <ele>2191.46</ele>
        <time>2023-08-10T15:34:14Z</time>
      </trkpt>
      <trkpt lat="45.20359" lon="6.0086">
        <ele>2191.46</ele>
        <time>2023-08-10T15:34:15Z</time>
      </trkpt>
      <trkpt lat="45.20362" lon="6.00866">
        <ele>2190.02</ele>
        <time>2023-08-10T15:34:22Z</time>
      </trkpt>
      <trkpt lat="45.2037" lon="6.00872">
        <ele>2189.06</ele>
        <time>2023-08-10T15:34:35Z</time>
      </trkpt>
      <trkpt lat="45.20374" lon="6.00878">
        <ele>2188.1</ele>
        <time>2023-08-10T15:34:47Z</time>
      </trkpt>
      <trkpt lat="45.20368" lon="6.00882">
        <ele>2187.14</ele>
        <time>2023-08-10T15:35:01Z</time>
      </trkpt>
      <trkpt lat="45.20365" lon="6.00888">
        <ele>2185.21</ele>
        <time>2023-08-10T15:35:15Z</time>
      </trkpt>
      <trkpt lat="45.20364" lon="6.00891">
        <ele>2184.25</ele>
        <time>2023-08-10T15:35:30Z</time>
      </trkpt>
      <trkpt lat="45.20362" lon="6.00899">
        <ele>2182.81</ele>
        <time>2023-08-10T15:35:45Z</time>
      </trkpt>
      <trkpt lat="45.20363" lon="6.00904">
        <ele>2180.89</ele>
        <time>2023-08-10T15:35:58Z</time>
      </trkpt>
      <trkpt lat="45.20363" lon="6.00904">
        <ele>2180.41</ele>
        <time>2023-08-10T15:36:00Z</time>
      </trkpt>
      <trkpt lat="45.20364" lon="6.00905">
        <ele>2180.41</ele>
        <time>2023-08-10T15:36:02Z</time>
      </trkpt>
      <trkpt lat="45.20365" lon="6.00908">
        <ele>2178.48</ele>
        <time>2023-08-10T15:36:14Z</time>
      </trkpt>
      <trkpt lat="45.20362" lon="6.00911">
        <ele>2176.56</ele>
        <time>2023-08-10T15:36:28Z</time>
      </trkpt>
      <trkpt lat="45.20361" lon="6.00919">
        <ele>2175.12</ele>
        <time>2023-08-10T15:36:39Z</time>
      </trkpt>
      <trkpt lat="45.20362" lon="6.00924">
        <ele>2174.16</ele>
        <time>2023-08-10T15:36:47Z</time>
      </trkpt>
      <trkpt lat="45.20363" lon="6.00931">
        <ele>2171.27</ele>
        <time>2023-08-10T15:36:59Z</time>
      </trkpt>
      <trkpt lat="45.20364" lon="6.00932">
        <ele>2171.27</ele>
        <time>2023-08-10T15:37:02Z</time>
      </trkpt>
      <trkpt lat="45.20365" lon="6.00937">
        <ele>2169.83</ele>
        <time>2023-08-10T15:37:14Z</time>
      </trkpt>
      <trkpt lat="45.20364" lon="6.0094">
        <ele>2168.87</ele>
        <time>2023-08-10T15:37:24Z</time>
      </trkpt>
      <trkpt lat="45.20365" lon="6.00944">
        <ele>2168.39</ele>
        <time>2023-08-10T15:37:31Z</time>
      </trkpt>
      <trkpt lat="45.2037" lon="6.00948">
        <ele>2166.95</ele>
        <time>2023-08-10T15:37:42Z</time>
      </trkpt>
      <trkpt lat="45.20376" lon="6.00952">
        <ele>2165.99</ele>
        <time>2023-08-10T15:37:55Z</time>
      </trkpt>
      <trkpt lat="45.20374" lon="6.00954">
        <ele>2165.03</ele>
        <time>2023-08-10T15:38:06Z</time>
      </trkpt>
      <trkpt lat="45.20378" lon="6.00958">
        <ele>2163.58</ele>
        <time>2023-08-10T15:38:17Z</time>
      </trkpt>
      <trkpt lat="45.20378" lon="6.00959">
        <ele>2163.58</ele>
        <time>2023-08-10T15:38:18Z</time>
      </trkpt>
      <trkpt lat="45.2038" lon="6.00963">
        <ele>2162.62</ele>
        <time>2023-08-10T15:38:30Z</time>
      </trkpt>
      <trkpt lat="45.20382" lon="6.00964">
        <ele>2161.66</ele>
        <time>2023-08-10T15:38:41Z</time>
      </trkpt>
      <trkpt lat="45.20382" lon="6.00967">
        <ele>2160.7</ele>
        <time>2023-08-10T15:38:52Z</time>
      </trkpt>
      <trkpt lat="45.20383" lon="6.00969">
        <ele>2160.22</ele>
        <time>2023-08-10T15:38:57Z</time>
      </trkpt>
      <trkpt lat="45.20383" lon="6.00971">
        <ele>2159.74</ele>
        <time>2023-08-10T15:39:00Z</time>
      </trkpt>
      <trkpt lat="45.20383" lon="6.00975">
        <ele>2158.78</ele>
        <time>2023-08-10T15:39:10Z</time>
      </trkpt>
      <trkpt lat="45.20384" lon="6.00978">
        <ele>2158.3</ele>
        <time>2023-08-10T15:39:12Z</time>
      </trkpt>
      <trkpt lat="45.20385" lon="6.00992">
        <ele>2156.86</ele>
        <time>2023-08-10T15:39:25Z</time>
      </trkpt>
      <trkpt lat="45.20388" lon="6.00995">
        <ele>2156.86</ele>
        <time>2023-08-10T15:39:30Z</time>
      </trkpt>
      <trkpt lat="45.2039" lon="6.01009">
        <ele>2155.89</ele>
        <time>2023-08-10T15:39:44Z</time>
      </trkpt>
      <trkpt lat="45.20389" lon="6.01013">
        <ele>2154.93</ele>
        <time>2023-08-10T15:39:48Z</time>
      </trkpt>
      <trkpt lat="45.20386" lon="6.01028">
        <ele>2153.97</ele>
        <time>2023-08-10T15:40:01Z</time>
      </trkpt>
      <trkpt lat="45.20386" lon="6.01032">
        <ele>2153.49</ele>
        <time>2023-08-10T15:40:04Z</time>
      </trkpt>
      <trkpt lat="45.20387" lon="6.0104">
        <ele>2153.49</ele>
        <time>2023-08-10T15:40:12Z</time>
      </trkpt>
      <trkpt lat="45.20386" lon="6.01048">
        <ele>2153.49</ele>
        <time>2023-08-10T15:40:23Z</time>
      </trkpt>
      <trkpt lat="45.20386" lon="6.01052">
        <ele>2152.53</ele>
        <time>2023-08-10T15:40:27Z</time>
      </trkpt>
      <trkpt lat="45.20386" lon="6.01054">
        <ele>2152.05</ele>
        <time>2023-08-10T15:40:29Z</time>
      </trkpt>
      <trkpt lat="45.20386" lon="6.01068">
        <ele>2148.68</ele>
        <time>2023-08-10T15:40:43Z</time>
      </trkpt>
      <trkpt lat="45.20387" lon="6.01078">
        <ele>2146.76</ele>
        <time>2023-08-10T15:40:53Z</time>
      </trkpt>
      <trkpt lat="45.20389" lon="6.01084">
        <ele>2145.32</ele>
        <time>2023-08-10T15:41:06Z</time>
      </trkpt>
      <trkpt lat="45.2039" lon="6.01087">
        <ele>2143.88</ele>
        <time>2023-08-10T15:41:11Z</time>
      </trkpt>
      <trkpt lat="45.20392" lon="6.01098">
        <ele>2140.99</ele>
        <time>2023-08-10T15:41:25Z</time>
      </trkpt>
      <trkpt lat="45.20389" lon="6.01102">
        <ele>2139.55</ele>
        <time>2023-08-10T15:41:39Z</time>
      </trkpt>
      <trkpt lat="45.2039" lon="6.01107">
        <ele>2137.63</ele>
        <time>2023-08-10T15:41:50Z</time>
      </trkpt>
      <trkpt lat="45.20387" lon="6.01109">
        <ele>2136.19</ele>
        <time>2023-08-10T15:42:01Z</time>
      </trkpt>
      <trkpt lat="45.2039" lon="6.01117">
        <ele>2134.26</ele>
        <time>2023-08-10T15:42:14Z</time>
      </trkpt>
      <trkpt lat="45.20393" lon="6.01122">
        <ele>2132.34</ele>
        <time>2023-08-10T15:42:22Z</time>
      </trkpt>
      <trkpt lat="45.20394" lon="6.01134">
        <ele>2129.94</ele>
        <time>2023-08-10T15:42:35Z</time>
      </trkpt>
      <trkpt lat="45.20396" lon="6.01137">
        <ele>2129.46</ele>
        <time>2023-08-10T15:42:40Z</time>
      </trkpt>
      <trkpt lat="45.20398" lon="6.01147">
        <ele>2128.02</ele>
        <time>2023-08-10T15:42:53Z</time>
      </trkpt>
      <trkpt lat="45.204" lon="6.01153">
        <ele>2126.57</ele>
        <time>2023-08-10T15:43:04Z</time>
      </trkpt>
      <trkpt lat="45.20401" lon="6.01159">
        <ele>2124.65</ele>
        <time>2023-08-10T15:43:15Z</time>
      </trkpt>
      <trkpt lat="45.20401" lon="6.01166">
        <ele>2122.73</ele>
        <time>2023-08-10T15:43:25Z</time>
      </trkpt>
      <trkpt lat="45.20403" lon="6.0117">
        <ele>2122.25</ele>
        <time>2023-08-10T15:43:38Z</time>
      </trkpt>
      <trkpt lat="45.20402" lon="6.01174">
        <ele>2121.29</ele>
        <time>2023-08-10T15:43:50Z</time>
      </trkpt>
      <trkpt lat="45.20402" lon="6.01181">
        <ele>2119.36</ele>
        <time>2023-08-10T15:44:03Z</time>
      </trkpt>
      <trkpt lat="45.20399" lon="6.01187">
        <ele>2116.48</ele>
        <time>2023-08-10T15:44:18Z</time>
      </trkpt>
      <trkpt lat="45.20401" lon="6.01194">
        <ele>2115.04</ele>
        <time>2023-08-10T15:44:29Z</time>
      </trkpt>
      <trkpt lat="45.20395" lon="6.012">
        <ele>2112.15</ele>
        <time>2023-08-10T15:44:43Z</time>
      </trkpt>
      <trkpt lat="45.20393" lon="6.01204">
        <ele>2110.23</ele>
        <time>2023-08-10T15:44:58Z</time>
      </trkpt>
      <trkpt lat="45.20392" lon="6.0121">
        <ele>2107.83</ele>
        <time>2023-08-10T15:45:11Z</time>
      </trkpt>
      <trkpt lat="45.20389" lon="6.01212">
        <ele>2105.42</ele>
        <time>2023-08-10T15:45:22Z</time>
      </trkpt>
      <trkpt lat="45.20389" lon="6.01219">
        <ele>2103.98</ele>
        <time>2023-08-10T15:45:31Z</time>
      </trkpt>
      <trkpt lat="45.2039" lon="6.01231">
        <ele>2102.06</ele>
        <time>2023-08-10T15:45:44Z</time>
      </trkpt>
      <trkpt lat="45.20393" lon="6.01238">
        <ele>2100.14</ele>
        <time>2023-08-10T15:45:57Z</time>
      </trkpt>
      <trkpt lat="45.20397" lon="6.01242">
        <ele>2100.14</ele>
        <time>2023-08-10T15:46:07Z</time>
      </trkpt>
      <trkpt lat="45.20398" lon="6.01246">
        <ele>2099.66</ele>
        <time>2023-08-10T15:46:12Z</time>
      </trkpt>
      <trkpt lat="45.20399" lon="6.01248">
        <ele>2099.66</ele>
        <time>2023-08-10T15:46:14Z</time>
      </trkpt>
      <trkpt lat="45.20403" lon="6.01255">
        <ele>2098.21</ele>
        <time>2023-08-10T15:46:25Z</time>
      </trkpt>
      <trkpt lat="45.20406" lon="6.0126">
        <ele>2097.25</ele>
        <time>2023-08-10T15:46:36Z</time>
      </trkpt>
      <trkpt lat="45.20411" lon="6.0127">
        <ele>2095.33</ele>
        <time>2023-08-10T15:46:48Z</time>
      </trkpt>
      <trkpt lat="45.20414" lon="6.01277">
        <ele>2094.37</ele>
        <time>2023-08-10T15:46:57Z</time>
      </trkpt>
      <trkpt lat="45.2042" lon="6.01287">
        <ele>2093.41</ele>
        <time>2023-08-10T15:47:10Z</time>
      </trkpt>
      <trkpt lat="45.20424" lon="6.01296">
        <ele>2093.41</ele>
        <time>2023-08-10T15:47:19Z</time>
      </trkpt>
      <trkpt lat="45.20426" lon="6.013">
        <ele>2093.41</ele>
        <time>2023-08-10T15:47:23Z</time>
      </trkpt>
      <trkpt lat="45.20425" lon="6.01306">
        <ele>2091.97</ele>
        <time>2023-08-10T15:47:29Z</time>
      </trkpt>
      <trkpt lat="45.20427" lon="6.01317">
        <ele>2090.04</ele>
        <time>2023-08-10T15:47:42Z</time>
      </trkpt>
      <trkpt lat="45.20428" lon="6.01325">
        <ele>2088.12</ele>
        <time>2023-08-10T15:47:51Z</time>
      </trkpt>
      <trkpt lat="45.20428" lon="6.01336">
        <ele>2084.76</ele>
        <time>2023-08-10T15:48:06Z</time>
      </trkpt>
      <trkpt lat="45.2043" lon="6.01345">
        <ele>2083.31</ele>
        <time>2023-08-10T15:48:15Z</time>
      </trkpt>
      <trkpt lat="45.20432" lon="6.0135">
        <ele>2081.87</ele>
        <time>2023-08-10T15:48:20Z</time>
      </trkpt>
      <trkpt lat="45.20433" lon="6.01357">
        <ele>2080.43</ele>
        <time>2023-08-10T15:48:27Z</time>
      </trkpt>
      <trkpt lat="45.20433" lon="6.01361">
        <ele>2079.47</ele>
        <time>2023-08-10T15:48:32Z</time>
      </trkpt>
      <trkpt lat="45.20434" lon="6.01367">
        <ele>2078.03</ele>
        <time>2023-08-10T15:48:42Z</time>
      </trkpt>
      <trkpt lat="45.20435" lon="6.0138">
        <ele>2076.1</ele>
        <time>2023-08-10T15:48:55Z</time>
      </trkpt>
      <trkpt lat="45.20437" lon="6.01388">
        <ele>2074.18</ele>
        <time>2023-08-10T15:49:07Z</time>
      </trkpt>
      <trkpt lat="45.20438" lon="6.01396">
        <ele>2073.22</ele>
        <time>2023-08-10T15:49:18Z</time>
      </trkpt>
      <trkpt lat="45.20437" lon="6.01406">
        <ele>2072.74</ele>
        <time>2023-08-10T15:49:30Z</time>
      </trkpt>
      <trkpt lat="45.20438" lon="6.01412">
        <ele>2072.26</ele>
        <time>2023-08-10T15:49:41Z</time>
      </trkpt>
      <trkpt lat="45.20439" lon="6.01416">
        <ele>2071.3</ele>
        <time>2023-08-10T15:49:46Z</time>
      </trkpt>
      <trkpt lat="45.20442" lon="6.01423">
        <ele>2071.3</ele>
        <time>2023-08-10T15:49:57Z</time>
      </trkpt>
      <trkpt lat="45.20442" lon="6.01427">
        <ele>2069.38</ele>
        <time>2023-08-10T15:50:06Z</time>
      </trkpt>
      <trkpt lat="45.2044" lon="6.01436">
        <ele>2068.89</ele>
        <time>2023-08-10T15:50:17Z</time>
      </trkpt>
      <trkpt lat="45.20439" lon="6.0144">
        <ele>2067.45</ele>
        <time>2023-08-10T15:50:27Z</time>
      </trkpt>
      <trkpt lat="45.20439" lon="6.01447">
        <ele>2066.01</ele>
        <time>2023-08-10T15:50:37Z</time>
      </trkpt>
      <trkpt lat="45.20444" lon="6.01452">
        <ele>2064.57</ele>
        <time>2023-08-10T15:50:48Z</time>
      </trkpt>
      <trkpt lat="45.20444" lon="6.01455">
        <ele>2064.09</ele>
        <time>2023-08-10T15:50:52Z</time>
      </trkpt>
      <trkpt lat="45.20447" lon="6.01459">
        <ele>2063.61</ele>
        <time>2023-08-10T15:50:59Z</time>
      </trkpt>
      <trkpt lat="45.20454" lon="6.01464">
        <ele>2060.24</ele>
        <time>2023-08-10T15:51:12Z</time>
      </trkpt>
      <trkpt lat="45.20458" lon="6.01464">
        <ele>2059.76</ele>
        <time>2023-08-10T15:51:16Z</time>
      </trkpt>
      <trkpt lat="45.20475" lon="6.01465">
        <ele>2057.36</ele>
        <time>2023-08-10T15:51:35Z</time>
      </trkpt>
      <trkpt lat="45.20476" lon="6.01466">
        <ele>2057.36</ele>
        <time>2023-08-10T15:51:39Z</time>
      </trkpt>
      <trkpt lat="45.20479" lon="6.01468">
        <ele>2058.32</ele>
        <time>2023-08-10T15:51:43Z</time>
      </trkpt>
      <trkpt lat="45.20488" lon="6.01474">
        <ele>2059.28</ele>
        <time>2023-08-10T15:51:55Z</time>
      </trkpt>
      <trkpt lat="45.20495" lon="6.01475">
        <ele>2060.72</ele>
        <time>2023-08-10T15:52:07Z</time>
      </trkpt>
      <trkpt lat="45.20503" lon="6.01476">
        <ele>2061.68</ele>
        <time>2023-08-10T15:52:17Z</time>
      </trkpt>
      <trkpt lat="45.20504" lon="6.01477">
        <ele>2061.68</ele>
        <time>2023-08-10T15:52:19Z</time>
      </trkpt>
      <trkpt lat="45.20512" lon="6.01482">
        <ele>2061.2</ele>
        <time>2023-08-10T15:52:32Z</time>
      </trkpt>
      <trkpt lat="45.20514" lon="6.01483">
        <ele>2062.65</ele>
        <time>2023-08-10T15:52:36Z</time>
      </trkpt>
      <trkpt lat="45.20516" lon="6.01483">
        <ele>2062.65</ele>
        <time>2023-08-10T15:52:38Z</time>
      </trkpt>
      <trkpt lat="45.20524" lon="6.01484">
        <ele>2064.57</ele>
        <time>2023-08-10T15:52:51Z</time>
      </trkpt>
      <trkpt lat="45.2053" lon="6.01483">
        <ele>2065.53</ele>
        <time>2023-08-10T15:53:00Z</time>
      </trkpt>
      <trkpt lat="45.20537" lon="6.01472">
        <ele>2066.01</ele>
        <time>2023-08-10T15:53:15Z</time>
      </trkpt>
      <trkpt lat="45.20538" lon="6.01471">
        <ele>2066.49</ele>
        <time>2023-08-10T15:53:19Z</time>
      </trkpt>
      <trkpt lat="45.20545" lon="6.01463">
        <ele>2066.49</ele>
        <time>2023-08-10T15:53:31Z</time>
      </trkpt>
      <trkpt lat="45.2055" lon="6.01463">
        <ele>2065.05</ele>
        <time>2023-08-10T15:53:38Z</time>
      </trkpt>
      <trkpt lat="45.20554" lon="6.01465">
        <ele>2064.57</ele>
        <time>2023-08-10T15:53:49Z</time>
      </trkpt>
      <trkpt lat="45.2056" lon="6.01469">
        <ele>2063.61</ele>
        <time>2023-08-10T15:54:00Z</time>
      </trkpt>
      <trkpt lat="45.20565" lon="6.01471">
        <ele>2063.13</ele>
        <time>2023-08-10T15:54:12Z</time>
      </trkpt>
      <trkpt lat="45.20569" lon="6.01472">
        <ele>2062.65</ele>
        <time>2023-08-10T15:54:22Z</time>
      </trkpt>
      <trkpt lat="45.20573" lon="6.01475">
        <ele>2062.17</ele>
        <time>2023-08-10T15:54:35Z</time>
      </trkpt>
      <trkpt lat="45.20579" lon="6.01475">
        <ele>2063.13</ele>
        <time>2023-08-10T15:54:47Z</time>
      </trkpt>
      <trkpt lat="45.20584" lon="6.01475">
        <ele>2063.61</ele>
        <time>2023-08-10T15:54:55Z</time>
      </trkpt>
      <trkpt lat="45.20588" lon="6.01478">
        <ele>2064.09</ele>
        <time>2023-08-10T15:55:08Z</time>
      </trkpt>
      <trkpt lat="45.2059" lon="6.01479">
        <ele>2065.05</ele>
        <time>2023-08-10T15:55:18Z</time>
      </trkpt>
      <trkpt lat="45.20594" lon="6.01482">
        <ele>2065.53</ele>
        <time>2023-08-10T15:55:24Z</time>
      </trkpt>
      <trkpt lat="45.20595" lon="6.01486">
        <ele>2065.53</ele>
        <time>2023-08-10T15:55:27Z</time>
      </trkpt>
      <trkpt lat="45.20599" lon="6.01491">
        <ele>2066.01</ele>
        <time>2023-08-10T15:55:39Z</time>
      </trkpt>
      <trkpt lat="45.20602" lon="6.01494">
        <ele>2066.01</ele>
        <time>2023-08-10T15:55:49Z</time>
      </trkpt>
      <trkpt lat="45.20605" lon="6.015">
        <ele>2066.49</ele>
        <time>2023-08-10T15:56:00Z</time>
      </trkpt>
      <trkpt lat="45.20607" lon="6.01509">
        <ele>2066.49</ele>
        <time>2023-08-10T15:56:12Z</time>
      </trkpt>
      <trkpt lat="45.20609" lon="6.01523">
        <ele>2066.01</ele>
        <time>2023-08-10T15:56:24Z</time>
      </trkpt>
      <trkpt lat="45.20609" lon="6.01529">
        <ele>2066.49</ele>
        <time>2023-08-10T15:56:36Z</time>
      </trkpt>
      <trkpt lat="45.2061" lon="6.01529">
        <ele>2066.49</ele>
        <time>2023-08-10T15:56:55Z</time>
      </trkpt>
      <trkpt lat="45.2061" lon="6.01527">
        <ele>2066.49</ele>
        <time>2023-08-10T15:57:29Z</time>
      </trkpt>
      <trkpt lat="45.20607" lon="6.01528">
        <ele>2066.49</ele>
        <time>2023-08-10T15:57:57Z</time>
      </trkpt>
      <trkpt lat="45.20606" lon="6.0153">
        <ele>2066.49</ele>
        <time>2023-08-10T15:57:59Z</time>
      </trkpt>
      <trkpt lat="45.20605" lon="6.01533">
        <ele>2066.49</ele>
        <time>2023-08-10T15:58:02Z</time>
      </trkpt>
      <trkpt lat="45.20604" lon="6.01539">
        <ele>2066.49</ele>
        <time>2023-08-10T15:58:07Z</time>
      </trkpt>
      <trkpt lat="45.20605" lon="6.01551">
        <ele>2066.97</ele>
        <time>2023-08-10T15:58:17Z</time>
      </trkpt>
      <trkpt lat="45.20605" lon="6.01554">
        <ele>2066.97</ele>
        <time>2023-08-10T15:58:19Z</time>
      </trkpt>
      <trkpt lat="45.20603" lon="6.01575">
        <ele>2066.49</ele>
        <time>2023-08-10T15:58:34Z</time>
      </trkpt>
      <trkpt lat="45.20603" lon="6.01587">
        <ele>2066.49</ele>
        <time>2023-08-10T15:58:46Z</time>
      </trkpt>
      <trkpt lat="45.20604" lon="6.0159">
        <ele>2066.49</ele>
        <time>2023-08-10T15:58:48Z</time>
      </trkpt>
      <trkpt lat="45.20606" lon="6.01604">
        <ele>2066.97</ele>
        <time>2023-08-10T15:59:03Z</time>
      </trkpt>
      <trkpt lat="45.20606" lon="6.01612">
        <ele>2066.97</ele>
        <time>2023-08-10T15:59:14Z</time>
      </trkpt>
      <trkpt lat="45.20605" lon="6.01618">
        <ele>2068.41</ele>
        <time>2023-08-10T15:59:25Z</time>
      </trkpt>
      <trkpt lat="45.20606" lon="6.0163">
        <ele>2070.34</ele>
        <time>2023-08-10T15:59:41Z</time>
      </trkpt>
      <trkpt lat="45.20607" lon="6.01635">
        <ele>2071.3</ele>
        <time>2023-08-10T15:59:52Z</time>
      </trkpt>
      <trkpt lat="45.20609" lon="6.0164">
        <ele>2072.74</ele>
        <time>2023-08-10T15:59:58Z</time>
      </trkpt>
      <trkpt lat="45.2061" lon="6.01647">
        <ele>2073.7</ele>
        <time>2023-08-10T16:00:12Z</time>
      </trkpt>
      <trkpt lat="45.20609" lon="6.01652">
        <ele>2074.66</ele>
        <time>2023-08-10T16:00:22Z</time>
      </trkpt>
      <trkpt lat="45.2061" lon="6.01656">
        <ele>2076.1</ele>
        <time>2023-08-10T16:00:32Z</time>
      </trkpt>
      <trkpt lat="45.20611" lon="6.01658">
        <ele>2077.55</ele>
        <time>2023-08-10T16:00:44Z</time>
      </trkpt>
      <trkpt lat="45.20612" lon="6.01664">
        <ele>2078.51</ele>
        <time>2023-08-10T16:00:56Z</time>
      </trkpt>
      <trkpt lat="45.20612" lon="6.01665">
        <ele>2079.47</ele>
        <time>2023-08-10T16:01:10Z</time>
      </trkpt>
      <trkpt lat="45.20614" lon="6.01669">
        <ele>2080.43</ele>
        <time>2023-08-10T16:01:21Z</time>
      </trkpt>
      <trkpt lat="45.20617" lon="6.0168">
        <ele>2082.83</ele>
        <time>2023-08-10T16:01:34Z</time>
      </trkpt>
      <trkpt lat="45.20617" lon="6.01682">
        <ele>2082.83</ele>
        <time>2023-08-10T16:01:37Z</time>
      </trkpt>
      <trkpt lat="45.20624" lon="6.01687">
        <ele>2082.83</ele>
        <time>2023-08-10T16:01:49Z</time>
      </trkpt>
      <trkpt lat="45.2063" lon="6.01696">
        <ele>2083.79</ele>
        <time>2023-08-10T16:02:06Z</time>
      </trkpt>
      <trkpt lat="45.20632" lon="6.01705">
        <ele>2084.76</ele>
        <time>2023-08-10T16:02:21Z</time>
      </trkpt>
      <trkpt lat="45.20632" lon="6.01708">
        <ele>2085.72</ele>
        <time>2023-08-10T16:02:35Z</time>
      </trkpt>
      <trkpt lat="45.20632" lon="6.0171">
        <ele>2085.72</ele>
        <time>2023-08-10T16:02:38Z</time>
      </trkpt>
      <trkpt lat="45.20633" lon="6.01714">
        <ele>2087.16</ele>
        <time>2023-08-10T16:02:46Z</time>
      </trkpt>
      <trkpt lat="45.20637" lon="6.01724">
        <ele>2089.08</ele>
        <time>2023-08-10T16:03:03Z</time>
      </trkpt>
      <trkpt lat="45.20643" lon="6.01731">
        <ele>2091</ele>
        <time>2023-08-10T16:03:21Z</time>
      </trkpt>
      <trkpt lat="45.20646" lon="6.01734">
        <ele>2092.45</ele>
        <time>2023-08-10T16:03:34Z</time>
      </trkpt>
      <trkpt lat="45.20648" lon="6.01735">
        <ele>2093.89</ele>
        <time>2023-08-10T16:03:45Z</time>
      </trkpt>
      <trkpt lat="45.2065" lon="6.01739">
        <ele>2095.33</ele>
        <time>2023-08-10T16:03:59Z</time>
      </trkpt>
      <trkpt lat="45.20651" lon="6.01741">
        <ele>2095.81</ele>
        <time>2023-08-10T16:04:12Z</time>
      </trkpt>
      <trkpt lat="45.20654" lon="6.01751">
        <ele>2096.77</ele>
        <time>2023-08-10T16:04:25Z</time>
      </trkpt>
      <trkpt lat="45.20658" lon="6.0176">
        <ele>2098.21</ele>
        <time>2023-08-10T16:04:39Z</time>
      </trkpt>
      <trkpt lat="45.20659" lon="6.01764">
        <ele>2098.21</ele>
        <time>2023-08-10T16:04:42Z</time>
      </trkpt>
      <trkpt lat="45.20661" lon="6.01775">
        <ele>2098.7</ele>
        <time>2023-08-10T16:04:56Z</time>
      </trkpt>
      <trkpt lat="45.20667" lon="6.01782">
        <ele>2099.66</ele>
        <time>2023-08-10T16:05:08Z</time>
      </trkpt>
      <trkpt lat="45.2067" lon="6.01784">
        <ele>2099.18</ele>
        <time>2023-08-10T16:05:16Z</time>
      </trkpt>
      <trkpt lat="45.20677" lon="6.01787">
        <ele>2100.62</ele>
        <time>2023-08-10T16:05:25Z</time>
      </trkpt>
      <trkpt lat="45.20681" lon="6.01789">
        <ele>2100.62</ele>
        <time>2023-08-10T16:05:30Z</time>
      </trkpt>
      <trkpt lat="45.20687" lon="6.01794">
        <ele>2101.58</ele>
        <time>2023-08-10T16:05:42Z</time>
      </trkpt>
      <trkpt lat="45.20694" lon="6.01805">
        <ele>2101.58</ele>
        <time>2023-08-10T16:05:56Z</time>
      </trkpt>
      <trkpt lat="45.20697" lon="6.01816">
        <ele>2103.5</ele>
        <time>2023-08-10T16:06:11Z</time>
      </trkpt>
      <trkpt lat="45.20705" lon="6.01819">
        <ele>2105.91</ele>
        <time>2023-08-10T16:06:28Z</time>
      </trkpt>
      <trkpt lat="45.20711" lon="6.01827">
        <ele>2107.35</ele>
        <time>2023-08-10T16:06:43Z</time>
      </trkpt>
      <trkpt lat="45.20711" lon="6.01829">
        <ele>2107.35</ele>
        <time>2023-08-10T16:06:46Z</time>
      </trkpt>
      <trkpt lat="45.20718" lon="6.01839">
        <ele>2105.42</ele>
        <time>2023-08-10T16:07:01Z</time>
      </trkpt>
      <trkpt lat="45.20724" lon="6.01846">
        <ele>2103.02</ele>
        <time>2023-08-10T16:07:12Z</time>
      </trkpt>
      <trkpt lat="45.20724" lon="6.01847">
        <ele>2103.02</ele>
        <time>2023-08-10T16:07:15Z</time>
      </trkpt>
      <trkpt lat="45.2073" lon="6.0185">
        <ele>2103.5</ele>
        <time>2023-08-10T16:07:28Z</time>
      </trkpt>
      <trkpt lat="45.20729" lon="6.01851">
        <ele>2104.46</ele>
        <time>2023-08-10T16:07:30Z</time>
      </trkpt>
      <trkpt lat="45.20731" lon="6.01853">
        <ele>2104.46</ele>
        <time>2023-08-10T16:07:34Z</time>
      </trkpt>
      <trkpt lat="45.20738" lon="6.01861">
        <ele>2104.46</ele>
        <time>2023-08-10T16:07:46Z</time>
      </trkpt>
      <trkpt lat="45.2074" lon="6.01862">
        <ele>2105.42</ele>
        <time>2023-08-10T16:07:51Z</time>
      </trkpt>
      <trkpt lat="45.20747" lon="6.01868">
        <ele>2105.91</ele>
        <time>2023-08-10T16:08:00Z</time>
      </trkpt>
      <trkpt lat="45.20754" lon="6.01867">
        <ele>2104.94</ele>
        <time>2023-08-10T16:08:08Z</time>
      </trkpt>
      <trkpt lat="45.20761" lon="6.01868">
        <ele>2104.46</ele>
        <time>2023-08-10T16:08:16Z</time>
      </trkpt>
      <trkpt lat="45.20766" lon="6.01871">
        <ele>2102.06</ele>
        <time>2023-08-10T16:08:28Z</time>
      </trkpt>
      <trkpt lat="45.20771" lon="6.01874">
        <ele>2101.1</ele>
        <time>2023-08-10T16:08:37Z</time>
      </trkpt>
      <trkpt lat="45.20777" lon="6.01877">
        <ele>2098.21</ele>
        <time>2023-08-10T16:08:52Z</time>
      </trkpt>
      <trkpt lat="45.20782" lon="6.01886">
        <ele>2095.33</ele>
        <time>2023-08-10T16:09:05Z</time>
      </trkpt>
      <trkpt lat="45.20786" lon="6.01889">
        <ele>2093.41</ele>
        <time>2023-08-10T16:09:17Z</time>
      </trkpt>
      <trkpt lat="45.20787" lon="6.01891">
        <ele>2093.41</ele>
        <time>2023-08-10T16:09:38Z</time>
      </trkpt>
      <trkpt lat="45.20798" lon="6.0189">
        <ele>2092.93</ele>
        <time>2023-08-10T16:09:50Z</time>
      </trkpt>
      <trkpt lat="45.20806" lon="6.01893">
        <ele>2095.81</ele>
        <time>2023-08-10T16:10:06Z</time>
      </trkpt>
      <trkpt lat="45.20813" lon="6.01898">
        <ele>2097.73</ele>
        <time>2023-08-10T16:10:22Z</time>
      </trkpt>
      <trkpt lat="45.20821" lon="6.01904">
        <ele>2098.21</ele>
        <time>2023-08-10T16:10:39Z</time>
      </trkpt>
      <trkpt lat="45.2083" lon="6.019">
        <ele>2098.7</ele>
        <time>2023-08-10T16:10:54Z</time>
      </trkpt>
      <trkpt lat="45.2084" lon="6.01896">
        <ele>2101.58</ele>
        <time>2023-08-10T16:11:15Z</time>
      </trkpt>
      <trkpt lat="45.20849" lon="6.01884">
        <ele>2102.54</ele>
        <time>2023-08-10T16:11:36Z</time>
      </trkpt>
      <trkpt lat="45.20859" lon="6.01879">
        <ele>2103.98</ele>
        <time>2023-08-10T16:11:50Z</time>
      </trkpt>
      <trkpt lat="45.2086" lon="6.01879">
        <ele>2103.98</ele>
        <time>2023-08-10T16:11:51Z</time>
      </trkpt>
      <trkpt lat="45.20861" lon="6.01878">
        <ele>2104.46</ele>
        <time>2023-08-10T16:11:52Z</time>
      </trkpt>
      <trkpt lat="45.20869" lon="6.01878">
        <ele>2103.02</ele>
        <time>2023-08-10T16:12:06Z</time>
      </trkpt>
      <trkpt lat="45.2087" lon="6.01879">
        <ele>2103.02</ele>
        <time>2023-08-10T16:12:07Z</time>
      </trkpt>
      <trkpt lat="45.20873" lon="6.0188">
        <ele>2103.02</ele>
        <time>2023-08-10T16:12:12Z</time>
      </trkpt>
      <trkpt lat="45.20876" lon="6.01877">
        <ele>2103.02</ele>
        <time>2023-08-10T16:12:26Z</time>
      </trkpt>
      <trkpt lat="45.20874" lon="6.01879">
        <ele>2103.02</ele>
        <time>2023-08-10T16:12:52Z</time>
      </trkpt>
      <trkpt lat="45.20872" lon="6.0188">
        <ele>2103.02</ele>
        <time>2023-08-10T16:12:56Z</time>
      </trkpt>
      <trkpt lat="45.20867" lon="6.01878">
        <ele>2103.02</ele>
        <time>2023-08-10T16:13:02Z</time>
      </trkpt>
      <trkpt lat="45.20855" lon="6.01882">
        <ele>2102.54</ele>
        <time>2023-08-10T16:13:18Z</time>
      </trkpt>
      <trkpt lat="45.20855" lon="6.01883">
        <ele>2102.54</ele>
        <time>2023-08-10T16:13:19Z</time>
      </trkpt>
      <trkpt lat="45.20855" lon="6.01891">
        <ele>2101.1</ele>
        <time>2023-08-10T16:13:29Z</time>
      </trkpt>
      <trkpt lat="45.20857" lon="6.01893">
        <ele>2099.18</ele>
        <time>2023-08-10T16:13:42Z</time>
      </trkpt>
      <trkpt lat="45.20858" lon="6.01894">
        <ele>2098.21</ele>
        <time>2023-08-10T16:13:47Z</time>
      </trkpt>
      <trkpt lat="45.20864" lon="6.01892">
        <ele>2095.81</ele>
        <time>2023-08-10T16:13:59Z</time>
      </trkpt>
      <trkpt lat="45.20866" lon="6.01896">
        <ele>2093.89</ele>
        <time>2023-08-10T16:14:13Z</time>
      </trkpt>
      <trkpt lat="45.20868" lon="6.01897">
        <ele>2092.45</ele>
        <time>2023-08-10T16:14:20Z</time>
      </trkpt>
      <trkpt lat="45.20869" lon="6.01896">
        <ele>2091.49</ele>
        <time>2023-08-10T16:14:22Z</time>
      </trkpt>
      <trkpt lat="45.20873" lon="6.019">
        <ele>2089.56</ele>
        <time>2023-08-10T16:14:34Z</time>
      </trkpt>
      <trkpt lat="45.20873" lon="6.01901">
        <ele>2088.12</ele>
        <time>2023-08-10T16:14:46Z</time>
      </trkpt>
      <trkpt lat="45.20876" lon="6.01902">
        <ele>2085.72</ele>
        <time>2023-08-10T16:14:56Z</time>
      </trkpt>
      <trkpt lat="45.20877" lon="6.01904">
        <ele>2084.28</ele>
        <time>2023-08-10T16:15:08Z</time>
      </trkpt>
      <trkpt lat="45.2088" lon="6.01906">
        <ele>2082.83</ele>
        <time>2023-08-10T16:15:21Z</time>
      </trkpt>
      <trkpt lat="45.20879" lon="6.01911">
        <ele>2080.91</ele>
        <time>2023-08-10T16:15:32Z</time>
      </trkpt>
      <trkpt lat="45.20879" lon="6.01913">
        <ele>2079.47</ele>
        <time>2023-08-10T16:15:44Z</time>
      </trkpt>
      <trkpt lat="45.20879" lon="6.01913">
        <ele>2079.47</ele>
        <time>2023-08-10T16:15:47Z</time>
      </trkpt>
      <trkpt lat="45.2088" lon="6.01914">
        <ele>2078.51</ele>
        <time>2023-08-10T16:16:02Z</time>
      </trkpt>
      <trkpt lat="45.20882" lon="6.01918">
        <ele>2076.59</ele>
        <time>2023-08-10T16:16:14Z</time>
      </trkpt>
      <trkpt lat="45.20882" lon="6.01918">
        <ele>2076.1</ele>
        <time>2023-08-10T16:16:24Z</time>
      </trkpt>
      <trkpt lat="45.20884" lon="6.01921">
        <ele>2074.18</ele>
        <time>2023-08-10T16:16:35Z</time>
      </trkpt>
      <trkpt lat="45.20883" lon="6.01924">
        <ele>2071.78</ele>
        <time>2023-08-10T16:16:46Z</time>
      </trkpt>
      <trkpt lat="45.20883" lon="6.01926">
        <ele>2070.34</ele>
        <time>2023-08-10T16:16:57Z</time>
      </trkpt>
      <trkpt lat="45.20882" lon="6.01929">
        <ele>2068.89</ele>
        <time>2023-08-10T16:17:09Z</time>
      </trkpt>
      <trkpt lat="45.20882" lon="6.01933">
        <ele>2066.49</ele>
        <time>2023-08-10T16:17:20Z</time>
      </trkpt>
      <trkpt lat="45.20882" lon="6.01941">
        <ele>2063.61</ele>
        <time>2023-08-10T16:17:31Z</time>
      </trkpt>
      <trkpt lat="45.20888" lon="6.01942">
        <ele>2062.17</ele>
        <time>2023-08-10T16:17:40Z</time>
      </trkpt>
      <trkpt lat="45.20896" lon="6.01943">
        <ele>2058.8</ele>
        <time>2023-08-10T16:17:53Z</time>
      </trkpt>
      <trkpt lat="45.20897" lon="6.01945">
        <ele>2058.32</ele>
        <time>2023-08-10T16:17:56Z</time>
      </trkpt>
      <trkpt lat="45.209" lon="6.01946">
        <ele>2057.84</ele>
        <time>2023-08-10T16:18:00Z</time>
      </trkpt>
      <trkpt lat="45.20906" lon="6.01943">
        <ele>2057.36</ele>
        <time>2023-08-10T16:18:09Z</time>
      </trkpt>
      <trkpt lat="45.20908" lon="6.0194">
        <ele>2057.36</ele>
        <time>2023-08-10T16:18:20Z</time>
      </trkpt>
      <trkpt lat="45.20912" lon="6.01942">
        <ele>2056.4</ele>
        <time>2023-08-10T16:18:33Z</time>
      </trkpt>
      <trkpt lat="45.20914" lon="6.01944">
        <ele>2054.96</ele>
        <time>2023-08-10T16:18:45Z</time>
      </trkpt>
      <trkpt lat="45.2092" lon="6.01945">
        <ele>2054.47</ele>
        <time>2023-08-10T16:18:57Z</time>
      </trkpt>
      <trkpt lat="45.20925" lon="6.01943">
        <ele>2053.03</ele>
        <time>2023-08-10T16:19:08Z</time>
      </trkpt>
      <trkpt lat="45.20933" lon="6.01941">
        <ele>2052.07</ele>
        <time>2023-08-10T16:19:20Z</time>
      </trkpt>
      <trkpt lat="45.20939" lon="6.01935">
        <ele>2051.11</ele>
        <time>2023-08-10T16:19:32Z</time>
      </trkpt>
      <trkpt lat="45.20945" lon="6.01929">
        <ele>2051.11</ele>
        <time>2023-08-10T16:19:46Z</time>
      </trkpt>
      <trkpt lat="45.2095" lon="6.01933">
        <ele>2050.63</ele>
        <time>2023-08-10T16:19:57Z</time>
      </trkpt>
      <trkpt lat="45.20954" lon="6.01934">
        <ele>2048.71</ele>
        <time>2023-08-10T16:20:08Z</time>
      </trkpt>
      <trkpt lat="45.20963" lon="6.0194">
        <ele>2047.75</ele>
        <time>2023-08-10T16:20:20Z</time>
      </trkpt>
      <trkpt lat="45.20963" lon="6.01942">
        <ele>2047.26</ele>
        <time>2023-08-10T16:20:21Z</time>
      </trkpt>
      <trkpt lat="45.20966" lon="6.01945">
        <ele>2046.78</ele>
        <time>2023-08-10T16:20:25Z</time>
      </trkpt>
      <trkpt lat="45.20974" lon="6.01951">
        <ele>2046.78</ele>
        <time>2023-08-10T16:20:39Z</time>
      </trkpt>
      <trkpt lat="45.20978" lon="6.01959">
        <ele>2044.86</ele>
        <time>2023-08-10T16:20:55Z</time>
      </trkpt>
      <trkpt lat="45.20986" lon="6.01955">
        <ele>2042.94</ele>
        <time>2023-08-10T16:21:09Z</time>
      </trkpt>
      <trkpt lat="45.20988" lon="6.01954">
        <ele>2042.46</ele>
        <time>2023-08-10T16:21:23Z</time>
      </trkpt>
      <trkpt lat="45.2099" lon="6.01948">
        <ele>2043.42</ele>
        <time>2023-08-10T16:21:35Z</time>
      </trkpt>
      <trkpt lat="45.20993" lon="6.01942">
        <ele>2044.38</ele>
        <time>2023-08-10T16:21:48Z</time>
      </trkpt>
      <trkpt lat="45.20997" lon="6.0194">
        <ele>2044.86</ele>
        <time>2023-08-10T16:21:52Z</time>
      </trkpt>
      <trkpt lat="45.21003" lon="6.0194">
        <ele>2045.34</ele>
        <time>2023-08-10T16:22:08Z</time>
      </trkpt>
      <trkpt lat="45.21007" lon="6.01939">
        <ele>2043.9</ele>
        <time>2023-08-10T16:22:20Z</time>
      </trkpt>
      <trkpt lat="45.21016" lon="6.01941">
        <ele>2041.5</ele>
        <time>2023-08-10T16:22:33Z</time>
      </trkpt>
      <trkpt lat="45.21019" lon="6.01945">
        <ele>2040.54</ele>
        <time>2023-08-10T16:22:45Z</time>
      </trkpt>
      <trkpt lat="45.2102" lon="6.01949">
        <ele>2041.5</ele>
        <time>2023-08-10T16:22:54Z</time>
      </trkpt>
      <trkpt lat="45.21022" lon="6.01953">
        <ele>2041.5</ele>
        <time>2023-08-10T16:23:00Z</time>
      </trkpt>
      <trkpt lat="45.21027" lon="6.01953">
        <ele>2041.5</ele>
        <time>2023-08-10T16:23:07Z</time>
      </trkpt>
      <trkpt lat="45.21032" lon="6.0196">
        <ele>2039.57</ele>
        <time>2023-08-10T16:23:18Z</time>
      </trkpt>
      <trkpt lat="45.21036" lon="6.01965">
        <ele>2039.57</ele>
        <time>2023-08-10T16:23:29Z</time>
      </trkpt>
      <trkpt lat="45.21043" lon="6.01969">
        <ele>2039.57</ele>
        <time>2023-08-10T16:23:43Z</time>
      </trkpt>
      <trkpt lat="45.21045" lon="6.01973">
        <ele>2039.57</ele>
        <time>2023-08-10T16:23:48Z</time>
      </trkpt>
      <trkpt lat="45.21049" lon="6.0198">
        <ele>2038.13</ele>
        <time>2023-08-10T16:23:56Z</time>
      </trkpt>
      <trkpt lat="45.21057" lon="6.01991">
        <ele>2037.17</ele>
        <time>2023-08-10T16:24:10Z</time>
      </trkpt>
      <trkpt lat="45.21061" lon="6.01998">
        <ele>2036.21</ele>
        <time>2023-08-10T16:24:21Z</time>
      </trkpt>
      <trkpt lat="45.21063" lon="6.02004">
        <ele>2035.73</ele>
        <time>2023-08-10T16:24:26Z</time>
      </trkpt>
      <trkpt lat="45.21069" lon="6.02008">
        <ele>2034.77</ele>
        <time>2023-08-10T16:24:39Z</time>
      </trkpt>
      <trkpt lat="45.21071" lon="6.02013">
        <ele>2033.33</ele>
        <time>2023-08-10T16:24:48Z</time>
      </trkpt>
      <trkpt lat="45.21064" lon="6.02024">
        <ele>2030.92</ele>
        <time>2023-08-10T16:25:02Z</time>
      </trkpt>
      <trkpt lat="45.21059" lon="6.02033">
        <ele>2029</ele>
        <time>2023-08-10T16:25:15Z</time>
      </trkpt>
      <trkpt lat="45.21066" lon="6.02045">
        <ele>2027.08</ele>
        <time>2023-08-10T16:25:29Z</time>
      </trkpt>
      <trkpt lat="45.21062" lon="6.02055">
        <ele>2025.15</ele>
        <time>2023-08-10T16:25:43Z</time>
      </trkpt>
      <trkpt lat="45.21064" lon="6.0206">
        <ele>2024.19</ele>
        <time>2023-08-10T16:25:49Z</time>
      </trkpt>
      <trkpt lat="45.21071" lon="6.02069">
        <ele>2023.23</ele>
        <time>2023-08-10T16:26:00Z</time>
      </trkpt>
      <trkpt lat="45.21071" lon="6.02074">
        <ele>2022.75</ele>
        <time>2023-08-10T16:26:05Z</time>
      </trkpt>
      <trkpt lat="45.21073" lon="6.02087">
        <ele>2020.35</ele>
        <time>2023-08-10T16:26:17Z</time>
      </trkpt>
      <trkpt lat="45.21078" lon="6.02107">
        <ele>2017.94</ele>
        <time>2023-08-10T16:26:31Z</time>
      </trkpt>
      <trkpt lat="45.21079" lon="6.02114">
        <ele>2016.98</ele>
        <time>2023-08-10T16:26:37Z</time>
      </trkpt>
      <trkpt lat="45.21084" lon="6.02127">
        <ele>2016.5</ele>
        <time>2023-08-10T16:26:48Z</time>
      </trkpt>
      <trkpt lat="45.21085" lon="6.0213">
        <ele>2016.5</ele>
        <time>2023-08-10T16:26:51Z</time>
      </trkpt>
      <trkpt lat="45.21089" lon="6.02139">
        <ele>2016.5</ele>
        <time>2023-08-10T16:27:00Z</time>
      </trkpt>
      <trkpt lat="45.2109" lon="6.02143">
        <ele>2017.94</ele>
        <time>2023-08-10T16:27:03Z</time>
      </trkpt>
      <trkpt lat="45.21091" lon="6.02145">
        <ele>2017.94</ele>
        <time>2023-08-10T16:27:05Z</time>
      </trkpt>
      <trkpt lat="45.21092" lon="6.02147">
        <ele>2017.94</ele>
        <time>2023-08-10T16:27:07Z</time>
      </trkpt>
      <trkpt lat="45.21095" lon="6.02151">
        <ele>2017.94</ele>
        <time>2023-08-10T16:27:11Z</time>
      </trkpt>
      <trkpt lat="45.21097" lon="6.02154">
        <ele>2017.94</ele>
        <time>2023-08-10T16:27:15Z</time>
      </trkpt>
      <trkpt lat="45.21102" lon="6.0216">
        <ele>2017.46</ele>
        <time>2023-08-10T16:27:21Z</time>
      </trkpt>
      <trkpt lat="45.21106" lon="6.02162">
        <ele>2016.5</ele>
        <time>2023-08-10T16:27:25Z</time>
      </trkpt>
      <trkpt lat="45.21106" lon="6.02162">
        <ele>2016.02</ele>
        <time>2023-08-10T16:27:26Z</time>
      </trkpt>
      <trkpt lat="45.21108" lon="6.02165">
        <ele>2016.02</ele>
        <time>2023-08-10T16:27:29Z</time>
      </trkpt>
      <trkpt lat="45.21109" lon="6.02166">
        <ele>2016.02</ele>
        <time>2023-08-10T16:27:31Z</time>
      </trkpt>
      <trkpt lat="45.21115" lon="6.02164">
        <ele>2016.98</ele>
        <time>2023-08-10T16:27:43Z</time>
      </trkpt>
      <trkpt lat="45.21118" lon="6.02166">
        <ele>2018.91</ele>
        <time>2023-08-10T16:27:57Z</time>
      </trkpt>
      <trkpt lat="45.21123" lon="6.02172">
        <ele>2021.31</ele>
        <time>2023-08-10T16:28:12Z</time>
      </trkpt>
      <trkpt lat="45.21125" lon="6.02175">
        <ele>2022.27</ele>
        <time>2023-08-10T16:28:23Z</time>
      </trkpt>
      <trkpt lat="45.21127" lon="6.02178">
        <ele>2022.75</ele>
        <time>2023-08-10T16:28:36Z</time>
      </trkpt>
      <trkpt lat="45.21128" lon="6.0218">
        <ele>2022.75</ele>
        <time>2023-08-10T16:28:55Z</time>
      </trkpt>
      <trkpt lat="45.2113" lon="6.02184">
        <ele>2024.67</ele>
        <time>2023-08-10T16:29:16Z</time>
      </trkpt>
      <trkpt lat="45.21134" lon="6.02186">
        <ele>2026.12</ele>
        <time>2023-08-10T16:29:28Z</time>
      </trkpt>
      <trkpt lat="45.21138" lon="6.02194">
        <ele>2028.04</ele>
        <time>2023-08-10T16:29:40Z</time>
      </trkpt>
      <trkpt lat="45.21137" lon="6.02193">
        <ele>2029.48</ele>
        <time>2023-08-10T16:29:45Z</time>
      </trkpt>
      <trkpt lat="45.21139" lon="6.02195">
        <ele>2029.96</ele>
        <time>2023-08-10T16:29:56Z</time>
      </trkpt>
      <trkpt lat="45.21139" lon="6.02197">
        <ele>2029.96</ele>
        <time>2023-08-10T16:29:58Z</time>
      </trkpt>
      <trkpt lat="45.21142" lon="6.022">
        <ele>2031.88</ele>
        <time>2023-08-10T16:30:11Z</time>
      </trkpt>
      <trkpt lat="45.21144" lon="6.02206">
        <ele>2033.81</ele>
        <time>2023-08-10T16:30:27Z</time>
      </trkpt>
      <trkpt lat="45.21148" lon="6.02209">
        <ele>2035.25</ele>
        <time>2023-08-10T16:30:41Z</time>
      </trkpt>
      <trkpt lat="45.21152" lon="6.02209">
        <ele>2036.69</ele>
        <time>2023-08-10T16:30:47Z</time>
      </trkpt>
      <trkpt lat="45.2116" lon="6.0221">
        <ele>2035.25</ele>
        <time>2023-08-10T16:31:02Z</time>
      </trkpt>
      <trkpt lat="45.21164" lon="6.02212">
        <ele>2038.61</ele>
        <time>2023-08-10T16:31:14Z</time>
      </trkpt>
      <trkpt lat="45.21168" lon="6.02213">
        <ele>2040.54</ele>
        <time>2023-08-10T16:31:29Z</time>
      </trkpt>
      <trkpt lat="45.21172" lon="6.02214">
        <ele>2042.94</ele>
        <time>2023-08-10T16:31:45Z</time>
      </trkpt>
      <trkpt lat="45.21178" lon="6.02213">
        <ele>2044.86</ele>
        <time>2023-08-10T16:32:01Z</time>
      </trkpt>
      <trkpt lat="45.21177" lon="6.02215">
        <ele>2044.86</ele>
        <time>2023-08-10T16:32:08Z</time>
      </trkpt>
      <trkpt lat="45.21179" lon="6.02214">
        <ele>2044.86</ele>
        <time>2023-08-10T16:32:10Z</time>
      </trkpt>
      <trkpt lat="45.21181" lon="6.02211">
        <ele>2045.82</ele>
        <time>2023-08-10T16:32:20Z</time>
      </trkpt>
      <trkpt lat="45.21181" lon="6.02203">
        <ele>2047.26</ele>
        <time>2023-08-10T16:32:30Z</time>
      </trkpt>
      <trkpt lat="45.21188" lon="6.02203">
        <ele>2048.71</ele>
        <time>2023-08-10T16:32:50Z</time>
      </trkpt>
      <trkpt lat="45.21195" lon="6.02215">
        <ele>2050.15</ele>
        <time>2023-08-10T16:33:07Z</time>
      </trkpt>
      <trkpt lat="45.21199" lon="6.02221">
        <ele>2052.55</ele>
        <time>2023-08-10T16:33:24Z</time>
      </trkpt>
      <trkpt lat="45.21203" lon="6.02223">
        <ele>2054.96</ele>
        <time>2023-08-10T16:33:40Z</time>
      </trkpt>
      <trkpt lat="45.21206" lon="6.02227">
        <ele>2057.36</ele>
        <time>2023-08-10T16:33:59Z</time>
      </trkpt>
      <trkpt lat="45.21208" lon="6.02228">
        <ele>2058.32</ele>
        <time>2023-08-10T16:34:15Z</time>
      </trkpt>
      <trkpt lat="45.2121" lon="6.02231">
        <ele>2060.24</ele>
        <time>2023-08-10T16:34:23Z</time>
      </trkpt>
      <trkpt lat="45.21212" lon="6.02233">
        <ele>2060.72</ele>
        <time>2023-08-10T16:34:27Z</time>
      </trkpt>
      <trkpt lat="45.21211" lon="6.02235">
        <ele>2061.2</ele>
        <time>2023-08-10T16:34:29Z</time>
      </trkpt>
      <trkpt lat="45.21213" lon="6.0224">
        <ele>2062.65</ele>
        <time>2023-08-10T16:34:43Z</time>
      </trkpt>
      <trkpt lat="45.21215" lon="6.02242">
        <ele>2064.09</ele>
        <time>2023-08-10T16:34:56Z</time>
      </trkpt>
      <trkpt lat="45.21215" lon="6.02246">
        <ele>2065.53</ele>
        <time>2023-08-10T16:35:10Z</time>
      </trkpt>
      <trkpt lat="45.21218" lon="6.02256">
        <ele>2067.45</ele>
        <time>2023-08-10T16:35:22Z</time>
      </trkpt>
      <trkpt lat="45.21222" lon="6.0226">
        <ele>2068.89</ele>
        <time>2023-08-10T16:35:33Z</time>
      </trkpt>
      <trkpt lat="45.21226" lon="6.02268">
        <ele>2069.86</ele>
        <time>2023-08-10T16:35:48Z</time>
      </trkpt>
      <trkpt lat="45.21229" lon="6.02275">
        <ele>2070.82</ele>
        <time>2023-08-10T16:35:57Z</time>
      </trkpt>
      <trkpt lat="45.21234" lon="6.02286">
        <ele>2072.26</ele>
        <time>2023-08-10T16:36:11Z</time>
      </trkpt>
      <trkpt lat="45.21237" lon="6.02295">
        <ele>2073.22</ele>
        <time>2023-08-10T16:36:24Z</time>
      </trkpt>
      <trkpt lat="45.21238" lon="6.02298">
        <ele>2071.78</ele>
        <time>2023-08-10T16:36:32Z</time>
      </trkpt>
      <trkpt lat="45.2124" lon="6.02306">
        <ele>2070.34</ele>
        <time>2023-08-10T16:36:43Z</time>
      </trkpt>
      <trkpt lat="45.21242" lon="6.02312">
        <ele>2067.45</ele>
        <time>2023-08-10T16:36:54Z</time>
      </trkpt>
      <trkpt lat="45.21244" lon="6.0232">
        <ele>2065.53</ele>
        <time>2023-08-10T16:37:06Z</time>
      </trkpt>
      <trkpt lat="45.21245" lon="6.02321">
        <ele>2065.53</ele>
        <time>2023-08-10T16:37:07Z</time>
      </trkpt>
      <trkpt lat="45.21246" lon="6.02329">
        <ele>2065.05</ele>
        <time>2023-08-10T16:37:13Z</time>
      </trkpt>
      <trkpt lat="45.21249" lon="6.02334">
        <ele>2063.61</ele>
        <time>2023-08-10T16:37:21Z</time>
      </trkpt>
      <trkpt lat="45.21254" lon="6.02342">
        <ele>2064.09</ele>
        <time>2023-08-10T16:37:35Z</time>
      </trkpt>
      <trkpt lat="45.21256" lon="6.02349">
        <ele>2063.61</ele>
        <time>2023-08-10T16:37:44Z</time>
      </trkpt>
      <trkpt lat="45.21256" lon="6.02355">
        <ele>2061.2</ele>
        <time>2023-08-10T16:37:56Z</time>
      </trkpt>
      <trkpt lat="45.2126" lon="6.02368">
        <ele>2060.24</ele>
        <time>2023-08-10T16:38:09Z</time>
      </trkpt>
      <trkpt lat="45.21264" lon="6.02383">
        <ele>2060.24</ele>
        <time>2023-08-10T16:38:24Z</time>
      </trkpt>
      <trkpt lat="45.21266" lon="6.02391">
        <ele>2062.65</ele>
        <time>2023-08-10T16:38:36Z</time>
      </trkpt>
      <trkpt lat="45.21268" lon="6.02396">
        <ele>2063.13</ele>
        <time>2023-08-10T16:38:52Z</time>
      </trkpt>
      <trkpt lat="45.21275" lon="6.02402">
        <ele>2065.53</ele>
        <time>2023-08-10T16:39:08Z</time>
      </trkpt>
      <trkpt lat="45.21279" lon="6.02416">
        <ele>2066.01</ele>
        <time>2023-08-10T16:39:25Z</time>
      </trkpt>
      <trkpt lat="45.21284" lon="6.02422">
        <ele>2067.45</ele>
        <time>2023-08-10T16:39:38Z</time>
      </trkpt>
      <trkpt lat="45.21285" lon="6.02423">
        <ele>2068.41</ele>
        <time>2023-08-10T16:39:43Z</time>
      </trkpt>
      <trkpt lat="45.2129" lon="6.02432">
        <ele>2068.89</ele>
        <time>2023-08-10T16:39:54Z</time>
      </trkpt>
      <trkpt lat="45.21291" lon="6.02436">
        <ele>2069.86</ele>
        <time>2023-08-10T16:39:58Z</time>
      </trkpt>
      <trkpt lat="45.21294" lon="6.02445">
        <ele>2070.82</ele>
        <time>2023-08-10T16:40:11Z</time>
      </trkpt>
      <trkpt lat="45.21298" lon="6.0245">
        <ele>2072.74</ele>
        <time>2023-08-10T16:40:24Z</time>
      </trkpt>
      <trkpt lat="45.21299" lon="6.0245">
        <ele>2074.18</ele>
        <time>2023-08-10T16:40:36Z</time>
      </trkpt>
      <trkpt lat="45.21304" lon="6.02459">
        <ele>2076.1</ele>
        <time>2023-08-10T16:40:50Z</time>
      </trkpt>
      <trkpt lat="45.21304" lon="6.02458">
        <ele>2076.59</ele>
        <time>2023-08-10T16:41:02Z</time>
      </trkpt>
      <trkpt lat="45.21303" lon="6.02457">
        <ele>2076.59</ele>
        <time>2023-08-10T16:41:33Z</time>
      </trkpt>
      <trkpt lat="45.21304" lon="6.02457">
        <ele>2076.59</ele>
        <time>2023-08-10T16:42:11Z</time>
      </trkpt>
      <trkpt lat="45.21308" lon="6.02462">
        <ele>2077.55</ele>
        <time>2023-08-10T16:42:22Z</time>
      </trkpt>
      <trkpt lat="45.2131" lon="6.02469">
        <ele>2078.99</ele>
        <time>2023-08-10T16:42:32Z</time>
      </trkpt>
      <trkpt lat="45.2131" lon="6.02472">
        <ele>2079.95</ele>
        <time>2023-08-10T16:42:48Z</time>
      </trkpt>
      <trkpt lat="45.21308" lon="6.0247">
        <ele>2079.95</ele>
        <time>2023-08-10T16:43:14Z</time>
      </trkpt>
      <trkpt lat="45.21309" lon="6.02471">
        <ele>2079.95</ele>
        <time>2023-08-10T16:43:43Z</time>
      </trkpt>
      <trkpt lat="45.21314" lon="6.02473">
        <ele>2080.91</ele>
        <time>2023-08-10T16:43:57Z</time>
      </trkpt>
      <trkpt lat="45.21321" lon="6.02478">
        <ele>2082.35</ele>
        <time>2023-08-10T16:44:11Z</time>
      </trkpt>
      <trkpt lat="45.21328" lon="6.02482">
        <ele>2084.76</ele>
        <time>2023-08-10T16:44:25Z</time>
      </trkpt>
      <trkpt lat="45.21332" lon="6.02488">
        <ele>2087.16</ele>
        <time>2023-08-10T16:44:39Z</time>
      </trkpt>
      <trkpt lat="45.21337" lon="6.02493">
        <ele>2088.6</ele>
        <time>2023-08-10T16:44:52Z</time>
      </trkpt>
      <trkpt lat="45.21342" lon="6.02498">
        <ele>2090.04</ele>
        <time>2023-08-10T16:45:07Z</time>
      </trkpt>
      <trkpt lat="45.21347" lon="6.02505">
        <ele>2092.45</ele>
        <time>2023-08-10T16:45:24Z</time>
      </trkpt>
      <trkpt lat="45.21351" lon="6.02508">
        <ele>2092.93</ele>
        <time>2023-08-10T16:45:34Z</time>
      </trkpt>
      <trkpt lat="45.21355" lon="6.02507">
        <ele>2095.33</ele>
        <time>2023-08-10T16:45:47Z</time>
      </trkpt>
      <trkpt lat="45.21357" lon="6.02509">
        <ele>2096.29</ele>
        <time>2023-08-10T16:46:00Z</time>
      </trkpt>
      <trkpt lat="45.21362" lon="6.02512">
        <ele>2097.25</ele>
        <time>2023-08-10T16:46:12Z</time>
      </trkpt>
      <trkpt lat="45.21362" lon="6.0252">
        <ele>2098.21</ele>
        <time>2023-08-10T16:46:23Z</time>
      </trkpt>
      <trkpt lat="45.21363" lon="6.02524">
        <ele>2098.7</ele>
        <time>2023-08-10T16:46:38Z</time>
      </trkpt>
      <trkpt lat="45.21367" lon="6.02527">
        <ele>2098.7</ele>
        <time>2023-08-10T16:46:48Z</time>
      </trkpt>
      <trkpt lat="45.21369" lon="6.0253">
        <ele>2096.77</ele>
        <time>2023-08-10T16:46:56Z</time>
      </trkpt>
      <trkpt lat="45.21367" lon="6.02532">
        <ele>2095.33</ele>
        <time>2023-08-10T16:47:07Z</time>
      </trkpt>
      <trkpt lat="45.21365" lon="6.02536">
        <ele>2093.41</ele>
        <time>2023-08-10T16:47:18Z</time>
      </trkpt>
      <trkpt lat="45.21367" lon="6.02541">
        <ele>2091.49</ele>
        <time>2023-08-10T16:47:26Z</time>
      </trkpt>
      <trkpt lat="45.21378" lon="6.02553">
        <ele>2091</ele>
        <time>2023-08-10T16:47:40Z</time>
      </trkpt>
      <trkpt lat="45.21388" lon="6.02562">
        <ele>2090.52</ele>
        <time>2023-08-10T16:47:54Z</time>
      </trkpt>
      <trkpt lat="45.21391" lon="6.02562">
        <ele>2091.97</ele>
        <time>2023-08-10T16:47:58Z</time>
      </trkpt>
      <trkpt lat="45.21401" lon="6.02563">
        <ele>2093.41</ele>
        <time>2023-08-10T16:48:13Z</time>
      </trkpt>
      <trkpt lat="45.21403" lon="6.02564">
        <ele>2093.89</ele>
        <time>2023-08-10T16:48:17Z</time>
      </trkpt>
      <trkpt lat="45.21406" lon="6.02565">
        <ele>2093.89</ele>
        <time>2023-08-10T16:48:20Z</time>
      </trkpt>
      <trkpt lat="45.21407" lon="6.02566">
        <ele>2094.37</ele>
        <time>2023-08-10T16:48:22Z</time>
      </trkpt>
      <trkpt lat="45.21415" lon="6.0257">
        <ele>2095.33</ele>
        <time>2023-08-10T16:48:34Z</time>
      </trkpt>
      <trkpt lat="45.21417" lon="6.0257">
        <ele>2095.33</ele>
        <time>2023-08-10T16:48:37Z</time>
      </trkpt>
      <trkpt lat="45.2142" lon="6.02573">
        <ele>2094.37</ele>
        <time>2023-08-10T16:48:41Z</time>
      </trkpt>
      <trkpt lat="45.21424" lon="6.02574">
        <ele>2094.37</ele>
        <time>2023-08-10T16:48:46Z</time>
      </trkpt>
      <trkpt lat="45.21425" lon="6.02577">
        <ele>2093.89</ele>
        <time>2023-08-10T16:48:50Z</time>
      </trkpt>
      <trkpt lat="45.21437" lon="6.02578">
        <ele>2091.49</ele>
        <time>2023-08-10T16:49:03Z</time>
      </trkpt>
      <trkpt lat="45.21445" lon="6.02578">
        <ele>2091</ele>
        <time>2023-08-10T16:49:11Z</time>
      </trkpt>
      <trkpt lat="45.2145" lon="6.02577">
        <ele>2090.52</ele>
        <time>2023-08-10T16:49:16Z</time>
      </trkpt>
      <trkpt lat="45.21459" lon="6.02581">
        <ele>2090.52</ele>
        <time>2023-08-10T16:49:27Z</time>
      </trkpt>
      <trkpt lat="45.21462" lon="6.02587">
        <ele>2090.52</ele>
        <time>2023-08-10T16:49:33Z</time>
      </trkpt>
      <trkpt lat="45.21468" lon="6.02594">
        <ele>2090.04</ele>
        <time>2023-08-10T16:49:41Z</time>
      </trkpt>
      <trkpt lat="45.21479" lon="6.026">
        <ele>2089.08</ele>
        <time>2023-08-10T16:49:54Z</time>
      </trkpt>
      <trkpt lat="45.2148" lon="6.02602">
        <ele>2089.08</ele>
        <time>2023-08-10T16:49:56Z</time>
      </trkpt>
      <trkpt lat="45.2149" lon="6.02612">
        <ele>2088.6</ele>
        <time>2023-08-10T16:50:10Z</time>
      </trkpt>
      <trkpt lat="45.21493" lon="6.02618">
        <ele>2089.56</ele>
        <time>2023-08-10T16:50:16Z</time>
      </trkpt>
      <trkpt lat="45.21497" lon="6.02621">
        <ele>2090.52</ele>
        <time>2023-08-10T16:50:21Z</time>
      </trkpt>
      <trkpt lat="45.21502" lon="6.02628">
        <ele>2090.52</ele>
        <time>2023-08-10T16:50:29Z</time>
      </trkpt>
      <trkpt lat="45.21506" lon="6.02634">
        <ele>2090.52</ele>
        <time>2023-08-10T16:50:35Z</time>
      </trkpt>
      <trkpt lat="45.21511" lon="6.02638">
        <ele>2089.08</ele>
        <time>2023-08-10T16:50:41Z</time>
      </trkpt>
      <trkpt lat="45.21514" lon="6.02645">
        <ele>2088.12</ele>
        <time>2023-08-10T16:50:47Z</time>
      </trkpt>
      <trkpt lat="45.21515" lon="6.02659">
        <ele>2085.24</ele>
        <time>2023-08-10T16:51:00Z</time>
      </trkpt>
      <trkpt lat="45.21517" lon="6.02668">
        <ele>2083.79</ele>
        <time>2023-08-10T16:51:09Z</time>
      </trkpt>
      <trkpt lat="45.2152" lon="6.02672">
        <ele>2083.31</ele>
        <time>2023-08-10T16:51:13Z</time>
      </trkpt>
      <trkpt lat="45.21527" lon="6.02677">
        <ele>2082.83</ele>
        <time>2023-08-10T16:51:27Z</time>
      </trkpt>
      <trkpt lat="45.2153" lon="6.02678">
        <ele>2082.35</ele>
        <time>2023-08-10T16:51:32Z</time>
      </trkpt>
      <trkpt lat="45.21534" lon="6.02685">
        <ele>2078.99</ele>
        <time>2023-08-10T16:51:43Z</time>
      </trkpt>
      <trkpt lat="45.21536" lon="6.02686">
        <ele>2078.51</ele>
        <time>2023-08-10T16:51:48Z</time>
      </trkpt>
      <trkpt lat="45.21541" lon="6.02693">
        <ele>2076.59</ele>
        <time>2023-08-10T16:52:00Z</time>
      </trkpt>
      <trkpt lat="45.21545" lon="6.02692">
        <ele>2075.14</ele>
        <time>2023-08-10T16:52:07Z</time>
      </trkpt>
      <trkpt lat="45.21551" lon="6.02699">
        <ele>2072.74</ele>
        <time>2023-08-10T16:52:23Z</time>
      </trkpt>
      <trkpt lat="45.21549" lon="6.02701">
        <ele>2071.3</ele>
        <time>2023-08-10T16:52:26Z</time>
      </trkpt>
      <trkpt lat="45.21547" lon="6.02702">
        <ele>2071.3</ele>
        <time>2023-08-10T16:52:28Z</time>
      </trkpt>
      <trkpt lat="45.21544" lon="6.0271">
        <ele>2068.89</ele>
        <time>2023-08-10T16:52:40Z</time>
      </trkpt>
      <trkpt lat="45.21546" lon="6.02717">
        <ele>2067.45</ele>
        <time>2023-08-10T16:52:51Z</time>
      </trkpt>
      <trkpt lat="45.21547" lon="6.02719">
        <ele>2066.01</ele>
        <time>2023-08-10T16:53:01Z</time>
      </trkpt>
      <trkpt lat="45.21546" lon="6.02727">
        <ele>2063.61</ele>
        <time>2023-08-10T16:53:16Z</time>
      </trkpt>
      <trkpt lat="45.21549" lon="6.02737">
        <ele>2062.17</ele>
        <time>2023-08-10T16:53:30Z</time>
      </trkpt>
      <trkpt lat="45.21551" lon="6.02736">
        <ele>2059.76</ele>
        <time>2023-08-10T16:53:44Z</time>
      </trkpt>
      <trkpt lat="45.21553" lon="6.02739">
        <ele>2057.84</ele>
        <time>2023-08-10T16:53:49Z</time>
      </trkpt>
      <trkpt lat="45.21559" lon="6.02749">
        <ele>2056.88</ele>
        <time>2023-08-10T16:54:04Z</time>
      </trkpt>
      <trkpt lat="45.21564" lon="6.02748">
        <ele>2054.47</ele>
        <time>2023-08-10T16:54:19Z</time>
      </trkpt>
      <trkpt lat="45.21564" lon="6.02753">
        <ele>2053.03</ele>
        <time>2023-08-10T16:54:30Z</time>
      </trkpt>
      <trkpt lat="45.21564" lon="6.02763">
        <ele>2051.11</ele>
        <time>2023-08-10T16:54:43Z</time>
      </trkpt>
      <trkpt lat="45.2157" lon="6.02766">
        <ele>2049.19</ele>
        <time>2023-08-10T16:54:53Z</time>
      </trkpt>
      <trkpt lat="45.21576" lon="6.02768">
        <ele>2047.26</ele>
        <time>2023-08-10T16:55:04Z</time>
      </trkpt>
      <trkpt lat="45.21578" lon="6.02773">
        <ele>2046.3</ele>
        <time>2023-08-10T16:55:09Z</time>
      </trkpt>
      <trkpt lat="45.21583" lon="6.02779">
        <ele>2044.38</ele>
        <time>2023-08-10T16:55:20Z</time>
      </trkpt>
      <trkpt lat="45.21586" lon="6.02791">
        <ele>2041.98</ele>
        <time>2023-08-10T16:55:33Z</time>
      </trkpt>
      <trkpt lat="45.21591" lon="6.02803">
        <ele>2040.05</ele>
        <time>2023-08-10T16:55:48Z</time>
      </trkpt>
      <trkpt lat="45.21595" lon="6.02805">
        <ele>2037.17</ele>
        <time>2023-08-10T16:56:01Z</time>
      </trkpt>
      <trkpt lat="45.21599" lon="6.02811">
        <ele>2033.81</ele>
        <time>2023-08-10T16:56:17Z</time>
      </trkpt>
      <trkpt lat="45.21599" lon="6.0282">
        <ele>2031.88</ele>
        <time>2023-08-10T16:56:30Z</time>
      </trkpt>
      <trkpt lat="45.21604" lon="6.02825">
        <ele>2029</ele>
        <time>2023-08-10T16:56:42Z</time>
      </trkpt>
      <trkpt lat="45.21606" lon="6.02828">
        <ele>2028.04</ele>
        <time>2023-08-10T16:56:52Z</time>
      </trkpt>
      <trkpt lat="45.21611" lon="6.02835">
        <ele>2025.64</ele>
        <time>2023-08-10T16:57:03Z</time>
      </trkpt>
      <trkpt lat="45.21612" lon="6.02839">
        <ele>2024.67</ele>
        <time>2023-08-10T16:57:07Z</time>
      </trkpt>
      <trkpt lat="45.21614" lon="6.02843">
        <ele>2024.19</ele>
        <time>2023-08-10T16:57:11Z</time>
      </trkpt>
      <trkpt lat="45.21623" lon="6.02854">
        <ele>2022.27</ele>
        <time>2023-08-10T16:57:29Z</time>
      </trkpt>
      <trkpt lat="45.21628" lon="6.02861">
        <ele>2021.31</ele>
        <time>2023-08-10T16:57:39Z</time>
      </trkpt>
      <trkpt lat="45.21637" lon="6.02863">
        <ele>2018.91</ele>
        <time>2023-08-10T16:57:52Z</time>
      </trkpt>
      <trkpt lat="45.21638" lon="6.02865">
        <ele>2017.94</ele>
        <time>2023-08-10T16:58:02Z</time>
      </trkpt>
      <trkpt lat="45.21642" lon="6.02862">
        <ele>2016.5</ele>
        <time>2023-08-10T16:58:11Z</time>
      </trkpt>
      <trkpt lat="45.21649" lon="6.02866">
        <ele>2013.62</ele>
        <time>2023-08-10T16:58:24Z</time>
      </trkpt>
      <trkpt lat="45.21653" lon="6.02867">
        <ele>2012.66</ele>
        <time>2023-08-10T16:58:32Z</time>
      </trkpt>
      <trkpt lat="45.21665" lon="6.02868">
        <ele>2011.7</ele>
        <time>2023-08-10T16:58:46Z</time>
      </trkpt>
      <trkpt lat="45.21671" lon="6.02866">
        <ele>2011.22</ele>
        <time>2023-08-10T16:58:55Z</time>
      </trkpt>
      <trkpt lat="45.21674" lon="6.02865">
        <ele>2012.66</ele>
        <time>2023-08-10T16:59:00Z</time>
      </trkpt>
      <trkpt lat="45.21678" lon="6.02867">
        <ele>2014.1</ele>
        <time>2023-08-10T16:59:12Z</time>
      </trkpt>
      <trkpt lat="45.2168" lon="6.02868">
        <ele>2014.1</ele>
        <time>2023-08-10T16:59:14Z</time>
      </trkpt>
      <trkpt lat="45.21683" lon="6.02868">
        <ele>2014.1</ele>
        <time>2023-08-10T16:59:17Z</time>
      </trkpt>
      <trkpt lat="45.21692" lon="6.02868">
        <ele>2015.06</ele>
        <time>2023-08-10T16:59:30Z</time>
      </trkpt>
      <trkpt lat="45.217" lon="6.02873">
        <ele>2016.02</ele>
        <time>2023-08-10T16:59:46Z</time>
      </trkpt>
      <trkpt lat="45.21704" lon="6.02876">
        <ele>2014.58</ele>
        <time>2023-08-10T16:59:54Z</time>
      </trkpt>
      <trkpt lat="45.21705" lon="6.02878">
        <ele>2014.58</ele>
        <time>2023-08-10T16:59:56Z</time>
      </trkpt>
      <trkpt lat="45.2171" lon="6.02881">
        <ele>2012.66</ele>
        <time>2023-08-10T17:00:08Z</time>
      </trkpt>
      <trkpt lat="45.21718" lon="6.02877">
        <ele>2011.7</ele>
        <time>2023-08-10T17:00:21Z</time>
      </trkpt>
      <trkpt lat="45.21719" lon="6.02884">
        <ele>2009.77</ele>
        <time>2023-08-10T17:00:35Z</time>
      </trkpt>
      <trkpt lat="45.21724" lon="6.02887">
        <ele>2006.41</ele>
        <time>2023-08-10T17:00:48Z</time>
      </trkpt>
      <trkpt lat="45.21725" lon="6.0289">
        <ele>2006.41</ele>
        <time>2023-08-10T17:00:50Z</time>
      </trkpt>
      <trkpt lat="45.21729" lon="6.02897">
        <ele>2004.01</ele>
        <time>2023-08-10T17:01:03Z</time>
      </trkpt>
      <trkpt lat="45.21735" lon="6.029">
        <ele>2002.08</ele>
        <time>2023-08-10T17:01:15Z</time>
      </trkpt>
      <trkpt lat="45.2174" lon="6.0291">
        <ele>1999.68</ele>
        <time>2023-08-10T17:01:29Z</time>
      </trkpt>
      <trkpt lat="45.21748" lon="6.0292">
        <ele>1997.76</ele>
        <time>2023-08-10T17:01:42Z</time>
      </trkpt>
      <trkpt lat="45.21747" lon="6.02919">
        <ele>1997.28</ele>
        <time>2023-08-10T17:02:01Z</time>
      </trkpt>
      <trkpt lat="45.21753" lon="6.02926">
        <ele>1997.28</ele>
        <time>2023-08-10T17:02:30Z</time>
      </trkpt>
      <trkpt lat="45.21756" lon="6.02932">
        <ele>1996.32</ele>
        <time>2023-08-10T17:02:38Z</time>
      </trkpt>
      <trkpt lat="45.21755" lon="6.02939">
        <ele>1994.87</ele>
        <time>2023-08-10T17:02:49Z</time>
      </trkpt>
      <trkpt lat="45.21753" lon="6.02944">
        <ele>1992.95</ele>
        <time>2023-08-10T17:02:56Z</time>
      </trkpt>
      <trkpt lat="45.21751" lon="6.02944">
        <ele>1992.95</ele>
        <time>2023-08-10T17:02:58Z</time>
      </trkpt>
      <trkpt lat="45.21751" lon="6.02946">
        <ele>1992.95</ele>
        <time>2023-08-10T17:03:00Z</time>
      </trkpt>
      <trkpt lat="45.21752" lon="6.02959">
        <ele>1990.07</ele>
        <time>2023-08-10T17:03:13Z</time>
      </trkpt>
      <trkpt lat="45.21751" lon="6.02962">
        <ele>1990.07</ele>
        <time>2023-08-10T17:03:15Z</time>
      </trkpt>
      <trkpt lat="45.21747" lon="6.02967">
        <ele>1988.62</ele>
        <time>2023-08-10T17:03:30Z</time>
      </trkpt>
      <trkpt lat="45.21747" lon="6.02966">
        <ele>1988.62</ele>
        <time>2023-08-10T17:03:54Z</time>
      </trkpt>
      <trkpt lat="45.21748" lon="6.0296">
        <ele>1987.18</ele>
        <time>2023-08-10T17:05:09Z</time>
      </trkpt>
      <trkpt lat="45.21743" lon="6.02956">
        <ele>1985.74</ele>
        <time>2023-08-10T17:05:23Z</time>
      </trkpt>
      <trkpt lat="45.21741" lon="6.02956">
        <ele>1985.74</ele>
        <time>2023-08-10T17:05:25Z</time>
      </trkpt>
      <trkpt lat="45.21731" lon="6.02953">
        <ele>1981.9</ele>
        <time>2023-08-10T17:05:40Z</time>
      </trkpt>
      <trkpt lat="45.21718" lon="6.02953">
        <ele>1979.49</ele>
        <time>2023-08-10T17:05:54Z</time>
      </trkpt>
      <trkpt lat="45.21706" lon="6.02957">
        <ele>1979.01</ele>
        <time>2023-08-10T17:06:09Z</time>
      </trkpt>
      <trkpt lat="45.21701" lon="6.02961">
        <ele>1979.01</ele>
        <time>2023-08-10T17:06:24Z</time>
      </trkpt>
      <trkpt lat="45.217" lon="6.02965">
        <ele>1978.05</ele>
        <time>2023-08-10T17:06:36Z</time>
      </trkpt>
      <trkpt lat="45.217" lon="6.02967">
        <ele>1977.57</ele>
        <time>2023-08-10T17:06:39Z</time>
      </trkpt>
      <trkpt lat="45.217" lon="6.02974">
        <ele>1976.13</ele>
        <time>2023-08-10T17:06:49Z</time>
      </trkpt>
      <trkpt lat="45.21697" lon="6.02968">
        <ele>1976.13</ele>
        <time>2023-08-10T17:07:01Z</time>
      </trkpt>
      <trkpt lat="45.21688" lon="6.02962">
        <ele>1976.13</ele>
        <time>2023-08-10T17:07:14Z</time>
      </trkpt>
      <trkpt lat="45.21684" lon="6.02971">
        <ele>1977.57</ele>
        <time>2023-08-10T17:07:27Z</time>
      </trkpt>
      <trkpt lat="45.21684" lon="6.02971">
        <ele>1977.57</ele>
        <time>2023-08-10T17:07:28Z</time>
      </trkpt>
      <trkpt lat="45.21683" lon="6.02978">
        <ele>1977.57</ele>
        <time>2023-08-10T17:07:42Z</time>
      </trkpt>
      <trkpt lat="45.21687" lon="6.02981">
        <ele>1978.05</ele>
        <time>2023-08-10T17:07:57Z</time>
      </trkpt>
      <trkpt lat="45.21688" lon="6.02981">
        <ele>1978.05</ele>
        <time>2023-08-10T17:07:59Z</time>
      </trkpt>
      <trkpt lat="45.21691" lon="6.02986">
        <ele>1978.05</ele>
        <time>2023-08-10T17:08:07Z</time>
      </trkpt>
      <trkpt lat="45.21695" lon="6.02998">
        <ele>1978.53</ele>
        <time>2023-08-10T17:08:21Z</time>
      </trkpt>
      <trkpt lat="45.21698" lon="6.03011">
        <ele>1978.53</ele>
        <time>2023-08-10T17:08:36Z</time>
      </trkpt>
      <trkpt lat="45.217" lon="6.0302">
        <ele>1977.09</ele>
        <time>2023-08-10T17:08:48Z</time>
      </trkpt>
      <trkpt lat="45.21701" lon="6.03025">
        <ele>1976.13</ele>
        <time>2023-08-10T17:08:59Z</time>
      </trkpt>
      <trkpt lat="45.21705" lon="6.03034">
        <ele>1977.09</ele>
        <time>2023-08-10T17:09:13Z</time>
      </trkpt>
      <trkpt lat="45.21705" lon="6.03035">
        <ele>1977.09</ele>
        <time>2023-08-10T17:09:14Z</time>
      </trkpt>
      <trkpt lat="45.21709" lon="6.03034">
        <ele>1975.65</ele>
        <time>2023-08-10T17:09:23Z</time>
      </trkpt>
      <trkpt lat="45.21709" lon="6.03033">
        <ele>1975.17</ele>
        <time>2023-08-10T17:09:35Z</time>
      </trkpt>
      <trkpt lat="45.21709" lon="6.03032">
        <ele>1975.17</ele>
        <time>2023-08-10T17:09:52Z</time>
      </trkpt>
      <trkpt lat="45.21705" lon="6.03036">
        <ele>1975.17</ele>
        <time>2023-08-10T17:10:04Z</time>
      </trkpt>
      <trkpt lat="45.21704" lon="6.03038">
        <ele>1976.13</ele>
        <time>2023-08-10T17:10:06Z</time>
      </trkpt>
      <trkpt lat="45.21703" lon="6.03045">
        <ele>1978.05</ele>
        <time>2023-08-10T17:10:19Z</time>
      </trkpt>
      <trkpt lat="45.21705" lon="6.03049">
        <ele>1979.01</ele>
        <time>2023-08-10T17:10:26Z</time>
      </trkpt>
      <trkpt lat="45.21708" lon="6.03056">
        <ele>1979.97</ele>
        <time>2023-08-10T17:10:34Z</time>
      </trkpt>
      <trkpt lat="45.21707" lon="6.03062">
        <ele>1980.93</ele>
        <time>2023-08-10T17:10:46Z</time>
      </trkpt>
      <trkpt lat="45.21702" lon="6.03061">
        <ele>1909.8</ele>
        <time>2023-08-11T05:04:34Z</time>
      </trkpt>
      <trkpt lat="45.21702" lon="6.03052">
        <ele>1913.16</ele>
        <time>2023-08-11T05:04:50Z</time>
      </trkpt>
      <trkpt lat="45.21704" lon="6.03051">
        <ele>1914.12</ele>
        <time>2023-08-11T05:05:03Z</time>
      </trkpt>
      <trkpt lat="45.2171" lon="6.03048">
        <ele>1915.08</ele>
        <time>2023-08-11T05:05:18Z</time>
      </trkpt>
      <trkpt lat="45.2171" lon="6.03055">
        <ele>1915.56</ele>
        <time>2023-08-11T05:05:30Z</time>
      </trkpt>
      <trkpt lat="45.21715" lon="6.03061">
        <ele>1916.53</ele>
        <time>2023-08-11T05:05:42Z</time>
      </trkpt>
      <trkpt lat="45.21722" lon="6.03059">
        <ele>1914.6</ele>
        <time>2023-08-11T05:05:58Z</time>
      </trkpt>
      <trkpt lat="45.21721" lon="6.0306">
        <ele>1914.12</ele>
        <time>2023-08-11T05:06:18Z</time>
      </trkpt>
      <trkpt lat="45.21721" lon="6.03058">
        <ele>1912.2</ele>
        <time>2023-08-11T05:06:24Z</time>
      </trkpt>
      <trkpt lat="45.21721" lon="6.03058">
        <ele>1913.16</ele>
        <time>2023-08-11T05:06:28Z</time>
      </trkpt>
      <trkpt lat="45.21719" lon="6.0306">
        <ele>1913.16</ele>
        <time>2023-08-11T05:06:47Z</time>
      </trkpt>
      <trkpt lat="45.21717" lon="6.03058">
        <ele>1914.6</ele>
        <time>2023-08-11T05:07:07Z</time>
      </trkpt>
      <trkpt lat="45.21714" lon="6.03058">
        <ele>1914.6</ele>
        <time>2023-08-11T05:07:23Z</time>
      </trkpt>
      <trkpt lat="45.21716" lon="6.03051">
        <ele>1914.6</ele>
        <time>2023-08-11T05:07:40Z</time>
      </trkpt>
      <trkpt lat="45.21714" lon="6.0305">
        <ele>1914.6</ele>
        <time>2023-08-11T05:07:53Z</time>
      </trkpt>
      <trkpt lat="45.21713" lon="6.03048">
        <ele>1914.6</ele>
        <time>2023-08-11T05:08:20Z</time>
      </trkpt>
      <trkpt lat="45.21714" lon="6.03046">
        <ele>1914.6</ele>
        <time>2023-08-11T05:08:48Z</time>
      </trkpt>
      <trkpt lat="45.21726" lon="6.03043">
        <ele>1914.6</ele>
        <time>2023-08-11T05:09:03Z</time>
      </trkpt>
      <trkpt lat="45.21733" lon="6.03043">
        <ele>1919.41</ele>
        <time>2023-08-11T05:09:18Z</time>
      </trkpt>
      <trkpt lat="45.21735" lon="6.03043">
        <ele>1924.22</ele>
        <time>2023-08-11T05:09:20Z</time>
      </trkpt>
      <trkpt lat="45.21735" lon="6.03042">
        <ele>1928.54</ele>
        <time>2023-08-11T05:09:22Z</time>
      </trkpt>
      <trkpt lat="45.21736" lon="6.03042">
        <ele>1932.39</ele>
        <time>2023-08-11T05:09:24Z</time>
      </trkpt>
      <trkpt lat="45.2174" lon="6.03041">
        <ele>1935.75</ele>
        <time>2023-08-11T05:09:26Z</time>
      </trkpt>
      <trkpt lat="45.21741" lon="6.03042">
        <ele>1940.08</ele>
        <time>2023-08-11T05:09:29Z</time>
      </trkpt>
      <trkpt lat="45.21742" lon="6.03042">
        <ele>1942.96</ele>
        <time>2023-08-11T05:09:30Z</time>
      </trkpt>
      <trkpt lat="45.21742" lon="6.03042">
        <ele>1942.96</ele>
        <time>2023-08-11T05:09:31Z</time>
      </trkpt>
      <trkpt lat="45.21744" lon="6.03041">
        <ele>1946.81</ele>
        <time>2023-08-11T05:09:34Z</time>
      </trkpt>
      <trkpt lat="45.21746" lon="6.0304">
        <ele>1950.17</ele>
        <time>2023-08-11T05:09:37Z</time>
      </trkpt>
      <trkpt lat="45.2175" lon="6.0304">
        <ele>1954.02</ele>
        <time>2023-08-11T05:09:41Z</time>
      </trkpt>
      <trkpt lat="45.21752" lon="6.03036">
        <ele>1956.9</ele>
        <time>2023-08-11T05:09:46Z</time>
      </trkpt>
      <trkpt lat="45.21753" lon="6.03031">
        <ele>1960.27</ele>
        <time>2023-08-11T05:09:52Z</time>
      </trkpt>
      <trkpt lat="45.21754" lon="6.03022">
        <ele>1963.63</ele>
        <time>2023-08-11T05:10:00Z</time>
      </trkpt>
      <trkpt lat="45.21755" lon="6.0302">
        <ele>1966.03</ele>
        <time>2023-08-11T05:10:05Z</time>
      </trkpt>
      <trkpt lat="45.21754" lon="6.03018">
        <ele>1967.48</ele>
        <time>2023-08-11T05:10:09Z</time>
      </trkpt>
      <trkpt lat="45.21752" lon="6.0301">
        <ele>1970.36</ele>
        <time>2023-08-11T05:10:19Z</time>
      </trkpt>
      <trkpt lat="45.21754" lon="6.03">
        <ele>1972.76</ele>
        <time>2023-08-11T05:10:34Z</time>
      </trkpt>
      <trkpt lat="45.21756" lon="6.02988">
        <ele>1975.17</ele>
        <time>2023-08-11T05:10:47Z</time>
      </trkpt>
      <trkpt lat="45.21755" lon="6.02975">
        <ele>1977.09</ele>
        <time>2023-08-11T05:11:00Z</time>
      </trkpt>
      <trkpt lat="45.21761" lon="6.02974">
        <ele>1979.01</ele>
        <time>2023-08-11T05:11:15Z</time>
      </trkpt>
      <trkpt lat="45.21772" lon="6.02979">
        <ele>1981.41</ele>
        <time>2023-08-11T05:11:31Z</time>
      </trkpt>
      <trkpt lat="45.21773" lon="6.02967">
        <ele>1982.38</ele>
        <time>2023-08-11T05:11:44Z</time>
      </trkpt>
      <trkpt lat="45.21775" lon="6.02958">
        <ele>1984.78</ele>
        <time>2023-08-11T05:12:01Z</time>
      </trkpt>
      <trkpt lat="45.21774" lon="6.02951">
        <ele>1984.78</ele>
        <time>2023-08-11T05:12:14Z</time>
      </trkpt>
      <trkpt lat="45.21774" lon="6.02942">
        <ele>1983.82</ele>
        <time>2023-08-11T05:12:23Z</time>
      </trkpt>
      <trkpt lat="45.21774" lon="6.02946">
        <ele>1983.82</ele>
        <time>2023-08-11T05:12:34Z</time>
      </trkpt>
      <trkpt lat="45.21773" lon="6.02956">
        <ele>1984.78</ele>
        <time>2023-08-11T05:12:44Z</time>
      </trkpt>
      <trkpt lat="45.21774" lon="6.02964">
        <ele>1985.26</ele>
        <time>2023-08-11T05:12:53Z</time>
      </trkpt>
      <trkpt lat="45.21778" lon="6.02982">
        <ele>1985.26</ele>
        <time>2023-08-11T05:13:09Z</time>
      </trkpt>
      <trkpt lat="45.21778" lon="6.02987">
        <ele>1985.74</ele>
        <time>2023-08-11T05:13:15Z</time>
      </trkpt>
      <trkpt lat="45.21776" lon="6.02988">
        <ele>1985.74</ele>
        <time>2023-08-11T05:13:17Z</time>
      </trkpt>
      <trkpt lat="45.21778" lon="6.03005">
        <ele>1985.74</ele>
        <time>2023-08-11T05:13:30Z</time>
      </trkpt>
      <trkpt lat="45.21773" lon="6.03022">
        <ele>1986.22</ele>
        <time>2023-08-11T05:13:47Z</time>
      </trkpt>
      <trkpt lat="45.21777" lon="6.03036">
        <ele>1988.62</ele>
        <time>2023-08-11T05:14:03Z</time>
      </trkpt>
      <trkpt lat="45.21779" lon="6.03051">
        <ele>1988.62</ele>
        <time>2023-08-11T05:14:16Z</time>
      </trkpt>
      <trkpt lat="45.21779" lon="6.03075">
        <ele>1988.62</ele>
        <time>2023-08-11T05:14:35Z</time>
      </trkpt>
      <trkpt lat="45.21778" lon="6.03077">
        <ele>1988.62</ele>
        <time>2023-08-11T05:14:37Z</time>
      </trkpt>
      <trkpt lat="45.21776" lon="6.03093">
        <ele>1988.62</ele>
        <time>2023-08-11T05:14:50Z</time>
      </trkpt>
      <trkpt lat="45.21772" lon="6.03115">
        <ele>1987.66</ele>
        <time>2023-08-11T05:15:07Z</time>
      </trkpt>
      <trkpt lat="45.2177" lon="6.03126">
        <ele>1988.62</ele>
        <time>2023-08-11T05:15:19Z</time>
      </trkpt>
      <trkpt lat="45.21766" lon="6.03136">
        <ele>1990.07</ele>
        <time>2023-08-11T05:15:35Z</time>
      </trkpt>
      <trkpt lat="45.21767" lon="6.03139">
        <ele>1991.03</ele>
        <time>2023-08-11T05:15:51Z</time>
      </trkpt>
      <trkpt lat="45.2177" lon="6.03141">
        <ele>1992.47</ele>
        <time>2023-08-11T05:16:12Z</time>
      </trkpt>
      <trkpt lat="45.21773" lon="6.03148">
        <ele>1994.87</ele>
        <time>2023-08-11T05:16:35Z</time>
      </trkpt>
      <trkpt lat="45.21778" lon="6.03163">
        <ele>1995.83</ele>
        <time>2023-08-11T05:16:51Z</time>
      </trkpt>
      <trkpt lat="45.21777" lon="6.03182">
        <ele>1995.83</ele>
        <time>2023-08-11T05:17:06Z</time>
      </trkpt>
      <trkpt lat="45.21783" lon="6.03194">
        <ele>1996.8</ele>
        <time>2023-08-11T05:17:20Z</time>
      </trkpt>
      <trkpt lat="45.21785" lon="6.03214">
        <ele>1997.76</ele>
        <time>2023-08-11T05:17:38Z</time>
      </trkpt>
      <trkpt lat="45.21787" lon="6.03231">
        <ele>2000.64</ele>
        <time>2023-08-11T05:17:57Z</time>
      </trkpt>
      <trkpt lat="45.21791" lon="6.03249">
        <ele>2002.56</ele>
        <time>2023-08-11T05:18:16Z</time>
      </trkpt>
      <trkpt lat="45.21793" lon="6.03266">
        <ele>2004.01</ele>
        <time>2023-08-11T05:18:34Z</time>
      </trkpt>
      <trkpt lat="45.21799" lon="6.03274">
        <ele>2006.41</ele>
        <time>2023-08-11T05:18:50Z</time>
      </trkpt>
      <trkpt lat="45.21806" lon="6.03286">
        <ele>2008.81</ele>
        <time>2023-08-11T05:19:08Z</time>
      </trkpt>
      <trkpt lat="45.21813" lon="6.03298">
        <ele>2008.81</ele>
        <time>2023-08-11T05:19:24Z</time>
      </trkpt>
      <trkpt lat="45.21816" lon="6.03301">
        <ele>2008.81</ele>
        <time>2023-08-11T05:19:28Z</time>
      </trkpt>
      <trkpt lat="45.21825" lon="6.03317">
        <ele>2007.37</ele>
        <time>2023-08-11T05:19:44Z</time>
      </trkpt>
      <trkpt lat="45.21835" lon="6.03333">
        <ele>2004.97</ele>
        <time>2023-08-11T05:20:01Z</time>
      </trkpt>
      <trkpt lat="45.2185" lon="6.03344">
        <ele>2002.56</ele>
        <time>2023-08-11T05:20:20Z</time>
      </trkpt>
      <trkpt lat="45.2186" lon="6.03359">
        <ele>1999.68</ele>
        <time>2023-08-11T05:20:38Z</time>
      </trkpt>
      <trkpt lat="45.2187" lon="6.03372">
        <ele>1998.72</ele>
        <time>2023-08-11T05:20:52Z</time>
      </trkpt>
      <trkpt lat="45.21883" lon="6.0339">
        <ele>1995.83</ele>
        <time>2023-08-11T05:21:11Z</time>
      </trkpt>
      <trkpt lat="45.21894" lon="6.03405">
        <ele>1995.35</ele>
        <time>2023-08-11T05:21:29Z</time>
      </trkpt>
      <trkpt lat="45.21899" lon="6.03412">
        <ele>1993.43</ele>
        <time>2023-08-11T05:21:43Z</time>
      </trkpt>
      <trkpt lat="45.21906" lon="6.0342">
        <ele>1990.07</ele>
        <time>2023-08-11T05:21:58Z</time>
      </trkpt>
      <trkpt lat="45.21911" lon="6.03423">
        <ele>1987.18</ele>
        <time>2023-08-11T05:22:12Z</time>
      </trkpt>
      <trkpt lat="45.21916" lon="6.03423">
        <ele>1985.26</ele>
        <time>2023-08-11T05:22:24Z</time>
      </trkpt>
      <trkpt lat="45.21921" lon="6.03423">
        <ele>1984.3</ele>
        <time>2023-08-11T05:22:42Z</time>
      </trkpt>
      <trkpt lat="45.21925" lon="6.03424">
        <ele>1983.34</ele>
        <time>2023-08-11T05:23:12Z</time>
      </trkpt>
      <trkpt lat="45.21927" lon="6.03427">
        <ele>1980.93</ele>
        <time>2023-08-11T05:23:24Z</time>
      </trkpt>
      <trkpt lat="45.21934" lon="6.03429">
        <ele>1979.97</ele>
        <time>2023-08-11T05:23:39Z</time>
      </trkpt>
      <trkpt lat="45.21935" lon="6.03427">
        <ele>1979.49</ele>
        <time>2023-08-11T05:23:57Z</time>
      </trkpt>
      <trkpt lat="45.21934" lon="6.03427">
        <ele>1979.49</ele>
        <time>2023-08-11T05:24:28Z</time>
      </trkpt>
      <trkpt lat="45.2194" lon="6.03427">
        <ele>1978.53</ele>
        <time>2023-08-11T05:25:02Z</time>
      </trkpt>
      <trkpt lat="45.21943" lon="6.03427">
        <ele>1978.05</ele>
        <time>2023-08-11T05:25:06Z</time>
      </trkpt>
      <trkpt lat="45.21951" lon="6.03434">
        <ele>1975.17</ele>
        <time>2023-08-11T05:25:20Z</time>
      </trkpt>
      <trkpt lat="45.21962" lon="6.03435">
        <ele>1973.72</ele>
        <time>2023-08-11T05:25:33Z</time>
      </trkpt>
      <trkpt lat="45.21976" lon="6.03435">
        <ele>1972.28</ele>
        <time>2023-08-11T05:25:49Z</time>
      </trkpt>
      <trkpt lat="45.2198" lon="6.03433">
        <ele>1971.8</ele>
        <time>2023-08-11T05:25:54Z</time>
      </trkpt>
      <trkpt lat="45.21987" lon="6.03431">
        <ele>1971.8</ele>
        <time>2023-08-11T05:26:02Z</time>
      </trkpt>
      <trkpt lat="45.21993" lon="6.03433">
        <ele>1971.32</ele>
        <time>2023-08-11T05:26:09Z</time>
      </trkpt>
      <trkpt lat="45.22002" lon="6.03441">
        <ele>1968.92</ele>
        <time>2023-08-11T05:26:23Z</time>
      </trkpt>
      <trkpt lat="45.22009" lon="6.03444">
        <ele>1966.99</ele>
        <time>2023-08-11T05:26:34Z</time>
      </trkpt>
      <trkpt lat="45.2202" lon="6.03443">
        <ele>1965.07</ele>
        <time>2023-08-11T05:26:49Z</time>
      </trkpt>
      <trkpt lat="45.22028" lon="6.03443">
        <ele>1964.59</ele>
        <time>2023-08-11T05:27:05Z</time>
      </trkpt>
      <trkpt lat="45.22039" lon="6.03439">
        <ele>1964.11</ele>
        <time>2023-08-11T05:27:26Z</time>
      </trkpt>
      <trkpt lat="45.22055" lon="6.03436">
        <ele>1964.11</ele>
        <time>2023-08-11T05:27:43Z</time>
      </trkpt>
      <trkpt lat="45.22063" lon="6.03429">
        <ele>1966.51</ele>
        <time>2023-08-11T05:27:57Z</time>
      </trkpt>
      <trkpt lat="45.22072" lon="6.03428">
        <ele>1965.55</ele>
        <time>2023-08-11T05:28:13Z</time>
      </trkpt>
      <trkpt lat="45.22077" lon="6.03431">
        <ele>1965.55</ele>
        <time>2023-08-11T05:28:25Z</time>
      </trkpt>
      <trkpt lat="45.22083" lon="6.03436">
        <ele>1964.59</ele>
        <time>2023-08-11T05:28:40Z</time>
      </trkpt>
      <trkpt lat="45.22087" lon="6.03439">
        <ele>1964.59</ele>
        <time>2023-08-11T05:28:55Z</time>
      </trkpt>
      <trkpt lat="45.22088" lon="6.03439">
        <ele>1966.03</ele>
        <time>2023-08-11T05:28:58Z</time>
      </trkpt>
      <trkpt lat="45.22095" lon="6.03444">
        <ele>1966.51</ele>
        <time>2023-08-11T05:29:11Z</time>
      </trkpt>
      <trkpt lat="45.22103" lon="6.03446">
        <ele>1965.07</ele>
        <time>2023-08-11T05:29:27Z</time>
      </trkpt>
      <trkpt lat="45.2211" lon="6.03446">
        <ele>1966.99</ele>
        <time>2023-08-11T05:29:37Z</time>
      </trkpt>
      <trkpt lat="45.22114" lon="6.03452">
        <ele>1966.99</ele>
        <time>2023-08-11T05:29:44Z</time>
      </trkpt>
      <trkpt lat="45.22116" lon="6.03453">
        <ele>1965.55</ele>
        <time>2023-08-11T05:29:46Z</time>
      </trkpt>
      <trkpt lat="45.22128" lon="6.03456">
        <ele>1966.99</ele>
        <time>2023-08-11T05:30:01Z</time>
      </trkpt>
      <trkpt lat="45.22137" lon="6.03461">
        <ele>1966.51</ele>
        <time>2023-08-11T05:30:15Z</time>
      </trkpt>
      <trkpt lat="45.22149" lon="6.03464">
        <ele>1966.03</ele>
        <time>2023-08-11T05:30:30Z</time>
      </trkpt>
      <trkpt lat="45.22158" lon="6.03472">
        <ele>1964.11</ele>
        <time>2023-08-11T05:30:47Z</time>
      </trkpt>
      <trkpt lat="45.22165" lon="6.0348">
        <ele>1962.19</ele>
        <time>2023-08-11T05:31:01Z</time>
      </trkpt>
      <trkpt lat="45.22179" lon="6.03484">
        <ele>1960.27</ele>
        <time>2023-08-11T05:31:15Z</time>
      </trkpt>
      <trkpt lat="45.22189" lon="6.03487">
        <ele>1959.3</ele>
        <time>2023-08-11T05:31:29Z</time>
      </trkpt>
      <trkpt lat="45.22202" lon="6.03492">
        <ele>1958.82</ele>
        <time>2023-08-11T05:31:44Z</time>
      </trkpt>
      <trkpt lat="45.22212" lon="6.03494">
        <ele>1960.27</ele>
        <time>2023-08-11T05:31:59Z</time>
      </trkpt>
      <trkpt lat="45.22219" lon="6.035">
        <ele>1958.82</ele>
        <time>2023-08-11T05:32:10Z</time>
      </trkpt>
      <trkpt lat="45.22227" lon="6.03504">
        <ele>1960.27</ele>
        <time>2023-08-11T05:32:24Z</time>
      </trkpt>
      <trkpt lat="45.22234" lon="6.03509">
        <ele>1962.67</ele>
        <time>2023-08-11T05:32:40Z</time>
      </trkpt>
      <trkpt lat="45.22245" lon="6.03512">
        <ele>1964.11</ele>
        <time>2023-08-11T05:32:57Z</time>
      </trkpt>
      <trkpt lat="45.22257" lon="6.03514">
        <ele>1965.07</ele>
        <time>2023-08-11T05:33:16Z</time>
      </trkpt>
      <trkpt lat="45.22258" lon="6.03515">
        <ele>1967.48</ele>
        <time>2023-08-11T05:33:33Z</time>
      </trkpt>
      <trkpt lat="45.22268" lon="6.03517">
        <ele>1966.51</ele>
        <time>2023-08-11T05:33:43Z</time>
      </trkpt>
      <trkpt lat="45.22281" lon="6.03516">
        <ele>1966.99</ele>
        <time>2023-08-11T05:33:57Z</time>
      </trkpt>
      <trkpt lat="45.22291" lon="6.03512">
        <ele>1968.44</ele>
        <time>2023-08-11T05:34:12Z</time>
      </trkpt>
      <trkpt lat="45.22303" lon="6.03506">
        <ele>1970.36</ele>
        <time>2023-08-11T05:34:29Z</time>
      </trkpt>
      <trkpt lat="45.22307" lon="6.03504">
        <ele>1971.8</ele>
        <time>2023-08-11T05:34:45Z</time>
      </trkpt>
      <trkpt lat="45.22316" lon="6.03508">
        <ele>1972.28</ele>
        <time>2023-08-11T05:34:59Z</time>
      </trkpt>
      <trkpt lat="45.22326" lon="6.03505">
        <ele>1973.24</ele>
        <time>2023-08-11T05:35:14Z</time>
      </trkpt>
      <trkpt lat="45.22326" lon="6.03506">
        <ele>1973.24</ele>
        <time>2023-08-11T05:35:36Z</time>
      </trkpt>
      <trkpt lat="45.22331" lon="6.03511">
        <ele>1973.72</ele>
        <time>2023-08-11T05:36:06Z</time>
      </trkpt>
      <trkpt lat="45.22335" lon="6.0351">
        <ele>1976.61</ele>
        <time>2023-08-11T05:36:24Z</time>
      </trkpt>
      <trkpt lat="45.22342" lon="6.03511">
        <ele>1978.53</ele>
        <time>2023-08-11T05:36:40Z</time>
      </trkpt>
      <trkpt lat="45.22349" lon="6.03512">
        <ele>1980.45</ele>
        <time>2023-08-11T05:36:54Z</time>
      </trkpt>
      <trkpt lat="45.2235" lon="6.03516">
        <ele>1980.93</ele>
        <time>2023-08-11T05:37:09Z</time>
      </trkpt>
      <trkpt lat="45.22352" lon="6.03519">
        <ele>1980.93</ele>
        <time>2023-08-11T05:37:28Z</time>
      </trkpt>
      <trkpt lat="45.22349" lon="6.03516">
        <ele>1980.93</ele>
        <time>2023-08-11T05:37:51Z</time>
      </trkpt>
      <trkpt lat="45.22349" lon="6.03514">
        <ele>1980.93</ele>
        <time>2023-08-11T05:38:12Z</time>
      </trkpt>
      <trkpt lat="45.22349" lon="6.03515">
        <ele>1980.93</ele>
        <time>2023-08-11T05:38:13Z</time>
      </trkpt>
      <trkpt lat="45.22351" lon="6.03519">
        <ele>1980.93</ele>
        <time>2023-08-11T05:38:16Z</time>
      </trkpt>
      <trkpt lat="45.22353" lon="6.0353">
        <ele>1980.93</ele>
        <time>2023-08-11T05:38:27Z</time>
      </trkpt>
      <trkpt lat="45.22356" lon="6.03532">
        <ele>1980.93</ele>
        <time>2023-08-11T05:38:30Z</time>
      </trkpt>
      <trkpt lat="45.22366" lon="6.03533">
        <ele>1981.9</ele>
        <time>2023-08-11T05:38:44Z</time>
      </trkpt>
      <trkpt lat="45.22373" lon="6.03539">
        <ele>1982.38</ele>
        <time>2023-08-11T05:38:58Z</time>
      </trkpt>
      <trkpt lat="45.22378" lon="6.03539">
        <ele>1984.78</ele>
        <time>2023-08-11T05:39:13Z</time>
      </trkpt>
      <trkpt lat="45.22385" lon="6.03547">
        <ele>1984.78</ele>
        <time>2023-08-11T05:39:26Z</time>
      </trkpt>
      <trkpt lat="45.22394" lon="6.03554">
        <ele>1985.74</ele>
        <time>2023-08-11T05:39:40Z</time>
      </trkpt>
      <trkpt lat="45.22402" lon="6.03557">
        <ele>1985.74</ele>
        <time>2023-08-11T05:39:53Z</time>
      </trkpt>
      <trkpt lat="45.22409" lon="6.03558">
        <ele>1987.66</ele>
        <time>2023-08-11T05:40:07Z</time>
      </trkpt>
      <trkpt lat="45.22417" lon="6.03561">
        <ele>1987.66</ele>
        <time>2023-08-11T05:40:21Z</time>
      </trkpt>
      <trkpt lat="45.22423" lon="6.03556">
        <ele>1989.59</ele>
        <time>2023-08-11T05:40:37Z</time>
      </trkpt>
      <trkpt lat="45.2243" lon="6.03559">
        <ele>1990.55</ele>
        <time>2023-08-11T05:40:52Z</time>
      </trkpt>
      <trkpt lat="45.22433" lon="6.03566">
        <ele>1991.51</ele>
        <time>2023-08-11T05:41:05Z</time>
      </trkpt>
      <trkpt lat="45.22441" lon="6.03573">
        <ele>1991.03</ele>
        <time>2023-08-11T05:41:18Z</time>
      </trkpt>
      <trkpt lat="45.22449" lon="6.03587">
        <ele>1992.95</ele>
        <time>2023-08-11T05:41:35Z</time>
      </trkpt>
      <trkpt lat="45.22454" lon="6.03599">
        <ele>1993.91</ele>
        <time>2023-08-11T05:41:50Z</time>
      </trkpt>
      <trkpt lat="45.22458" lon="6.03605">
        <ele>1995.83</ele>
        <time>2023-08-11T05:42:06Z</time>
      </trkpt>
      <trkpt lat="45.22464" lon="6.03615">
        <ele>1997.28</ele>
        <time>2023-08-11T05:42:22Z</time>
      </trkpt>
      <trkpt lat="45.22471" lon="6.03626">
        <ele>1995.83</ele>
        <time>2023-08-11T05:42:36Z</time>
      </trkpt>
      <trkpt lat="45.22472" lon="6.03629">
        <ele>1996.32</ele>
        <time>2023-08-11T05:42:55Z</time>
      </trkpt>
      <trkpt lat="45.22472" lon="6.03629">
        <ele>1996.32</ele>
        <time>2023-08-11T05:43:29Z</time>
      </trkpt>
      <trkpt lat="45.22474" lon="6.03635">
        <ele>1996.32</ele>
        <time>2023-08-11T05:43:48Z</time>
      </trkpt>
      <trkpt lat="45.22476" lon="6.03637">
        <ele>1996.32</ele>
        <time>2023-08-11T05:44:25Z</time>
      </trkpt>
      <trkpt lat="45.22476" lon="6.03636">
        <ele>1996.32</ele>
        <time>2023-08-11T05:45:04Z</time>
      </trkpt>
      <trkpt lat="45.22479" lon="6.03636">
        <ele>1997.76</ele>
        <time>2023-08-11T05:45:10Z</time>
      </trkpt>
      <trkpt lat="45.22479" lon="6.03639">
        <ele>1998.72</ele>
        <time>2023-08-11T05:45:25Z</time>
      </trkpt>
      <trkpt lat="45.22486" lon="6.03647">
        <ele>1999.2</ele>
        <time>2023-08-11T05:45:38Z</time>
      </trkpt>
      <trkpt lat="45.22494" lon="6.03658">
        <ele>2000.16</ele>
        <time>2023-08-11T05:45:55Z</time>
      </trkpt>
      <trkpt lat="45.22504" lon="6.03669">
        <ele>2001.6</ele>
        <time>2023-08-11T05:46:11Z</time>
      </trkpt>
      <trkpt lat="45.22515" lon="6.03676">
        <ele>2003.52</ele>
        <time>2023-08-11T05:46:30Z</time>
      </trkpt>
      <trkpt lat="45.2252" lon="6.0368">
        <ele>2005.93</ele>
        <time>2023-08-11T05:46:46Z</time>
      </trkpt>
      <trkpt lat="45.22527" lon="6.03684">
        <ele>2008.33</ele>
        <time>2023-08-11T05:47:02Z</time>
      </trkpt>
      <trkpt lat="45.22535" lon="6.03686">
        <ele>2010.25</ele>
        <time>2023-08-11T05:47:18Z</time>
      </trkpt>
      <trkpt lat="45.22543" lon="6.0369">
        <ele>2011.22</ele>
        <time>2023-08-11T05:47:35Z</time>
      </trkpt>
      <trkpt lat="45.2255" lon="6.03697">
        <ele>2011.7</ele>
        <time>2023-08-11T05:47:49Z</time>
      </trkpt>
      <trkpt lat="45.22561" lon="6.03703">
        <ele>2011.7</ele>
        <time>2023-08-11T05:48:06Z</time>
      </trkpt>
      <trkpt lat="45.22572" lon="6.03708">
        <ele>2012.66</ele>
        <time>2023-08-11T05:48:23Z</time>
      </trkpt>
      <trkpt lat="45.22577" lon="6.03713">
        <ele>2014.1</ele>
        <time>2023-08-11T05:48:36Z</time>
      </trkpt>
      <trkpt lat="45.22585" lon="6.03724">
        <ele>2014.58</ele>
        <time>2023-08-11T05:48:51Z</time>
      </trkpt>
      <trkpt lat="45.22588" lon="6.03728">
        <ele>2013.14</ele>
        <time>2023-08-11T05:48:59Z</time>
      </trkpt>
      <trkpt lat="45.2259" lon="6.03735">
        <ele>2011.22</ele>
        <time>2023-08-11T05:49:12Z</time>
      </trkpt>
      <trkpt lat="45.22594" lon="6.0374">
        <ele>2009.29</ele>
        <time>2023-08-11T05:49:24Z</time>
      </trkpt>
      <trkpt lat="45.22598" lon="6.03745">
        <ele>2008.81</ele>
        <time>2023-08-11T05:49:31Z</time>
      </trkpt>
      <trkpt lat="45.22604" lon="6.03756">
        <ele>2010.25</ele>
        <time>2023-08-11T05:49:44Z</time>
      </trkpt>
      <trkpt lat="45.22606" lon="6.03758">
        <ele>2010.25</ele>
        <time>2023-08-11T05:49:48Z</time>
      </trkpt>
      <trkpt lat="45.22611" lon="6.03774">
        <ele>2011.22</ele>
        <time>2023-08-11T05:50:06Z</time>
      </trkpt>
      <trkpt lat="45.22619" lon="6.03788">
        <ele>2012.18</ele>
        <time>2023-08-11T05:50:23Z</time>
      </trkpt>
      <trkpt lat="45.22628" lon="6.03801">
        <ele>2014.1</ele>
        <time>2023-08-11T05:50:42Z</time>
      </trkpt>
      <trkpt lat="45.22636" lon="6.03811">
        <ele>2016.98</ele>
        <time>2023-08-11T05:51:01Z</time>
      </trkpt>
      <trkpt lat="45.22639" lon="6.03819">
        <ele>2016.98</ele>
        <time>2023-08-11T05:51:09Z</time>
      </trkpt>
      <trkpt lat="45.22647" lon="6.03831">
        <ele>2017.94</ele>
        <time>2023-08-11T05:51:24Z</time>
      </trkpt>
      <trkpt lat="45.22653" lon="6.03847">
        <ele>2017.94</ele>
        <time>2023-08-11T05:51:39Z</time>
      </trkpt>
      <trkpt lat="45.22659" lon="6.0386">
        <ele>2016.5</ele>
        <time>2023-08-11T05:51:53Z</time>
      </trkpt>
      <trkpt lat="45.22666" lon="6.03872">
        <ele>2016.5</ele>
        <time>2023-08-11T05:52:09Z</time>
      </trkpt>
      <trkpt lat="45.22673" lon="6.03878">
        <ele>2017.46</ele>
        <time>2023-08-11T05:52:21Z</time>
      </trkpt>
      <trkpt lat="45.22678" lon="6.03891">
        <ele>2019.87</ele>
        <time>2023-08-11T05:52:37Z</time>
      </trkpt>
      <trkpt lat="45.22682" lon="6.03903">
        <ele>2021.31</ele>
        <time>2023-08-11T05:52:55Z</time>
      </trkpt>
      <trkpt lat="45.22685" lon="6.03918">
        <ele>2020.35</ele>
        <time>2023-08-11T05:53:10Z</time>
      </trkpt>
      <trkpt lat="45.22686" lon="6.0392">
        <ele>2021.31</ele>
        <time>2023-08-11T05:53:14Z</time>
      </trkpt>
      <trkpt lat="45.22688" lon="6.03928">
        <ele>2024.19</ele>
        <time>2023-08-11T05:53:31Z</time>
      </trkpt>
      <trkpt lat="45.22694" lon="6.03935">
        <ele>2026.6</ele>
        <time>2023-08-11T05:53:51Z</time>
      </trkpt>
      <trkpt lat="45.22699" lon="6.03939">
        <ele>2028.52</ele>
        <time>2023-08-11T05:54:06Z</time>
      </trkpt>
      <trkpt lat="45.22701" lon="6.03941">
        <ele>2030.92</ele>
        <time>2023-08-11T05:54:24Z</time>
      </trkpt>
      <trkpt lat="45.22703" lon="6.03947">
        <ele>2033.33</ele>
        <time>2023-08-11T05:54:39Z</time>
      </trkpt>
      <trkpt lat="45.22707" lon="6.03953">
        <ele>2035.25</ele>
        <time>2023-08-11T05:54:52Z</time>
      </trkpt>
      <trkpt lat="45.22715" lon="6.03957">
        <ele>2037.17</ele>
        <time>2023-08-11T05:55:09Z</time>
      </trkpt>
      <trkpt lat="45.22718" lon="6.03963">
        <ele>2039.57</ele>
        <time>2023-08-11T05:55:26Z</time>
      </trkpt>
      <trkpt lat="45.22721" lon="6.03972">
        <ele>2041.5</ele>
        <time>2023-08-11T05:55:45Z</time>
      </trkpt>
      <trkpt lat="45.22726" lon="6.0398">
        <ele>2044.38</ele>
        <time>2023-08-11T05:56:02Z</time>
      </trkpt>
      <trkpt lat="45.22731" lon="6.03991">
        <ele>2046.3</ele>
        <time>2023-08-11T05:56:21Z</time>
      </trkpt>
      <trkpt lat="45.22736" lon="6.04001">
        <ele>2049.19</ele>
        <time>2023-08-11T05:56:43Z</time>
      </trkpt>
      <trkpt lat="45.22743" lon="6.04009">
        <ele>2051.11</ele>
        <time>2023-08-11T05:57:00Z</time>
      </trkpt>
      <trkpt lat="45.22749" lon="6.04019">
        <ele>2053.03</ele>
        <time>2023-08-11T05:57:19Z</time>
      </trkpt>
      <trkpt lat="45.22749" lon="6.04018">
        <ele>2053.03</ele>
        <time>2023-08-11T05:57:27Z</time>
      </trkpt>
      <trkpt lat="45.22747" lon="6.04025">
        <ele>2054.96</ele>
        <time>2023-08-11T05:57:41Z</time>
      </trkpt>
      <trkpt lat="45.22751" lon="6.04035">
        <ele>2058.32</ele>
        <time>2023-08-11T05:58:00Z</time>
      </trkpt>
      <trkpt lat="45.22758" lon="6.0404">
        <ele>2059.76</ele>
        <time>2023-08-11T05:58:20Z</time>
      </trkpt>
      <trkpt lat="45.22766" lon="6.04042">
        <ele>2062.17</ele>
        <time>2023-08-11T05:58:36Z</time>
      </trkpt>
      <trkpt lat="45.22773" lon="6.04042">
        <ele>2063.61</ele>
        <time>2023-08-11T05:58:52Z</time>
      </trkpt>
      <trkpt lat="45.22776" lon="6.04041">
        <ele>2065.53</ele>
        <time>2023-08-11T05:59:04Z</time>
      </trkpt>
      <trkpt lat="45.22782" lon="6.04043">
        <ele>2066.49</ele>
        <time>2023-08-11T05:59:23Z</time>
      </trkpt>
      <trkpt lat="45.22792" lon="6.0405">
        <ele>2068.41</ele>
        <time>2023-08-11T05:59:42Z</time>
      </trkpt>
      <trkpt lat="45.22794" lon="6.04051">
        <ele>2068.41</ele>
        <time>2023-08-11T05:59:45Z</time>
      </trkpt>
      <trkpt lat="45.22804" lon="6.04054">
        <ele>2070.34</ele>
        <time>2023-08-11T06:00:01Z</time>
      </trkpt>
      <trkpt lat="45.22813" lon="6.04064">
        <ele>2072.26</ele>
        <time>2023-08-11T06:00:20Z</time>
      </trkpt>
      <trkpt lat="45.22821" lon="6.04078">
        <ele>2074.66</ele>
        <time>2023-08-11T06:00:41Z</time>
      </trkpt>
      <trkpt lat="45.22825" lon="6.04093">
        <ele>2077.55</ele>
        <time>2023-08-11T06:01:01Z</time>
      </trkpt>
      <trkpt lat="45.22834" lon="6.04103">
        <ele>2078.99</ele>
        <time>2023-08-11T06:01:17Z</time>
      </trkpt>
      <trkpt lat="45.2284" lon="6.04108">
        <ele>2080.43</ele>
        <time>2023-08-11T06:01:34Z</time>
      </trkpt>
      <trkpt lat="45.2284" lon="6.04118">
        <ele>2080.91</ele>
        <time>2023-08-11T06:01:49Z</time>
      </trkpt>
      <trkpt lat="45.22836" lon="6.04126">
        <ele>2083.31</ele>
        <time>2023-08-11T06:02:07Z</time>
      </trkpt>
      <trkpt lat="45.22831" lon="6.04129">
        <ele>2085.72</ele>
        <time>2023-08-11T06:02:24Z</time>
      </trkpt>
      <trkpt lat="45.22826" lon="6.04139">
        <ele>2088.12</ele>
        <time>2023-08-11T06:02:42Z</time>
      </trkpt>
      <trkpt lat="45.22822" lon="6.04145">
        <ele>2090.04</ele>
        <time>2023-08-11T06:02:56Z</time>
      </trkpt>
      <trkpt lat="45.22819" lon="6.04152">
        <ele>2092.45</ele>
        <time>2023-08-11T06:03:12Z</time>
      </trkpt>
      <trkpt lat="45.22818" lon="6.04153">
        <ele>2092.45</ele>
        <time>2023-08-11T06:03:37Z</time>
      </trkpt>
      <trkpt lat="45.2282" lon="6.0415">
        <ele>2092.93</ele>
        <time>2023-08-11T06:04:01Z</time>
      </trkpt>
      <trkpt lat="45.22816" lon="6.04155">
        <ele>2094.37</ele>
        <time>2023-08-11T06:04:18Z</time>
      </trkpt>
      <trkpt lat="45.22808" lon="6.04167">
        <ele>2096.29</ele>
        <time>2023-08-11T06:04:35Z</time>
      </trkpt>
      <trkpt lat="45.22801" lon="6.04183">
        <ele>2098.21</ele>
        <time>2023-08-11T06:04:54Z</time>
      </trkpt>
      <trkpt lat="45.228" lon="6.04199">
        <ele>2100.14</ele>
        <time>2023-08-11T06:05:12Z</time>
      </trkpt>
      <trkpt lat="45.22796" lon="6.0421">
        <ele>2102.54</ele>
        <time>2023-08-11T06:05:29Z</time>
      </trkpt>
      <trkpt lat="45.22793" lon="6.04222">
        <ele>2105.42</ele>
        <time>2023-08-11T06:05:48Z</time>
      </trkpt>
      <trkpt lat="45.22791" lon="6.04225">
        <ele>2107.35</ele>
        <time>2023-08-11T06:06:04Z</time>
      </trkpt>
      <trkpt lat="45.22784" lon="6.04224">
        <ele>2107.83</ele>
        <time>2023-08-11T06:06:18Z</time>
      </trkpt>
      <trkpt lat="45.22776" lon="6.04228">
        <ele>2108.31</ele>
        <time>2023-08-11T06:06:35Z</time>
      </trkpt>
      <trkpt lat="45.22769" lon="6.04241">
        <ele>2109.75</ele>
        <time>2023-08-11T06:06:52Z</time>
      </trkpt>
      <trkpt lat="45.22765" lon="6.04259">
        <ele>2111.67</ele>
        <time>2023-08-11T06:07:10Z</time>
      </trkpt>
      <trkpt lat="45.22771" lon="6.0428">
        <ele>2111.67</ele>
        <time>2023-08-11T06:07:28Z</time>
      </trkpt>
      <trkpt lat="45.22772" lon="6.04282">
        <ele>2110.23</ele>
        <time>2023-08-11T06:07:30Z</time>
      </trkpt>
      <trkpt lat="45.22777" lon="6.04298">
        <ele>2110.71</ele>
        <time>2023-08-11T06:07:45Z</time>
      </trkpt>
      <trkpt lat="45.22781" lon="6.04316">
        <ele>2110.71</ele>
        <time>2023-08-11T06:08:01Z</time>
      </trkpt>
      <trkpt lat="45.22784" lon="6.04328">
        <ele>2111.67</ele>
        <time>2023-08-11T06:08:17Z</time>
      </trkpt>
      <trkpt lat="45.22784" lon="6.04329">
        <ele>2111.67</ele>
        <time>2023-08-11T06:08:18Z</time>
      </trkpt>
      <trkpt lat="45.22782" lon="6.04342">
        <ele>2112.63</ele>
        <time>2023-08-11T06:08:34Z</time>
      </trkpt>
      <trkpt lat="45.22786" lon="6.04361">
        <ele>2112.63</ele>
        <time>2023-08-11T06:08:50Z</time>
      </trkpt>
      <trkpt lat="45.2279" lon="6.04376">
        <ele>2110.71</ele>
        <time>2023-08-11T06:09:04Z</time>
      </trkpt>
      <trkpt lat="45.2279" lon="6.04386">
        <ele>2110.71</ele>
        <time>2023-08-11T06:09:19Z</time>
      </trkpt>
      <trkpt lat="45.22785" lon="6.04399">
        <ele>2112.63</ele>
        <time>2023-08-11T06:09:35Z</time>
      </trkpt>
      <trkpt lat="45.22782" lon="6.04409">
        <ele>2113.6</ele>
        <time>2023-08-11T06:09:52Z</time>
      </trkpt>
      <trkpt lat="45.22779" lon="6.04417">
        <ele>2115.52</ele>
        <time>2023-08-11T06:10:07Z</time>
      </trkpt>
      <trkpt lat="45.2278" lon="6.04422">
        <ele>2116.96</ele>
        <time>2023-08-11T06:10:23Z</time>
      </trkpt>
      <trkpt lat="45.2278" lon="6.04427">
        <ele>2117.92</ele>
        <time>2023-08-11T06:10:39Z</time>
      </trkpt>
      <trkpt lat="45.22779" lon="6.04432">
        <ele>2121.29</ele>
        <time>2023-08-11T06:10:58Z</time>
      </trkpt>
      <trkpt lat="45.22782" lon="6.04436">
        <ele>2123.21</ele>
        <time>2023-08-11T06:11:13Z</time>
      </trkpt>
      <trkpt lat="45.22781" lon="6.04444">
        <ele>2125.13</ele>
        <time>2023-08-11T06:11:29Z</time>
      </trkpt>
      <trkpt lat="45.22779" lon="6.04454">
        <ele>2125.61</ele>
        <time>2023-08-11T06:11:43Z</time>
      </trkpt>
      <trkpt lat="45.22774" lon="6.04462">
        <ele>2126.09</ele>
        <time>2023-08-11T06:11:58Z</time>
      </trkpt>
      <trkpt lat="45.22767" lon="6.04475">
        <ele>2127.53</ele>
        <time>2023-08-11T06:12:16Z</time>
      </trkpt>
      <trkpt lat="45.22769" lon="6.04483">
        <ele>2129.46</ele>
        <time>2023-08-11T06:12:33Z</time>
      </trkpt>
      <trkpt lat="45.22769" lon="6.04489">
        <ele>2131.86</ele>
        <time>2023-08-11T06:12:49Z</time>
      </trkpt>
      <trkpt lat="45.22766" lon="6.04493">
        <ele>2133.3</ele>
        <time>2023-08-11T06:13:04Z</time>
      </trkpt>
      <trkpt lat="45.22763" lon="6.045">
        <ele>2134.74</ele>
        <time>2023-08-11T06:13:19Z</time>
      </trkpt>
      <trkpt lat="45.22763" lon="6.04507">
        <ele>2137.15</ele>
        <time>2023-08-11T06:13:34Z</time>
      </trkpt>
      <trkpt lat="45.22763" lon="6.04512">
        <ele>2138.59</ele>
        <time>2023-08-11T06:13:48Z</time>
      </trkpt>
      <trkpt lat="45.22761" lon="6.04518">
        <ele>2140.03</ele>
        <time>2023-08-11T06:14:05Z</time>
      </trkpt>
      <trkpt lat="45.22759" lon="6.04531">
        <ele>2141.95</ele>
        <time>2023-08-11T06:14:25Z</time>
      </trkpt>
      <trkpt lat="45.22756" lon="6.04537">
        <ele>2142.92</ele>
        <time>2023-08-11T06:14:40Z</time>
      </trkpt>
      <trkpt lat="45.22747" lon="6.04543">
        <ele>2143.88</ele>
        <time>2023-08-11T06:14:55Z</time>
      </trkpt>
      <trkpt lat="45.22743" lon="6.04551">
        <ele>2143.88</ele>
        <time>2023-08-11T06:15:08Z</time>
      </trkpt>
      <trkpt lat="45.22734" lon="6.04559">
        <ele>2145.8</ele>
        <time>2023-08-11T06:15:24Z</time>
      </trkpt>
      <trkpt lat="45.22728" lon="6.04576">
        <ele>2146.76</ele>
        <time>2023-08-11T06:15:42Z</time>
      </trkpt>
      <trkpt lat="45.2272" lon="6.04589">
        <ele>2147.72</ele>
        <time>2023-08-11T06:15:58Z</time>
      </trkpt>
      <trkpt lat="45.22714" lon="6.046">
        <ele>2149.16</ele>
        <time>2023-08-11T06:16:13Z</time>
      </trkpt>
      <trkpt lat="45.22703" lon="6.04605">
        <ele>2150.61</ele>
        <time>2023-08-11T06:16:29Z</time>
      </trkpt>
      <trkpt lat="45.22692" lon="6.04612">
        <ele>2152.53</ele>
        <time>2023-08-11T06:16:46Z</time>
      </trkpt>
      <trkpt lat="45.2269" lon="6.04627">
        <ele>2154.93</ele>
        <time>2023-08-11T06:17:03Z</time>
      </trkpt>
      <trkpt lat="45.2269" lon="6.04639">
        <ele>2156.86</ele>
        <time>2023-08-11T06:17:20Z</time>
      </trkpt>
      <trkpt lat="45.2269" lon="6.04646">
        <ele>2159.26</ele>
        <time>2023-08-11T06:17:41Z</time>
      </trkpt>
      <trkpt lat="45.22689" lon="6.04652">
        <ele>2161.66</ele>
        <time>2023-08-11T06:17:58Z</time>
      </trkpt>
      <trkpt lat="45.22686" lon="6.04668">
        <ele>2162.62</ele>
        <time>2023-08-11T06:18:15Z</time>
      </trkpt>
      <trkpt lat="45.22687" lon="6.0467">
        <ele>2163.1</ele>
        <time>2023-08-11T06:18:36Z</time>
      </trkpt>
      <trkpt lat="45.22684" lon="6.04669">
        <ele>2163.1</ele>
        <time>2023-08-11T06:19:16Z</time>
      </trkpt>
      <trkpt lat="45.2269" lon="6.04673">
        <ele>2164.06</ele>
        <time>2023-08-11T06:19:34Z</time>
      </trkpt>
      <trkpt lat="45.22694" lon="6.04682">
        <ele>2166.95</ele>
        <time>2023-08-11T06:19:52Z</time>
      </trkpt>
      <trkpt lat="45.22701" lon="6.04691">
        <ele>2168.87</ele>
        <time>2023-08-11T06:20:11Z</time>
      </trkpt>
      <trkpt lat="45.22705" lon="6.04701">
        <ele>2171.27</ele>
        <time>2023-08-11T06:20:29Z</time>
      </trkpt>
      <trkpt lat="45.2271" lon="6.04711">
        <ele>2173.68</ele>
        <time>2023-08-11T06:20:50Z</time>
      </trkpt>
      <trkpt lat="45.22714" lon="6.04718">
        <ele>2176.56</ele>
        <time>2023-08-11T06:21:08Z</time>
      </trkpt>
      <trkpt lat="45.22718" lon="6.04722">
        <ele>2178.48</ele>
        <time>2023-08-11T06:21:25Z</time>
      </trkpt>
      <trkpt lat="45.22724" lon="6.04729">
        <ele>2180.41</ele>
        <time>2023-08-11T06:21:41Z</time>
      </trkpt>
      <trkpt lat="45.22731" lon="6.04729">
        <ele>2183.29</ele>
        <time>2023-08-11T06:22:02Z</time>
      </trkpt>
      <trkpt lat="45.22736" lon="6.04727">
        <ele>2185.21</ele>
        <time>2023-08-11T06:22:18Z</time>
      </trkpt>
      <trkpt lat="45.22741" lon="6.04728">
        <ele>2187.62</ele>
        <time>2023-08-11T06:22:38Z</time>
      </trkpt>
      <trkpt lat="45.22748" lon="6.04731">
        <ele>2189.54</ele>
        <time>2023-08-11T06:22:58Z</time>
      </trkpt>
      <trkpt lat="45.22752" lon="6.04738">
        <ele>2191.46</ele>
        <time>2023-08-11T06:23:13Z</time>
      </trkpt>
      <trkpt lat="45.22756" lon="6.04746">
        <ele>2194.35</ele>
        <time>2023-08-11T06:23:33Z</time>
      </trkpt>
      <trkpt lat="45.22759" lon="6.0475">
        <ele>2195.79</ele>
        <time>2023-08-11T06:23:49Z</time>
      </trkpt>
      <trkpt lat="45.2276" lon="6.04756">
        <ele>2198.19</ele>
        <time>2023-08-11T06:24:08Z</time>
      </trkpt>
      <trkpt lat="45.22763" lon="6.04765">
        <ele>2200.59</ele>
        <time>2023-08-11T06:24:25Z</time>
      </trkpt>
      <trkpt lat="45.22767" lon="6.04773">
        <ele>2203</ele>
        <time>2023-08-11T06:24:43Z</time>
      </trkpt>
      <trkpt lat="45.22774" lon="6.04775">
        <ele>2205.4</ele>
        <time>2023-08-11T06:25:02Z</time>
      </trkpt>
      <trkpt lat="45.22776" lon="6.04766">
        <ele>2206.84</ele>
        <time>2023-08-11T06:25:18Z</time>
      </trkpt>
      <trkpt lat="45.22779" lon="6.0476">
        <ele>2208.77</ele>
        <time>2023-08-11T06:25:37Z</time>
      </trkpt>
      <trkpt lat="45.22784" lon="6.04752">
        <ele>2211.65</ele>
        <time>2023-08-11T06:25:56Z</time>
      </trkpt>
      <trkpt lat="45.22786" lon="6.04745">
        <ele>2213.57</ele>
        <time>2023-08-11T06:26:12Z</time>
      </trkpt>
      <trkpt lat="45.22787" lon="6.04745">
        <ele>2214.53</ele>
        <time>2023-08-11T06:26:36Z</time>
      </trkpt>
      <trkpt lat="45.2279" lon="6.04751">
        <ele>2216.94</ele>
        <time>2023-08-11T06:26:55Z</time>
      </trkpt>
      <trkpt lat="45.22791" lon="6.04759">
        <ele>2219.34</ele>
        <time>2023-08-11T06:27:13Z</time>
      </trkpt>
      <trkpt lat="45.22797" lon="6.04762">
        <ele>2221.26</ele>
        <time>2023-08-11T06:27:30Z</time>
      </trkpt>
      <trkpt lat="45.22803" lon="6.04762">
        <ele>2223.67</ele>
        <time>2023-08-11T06:27:47Z</time>
      </trkpt>
      <trkpt lat="45.22806" lon="6.04759">
        <ele>2225.59</ele>
        <time>2023-08-11T06:28:05Z</time>
      </trkpt>
      <trkpt lat="45.22811" lon="6.04764">
        <ele>2227.51</ele>
        <time>2023-08-11T06:28:26Z</time>
      </trkpt>
      <trkpt lat="45.22816" lon="6.04762">
        <ele>2230.4</ele>
        <time>2023-08-11T06:28:45Z</time>
      </trkpt>
      <trkpt lat="45.22824" lon="6.04764">
        <ele>2232.8</ele>
        <time>2023-08-11T06:29:08Z</time>
      </trkpt>
      <trkpt lat="45.22827" lon="6.04759">
        <ele>2235.2</ele>
        <time>2023-08-11T06:29:26Z</time>
      </trkpt>
      <trkpt lat="45.2283" lon="6.0476">
        <ele>2237.13</ele>
        <time>2023-08-11T06:29:42Z</time>
      </trkpt>
      <trkpt lat="45.22835" lon="6.04757">
        <ele>2239.05</ele>
        <time>2023-08-11T06:29:57Z</time>
      </trkpt>
      <trkpt lat="45.2284" lon="6.0476">
        <ele>2241.93</ele>
        <time>2023-08-11T06:30:18Z</time>
      </trkpt>
      <trkpt lat="45.22843" lon="6.04759">
        <ele>2243.37</ele>
        <time>2023-08-11T06:30:34Z</time>
      </trkpt>
      <trkpt lat="45.2285" lon="6.04756">
        <ele>2245.78</ele>
        <time>2023-08-11T06:30:54Z</time>
      </trkpt>
      <trkpt lat="45.22854" lon="6.04759">
        <ele>2248.18</ele>
        <time>2023-08-11T06:31:12Z</time>
      </trkpt>
      <trkpt lat="45.22859" lon="6.04761">
        <ele>2250.1</ele>
        <time>2023-08-11T06:31:28Z</time>
      </trkpt>
      <trkpt lat="45.22867" lon="6.04765">
        <ele>2252.51</ele>
        <time>2023-08-11T06:31:48Z</time>
      </trkpt>
      <trkpt lat="45.22873" lon="6.04774">
        <ele>2253.95</ele>
        <time>2023-08-11T06:32:04Z</time>
      </trkpt>
      <trkpt lat="45.2288" lon="6.04786">
        <ele>2254.91</ele>
        <time>2023-08-11T06:32:23Z</time>
      </trkpt>
      <trkpt lat="45.22886" lon="6.04795">
        <ele>2256.83</ele>
        <time>2023-08-11T06:32:44Z</time>
      </trkpt>
      <trkpt lat="45.22892" lon="6.04811">
        <ele>2259.72</ele>
        <time>2023-08-11T06:33:07Z</time>
      </trkpt>
      <trkpt lat="45.22898" lon="6.04821">
        <ele>2261.64</ele>
        <time>2023-08-11T06:33:25Z</time>
      </trkpt>
      <trkpt lat="45.22903" lon="6.04824">
        <ele>2263.08</ele>
        <time>2023-08-11T06:33:37Z</time>
      </trkpt>
      <trkpt lat="45.22906" lon="6.04831">
        <ele>2265.48</ele>
        <time>2023-08-11T06:33:54Z</time>
      </trkpt>
      <trkpt lat="45.22909" lon="6.04835">
        <ele>2267.41</ele>
        <time>2023-08-11T06:34:11Z</time>
      </trkpt>
      <trkpt lat="45.22913" lon="6.04834">
        <ele>2269.33</ele>
        <time>2023-08-11T06:34:28Z</time>
      </trkpt>
      <trkpt lat="45.22916" lon="6.04842">
        <ele>2270.77</ele>
        <time>2023-08-11T06:34:43Z</time>
      </trkpt>
      <trkpt lat="45.22922" lon="6.04855">
        <ele>2272.69</ele>
        <time>2023-08-11T06:35:00Z</time>
      </trkpt>
      <trkpt lat="45.22922" lon="6.04863">
        <ele>2274.62</ele>
        <time>2023-08-11T06:35:16Z</time>
      </trkpt>
      <trkpt lat="45.22922" lon="6.04872">
        <ele>2276.54</ele>
        <time>2023-08-11T06:35:32Z</time>
      </trkpt>
      <trkpt lat="45.22924" lon="6.0488">
        <ele>2277.98</ele>
        <time>2023-08-11T06:35:47Z</time>
      </trkpt>
      <trkpt lat="45.22925" lon="6.04891">
        <ele>2279.9</ele>
        <time>2023-08-11T06:36:04Z</time>
      </trkpt>
      <trkpt lat="45.2293" lon="6.04895">
        <ele>2282.31</ele>
        <time>2023-08-11T06:36:20Z</time>
      </trkpt>
      <trkpt lat="45.22935" lon="6.04885">
        <ele>2284.23</ele>
        <time>2023-08-11T06:36:39Z</time>
      </trkpt>
      <trkpt lat="45.22938" lon="6.04889">
        <ele>2286.15</ele>
        <time>2023-08-11T06:36:55Z</time>
      </trkpt>
      <trkpt lat="45.22947" lon="6.04895">
        <ele>2287.59</ele>
        <time>2023-08-11T06:37:14Z</time>
      </trkpt>
      <trkpt lat="45.22948" lon="6.04893">
        <ele>2288.08</ele>
        <time>2023-08-11T06:37:35Z</time>
      </trkpt>
      <trkpt lat="45.22952" lon="6.04899">
        <ele>2290</ele>
        <time>2023-08-11T06:37:58Z</time>
      </trkpt>
      <trkpt lat="45.22957" lon="6.04907">
        <ele>2292.4</ele>
        <time>2023-08-11T06:38:15Z</time>
      </trkpt>
      <trkpt lat="45.22961" lon="6.04915">
        <ele>2294.8</ele>
        <time>2023-08-11T06:38:33Z</time>
      </trkpt>
      <trkpt lat="45.22967" lon="6.04925">
        <ele>2296.73</ele>
        <time>2023-08-11T06:38:51Z</time>
      </trkpt>
      <trkpt lat="45.22972" lon="6.04941">
        <ele>2297.69</ele>
        <time>2023-08-11T06:39:10Z</time>
      </trkpt>
      <trkpt lat="45.22974" lon="6.04954">
        <ele>2299.61</ele>
        <time>2023-08-11T06:39:27Z</time>
      </trkpt>
      <trkpt lat="45.22976" lon="6.04966">
        <ele>2302.01</ele>
        <time>2023-08-11T06:39:45Z</time>
      </trkpt>
      <trkpt lat="45.22983" lon="6.04977">
        <ele>2303.94</ele>
        <time>2023-08-11T06:40:02Z</time>
      </trkpt>
      <trkpt lat="45.22988" lon="6.04983">
        <ele>2305.86</ele>
        <time>2023-08-11T06:40:20Z</time>
      </trkpt>
      <trkpt lat="45.2299" lon="6.04979">
        <ele>2305.86</ele>
        <time>2023-08-11T06:40:41Z</time>
      </trkpt>
      <trkpt lat="45.22995" lon="6.04986">
        <ele>2306.34</ele>
        <time>2023-08-11T06:40:56Z</time>
      </trkpt>
      <trkpt lat="45.23006" lon="6.04977">
        <ele>2306.34</ele>
        <time>2023-08-11T06:41:11Z</time>
      </trkpt>
      <trkpt lat="45.23009" lon="6.0497">
        <ele>2306.34</ele>
        <time>2023-08-11T06:41:17Z</time>
      </trkpt>
      <trkpt lat="45.23014" lon="6.04961">
        <ele>2306.82</ele>
        <time>2023-08-11T06:41:33Z</time>
      </trkpt>
      <trkpt lat="45.23023" lon="6.04963">
        <ele>2306.82</ele>
        <time>2023-08-11T06:41:48Z</time>
      </trkpt>
      <trkpt lat="45.23028" lon="6.04965">
        <ele>2306.82</ele>
        <time>2023-08-11T06:42:02Z</time>
      </trkpt>
      <trkpt lat="45.23029" lon="6.0497">
        <ele>2306.82</ele>
        <time>2023-08-11T06:42:15Z</time>
      </trkpt>
      <trkpt lat="45.23025" lon="6.04967">
        <ele>2309.22</ele>
        <time>2023-08-11T06:51:07Z</time>
      </trkpt>
      <trkpt lat="45.2302" lon="6.04967">
        <ele>2309.7</ele>
        <time>2023-08-11T06:51:22Z</time>
      </trkpt>
      <trkpt lat="45.23018" lon="6.04969">
        <ele>2309.7</ele>
        <time>2023-08-11T06:51:26Z</time>
      </trkpt>
      <trkpt lat="45.23015" lon="6.04971">
        <ele>2308.26</ele>
        <time>2023-08-11T06:51:30Z</time>
      </trkpt>
      <trkpt lat="45.23007" lon="6.04981">
        <ele>2308.26</ele>
        <time>2023-08-11T06:51:44Z</time>
      </trkpt>
      <trkpt lat="45.23003" lon="6.04987">
        <ele>2308.26</ele>
        <time>2023-08-11T06:51:50Z</time>
      </trkpt>
      <trkpt lat="45.2301" lon="6.04999">
        <ele>2308.74</ele>
        <time>2023-08-11T06:52:05Z</time>
      </trkpt>
      <trkpt lat="45.23014" lon="6.05003">
        <ele>2310.19</ele>
        <time>2023-08-11T06:52:12Z</time>
      </trkpt>
      <trkpt lat="45.23023" lon="6.05013">
        <ele>2311.63</ele>
        <time>2023-08-11T06:52:28Z</time>
      </trkpt>
      <trkpt lat="45.23029" lon="6.05026">
        <ele>2313.07</ele>
        <time>2023-08-11T06:52:44Z</time>
      </trkpt>
      <trkpt lat="45.23037" lon="6.05037">
        <ele>2314.51</ele>
        <time>2023-08-11T06:53:00Z</time>
      </trkpt>
      <trkpt lat="45.23043" lon="6.05049">
        <ele>2314.99</ele>
        <time>2023-08-11T06:53:14Z</time>
      </trkpt>
      <trkpt lat="45.23047" lon="6.05053">
        <ele>2314.99</ele>
        <time>2023-08-11T06:53:28Z</time>
      </trkpt>
      <trkpt lat="45.23051" lon="6.05065">
        <ele>2317.88</ele>
        <time>2023-08-11T06:53:45Z</time>
      </trkpt>
      <trkpt lat="45.23057" lon="6.05081">
        <ele>2318.84</ele>
        <time>2023-08-11T06:54:01Z</time>
      </trkpt>
      <trkpt lat="45.23062" lon="6.05101">
        <ele>2318.84</ele>
        <time>2023-08-11T06:54:17Z</time>
      </trkpt>
      <trkpt lat="45.2307" lon="6.0512">
        <ele>2318.84</ele>
        <time>2023-08-11T06:54:33Z</time>
      </trkpt>
      <trkpt lat="45.23076" lon="6.05133">
        <ele>2319.32</ele>
        <time>2023-08-11T06:54:50Z</time>
      </trkpt>
      <trkpt lat="45.23077" lon="6.05138">
        <ele>2319.8</ele>
        <time>2023-08-11T06:55:08Z</time>
      </trkpt>
      <trkpt lat="45.23085" lon="6.05153">
        <ele>2321.24</ele>
        <time>2023-08-11T06:55:24Z</time>
      </trkpt>
      <trkpt lat="45.23087" lon="6.05164">
        <ele>2323.64</ele>
        <time>2023-08-11T06:55:39Z</time>
      </trkpt>
      <trkpt lat="45.23085" lon="6.05179">
        <ele>2325.09</ele>
        <time>2023-08-11T06:55:56Z</time>
      </trkpt>
      <trkpt lat="45.23086" lon="6.05199">
        <ele>2325.57</ele>
        <time>2023-08-11T06:56:12Z</time>
      </trkpt>
      <trkpt lat="45.2309" lon="6.05215">
        <ele>2326.53</ele>
        <time>2023-08-11T06:56:27Z</time>
      </trkpt>
      <trkpt lat="45.23096" lon="6.05233">
        <ele>2327.97</ele>
        <time>2023-08-11T06:56:45Z</time>
      </trkpt>
      <trkpt lat="45.231" lon="6.05242">
        <ele>2329.41</ele>
        <time>2023-08-11T06:57:01Z</time>
      </trkpt>
      <trkpt lat="45.23104" lon="6.05261">
        <ele>2331.33</ele>
        <time>2023-08-11T06:57:19Z</time>
      </trkpt>
      <trkpt lat="45.23109" lon="6.05274">
        <ele>2332.78</ele>
        <time>2023-08-11T06:57:35Z</time>
      </trkpt>
      <trkpt lat="45.23113" lon="6.0528">
        <ele>2334.22</ele>
        <time>2023-08-11T06:57:50Z</time>
      </trkpt>
      <trkpt lat="45.23117" lon="6.05285">
        <ele>2335.18</ele>
        <time>2023-08-11T06:58:04Z</time>
      </trkpt>
      <trkpt lat="45.23121" lon="6.0529">
        <ele>2337.58</ele>
        <time>2023-08-11T06:58:22Z</time>
      </trkpt>
      <trkpt lat="45.23127" lon="6.05286">
        <ele>2339.02</ele>
        <time>2023-08-11T06:58:38Z</time>
      </trkpt>
      <trkpt lat="45.23128" lon="6.05295">
        <ele>2340.47</ele>
        <time>2023-08-11T06:58:53Z</time>
      </trkpt>
      <trkpt lat="45.2313" lon="6.05307">
        <ele>2342.39</ele>
        <time>2023-08-11T06:59:11Z</time>
      </trkpt>
      <trkpt lat="45.23131" lon="6.05315">
        <ele>2344.31</ele>
        <time>2023-08-11T06:59:30Z</time>
      </trkpt>
      <trkpt lat="45.23134" lon="6.05318">
        <ele>2346.72</ele>
        <time>2023-08-11T06:59:47Z</time>
      </trkpt>
      <trkpt lat="45.23138" lon="6.05321">
        <ele>2348.64</ele>
        <time>2023-08-11T07:00:03Z</time>
      </trkpt>
      <trkpt lat="45.23139" lon="6.05328">
        <ele>2350.56</ele>
        <time>2023-08-11T07:00:20Z</time>
      </trkpt>
      <trkpt lat="45.2314" lon="6.05338">
        <ele>2352</ele>
        <time>2023-08-11T07:00:37Z</time>
      </trkpt>
      <trkpt lat="45.23139" lon="6.05346">
        <ele>2352.96</ele>
        <time>2023-08-11T07:00:52Z</time>
      </trkpt>
      <trkpt lat="45.23138" lon="6.05357">
        <ele>2354.41</ele>
        <time>2023-08-11T07:01:09Z</time>
      </trkpt>
      <trkpt lat="45.23138" lon="6.05364">
        <ele>2356.33</ele>
        <time>2023-08-11T07:01:25Z</time>
      </trkpt>
      <trkpt lat="45.23139" lon="6.05375">
        <ele>2357.77</ele>
        <time>2023-08-11T07:01:41Z</time>
      </trkpt>
      <trkpt lat="45.23139" lon="6.05384">
        <ele>2359.69</ele>
        <time>2023-08-11T07:01:57Z</time>
      </trkpt>
      <trkpt lat="45.23139" lon="6.0539">
        <ele>2361.62</ele>
        <time>2023-08-11T07:02:15Z</time>
      </trkpt>
      <trkpt lat="45.23141" lon="6.05396">
        <ele>2363.06</ele>
        <time>2023-08-11T07:02:29Z</time>
      </trkpt>
      <trkpt lat="45.23139" lon="6.05404">
        <ele>2364.5</ele>
        <time>2023-08-11T07:02:45Z</time>
      </trkpt>
      <trkpt lat="45.23138" lon="6.05411">
        <ele>2365.46</ele>
        <time>2023-08-11T07:03:01Z</time>
      </trkpt>
      <trkpt lat="45.23137" lon="6.05421">
        <ele>2366.9</ele>
        <time>2023-08-11T07:03:17Z</time>
      </trkpt>
      <trkpt lat="45.23138" lon="6.05425">
        <ele>2368.83</ele>
        <time>2023-08-11T07:03:32Z</time>
      </trkpt>
      <trkpt lat="45.23139" lon="6.05432">
        <ele>2370.75</ele>
        <time>2023-08-11T07:03:50Z</time>
      </trkpt>
      <trkpt lat="45.23137" lon="6.05439">
        <ele>2372.19</ele>
        <time>2023-08-11T07:04:09Z</time>
      </trkpt>
      <trkpt lat="45.23136" lon="6.05447">
        <ele>2373.15</ele>
        <time>2023-08-11T07:04:25Z</time>
      </trkpt>
      <trkpt lat="45.23134" lon="6.05455">
        <ele>2374.59</ele>
        <time>2023-08-11T07:04:41Z</time>
      </trkpt>
      <trkpt lat="45.23131" lon="6.05461">
        <ele>2376.04</ele>
        <time>2023-08-11T07:04:57Z</time>
      </trkpt>
      <trkpt lat="45.23132" lon="6.05469">
        <ele>2378.44</ele>
        <time>2023-08-11T07:05:14Z</time>
      </trkpt>
      <trkpt lat="45.23133" lon="6.05472">
        <ele>2379.88</ele>
        <time>2023-08-11T07:05:28Z</time>
      </trkpt>
      <trkpt lat="45.23135" lon="6.05477">
        <ele>2380.84</ele>
        <time>2023-08-11T07:05:44Z</time>
      </trkpt>
      <trkpt lat="45.23141" lon="6.05473">
        <ele>2380.84</ele>
        <time>2023-08-11T07:06:02Z</time>
      </trkpt>
      <trkpt lat="45.23138" lon="6.05475">
        <ele>2380.84</ele>
        <time>2023-08-11T07:06:26Z</time>
      </trkpt>
      <trkpt lat="45.23136" lon="6.05472">
        <ele>2381.32</ele>
        <time>2023-08-11T07:07:03Z</time>
      </trkpt>
      <trkpt lat="45.23137" lon="6.05474">
        <ele>2381.8</ele>
        <time>2023-08-11T07:07:36Z</time>
      </trkpt>
      <trkpt lat="45.23135" lon="6.05477">
        <ele>2381.8</ele>
        <time>2023-08-11T07:08:08Z</time>
      </trkpt>
      <trkpt lat="45.23137" lon="6.05474">
        <ele>2381.8</ele>
        <time>2023-08-11T07:08:35Z</time>
      </trkpt>
      <trkpt lat="45.23138" lon="6.05475">
        <ele>2382.28</ele>
        <time>2023-08-11T07:08:58Z</time>
      </trkpt>
      <trkpt lat="45.23137" lon="6.05475">
        <ele>2382.28</ele>
        <time>2023-08-11T07:09:18Z</time>
      </trkpt>
      <trkpt lat="45.23136" lon="6.05476">
        <ele>2382.28</ele>
        <time>2023-08-11T07:09:41Z</time>
      </trkpt>
      <trkpt lat="45.23137" lon="6.05479">
        <ele>2383.25</ele>
        <time>2023-08-11T07:10:00Z</time>
      </trkpt>
      <trkpt lat="45.23137" lon="6.05484">
        <ele>2385.17</ele>
        <time>2023-08-11T07:10:15Z</time>
      </trkpt>
      <trkpt lat="45.23139" lon="6.05484">
        <ele>2386.61</ele>
        <time>2023-08-11T07:10:29Z</time>
      </trkpt>
      <trkpt lat="45.23143" lon="6.05482">
        <ele>2387.09</ele>
        <time>2023-08-11T07:10:43Z</time>
      </trkpt>
      <trkpt lat="45.23144" lon="6.05484">
        <ele>2388.53</ele>
        <time>2023-08-11T07:10:53Z</time>
      </trkpt>
      <trkpt lat="45.23149" lon="6.05485">
        <ele>2389.97</ele>
        <time>2023-08-11T07:11:09Z</time>
      </trkpt>
      <trkpt lat="45.23149" lon="6.05494">
        <ele>2391.9</ele>
        <time>2023-08-11T07:11:24Z</time>
      </trkpt>
      <trkpt lat="45.23149" lon="6.05499">
        <ele>2393.34</ele>
        <time>2023-08-11T07:11:44Z</time>
      </trkpt>
      <trkpt lat="45.23152" lon="6.05507">
        <ele>2395.26</ele>
        <time>2023-08-11T07:11:59Z</time>
      </trkpt>
      <trkpt lat="45.23155" lon="6.0551">
        <ele>2397.67</ele>
        <time>2023-08-11T07:12:14Z</time>
      </trkpt>
      <trkpt lat="45.23159" lon="6.05515">
        <ele>2399.11</ele>
        <time>2023-08-11T07:12:30Z</time>
      </trkpt>
      <trkpt lat="45.23163" lon="6.05523">
        <ele>2401.99</ele>
        <time>2023-08-11T07:12:49Z</time>
      </trkpt>
      <trkpt lat="45.23163" lon="6.05529">
        <ele>2402.95</ele>
        <time>2023-08-11T07:13:07Z</time>
      </trkpt>
      <trkpt lat="45.23159" lon="6.05535">
        <ele>2403.91</ele>
        <time>2023-08-11T07:13:23Z</time>
      </trkpt>
      <trkpt lat="45.23157" lon="6.05541">
        <ele>2405.36</ele>
        <time>2023-08-11T07:13:36Z</time>
      </trkpt>
      <trkpt lat="45.23154" lon="6.05545">
        <ele>2407.28</ele>
        <time>2023-08-11T07:13:51Z</time>
      </trkpt>
      <trkpt lat="45.23149" lon="6.05547">
        <ele>2407.76</ele>
        <time>2023-08-11T07:14:06Z</time>
      </trkpt>
      <trkpt lat="45.23146" lon="6.0555">
        <ele>2408.72</ele>
        <time>2023-08-11T07:14:21Z</time>
      </trkpt>
      <trkpt lat="45.23145" lon="6.05557">
        <ele>2410.64</ele>
        <time>2023-08-11T07:14:37Z</time>
      </trkpt>
      <trkpt lat="45.23143" lon="6.05562">
        <ele>2412.09</ele>
        <time>2023-08-11T07:14:51Z</time>
      </trkpt>
      <trkpt lat="45.23139" lon="6.05566">
        <ele>2412.09</ele>
        <time>2023-08-11T07:15:04Z</time>
      </trkpt>
      <trkpt lat="45.23134" lon="6.05572">
        <ele>2413.05</ele>
        <time>2023-08-11T07:15:22Z</time>
      </trkpt>
      <trkpt lat="45.23131" lon="6.05579">
        <ele>2414.49</ele>
        <time>2023-08-11T07:15:38Z</time>
      </trkpt>
      <trkpt lat="45.23129" lon="6.05588">
        <ele>2416.41</ele>
        <time>2023-08-11T07:15:55Z</time>
      </trkpt>
      <trkpt lat="45.23129" lon="6.05596">
        <ele>2418.33</ele>
        <time>2023-08-11T07:16:11Z</time>
      </trkpt>
      <trkpt lat="45.23127" lon="6.05595">
        <ele>2418.81</ele>
        <time>2023-08-11T07:16:27Z</time>
      </trkpt>
      <trkpt lat="45.23127" lon="6.05592">
        <ele>2419.3</ele>
        <time>2023-08-11T07:16:48Z</time>
      </trkpt>
      <trkpt lat="45.23124" lon="6.05605">
        <ele>2419.78</ele>
        <time>2023-08-11T07:17:02Z</time>
      </trkpt>
      <trkpt lat="45.2312" lon="6.05615">
        <ele>2420.74</ele>
        <time>2023-08-11T07:17:18Z</time>
      </trkpt>
      <trkpt lat="45.23116" lon="6.05621">
        <ele>2421.22</ele>
        <time>2023-08-11T07:17:37Z</time>
      </trkpt>
      <trkpt lat="45.23116" lon="6.05634">
        <ele>2423.14</ele>
        <time>2023-08-11T07:17:54Z</time>
      </trkpt>
      <trkpt lat="45.23116" lon="6.05642">
        <ele>2424.58</ele>
        <time>2023-08-11T07:18:10Z</time>
      </trkpt>
      <trkpt lat="45.23115" lon="6.05646">
        <ele>2426.02</ele>
        <time>2023-08-11T07:18:26Z</time>
      </trkpt>
      <trkpt lat="45.23115" lon="6.05646">
        <ele>2426.02</ele>
        <time>2023-08-11T07:18:44Z</time>
      </trkpt>
      <trkpt lat="45.23113" lon="6.05651">
        <ele>2426.02</ele>
        <time>2023-08-11T07:18:57Z</time>
      </trkpt>
      <trkpt lat="45.23114" lon="6.05658">
        <ele>2426.5</ele>
        <time>2023-08-11T07:19:11Z</time>
      </trkpt>
      <trkpt lat="45.23113" lon="6.05666">
        <ele>2427.47</ele>
        <time>2023-08-11T07:19:27Z</time>
      </trkpt>
      <trkpt lat="45.23117" lon="6.05667">
        <ele>2428.91</ele>
        <time>2023-08-11T07:19:44Z</time>
      </trkpt>
      <trkpt lat="45.23117" lon="6.05676">
        <ele>2430.35</ele>
        <time>2023-08-11T07:20:00Z</time>
      </trkpt>
      <trkpt lat="45.23119" lon="6.0568">
        <ele>2430.83</ele>
        <time>2023-08-11T07:20:19Z</time>
      </trkpt>
      <trkpt lat="45.23117" lon="6.05677">
        <ele>2431.31</ele>
        <time>2023-08-11T07:20:43Z</time>
      </trkpt>
      <trkpt lat="45.23118" lon="6.05684">
        <ele>2431.79</ele>
        <time>2023-08-11T07:21:00Z</time>
      </trkpt>
      <trkpt lat="45.2312" lon="6.05688">
        <ele>2432.75</ele>
        <time>2023-08-11T07:21:20Z</time>
      </trkpt>
      <trkpt lat="45.23122" lon="6.05695">
        <ele>2435.64</ele>
        <time>2023-08-11T07:21:36Z</time>
      </trkpt>
      <trkpt lat="45.2312" lon="6.05703">
        <ele>2437.08</ele>
        <time>2023-08-11T07:21:55Z</time>
      </trkpt>
      <trkpt lat="45.23115" lon="6.05707">
        <ele>2437.56</ele>
        <time>2023-08-11T07:22:07Z</time>
      </trkpt>
      <trkpt lat="45.23114" lon="6.05711">
        <ele>2438.52</ele>
        <time>2023-08-11T07:22:21Z</time>
      </trkpt>
      <trkpt lat="45.23113" lon="6.05718">
        <ele>2440.44</ele>
        <time>2023-08-11T07:22:35Z</time>
      </trkpt>
      <trkpt lat="45.23114" lon="6.05722">
        <ele>2441.89</ele>
        <time>2023-08-11T07:22:50Z</time>
      </trkpt>
      <trkpt lat="45.23115" lon="6.05727">
        <ele>2443.81</ele>
        <time>2023-08-11T07:23:06Z</time>
      </trkpt>
      <trkpt lat="45.23115" lon="6.05732">
        <ele>2444.29</ele>
        <time>2023-08-11T07:23:27Z</time>
      </trkpt>
      <trkpt lat="45.23112" lon="6.05741">
        <ele>2444.77</ele>
        <time>2023-08-11T07:23:41Z</time>
      </trkpt>
      <trkpt lat="45.23108" lon="6.05746">
        <ele>2445.73</ele>
        <time>2023-08-11T07:23:56Z</time>
      </trkpt>
      <trkpt lat="45.23104" lon="6.05756">
        <ele>2446.69</ele>
        <time>2023-08-11T07:24:11Z</time>
      </trkpt>
      <trkpt lat="45.23101" lon="6.05763">
        <ele>2447.65</ele>
        <time>2023-08-11T07:24:26Z</time>
      </trkpt>
      <trkpt lat="45.231" lon="6.0577">
        <ele>2449.58</ele>
        <time>2023-08-11T07:24:41Z</time>
      </trkpt>
      <trkpt lat="45.23095" lon="6.05773">
        <ele>2450.54</ele>
        <time>2023-08-11T07:24:54Z</time>
      </trkpt>
      <trkpt lat="45.23092" lon="6.05773">
        <ele>2451.98</ele>
        <time>2023-08-11T07:25:09Z</time>
      </trkpt>
      <trkpt lat="45.23088" lon="6.05774">
        <ele>2452.94</ele>
        <time>2023-08-11T07:25:31Z</time>
      </trkpt>
      <trkpt lat="45.23083" lon="6.05773">
        <ele>2453.42</ele>
        <time>2023-08-11T07:25:44Z</time>
      </trkpt>
      <trkpt lat="45.23079" lon="6.05777">
        <ele>2454.86</ele>
        <time>2023-08-11T07:26:00Z</time>
      </trkpt>
      <trkpt lat="45.23076" lon="6.05781">
        <ele>2457.75</ele>
        <time>2023-08-11T07:26:18Z</time>
      </trkpt>
      <trkpt lat="45.23075" lon="6.05786">
        <ele>2458.23</ele>
        <time>2023-08-11T07:26:32Z</time>
      </trkpt>
      <trkpt lat="45.23075" lon="6.05794">
        <ele>2459.67</ele>
        <time>2023-08-11T07:26:49Z</time>
      </trkpt>
      <trkpt lat="45.23076" lon="6.05796">
        <ele>2461.11</ele>
        <time>2023-08-11T07:27:06Z</time>
      </trkpt>
      <trkpt lat="45.23073" lon="6.05799">
        <ele>2462.55</ele>
        <time>2023-08-11T07:27:21Z</time>
      </trkpt>
      <trkpt lat="45.2307" lon="6.05798">
        <ele>2463.52</ele>
        <time>2023-08-11T07:27:37Z</time>
      </trkpt>
      <trkpt lat="45.23067" lon="6.05801">
        <ele>2465.92</ele>
        <time>2023-08-11T07:27:52Z</time>
      </trkpt>
      <trkpt lat="45.23063" lon="6.05805">
        <ele>2467.36</ele>
        <time>2023-08-11T07:28:13Z</time>
      </trkpt>
      <trkpt lat="45.23062" lon="6.05808">
        <ele>2469.28</ele>
        <time>2023-08-11T07:28:30Z</time>
      </trkpt>
      <trkpt lat="45.23063" lon="6.05816">
        <ele>2470.24</ele>
        <time>2023-08-11T07:28:46Z</time>
      </trkpt>
      <trkpt lat="45.23062" lon="6.05823">
        <ele>2471.21</ele>
        <time>2023-08-11T07:29:03Z</time>
      </trkpt>
      <trkpt lat="45.23063" lon="6.05831">
        <ele>2472.65</ele>
        <time>2023-08-11T07:29:19Z</time>
      </trkpt>
      <trkpt lat="45.23064" lon="6.0584">
        <ele>2473.61</ele>
        <time>2023-08-11T07:29:36Z</time>
      </trkpt>
      <trkpt lat="45.23063" lon="6.05844">
        <ele>2473.61</ele>
        <time>2023-08-11T07:29:50Z</time>
      </trkpt>
      <trkpt lat="45.23067" lon="6.05854">
        <ele>2475.05</ele>
        <time>2023-08-11T07:30:03Z</time>
      </trkpt>
      <trkpt lat="45.23071" lon="6.05862">
        <ele>2475.53</ele>
        <time>2023-08-11T07:30:16Z</time>
      </trkpt>
      <trkpt lat="45.23073" lon="6.05869">
        <ele>2476.97</ele>
        <time>2023-08-11T07:30:30Z</time>
      </trkpt>
      <trkpt lat="45.23073" lon="6.05873">
        <ele>2478.42</ele>
        <time>2023-08-11T07:30:48Z</time>
      </trkpt>
      <trkpt lat="45.23072" lon="6.05873">
        <ele>2479.86</ele>
        <time>2023-08-11T07:31:06Z</time>
      </trkpt>
      <trkpt lat="45.2307" lon="6.05875">
        <ele>2482.26</ele>
        <time>2023-08-11T07:31:21Z</time>
      </trkpt>
      <trkpt lat="45.23067" lon="6.05871">
        <ele>2483.7</ele>
        <time>2023-08-11T07:31:35Z</time>
      </trkpt>
      <trkpt lat="45.23067" lon="6.05877">
        <ele>2485.63</ele>
        <time>2023-08-11T07:31:50Z</time>
      </trkpt>
      <trkpt lat="45.23063" lon="6.05875">
        <ele>2487.55</ele>
        <time>2023-08-11T07:32:07Z</time>
      </trkpt>
      <trkpt lat="45.23061" lon="6.05888">
        <ele>2489.95</ele>
        <time>2023-08-11T07:32:25Z</time>
      </trkpt>
      <trkpt lat="45.23058" lon="6.05896">
        <ele>2491.87</ele>
        <time>2023-08-11T07:32:44Z</time>
      </trkpt>
      <trkpt lat="45.23055" lon="6.05898">
        <ele>2493.32</ele>
        <time>2023-08-11T07:33:03Z</time>
      </trkpt>
      <trkpt lat="45.23055" lon="6.05901">
        <ele>2495.24</ele>
        <time>2023-08-11T07:33:18Z</time>
      </trkpt>
      <trkpt lat="45.23056" lon="6.05907">
        <ele>2496.68</ele>
        <time>2023-08-11T07:33:35Z</time>
      </trkpt>
      <trkpt lat="45.23049" lon="6.05902">
        <ele>2497.64</ele>
        <time>2023-08-11T07:33:54Z</time>
      </trkpt>
      <trkpt lat="45.23046" lon="6.05904">
        <ele>2499.57</ele>
        <time>2023-08-11T07:34:10Z</time>
      </trkpt>
      <trkpt lat="45.23044" lon="6.05913">
        <ele>2501.01</ele>
        <time>2023-08-11T07:34:25Z</time>
      </trkpt>
      <trkpt lat="45.23046" lon="6.05916">
        <ele>2502.93</ele>
        <time>2023-08-11T07:34:42Z</time>
      </trkpt>
      <trkpt lat="45.23044" lon="6.05923">
        <ele>2504.85</ele>
        <time>2023-08-11T07:34:59Z</time>
      </trkpt>
      <trkpt lat="45.23045" lon="6.05923">
        <ele>2506.29</ele>
        <time>2023-08-11T07:35:14Z</time>
      </trkpt>
      <trkpt lat="45.23044" lon="6.05931">
        <ele>2508.22</ele>
        <time>2023-08-11T07:35:33Z</time>
      </trkpt>
      <trkpt lat="45.23042" lon="6.0594">
        <ele>2510.62</ele>
        <time>2023-08-11T07:35:50Z</time>
      </trkpt>
      <trkpt lat="45.23039" lon="6.05938">
        <ele>2512.54</ele>
        <time>2023-08-11T07:36:06Z</time>
      </trkpt>
      <trkpt lat="45.23034" lon="6.05939">
        <ele>2513.98</ele>
        <time>2023-08-11T07:36:20Z</time>
      </trkpt>
      <trkpt lat="45.23033" lon="6.05938">
        <ele>2514.47</ele>
        <time>2023-08-11T07:36:38Z</time>
      </trkpt>
      <trkpt lat="45.23031" lon="6.05943">
        <ele>2516.87</ele>
        <time>2023-08-11T07:36:52Z</time>
      </trkpt>
      <trkpt lat="45.23034" lon="6.05951">
        <ele>2518.31</ele>
        <time>2023-08-11T07:37:06Z</time>
      </trkpt>
      <trkpt lat="45.23033" lon="6.05952">
        <ele>2519.75</ele>
        <time>2023-08-11T07:37:22Z</time>
      </trkpt>
      <trkpt lat="45.23033" lon="6.05957">
        <ele>2522.16</ele>
        <time>2023-08-11T07:37:39Z</time>
      </trkpt>
      <trkpt lat="45.23034" lon="6.05962">
        <ele>2523.6</ele>
        <time>2023-08-11T07:37:54Z</time>
      </trkpt>
      <trkpt lat="45.23028" lon="6.05963">
        <ele>2525.52</ele>
        <time>2023-08-11T07:38:12Z</time>
      </trkpt>
      <trkpt lat="45.23028" lon="6.05966">
        <ele>2527.44</ele>
        <time>2023-08-11T07:38:27Z</time>
      </trkpt>
      <trkpt lat="45.23027" lon="6.05968">
        <ele>2529.37</ele>
        <time>2023-08-11T07:38:42Z</time>
      </trkpt>
      <trkpt lat="45.23026" lon="6.05972">
        <ele>2531.29</ele>
        <time>2023-08-11T07:38:59Z</time>
      </trkpt>
      <trkpt lat="45.23025" lon="6.05976">
        <ele>2532.73</ele>
        <time>2023-08-11T07:39:12Z</time>
      </trkpt>
      <trkpt lat="45.23022" lon="6.0598">
        <ele>2534.65</ele>
        <time>2023-08-11T07:39:27Z</time>
      </trkpt>
      <trkpt lat="45.23022" lon="6.05982">
        <ele>2536.58</ele>
        <time>2023-08-11T07:39:42Z</time>
      </trkpt>
      <trkpt lat="45.23021" lon="6.05985">
        <ele>2538.02</ele>
        <time>2023-08-11T07:39:55Z</time>
      </trkpt>
      <trkpt lat="45.23023" lon="6.05991">
        <ele>2540.42</ele>
        <time>2023-08-11T07:40:13Z</time>
      </trkpt>
      <trkpt lat="45.23025" lon="6.05999">
        <ele>2541.38</ele>
        <time>2023-08-11T07:40:28Z</time>
      </trkpt>
      <trkpt lat="45.23029" lon="6.06008">
        <ele>2541.38</ele>
        <time>2023-08-11T07:47:32Z</time>
      </trkpt>
      <trkpt lat="45.23029" lon="6.06019">
        <ele>2539.94</ele>
        <time>2023-08-11T07:47:46Z</time>
      </trkpt>
      <trkpt lat="45.23028" lon="6.06027">
        <ele>2536.1</ele>
        <time>2023-08-11T07:48:03Z</time>
      </trkpt>
      <trkpt lat="45.23029" lon="6.06037">
        <ele>2533.69</ele>
        <time>2023-08-11T07:48:22Z</time>
      </trkpt>
      <trkpt lat="45.2303" lon="6.06043">
        <ele>2530.33</ele>
        <time>2023-08-11T07:48:39Z</time>
      </trkpt>
      <trkpt lat="45.23033" lon="6.06048">
        <ele>2527.44</ele>
        <time>2023-08-11T07:48:55Z</time>
      </trkpt>
      <trkpt lat="45.23039" lon="6.0605">
        <ele>2524.56</ele>
        <time>2023-08-11T07:49:16Z</time>
      </trkpt>
      <trkpt lat="45.23038" lon="6.06055">
        <ele>2523.12</ele>
        <time>2023-08-11T07:49:36Z</time>
      </trkpt>
      <trkpt lat="45.2304" lon="6.06063">
        <ele>2519.75</ele>
        <time>2023-08-11T07:49:51Z</time>
      </trkpt>
      <trkpt lat="45.2304" lon="6.0607">
        <ele>2516.39</ele>
        <time>2023-08-11T07:50:09Z</time>
      </trkpt>
      <trkpt lat="45.2304" lon="6.0607">
        <ele>2516.39</ele>
        <time>2023-08-11T07:50:10Z</time>
      </trkpt>
      <trkpt lat="45.23042" lon="6.06076">
        <ele>2513.98</ele>
        <time>2023-08-11T07:50:29Z</time>
      </trkpt>
      <trkpt lat="45.23044" lon="6.06086">
        <ele>2511.58</ele>
        <time>2023-08-11T07:50:49Z</time>
      </trkpt>
      <trkpt lat="45.23045" lon="6.06094">
        <ele>2507.74</ele>
        <time>2023-08-11T07:51:02Z</time>
      </trkpt>
      <trkpt lat="45.23044" lon="6.06094">
        <ele>2507.74</ele>
        <time>2023-08-11T07:51:03Z</time>
      </trkpt>
      <trkpt lat="45.2305" lon="6.06111">
        <ele>2505.33</ele>
        <time>2023-08-11T07:51:23Z</time>
      </trkpt>
      <trkpt lat="45.23054" lon="6.06116">
        <ele>2501.97</ele>
        <time>2023-08-11T07:51:43Z</time>
      </trkpt>
      <trkpt lat="45.23058" lon="6.0612">
        <ele>2498.6</ele>
        <time>2023-08-11T07:52:01Z</time>
      </trkpt>
      <trkpt lat="45.23061" lon="6.06128">
        <ele>2495.72</ele>
        <time>2023-08-11T07:52:20Z</time>
      </trkpt>
      <trkpt lat="45.23062" lon="6.06137">
        <ele>2493.32</ele>
        <time>2023-08-11T07:52:38Z</time>
      </trkpt>
      <trkpt lat="45.23059" lon="6.06144">
        <ele>2491.87</ele>
        <time>2023-08-11T07:52:53Z</time>
      </trkpt>
      <trkpt lat="45.23055" lon="6.06148">
        <ele>2489.95</ele>
        <time>2023-08-11T07:53:10Z</time>
      </trkpt>
      <trkpt lat="45.23052" lon="6.06158">
        <ele>2488.99</ele>
        <time>2023-08-11T07:53:29Z</time>
      </trkpt>
      <trkpt lat="45.23052" lon="6.06164">
        <ele>2486.59</ele>
        <time>2023-08-11T07:53:48Z</time>
      </trkpt>
      <trkpt lat="45.23055" lon="6.06174">
        <ele>2485.15</ele>
        <time>2023-08-11T07:54:08Z</time>
      </trkpt>
      <trkpt lat="45.23052" lon="6.06176">
        <ele>2482.74</ele>
        <time>2023-08-11T07:54:25Z</time>
      </trkpt>
      <trkpt lat="45.23053" lon="6.06186">
        <ele>2479.86</ele>
        <time>2023-08-11T07:54:38Z</time>
      </trkpt>
      <trkpt lat="45.23061" lon="6.06187">
        <ele>2479.38</ele>
        <time>2023-08-11T07:54:43Z</time>
      </trkpt>
      <trkpt lat="45.23082" lon="6.06197">
        <ele>2476.01</ele>
        <time>2023-08-11T07:55:04Z</time>
      </trkpt>
      <trkpt lat="45.23093" lon="6.06207">
        <ele>2472.65</ele>
        <time>2023-08-11T07:55:21Z</time>
      </trkpt>
      <trkpt lat="45.23096" lon="6.06215">
        <ele>2469.28</ele>
        <time>2023-08-11T07:55:35Z</time>
      </trkpt>
      <trkpt lat="45.23093" lon="6.06221">
        <ele>2468.32</ele>
        <time>2023-08-11T07:55:57Z</time>
      </trkpt>
      <trkpt lat="45.23099" lon="6.06221">
        <ele>2465.92</ele>
        <time>2023-08-11T07:56:25Z</time>
      </trkpt>
      <trkpt lat="45.23104" lon="6.06224">
        <ele>2463.52</ele>
        <time>2023-08-11T07:56:45Z</time>
      </trkpt>
      <trkpt lat="45.23106" lon="6.06228">
        <ele>2461.11</ele>
        <time>2023-08-11T07:57:08Z</time>
      </trkpt>
      <trkpt lat="45.23095" lon="6.0624">
        <ele>2459.19</ele>
        <time>2023-08-11T07:57:28Z</time>
      </trkpt>
      <trkpt lat="45.23086" lon="6.06243">
        <ele>2456.31</ele>
        <time>2023-08-11T07:57:49Z</time>
      </trkpt>
      <trkpt lat="45.2309" lon="6.06246">
        <ele>2452.94</ele>
        <time>2023-08-11T07:58:08Z</time>
      </trkpt>
      <trkpt lat="45.23092" lon="6.06248">
        <ele>2450.54</ele>
        <time>2023-08-11T07:58:25Z</time>
      </trkpt>
      <trkpt lat="45.23103" lon="6.06247">
        <ele>2451.02</ele>
        <time>2023-08-11T07:58:47Z</time>
      </trkpt>
      <trkpt lat="45.23114" lon="6.0625">
        <ele>2449.1</ele>
        <time>2023-08-11T07:59:08Z</time>
      </trkpt>
      <trkpt lat="45.23124" lon="6.06257">
        <ele>2448.13</ele>
        <time>2023-08-11T07:59:29Z</time>
      </trkpt>
      <trkpt lat="45.23128" lon="6.06276">
        <ele>2446.69</ele>
        <time>2023-08-11T07:59:51Z</time>
      </trkpt>
      <trkpt lat="45.23122" lon="6.06283">
        <ele>2445.25</ele>
        <time>2023-08-11T08:00:11Z</time>
      </trkpt>
      <trkpt lat="45.23121" lon="6.06305">
        <ele>2443.81</ele>
        <time>2023-08-11T08:00:28Z</time>
      </trkpt>
      <trkpt lat="45.23123" lon="6.06305">
        <ele>2443.81</ele>
        <time>2023-08-11T08:00:42Z</time>
      </trkpt>
      <trkpt lat="45.23123" lon="6.06312">
        <ele>2443.33</ele>
        <time>2023-08-11T08:01:01Z</time>
      </trkpt>
      <trkpt lat="45.23127" lon="6.06316">
        <ele>2442.85</ele>
        <time>2023-08-11T08:01:12Z</time>
      </trkpt>
      <trkpt lat="45.23132" lon="6.06319">
        <ele>2441.41</ele>
        <time>2023-08-11T08:01:28Z</time>
      </trkpt>
      <trkpt lat="45.23137" lon="6.06325">
        <ele>2439.96</ele>
        <time>2023-08-11T08:01:42Z</time>
      </trkpt>
      <trkpt lat="45.23138" lon="6.06333">
        <ele>2439.48</ele>
        <time>2023-08-11T08:01:57Z</time>
      </trkpt>
      <trkpt lat="45.2314" lon="6.06329">
        <ele>2438.52</ele>
        <time>2023-08-11T08:02:12Z</time>
      </trkpt>
      <trkpt lat="45.23144" lon="6.06334">
        <ele>2436.12</ele>
        <time>2023-08-11T08:02:28Z</time>
      </trkpt>
      <trkpt lat="45.23149" lon="6.06341">
        <ele>2435.16</ele>
        <time>2023-08-11T08:02:42Z</time>
      </trkpt>
      <trkpt lat="45.23155" lon="6.06349">
        <ele>2433.23</ele>
        <time>2023-08-11T08:02:55Z</time>
      </trkpt>
      <trkpt lat="45.23163" lon="6.0636">
        <ele>2432.75</ele>
        <time>2023-08-11T08:03:09Z</time>
      </trkpt>
      <trkpt lat="45.2317" lon="6.06367">
        <ele>2432.27</ele>
        <time>2023-08-11T08:03:23Z</time>
      </trkpt>
      <trkpt lat="45.23173" lon="6.06378">
        <ele>2430.35</ele>
        <time>2023-08-11T08:03:37Z</time>
      </trkpt>
      <trkpt lat="45.23176" lon="6.0638">
        <ele>2428.91</ele>
        <time>2023-08-11T08:03:52Z</time>
      </trkpt>
      <trkpt lat="45.23179" lon="6.06388">
        <ele>2427.95</ele>
        <time>2023-08-11T08:04:07Z</time>
      </trkpt>
      <trkpt lat="45.23182" lon="6.0639">
        <ele>2427.47</ele>
        <time>2023-08-11T08:04:18Z</time>
      </trkpt>
      <trkpt lat="45.23183" lon="6.06394">
        <ele>2426.02</ele>
        <time>2023-08-11T08:04:30Z</time>
      </trkpt>
      <trkpt lat="45.23183" lon="6.06405">
        <ele>2422.66</ele>
        <time>2023-08-11T08:04:44Z</time>
      </trkpt>
      <trkpt lat="45.23188" lon="6.06411">
        <ele>2419.78</ele>
        <time>2023-08-11T08:04:59Z</time>
      </trkpt>
      <trkpt lat="45.23186" lon="6.06419">
        <ele>2416.89</ele>
        <time>2023-08-11T08:05:14Z</time>
      </trkpt>
      <trkpt lat="45.23192" lon="6.0643">
        <ele>2414.97</ele>
        <time>2023-08-11T08:05:28Z</time>
      </trkpt>
      <trkpt lat="45.23199" lon="6.06436">
        <ele>2413.53</ele>
        <time>2023-08-11T08:05:43Z</time>
      </trkpt>
      <trkpt lat="45.232" lon="6.06434">
        <ele>2413.53</ele>
        <time>2023-08-11T08:05:51Z</time>
      </trkpt>
      <trkpt lat="45.23209" lon="6.06437">
        <ele>2410.16</ele>
        <time>2023-08-11T08:06:05Z</time>
      </trkpt>
      <trkpt lat="45.23212" lon="6.06447">
        <ele>2408.72</ele>
        <time>2023-08-11T08:06:17Z</time>
      </trkpt>
      <trkpt lat="45.23211" lon="6.06453">
        <ele>2405.84</ele>
        <time>2023-08-11T08:06:33Z</time>
      </trkpt>
      <trkpt lat="45.23215" lon="6.0646">
        <ele>2403.43</ele>
        <time>2023-08-11T08:06:47Z</time>
      </trkpt>
      <trkpt lat="45.23214" lon="6.06467">
        <ele>2401.51</ele>
        <time>2023-08-11T08:06:59Z</time>
      </trkpt>
      <trkpt lat="45.23218" lon="6.06474">
        <ele>2399.11</ele>
        <time>2023-08-11T08:07:11Z</time>
      </trkpt>
      <trkpt lat="45.23222" lon="6.06477">
        <ele>2397.67</ele>
        <time>2023-08-11T08:07:24Z</time>
      </trkpt>
      <trkpt lat="45.23222" lon="6.06482">
        <ele>2394.3</ele>
        <time>2023-08-11T08:07:40Z</time>
      </trkpt>
      <trkpt lat="45.23219" lon="6.06481">
        <ele>2394.3</ele>
        <time>2023-08-11T08:08:05Z</time>
      </trkpt>
      <trkpt lat="45.23219" lon="6.06482">
        <ele>2393.82</ele>
        <time>2023-08-11T08:08:22Z</time>
      </trkpt>
      <trkpt lat="45.23222" lon="6.06484">
        <ele>2393.82</ele>
        <time>2023-08-11T08:08:38Z</time>
      </trkpt>
      <trkpt lat="45.23224" lon="6.06484">
        <ele>2393.82</ele>
        <time>2023-08-11T08:08:57Z</time>
      </trkpt>
      <trkpt lat="45.23225" lon="6.06485">
        <ele>2393.82</ele>
        <time>2023-08-11T08:09:15Z</time>
      </trkpt>
      <trkpt lat="45.23225" lon="6.06486">
        <ele>2393.82</ele>
        <time>2023-08-11T08:09:34Z</time>
      </trkpt>
      <trkpt lat="45.23223" lon="6.06485">
        <ele>2393.82</ele>
        <time>2023-08-11T08:09:54Z</time>
      </trkpt>
      <trkpt lat="45.23222" lon="6.06491">
        <ele>2392.86</ele>
        <time>2023-08-11T08:10:10Z</time>
      </trkpt>
      <trkpt lat="45.23221" lon="6.06495">
        <ele>2391.9</ele>
        <time>2023-08-11T08:10:24Z</time>
      </trkpt>
      <trkpt lat="45.23219" lon="6.065">
        <ele>2389.49</ele>
        <time>2023-08-11T08:10:36Z</time>
      </trkpt>
      <trkpt lat="45.23222" lon="6.06509">
        <ele>2387.57</ele>
        <time>2023-08-11T08:10:51Z</time>
      </trkpt>
      <trkpt lat="45.23221" lon="6.06514">
        <ele>2386.13</ele>
        <time>2023-08-11T08:11:04Z</time>
      </trkpt>
      <trkpt lat="45.23219" lon="6.0652">
        <ele>2385.17</ele>
        <time>2023-08-11T08:11:18Z</time>
      </trkpt>
      <trkpt lat="45.23217" lon="6.06529">
        <ele>2383.25</ele>
        <time>2023-08-11T08:11:31Z</time>
      </trkpt>
      <trkpt lat="45.23218" lon="6.06536">
        <ele>2382.28</ele>
        <time>2023-08-11T08:11:44Z</time>
      </trkpt>
      <trkpt lat="45.23218" lon="6.06545">
        <ele>2380.36</ele>
        <time>2023-08-11T08:11:59Z</time>
      </trkpt>
      <trkpt lat="45.23218" lon="6.06558">
        <ele>2377.96</ele>
        <time>2023-08-11T08:12:15Z</time>
      </trkpt>
      <trkpt lat="45.23219" lon="6.06569">
        <ele>2376.52</ele>
        <time>2023-08-11T08:12:27Z</time>
      </trkpt>
      <trkpt lat="45.23221" lon="6.06578">
        <ele>2375.07</ele>
        <time>2023-08-11T08:12:42Z</time>
      </trkpt>
      <trkpt lat="45.23219" lon="6.06584">
        <ele>2373.63</ele>
        <time>2023-08-11T08:12:54Z</time>
      </trkpt>
      <trkpt lat="45.23224" lon="6.06594">
        <ele>2371.71</ele>
        <time>2023-08-11T08:13:09Z</time>
      </trkpt>
      <trkpt lat="45.23225" lon="6.06602">
        <ele>2369.79</ele>
        <time>2023-08-11T08:13:23Z</time>
      </trkpt>
      <trkpt lat="45.23221" lon="6.06613">
        <ele>2366.9</ele>
        <time>2023-08-11T08:13:38Z</time>
      </trkpt>
      <trkpt lat="45.23218" lon="6.06623">
        <ele>2364.02</ele>
        <time>2023-08-11T08:13:54Z</time>
      </trkpt>
      <trkpt lat="45.2322" lon="6.06633">
        <ele>2362.1</ele>
        <time>2023-08-11T08:14:08Z</time>
      </trkpt>
      <trkpt lat="45.23223" lon="6.06641">
        <ele>2359.69</ele>
        <time>2023-08-11T08:14:22Z</time>
      </trkpt>
      <trkpt lat="45.2322" lon="6.06647">
        <ele>2357.29</ele>
        <time>2023-08-11T08:14:38Z</time>
      </trkpt>
      <trkpt lat="45.23219" lon="6.06648">
        <ele>2357.29</ele>
        <time>2023-08-11T08:14:54Z</time>
      </trkpt>
      <trkpt lat="45.23218" lon="6.06649">
        <ele>2356.81</ele>
        <time>2023-08-11T08:15:04Z</time>
      </trkpt>
      <trkpt lat="45.23221" lon="6.0665">
        <ele>2356.81</ele>
        <time>2023-08-11T08:15:20Z</time>
      </trkpt>
      <trkpt lat="45.23223" lon="6.0665">
        <ele>2356.81</ele>
        <time>2023-08-11T08:15:39Z</time>
      </trkpt>
      <trkpt lat="45.23224" lon="6.06653">
        <ele>2356.81</ele>
        <time>2023-08-11T08:15:49Z</time>
      </trkpt>
      <trkpt lat="45.23223" lon="6.0665">
        <ele>2356.81</ele>
        <time>2023-08-11T08:16:05Z</time>
      </trkpt>
      <trkpt lat="45.23221" lon="6.06654">
        <ele>2357.29</ele>
        <time>2023-08-11T08:16:24Z</time>
      </trkpt>
      <trkpt lat="45.23224" lon="6.06661">
        <ele>2355.37</ele>
        <time>2023-08-11T08:16:37Z</time>
      </trkpt>
      <trkpt lat="45.23229" lon="6.06667">
        <ele>2353.44</ele>
        <time>2023-08-11T08:16:51Z</time>
      </trkpt>
      <trkpt lat="45.23226" lon="6.06676">
        <ele>2351.52</ele>
        <time>2023-08-11T08:17:08Z</time>
      </trkpt>
      <trkpt lat="45.23222" lon="6.0669">
        <ele>2349.12</ele>
        <time>2023-08-11T08:17:24Z</time>
      </trkpt>
      <trkpt lat="45.23219" lon="6.067">
        <ele>2345.75</ele>
        <time>2023-08-11T08:17:38Z</time>
      </trkpt>
      <trkpt lat="45.23215" lon="6.06709">
        <ele>2342.87</ele>
        <time>2023-08-11T08:17:53Z</time>
      </trkpt>
      <trkpt lat="45.23213" lon="6.06719">
        <ele>2340.47</ele>
        <time>2023-08-11T08:18:09Z</time>
      </trkpt>
      <trkpt lat="45.23212" lon="6.06723">
        <ele>2338.54</ele>
        <time>2023-08-11T08:18:16Z</time>
      </trkpt>
      <trkpt lat="45.23214" lon="6.06734">
        <ele>2335.66</ele>
        <time>2023-08-11T08:18:30Z</time>
      </trkpt>
      <trkpt lat="45.23214" lon="6.06742">
        <ele>2333.26</ele>
        <time>2023-08-11T08:18:43Z</time>
      </trkpt>
      <trkpt lat="45.23214" lon="6.0675">
        <ele>2330.37</ele>
        <time>2023-08-11T08:18:57Z</time>
      </trkpt>
      <trkpt lat="45.23213" lon="6.06758">
        <ele>2328.45</ele>
        <time>2023-08-11T08:19:12Z</time>
      </trkpt>
      <trkpt lat="45.23209" lon="6.06763">
        <ele>2326.05</ele>
        <time>2023-08-11T08:19:28Z</time>
      </trkpt>
      <trkpt lat="45.23206" lon="6.06771">
        <ele>2322.68</ele>
        <time>2023-08-11T08:19:44Z</time>
      </trkpt>
      <trkpt lat="45.2321" lon="6.06783">
        <ele>2320.76</ele>
        <time>2023-08-11T08:19:59Z</time>
      </trkpt>
      <trkpt lat="45.23209" lon="6.06794">
        <ele>2316.91</ele>
        <time>2023-08-11T08:20:13Z</time>
      </trkpt>
      <trkpt lat="45.23209" lon="6.06806">
        <ele>2314.99</ele>
        <time>2023-08-11T08:20:25Z</time>
      </trkpt>
      <trkpt lat="45.23207" lon="6.06821">
        <ele>2311.63</ele>
        <time>2023-08-11T08:20:40Z</time>
      </trkpt>
      <trkpt lat="45.23208" lon="6.0683">
        <ele>2308.74</ele>
        <time>2023-08-11T08:20:57Z</time>
      </trkpt>
      <trkpt lat="45.23209" lon="6.06837">
        <ele>2306.82</ele>
        <time>2023-08-11T08:21:14Z</time>
      </trkpt>
      <trkpt lat="45.23206" lon="6.06845">
        <ele>2304.42</ele>
        <time>2023-08-11T08:21:29Z</time>
      </trkpt>
      <trkpt lat="45.23197" lon="6.06851">
        <ele>2301.53</ele>
        <time>2023-08-11T08:21:44Z</time>
      </trkpt>
      <trkpt lat="45.2319" lon="6.0686">
        <ele>2299.61</ele>
        <time>2023-08-11T08:22:00Z</time>
      </trkpt>
      <trkpt lat="45.23191" lon="6.06879">
        <ele>2295.77</ele>
        <time>2023-08-11T08:22:18Z</time>
      </trkpt>
      <trkpt lat="45.23198" lon="6.06893">
        <ele>2293.84</ele>
        <time>2023-08-11T08:22:34Z</time>
      </trkpt>
      <trkpt lat="45.23202" lon="6.06911">
        <ele>2290.96</ele>
        <time>2023-08-11T08:22:52Z</time>
      </trkpt>
      <trkpt lat="45.23203" lon="6.06924">
        <ele>2288.56</ele>
        <time>2023-08-11T08:23:07Z</time>
      </trkpt>
      <trkpt lat="45.23209" lon="6.06935">
        <ele>2286.63</ele>
        <time>2023-08-11T08:23:23Z</time>
      </trkpt>
      <trkpt lat="45.23213" lon="6.06942">
        <ele>2284.71</ele>
        <time>2023-08-11T08:23:37Z</time>
      </trkpt>
      <trkpt lat="45.23217" lon="6.06949">
        <ele>2283.27</ele>
        <time>2023-08-11T08:23:54Z</time>
      </trkpt>
      <trkpt lat="45.23224" lon="6.06956">
        <ele>2280.38</ele>
        <time>2023-08-11T08:24:09Z</time>
      </trkpt>
      <trkpt lat="45.23223" lon="6.0696">
        <ele>2277.98</ele>
        <time>2023-08-11T08:24:24Z</time>
      </trkpt>
      <trkpt lat="45.23226" lon="6.06963">
        <ele>2275.1</ele>
        <time>2023-08-11T08:24:36Z</time>
      </trkpt>
      <trkpt lat="45.23224" lon="6.0697">
        <ele>2272.69</ele>
        <time>2023-08-11T08:24:53Z</time>
      </trkpt>
      <trkpt lat="45.23226" lon="6.0698">
        <ele>2269.81</ele>
        <time>2023-08-11T08:25:08Z</time>
      </trkpt>
      <trkpt lat="45.23222" lon="6.0699">
        <ele>2268.37</ele>
        <time>2023-08-11T08:25:24Z</time>
      </trkpt>
      <trkpt lat="45.23221" lon="6.06999">
        <ele>2265.96</ele>
        <time>2023-08-11T08:25:39Z</time>
      </trkpt>
      <trkpt lat="45.23219" lon="6.07011">
        <ele>2263.56</ele>
        <time>2023-08-11T08:25:59Z</time>
      </trkpt>
      <trkpt lat="45.23219" lon="6.07031">
        <ele>2260.68</ele>
        <time>2023-08-11T08:26:19Z</time>
      </trkpt>
      <trkpt lat="45.23219" lon="6.07047">
        <ele>2258.75</ele>
        <time>2023-08-11T08:26:36Z</time>
      </trkpt>
      <trkpt lat="45.23222" lon="6.07061">
        <ele>2256.35</ele>
        <time>2023-08-11T08:26:53Z</time>
      </trkpt>
      <trkpt lat="45.23226" lon="6.0707">
        <ele>2254.43</ele>
        <time>2023-08-11T08:27:11Z</time>
      </trkpt>
      <trkpt lat="45.2322" lon="6.07086">
        <ele>2252.03</ele>
        <time>2023-08-11T08:27:28Z</time>
      </trkpt>
      <trkpt lat="45.23212" lon="6.07099">
        <ele>2251.06</ele>
        <time>2023-08-11T08:27:44Z</time>
      </trkpt>
      <trkpt lat="45.23216" lon="6.07116">
        <ele>2247.7</ele>
        <time>2023-08-11T08:28:00Z</time>
      </trkpt>
      <trkpt lat="45.23215" lon="6.0713">
        <ele>2246.26</ele>
        <time>2023-08-11T08:28:15Z</time>
      </trkpt>
      <trkpt lat="45.23217" lon="6.07143">
        <ele>2244.33</ele>
        <time>2023-08-11T08:28:29Z</time>
      </trkpt>
      <trkpt lat="45.23224" lon="6.07155">
        <ele>2242.41</ele>
        <time>2023-08-11T08:28:44Z</time>
      </trkpt>
      <trkpt lat="45.23226" lon="6.07173">
        <ele>2240.49</ele>
        <time>2023-08-11T08:29:02Z</time>
      </trkpt>
      <trkpt lat="45.23228" lon="6.07192">
        <ele>2237.61</ele>
        <time>2023-08-11T08:29:20Z</time>
      </trkpt>
      <trkpt lat="45.23224" lon="6.072">
        <ele>2235.68</ele>
        <time>2023-08-11T08:29:36Z</time>
      </trkpt>
      <trkpt lat="45.23228" lon="6.07214">
        <ele>2234.24</ele>
        <time>2023-08-11T08:29:52Z</time>
      </trkpt>
      <trkpt lat="45.2323" lon="6.07228">
        <ele>2232.32</ele>
        <time>2023-08-11T08:30:07Z</time>
      </trkpt>
      <trkpt lat="45.2323" lon="6.07242">
        <ele>2230.4</ele>
        <time>2023-08-11T08:30:22Z</time>
      </trkpt>
      <trkpt lat="45.23224" lon="6.0725">
        <ele>2228.47</ele>
        <time>2023-08-11T08:30:37Z</time>
      </trkpt>
      <trkpt lat="45.23221" lon="6.07266">
        <ele>2226.55</ele>
        <time>2023-08-11T08:30:54Z</time>
      </trkpt>
      <trkpt lat="45.23224" lon="6.07279">
        <ele>2224.63</ele>
        <time>2023-08-11T08:31:09Z</time>
      </trkpt>
      <trkpt lat="45.23227" lon="6.07294">
        <ele>2222.71</ele>
        <time>2023-08-11T08:31:25Z</time>
      </trkpt>
      <trkpt lat="45.23228" lon="6.07303">
        <ele>2221.74</ele>
        <time>2023-08-11T08:31:36Z</time>
      </trkpt>
      <trkpt lat="45.23228" lon="6.07318">
        <ele>2218.86</ele>
        <time>2023-08-11T08:31:52Z</time>
      </trkpt>
      <trkpt lat="45.23236" lon="6.07327">
        <ele>2215.98</ele>
        <time>2023-08-11T08:32:06Z</time>
      </trkpt>
      <trkpt lat="45.23229" lon="6.07337">
        <ele>2213.57</ele>
        <time>2023-08-11T08:32:21Z</time>
      </trkpt>
      <trkpt lat="45.23228" lon="6.0735">
        <ele>2211.65</ele>
        <time>2023-08-11T08:32:35Z</time>
      </trkpt>
      <trkpt lat="45.23226" lon="6.07363">
        <ele>2210.21</ele>
        <time>2023-08-11T08:32:49Z</time>
      </trkpt>
      <trkpt lat="45.23223" lon="6.07377">
        <ele>2208.77</ele>
        <time>2023-08-11T08:33:04Z</time>
      </trkpt>
      <trkpt lat="45.23215" lon="6.07387">
        <ele>2207.81</ele>
        <time>2023-08-11T08:33:17Z</time>
      </trkpt>
      <trkpt lat="45.23213" lon="6.07402">
        <ele>2206.36</ele>
        <time>2023-08-11T08:33:33Z</time>
      </trkpt>
      <trkpt lat="45.23208" lon="6.07416">
        <ele>2205.4</ele>
        <time>2023-08-11T08:33:49Z</time>
      </trkpt>
      <trkpt lat="45.23214" lon="6.07421">
        <ele>2204.44</ele>
        <time>2023-08-11T08:34:03Z</time>
      </trkpt>
      <trkpt lat="45.23217" lon="6.07429">
        <ele>2204.44</ele>
        <time>2023-08-11T08:34:17Z</time>
      </trkpt>
      <trkpt lat="45.23217" lon="6.07434">
        <ele>2203.96</ele>
        <time>2023-08-11T08:34:21Z</time>
      </trkpt>
      <trkpt lat="45.23223" lon="6.07448">
        <ele>2202.04</ele>
        <time>2023-08-11T08:34:36Z</time>
      </trkpt>
      <trkpt lat="45.23225" lon="6.07457">
        <ele>2200.11</ele>
        <time>2023-08-11T08:34:45Z</time>
      </trkpt>
      <trkpt lat="45.23237" lon="6.07467">
        <ele>2198.67</ele>
        <time>2023-08-11T08:35:01Z</time>
      </trkpt>
      <trkpt lat="45.23238" lon="6.07468">
        <ele>2198.67</ele>
        <time>2023-08-11T08:35:02Z</time>
      </trkpt>
      <trkpt lat="45.23243" lon="6.07479">
        <ele>2197.71</ele>
        <time>2023-08-11T08:35:15Z</time>
      </trkpt>
      <trkpt lat="45.23241" lon="6.07495">
        <ele>2195.79</ele>
        <time>2023-08-11T08:35:31Z</time>
      </trkpt>
      <trkpt lat="45.23244" lon="6.07508">
        <ele>2193.87</ele>
        <time>2023-08-11T08:35:46Z</time>
      </trkpt>
      <trkpt lat="45.23252" lon="6.07515">
        <ele>2193.39</ele>
        <time>2023-08-11T08:36:01Z</time>
      </trkpt>
      <trkpt lat="45.23256" lon="6.07516">
        <ele>2193.39</ele>
        <time>2023-08-11T08:36:08Z</time>
      </trkpt>
      <trkpt lat="45.23265" lon="6.07524">
        <ele>2194.35</ele>
        <time>2023-08-11T08:36:23Z</time>
      </trkpt>
      <trkpt lat="45.23276" lon="6.0753">
        <ele>2194.35</ele>
        <time>2023-08-11T08:36:41Z</time>
      </trkpt>
      <trkpt lat="45.23285" lon="6.07534">
        <ele>2194.35</ele>
        <time>2023-08-11T08:36:54Z</time>
      </trkpt>
      <trkpt lat="45.23294" lon="6.0754">
        <ele>2192.9</ele>
        <time>2023-08-11T08:37:08Z</time>
      </trkpt>
      <trkpt lat="45.23301" lon="6.07553">
        <ele>2192.9</ele>
        <time>2023-08-11T08:37:24Z</time>
      </trkpt>
      <trkpt lat="45.23304" lon="6.07567">
        <ele>2192.9</ele>
        <time>2023-08-11T08:37:40Z</time>
      </trkpt>
      <trkpt lat="45.23313" lon="6.0758">
        <ele>2190.98</ele>
        <time>2023-08-11T08:37:56Z</time>
      </trkpt>
      <trkpt lat="45.23323" lon="6.07591">
        <ele>2190.98</ele>
        <time>2023-08-11T08:38:10Z</time>
      </trkpt>
      <trkpt lat="45.23327" lon="6.07598">
        <ele>2192.42</ele>
        <time>2023-08-11T08:38:21Z</time>
      </trkpt>
      <trkpt lat="45.23329" lon="6.07593">
        <ele>2191.94</ele>
        <time>2023-08-11T08:38:38Z</time>
      </trkpt>
      <trkpt lat="45.23332" lon="6.07605">
        <ele>2193.39</ele>
        <time>2023-08-11T08:38:53Z</time>
      </trkpt>
      <trkpt lat="45.23338" lon="6.07619">
        <ele>2194.35</ele>
        <time>2023-08-11T08:39:10Z</time>
      </trkpt>
      <trkpt lat="45.23343" lon="6.07633">
        <ele>2194.83</ele>
        <time>2023-08-11T08:39:26Z</time>
      </trkpt>
      <trkpt lat="45.23353" lon="6.07644">
        <ele>2194.35</ele>
        <time>2023-08-11T08:39:42Z</time>
      </trkpt>
      <trkpt lat="45.23363" lon="6.07649">
        <ele>2195.31</ele>
        <time>2023-08-11T08:39:56Z</time>
      </trkpt>
      <trkpt lat="45.23372" lon="6.07656">
        <ele>2196.27</ele>
        <time>2023-08-11T08:40:13Z</time>
      </trkpt>
      <trkpt lat="45.2338" lon="6.07667">
        <ele>2197.71</ele>
        <time>2023-08-11T08:40:29Z</time>
      </trkpt>
      <trkpt lat="45.23388" lon="6.07677">
        <ele>2197.71</ele>
        <time>2023-08-11T08:40:45Z</time>
      </trkpt>
      <trkpt lat="45.23397" lon="6.07683">
        <ele>2198.19</ele>
        <time>2023-08-11T08:41:00Z</time>
      </trkpt>
      <trkpt lat="45.23404" lon="6.0769">
        <ele>2199.15</ele>
        <time>2023-08-11T08:41:17Z</time>
      </trkpt>
      <trkpt lat="45.23413" lon="6.07698">
        <ele>2200.59</ele>
        <time>2023-08-11T08:41:35Z</time>
      </trkpt>
      <trkpt lat="45.2342" lon="6.07709">
        <ele>2200.59</ele>
        <time>2023-08-11T08:41:49Z</time>
      </trkpt>
      <trkpt lat="45.23425" lon="6.07718">
        <ele>2200.59</ele>
        <time>2023-08-11T08:42:04Z</time>
      </trkpt>
      <trkpt lat="45.23429" lon="6.07727">
        <ele>2201.08</ele>
        <time>2023-08-11T08:42:19Z</time>
      </trkpt>
      <trkpt lat="45.23434" lon="6.07733">
        <ele>2202.04</ele>
        <time>2023-08-11T08:42:33Z</time>
      </trkpt>
      <trkpt lat="45.23437" lon="6.07743">
        <ele>2203.96</ele>
        <time>2023-08-11T08:42:50Z</time>
      </trkpt>
      <trkpt lat="45.23438" lon="6.07757">
        <ele>2204.92</ele>
        <time>2023-08-11T08:43:05Z</time>
      </trkpt>
      <trkpt lat="45.23439" lon="6.07769">
        <ele>2204.92</ele>
        <time>2023-08-11T08:43:21Z</time>
      </trkpt>
      <trkpt lat="45.23445" lon="6.07788">
        <ele>2203.48</ele>
        <time>2023-08-11T08:43:39Z</time>
      </trkpt>
      <trkpt lat="45.23451" lon="6.07801">
        <ele>2203</ele>
        <time>2023-08-11T08:43:55Z</time>
      </trkpt>
      <trkpt lat="45.23457" lon="6.07818">
        <ele>2201.08</ele>
        <time>2023-08-11T08:44:14Z</time>
      </trkpt>
      <trkpt lat="45.23462" lon="6.07834">
        <ele>2198.19</ele>
        <time>2023-08-11T08:44:28Z</time>
      </trkpt>
      <trkpt lat="45.23462" lon="6.07834">
        <ele>2198.19</ele>
        <time>2023-08-11T08:44:29Z</time>
      </trkpt>
      <trkpt lat="45.23465" lon="6.07839">
        <ele>2198.19</ele>
        <time>2023-08-11T08:44:33Z</time>
      </trkpt>
      <trkpt lat="45.23475" lon="6.07848">
        <ele>2197.23</ele>
        <time>2023-08-11T08:44:46Z</time>
      </trkpt>
      <trkpt lat="45.23482" lon="6.07855">
        <ele>2198.67</ele>
        <time>2023-08-11T08:45:00Z</time>
      </trkpt>
      <trkpt lat="45.23487" lon="6.07865">
        <ele>2196.75</ele>
        <time>2023-08-11T08:45:13Z</time>
      </trkpt>
      <trkpt lat="45.23493" lon="6.07877">
        <ele>2195.79</ele>
        <time>2023-08-11T08:45:26Z</time>
      </trkpt>
      <trkpt lat="45.23494" lon="6.07879">
        <ele>2195.79</ele>
        <time>2023-08-11T08:45:28Z</time>
      </trkpt>
      <trkpt lat="45.23501" lon="6.07893">
        <ele>2195.31</ele>
        <time>2023-08-11T08:45:43Z</time>
      </trkpt>
      <trkpt lat="45.23505" lon="6.07897">
        <ele>2194.35</ele>
        <time>2023-08-11T08:45:49Z</time>
      </trkpt>
      <trkpt lat="45.23513" lon="6.07914">
        <ele>2191.46</ele>
        <time>2023-08-11T08:46:05Z</time>
      </trkpt>
      <trkpt lat="45.23519" lon="6.07926">
        <ele>2190.98</ele>
        <time>2023-08-11T08:46:17Z</time>
      </trkpt>
      <trkpt lat="45.2353" lon="6.0794">
        <ele>2190.5</ele>
        <time>2023-08-11T08:46:33Z</time>
      </trkpt>
      <trkpt lat="45.23541" lon="6.07949">
        <ele>2190.5</ele>
        <time>2023-08-11T08:46:49Z</time>
      </trkpt>
      <trkpt lat="45.23549" lon="6.07957">
        <ele>2191.94</ele>
        <time>2023-08-11T08:47:05Z</time>
      </trkpt>
      <trkpt lat="45.23555" lon="6.07972">
        <ele>2192.42</ele>
        <time>2023-08-11T08:47:19Z</time>
      </trkpt>
      <trkpt lat="45.23561" lon="6.07977">
        <ele>2193.39</ele>
        <time>2023-08-11T08:47:33Z</time>
      </trkpt>
      <trkpt lat="45.23571" lon="6.07991">
        <ele>2193.39</ele>
        <time>2023-08-11T08:47:50Z</time>
      </trkpt>
      <trkpt lat="45.23573" lon="6.07996">
        <ele>2191.94</ele>
        <time>2023-08-11T08:47:56Z</time>
      </trkpt>
      <trkpt lat="45.23578" lon="6.08008">
        <ele>2191.94</ele>
        <time>2023-08-11T08:48:11Z</time>
      </trkpt>
      <trkpt lat="45.23589" lon="6.08012">
        <ele>2191.94</ele>
        <time>2023-08-11T08:48:28Z</time>
      </trkpt>
      <trkpt lat="45.23591" lon="6.08014">
        <ele>2193.39</ele>
        <time>2023-08-11T08:48:33Z</time>
      </trkpt>
      <trkpt lat="45.23597" lon="6.08015">
        <ele>2194.83</ele>
        <time>2023-08-11T08:48:47Z</time>
      </trkpt>
      <trkpt lat="45.23605" lon="6.08016">
        <ele>2196.27</ele>
        <time>2023-08-11T08:49:03Z</time>
      </trkpt>
      <trkpt lat="45.23612" lon="6.08018">
        <ele>2197.23</ele>
        <time>2023-08-11T08:49:18Z</time>
      </trkpt>
      <trkpt lat="45.23618" lon="6.08028">
        <ele>2197.23</ele>
        <time>2023-08-11T08:49:32Z</time>
      </trkpt>
      <trkpt lat="45.23625" lon="6.08038">
        <ele>2197.23</ele>
        <time>2023-08-11T08:49:46Z</time>
      </trkpt>
      <trkpt lat="45.23629" lon="6.08047">
        <ele>2195.79</ele>
        <time>2023-08-11T08:49:57Z</time>
      </trkpt>
      <trkpt lat="45.23637" lon="6.08059">
        <ele>2194.83</ele>
        <time>2023-08-11T08:50:13Z</time>
      </trkpt>
      <trkpt lat="45.23644" lon="6.08068">
        <ele>2194.35</ele>
        <time>2023-08-11T08:50:28Z</time>
      </trkpt>
      <trkpt lat="45.23645" lon="6.08076">
        <ele>2194.35</ele>
        <time>2023-08-11T08:50:48Z</time>
      </trkpt>
      <trkpt lat="45.23647" lon="6.08075">
        <ele>2194.35</ele>
        <time>2023-08-11T08:51:12Z</time>
      </trkpt>
      <trkpt lat="45.23648" lon="6.08078">
        <ele>2194.35</ele>
        <time>2023-08-11T08:51:19Z</time>
      </trkpt>
      <trkpt lat="45.23654" lon="6.08093">
        <ele>2193.39</ele>
        <time>2023-08-11T08:51:34Z</time>
      </trkpt>
      <trkpt lat="45.23655" lon="6.08098">
        <ele>2192.9</ele>
        <time>2023-08-11T08:51:41Z</time>
      </trkpt>
      <trkpt lat="45.23663" lon="6.08107">
        <ele>2191.94</ele>
        <time>2023-08-11T08:51:56Z</time>
      </trkpt>
      <trkpt lat="45.23667" lon="6.08115">
        <ele>2190.98</ele>
        <time>2023-08-11T08:52:12Z</time>
      </trkpt>
      <trkpt lat="45.2367" lon="6.08131">
        <ele>2190.5</ele>
        <time>2023-08-11T08:52:28Z</time>
      </trkpt>
      <trkpt lat="45.23674" lon="6.08142">
        <ele>2190.5</ele>
        <time>2023-08-11T08:52:40Z</time>
      </trkpt>
      <trkpt lat="45.23678" lon="6.08154">
        <ele>2190.02</ele>
        <time>2023-08-11T08:52:56Z</time>
      </trkpt>
      <trkpt lat="45.23681" lon="6.08154">
        <ele>2189.54</ele>
        <time>2023-08-11T08:53:08Z</time>
      </trkpt>
      <trkpt lat="45.23681" lon="6.08163">
        <ele>2189.06</ele>
        <time>2023-08-11T09:00:39Z</time>
      </trkpt>
      <trkpt lat="45.23678" lon="6.08169">
        <ele>2188.1</ele>
        <time>2023-08-11T09:00:52Z</time>
      </trkpt>
      <trkpt lat="45.23677" lon="6.08178">
        <ele>2186.18</ele>
        <time>2023-08-11T09:01:06Z</time>
      </trkpt>
      <trkpt lat="45.23675" lon="6.08185">
        <ele>2185.21</ele>
        <time>2023-08-11T09:01:13Z</time>
      </trkpt>
      <trkpt lat="45.23672" lon="6.08195">
        <ele>2184.25</ele>
        <time>2023-08-11T09:01:27Z</time>
      </trkpt>
      <trkpt lat="45.2367" lon="6.08205">
        <ele>2183.29</ele>
        <time>2023-08-11T09:01:41Z</time>
      </trkpt>
      <trkpt lat="45.23674" lon="6.08216">
        <ele>2181.37</ele>
        <time>2023-08-11T09:01:54Z</time>
      </trkpt>
      <trkpt lat="45.23679" lon="6.08227">
        <ele>2180.41</ele>
        <time>2023-08-11T09:02:08Z</time>
      </trkpt>
      <trkpt lat="45.23679" lon="6.08238">
        <ele>2179.45</ele>
        <time>2023-08-11T09:02:22Z</time>
      </trkpt>
      <trkpt lat="45.23684" lon="6.08249">
        <ele>2180.41</ele>
        <time>2023-08-11T09:02:37Z</time>
      </trkpt>
      <trkpt lat="45.23693" lon="6.08256">
        <ele>2178.97</ele>
        <time>2023-08-11T09:02:50Z</time>
      </trkpt>
      <trkpt lat="45.237" lon="6.08272">
        <ele>2178</ele>
        <time>2023-08-11T09:03:06Z</time>
      </trkpt>
      <trkpt lat="45.23708" lon="6.08274">
        <ele>2177.52</ele>
        <time>2023-08-11T09:03:20Z</time>
      </trkpt>
      <trkpt lat="45.23717" lon="6.08282">
        <ele>2177.04</ele>
        <time>2023-08-11T09:03:34Z</time>
      </trkpt>
      <trkpt lat="45.23721" lon="6.08282">
        <ele>2177.04</ele>
        <time>2023-08-11T09:03:41Z</time>
      </trkpt>
      <trkpt lat="45.2373" lon="6.08292">
        <ele>2176.56</ele>
        <time>2023-08-11T09:03:55Z</time>
      </trkpt>
      <trkpt lat="45.23741" lon="6.08298">
        <ele>2176.56</ele>
        <time>2023-08-11T09:04:09Z</time>
      </trkpt>
      <trkpt lat="45.2375" lon="6.08298">
        <ele>2176.08</ele>
        <time>2023-08-11T09:04:21Z</time>
      </trkpt>
      <trkpt lat="45.23754" lon="6.08284">
        <ele>2175.12</ele>
        <time>2023-08-11T09:04:34Z</time>
      </trkpt>
      <trkpt lat="45.23757" lon="6.08276">
        <ele>2174.64</ele>
        <time>2023-08-11T09:04:48Z</time>
      </trkpt>
      <trkpt lat="45.23763" lon="6.08277">
        <ele>2175.6</ele>
        <time>2023-08-11T09:04:56Z</time>
      </trkpt>
      <trkpt lat="45.23772" lon="6.08273">
        <ele>2177.52</ele>
        <time>2023-08-11T09:05:12Z</time>
      </trkpt>
      <trkpt lat="45.23778" lon="6.08265">
        <ele>2178</ele>
        <time>2023-08-11T09:05:26Z</time>
      </trkpt>
      <trkpt lat="45.23785" lon="6.08264">
        <ele>2178.97</ele>
        <time>2023-08-11T09:05:41Z</time>
      </trkpt>
      <trkpt lat="45.23794" lon="6.08263">
        <ele>2179.93</ele>
        <time>2023-08-11T09:05:55Z</time>
      </trkpt>
      <trkpt lat="45.23804" lon="6.08275">
        <ele>2179.93</ele>
        <time>2023-08-11T09:06:10Z</time>
      </trkpt>
      <trkpt lat="45.23806" lon="6.08286">
        <ele>2179.93</ele>
        <time>2023-08-11T09:06:20Z</time>
      </trkpt>
      <trkpt lat="45.23805" lon="6.08303">
        <ele>2178</ele>
        <time>2023-08-11T09:06:36Z</time>
      </trkpt>
      <trkpt lat="45.23803" lon="6.08326">
        <ele>2177.04</ele>
        <time>2023-08-11T09:06:54Z</time>
      </trkpt>
      <trkpt lat="45.23802" lon="6.0833">
        <ele>2177.04</ele>
        <time>2023-08-11T09:06:58Z</time>
      </trkpt>
      <trkpt lat="45.23808" lon="6.08341">
        <ele>2177.04</ele>
        <time>2023-08-11T09:07:11Z</time>
      </trkpt>
      <trkpt lat="45.23819" lon="6.08343">
        <ele>2177.04</ele>
        <time>2023-08-11T09:07:25Z</time>
      </trkpt>
      <trkpt lat="45.23828" lon="6.08351">
        <ele>2176.56</ele>
        <time>2023-08-11T09:07:38Z</time>
      </trkpt>
      <trkpt lat="45.23836" lon="6.0834">
        <ele>2177.52</ele>
        <time>2023-08-11T09:07:52Z</time>
      </trkpt>
      <trkpt lat="45.23842" lon="6.08336">
        <ele>2176.08</ele>
        <time>2023-08-11T09:08:01Z</time>
      </trkpt>
      <trkpt lat="45.23844" lon="6.08335">
        <ele>2175.6</ele>
        <time>2023-08-11T09:08:03Z</time>
      </trkpt>
      <trkpt lat="45.23851" lon="6.08337">
        <ele>2175.12</ele>
        <time>2023-08-11T09:08:11Z</time>
      </trkpt>
      <trkpt lat="45.23862" lon="6.08334">
        <ele>2174.64</ele>
        <time>2023-08-11T09:08:25Z</time>
      </trkpt>
      <trkpt lat="45.23871" lon="6.08344">
        <ele>2174.64</ele>
        <time>2023-08-11T09:08:39Z</time>
      </trkpt>
      <trkpt lat="45.2388" lon="6.08345">
        <ele>2174.64</ele>
        <time>2023-08-11T09:08:52Z</time>
      </trkpt>
      <trkpt lat="45.23884" lon="6.08346">
        <ele>2174.64</ele>
        <time>2023-08-11T09:09:12Z</time>
      </trkpt>
      <trkpt lat="45.23893" lon="6.08345">
        <ele>2172.72</ele>
        <time>2023-08-11T09:09:29Z</time>
      </trkpt>
      <trkpt lat="45.239" lon="6.08343">
        <ele>2172.72</ele>
        <time>2023-08-11T09:09:43Z</time>
      </trkpt>
      <trkpt lat="45.2391" lon="6.08337">
        <ele>2172.24</ele>
        <time>2023-08-11T09:09:56Z</time>
      </trkpt>
      <trkpt lat="45.23919" lon="6.08334">
        <ele>2172.24</ele>
        <time>2023-08-11T09:10:09Z</time>
      </trkpt>
      <trkpt lat="45.2393" lon="6.08343">
        <ele>2171.76</ele>
        <time>2023-08-11T09:10:25Z</time>
      </trkpt>
      <trkpt lat="45.23935" lon="6.08351">
        <ele>2170.31</ele>
        <time>2023-08-11T09:10:34Z</time>
      </trkpt>
      <trkpt lat="45.23944" lon="6.0836">
        <ele>2170.31</ele>
        <time>2023-08-11T09:10:49Z</time>
      </trkpt>
      <trkpt lat="45.23953" lon="6.08361">
        <ele>2168.39</ele>
        <time>2023-08-11T09:11:03Z</time>
      </trkpt>
      <trkpt lat="45.23961" lon="6.08372">
        <ele>2167.91</ele>
        <time>2023-08-11T09:11:17Z</time>
      </trkpt>
      <trkpt lat="45.23967" lon="6.08376">
        <ele>2166.47</ele>
        <time>2023-08-11T09:11:30Z</time>
      </trkpt>
      <trkpt lat="45.23976" lon="6.08381">
        <ele>2165.03</ele>
        <time>2023-08-11T09:11:44Z</time>
      </trkpt>
      <trkpt lat="45.23987" lon="6.08388">
        <ele>2162.62</ele>
        <time>2023-08-11T09:12:00Z</time>
      </trkpt>
      <trkpt lat="45.23989" lon="6.08388">
        <ele>2162.14</ele>
        <time>2023-08-11T09:12:02Z</time>
      </trkpt>
      <trkpt lat="45.23996" lon="6.08386">
        <ele>2161.18</ele>
        <time>2023-08-11T09:12:10Z</time>
      </trkpt>
      <trkpt lat="45.24006" lon="6.08385">
        <ele>2160.7</ele>
        <time>2023-08-11T09:12:24Z</time>
      </trkpt>
      <trkpt lat="45.24008" lon="6.08385">
        <ele>2160.7</ele>
        <time>2023-08-11T09:12:26Z</time>
      </trkpt>
      <trkpt lat="45.24012" lon="6.08383">
        <ele>2160.7</ele>
        <time>2023-08-11T09:12:32Z</time>
      </trkpt>
      <trkpt lat="45.24016" lon="6.08383">
        <ele>2160.22</ele>
        <time>2023-08-11T09:12:36Z</time>
      </trkpt>
      <trkpt lat="45.24017" lon="6.08383">
        <ele>2160.22</ele>
        <time>2023-08-11T09:12:38Z</time>
      </trkpt>
      <trkpt lat="45.2403" lon="6.08389">
        <ele>2160.22</ele>
        <time>2023-08-11T09:12:54Z</time>
      </trkpt>
      <trkpt lat="45.24032" lon="6.08389">
        <ele>2161.66</ele>
        <time>2023-08-11T09:12:58Z</time>
      </trkpt>
      <trkpt lat="45.24042" lon="6.08391">
        <ele>2161.18</ele>
        <time>2023-08-11T09:13:12Z</time>
      </trkpt>
      <trkpt lat="45.24053" lon="6.08395">
        <ele>2161.18</ele>
        <time>2023-08-11T09:13:27Z</time>
      </trkpt>
      <trkpt lat="45.2406" lon="6.084">
        <ele>2161.18</ele>
        <time>2023-08-11T09:13:41Z</time>
      </trkpt>
      <trkpt lat="45.24068" lon="6.08402">
        <ele>2161.66</ele>
        <time>2023-08-11T09:13:51Z</time>
      </trkpt>
      <trkpt lat="45.24076" lon="6.08416">
        <ele>2160.22</ele>
        <time>2023-08-11T09:14:06Z</time>
      </trkpt>
      <trkpt lat="45.24085" lon="6.08425">
        <ele>2158.78</ele>
        <time>2023-08-11T09:14:21Z</time>
      </trkpt>
      <trkpt lat="45.24089" lon="6.08425">
        <ele>2158.3</ele>
        <time>2023-08-11T09:14:28Z</time>
      </trkpt>
      <trkpt lat="45.24092" lon="6.08425">
        <ele>2157.82</ele>
        <time>2023-08-11T09:14:31Z</time>
      </trkpt>
      <trkpt lat="45.24106" lon="6.08423">
        <ele>2158.78</ele>
        <time>2023-08-11T09:14:47Z</time>
      </trkpt>
      <trkpt lat="45.24113" lon="6.08432">
        <ele>2158.78</ele>
        <time>2023-08-11T09:15:01Z</time>
      </trkpt>
      <trkpt lat="45.2412" lon="6.08431">
        <ele>2159.74</ele>
        <time>2023-08-11T09:15:14Z</time>
      </trkpt>
      <trkpt lat="45.2413" lon="6.08431">
        <ele>2160.7</ele>
        <time>2023-08-11T09:15:30Z</time>
      </trkpt>
      <trkpt lat="45.24136" lon="6.08434">
        <ele>2161.66</ele>
        <time>2023-08-11T09:15:42Z</time>
      </trkpt>
      <trkpt lat="45.24144" lon="6.08431">
        <ele>2162.62</ele>
        <time>2023-08-11T09:15:56Z</time>
      </trkpt>
      <trkpt lat="45.24153" lon="6.0843">
        <ele>2164.06</ele>
        <time>2023-08-11T09:16:11Z</time>
      </trkpt>
      <trkpt lat="45.24161" lon="6.08436">
        <ele>2165.03</ele>
        <time>2023-08-11T09:16:24Z</time>
      </trkpt>
      <trkpt lat="45.24163" lon="6.08448">
        <ele>2165.03</ele>
        <time>2023-08-11T09:16:37Z</time>
      </trkpt>
      <trkpt lat="45.24168" lon="6.08453">
        <ele>2164.06</ele>
        <time>2023-08-11T09:16:48Z</time>
      </trkpt>
      <trkpt lat="45.24173" lon="6.08458">
        <ele>2165.03</ele>
        <time>2023-08-11T09:16:59Z</time>
      </trkpt>
      <trkpt lat="45.24184" lon="6.0846">
        <ele>2166.47</ele>
        <time>2023-08-11T09:17:16Z</time>
      </trkpt>
      <trkpt lat="45.24189" lon="6.08467">
        <ele>2167.43</ele>
        <time>2023-08-11T09:17:31Z</time>
      </trkpt>
      <trkpt lat="45.24194" lon="6.08475">
        <ele>2168.87</ele>
        <time>2023-08-11T09:17:44Z</time>
      </trkpt>
      <trkpt lat="45.24204" lon="6.08475">
        <ele>2168.87</ele>
        <time>2023-08-11T09:18:00Z</time>
      </trkpt>
      <trkpt lat="45.24209" lon="6.08473">
        <ele>2166.95</ele>
        <time>2023-08-11T09:18:08Z</time>
      </trkpt>
      <trkpt lat="45.24216" lon="6.0847">
        <ele>2168.39</ele>
        <time>2023-08-11T09:18:20Z</time>
      </trkpt>
      <trkpt lat="45.24228" lon="6.08466">
        <ele>2170.31</ele>
        <time>2023-08-11T09:18:37Z</time>
      </trkpt>
      <trkpt lat="45.24238" lon="6.08472">
        <ele>2170.31</ele>
        <time>2023-08-11T09:18:54Z</time>
      </trkpt>
      <trkpt lat="45.24248" lon="6.08478">
        <ele>2170.31</ele>
        <time>2023-08-11T09:19:10Z</time>
      </trkpt>
      <trkpt lat="45.24259" lon="6.08481">
        <ele>2171.76</ele>
        <time>2023-08-11T09:19:29Z</time>
      </trkpt>
      <trkpt lat="45.24268" lon="6.08487">
        <ele>2174.16</ele>
        <time>2023-08-11T09:19:49Z</time>
      </trkpt>
      <trkpt lat="45.24278" lon="6.08491">
        <ele>2175.12</ele>
        <time>2023-08-11T09:20:07Z</time>
      </trkpt>
      <trkpt lat="45.24289" lon="6.08491">
        <ele>2177.04</ele>
        <time>2023-08-11T09:20:27Z</time>
      </trkpt>
      <trkpt lat="45.24296" lon="6.08488">
        <ele>2178.48</ele>
        <time>2023-08-11T09:20:47Z</time>
      </trkpt>
      <trkpt lat="45.24303" lon="6.08486">
        <ele>2178.48</ele>
        <time>2023-08-11T09:21:03Z</time>
      </trkpt>
      <trkpt lat="45.24312" lon="6.08479">
        <ele>2177.52</ele>
        <time>2023-08-11T09:21:16Z</time>
      </trkpt>
      <trkpt lat="45.24313" lon="6.08481">
        <ele>2178.97</ele>
        <time>2023-08-11T09:21:21Z</time>
      </trkpt>
      <trkpt lat="45.24317" lon="6.08484">
        <ele>2179.93</ele>
        <time>2023-08-11T09:21:40Z</time>
      </trkpt>
      <trkpt lat="45.24324" lon="6.08481">
        <ele>2181.85</ele>
        <time>2023-08-11T09:21:58Z</time>
      </trkpt>
      <trkpt lat="45.24334" lon="6.08476">
        <ele>2182.81</ele>
        <time>2023-08-11T09:22:18Z</time>
      </trkpt>
      <trkpt lat="45.24342" lon="6.08471">
        <ele>2180.89</ele>
        <time>2023-08-11T09:22:31Z</time>
      </trkpt>
      <trkpt lat="45.2435" lon="6.0847">
        <ele>2179.93</ele>
        <time>2023-08-11T09:22:40Z</time>
      </trkpt>
      <trkpt lat="45.24353" lon="6.08469">
        <ele>2179.93</ele>
        <time>2023-08-11T09:22:43Z</time>
      </trkpt>
      <trkpt lat="45.24364" lon="6.08467">
        <ele>2178.48</ele>
        <time>2023-08-11T09:22:56Z</time>
      </trkpt>
      <trkpt lat="45.24365" lon="6.08466">
        <ele>2178.48</ele>
        <time>2023-08-11T09:22:58Z</time>
      </trkpt>
      <trkpt lat="45.24371" lon="6.08463">
        <ele>2177.04</ele>
        <time>2023-08-11T09:23:06Z</time>
      </trkpt>
      <trkpt lat="45.24384" lon="6.08459">
        <ele>2176.08</ele>
        <time>2023-08-11T09:23:19Z</time>
      </trkpt>
      <trkpt lat="45.24391" lon="6.08457">
        <ele>2175.6</ele>
        <time>2023-08-11T09:23:27Z</time>
      </trkpt>
      <trkpt lat="45.24405" lon="6.08455">
        <ele>2176.56</ele>
        <time>2023-08-11T09:23:43Z</time>
      </trkpt>
      <trkpt lat="45.24416" lon="6.08452">
        <ele>2178</ele>
        <time>2023-08-11T09:24:00Z</time>
      </trkpt>
      <trkpt lat="45.24427" lon="6.08451">
        <ele>2178.48</ele>
        <time>2023-08-11T09:24:15Z</time>
      </trkpt>
      <trkpt lat="45.2443" lon="6.08451">
        <ele>2177.52</ele>
        <time>2023-08-11T09:24:18Z</time>
      </trkpt>
      <trkpt lat="45.24442" lon="6.0845">
        <ele>2177.52</ele>
        <time>2023-08-11T09:24:34Z</time>
      </trkpt>
      <trkpt lat="45.24459" lon="6.08441">
        <ele>2177.52</ele>
        <time>2023-08-11T09:24:51Z</time>
      </trkpt>
      <trkpt lat="45.24468" lon="6.08434">
        <ele>2178.48</ele>
        <time>2023-08-11T09:25:12Z</time>
      </trkpt>
      <trkpt lat="45.24478" lon="6.08427">
        <ele>2176.56</ele>
        <time>2023-08-11T09:25:27Z</time>
      </trkpt>
      <trkpt lat="45.24491" lon="6.08426">
        <ele>2175.6</ele>
        <time>2023-08-11T09:25:43Z</time>
      </trkpt>
      <trkpt lat="45.24501" lon="6.0842">
        <ele>2173.68</ele>
        <time>2023-08-11T09:25:59Z</time>
      </trkpt>
      <trkpt lat="45.24512" lon="6.08416">
        <ele>2173.68</ele>
        <time>2023-08-11T09:26:15Z</time>
      </trkpt>
      <trkpt lat="45.24513" lon="6.08415">
        <ele>2173.68</ele>
        <time>2023-08-11T09:26:16Z</time>
      </trkpt>
      <trkpt lat="45.24523" lon="6.08405">
        <ele>2172.72</ele>
        <time>2023-08-11T09:26:33Z</time>
      </trkpt>
      <trkpt lat="45.24533" lon="6.08396">
        <ele>2170.79</ele>
        <time>2023-08-11T09:26:49Z</time>
      </trkpt>
      <trkpt lat="45.24538" lon="6.08386">
        <ele>2168.87</ele>
        <time>2023-08-11T09:27:04Z</time>
      </trkpt>
      <trkpt lat="45.24546" lon="6.08376">
        <ele>2166.95</ele>
        <time>2023-08-11T09:27:21Z</time>
      </trkpt>
      <trkpt lat="45.24556" lon="6.08368">
        <ele>2165.99</ele>
        <time>2023-08-11T09:27:37Z</time>
      </trkpt>
      <trkpt lat="45.24561" lon="6.08363">
        <ele>2164.55</ele>
        <time>2023-08-11T09:27:51Z</time>
      </trkpt>
      <trkpt lat="45.24567" lon="6.08357">
        <ele>2162.62</ele>
        <time>2023-08-11T09:28:05Z</time>
      </trkpt>
      <trkpt lat="45.24575" lon="6.08352">
        <ele>2162.14</ele>
        <time>2023-08-11T09:28:22Z</time>
      </trkpt>
      <trkpt lat="45.24583" lon="6.08349">
        <ele>2160.7</ele>
        <time>2023-08-11T09:28:37Z</time>
      </trkpt>
      <trkpt lat="45.24589" lon="6.08334">
        <ele>2159.74</ele>
        <time>2023-08-11T09:28:55Z</time>
      </trkpt>
      <trkpt lat="45.24598" lon="6.08328">
        <ele>2158.3</ele>
        <time>2023-08-11T09:29:11Z</time>
      </trkpt>
      <trkpt lat="45.24606" lon="6.0833">
        <ele>2158.3</ele>
        <time>2023-08-11T09:29:26Z</time>
      </trkpt>
      <trkpt lat="45.24607" lon="6.08328">
        <ele>2159.74</ele>
        <time>2023-08-11T09:29:28Z</time>
      </trkpt>
      <trkpt lat="45.24615" lon="6.08332">
        <ele>2161.18</ele>
        <time>2023-08-11T09:29:43Z</time>
      </trkpt>
      <trkpt lat="45.24624" lon="6.08324">
        <ele>2161.66</ele>
        <time>2023-08-11T09:29:57Z</time>
      </trkpt>
      <trkpt lat="45.24632" lon="6.08317">
        <ele>2161.66</ele>
        <time>2023-08-11T09:30:11Z</time>
      </trkpt>
      <trkpt lat="45.24635" lon="6.08319">
        <ele>2160.22</ele>
        <time>2023-08-11T09:30:15Z</time>
      </trkpt>
      <trkpt lat="45.24644" lon="6.08321">
        <ele>2158.78</ele>
        <time>2023-08-11T09:30:32Z</time>
      </trkpt>
      <trkpt lat="45.24652" lon="6.08321">
        <ele>2160.22</ele>
        <time>2023-08-11T09:30:46Z</time>
      </trkpt>
      <trkpt lat="45.24663" lon="6.08319">
        <ele>2162.14</ele>
        <time>2023-08-11T09:31:04Z</time>
      </trkpt>
      <trkpt lat="45.2467" lon="6.08314">
        <ele>2162.14</ele>
        <time>2023-08-11T09:31:17Z</time>
      </trkpt>
      <trkpt lat="45.24675" lon="6.08312">
        <ele>2164.55</ele>
        <time>2023-08-11T09:31:34Z</time>
      </trkpt>
      <trkpt lat="45.24677" lon="6.08308">
        <ele>2165.99</ele>
        <time>2023-08-11T09:31:50Z</time>
      </trkpt>
      <trkpt lat="45.2468" lon="6.08307">
        <ele>2164.55</ele>
        <time>2023-08-11T09:32:17Z</time>
      </trkpt>
      <trkpt lat="45.24681" lon="6.08306">
        <ele>2164.55</ele>
        <time>2023-08-11T09:32:18Z</time>
      </trkpt>
      <trkpt lat="45.24688" lon="6.08304">
        <ele>2161.18</ele>
        <time>2023-08-11T09:32:31Z</time>
      </trkpt>
      <trkpt lat="45.24701" lon="6.08305">
        <ele>2158.78</ele>
        <time>2023-08-11T09:32:48Z</time>
      </trkpt>
      <trkpt lat="45.24708" lon="6.083">
        <ele>2157.82</ele>
        <time>2023-08-11T09:33:02Z</time>
      </trkpt>
      <trkpt lat="45.24715" lon="6.08291">
        <ele>2157.34</ele>
        <time>2023-08-11T09:33:15Z</time>
      </trkpt>
      <trkpt lat="45.24719" lon="6.08279">
        <ele>2155.89</ele>
        <time>2023-08-11T09:33:30Z</time>
      </trkpt>
      <trkpt lat="45.24725" lon="6.08272">
        <ele>2155.41</ele>
        <time>2023-08-11T09:33:40Z</time>
      </trkpt>
      <trkpt lat="45.24734" lon="6.0826">
        <ele>2154.45</ele>
        <time>2023-08-11T09:33:54Z</time>
      </trkpt>
      <trkpt lat="45.24743" lon="6.08247">
        <ele>2153.97</ele>
        <time>2023-08-11T09:34:10Z</time>
      </trkpt>
      <trkpt lat="45.24756" lon="6.08246">
        <ele>2153.97</ele>
        <time>2023-08-11T09:34:27Z</time>
      </trkpt>
      <trkpt lat="45.24764" lon="6.08239">
        <ele>2153.49</ele>
        <time>2023-08-11T09:34:41Z</time>
      </trkpt>
      <trkpt lat="45.2477" lon="6.08251">
        <ele>2153.49</ele>
        <time>2023-08-11T09:34:55Z</time>
      </trkpt>
      <trkpt lat="45.24772" lon="6.08268">
        <ele>2153.49</ele>
        <time>2023-08-11T09:35:10Z</time>
      </trkpt>
      <trkpt lat="45.24779" lon="6.08277">
        <ele>2152.53</ele>
        <time>2023-08-11T09:35:24Z</time>
      </trkpt>
      <trkpt lat="45.24788" lon="6.08283">
        <ele>2151.57</ele>
        <time>2023-08-11T09:35:38Z</time>
      </trkpt>
      <trkpt lat="45.24796" lon="6.08279">
        <ele>2151.09</ele>
        <time>2023-08-11T09:35:51Z</time>
      </trkpt>
      <trkpt lat="45.24801" lon="6.08262">
        <ele>2151.09</ele>
        <time>2023-08-11T09:36:06Z</time>
      </trkpt>
      <trkpt lat="45.24805" lon="6.08255">
        <ele>2150.13</ele>
        <time>2023-08-11T09:36:14Z</time>
      </trkpt>
      <trkpt lat="45.24812" lon="6.08243">
        <ele>2148.2</ele>
        <time>2023-08-11T09:36:28Z</time>
      </trkpt>
      <trkpt lat="45.24819" lon="6.08231">
        <ele>2146.28</ele>
        <time>2023-08-11T09:36:43Z</time>
      </trkpt>
      <trkpt lat="45.24828" lon="6.08222">
        <ele>2146.28</ele>
        <time>2023-08-11T09:36:57Z</time>
      </trkpt>
      <trkpt lat="45.2483" lon="6.0822">
        <ele>2146.28</ele>
        <time>2023-08-11T09:37:00Z</time>
      </trkpt>
      <trkpt lat="45.24838" lon="6.08223">
        <ele>2147.72</ele>
        <time>2023-08-11T09:37:13Z</time>
      </trkpt>
      <trkpt lat="45.24836" lon="6.08222">
        <ele>2147.72</ele>
        <time>2023-08-11T09:37:45Z</time>
      </trkpt>
      <trkpt lat="45.24842" lon="6.08222">
        <ele>2146.28</ele>
        <time>2023-08-11T09:38:06Z</time>
      </trkpt>
      <trkpt lat="45.24848" lon="6.08218">
        <ele>2145.32</ele>
        <time>2023-08-11T09:38:16Z</time>
      </trkpt>
      <trkpt lat="45.24859" lon="6.08221">
        <ele>2144.36</ele>
        <time>2023-08-11T09:38:33Z</time>
      </trkpt>
      <trkpt lat="45.24867" lon="6.08222">
        <ele>2141.95</ele>
        <time>2023-08-11T09:38:50Z</time>
      </trkpt>
      <trkpt lat="45.24864" lon="6.08215">
        <ele>2140.51</ele>
        <time>2023-08-11T09:39:06Z</time>
      </trkpt>
      <trkpt lat="45.24872" lon="6.08215">
        <ele>2138.11</ele>
        <time>2023-08-11T09:39:20Z</time>
      </trkpt>
      <trkpt lat="45.24882" lon="6.08215">
        <ele>2136.67</ele>
        <time>2023-08-11T09:39:37Z</time>
      </trkpt>
      <trkpt lat="45.24883" lon="6.08214">
        <ele>2136.67</ele>
        <time>2023-08-11T09:39:38Z</time>
      </trkpt>
      <trkpt lat="45.24889" lon="6.08207">
        <ele>2135.71</ele>
        <time>2023-08-11T09:39:52Z</time>
      </trkpt>
      <trkpt lat="45.24893" lon="6.08206">
        <ele>2136.67</ele>
        <time>2023-08-11T09:40:04Z</time>
      </trkpt>
      <trkpt lat="45.24898" lon="6.08208">
        <ele>2137.15</ele>
        <time>2023-08-11T09:40:18Z</time>
      </trkpt>
      <trkpt lat="45.24904" lon="6.08216">
        <ele>2137.63</ele>
        <time>2023-08-11T09:40:33Z</time>
      </trkpt>
      <trkpt lat="45.24912" lon="6.08224">
        <ele>2137.63</ele>
        <time>2023-08-11T09:40:45Z</time>
      </trkpt>
      <trkpt lat="45.24914" lon="6.08225">
        <ele>2137.63</ele>
        <time>2023-08-11T09:40:48Z</time>
      </trkpt>
      <trkpt lat="45.24926" lon="6.0823">
        <ele>2137.63</ele>
        <time>2023-08-11T09:41:03Z</time>
      </trkpt>
      <trkpt lat="45.24929" lon="6.08229">
        <ele>2136.19</ele>
        <time>2023-08-11T09:41:07Z</time>
      </trkpt>
      <trkpt lat="45.24939" lon="6.08226">
        <ele>2136.19</ele>
        <time>2023-08-11T09:41:20Z</time>
      </trkpt>
      <trkpt lat="45.24941" lon="6.08221">
        <ele>2136.19</ele>
        <time>2023-08-11T09:41:25Z</time>
      </trkpt>
      <trkpt lat="45.24943" lon="6.08201">
        <ele>2135.23</ele>
        <time>2023-08-11T09:41:42Z</time>
      </trkpt>
      <trkpt lat="45.24945" lon="6.082">
        <ele>2135.23</ele>
        <time>2023-08-11T09:41:44Z</time>
      </trkpt>
      <trkpt lat="45.24952" lon="6.08197">
        <ele>2135.23</ele>
        <time>2023-08-11T09:41:53Z</time>
      </trkpt>
      <trkpt lat="45.24967" lon="6.082">
        <ele>2135.23</ele>
        <time>2023-08-11T09:42:12Z</time>
      </trkpt>
      <trkpt lat="45.24976" lon="6.08212">
        <ele>2135.23</ele>
        <time>2023-08-11T09:42:26Z</time>
      </trkpt>
      <trkpt lat="45.2499" lon="6.08216">
        <ele>2135.23</ele>
        <time>2023-08-11T09:42:42Z</time>
      </trkpt>
      <trkpt lat="45.25003" lon="6.08213">
        <ele>2135.23</ele>
        <time>2023-08-11T09:42:57Z</time>
      </trkpt>
      <trkpt lat="45.25015" lon="6.08208">
        <ele>2135.23</ele>
        <time>2023-08-11T09:43:13Z</time>
      </trkpt>
      <trkpt lat="45.2502" lon="6.08196">
        <ele>2136.67</ele>
        <time>2023-08-11T09:43:28Z</time>
      </trkpt>
      <trkpt lat="45.25021" lon="6.08186">
        <ele>2136.67</ele>
        <time>2023-08-11T09:43:37Z</time>
      </trkpt>
      <trkpt lat="45.25024" lon="6.08172">
        <ele>2135.23</ele>
        <time>2023-08-11T09:43:52Z</time>
      </trkpt>
      <trkpt lat="45.25027" lon="6.08162">
        <ele>2135.23</ele>
        <time>2023-08-11T09:44:06Z</time>
      </trkpt>
      <trkpt lat="45.25029" lon="6.08153">
        <ele>2137.15</ele>
        <time>2023-08-11T09:44:21Z</time>
      </trkpt>
      <trkpt lat="45.2503" lon="6.08139">
        <ele>2137.63</ele>
        <time>2023-08-11T09:44:34Z</time>
      </trkpt>
      <trkpt lat="45.25032" lon="6.08127">
        <ele>2139.07</ele>
        <time>2023-08-11T09:44:50Z</time>
      </trkpt>
      <trkpt lat="45.25034" lon="6.08115">
        <ele>2139.55</ele>
        <time>2023-08-11T09:45:05Z</time>
      </trkpt>
      <trkpt lat="45.25045" lon="6.08103">
        <ele>2140.03</ele>
        <time>2023-08-11T09:45:21Z</time>
      </trkpt>
      <trkpt lat="45.25049" lon="6.08095">
        <ele>2140.03</ele>
        <time>2023-08-11T09:45:34Z</time>
      </trkpt>
      <trkpt lat="45.2505" lon="6.08094">
        <ele>2138.59</ele>
        <time>2023-08-11T09:45:36Z</time>
      </trkpt>
      <trkpt lat="45.25055" lon="6.08088">
        <ele>2137.15</ele>
        <time>2023-08-11T09:45:48Z</time>
      </trkpt>
      <trkpt lat="45.25059" lon="6.08076">
        <ele>2136.19</ele>
        <time>2023-08-11T09:46:03Z</time>
      </trkpt>
      <trkpt lat="45.25065" lon="6.08067">
        <ele>2136.19</ele>
        <time>2023-08-11T09:46:17Z</time>
      </trkpt>
      <trkpt lat="45.25071" lon="6.08059">
        <ele>2136.19</ele>
        <time>2023-08-11T09:46:32Z</time>
      </trkpt>
      <trkpt lat="45.2508" lon="6.08045">
        <ele>2136.19</ele>
        <time>2023-08-11T09:46:50Z</time>
      </trkpt>
      <trkpt lat="45.25087" lon="6.08036">
        <ele>2137.15</ele>
        <time>2023-08-11T09:47:07Z</time>
      </trkpt>
      <trkpt lat="45.25095" lon="6.08034">
        <ele>2139.55</ele>
        <time>2023-08-11T09:47:25Z</time>
      </trkpt>
      <trkpt lat="45.25097" lon="6.08032">
        <ele>2140.03</ele>
        <time>2023-08-11T09:47:32Z</time>
      </trkpt>
      <trkpt lat="45.25105" lon="6.0802">
        <ele>2140.51</ele>
        <time>2023-08-11T09:47:44Z</time>
      </trkpt>
      <trkpt lat="45.25116" lon="6.08007">
        <ele>2140.51</ele>
        <time>2023-08-11T09:48:00Z</time>
      </trkpt>
      <trkpt lat="45.25124" lon="6.08">
        <ele>2140.51</ele>
        <time>2023-08-11T09:48:13Z</time>
      </trkpt>
      <trkpt lat="45.25133" lon="6.07994">
        <ele>2139.07</ele>
        <time>2023-08-11T09:48:27Z</time>
      </trkpt>
      <trkpt lat="45.25146" lon="6.07989">
        <ele>2139.55</ele>
        <time>2023-08-11T09:48:44Z</time>
      </trkpt>
      <trkpt lat="45.25158" lon="6.07989">
        <ele>2139.07</ele>
        <time>2023-08-11T09:48:59Z</time>
      </trkpt>
      <trkpt lat="45.25165" lon="6.07991">
        <ele>2139.07</ele>
        <time>2023-08-11T09:49:08Z</time>
      </trkpt>
      <trkpt lat="45.25173" lon="6.07991">
        <ele>2137.63</ele>
        <time>2023-08-11T09:49:21Z</time>
      </trkpt>
      <trkpt lat="45.2518" lon="6.07989">
        <ele>2135.23</ele>
        <time>2023-08-11T09:49:35Z</time>
      </trkpt>
      <trkpt lat="45.25189" lon="6.0799">
        <ele>2134.26</ele>
        <time>2023-08-11T09:49:50Z</time>
      </trkpt>
      <trkpt lat="45.2519" lon="6.07994">
        <ele>2133.78</ele>
        <time>2023-08-11T09:50:08Z</time>
      </trkpt>
      <trkpt lat="45.25195" lon="6.07997">
        <ele>2133.78</ele>
        <time>2023-08-11T09:50:38Z</time>
      </trkpt>
      <trkpt lat="45.25197" lon="6.08002">
        <ele>2132.34</ele>
        <time>2023-08-11T09:50:51Z</time>
      </trkpt>
      <trkpt lat="45.25203" lon="6.08003">
        <ele>2132.34</ele>
        <time>2023-08-11T09:51:32Z</time>
      </trkpt>
      <trkpt lat="45.25208" lon="6.08003">
        <ele>2132.34</ele>
        <time>2023-08-11T09:52:02Z</time>
      </trkpt>
      <trkpt lat="45.25213" lon="6.08004">
        <ele>2132.34</ele>
        <time>2023-08-11T09:52:18Z</time>
      </trkpt>
      <trkpt lat="45.25222" lon="6.08005">
        <ele>2132.34</ele>
        <time>2023-08-11T09:52:34Z</time>
      </trkpt>
      <trkpt lat="45.25227" lon="6.08016">
        <ele>2132.34</ele>
        <time>2023-08-11T09:52:49Z</time>
      </trkpt>
      <trkpt lat="45.25228" lon="6.08013">
        <ele>2131.38</ele>
        <time>2023-08-11T09:53:05Z</time>
      </trkpt>
      <trkpt lat="45.25231" lon="6.08016">
        <ele>2131.38</ele>
        <time>2023-08-11T09:53:24Z</time>
      </trkpt>
      <trkpt lat="45.25235" lon="6.08016">
        <ele>2131.38</ele>
        <time>2023-08-11T09:53:28Z</time>
      </trkpt>
      <trkpt lat="45.25238" lon="6.08023">
        <ele>2132.82</ele>
        <time>2023-08-11T09:56:29Z</time>
      </trkpt>
      <trkpt lat="45.25238" lon="6.08019">
        <ele>2130.9</ele>
        <time>2023-08-11T09:56:33Z</time>
      </trkpt>
      <trkpt lat="45.25237" lon="6.08002">
        <ele>2128.98</ele>
        <time>2023-08-11T09:56:49Z</time>
      </trkpt>
      <trkpt lat="45.25234" lon="6.07988">
        <ele>2126.57</ele>
        <time>2023-08-11T09:57:05Z</time>
      </trkpt>
      <trkpt lat="45.25235" lon="6.07976">
        <ele>2123.69</ele>
        <time>2023-08-11T09:57:21Z</time>
      </trkpt>
      <trkpt lat="45.25239" lon="6.07979">
        <ele>2120.81</ele>
        <time>2023-08-11T09:57:36Z</time>
      </trkpt>
      <trkpt lat="45.25247" lon="6.07987">
        <ele>2117.92</ele>
        <time>2023-08-11T09:57:53Z</time>
      </trkpt>
      <trkpt lat="45.25257" lon="6.07995">
        <ele>2116</ele>
        <time>2023-08-11T09:58:09Z</time>
      </trkpt>
      <trkpt lat="45.25262" lon="6.08">
        <ele>2116</ele>
        <time>2023-08-11T09:58:24Z</time>
      </trkpt>
      <trkpt lat="45.25271" lon="6.08015">
        <ele>2115.04</ele>
        <time>2023-08-11T09:58:41Z</time>
      </trkpt>
      <trkpt lat="45.25282" lon="6.08023">
        <ele>2115.04</ele>
        <time>2023-08-11T09:58:56Z</time>
      </trkpt>
      <trkpt lat="45.25298" lon="6.08014">
        <ele>2114.56</ele>
        <time>2023-08-11T09:59:11Z</time>
      </trkpt>
      <trkpt lat="45.25311" lon="6.08009">
        <ele>2114.08</ele>
        <time>2023-08-11T09:59:27Z</time>
      </trkpt>
      <trkpt lat="45.25319" lon="6.08002">
        <ele>2112.63</ele>
        <time>2023-08-11T09:59:46Z</time>
      </trkpt>
      <trkpt lat="45.25324" lon="6.07994">
        <ele>2111.67</ele>
        <time>2023-08-11T10:00:04Z</time>
      </trkpt>
      <trkpt lat="45.25331" lon="6.07984">
        <ele>2110.71</ele>
        <time>2023-08-11T10:00:18Z</time>
      </trkpt>
      <trkpt lat="45.25336" lon="6.07969">
        <ele>2110.23</ele>
        <time>2023-08-11T10:00:36Z</time>
      </trkpt>
      <trkpt lat="45.25342" lon="6.07951">
        <ele>2109.75</ele>
        <time>2023-08-11T10:00:51Z</time>
      </trkpt>
      <trkpt lat="45.25347" lon="6.07929">
        <ele>2109.75</ele>
        <time>2023-08-11T10:01:09Z</time>
      </trkpt>
      <trkpt lat="45.25354" lon="6.0791">
        <ele>2109.75</ele>
        <time>2023-08-11T10:01:28Z</time>
      </trkpt>
      <trkpt lat="45.25359" lon="6.07895">
        <ele>2109.27</ele>
        <time>2023-08-11T10:01:43Z</time>
      </trkpt>
      <trkpt lat="45.25359" lon="6.07889">
        <ele>2110.71</ele>
        <time>2023-08-11T10:01:51Z</time>
      </trkpt>
      <trkpt lat="45.25361" lon="6.07876">
        <ele>2113.12</ele>
        <time>2023-08-11T10:02:12Z</time>
      </trkpt>
      <trkpt lat="45.25368" lon="6.07866">
        <ele>2114.08</ele>
        <time>2023-08-11T10:02:28Z</time>
      </trkpt>
      <trkpt lat="45.25368" lon="6.07848">
        <ele>2115.04</ele>
        <time>2023-08-11T10:02:47Z</time>
      </trkpt>
      <trkpt lat="45.25366" lon="6.07831">
        <ele>2115.52</ele>
        <time>2023-08-11T10:03:06Z</time>
      </trkpt>
      <trkpt lat="45.25363" lon="6.07814">
        <ele>2114.08</ele>
        <time>2023-08-11T10:03:21Z</time>
      </trkpt>
      <trkpt lat="45.25372" lon="6.07795">
        <ele>2113.12</ele>
        <time>2023-08-11T10:03:40Z</time>
      </trkpt>
      <trkpt lat="45.25381" lon="6.07779">
        <ele>2113.12</ele>
        <time>2023-08-11T10:03:59Z</time>
      </trkpt>
      <trkpt lat="45.25387" lon="6.07768">
        <ele>2111.19</ele>
        <time>2023-08-11T10:04:15Z</time>
      </trkpt>
      <trkpt lat="45.25395" lon="6.07768">
        <ele>2109.75</ele>
        <time>2023-08-11T10:04:30Z</time>
      </trkpt>
      <trkpt lat="45.25406" lon="6.07762">
        <ele>2110.23</ele>
        <time>2023-08-11T10:04:47Z</time>
      </trkpt>
      <trkpt lat="45.25413" lon="6.07763">
        <ele>2108.79</ele>
        <time>2023-08-11T10:04:59Z</time>
      </trkpt>
      <trkpt lat="45.25426" lon="6.07764">
        <ele>2108.31</ele>
        <time>2023-08-11T10:05:18Z</time>
      </trkpt>
      <trkpt lat="45.25439" lon="6.07761">
        <ele>2107.35</ele>
        <time>2023-08-11T10:05:34Z</time>
      </trkpt>
      <trkpt lat="45.25449" lon="6.07761">
        <ele>2104.94</ele>
        <time>2023-08-11T10:05:51Z</time>
      </trkpt>
      <trkpt lat="45.25459" lon="6.07761">
        <ele>2102.54</ele>
        <time>2023-08-11T10:06:07Z</time>
      </trkpt>
      <trkpt lat="45.25463" lon="6.07762">
        <ele>2103.02</ele>
        <time>2023-08-11T10:06:14Z</time>
      </trkpt>
      <trkpt lat="45.25467" lon="6.07761">
        <ele>2101.58</ele>
        <time>2023-08-11T10:06:22Z</time>
      </trkpt>
      <trkpt lat="45.25477" lon="6.07756">
        <ele>2099.66</ele>
        <time>2023-08-11T10:06:39Z</time>
      </trkpt>
      <trkpt lat="45.25482" lon="6.07748">
        <ele>2096.77</ele>
        <time>2023-08-11T10:06:56Z</time>
      </trkpt>
      <trkpt lat="45.25488" lon="6.07743">
        <ele>2095.81</ele>
        <time>2023-08-11T10:07:11Z</time>
      </trkpt>
      <trkpt lat="45.25499" lon="6.07747">
        <ele>2095.33</ele>
        <time>2023-08-11T10:07:32Z</time>
      </trkpt>
      <trkpt lat="45.25506" lon="6.07747">
        <ele>2094.85</ele>
        <time>2023-08-11T10:07:54Z</time>
      </trkpt>
      <trkpt lat="45.25511" lon="6.07734">
        <ele>2094.37</ele>
        <time>2023-08-11T10:08:10Z</time>
      </trkpt>
      <trkpt lat="45.25516" lon="6.07716">
        <ele>2094.37</ele>
        <time>2023-08-11T10:08:27Z</time>
      </trkpt>
      <trkpt lat="45.2552" lon="6.07696">
        <ele>2093.89</ele>
        <time>2023-08-11T10:08:44Z</time>
      </trkpt>
      <trkpt lat="45.25521" lon="6.07681">
        <ele>2092.45</ele>
        <time>2023-08-11T10:08:59Z</time>
      </trkpt>
      <trkpt lat="45.25518" lon="6.07662">
        <ele>2091</ele>
        <time>2023-08-11T10:09:18Z</time>
      </trkpt>
      <trkpt lat="45.25518" lon="6.07655">
        <ele>2090.04</ele>
        <time>2023-08-11T10:09:38Z</time>
      </trkpt>
      <trkpt lat="45.25524" lon="6.07643">
        <ele>2090.04</ele>
        <time>2023-08-11T10:09:59Z</time>
      </trkpt>
      <trkpt lat="45.25534" lon="6.07643">
        <ele>2090.04</ele>
        <time>2023-08-11T10:10:15Z</time>
      </trkpt>
      <trkpt lat="45.25544" lon="6.07655">
        <ele>2089.56</ele>
        <time>2023-08-11T10:10:32Z</time>
      </trkpt>
      <trkpt lat="45.25554" lon="6.07651">
        <ele>2088.6</ele>
        <time>2023-08-11T10:10:48Z</time>
      </trkpt>
      <trkpt lat="45.25561" lon="6.07654">
        <ele>2086.2</ele>
        <time>2023-08-11T10:11:04Z</time>
      </trkpt>
      <trkpt lat="45.25566" lon="6.07655">
        <ele>2083.79</ele>
        <time>2023-08-11T10:11:19Z</time>
      </trkpt>
      <trkpt lat="45.25574" lon="6.07653">
        <ele>2081.39</ele>
        <time>2023-08-11T10:11:35Z</time>
      </trkpt>
      <trkpt lat="45.25585" lon="6.07649">
        <ele>2078.51</ele>
        <time>2023-08-11T10:11:53Z</time>
      </trkpt>
      <trkpt lat="45.25589" lon="6.07643">
        <ele>2076.1</ele>
        <time>2023-08-11T10:12:10Z</time>
      </trkpt>
      <trkpt lat="45.25596" lon="6.07648">
        <ele>2073.7</ele>
        <time>2023-08-11T10:12:25Z</time>
      </trkpt>
      <trkpt lat="45.25597" lon="6.07627">
        <ele>2070.82</ele>
        <time>2023-08-11T10:12:43Z</time>
      </trkpt>
      <trkpt lat="45.25604" lon="6.0762">
        <ele>2067.45</ele>
        <time>2023-08-11T10:13:03Z</time>
      </trkpt>
      <trkpt lat="45.25609" lon="6.07608">
        <ele>2065.53</ele>
        <time>2023-08-11T10:13:19Z</time>
      </trkpt>
      <trkpt lat="45.25609" lon="6.07598">
        <ele>2063.13</ele>
        <time>2023-08-11T10:13:36Z</time>
      </trkpt>
      <trkpt lat="45.25613" lon="6.07592">
        <ele>2059.76</ele>
        <time>2023-08-11T10:13:55Z</time>
      </trkpt>
      <trkpt lat="45.25614" lon="6.07593">
        <ele>2057.36</ele>
        <time>2023-08-11T10:14:12Z</time>
      </trkpt>
      <trkpt lat="45.25621" lon="6.076">
        <ele>2054.96</ele>
        <time>2023-08-11T10:14:26Z</time>
      </trkpt>
      <trkpt lat="45.25625" lon="6.07608">
        <ele>2053.03</ele>
        <time>2023-08-11T10:14:40Z</time>
      </trkpt>
      <trkpt lat="45.25629" lon="6.07596">
        <ele>2050.15</ele>
        <time>2023-08-11T10:14:55Z</time>
      </trkpt>
      <trkpt lat="45.25631" lon="6.0759">
        <ele>2047.75</ele>
        <time>2023-08-11T10:15:11Z</time>
      </trkpt>
      <trkpt lat="45.25637" lon="6.076">
        <ele>2044.86</ele>
        <time>2023-08-11T10:15:26Z</time>
      </trkpt>
      <trkpt lat="45.25643" lon="6.07609">
        <ele>2041.5</ele>
        <time>2023-08-11T10:15:44Z</time>
      </trkpt>
      <trkpt lat="45.25646" lon="6.07592">
        <ele>2039.09</ele>
        <time>2023-08-11T10:16:03Z</time>
      </trkpt>
      <trkpt lat="45.25649" lon="6.07575">
        <ele>2036.21</ele>
        <time>2023-08-11T10:16:24Z</time>
      </trkpt>
      <trkpt lat="45.25652" lon="6.07568">
        <ele>2033.81</ele>
        <time>2023-08-11T10:16:38Z</time>
      </trkpt>
      <trkpt lat="45.25657" lon="6.07574">
        <ele>2031.88</ele>
        <time>2023-08-11T10:16:54Z</time>
      </trkpt>
      <trkpt lat="45.25663" lon="6.07588">
        <ele>2029</ele>
        <time>2023-08-11T10:17:11Z</time>
      </trkpt>
      <trkpt lat="45.25665" lon="6.07594">
        <ele>2026.6</ele>
        <time>2023-08-11T10:17:20Z</time>
      </trkpt>
      <trkpt lat="45.25668" lon="6.07601">
        <ele>2025.64</ele>
        <time>2023-08-11T10:17:29Z</time>
      </trkpt>
      <trkpt lat="45.2567" lon="6.07615">
        <ele>2024.19</ele>
        <time>2023-08-11T10:17:45Z</time>
      </trkpt>
      <trkpt lat="45.25674" lon="6.07611">
        <ele>2020.83</ele>
        <time>2023-08-11T10:18:03Z</time>
      </trkpt>
      <trkpt lat="45.25677" lon="6.07595">
        <ele>2017.94</ele>
        <time>2023-08-11T10:18:21Z</time>
      </trkpt>
      <trkpt lat="45.25677" lon="6.07579">
        <ele>2015.54</ele>
        <time>2023-08-11T10:18:39Z</time>
      </trkpt>
      <trkpt lat="45.25684" lon="6.07593">
        <ele>2014.1</ele>
        <time>2023-08-11T10:18:55Z</time>
      </trkpt>
      <trkpt lat="45.25691" lon="6.07603">
        <ele>2011.22</ele>
        <time>2023-08-11T10:19:12Z</time>
      </trkpt>
      <trkpt lat="45.25698" lon="6.07614">
        <ele>2008.81</ele>
        <time>2023-08-11T10:19:32Z</time>
      </trkpt>
      <trkpt lat="45.257" lon="6.07619">
        <ele>2006.41</ele>
        <time>2023-08-11T10:19:49Z</time>
      </trkpt>
      <trkpt lat="45.25706" lon="6.07629">
        <ele>2004.01</ele>
        <time>2023-08-11T10:20:04Z</time>
      </trkpt>
      <trkpt lat="45.25705" lon="6.07622">
        <ele>2002.56</ele>
        <time>2023-08-11T10:20:21Z</time>
      </trkpt>
      <trkpt lat="45.25704" lon="6.07612">
        <ele>2001.12</ele>
        <time>2023-08-11T10:20:43Z</time>
      </trkpt>
      <trkpt lat="45.25708" lon="6.07614">
        <ele>1998.24</ele>
        <time>2023-08-11T10:21:01Z</time>
      </trkpt>
      <trkpt lat="45.2571" lon="6.07612">
        <ele>1996.32</ele>
        <time>2023-08-11T10:21:17Z</time>
      </trkpt>
      <trkpt lat="45.25711" lon="6.0761">
        <ele>1993.43</ele>
        <time>2023-08-11T10:21:37Z</time>
      </trkpt>
      <trkpt lat="45.25713" lon="6.07607">
        <ele>1991.03</ele>
        <time>2023-08-11T10:21:56Z</time>
      </trkpt>
      <trkpt lat="45.25715" lon="6.07591">
        <ele>1989.59</ele>
        <time>2023-08-11T10:22:18Z</time>
      </trkpt>
      <trkpt lat="45.25713" lon="6.07585">
        <ele>1987.18</ele>
        <time>2023-08-11T10:22:40Z</time>
      </trkpt>
      <trkpt lat="45.25716" lon="6.07578">
        <ele>1984.78</ele>
        <time>2023-08-11T10:23:01Z</time>
      </trkpt>
      <trkpt lat="45.25719" lon="6.07582">
        <ele>1982.86</ele>
        <time>2023-08-11T10:23:26Z</time>
      </trkpt>
      <trkpt lat="45.25721" lon="6.07576">
        <ele>1980.93</ele>
        <time>2023-08-11T10:23:45Z</time>
      </trkpt>
      <trkpt lat="45.25723" lon="6.07584">
        <ele>1978.53</ele>
        <time>2023-08-11T10:24:01Z</time>
      </trkpt>
      <trkpt lat="45.25733" lon="6.07586">
        <ele>1976.13</ele>
        <time>2023-08-11T10:24:19Z</time>
      </trkpt>
      <trkpt lat="45.25733" lon="6.07576">
        <ele>1974.69</ele>
        <time>2023-08-11T10:24:34Z</time>
      </trkpt>
      <trkpt lat="45.25727" lon="6.07565">
        <ele>1971.8</ele>
        <time>2023-08-11T10:24:49Z</time>
      </trkpt>
      <trkpt lat="45.25731" lon="6.07562">
        <ele>1969.88</ele>
        <time>2023-08-11T10:25:05Z</time>
      </trkpt>
      <trkpt lat="45.25737" lon="6.07569">
        <ele>1967.96</ele>
        <time>2023-08-11T10:25:20Z</time>
      </trkpt>
      <trkpt lat="45.25739" lon="6.07567">
        <ele>1965.55</ele>
        <time>2023-08-11T10:25:39Z</time>
      </trkpt>
      <trkpt lat="45.25739" lon="6.07557">
        <ele>1964.11</ele>
        <time>2023-08-11T10:25:57Z</time>
      </trkpt>
      <trkpt lat="45.25738" lon="6.07549">
        <ele>1962.19</ele>
        <time>2023-08-11T10:26:15Z</time>
      </trkpt>
      <trkpt lat="45.25737" lon="6.07545">
        <ele>1960.75</ele>
        <time>2023-08-11T10:26:20Z</time>
      </trkpt>
      <trkpt lat="45.25741" lon="6.07551">
        <ele>1960.27</ele>
        <time>2023-08-11T10:26:37Z</time>
      </trkpt>
      <trkpt lat="45.25742" lon="6.07551">
        <ele>1957.86</ele>
        <time>2023-08-11T10:26:50Z</time>
      </trkpt>
      <trkpt lat="45.25746" lon="6.07546">
        <ele>1956.9</ele>
        <time>2023-08-11T10:27:08Z</time>
      </trkpt>
      <trkpt lat="45.25744" lon="6.07539">
        <ele>1954.5</ele>
        <time>2023-08-11T10:27:25Z</time>
      </trkpt>
      <trkpt lat="45.25747" lon="6.07536">
        <ele>1953.06</ele>
        <time>2023-08-11T10:27:40Z</time>
      </trkpt>
      <trkpt lat="45.25748" lon="6.07543">
        <ele>1950.65</ele>
        <time>2023-08-11T10:27:56Z</time>
      </trkpt>
      <trkpt lat="45.25755" lon="6.0755">
        <ele>1948.73</ele>
        <time>2023-08-11T10:28:11Z</time>
      </trkpt>
      <trkpt lat="45.2576" lon="6.07549">
        <ele>1946.81</ele>
        <time>2023-08-11T10:28:30Z</time>
      </trkpt>
      <trkpt lat="45.25764" lon="6.07549">
        <ele>1944.88</ele>
        <time>2023-08-11T10:28:50Z</time>
      </trkpt>
      <trkpt lat="45.25765" lon="6.07536">
        <ele>1942.96</ele>
        <time>2023-08-11T10:29:07Z</time>
      </trkpt>
      <trkpt lat="45.25764" lon="6.07529">
        <ele>1941.04</ele>
        <time>2023-08-11T10:29:27Z</time>
      </trkpt>
      <trkpt lat="45.25767" lon="6.07525">
        <ele>1939.12</ele>
        <time>2023-08-11T10:29:37Z</time>
      </trkpt>
      <trkpt lat="45.25767" lon="6.07523">
        <ele>1937.19</ele>
        <time>2023-08-11T10:29:53Z</time>
      </trkpt>
      <trkpt lat="45.25774" lon="6.07525">
        <ele>1933.83</ele>
        <time>2023-08-11T10:30:09Z</time>
      </trkpt>
      <trkpt lat="45.25776" lon="6.07529">
        <ele>1930.95</ele>
        <time>2023-08-11T10:30:28Z</time>
      </trkpt>
      <trkpt lat="45.25778" lon="6.07531">
        <ele>1928.06</ele>
        <time>2023-08-11T10:30:41Z</time>
      </trkpt>
      <trkpt lat="45.25779" lon="6.07534">
        <ele>1928.06</ele>
        <time>2023-08-11T10:30:59Z</time>
      </trkpt>
      <trkpt lat="45.25779" lon="6.07532">
        <ele>1926.62</ele>
        <time>2023-08-11T10:31:03Z</time>
      </trkpt>
      <trkpt lat="45.25782" lon="6.07522">
        <ele>1924.7</ele>
        <time>2023-08-11T10:31:17Z</time>
      </trkpt>
      <trkpt lat="45.25786" lon="6.07516">
        <ele>1921.81</ele>
        <time>2023-08-11T10:31:33Z</time>
      </trkpt>
      <trkpt lat="45.25789" lon="6.07526">
        <ele>1919.89</ele>
        <time>2023-08-11T10:31:48Z</time>
      </trkpt>
      <trkpt lat="45.25788" lon="6.0753">
        <ele>1918.45</ele>
        <time>2023-08-11T10:32:03Z</time>
      </trkpt>
      <trkpt lat="45.2579" lon="6.07533">
        <ele>1917.49</ele>
        <time>2023-08-11T10:33:02Z</time>
      </trkpt>
      <trkpt lat="45.25794" lon="6.07536">
        <ele>1915.08</ele>
        <time>2023-08-11T10:33:16Z</time>
      </trkpt>
      <trkpt lat="45.25798" lon="6.0753">
        <ele>1912.2</ele>
        <time>2023-08-11T10:33:27Z</time>
      </trkpt>
      <trkpt lat="45.25804" lon="6.07523">
        <ele>1910.28</ele>
        <time>2023-08-11T10:33:39Z</time>
      </trkpt>
      <trkpt lat="45.25805" lon="6.07511">
        <ele>1907.87</ele>
        <time>2023-08-11T10:33:53Z</time>
      </trkpt>
      <trkpt lat="45.25808" lon="6.07504">
        <ele>1904.99</ele>
        <time>2023-08-11T10:34:06Z</time>
      </trkpt>
      <trkpt lat="45.25807" lon="6.07496">
        <ele>1903.07</ele>
        <time>2023-08-11T10:34:19Z</time>
      </trkpt>
      <trkpt lat="45.25814" lon="6.07499">
        <ele>1900.66</ele>
        <time>2023-08-11T10:34:33Z</time>
      </trkpt>
      <trkpt lat="45.25819" lon="6.07504">
        <ele>1898.26</ele>
        <time>2023-08-11T10:34:49Z</time>
      </trkpt>
      <trkpt lat="45.25822" lon="6.07515">
        <ele>1896.34</ele>
        <time>2023-08-11T10:35:03Z</time>
      </trkpt>
      <trkpt lat="45.25826" lon="6.07517">
        <ele>1892.97</ele>
        <time>2023-08-11T10:35:18Z</time>
      </trkpt>
      <trkpt lat="45.25829" lon="6.07508">
        <ele>1890.09</ele>
        <time>2023-08-11T10:35:36Z</time>
      </trkpt>
      <trkpt lat="45.2583" lon="6.07503">
        <ele>1886.72</ele>
        <time>2023-08-11T10:35:48Z</time>
      </trkpt>
      <trkpt lat="45.25831" lon="6.07501">
        <ele>1886.72</ele>
        <time>2023-08-11T10:35:50Z</time>
      </trkpt>
      <trkpt lat="45.2583" lon="6.07489">
        <ele>1886.24</ele>
        <time>2023-08-11T10:36:03Z</time>
      </trkpt>
      <trkpt lat="45.25832" lon="6.07479">
        <ele>1884.32</ele>
        <time>2023-08-11T10:36:14Z</time>
      </trkpt>
      <trkpt lat="45.25835" lon="6.07469">
        <ele>1881.44</ele>
        <time>2023-08-11T10:36:29Z</time>
      </trkpt>
      <trkpt lat="45.25836" lon="6.07454">
        <ele>1878.55</ele>
        <time>2023-08-11T10:36:45Z</time>
      </trkpt>
      <trkpt lat="45.25837" lon="6.07443">
        <ele>1877.59</ele>
        <time>2023-08-11T10:36:57Z</time>
      </trkpt>
      <trkpt lat="45.25843" lon="6.07431">
        <ele>1877.11</ele>
        <time>2023-08-11T10:37:13Z</time>
      </trkpt>
      <trkpt lat="45.25849" lon="6.07424">
        <ele>1876.15</ele>
        <time>2023-08-11T10:37:27Z</time>
      </trkpt>
      <trkpt lat="45.25856" lon="6.07417">
        <ele>1874.23</ele>
        <time>2023-08-11T10:37:42Z</time>
      </trkpt>
      <trkpt lat="45.25862" lon="6.07414">
        <ele>1872.3</ele>
        <time>2023-08-11T10:37:58Z</time>
      </trkpt>
      <trkpt lat="45.25866" lon="6.07421">
        <ele>1869.9</ele>
        <time>2023-08-11T10:38:15Z</time>
      </trkpt>
      <trkpt lat="45.25871" lon="6.07419">
        <ele>1866.54</ele>
        <time>2023-08-11T10:38:25Z</time>
      </trkpt>
      <trkpt lat="45.25874" lon="6.07415">
        <ele>1866.54</ele>
        <time>2023-08-11T10:38:31Z</time>
      </trkpt>
      <trkpt lat="45.25878" lon="6.07405">
        <ele>1865.58</ele>
        <time>2023-08-11T10:38:40Z</time>
      </trkpt>
      <trkpt lat="45.25885" lon="6.07393">
        <ele>1865.58</ele>
        <time>2023-08-11T10:38:54Z</time>
      </trkpt>
      <trkpt lat="45.25885" lon="6.07389">
        <ele>1867.02</ele>
        <time>2023-08-11T10:38:59Z</time>
      </trkpt>
      <trkpt lat="45.25892" lon="6.07376">
        <ele>1864.13</ele>
        <time>2023-08-11T10:39:15Z</time>
      </trkpt>
      <trkpt lat="45.25896" lon="6.07369">
        <ele>1860.77</ele>
        <time>2023-08-11T10:39:28Z</time>
      </trkpt>
      <trkpt lat="45.25901" lon="6.07368">
        <ele>1860.29</ele>
        <time>2023-08-11T10:39:35Z</time>
      </trkpt>
      <trkpt lat="45.25907" lon="6.07361">
        <ele>1858.37</ele>
        <time>2023-08-11T10:39:49Z</time>
      </trkpt>
      <trkpt lat="45.25913" lon="6.07352">
        <ele>1855.96</ele>
        <time>2023-08-11T10:40:02Z</time>
      </trkpt>
      <trkpt lat="45.25919" lon="6.0734">
        <ele>1855.48</ele>
        <time>2023-08-11T10:40:15Z</time>
      </trkpt>
      <trkpt lat="45.2592" lon="6.07338">
        <ele>1855.48</ele>
        <time>2023-08-11T10:40:18Z</time>
      </trkpt>
      <trkpt lat="45.25921" lon="6.07325">
        <ele>1855</ele>
        <time>2023-08-11T10:40:33Z</time>
      </trkpt>
      <trkpt lat="45.25927" lon="6.07313">
        <ele>1853.08</ele>
        <time>2023-08-11T10:40:47Z</time>
      </trkpt>
      <trkpt lat="45.25932" lon="6.07307">
        <ele>1851.64</ele>
        <time>2023-08-11T10:41:03Z</time>
      </trkpt>
      <trkpt lat="45.25934" lon="6.07305">
        <ele>1850.68</ele>
        <time>2023-08-11T10:41:09Z</time>
      </trkpt>
      <trkpt lat="45.25935" lon="6.07291">
        <ele>1849.71</ele>
        <time>2023-08-11T10:41:25Z</time>
      </trkpt>
      <trkpt lat="45.2594" lon="6.07282">
        <ele>1847.79</ele>
        <time>2023-08-11T10:41:40Z</time>
      </trkpt>
      <trkpt lat="45.25941" lon="6.07271">
        <ele>1846.35</ele>
        <time>2023-08-11T10:41:55Z</time>
      </trkpt>
      <trkpt lat="45.25942" lon="6.0726">
        <ele>1844.43</ele>
        <time>2023-08-11T10:42:11Z</time>
      </trkpt>
      <trkpt lat="45.25946" lon="6.07251">
        <ele>1841.54</ele>
        <time>2023-08-11T10:42:26Z</time>
      </trkpt>
      <trkpt lat="45.2595" lon="6.07239">
        <ele>1840.58</ele>
        <time>2023-08-11T10:42:41Z</time>
      </trkpt>
      <trkpt lat="45.25955" lon="6.07231">
        <ele>1838.66</ele>
        <time>2023-08-11T10:42:55Z</time>
      </trkpt>
      <trkpt lat="45.25958" lon="6.07224">
        <ele>1836.74</ele>
        <time>2023-08-11T10:43:08Z</time>
      </trkpt>
      <trkpt lat="45.25957" lon="6.0722">
        <ele>1835.77</ele>
        <time>2023-08-11T10:43:23Z</time>
      </trkpt>
      <trkpt lat="45.2596" lon="6.07221">
        <ele>1832.89</ele>
        <time>2023-08-11T10:43:35Z</time>
      </trkpt>
      <trkpt lat="45.2597" lon="6.07213">
        <ele>1830.97</ele>
        <time>2023-08-11T10:43:50Z</time>
      </trkpt>
      <trkpt lat="45.25975" lon="6.072">
        <ele>1829.05</ele>
        <time>2023-08-11T10:44:08Z</time>
      </trkpt>
      <trkpt lat="45.25975" lon="6.07199">
        <ele>1829.05</ele>
        <time>2023-08-11T10:44:09Z</time>
      </trkpt>
      <trkpt lat="45.25979" lon="6.07193">
        <ele>1827.12</ele>
        <time>2023-08-11T10:44:23Z</time>
      </trkpt>
      <trkpt lat="45.25988" lon="6.07186">
        <ele>1824.24</ele>
        <time>2023-08-11T10:44:38Z</time>
      </trkpt>
      <trkpt lat="45.25992" lon="6.0718">
        <ele>1821.84</ele>
        <time>2023-08-11T10:44:52Z</time>
      </trkpt>
      <trkpt lat="45.25997" lon="6.07179">
        <ele>1818.95</ele>
        <time>2023-08-11T10:45:07Z</time>
      </trkpt>
      <trkpt lat="45.26001" lon="6.07166">
        <ele>1816.55</ele>
        <time>2023-08-11T10:45:21Z</time>
      </trkpt>
      <trkpt lat="45.26009" lon="6.07162">
        <ele>1814.15</ele>
        <time>2023-08-11T10:45:36Z</time>
      </trkpt>
      <trkpt lat="45.26014" lon="6.07154">
        <ele>1812.22</ele>
        <time>2023-08-11T10:45:51Z</time>
      </trkpt>
      <trkpt lat="45.26014" lon="6.07163">
        <ele>1809.34</ele>
        <time>2023-08-11T10:46:06Z</time>
      </trkpt>
      <trkpt lat="45.26018" lon="6.07166">
        <ele>1806.45</ele>
        <time>2023-08-11T10:46:21Z</time>
      </trkpt>
      <trkpt lat="45.26023" lon="6.07161">
        <ele>1804.53</ele>
        <time>2023-08-11T10:46:38Z</time>
      </trkpt>
      <trkpt lat="45.26032" lon="6.07148">
        <ele>1800.69</ele>
        <time>2023-08-11T10:46:53Z</time>
      </trkpt>
      <trkpt lat="45.26033" lon="6.07147">
        <ele>1800.69</ele>
        <time>2023-08-11T10:46:54Z</time>
      </trkpt>
      <trkpt lat="45.26031" lon="6.07137">
        <ele>1798.28</ele>
        <time>2023-08-11T10:47:09Z</time>
      </trkpt>
      <trkpt lat="45.26038" lon="6.07127">
        <ele>1794.92</ele>
        <time>2023-08-11T10:47:26Z</time>
      </trkpt>
      <trkpt lat="45.26046" lon="6.07123">
        <ele>1793</ele>
        <time>2023-08-11T10:47:43Z</time>
      </trkpt>
      <trkpt lat="45.2605" lon="6.07115">
        <ele>1790.59</ele>
        <time>2023-08-11T10:47:59Z</time>
      </trkpt>
      <trkpt lat="45.26055" lon="6.07109">
        <ele>1787.71</ele>
        <time>2023-08-11T10:48:12Z</time>
      </trkpt>
      <trkpt lat="45.26058" lon="6.07102">
        <ele>1785.31</ele>
        <time>2023-08-11T10:48:24Z</time>
      </trkpt>
      <trkpt lat="45.26062" lon="6.07099">
        <ele>1783.86</ele>
        <time>2023-08-11T10:48:32Z</time>
      </trkpt>
      <trkpt lat="45.2607" lon="6.07088">
        <ele>1782.42</ele>
        <time>2023-08-11T10:48:46Z</time>
      </trkpt>
      <trkpt lat="45.26074" lon="6.07074">
        <ele>1780.5</ele>
        <time>2023-08-11T10:49:00Z</time>
      </trkpt>
      <trkpt lat="45.26079" lon="6.07065">
        <ele>1778.58</ele>
        <time>2023-08-11T10:49:12Z</time>
      </trkpt>
      <trkpt lat="45.2608" lon="6.07051">
        <ele>1777.13</ele>
        <time>2023-08-11T10:49:29Z</time>
      </trkpt>
      <trkpt lat="45.26085" lon="6.07041">
        <ele>1775.21</ele>
        <time>2023-08-11T10:49:46Z</time>
      </trkpt>
      <trkpt lat="45.2609" lon="6.07033">
        <ele>1772.81</ele>
        <time>2023-08-11T10:50:02Z</time>
      </trkpt>
      <trkpt lat="45.26096" lon="6.07027">
        <ele>1769.44</ele>
        <time>2023-08-11T10:50:18Z</time>
      </trkpt>
      <trkpt lat="45.26099" lon="6.07027">
        <ele>1767.04</ele>
        <time>2023-08-11T10:50:36Z</time>
      </trkpt>
      <trkpt lat="45.26104" lon="6.07023">
        <ele>1764.64</ele>
        <time>2023-08-11T10:50:52Z</time>
      </trkpt>
      <trkpt lat="45.26109" lon="6.07014">
        <ele>1762.23</ele>
        <time>2023-08-11T10:51:08Z</time>
      </trkpt>
      <trkpt lat="45.26113" lon="6.06998">
        <ele>1763.2</ele>
        <time>2023-08-11T10:51:25Z</time>
      </trkpt>
      <trkpt lat="45.26117" lon="6.06987">
        <ele>1763.2</ele>
        <time>2023-08-11T10:51:42Z</time>
      </trkpt>
      <trkpt lat="45.26119" lon="6.06985">
        <ele>1761.75</ele>
        <time>2023-08-11T10:51:47Z</time>
      </trkpt>
      <trkpt lat="45.26125" lon="6.06983">
        <ele>1758.87</ele>
        <time>2023-08-11T10:52:05Z</time>
      </trkpt>
      <trkpt lat="45.26129" lon="6.06975">
        <ele>1757.43</ele>
        <time>2023-08-11T10:52:16Z</time>
      </trkpt>
      <trkpt lat="45.26135" lon="6.06963">
        <ele>1755.99</ele>
        <time>2023-08-11T10:52:33Z</time>
      </trkpt>
      <trkpt lat="45.26139" lon="6.06954">
        <ele>1752.62</ele>
        <time>2023-08-11T10:52:49Z</time>
      </trkpt>
      <trkpt lat="45.26144" lon="6.06952">
        <ele>1751.18</ele>
        <time>2023-08-11T10:53:05Z</time>
      </trkpt>
      <trkpt lat="45.26145" lon="6.06952">
        <ele>1750.22</ele>
        <time>2023-08-11T10:53:24Z</time>
      </trkpt>
      <trkpt lat="45.26149" lon="6.06951">
        <ele>1747.81</ele>
        <time>2023-08-11T10:53:41Z</time>
      </trkpt>
      <trkpt lat="45.26153" lon="6.06956">
        <ele>1745.41</ele>
        <time>2023-08-11T10:53:59Z</time>
      </trkpt>
      <trkpt lat="45.26158" lon="6.06958">
        <ele>1742.05</ele>
        <time>2023-08-11T10:54:15Z</time>
      </trkpt>
      <trkpt lat="45.2616" lon="6.06956">
        <ele>1740.6</ele>
        <time>2023-08-11T10:54:21Z</time>
      </trkpt>
      <trkpt lat="45.26164" lon="6.06952">
        <ele>1738.2</ele>
        <time>2023-08-11T10:54:36Z</time>
      </trkpt>
      <trkpt lat="45.26171" lon="6.06948">
        <ele>1736.76</ele>
        <time>2023-08-11T10:54:45Z</time>
      </trkpt>
      <trkpt lat="45.26185" lon="6.06941">
        <ele>1734.36</ele>
        <time>2023-08-11T10:55:02Z</time>
      </trkpt>
      <trkpt lat="45.26192" lon="6.06936">
        <ele>1733.39</ele>
        <time>2023-08-11T10:55:13Z</time>
      </trkpt>
      <trkpt lat="45.26205" lon="6.06923">
        <ele>1731.95</ele>
        <time>2023-08-11T10:55:31Z</time>
      </trkpt>
      <trkpt lat="45.26211" lon="6.06912">
        <ele>1730.03</ele>
        <time>2023-08-11T10:55:46Z</time>
      </trkpt>
      <trkpt lat="45.26221" lon="6.0691">
        <ele>1727.15</ele>
        <time>2023-08-11T10:56:02Z</time>
      </trkpt>
      <trkpt lat="45.2623" lon="6.06902">
        <ele>1724.74</ele>
        <time>2023-08-11T10:56:18Z</time>
      </trkpt>
      <trkpt lat="45.26239" lon="6.0689">
        <ele>1721.38</ele>
        <time>2023-08-11T10:56:36Z</time>
      </trkpt>
      <trkpt lat="45.26247" lon="6.06883">
        <ele>1718.97</ele>
        <time>2023-08-11T10:56:53Z</time>
      </trkpt>
      <trkpt lat="45.26257" lon="6.06877">
        <ele>1715.61</ele>
        <time>2023-08-11T10:57:10Z</time>
      </trkpt>
      <trkpt lat="45.26266" lon="6.06868">
        <ele>1713.21</ele>
        <time>2023-08-11T10:57:27Z</time>
      </trkpt>
      <trkpt lat="45.26275" lon="6.06861">
        <ele>1710.32</ele>
        <time>2023-08-11T10:57:42Z</time>
      </trkpt>
      <trkpt lat="45.26281" lon="6.06855">
        <ele>1707.44</ele>
        <time>2023-08-11T10:57:55Z</time>
      </trkpt>
      <trkpt lat="45.26291" lon="6.06846">
        <ele>1705.04</ele>
        <time>2023-08-11T10:58:10Z</time>
      </trkpt>
      <trkpt lat="45.26299" lon="6.06841">
        <ele>1702.15</ele>
        <time>2023-08-11T10:58:24Z</time>
      </trkpt>
      <trkpt lat="45.26307" lon="6.06836">
        <ele>1699.27</ele>
        <time>2023-08-11T10:58:40Z</time>
      </trkpt>
      <trkpt lat="45.26315" lon="6.06829">
        <ele>1697.34</ele>
        <time>2023-08-11T10:58:54Z</time>
      </trkpt>
      <trkpt lat="45.26323" lon="6.06822">
        <ele>1693.98</ele>
        <time>2023-08-11T10:59:08Z</time>
      </trkpt>
      <trkpt lat="45.26334" lon="6.06814">
        <ele>1690.62</ele>
        <time>2023-08-11T10:59:24Z</time>
      </trkpt>
      <trkpt lat="45.26346" lon="6.06802">
        <ele>1688.21</ele>
        <time>2023-08-11T10:59:44Z</time>
      </trkpt>
      <trkpt lat="45.26356" lon="6.0679">
        <ele>1685.81</ele>
        <time>2023-08-11T11:00:00Z</time>
      </trkpt>
      <trkpt lat="45.26369" lon="6.06781">
        <ele>1683.89</ele>
        <time>2023-08-11T11:00:19Z</time>
      </trkpt>
      <trkpt lat="45.26378" lon="6.06775">
        <ele>1681.96</ele>
        <time>2023-08-11T11:00:36Z</time>
      </trkpt>
      <trkpt lat="45.26386" lon="6.0678">
        <ele>1681</ele>
        <time>2023-08-11T11:00:50Z</time>
      </trkpt>
      <trkpt lat="45.26395" lon="6.06781">
        <ele>1678.12</ele>
        <time>2023-08-11T11:01:05Z</time>
      </trkpt>
      <trkpt lat="45.26411" lon="6.06778">
        <ele>1675.72</ele>
        <time>2023-08-11T11:01:21Z</time>
      </trkpt>
      <trkpt lat="45.26423" lon="6.06776">
        <ele>1674.27</ele>
        <time>2023-08-11T11:01:35Z</time>
      </trkpt>
      <trkpt lat="45.26425" lon="6.06776">
        <ele>1674.27</ele>
        <time>2023-08-11T11:01:37Z</time>
      </trkpt>
      <trkpt lat="45.2644" lon="6.06776">
        <ele>1673.31</ele>
        <time>2023-08-11T11:01:53Z</time>
      </trkpt>
      <trkpt lat="45.26453" lon="6.06773">
        <ele>1674.75</ele>
        <time>2023-08-11T11:02:16Z</time>
      </trkpt>
      <trkpt lat="45.26466" lon="6.06775">
        <ele>1673.31</ele>
        <time>2023-08-11T11:02:33Z</time>
      </trkpt>
      <trkpt lat="45.26472" lon="6.0678">
        <ele>1670.43</ele>
        <time>2023-08-11T11:02:51Z</time>
      </trkpt>
      <trkpt lat="45.2648" lon="6.06786">
        <ele>1668.02</ele>
        <time>2023-08-11T11:03:08Z</time>
      </trkpt>
      <trkpt lat="45.26488" lon="6.06787">
        <ele>1665.62</ele>
        <time>2023-08-11T11:03:27Z</time>
      </trkpt>
      <trkpt lat="45.26494" lon="6.06791">
        <ele>1662.26</ele>
        <time>2023-08-11T11:03:44Z</time>
      </trkpt>
      <trkpt lat="45.26504" lon="6.06794">
        <ele>1659.85</ele>
        <time>2023-08-11T11:04:01Z</time>
      </trkpt>
      <trkpt lat="45.2651" lon="6.06805">
        <ele>1656.49</ele>
        <time>2023-08-11T11:04:20Z</time>
      </trkpt>
      <trkpt lat="45.26515" lon="6.06808">
        <ele>1654.09</ele>
        <time>2023-08-11T11:04:36Z</time>
      </trkpt>
      <trkpt lat="45.26521" lon="6.06813">
        <ele>1650.72</ele>
        <time>2023-08-11T11:04:53Z</time>
      </trkpt>
      <trkpt lat="45.26527" lon="6.06821">
        <ele>1648.8</ele>
        <time>2023-08-11T11:05:10Z</time>
      </trkpt>
      <trkpt lat="45.26534" lon="6.06819">
        <ele>1645.43</ele>
        <time>2023-08-11T11:05:26Z</time>
      </trkpt>
      <trkpt lat="45.26542" lon="6.06816">
        <ele>1643.51</ele>
        <time>2023-08-11T11:05:39Z</time>
      </trkpt>
      <trkpt lat="45.2655" lon="6.0682">
        <ele>1641.59</ele>
        <time>2023-08-11T11:05:54Z</time>
      </trkpt>
      <trkpt lat="45.26559" lon="6.06827">
        <ele>1639.67</ele>
        <time>2023-08-11T11:06:08Z</time>
      </trkpt>
      <trkpt lat="45.26567" lon="6.06833">
        <ele>1637.26</ele>
        <time>2023-08-11T11:06:23Z</time>
      </trkpt>
      <trkpt lat="45.2657" lon="6.06829">
        <ele>1636.3</ele>
        <time>2023-08-11T11:06:39Z</time>
      </trkpt>
      <trkpt lat="45.26577" lon="6.06833">
        <ele>1634.38</ele>
        <time>2023-08-11T11:06:54Z</time>
      </trkpt>
      <trkpt lat="45.26586" lon="6.06834">
        <ele>1632.94</ele>
        <time>2023-08-11T11:07:06Z</time>
      </trkpt>
      <trkpt lat="45.26596" lon="6.0683">
        <ele>1631.01</ele>
        <time>2023-08-11T11:07:19Z</time>
      </trkpt>
      <trkpt lat="45.26605" lon="6.06834">
        <ele>1629.57</ele>
        <time>2023-08-11T11:07:34Z</time>
      </trkpt>
      <trkpt lat="45.26613" lon="6.06834">
        <ele>1627.65</ele>
        <time>2023-08-11T11:07:47Z</time>
      </trkpt>
      <trkpt lat="45.26621" lon="6.06836">
        <ele>1624.28</ele>
        <time>2023-08-11T11:08:01Z</time>
      </trkpt>
      <trkpt lat="45.26625" lon="6.06824">
        <ele>1622.36</ele>
        <time>2023-08-11T11:08:15Z</time>
      </trkpt>
      <trkpt lat="45.26631" lon="6.06816">
        <ele>1619.96</ele>
        <time>2023-08-11T11:08:30Z</time>
      </trkpt>
      <trkpt lat="45.26634" lon="6.06824">
        <ele>1617.56</ele>
        <time>2023-08-11T11:08:44Z</time>
      </trkpt>
      <trkpt lat="45.26638" lon="6.06835">
        <ele>1615.63</ele>
        <time>2023-08-11T11:08:56Z</time>
      </trkpt>
      <trkpt lat="45.26641" lon="6.06842">
        <ele>1612.75</ele>
        <time>2023-08-11T11:09:11Z</time>
      </trkpt>
      <trkpt lat="45.26648" lon="6.06849">
        <ele>1610.35</ele>
        <time>2023-08-11T11:09:25Z</time>
      </trkpt>
      <trkpt lat="45.26651" lon="6.06861">
        <ele>1608.9</ele>
        <time>2023-08-11T11:09:41Z</time>
      </trkpt>
      <trkpt lat="45.26657" lon="6.0687">
        <ele>1606.02</ele>
        <time>2023-08-11T11:09:56Z</time>
      </trkpt>
      <trkpt lat="45.26663" lon="6.06886">
        <ele>1604.1</ele>
        <time>2023-08-11T11:10:13Z</time>
      </trkpt>
      <trkpt lat="45.26668" lon="6.06897">
        <ele>1600.73</ele>
        <time>2023-08-11T11:10:29Z</time>
      </trkpt>
      <trkpt lat="45.26668" lon="6.0691">
        <ele>1597.37</ele>
        <time>2023-08-11T11:10:46Z</time>
      </trkpt>
      <trkpt lat="45.26668" lon="6.06924">
        <ele>1595.45</ele>
        <time>2023-08-11T11:11:05Z</time>
      </trkpt>
      <trkpt lat="45.26674" lon="6.0694">
        <ele>1593.04</ele>
        <time>2023-08-11T11:11:21Z</time>
      </trkpt>
      <trkpt lat="45.26685" lon="6.06952">
        <ele>1591.12</ele>
        <time>2023-08-11T11:11:34Z</time>
      </trkpt>
      <trkpt lat="45.26694" lon="6.06966">
        <ele>1589.68</ele>
        <time>2023-08-11T11:11:51Z</time>
      </trkpt>
      <trkpt lat="45.26705" lon="6.06975">
        <ele>1587.27</ele>
        <time>2023-08-11T11:12:07Z</time>
      </trkpt>
      <trkpt lat="45.26711" lon="6.06983">
        <ele>1584.39</ele>
        <time>2023-08-11T11:12:26Z</time>
      </trkpt>
      <trkpt lat="45.26711" lon="6.06995">
        <ele>1581.99</ele>
        <time>2023-08-11T11:12:43Z</time>
      </trkpt>
      <trkpt lat="45.26725" lon="6.07009">
        <ele>1579.58</ele>
        <time>2023-08-11T11:13:01Z</time>
      </trkpt>
      <trkpt lat="45.26729" lon="6.07019">
        <ele>1578.14</ele>
        <time>2023-08-11T11:13:20Z</time>
      </trkpt>
      <trkpt lat="45.26736" lon="6.07027">
        <ele>1575.74</ele>
        <time>2023-08-11T11:13:34Z</time>
      </trkpt>
      <trkpt lat="45.26744" lon="6.07036">
        <ele>1572.85</ele>
        <time>2023-08-11T11:13:48Z</time>
      </trkpt>
      <trkpt lat="45.2675" lon="6.07049">
        <ele>1569.97</ele>
        <time>2023-08-11T11:14:04Z</time>
      </trkpt>
      <trkpt lat="45.26761" lon="6.07063">
        <ele>1566.61</ele>
        <time>2023-08-11T11:14:23Z</time>
      </trkpt>
      <trkpt lat="45.26775" lon="6.07075">
        <ele>1563.72</ele>
        <time>2023-08-11T11:14:40Z</time>
      </trkpt>
      <trkpt lat="45.26782" lon="6.07059">
        <ele>1561.8</ele>
        <time>2023-08-11T11:14:55Z</time>
      </trkpt>
      <trkpt lat="45.26784" lon="6.07046">
        <ele>1559.4</ele>
        <time>2023-08-11T11:15:11Z</time>
      </trkpt>
      <trkpt lat="45.26785" lon="6.07038">
        <ele>1556.51</ele>
        <time>2023-08-11T11:15:29Z</time>
      </trkpt>
      <trkpt lat="45.26791" lon="6.07045">
        <ele>1553.63</ele>
        <time>2023-08-11T11:15:46Z</time>
      </trkpt>
      <trkpt lat="45.26792" lon="6.07049">
        <ele>1550.26</ele>
        <time>2023-08-11T11:16:05Z</time>
      </trkpt>
      <trkpt lat="45.26801" lon="6.07057">
        <ele>1547.38</ele>
        <time>2023-08-11T11:16:24Z</time>
      </trkpt>
      <trkpt lat="45.26811" lon="6.07063">
        <ele>1545.46</ele>
        <time>2023-08-11T11:16:42Z</time>
      </trkpt>
      <trkpt lat="45.26825" lon="6.07071">
        <ele>1544.5</ele>
        <time>2023-08-11T11:16:58Z</time>
      </trkpt>
      <trkpt lat="45.26831" lon="6.07086">
        <ele>1543.05</ele>
        <time>2023-08-11T11:17:16Z</time>
      </trkpt>
      <trkpt lat="45.26846" lon="6.07105">
        <ele>1540.65</ele>
        <time>2023-08-11T11:17:35Z</time>
      </trkpt>
      <trkpt lat="45.26858" lon="6.071">
        <ele>1539.21</ele>
        <time>2023-08-11T11:17:52Z</time>
      </trkpt>
      <trkpt lat="45.26863" lon="6.07105">
        <ele>1539.21</ele>
        <time>2023-08-11T11:18:08Z</time>
      </trkpt>
      <trkpt lat="45.2688" lon="6.07095">
        <ele>1538.73</ele>
        <time>2023-08-11T11:18:24Z</time>
      </trkpt>
      <trkpt lat="45.2689" lon="6.07083">
        <ele>1535.84</ele>
        <time>2023-08-11T11:18:40Z</time>
      </trkpt>
      <trkpt lat="45.269" lon="6.07089">
        <ele>1535.36</ele>
        <time>2023-08-11T11:18:55Z</time>
      </trkpt>
      <trkpt lat="45.26911" lon="6.07099">
        <ele>1532.48</ele>
        <time>2023-08-11T11:19:11Z</time>
      </trkpt>
      <trkpt lat="45.26925" lon="6.07092">
        <ele>1530.56</ele>
        <time>2023-08-11T11:19:25Z</time>
      </trkpt>
      <trkpt lat="45.26932" lon="6.07089">
        <ele>1529.11</ele>
        <time>2023-08-11T11:19:34Z</time>
      </trkpt>
      <trkpt lat="45.26934" lon="6.0709">
        <ele>1529.11</ele>
        <time>2023-08-11T11:19:36Z</time>
      </trkpt>
      <trkpt lat="45.26951" lon="6.07085">
        <ele>1526.71</ele>
        <time>2023-08-11T11:19:52Z</time>
      </trkpt>
      <trkpt lat="45.26952" lon="6.07085">
        <ele>1526.71</ele>
        <time>2023-08-11T11:19:53Z</time>
      </trkpt>
      <trkpt lat="45.26955" lon="6.07071">
        <ele>1524.31</ele>
        <time>2023-08-11T11:20:07Z</time>
      </trkpt>
      <trkpt lat="45.26959" lon="6.07064">
        <ele>1523.83</ele>
        <time>2023-08-11T11:20:14Z</time>
      </trkpt>
      <trkpt lat="45.26967" lon="6.07062">
        <ele>1521.9</ele>
        <time>2023-08-11T11:20:27Z</time>
      </trkpt>
      <trkpt lat="45.26979" lon="6.07064">
        <ele>1519.98</ele>
        <time>2023-08-11T11:20:42Z</time>
      </trkpt>
      <trkpt lat="45.26987" lon="6.07057">
        <ele>1518.06</ele>
        <time>2023-08-11T11:20:54Z</time>
      </trkpt>
      <trkpt lat="45.26998" lon="6.07064">
        <ele>1516.14</ele>
        <time>2023-08-11T11:21:10Z</time>
      </trkpt>
      <trkpt lat="45.27" lon="6.07064">
        <ele>1515.18</ele>
        <time>2023-08-11T11:21:12Z</time>
      </trkpt>
      <trkpt lat="45.2701" lon="6.07069">
        <ele>1512.29</ele>
        <time>2023-08-11T11:21:27Z</time>
      </trkpt>
      <trkpt lat="45.27011" lon="6.07077">
        <ele>1510.85</ele>
        <time>2023-08-11T11:21:37Z</time>
      </trkpt>
      <trkpt lat="45.27015" lon="6.07085">
        <ele>1508.93</ele>
        <time>2023-08-11T11:21:50Z</time>
      </trkpt>
      <trkpt lat="45.27024" lon="6.07095">
        <ele>1506.52</ele>
        <time>2023-08-11T11:22:04Z</time>
      </trkpt>
      <trkpt lat="45.27031" lon="6.07103">
        <ele>1504.6</ele>
        <time>2023-08-11T11:22:19Z</time>
      </trkpt>
      <trkpt lat="45.27035" lon="6.07111">
        <ele>1502.2</ele>
        <time>2023-08-11T11:22:32Z</time>
      </trkpt>
      <trkpt lat="45.27039" lon="6.07112">
        <ele>1500.27</ele>
        <time>2023-08-11T11:22:44Z</time>
      </trkpt>
      <trkpt lat="45.27049" lon="6.07117">
        <ele>1498.35</ele>
        <time>2023-08-11T11:22:58Z</time>
      </trkpt>
      <trkpt lat="45.27058" lon="6.0712">
        <ele>1496.43</ele>
        <time>2023-08-11T11:23:12Z</time>
      </trkpt>
      <trkpt lat="45.27064" lon="6.07132">
        <ele>1495.47</ele>
        <time>2023-08-11T11:23:24Z</time>
      </trkpt>
      <trkpt lat="45.27078" lon="6.07145">
        <ele>1494.03</ele>
        <time>2023-08-11T11:23:37Z</time>
      </trkpt>
      <trkpt lat="45.27086" lon="6.07151">
        <ele>1492.58</ele>
        <time>2023-08-11T11:23:50Z</time>
      </trkpt>
      <trkpt lat="45.2709" lon="6.07154">
        <ele>1490.18</ele>
        <time>2023-08-11T11:24:03Z</time>
      </trkpt>
      <trkpt lat="45.27093" lon="6.07158">
        <ele>1487.78</ele>
        <time>2023-08-11T11:24:18Z</time>
      </trkpt>
      <trkpt lat="45.27098" lon="6.07165">
        <ele>1485.85</ele>
        <time>2023-08-11T11:24:34Z</time>
      </trkpt>
      <trkpt lat="45.271" lon="6.07168">
        <ele>1483.93</ele>
        <time>2023-08-11T11:24:55Z</time>
      </trkpt>
      <trkpt lat="45.27107" lon="6.07176">
        <ele>1481.53</ele>
        <time>2023-08-11T11:25:11Z</time>
      </trkpt>
      <trkpt lat="45.27113" lon="6.07182">
        <ele>1479.61</ele>
        <time>2023-08-11T11:25:25Z</time>
      </trkpt>
      <trkpt lat="45.27115" lon="6.07189">
        <ele>1477.2</ele>
        <time>2023-08-11T11:25:39Z</time>
      </trkpt>
      <trkpt lat="45.27126" lon="6.07202">
        <ele>1473.84</ele>
        <time>2023-08-11T11:25:55Z</time>
      </trkpt>
      <trkpt lat="45.27135" lon="6.07214">
        <ele>1471.44</ele>
        <time>2023-08-11T11:26:11Z</time>
      </trkpt>
      <trkpt lat="45.2714" lon="6.07218">
        <ele>1468.55</ele>
        <time>2023-08-11T11:26:28Z</time>
      </trkpt>
      <trkpt lat="45.27143" lon="6.07216">
        <ele>1465.19</ele>
        <time>2023-08-11T11:26:43Z</time>
      </trkpt>
      <trkpt lat="45.27141" lon="6.07218">
        <ele>1463.74</ele>
        <time>2023-08-11T11:27:00Z</time>
      </trkpt>
      <trkpt lat="45.27146" lon="6.07228">
        <ele>1461.34</ele>
        <time>2023-08-11T11:27:18Z</time>
      </trkpt>
      <trkpt lat="45.27149" lon="6.07234">
        <ele>1458.46</ele>
        <time>2023-08-11T11:27:35Z</time>
      </trkpt>
      <trkpt lat="45.27153" lon="6.07237">
        <ele>1457.5</ele>
        <time>2023-08-11T11:27:46Z</time>
      </trkpt>
      <trkpt lat="45.27158" lon="6.07242">
        <ele>1456.05</ele>
        <time>2023-08-11T11:27:59Z</time>
      </trkpt>
      <trkpt lat="45.2716" lon="6.07241">
        <ele>1454.61</ele>
        <time>2023-08-11T11:28:13Z</time>
      </trkpt>
      <trkpt lat="45.27162" lon="6.0725">
        <ele>1451.73</ele>
        <time>2023-08-11T11:28:32Z</time>
      </trkpt>
      <trkpt lat="45.2716" lon="6.07253">
        <ele>1450.77</ele>
        <time>2023-08-11T11:28:43Z</time>
      </trkpt>
      <trkpt lat="45.27165" lon="6.07259">
        <ele>1448.36</ele>
        <time>2023-08-11T11:28:56Z</time>
      </trkpt>
      <trkpt lat="45.27169" lon="6.0726">
        <ele>1445.96</ele>
        <time>2023-08-11T11:29:11Z</time>
      </trkpt>
      <trkpt lat="45.27174" lon="6.07265">
        <ele>1444.52</ele>
        <time>2023-08-11T11:29:24Z</time>
      </trkpt>
      <trkpt lat="45.27176" lon="6.07261">
        <ele>1442.6</ele>
        <time>2023-08-11T11:29:37Z</time>
      </trkpt>
      <trkpt lat="45.27183" lon="6.07263">
        <ele>1441.15</ele>
        <time>2023-08-11T11:29:48Z</time>
      </trkpt>
      <trkpt lat="45.27184" lon="6.07262">
        <ele>1440.19</ele>
        <time>2023-08-11T11:29:57Z</time>
      </trkpt>
      <trkpt lat="45.27188" lon="6.07258">
        <ele>1437.79</ele>
        <time>2023-08-11T11:30:08Z</time>
      </trkpt>
      <trkpt lat="45.27193" lon="6.07257">
        <ele>1436.83</ele>
        <time>2023-08-11T11:30:25Z</time>
      </trkpt>
      <trkpt lat="45.27189" lon="6.07259">
        <ele>1435.39</ele>
        <time>2023-08-11T11:30:39Z</time>
      </trkpt>
      <trkpt lat="45.27191" lon="6.07265">
        <ele>1432.98</ele>
        <time>2023-08-11T11:30:48Z</time>
      </trkpt>
      <trkpt lat="45.27197" lon="6.07272">
        <ele>1430.1</ele>
        <time>2023-08-11T11:31:03Z</time>
      </trkpt>
      <trkpt lat="45.27203" lon="6.07276">
        <ele>1427.7</ele>
        <time>2023-08-11T11:31:16Z</time>
      </trkpt>
      <trkpt lat="45.27206" lon="6.0728">
        <ele>1426.25</ele>
        <time>2023-08-11T11:31:30Z</time>
      </trkpt>
      <trkpt lat="45.2721" lon="6.07283">
        <ele>1423.85</ele>
        <time>2023-08-11T11:31:41Z</time>
      </trkpt>
      <trkpt lat="45.27212" lon="6.07288">
        <ele>1421.45</ele>
        <time>2023-08-11T11:31:53Z</time>
      </trkpt>
      <trkpt lat="45.27214" lon="6.07289">
        <ele>1418.56</ele>
        <time>2023-08-11T11:32:07Z</time>
      </trkpt>
      <trkpt lat="45.27212" lon="6.073">
        <ele>1416.16</ele>
        <time>2023-08-11T11:32:27Z</time>
      </trkpt>
      <trkpt lat="45.27217" lon="6.07308">
        <ele>1413.28</ele>
        <time>2023-08-11T11:32:39Z</time>
      </trkpt>
      <trkpt lat="45.27222" lon="6.07313">
        <ele>1411.35</ele>
        <time>2023-08-11T11:32:50Z</time>
      </trkpt>
      <trkpt lat="45.27224" lon="6.0732">
        <ele>1408.47</ele>
        <time>2023-08-11T11:33:02Z</time>
      </trkpt>
      <trkpt lat="45.27226" lon="6.07328">
        <ele>1405.58</ele>
        <time>2023-08-11T11:33:12Z</time>
      </trkpt>
      <trkpt lat="45.27227" lon="6.0733">
        <ele>1405.58</ele>
        <time>2023-08-11T11:33:13Z</time>
      </trkpt>
      <trkpt lat="45.27233" lon="6.07339">
        <ele>1403.18</ele>
        <time>2023-08-11T11:33:23Z</time>
      </trkpt>
      <trkpt lat="45.27249" lon="6.07359">
        <ele>1401.74</ele>
        <time>2023-08-11T11:33:41Z</time>
      </trkpt>
      <trkpt lat="45.27261" lon="6.07374">
        <ele>1399.82</ele>
        <time>2023-08-11T11:33:55Z</time>
      </trkpt>
      <trkpt lat="45.27262" lon="6.07389">
        <ele>1397.89</ele>
        <time>2023-08-11T11:34:09Z</time>
      </trkpt>
      <trkpt lat="45.27263" lon="6.07391">
        <ele>1396.93</ele>
        <time>2023-08-11T11:34:13Z</time>
      </trkpt>
      <trkpt lat="45.27277" lon="6.07393">
        <ele>1395.01</ele>
        <time>2023-08-11T11:34:26Z</time>
      </trkpt>
      <trkpt lat="45.2728" lon="6.07396">
        <ele>1393.09</ele>
        <time>2023-08-11T11:34:33Z</time>
      </trkpt>
      <trkpt lat="45.27282" lon="6.07413">
        <ele>1391.17</ele>
        <time>2023-08-11T11:34:48Z</time>
      </trkpt>
      <trkpt lat="45.27288" lon="6.07418">
        <ele>1389.24</ele>
        <time>2023-08-11T11:35:01Z</time>
      </trkpt>
      <trkpt lat="45.27294" lon="6.07416">
        <ele>1386.36</ele>
        <time>2023-08-11T11:35:15Z</time>
      </trkpt>
      <trkpt lat="45.27302" lon="6.07419">
        <ele>1384.92</ele>
        <time>2023-08-11T11:35:26Z</time>
      </trkpt>
      <trkpt lat="45.27309" lon="6.07431">
        <ele>1383.96</ele>
        <time>2023-08-11T11:35:43Z</time>
      </trkpt>
      <trkpt lat="45.27316" lon="6.07441">
        <ele>1380.59</ele>
        <time>2023-08-11T11:35:58Z</time>
      </trkpt>
      <trkpt lat="45.27323" lon="6.07453">
        <ele>1378.67</ele>
        <time>2023-08-11T11:36:12Z</time>
      </trkpt>
      <trkpt lat="45.27329" lon="6.07465">
        <ele>1377.23</ele>
        <time>2023-08-11T11:36:25Z</time>
      </trkpt>
      <trkpt lat="45.27339" lon="6.07471">
        <ele>1376.26</ele>
        <time>2023-08-11T11:36:39Z</time>
      </trkpt>
      <trkpt lat="45.27353" lon="6.07471">
        <ele>1374.82</ele>
        <time>2023-08-11T11:36:52Z</time>
      </trkpt>
      <trkpt lat="45.2737" lon="6.0748">
        <ele>1372.42</ele>
        <time>2023-08-11T11:37:09Z</time>
      </trkpt>
      <trkpt lat="45.27384" lon="6.07481">
        <ele>1370.02</ele>
        <time>2023-08-11T11:37:27Z</time>
      </trkpt>
      <trkpt lat="45.27395" lon="6.07481">
        <ele>1366.65</ele>
        <time>2023-08-11T11:37:43Z</time>
      </trkpt>
      <trkpt lat="45.27399" lon="6.07486">
        <ele>1363.29</ele>
        <time>2023-08-11T11:38:03Z</time>
      </trkpt>
      <trkpt lat="45.27402" lon="6.07497">
        <ele>1361.36</ele>
        <time>2023-08-11T11:38:21Z</time>
      </trkpt>
      <trkpt lat="45.274" lon="6.07507">
        <ele>1358</ele>
        <time>2023-08-11T11:38:39Z</time>
      </trkpt>
      <trkpt lat="45.27405" lon="6.07509">
        <ele>1354.63</ele>
        <time>2023-08-11T11:38:52Z</time>
      </trkpt>
      <trkpt lat="45.2741" lon="6.07507">
        <ele>1352.23</ele>
        <time>2023-08-11T11:39:10Z</time>
      </trkpt>
      <trkpt lat="45.2742" lon="6.07506">
        <ele>1349.35</ele>
        <time>2023-08-11T11:39:23Z</time>
      </trkpt>
      <trkpt lat="45.27427" lon="6.07508">
        <ele>1346.94</ele>
        <time>2023-08-11T11:39:36Z</time>
      </trkpt>
      <trkpt lat="45.27431" lon="6.0751">
        <ele>1344.06</ele>
        <time>2023-08-11T11:39:49Z</time>
      </trkpt>
      <trkpt lat="45.27437" lon="6.07517">
        <ele>1341.18</ele>
        <time>2023-08-11T11:40:04Z</time>
      </trkpt>
      <trkpt lat="45.2744" lon="6.07521">
        <ele>1338.77</ele>
        <time>2023-08-11T11:40:15Z</time>
      </trkpt>
      <trkpt lat="45.27444" lon="6.07527">
        <ele>1336.37</ele>
        <time>2023-08-11T11:40:28Z</time>
      </trkpt>
      <trkpt lat="45.2745" lon="6.07533">
        <ele>1334.93</ele>
        <time>2023-08-11T11:40:40Z</time>
      </trkpt>
      <trkpt lat="45.27454" lon="6.07536">
        <ele>1329.64</ele>
        <time>2023-08-11T11:43:41Z</time>
      </trkpt>
      <trkpt lat="45.27459" lon="6.07544">
        <ele>1329.16</ele>
        <time>2023-08-11T11:43:52Z</time>
      </trkpt>
      <trkpt lat="45.27463" lon="6.07545">
        <ele>1327.72</ele>
        <time>2023-08-11T11:44:04Z</time>
      </trkpt>
      <trkpt lat="45.27463" lon="6.07544">
        <ele>1326.76</ele>
        <time>2023-08-11T11:44:10Z</time>
      </trkpt>
      <trkpt lat="45.27464" lon="6.07545">
        <ele>1324.83</ele>
        <time>2023-08-11T11:44:21Z</time>
      </trkpt>
      <trkpt lat="45.27466" lon="6.07547">
        <ele>1322.43</ele>
        <time>2023-08-11T11:44:33Z</time>
      </trkpt>
      <trkpt lat="45.27472" lon="6.07549">
        <ele>1320.03</ele>
        <time>2023-08-11T11:44:45Z</time>
      </trkpt>
      <trkpt lat="45.27478" lon="6.07549">
        <ele>1319.07</ele>
        <time>2023-08-11T11:44:53Z</time>
      </trkpt>
      <trkpt lat="45.27486" lon="6.07551">
        <ele>1315.7</ele>
        <time>2023-08-11T11:45:07Z</time>
      </trkpt>
      <trkpt lat="45.27489" lon="6.0755">
        <ele>1315.22</ele>
        <time>2023-08-11T11:45:18Z</time>
      </trkpt>
      <trkpt lat="45.27493" lon="6.07553">
        <ele>1312.82</ele>
        <time>2023-08-11T11:45:30Z</time>
      </trkpt>
      <trkpt lat="45.27496" lon="6.07559">
        <ele>1311.86</ele>
        <time>2023-08-11T11:45:35Z</time>
      </trkpt>
      <trkpt lat="45.27499" lon="6.07561">
        <ele>1310.9</ele>
        <time>2023-08-11T11:45:48Z</time>
      </trkpt>
      <trkpt lat="45.27501" lon="6.07565">
        <ele>1309.45</ele>
        <time>2023-08-11T11:45:57Z</time>
      </trkpt>
      <trkpt lat="45.27504" lon="6.07566">
        <ele>1308.49</ele>
        <time>2023-08-11T11:46:01Z</time>
      </trkpt>
      <trkpt lat="45.27511" lon="6.07568">
        <ele>1306.09</ele>
        <time>2023-08-11T11:46:13Z</time>
      </trkpt>
      <trkpt lat="45.27513" lon="6.07569">
        <ele>1304.65</ele>
        <time>2023-08-11T11:46:23Z</time>
      </trkpt>
      <trkpt lat="45.27513" lon="6.07568">
        <ele>1304.65</ele>
        <time>2023-08-11T11:46:24Z</time>
      </trkpt>
      <trkpt lat="45.27519" lon="6.07569">
        <ele>1303.2</ele>
        <time>2023-08-11T11:46:32Z</time>
      </trkpt>
      <trkpt lat="45.27527" lon="6.0757">
        <ele>1300.8</ele>
        <time>2023-08-11T11:46:43Z</time>
      </trkpt>
      <trkpt lat="45.27528" lon="6.07573">
        <ele>1298.88</ele>
        <time>2023-08-11T11:46:57Z</time>
      </trkpt>
      <trkpt lat="45.27534" lon="6.07577">
        <ele>1296.96</ele>
        <time>2023-08-11T11:47:09Z</time>
      </trkpt>
      <trkpt lat="45.27531" lon="6.07579">
        <ele>1294.55</ele>
        <time>2023-08-11T11:47:20Z</time>
      </trkpt>
      <trkpt lat="45.27526" lon="6.07588">
        <ele>1291.19</ele>
        <time>2023-08-11T11:47:33Z</time>
      </trkpt>
      <trkpt lat="45.27523" lon="6.07593">
        <ele>1289.27</ele>
        <time>2023-08-11T11:47:43Z</time>
      </trkpt>
      <trkpt lat="45.27518" lon="6.07602">
        <ele>1287.34</ele>
        <time>2023-08-11T11:47:53Z</time>
      </trkpt>
      <trkpt lat="45.27508" lon="6.07611">
        <ele>1284.94</ele>
        <time>2023-08-11T11:48:07Z</time>
      </trkpt>
      <trkpt lat="45.27498" lon="6.07618">
        <ele>1282.54</ele>
        <time>2023-08-11T11:48:21Z</time>
      </trkpt>
      <trkpt lat="45.27492" lon="6.07627">
        <ele>1280.13</ele>
        <time>2023-08-11T11:48:34Z</time>
      </trkpt>
      <trkpt lat="45.27496" lon="6.07631">
        <ele>1277.25</ele>
        <time>2023-08-11T11:48:46Z</time>
      </trkpt>
      <trkpt lat="45.27505" lon="6.07632">
        <ele>1274.36</ele>
        <time>2023-08-11T11:48:59Z</time>
      </trkpt>
      <trkpt lat="45.27514" lon="6.07634">
        <ele>1271</ele>
        <time>2023-08-11T11:49:13Z</time>
      </trkpt>
      <trkpt lat="45.27526" lon="6.07636">
        <ele>1268.12</ele>
        <time>2023-08-11T11:49:27Z</time>
      </trkpt>
      <trkpt lat="45.27537" lon="6.07633">
        <ele>1264.75</ele>
        <time>2023-08-11T11:49:41Z</time>
      </trkpt>
      <trkpt lat="45.27549" lon="6.07633">
        <ele>1261.39</ele>
        <time>2023-08-11T11:49:55Z</time>
      </trkpt>
      <trkpt lat="45.27564" lon="6.07631">
        <ele>1259.94</ele>
        <time>2023-08-11T11:50:09Z</time>
      </trkpt>
      <trkpt lat="45.27575" lon="6.07629">
        <ele>1257.54</ele>
        <time>2023-08-11T11:50:20Z</time>
      </trkpt>
      <trkpt lat="45.27583" lon="6.07631">
        <ele>1254.18</ele>
        <time>2023-08-11T11:50:30Z</time>
      </trkpt>
      <trkpt lat="45.27601" lon="6.07623">
        <ele>1251.29</ele>
        <time>2023-08-11T11:50:45Z</time>
      </trkpt>
      <trkpt lat="45.27618" lon="6.07613">
        <ele>1248.41</ele>
        <time>2023-08-11T11:51:01Z</time>
      </trkpt>
      <trkpt lat="45.27629" lon="6.07604">
        <ele>1245.04</ele>
        <time>2023-08-11T11:51:15Z</time>
      </trkpt>
      <trkpt lat="45.27641" lon="6.07596">
        <ele>1242.16</ele>
        <time>2023-08-11T11:51:29Z</time>
      </trkpt>
      <trkpt lat="45.27644" lon="6.07585">
        <ele>1238.8</ele>
        <time>2023-08-11T11:51:41Z</time>
      </trkpt>
      <trkpt lat="45.27649" lon="6.07574">
        <ele>1235.43</ele>
        <time>2023-08-11T11:51:55Z</time>
      </trkpt>
      <trkpt lat="45.27653" lon="6.07564">
        <ele>1232.55</ele>
        <time>2023-08-11T11:52:05Z</time>
      </trkpt>
      <trkpt lat="45.27661" lon="6.07565">
        <ele>1229.66</ele>
        <time>2023-08-11T11:52:18Z</time>
      </trkpt>
      <trkpt lat="45.27664" lon="6.07568">
        <ele>1228.7</ele>
        <time>2023-08-11T11:52:23Z</time>
      </trkpt>
      <trkpt lat="45.27671" lon="6.07581">
        <ele>1225.34</ele>
        <time>2023-08-11T11:52:37Z</time>
      </trkpt>
      <trkpt lat="45.27675" lon="6.07577">
        <ele>1223.9</ele>
        <time>2023-08-11T11:52:48Z</time>
      </trkpt>
      <trkpt lat="45.2768" lon="6.07567">
        <ele>1220.05</ele>
        <time>2023-08-11T11:53:03Z</time>
      </trkpt>
      <trkpt lat="45.27684" lon="6.07555">
        <ele>1216.69</ele>
        <time>2023-08-11T11:53:17Z</time>
      </trkpt>
      <trkpt lat="45.27686" lon="6.07542">
        <ele>1213.8</ele>
        <time>2023-08-11T11:53:31Z</time>
      </trkpt>
      <trkpt lat="45.27689" lon="6.07532">
        <ele>1211.4</ele>
        <time>2023-08-11T11:53:42Z</time>
      </trkpt>
      <trkpt lat="45.27696" lon="6.07517">
        <ele>1209.48</ele>
        <time>2023-08-11T11:53:57Z</time>
      </trkpt>
      <trkpt lat="45.27699" lon="6.07506">
        <ele>1206.11</ele>
        <time>2023-08-11T11:54:10Z</time>
      </trkpt>
      <trkpt lat="45.277" lon="6.07493">
        <ele>1204.67</ele>
        <time>2023-08-11T11:54:20Z</time>
      </trkpt>
      <trkpt lat="45.27701" lon="6.07482">
        <ele>1202.27</ele>
        <time>2023-08-11T11:54:29Z</time>
      </trkpt>
      <trkpt lat="45.27705" lon="6.07471">
        <ele>1199.38</ele>
        <time>2023-08-11T11:54:39Z</time>
      </trkpt>
      <trkpt lat="45.27714" lon="6.07465">
        <ele>1196.98</ele>
        <time>2023-08-11T11:54:52Z</time>
      </trkpt>
      <trkpt lat="45.27716" lon="6.07456">
        <ele>1195.54</ele>
        <time>2023-08-11T11:55:09Z</time>
      </trkpt>
      <trkpt lat="45.27712" lon="6.07431">
        <ele>1192.65</ele>
        <time>2023-08-11T11:55:23Z</time>
      </trkpt>
      <trkpt lat="45.27715" lon="6.07418">
        <ele>1190.25</ele>
        <time>2023-08-11T11:55:38Z</time>
      </trkpt>
      <trkpt lat="45.27725" lon="6.07405">
        <ele>1188.81</ele>
        <time>2023-08-11T11:55:52Z</time>
      </trkpt>
      <trkpt lat="45.27729" lon="6.07402">
        <ele>1188.81</ele>
        <time>2023-08-11T11:55:56Z</time>
      </trkpt>
      <trkpt lat="45.27742" lon="6.07389">
        <ele>1188.81</ele>
        <time>2023-08-11T11:56:13Z</time>
      </trkpt>
      <trkpt lat="45.27746" lon="6.07382">
        <ele>1185.92</ele>
        <time>2023-08-11T11:56:23Z</time>
      </trkpt>
      <trkpt lat="45.27747" lon="6.07367">
        <ele>1183.52</ele>
        <time>2023-08-11T11:56:36Z</time>
      </trkpt>
      <trkpt lat="45.27747" lon="6.0735">
        <ele>1180.64</ele>
        <time>2023-08-11T11:56:51Z</time>
      </trkpt>
      <trkpt lat="45.27747" lon="6.07348">
        <ele>1180.64</ele>
        <time>2023-08-11T11:56:52Z</time>
      </trkpt>
      <trkpt lat="45.2775" lon="6.07336">
        <ele>1179.67</ele>
        <time>2023-08-11T11:56:59Z</time>
      </trkpt>
      <trkpt lat="45.27751" lon="6.07321">
        <ele>1179.19</ele>
        <time>2023-08-11T11:57:10Z</time>
      </trkpt>
      <trkpt lat="45.27755" lon="6.07306">
        <ele>1177.75</ele>
        <time>2023-08-11T11:57:22Z</time>
      </trkpt>
      <trkpt lat="45.27758" lon="6.07292">
        <ele>1175.83</ele>
        <time>2023-08-11T11:57:35Z</time>
      </trkpt>
      <trkpt lat="45.27761" lon="6.07279">
        <ele>1172.47</ele>
        <time>2023-08-11T11:57:48Z</time>
      </trkpt>
      <trkpt lat="45.27763" lon="6.07259">
        <ele>1169.58</ele>
        <time>2023-08-11T11:58:04Z</time>
      </trkpt>
      <trkpt lat="45.27763" lon="6.07258">
        <ele>1169.58</ele>
        <time>2023-08-11T11:58:05Z</time>
      </trkpt>
      <trkpt lat="45.27764" lon="6.0724">
        <ele>1167.18</ele>
        <time>2023-08-11T11:58:19Z</time>
      </trkpt>
      <trkpt lat="45.27764" lon="6.07229">
        <ele>1165.26</ele>
        <time>2023-08-11T11:58:32Z</time>
      </trkpt>
      <trkpt lat="45.27765" lon="6.07215">
        <ele>1161.89</ele>
        <time>2023-08-11T11:58:47Z</time>
      </trkpt>
      <trkpt lat="45.27765" lon="6.07197">
        <ele>1159.01</ele>
        <time>2023-08-11T11:59:01Z</time>
      </trkpt>
      <trkpt lat="45.27763" lon="6.0718">
        <ele>1156.6</ele>
        <time>2023-08-11T11:59:15Z</time>
      </trkpt>
      <trkpt lat="45.27761" lon="6.0717">
        <ele>1154.68</ele>
        <time>2023-08-11T11:59:24Z</time>
      </trkpt>
      <trkpt lat="45.27753" lon="6.07152">
        <ele>1153.24</ele>
        <time>2023-08-11T11:59:38Z</time>
      </trkpt>
      <trkpt lat="45.27745" lon="6.0713">
        <ele>1151.8</ele>
        <time>2023-08-11T11:59:54Z</time>
      </trkpt>
      <trkpt lat="45.27737" lon="6.07109">
        <ele>1149.87</ele>
        <time>2023-08-11T12:00:10Z</time>
      </trkpt>
      <trkpt lat="45.27734" lon="6.07103">
        <ele>1149.87</ele>
        <time>2023-08-11T12:00:15Z</time>
      </trkpt>
      <trkpt lat="45.27732" lon="6.07083">
        <ele>1149.87</ele>
        <time>2023-08-11T12:00:27Z</time>
      </trkpt>
      <trkpt lat="45.27726" lon="6.07065">
        <ele>1150.84</ele>
        <time>2023-08-11T12:00:41Z</time>
      </trkpt>
      <trkpt lat="45.27727" lon="6.07052">
        <ele>1151.32</ele>
        <time>2023-08-11T12:00:54Z</time>
      </trkpt>
      <trkpt lat="45.27739" lon="6.07054">
        <ele>1149.87</ele>
        <time>2023-08-11T12:01:11Z</time>
      </trkpt>
      <trkpt lat="45.2775" lon="6.07059">
        <ele>1149.39</ele>
        <time>2023-08-11T12:01:23Z</time>
      </trkpt>
      <trkpt lat="45.27755" lon="6.07061">
        <ele>1149.39</ele>
        <time>2023-08-11T12:01:29Z</time>
      </trkpt>
      <trkpt lat="45.27767" lon="6.07064">
        <ele>1150.35</ele>
        <time>2023-08-11T12:01:43Z</time>
      </trkpt>
      <trkpt lat="45.27776" lon="6.07065">
        <ele>1151.32</ele>
        <time>2023-08-11T12:01:55Z</time>
      </trkpt>
      <trkpt lat="45.27792" lon="6.07062">
        <ele>1151.8</ele>
        <time>2023-08-11T12:02:10Z</time>
      </trkpt>
      <trkpt lat="45.27806" lon="6.07063">
        <ele>1152.28</ele>
        <time>2023-08-11T12:02:26Z</time>
      </trkpt>
      <trkpt lat="45.27821" lon="6.07062">
        <ele>1151.32</ele>
        <time>2023-08-11T12:02:41Z</time>
      </trkpt>
      <trkpt lat="45.27841" lon="6.07062">
        <ele>1149.39</ele>
        <time>2023-08-11T12:02:59Z</time>
      </trkpt>
      <trkpt lat="45.27854" lon="6.07072">
        <ele>1146.03</ele>
        <time>2023-08-11T12:03:16Z</time>
      </trkpt>
      <trkpt lat="45.27859" lon="6.07078">
        <ele>1145.07</ele>
        <time>2023-08-11T12:03:22Z</time>
      </trkpt>
      <trkpt lat="45.27873" lon="6.07089">
        <ele>1144.59</ele>
        <time>2023-08-11T12:03:30Z</time>
      </trkpt>
      <trkpt lat="45.27881" lon="6.071">
        <ele>1142.66</ele>
        <time>2023-08-11T12:03:42Z</time>
      </trkpt>
      <trkpt lat="45.27882" lon="6.071">
        <ele>1142.66</ele>
        <time>2023-08-11T12:03:43Z</time>
      </trkpt>
      <trkpt lat="45.27883" lon="6.07101">
        <ele>1142.18</ele>
        <time>2023-08-11T12:03:45Z</time>
      </trkpt>
      <trkpt lat="45.27887" lon="6.07105">
        <ele>1141.7</ele>
        <time>2023-08-11T12:03:49Z</time>
      </trkpt>
      <trkpt lat="45.27905" lon="6.07113">
        <ele>1139.3</ele>
        <time>2023-08-11T12:04:09Z</time>
      </trkpt>
      <trkpt lat="45.27931" lon="6.07119">
        <ele>1135.94</ele>
        <time>2023-08-11T12:04:31Z</time>
      </trkpt>
      <trkpt lat="45.27939" lon="6.07132">
        <ele>1134.01</ele>
        <time>2023-08-11T12:04:48Z</time>
      </trkpt>
      <trkpt lat="45.27948" lon="6.07144">
        <ele>1133.05</ele>
        <time>2023-08-11T12:04:55Z</time>
      </trkpt>
      <trkpt lat="45.27958" lon="6.0716">
        <ele>1130.65</ele>
        <time>2023-08-11T12:05:09Z</time>
      </trkpt>
      <trkpt lat="45.27969" lon="6.07179">
        <ele>1128.24</ele>
        <time>2023-08-11T12:05:26Z</time>
      </trkpt>
      <trkpt lat="45.27979" lon="6.07192">
        <ele>1126.8</ele>
        <time>2023-08-11T12:05:41Z</time>
      </trkpt>
      <trkpt lat="45.27983" lon="6.07196">
        <ele>1125.84</ele>
        <time>2023-08-11T12:05:47Z</time>
      </trkpt>
      <trkpt lat="45.27992" lon="6.07205">
        <ele>1123.92</ele>
        <time>2023-08-11T12:06:00Z</time>
      </trkpt>
      <trkpt lat="45.27995" lon="6.07211">
        <ele>1123.44</ele>
        <time>2023-08-11T12:06:06Z</time>
      </trkpt>
      <trkpt lat="45.28002" lon="6.07233">
        <ele>1120.55</ele>
        <time>2023-08-11T12:06:20Z</time>
      </trkpt>
      <trkpt lat="45.28018" lon="6.07243">
        <ele>1120.07</ele>
        <time>2023-08-11T12:06:33Z</time>
      </trkpt>
      <trkpt lat="45.28028" lon="6.07249">
        <ele>1118.63</ele>
        <time>2023-08-11T12:06:46Z</time>
      </trkpt>
      <trkpt lat="45.2804" lon="6.07257">
        <ele>1117.19</ele>
        <time>2023-08-11T12:07:02Z</time>
      </trkpt>
    </trkseg>
  </trk>
</gpx>